<?xml version='1.0' encoding='UTF-8'?><gpx version="1.1" creator="JPX - https://github.com/jenetics/jpx" xmlns="http://www.topografix.com/GPX/1/1"><trk><trkseg><trkpt lat="43.49650687807691" lon="11.536428423018325"><ele>328.0</ele><time>2026-04-04T08:24:57.999Z</time></trkpt><trkpt lat="43.49649471835319" lon="11.53629877511547"><ele>328.0</ele><time>2026-04-04T08:24:59.999Z</time></trkpt><trkpt lat="43.4965018641787" lon="11.536167611879604"><ele>328.0</ele><time>2026-04-04T08:25:01.999Z</time></trkpt><trkpt lat="43.49647676793565" lon="11.536071335032952"><ele>328.0</ele><time>2026-04-04T08:25:03.999Z</time></trkpt><trkpt lat="43.49636268505659" lon="11.535944104992634"><ele>328.0</ele><time>2026-04-04T08:25:05.999Z</time></trkpt><trkpt lat="43.49629294809101" lon="11.535858343149341"><ele>330.2</ele><time>2026-04-04T08:25:06.999Z</time></trkpt><trkpt lat="43.49625153446362" lon="11.535738530493933"><ele>332.4</ele><time>2026-04-04T08:25:07.999Z</time></trkpt><trkpt lat="43.496215929152264" lon="11.535611426705417"><ele>334.59999999999997</ele><time>2026-04-04T08:25:08.999Z</time></trkpt><trkpt lat="43.49616955468691" lon="11.53548372713644"><ele>336.79999999999995</ele><time>2026-04-04T08:25:09.999Z</time></trkpt><trkpt lat="43.49613429817729" lon="11.535340173502075"><ele>339.0</ele><time>2026-04-04T08:25:10.999Z</time></trkpt><trkpt lat="43.49609375421068" lon="11.535187910298259"><ele>340.75</ele><time>2026-04-04T08:25:11.999Z</time></trkpt><trkpt lat="43.49605201577651" lon="11.535029851320152"><ele>342.5</ele><time>2026-04-04T08:25:12.999Z</time></trkpt><trkpt lat="43.49600597635485" lon="11.534883142750214"><ele>344.25</ele><time>2026-04-04T08:25:13.999Z</time></trkpt><trkpt lat="43.49593562658023" lon="11.534753645655544"><ele>346.0</ele><time>2026-04-04T08:25:14.999Z</time></trkpt><trkpt lat="43.49586238019083" lon="11.534627652283193"><ele>347.75</ele><time>2026-04-04T08:25:15.999Z</time></trkpt><trkpt lat="43.495761841135824" lon="11.53451701694962"><ele>349.5</ele><time>2026-04-04T08:25:16.999Z</time></trkpt><trkpt lat="43.49566721243963" lon="11.53439329327253"><ele>351.25</ele><time>2026-04-04T08:25:17.999Z</time></trkpt><trkpt lat="43.495615102687644" lon="11.534228841606291"><ele>353.0</ele><time>2026-04-04T08:25:18.999Z</time></trkpt><trkpt lat="43.49557057821388" lon="11.534057960756058"><ele>353.0</ele><time>2026-04-04T08:25:19.999Z</time></trkpt><trkpt lat="43.495516884734315" lon="11.533883768814938"><ele>353.0</ele><time>2026-04-04T08:25:20.999Z</time></trkpt><trkpt lat="43.49545955176281" lon="11.533709865265122"><ele>353.0</ele><time>2026-04-04T08:25:21.999Z</time></trkpt><trkpt lat="43.495389505625496" lon="11.533549771618674"><ele>353.0</ele><time>2026-04-04T08:25:22.999Z</time></trkpt><trkpt lat="43.495278262900634" lon="11.533421760791532"><ele>355.33333333333337</ele><time>2026-04-04T08:25:23.999Z</time></trkpt><trkpt lat="43.495138808362164" lon="11.533340391364014"><ele>357.6666666666667</ele><time>2026-04-04T08:25:24.999Z</time></trkpt><trkpt lat="43.49497629788229" lon="11.533270481276782"><ele>360.0</ele><time>2026-04-04T08:25:25.999Z</time></trkpt><trkpt lat="43.49479442628917" lon="11.533181404862015"><ele>360.0</ele><time>2026-04-04T08:25:26.999Z</time></trkpt><trkpt lat="43.4946019641966" lon="11.53307439660665"><ele>360.0</ele><time>2026-04-04T08:25:27.999Z</time></trkpt><trkpt lat="43.494403592076864" lon="11.532975045103674"><ele>360.0</ele><time>2026-04-04T08:25:28.999Z</time></trkpt><trkpt lat="43.494262456751656" lon="11.532907810677077"><ele>360.75</ele><time>2026-04-04T08:25:29.999Z</time></trkpt><trkpt lat="43.49412671724168" lon="11.532905267858178"><ele>361.5</ele><time>2026-04-04T08:25:30.999Z</time></trkpt><trkpt lat="43.49398263484804" lon="11.532949867414555"><ele>362.25</ele><time>2026-04-04T08:25:31.999Z</time></trkpt><trkpt lat="43.49383973019576" lon="11.532976465133423"><ele>363.0</ele><time>2026-04-04T08:25:32.999Z</time></trkpt><trkpt lat="43.49370045318636" lon="11.533001643634703"><ele>365.25</ele><time>2026-04-04T08:25:33.999Z</time></trkpt><trkpt lat="43.49356112355883" lon="11.533001631245787"><ele>367.5</ele><time>2026-04-04T08:25:34.999Z</time></trkpt><trkpt lat="43.493434230912165" lon="11.533021167175727"><ele>369.75</ele><time>2026-04-04T08:25:35.999Z</time></trkpt><trkpt lat="43.49330276923923" lon="11.533038295218757"><ele>372.0</ele><time>2026-04-04T08:25:36.999Z</time></trkpt><trkpt lat="43.493181629727836" lon="11.533029169925687"><ele>372.0</ele><time>2026-04-04T08:25:37.999Z</time></trkpt><trkpt lat="43.493086753489116" lon="11.532972877258363"><ele>372.0</ele><time>2026-04-04T08:25:38.999Z</time></trkpt><trkpt lat="43.493025908938066" lon="11.532874470070427"><ele>372.0</ele><time>2026-04-04T08:25:39.999Z</time></trkpt><trkpt lat="43.49299284320292" lon="11.53275362879481"><ele>372.0</ele><time>2026-04-04T08:25:40.999Z</time></trkpt><trkpt lat="43.492943269617875" lon="11.532550902228978"><ele>372.0</ele><time>2026-04-04T08:25:41.999Z</time></trkpt><trkpt lat="43.49294029174769" lon="11.532339229975051"><ele>372.5</ele><time>2026-04-04T08:25:42.999Z</time></trkpt><trkpt lat="43.49294975668839" lon="11.532137621730744"><ele>373.0</ele><time>2026-04-04T08:25:43.999Z</time></trkpt><trkpt lat="43.49293573744359" lon="11.531987773382626"><ele>373.5</ele><time>2026-04-04T08:25:44.999Z</time></trkpt><trkpt lat="43.49288036490086" lon="11.53183329352193"><ele>374.0</ele><time>2026-04-04T08:25:45.999Z</time></trkpt><trkpt lat="43.49278952382062" lon="11.531660479228213"><ele>376.5</ele><time>2026-04-04T08:25:46.999Z</time></trkpt><trkpt lat="43.49271744935647" lon="11.531472873332016"><ele>379.0</ele><time>2026-04-04T08:25:47.999Z</time></trkpt><trkpt lat="43.49268658688672" lon="11.531273330074029"><ele>381.5</ele><time>2026-04-04T08:25:48.999Z</time></trkpt><trkpt lat="43.49267241883931" lon="11.531086343124587"><ele>384.0</ele><time>2026-04-04T08:25:49.999Z</time></trkpt><trkpt lat="43.492675325084164" lon="11.530893765782778"><ele>386.25</ele><time>2026-04-04T08:25:50.999Z</time></trkpt><trkpt lat="43.49264724528647" lon="11.530698443407637"><ele>388.5</ele><time>2026-04-04T08:25:51.999Z</time></trkpt><trkpt lat="43.492617440409724" lon="11.530502690142416"><ele>390.75</ele><time>2026-04-04T08:25:52.999Z</time></trkpt><trkpt lat="43.4925854451272" lon="11.530311457672227"><ele>393.0</ele><time>2026-04-04T08:25:53.999Z</time></trkpt><trkpt lat="43.492555954577846" lon="11.530123464948803"><ele>392.5</ele><time>2026-04-04T08:25:54.999Z</time></trkpt><trkpt lat="43.492529544883205" lon="11.52994257624743"><ele>392.0</ele><time>2026-04-04T08:25:55.999Z</time></trkpt><trkpt lat="43.49250534204833" lon="11.529753571447136"><ele>391.5</ele><time>2026-04-04T08:25:56.999Z</time></trkpt><trkpt lat="43.49247954301935" lon="11.529558454142158"><ele>391.0</ele><time>2026-04-04T08:25:57.999Z</time></trkpt><trkpt lat="43.49242475554054" lon="11.529378609671216"><ele>391.0</ele><time>2026-04-04T08:25:58.999Z</time></trkpt><trkpt lat="43.4923437044044" lon="11.52922058286368"><ele>391.0</ele><time>2026-04-04T08:25:59.999Z</time></trkpt><trkpt lat="43.49226639425452" lon="11.529062574913691"><ele>391.0</ele><time>2026-04-04T08:26:00.999Z</time></trkpt><trkpt lat="43.492230795755745" lon="11.52887681401235"><ele>391.0</ele><time>2026-04-04T08:26:01.999Z</time></trkpt><trkpt lat="43.492183779283124" lon="11.528675899289007"><ele>391.33333333333337</ele><time>2026-04-04T08:26:02.999Z</time></trkpt><trkpt lat="43.49218127442842" lon="11.528462395915092"><ele>391.66666666666663</ele><time>2026-04-04T08:26:03.999Z</time></trkpt><trkpt lat="43.49216086406717" lon="11.528240692396366"><ele>392.0</ele><time>2026-04-04T08:26:04.999Z</time></trkpt><trkpt lat="43.49217415305952" lon="11.528010322204635"><ele>392.75</ele><time>2026-04-04T08:26:05.999Z</time></trkpt><trkpt lat="43.4921731973708" lon="11.52779333811423"><ele>393.5</ele><time>2026-04-04T08:26:06.999Z</time></trkpt><trkpt lat="43.49214496829823" lon="11.52759392849382"><ele>394.25</ele><time>2026-04-04T08:26:07.999Z</time></trkpt><trkpt lat="43.49213826865665" lon="11.527404857233874"><ele>395.0</ele><time>2026-04-04T08:26:08.999Z</time></trkpt><trkpt lat="43.492139972941004" lon="11.527224623141159"><ele>395.25</ele><time>2026-04-04T08:26:09.999Z</time></trkpt><trkpt lat="43.49211464513703" lon="11.527024640463363"><ele>395.5</ele><time>2026-04-04T08:26:10.999Z</time></trkpt><trkpt lat="43.492071787755066" lon="11.52682540369448"><ele>395.75</ele><time>2026-04-04T08:26:11.999Z</time></trkpt><trkpt lat="43.49200661769311" lon="11.52664488751625"><ele>396.0</ele><time>2026-04-04T08:26:12.999Z</time></trkpt><trkpt lat="43.49193405506748" lon="11.526479885309286"><ele>398.75</ele><time>2026-04-04T08:26:13.999Z</time></trkpt><trkpt lat="43.49189083807306" lon="11.526319096707535"><ele>401.5</ele><time>2026-04-04T08:26:14.999Z</time></trkpt><trkpt lat="43.49190837911798" lon="11.526148654838146"><ele>404.25</ele><time>2026-04-04T08:26:15.999Z</time></trkpt><trkpt lat="43.49197901947197" lon="11.525989469100631"><ele>407.0</ele><time>2026-04-04T08:26:16.999Z</time></trkpt><trkpt lat="43.4920988933897" lon="11.525892846501502"><ele>407.0</ele><time>2026-04-04T08:26:17.999Z</time></trkpt><trkpt lat="43.49215491980928" lon="11.52575774660429"><ele>407.0</ele><time>2026-04-04T08:26:18.999Z</time></trkpt><trkpt lat="43.49215733323524" lon="11.525595471143946"><ele>407.0</ele><time>2026-04-04T08:26:19.999Z</time></trkpt><trkpt lat="43.49211080304776" lon="11.525418625052863"><ele>407.0</ele><time>2026-04-04T08:26:20.999Z</time></trkpt><trkpt lat="43.49207260698848" lon="11.525243826948307"><ele>414.5</ele><time>2026-04-04T08:26:21.999Z</time></trkpt><trkpt lat="43.492057822144645" lon="11.52505871206735"><ele>422.0</ele><time>2026-04-04T08:26:22.999Z</time></trkpt><trkpt lat="43.492047771759324" lon="11.524877753180405"><ele>429.5</ele><time>2026-04-04T08:26:23.999Z</time></trkpt><trkpt lat="43.492027657261325" lon="11.524712107518829"><ele>437.0</ele><time>2026-04-04T08:26:24.999Z</time></trkpt><trkpt lat="43.49196887303638" lon="11.524594568011453"><ele>437.5</ele><time>2026-04-04T08:26:25.999Z</time></trkpt><trkpt lat="43.491865669825664" lon="11.524510313509701"><ele>438.0</ele><time>2026-04-04T08:26:26.999Z</time></trkpt><trkpt lat="43.49173543002577" lon="11.524429591948895"><ele>438.5</ele><time>2026-04-04T08:26:27.999Z</time></trkpt><trkpt lat="43.491603251787254" lon="11.524341389215246"><ele>439.0</ele><time>2026-04-04T08:26:28.999Z</time></trkpt><trkpt lat="43.491497062534016" lon="11.52419989600826"><ele>439.0</ele><time>2026-04-04T08:26:29.999Z</time></trkpt><trkpt lat="43.49142600270367" lon="11.524025010876562"><ele>439.0</ele><time>2026-04-04T08:26:30.999Z</time></trkpt><trkpt lat="43.49133891575305" lon="11.523836692439987"><ele>439.0</ele><time>2026-04-04T08:26:31.999Z</time></trkpt><trkpt lat="43.49121180138676" lon="11.523609971920553"><ele>441.6666666666667</ele><time>2026-04-04T08:26:32.999Z</time></trkpt><trkpt lat="43.491090456442166" lon="11.52338024118598"><ele>444.33333333333337</ele><time>2026-04-04T08:26:33.999Z</time></trkpt><trkpt lat="43.49095487676804" lon="11.52319289437722"><ele>447.0</ele><time>2026-04-04T08:26:34.999Z</time></trkpt><trkpt lat="43.49081248720568" lon="11.523032841724138"><ele>447.66666666666663</ele><time>2026-04-04T08:26:35.999Z</time></trkpt><trkpt lat="43.49070184939523" lon="11.52283405460649"><ele>448.3333333333333</ele><time>2026-04-04T08:26:36.999Z</time></trkpt><trkpt lat="43.49059901682639" lon="11.522652966386506"><ele>449.0</ele><time>2026-04-04T08:26:37.999Z</time></trkpt><trkpt lat="43.490486820337544" lon="11.52249022628429"><ele>448.0</ele><time>2026-04-04T08:26:38.999Z</time></trkpt><trkpt lat="43.490386187069866" lon="11.522299919457383"><ele>447.0</ele><time>2026-04-04T08:26:39.999Z</time></trkpt><trkpt lat="43.49028906133561" lon="11.522112949498725"><ele>446.0</ele><time>2026-04-04T08:26:40.999Z</time></trkpt><trkpt lat="43.49022563823329" lon="11.52191711348917"><ele>446.0</ele><time>2026-04-04T08:26:41.999Z</time></trkpt><trkpt lat="43.49016551241507" lon="11.521712845765752"><ele>446.0</ele><time>2026-04-04T08:26:42.999Z</time></trkpt><trkpt lat="43.49010997222532" lon="11.521479478737962"><ele>446.0</ele><time>2026-04-04T08:26:43.999Z</time></trkpt><trkpt lat="43.49007822862242" lon="11.521239654264116"><ele>447.66666666666663</ele><time>2026-04-04T08:26:44.999Z</time></trkpt><trkpt lat="43.49004061196269" lon="11.521002738639986"><ele>449.33333333333337</ele><time>2026-04-04T08:26:45.999Z</time></trkpt><trkpt lat="43.49000954361136" lon="11.520777410356256"><ele>451.0</ele><time>2026-04-04T08:26:46.999Z</time></trkpt><trkpt lat="43.48998606157479" lon="11.520558604284432"><ele>450.0</ele><time>2026-04-04T08:26:47.999Z</time></trkpt><trkpt lat="43.48997188526232" lon="11.520333716577417"><ele>449.0</ele><time>2026-04-04T08:26:48.999Z</time></trkpt><trkpt lat="43.489954662972806" lon="11.520111333578756"><ele>448.0</ele><time>2026-04-04T08:26:49.999Z</time></trkpt><trkpt lat="43.48992387126279" lon="11.519879241591942"><ele>448.0</ele><time>2026-04-04T08:26:50.999Z</time></trkpt><trkpt lat="43.48988198755988" lon="11.519652771634107"><ele>448.0</ele><time>2026-04-04T08:26:51.999Z</time></trkpt><trkpt lat="43.48983095966443" lon="11.519425048928907"><ele>448.0</ele><time>2026-04-04T08:26:52.999Z</time></trkpt><trkpt lat="43.48978333505763" lon="11.519195152069127"><ele>445.6666666666667</ele><time>2026-04-04T08:26:53.999Z</time></trkpt><trkpt lat="43.48973867269585" lon="11.518961533455867"><ele>443.33333333333337</ele><time>2026-04-04T08:26:54.999Z</time></trkpt><trkpt lat="43.48969171806597" lon="11.51872749103919"><ele>441.0</ele><time>2026-04-04T08:26:55.999Z</time></trkpt><trkpt lat="43.489645861915946" lon="11.518494441373079"><ele>440.0</ele><time>2026-04-04T08:26:56.999Z</time></trkpt><trkpt lat="43.48961869633926" lon="11.518266502743678"><ele>439.0</ele><time>2026-04-04T08:26:57.999Z</time></trkpt><trkpt lat="43.4895806565148" lon="11.518048524167693"><ele>438.0</ele><time>2026-04-04T08:26:58.999Z</time></trkpt><trkpt lat="43.489570850108905" lon="11.51783614843783"><ele>443.66666666666663</ele><time>2026-04-04T08:26:59.999Z</time></trkpt><trkpt lat="43.48959709875016" lon="11.517616013720533"><ele>449.3333333333333</ele><time>2026-04-04T08:27:00.999Z</time></trkpt><trkpt lat="43.48961302567876" lon="11.517400838112295"><ele>455.0</ele><time>2026-04-04T08:27:01.999Z</time></trkpt><trkpt lat="43.48961851404426" lon="11.517188561714166"><ele>464.0</ele><time>2026-04-04T08:27:02.999Z</time></trkpt><trkpt lat="43.489564890330215" lon="11.516970140683839"><ele>473.0</ele><time>2026-04-04T08:27:03.999Z</time></trkpt><trkpt lat="43.489471139095706" lon="11.516782147002864"><ele>482.0</ele><time>2026-04-04T08:27:04.999Z</time></trkpt><trkpt lat="43.48939080512525" lon="11.516615538725357"><ele>482.0</ele><time>2026-04-04T08:27:05.999Z</time></trkpt><trkpt lat="43.48939428568957" lon="11.51645370049607"><ele>482.0</ele><time>2026-04-04T08:27:06.999Z</time></trkpt><trkpt lat="43.48942194017756" lon="11.516301371989982"><ele>482.0</ele><time>2026-04-04T08:27:07.999Z</time></trkpt><trkpt lat="43.48949562140649" lon="11.516166801210716"><ele>482.0</ele><time>2026-04-04T08:27:08.999Z</time></trkpt><trkpt lat="43.48954289139428" lon="11.516042954333363"><ele>482.40000000000003</ele><time>2026-04-04T08:27:09.999Z</time></trkpt><trkpt lat="43.48952291047661" lon="11.515914426036867"><ele>482.80000000000007</ele><time>2026-04-04T08:27:10.999Z</time></trkpt><trkpt lat="43.48944562541348" lon="11.5157982576769"><ele>483.2</ele><time>2026-04-04T08:27:11.999Z</time></trkpt><trkpt lat="43.489343300864626" lon="11.515722396602468"><ele>483.6</ele><time>2026-04-04T08:27:12.999Z</time></trkpt><trkpt lat="43.489225941034086" lon="11.515668877167057"><ele>484.0</ele><time>2026-04-04T08:27:13.999Z</time></trkpt><trkpt lat="43.48909189832898" lon="11.515622671165412"><ele>484.0</ele><time>2026-04-04T08:27:14.999Z</time></trkpt><trkpt lat="43.488955509933795" lon="11.515544820133798"><ele>484.0</ele><time>2026-04-04T08:27:15.999Z</time></trkpt><trkpt lat="43.48881901444781" lon="11.515469724183268"><ele>484.0</ele><time>2026-04-04T08:27:16.999Z</time></trkpt><trkpt lat="43.488685608727565" lon="11.515356533497764"><ele>482.75</ele><time>2026-04-04T08:27:17.999Z</time></trkpt><trkpt lat="43.48856138065697" lon="11.515220702148085"><ele>481.5</ele><time>2026-04-04T08:27:18.999Z</time></trkpt><trkpt lat="43.48846588892288" lon="11.515069710986975"><ele>480.25</ele><time>2026-04-04T08:27:19.999Z</time></trkpt><trkpt lat="43.488410637736536" lon="11.514907299684142"><ele>479.0</ele><time>2026-04-04T08:27:20.999Z</time></trkpt><trkpt lat="43.48836405299305" lon="11.514720586107762"><ele>479.0</ele><time>2026-04-04T08:27:21.999Z</time></trkpt><trkpt lat="43.48833516662838" lon="11.514513375053"><ele>479.0</ele><time>2026-04-04T08:27:22.999Z</time></trkpt><trkpt lat="43.48829723379356" lon="11.514282520369548"><ele>479.0</ele><time>2026-04-04T08:27:23.999Z</time></trkpt><trkpt lat="43.48828263854538" lon="11.514029667788595"><ele>479.0</ele><time>2026-04-04T08:27:24.999Z</time></trkpt><trkpt lat="43.48826499455681" lon="11.513790911916454"><ele>479.0</ele><time>2026-04-04T08:27:25.999Z</time></trkpt><trkpt lat="43.48824291109272" lon="11.513553753652925"><ele>479.0</ele><time>2026-04-04T08:27:26.999Z</time></trkpt><trkpt lat="43.48822063578899" lon="11.513316108375903"><ele>480.0</ele><time>2026-04-04T08:27:27.999Z</time></trkpt><trkpt lat="43.488209345295715" lon="11.513085884239842"><ele>481.0</ele><time>2026-04-04T08:27:28.999Z</time></trkpt><trkpt lat="43.48819091915447" lon="11.512868227837734"><ele>482.0</ele><time>2026-04-04T08:27:29.999Z</time></trkpt><trkpt lat="43.48813384282597" lon="11.5126621897734"><ele>482.0</ele><time>2026-04-04T08:27:30.999Z</time></trkpt><trkpt lat="43.48806724184934" lon="11.512451660212518"><ele>482.0</ele><time>2026-04-04T08:27:31.999Z</time></trkpt><trkpt lat="43.487958865117584" lon="11.512268688035835"><ele>482.0</ele><time>2026-04-04T08:27:32.999Z</time></trkpt><trkpt lat="43.487908086628195" lon="11.512063411679065"><ele>486.66666666666663</ele><time>2026-04-04T08:27:33.999Z</time></trkpt><trkpt lat="43.48784763316632" lon="11.51186678012031"><ele>491.33333333333337</ele><time>2026-04-04T08:27:34.999Z</time></trkpt><trkpt lat="43.48780462761611" lon="11.511656733427087"><ele>496.0</ele><time>2026-04-04T08:27:35.999Z</time></trkpt><trkpt lat="43.487755247081395" lon="11.511447055053972"><ele>496.0</ele><time>2026-04-04T08:27:36.999Z</time></trkpt><trkpt lat="43.48772323970735" lon="11.511240955084599"><ele>496.0</ele><time>2026-04-04T08:27:37.999Z</time></trkpt><trkpt lat="43.48767525215655" lon="11.511032775885045"><ele>496.0</ele><time>2026-04-04T08:27:38.999Z</time></trkpt><trkpt lat="43.487596674743266" lon="11.510855277526"><ele>497.0</ele><time>2026-04-04T08:27:39.999Z</time></trkpt><trkpt lat="43.48748081377711" lon="11.510720804165537"><ele>498.0</ele><time>2026-04-04T08:27:40.999Z</time></trkpt><trkpt lat="43.487350024779225" lon="11.510608577670002"><ele>499.0</ele><time>2026-04-04T08:27:41.999Z</time></trkpt><trkpt lat="43.48721188565204" lon="11.510484983555605"><ele>501.6666666666667</ele><time>2026-04-04T08:27:42.999Z</time></trkpt><trkpt lat="43.48704600615236" lon="11.510310033610152"><ele>504.33333333333337</ele><time>2026-04-04T08:27:43.999Z</time></trkpt><trkpt lat="43.48691781946039" lon="11.510148869946127"><ele>507.0</ele><time>2026-04-04T08:27:44.999Z</time></trkpt><trkpt lat="43.486806213485266" lon="11.510030993367522"><ele>507.0</ele><time>2026-04-04T08:27:45.999Z</time></trkpt><trkpt lat="43.486715579596115" lon="11.509929474626444"><ele>507.00000000000006</ele><time>2026-04-04T08:27:46.999Z</time></trkpt><trkpt lat="43.48663072186658" lon="11.509836218289536"><ele>507.00000000000006</ele><time>2026-04-04T08:27:47.999Z</time></trkpt><trkpt lat="43.48655680216695" lon="11.509756519324545"><ele>507.0</ele><time>2026-04-04T08:27:48.999Z</time></trkpt><trkpt lat="43.48649800030324" lon="11.509695906102253"><ele>507.0</ele><time>2026-04-04T08:27:49.999Z</time></trkpt><trkpt lat="43.48643539281583" lon="11.509650468331902"><ele>507.0</ele><time>2026-04-04T08:27:50.999Z</time></trkpt><trkpt lat="43.486349814362285" lon="11.509639302974923"><ele>507.00000000000006</ele><time>2026-04-04T08:27:51.999Z</time></trkpt><trkpt lat="43.486273182732035" lon="11.509712884207932"><ele>507.00000000000006</ele><time>2026-04-04T08:27:52.999Z</time></trkpt><trkpt lat="43.48621671102126" lon="11.509840289941234"><ele>507.0</ele><time>2026-04-04T08:27:53.999Z</time></trkpt><trkpt lat="43.4861258331435" lon="11.509928432836627"><ele>507.0</ele><time>2026-04-04T08:27:54.999Z</time></trkpt><trkpt lat="43.4860180554684" lon="11.50992245426352"><ele>509.75</ele><time>2026-04-04T08:27:55.999Z</time></trkpt><trkpt lat="43.48588108928502" lon="11.50996807844582"><ele>512.5</ele><time>2026-04-04T08:27:56.999Z</time></trkpt><trkpt lat="43.48575681253135" lon="11.509989122053154"><ele>515.25</ele><time>2026-04-04T08:27:57.999Z</time></trkpt><trkpt lat="43.48565613350602" lon="11.509986136512634"><ele>518.0</ele><time>2026-04-04T08:27:58.999Z</time></trkpt><trkpt lat="43.48556446551266" lon="11.509967649711065"><ele>518.0</ele><time>2026-04-04T08:27:59.999Z</time></trkpt><trkpt lat="43.485484231247035" lon="11.509933673094325"><ele>518.0</ele><time>2026-04-04T08:28:00.999Z</time></trkpt><trkpt lat="43.48543473504836" lon="11.509864637139723"><ele>518.0</ele><time>2026-04-04T08:28:01.999Z</time></trkpt><trkpt lat="43.485411817067465" lon="11.509760030245156"><ele>518.0</ele><time>2026-04-04T08:28:02.999Z</time></trkpt><trkpt lat="43.48537792136105" lon="11.509674054814464"><ele>518.0</ele><time>2026-04-04T08:28:03.999Z</time></trkpt><trkpt lat="43.48531140711548" lon="11.509540434106885"><ele>518.0</ele><time>2026-04-04T08:28:06Z</time></trkpt><trkpt lat="43.485198791493794" lon="11.50945038746104"><ele>517.5</ele><time>2026-04-04T08:28:08Z</time></trkpt><trkpt lat="43.48510276256231" lon="11.509521993885022"><ele>517.0</ele><time>2026-04-04T08:28:09Z</time></trkpt><trkpt lat="43.48499651228216" lon="11.509564757021703"><ele>516.5</ele><time>2026-04-04T08:28:10Z</time></trkpt><trkpt lat="43.48486107131016" lon="11.509589390094726"><ele>516.0</ele><time>2026-04-04T08:28:11Z</time></trkpt><trkpt lat="43.48474177889124" lon="11.509624766110678"><ele>516.0</ele><time>2026-04-04T08:28:12Z</time></trkpt><trkpt lat="43.48463546245979" lon="11.509651990784178"><ele>516.0</ele><time>2026-04-04T08:28:13Z</time></trkpt><trkpt lat="43.48453610950675" lon="11.509667638693909"><ele>516.0</ele><time>2026-04-04T08:28:14Z</time></trkpt><trkpt lat="43.484435017280674" lon="11.509652252213376"><ele>516.0</ele><time>2026-04-04T08:28:15Z</time></trkpt><trkpt lat="43.48433347641232" lon="11.509565092177517"><ele>516.0</ele><time>2026-04-04T08:28:16Z</time></trkpt><trkpt lat="43.4842015523095" lon="11.509477279788333"><ele>513.6666666666666</ele><time>2026-04-04T08:28:17Z</time></trkpt><trkpt lat="43.48406101039213" lon="11.50938680188693"><ele>511.3333333333333</ele><time>2026-04-04T08:28:18Z</time></trkpt><trkpt lat="43.4839074535914" lon="11.509287945228259"><ele>509.0</ele><time>2026-04-04T08:28:19Z</time></trkpt><trkpt lat="43.48374723887615" lon="11.509185041239025"><ele>507.66666666666663</ele><time>2026-04-04T08:28:20Z</time></trkpt><trkpt lat="43.48359877388992" lon="11.509089832660381"><ele>506.33333333333337</ele><time>2026-04-04T08:28:21Z</time></trkpt><trkpt lat="43.483460493915764" lon="11.508997190233604"><ele>505.0</ele><time>2026-04-04T08:28:22Z</time></trkpt><trkpt lat="43.48331030820892" lon="11.50889437372461"><ele>505.0</ele><time>2026-04-04T08:28:23Z</time></trkpt><trkpt lat="43.48316194004428" lon="11.508791733426536"><ele>505.0</ele><time>2026-04-04T08:28:24Z</time></trkpt><trkpt lat="43.48301216107259" lon="11.508688117150438"><ele>505.0</ele><time>2026-04-04T08:28:25Z</time></trkpt><trkpt lat="43.48286698911365" lon="11.508588270540344"><ele>506.6666666666667</ele><time>2026-04-04T08:28:26Z</time></trkpt><trkpt lat="43.48271589238404" lon="11.508486596780717"><ele>508.33333333333337</ele><time>2026-04-04T08:28:27Z</time></trkpt><trkpt lat="43.4825553149984" lon="11.508418065983863"><ele>510.0</ele><time>2026-04-04T08:28:28Z</time></trkpt><trkpt lat="43.48238783318311" lon="11.508393027547955"><ele>510.0</ele><time>2026-04-04T08:28:29Z</time></trkpt><trkpt lat="43.482232046554024" lon="11.508379100489673"><ele>510.0</ele><time>2026-04-04T08:28:30Z</time></trkpt><trkpt lat="43.48208319056157" lon="11.50836317517042"><ele>510.0</ele><time>2026-04-04T08:28:31Z</time></trkpt><trkpt lat="43.481946149936" lon="11.508330879145191"><ele>510.0</ele><time>2026-04-04T08:28:32Z</time></trkpt><trkpt lat="43.481808796508815" lon="11.50829508105003"><ele>512.0</ele><time>2026-04-04T08:28:33Z</time></trkpt><trkpt lat="43.48166796319813" lon="11.508265358959894"><ele>514.0</ele><time>2026-04-04T08:28:34Z</time></trkpt><trkpt lat="43.48151879626993" lon="11.508238603392149"><ele>516.0</ele><time>2026-04-04T08:28:35Z</time></trkpt><trkpt lat="43.48136512268328" lon="11.5082414396611"><ele>518.0</ele><time>2026-04-04T08:28:36Z</time></trkpt><trkpt lat="43.48123607946696" lon="11.508310901562304"><ele>519.0</ele><time>2026-04-04T08:28:37Z</time></trkpt><trkpt lat="43.481116051243184" lon="11.508380488042764"><ele>520.0</ele><time>2026-04-04T08:28:38Z</time></trkpt><trkpt lat="43.48098569331766" lon="11.50842604754775"><ele>521.0</ele><time>2026-04-04T08:28:39Z</time></trkpt><trkpt lat="43.48085209740924" lon="11.508431133856297"><ele>522.0</ele><time>2026-04-04T08:28:40Z</time></trkpt><trkpt lat="43.480722787836235" lon="11.508465760455566"><ele>522.0</ele><time>2026-04-04T08:28:41Z</time></trkpt><trkpt lat="43.48060933910411" lon="11.508477331500314"><ele>522.0</ele><time>2026-04-04T08:28:42Z</time></trkpt><trkpt lat="43.480498931215564" lon="11.50854411305016"><ele>522.0</ele><time>2026-04-04T08:28:43Z</time></trkpt><trkpt lat="43.48039507121892" lon="11.508638641119385"><ele>522.0</ele><time>2026-04-04T08:28:44Z</time></trkpt><trkpt lat="43.48027423485681" lon="11.508697852771792"><ele>521.75</ele><time>2026-04-04T08:28:45Z</time></trkpt><trkpt lat="43.48017009557439" lon="11.508764818294708"><ele>521.5</ele><time>2026-04-04T08:28:46Z</time></trkpt><trkpt lat="43.48004841581037" lon="11.508840964252338"><ele>521.25</ele><time>2026-04-04T08:28:47Z</time></trkpt><trkpt lat="43.47993082245207" lon="11.508912550860952"><ele>521.0</ele><time>2026-04-04T08:28:48Z</time></trkpt><trkpt lat="43.47981612072483" lon="11.50897771749831"><ele>521.0</ele><time>2026-04-04T08:28:49Z</time></trkpt><trkpt lat="43.4796939820776" lon="11.509036270590896"><ele>521.0</ele><time>2026-04-04T08:28:50Z</time></trkpt><trkpt lat="43.47956191106382" lon="11.509082878600017"><ele>521.0</ele><time>2026-04-04T08:28:51Z</time></trkpt><trkpt lat="43.47944016709661" lon="11.509129049976439"><ele>521.0</ele><time>2026-04-04T08:28:52Z</time></trkpt><trkpt lat="43.47932127986596" lon="11.509194588360756"><ele>523.25</ele><time>2026-04-04T08:28:53Z</time></trkpt><trkpt lat="43.47921182507787" lon="11.509315547993296"><ele>525.5</ele><time>2026-04-04T08:28:54Z</time></trkpt><trkpt lat="43.47908557227419" lon="11.509436695728152"><ele>527.75</ele><time>2026-04-04T08:28:55Z</time></trkpt><trkpt lat="43.47895485396738" lon="11.509513637582687"><ele>530.0</ele><time>2026-04-04T08:28:56Z</time></trkpt><trkpt lat="43.47880981487438" lon="11.50958539823366"><ele>537.0</ele><time>2026-04-04T08:28:57Z</time></trkpt><trkpt lat="43.478684758679556" lon="11.50970152316904"><ele>544.0</ele><time>2026-04-04T08:28:58Z</time></trkpt><trkpt lat="43.478618108510766" lon="11.509857032572372"><ele>551.0</ele><time>2026-04-04T08:28:59Z</time></trkpt><trkpt lat="43.4785688035408" lon="11.510005777989695"><ele>558.0</ele><time>2026-04-04T08:29:00Z</time></trkpt><trkpt lat="43.478552706039004" lon="11.51019307999458"><ele>558.0</ele><time>2026-04-04T08:29:01Z</time></trkpt><trkpt lat="43.478551333522844" lon="11.510335040832706"><ele>558.0</ele><time>2026-04-04T08:29:02Z</time></trkpt><trkpt lat="43.47851788990491" lon="11.510443808209432"><ele>558.0</ele><time>2026-04-04T08:29:03Z</time></trkpt><trkpt lat="43.47843062941913" lon="11.510562802080186"><ele>558.0</ele><time>2026-04-04T08:29:05Z</time></trkpt><trkpt lat="43.478362772896936" lon="11.510572851813997"><ele>558.0</ele><time>2026-04-04T08:29:06Z</time></trkpt><trkpt lat="43.47827892424614" lon="11.510586108706107"><ele>558.0</ele><time>2026-04-04T08:29:07Z</time></trkpt><trkpt lat="43.47818091692678" lon="11.510523852142372"><ele>558.0</ele><time>2026-04-04T08:29:08Z</time></trkpt><trkpt lat="43.478103855587605" lon="11.510391210237644"><ele>558.0</ele><time>2026-04-04T08:29:09Z</time></trkpt><trkpt lat="43.478051725169806" lon="11.510285283057659"><ele>558.0</ele><time>2026-04-04T08:29:10Z</time></trkpt><trkpt lat="43.4779932446596" lon="11.51016364563043"><ele>558.0</ele><time>2026-04-04T08:29:11Z</time></trkpt><trkpt lat="43.477943787872924" lon="11.509991990323703"><ele>557.0</ele><time>2026-04-04T08:29:12Z</time></trkpt><trkpt lat="43.477865775067066" lon="11.509752425033593"><ele>556.0</ele><time>2026-04-04T08:29:13Z</time></trkpt><trkpt lat="43.47778505640946" lon="11.509529973756715"><ele>555.0</ele><time>2026-04-04T08:29:14Z</time></trkpt><trkpt lat="43.47770667796316" lon="11.509374171274459"><ele>555.0</ele><time>2026-04-04T08:29:15Z</time></trkpt><trkpt lat="43.4776415887226" lon="11.509234241458554"><ele>555.0</ele><time>2026-04-04T08:29:16Z</time></trkpt><trkpt lat="43.47757626719525" lon="11.50911951192964"><ele>555.0</ele><time>2026-04-04T08:29:17Z</time></trkpt><trkpt lat="43.47751549171313" lon="11.50902459814703"><ele>555.0</ele><time>2026-04-04T08:29:18Z</time></trkpt><trkpt lat="43.47746503055437" lon="11.508937334526415"><ele>555.0</ele><time>2026-04-04T08:29:19Z</time></trkpt><trkpt lat="43.477391753394805" lon="11.508875757021741"><ele>555.0</ele><time>2026-04-04T08:29:20Z</time></trkpt><trkpt lat="43.47731468027973" lon="11.508824617996268"><ele>555.0</ele><time>2026-04-04T08:29:21Z</time></trkpt><trkpt lat="43.477226790031715" lon="11.50879583321172"><ele>555.0</ele><time>2026-04-04T08:29:22Z</time></trkpt><trkpt lat="43.47713926586507" lon="11.50880185591928"><ele>555.0</ele><time>2026-04-04T08:29:23Z</time></trkpt><trkpt lat="43.47706950065235" lon="11.508820140971945"><ele>555.0</ele><time>2026-04-04T08:29:24Z</time></trkpt><trkpt lat="43.476956992495346" lon="11.50888570444172"><ele>555.75</ele><time>2026-04-04T08:29:26Z</time></trkpt><trkpt lat="43.47689696543656" lon="11.508953120372269"><ele>556.5</ele><time>2026-04-04T08:29:27Z</time></trkpt><trkpt lat="43.47683395265712" lon="11.509123070902385"><ele>557.25</ele><time>2026-04-04T08:29:28Z</time></trkpt><trkpt lat="43.47677041845578" lon="11.509290012549373"><ele>558.0</ele><time>2026-04-04T08:29:29Z</time></trkpt><trkpt lat="43.476684349363715" lon="11.5094009011685"><ele>558.0</ele><time>2026-04-04T08:29:30Z</time></trkpt><trkpt lat="43.47657870851515" lon="11.509442825882488"><ele>558.0</ele><time>2026-04-04T08:29:31Z</time></trkpt><trkpt lat="43.47645446271337" lon="11.509469161196417"><ele>558.0</ele><time>2026-04-04T08:29:32Z</time></trkpt><trkpt lat="43.47631249532987" lon="11.5094859549577"><ele>558.0</ele><time>2026-04-04T08:29:33Z</time></trkpt><trkpt lat="43.476185696526855" lon="11.50946916933596"><ele>560.75</ele><time>2026-04-04T08:29:34Z</time></trkpt><trkpt lat="43.47606311939282" lon="11.509464650266601"><ele>563.5</ele><time>2026-04-04T08:29:35Z</time></trkpt><trkpt lat="43.47595522737845" lon="11.509503808495008"><ele>566.25</ele><time>2026-04-04T08:29:36Z</time></trkpt><trkpt lat="43.475851278992124" lon="11.509545027239925"><ele>569.0</ele><time>2026-04-04T08:29:37Z</time></trkpt><trkpt lat="43.475743363910134" lon="11.50958427745039"><ele>570.8</ele><time>2026-04-04T08:29:38Z</time></trkpt><trkpt lat="43.47564753412275" lon="11.509659999919549"><ele>572.5999999999999</ele><time>2026-04-04T08:29:39Z</time></trkpt><trkpt lat="43.47555919424141" lon="11.509740026004156"><ele>574.4</ele><time>2026-04-04T08:29:40Z</time></trkpt><trkpt lat="43.47547345074373" lon="11.509828738491779"><ele>576.1999999999999</ele><time>2026-04-04T08:29:41Z</time></trkpt><trkpt lat="43.475389502600365" lon="11.509921763759609"><ele>578.0</ele><time>2026-04-04T08:29:42Z</time></trkpt><trkpt lat="43.475304286327436" lon="11.510016534702684"><ele>578.0</ele><time>2026-04-04T08:29:43Z</time></trkpt><trkpt lat="43.475222905808415" lon="11.51010657252139"><ele>578.0</ele><time>2026-04-04T08:29:44Z</time></trkpt><trkpt lat="43.475147299633385" lon="11.51019199804697"><ele>578.0</ele><time>2026-04-04T08:29:45Z</time></trkpt><trkpt lat="43.47508371299271" lon="11.510262642624832"><ele>578.0</ele><time>2026-04-04T08:29:46Z</time></trkpt><trkpt lat="43.47502593310567" lon="11.510345331825008"><ele>578.0</ele><time>2026-04-04T08:29:47Z</time></trkpt><trkpt lat="43.47500714453214" lon="11.510458065473225"><ele>573.1999999999999</ele><time>2026-04-04T08:29:48Z</time></trkpt><trkpt lat="43.47499011855322" lon="11.510588385352728"><ele>568.4</ele><time>2026-04-04T08:29:49Z</time></trkpt><trkpt lat="43.47497621565308" lon="11.510714933033256"><ele>563.5999999999999</ele><time>2026-04-04T08:29:50Z</time></trkpt><trkpt lat="43.474942117881035" lon="11.510835684787063"><ele>558.8</ele><time>2026-04-04T08:29:51Z</time></trkpt><trkpt lat="43.47489427923604" lon="11.510957619717564"><ele>554.0</ele><time>2026-04-04T08:29:52Z</time></trkpt><trkpt lat="43.47483526404562" lon="11.511051415469334"><ele>554.0</ele><time>2026-04-04T08:29:53Z</time></trkpt><trkpt lat="43.47475767026182" lon="11.511137489331091"><ele>554.0</ele><time>2026-04-04T08:29:54Z</time></trkpt><trkpt lat="43.474670032236844" lon="11.511216148321905"><ele>554.0</ele><time>2026-04-04T08:29:55Z</time></trkpt><trkpt lat="43.47456908764239" lon="11.511250803979465"><ele>554.0</ele><time>2026-04-04T08:29:56Z</time></trkpt><trkpt lat="43.47448110342548" lon="11.511300330354326"><ele>554.0</ele><time>2026-04-04T08:29:57Z</time></trkpt><trkpt lat="43.47440710314618" lon="11.511351148036033"><ele>556.2</ele><time>2026-04-04T08:29:58Z</time></trkpt><trkpt lat="43.47434818377067" lon="11.511410320732667"><ele>558.4</ele><time>2026-04-04T08:29:59Z</time></trkpt><trkpt lat="43.47431656949128" lon="11.51153636417977"><ele>560.6</ele><time>2026-04-04T08:30:00Z</time></trkpt><trkpt lat="43.474336375384205" lon="11.511688086403517"><ele>562.8</ele><time>2026-04-04T08:30:01Z</time></trkpt><trkpt lat="43.47431197866855" lon="11.511816184525786"><ele>565.0</ele><time>2026-04-04T08:30:02Z</time></trkpt><trkpt lat="43.474277539725556" lon="11.511916850753822"><ele>565.0</ele><time>2026-04-04T08:30:03Z</time></trkpt><trkpt lat="43.474223722024036" lon="11.512031764441652"><ele>565.0</ele><time>2026-04-04T08:30:04Z</time></trkpt><trkpt lat="43.474144069582195" lon="11.51215519343866"><ele>565.0</ele><time>2026-04-04T08:30:05Z</time></trkpt><trkpt lat="43.47405212659301" lon="11.512246851038883"><ele>565.0</ele><time>2026-04-04T08:30:06Z</time></trkpt><trkpt lat="43.473947743933955" lon="11.512329034906276"><ele>563.0</ele><time>2026-04-04T08:30:07Z</time></trkpt><trkpt lat="43.4738321712375" lon="11.512399882331081"><ele>561.0</ele><time>2026-04-04T08:30:08Z</time></trkpt><trkpt lat="43.47371281488361" lon="11.512449561605225"><ele>559.0</ele><time>2026-04-04T08:30:09Z</time></trkpt><trkpt lat="43.473628008797526" lon="11.512501129691438"><ele>557.0</ele><time>2026-04-04T08:30:10Z</time></trkpt><trkpt lat="43.47352509303027" lon="11.512520378412644"><ele>555.0</ele><time>2026-04-04T08:30:11Z</time></trkpt><trkpt lat="43.47344605756388" lon="11.51250796443351"><ele>555.0</ele><time>2026-04-04T08:30:12Z</time></trkpt><trkpt lat="43.473379695722755" lon="11.512433306112506"><ele>555.0</ele><time>2026-04-04T08:30:13Z</time></trkpt><trkpt lat="43.47330450362138" lon="11.512386680501326"><ele>555.0</ele><time>2026-04-04T08:30:14Z</time></trkpt><trkpt lat="43.47324213178845" lon="11.512350630603004"><ele>555.0</ele><time>2026-04-04T08:30:15Z</time></trkpt><trkpt lat="43.47312692555375" lon="11.51241969863313"><ele>555.0</ele><time>2026-04-04T08:30:17Z</time></trkpt><trkpt lat="43.47307137770816" lon="11.512466216509996"><ele>555.0</ele><time>2026-04-04T08:30:18Z</time></trkpt><trkpt lat="43.47299304860293" lon="11.512537395211229"><ele>558.6</ele><time>2026-04-04T08:30:19Z</time></trkpt><trkpt lat="43.4728837448486" lon="11.512583381718287"><ele>562.2</ele><time>2026-04-04T08:30:20Z</time></trkpt><trkpt lat="43.472773593828535" lon="11.512623254796017"><ele>565.8</ele><time>2026-04-04T08:30:21Z</time></trkpt><trkpt lat="43.47267600716464" lon="11.512634486231764"><ele>569.4</ele><time>2026-04-04T08:30:22Z</time></trkpt><trkpt lat="43.47260008826865" lon="11.512705782303247"><ele>573.0</ele><time>2026-04-04T08:30:23Z</time></trkpt><trkpt lat="43.472551555745305" lon="11.512780281641891"><ele>573.25</ele><time>2026-04-04T08:30:24Z</time></trkpt><trkpt lat="43.47255179550739" lon="11.512941478105857"><ele>573.5</ele><time>2026-04-04T08:30:26Z</time></trkpt><trkpt lat="43.472661783670574" lon="11.513052217068335"><ele>573.75</ele><time>2026-04-04T08:30:28Z</time></trkpt><trkpt lat="43.47274636894956" lon="11.513102264914611"><ele>574.0</ele><time>2026-04-04T08:30:29Z</time></trkpt><trkpt lat="43.47284550952205" lon="11.513163617559263"><ele>574.0</ele><time>2026-04-04T08:30:30Z</time></trkpt><trkpt lat="43.47292978732881" lon="11.513239427960489"><ele>574.0</ele><time>2026-04-04T08:30:31Z</time></trkpt><trkpt lat="43.47298323106195" lon="11.51330244386717"><ele>574.0</ele><time>2026-04-04T08:30:32Z</time></trkpt><trkpt lat="43.47306780437876" lon="11.513420926522851"><ele>574.0</ele><time>2026-04-04T08:30:33Z</time></trkpt><trkpt lat="43.47315643570367" lon="11.51356158628662"><ele>574.0</ele><time>2026-04-04T08:30:34Z</time></trkpt><trkpt lat="43.47322160507338" lon="11.513674514671283"><ele>567.4</ele><time>2026-04-04T08:30:35Z</time></trkpt><trkpt lat="43.473278652186316" lon="11.513795452763436"><ele>560.8</ele><time>2026-04-04T08:30:36Z</time></trkpt><trkpt lat="43.47331756795989" lon="11.5139115142343"><ele>554.2</ele><time>2026-04-04T08:30:37Z</time></trkpt><trkpt lat="43.47334206118632" lon="11.51402724554989"><ele>547.6</ele><time>2026-04-04T08:30:38Z</time></trkpt><trkpt lat="43.473359455292226" lon="11.514160461356445"><ele>541.0</ele><time>2026-04-04T08:30:39Z</time></trkpt><trkpt lat="43.473375434112995" lon="11.514311810818995"><ele>541.0</ele><time>2026-04-04T08:30:40Z</time></trkpt><trkpt lat="43.47336212095397" lon="11.514455968672141"><ele>541.0</ele><time>2026-04-04T08:30:41Z</time></trkpt><trkpt lat="43.47332384625702" lon="11.51456607093822"><ele>541.0</ele><time>2026-04-04T08:30:42Z</time></trkpt><trkpt lat="43.47327768878889" lon="11.514686176468109"><ele>541.0</ele><time>2026-04-04T08:30:43Z</time></trkpt><trkpt lat="43.473210565163114" lon="11.51476156430465"><ele>541.0</ele><time>2026-04-04T08:30:44Z</time></trkpt><trkpt lat="43.47313982603162" lon="11.514823020815667"><ele>541.3333333333334</ele><time>2026-04-04T08:30:45Z</time></trkpt><trkpt lat="43.47305063793224" lon="11.514916341020829"><ele>541.6666666666667</ele><time>2026-04-04T08:30:46Z</time></trkpt><trkpt lat="43.47297176982817" lon="11.514997206850426"><ele>542.0</ele><time>2026-04-04T08:30:47Z</time></trkpt><trkpt lat="43.47291415920284" lon="11.515083435276448"><ele>542.3333333333334</ele><time>2026-04-04T08:30:48Z</time></trkpt><trkpt lat="43.47288013013611" lon="11.515176509811436"><ele>542.6666666666666</ele><time>2026-04-04T08:30:49Z</time></trkpt><trkpt lat="43.47289160438691" lon="11.515273582213256"><ele>543.0</ele><time>2026-04-04T08:30:50Z</time></trkpt><trkpt lat="43.47291168661891" lon="11.515381943560904"><ele>547.5</ele><time>2026-04-04T08:30:51Z</time></trkpt><trkpt lat="43.4730126477875" lon="11.515449985570386"><ele>552.0</ele><time>2026-04-04T08:30:52Z</time></trkpt><trkpt lat="43.473142269314394" lon="11.515453494436484"><ele>556.5</ele><time>2026-04-04T08:30:53Z</time></trkpt><trkpt lat="43.47324249156677" lon="11.515444092994207"><ele>561.0</ele><time>2026-04-04T08:30:54Z</time></trkpt><trkpt lat="43.4733691492779" lon="11.515485554476264"><ele>561.0</ele><time>2026-04-04T08:30:55Z</time></trkpt><trkpt lat="43.47349161123702" lon="11.515480325404223"><ele>561.0</ele><time>2026-04-04T08:30:56Z</time></trkpt><trkpt lat="43.473591758057964" lon="11.51543864474915"><ele>561.0</ele><time>2026-04-04T08:30:57Z</time></trkpt><trkpt lat="43.47368309017669" lon="11.51545550051432"><ele>561.0</ele><time>2026-04-04T08:30:58Z</time></trkpt><trkpt lat="43.47376590707642" lon="11.515489145283512"><ele>561.0</ele><time>2026-04-04T08:30:59Z</time></trkpt><trkpt lat="43.4738496004779" lon="11.515549308542864"><ele>554.8</ele><time>2026-04-04T08:31:00Z</time></trkpt><trkpt lat="43.47394150811685" lon="11.515611195376026"><ele>548.6</ele><time>2026-04-04T08:31:01Z</time></trkpt><trkpt lat="43.474017139429584" lon="11.515686094044955"><ele>542.4</ele><time>2026-04-04T08:31:02Z</time></trkpt><trkpt lat="43.474068821752354" lon="11.515788196754917"><ele>536.2</ele><time>2026-04-04T08:31:03Z</time></trkpt><trkpt lat="43.47409364176458" lon="11.515929819174747"><ele>530.0</ele><time>2026-04-04T08:31:04Z</time></trkpt><trkpt lat="43.47413432913832" lon="11.516097567412137"><ele>533.25</ele><time>2026-04-04T08:31:05Z</time></trkpt><trkpt lat="43.47417318605478" lon="11.51626769927442"><ele>536.5</ele><time>2026-04-04T08:31:06Z</time></trkpt><trkpt lat="43.474217635488294" lon="11.516446075058173"><ele>539.75</ele><time>2026-04-04T08:31:07Z</time></trkpt><trkpt lat="43.47427384760602" lon="11.516599468142191"><ele>543.0</ele><time>2026-04-04T08:31:08Z</time></trkpt><trkpt lat="43.47431024163993" lon="11.516740501642698"><ele>543.0</ele><time>2026-04-04T08:31:09Z</time></trkpt><trkpt lat="43.4743613592474" lon="11.516893194936587"><ele>543.0</ele><time>2026-04-04T08:31:10Z</time></trkpt><trkpt lat="43.47440513588873" lon="11.517057368999767"><ele>543.0</ele><time>2026-04-04T08:31:11Z</time></trkpt><trkpt lat="43.474473433968356" lon="11.517192092292406"><ele>543.0</ele><time>2026-04-04T08:31:12Z</time></trkpt><trkpt lat="43.474567496362496" lon="11.517284833097396"><ele>538.5</ele><time>2026-04-04T08:31:13Z</time></trkpt><trkpt lat="43.47463586858249" lon="11.517375951787082"><ele>534.0</ele><time>2026-04-04T08:31:14Z</time></trkpt><trkpt lat="43.47468109445339" lon="11.517482966320566"><ele>529.5</ele><time>2026-04-04T08:31:15Z</time></trkpt><trkpt lat="43.47472668085469" lon="11.517580469237219"><ele>525.0</ele><time>2026-04-04T08:31:16Z</time></trkpt><trkpt lat="43.47476361844413" lon="11.51767829974008"><ele>520.5</ele><time>2026-04-04T08:31:17Z</time></trkpt><trkpt lat="43.47473950824808" lon="11.51777174047615"><ele>516.0</ele><time>2026-04-04T08:31:18Z</time></trkpt><trkpt lat="43.474679594739534" lon="11.517827001939116"><ele>520.0</ele><time>2026-04-04T08:31:19Z</time></trkpt><trkpt lat="43.474585127536415" lon="11.517777479323906"><ele>524.0</ele><time>2026-04-04T08:31:20Z</time></trkpt><trkpt lat="43.47448268137124" lon="11.51774758589887"><ele>528.0</ele><time>2026-04-04T08:31:21Z</time></trkpt><trkpt lat="43.47437903189826" lon="11.517740030218569"><ele>532.0</ele><time>2026-04-04T08:31:22Z</time></trkpt><trkpt lat="43.474283992611504" lon="11.517697924451156"><ele>536.0</ele><time>2026-04-04T08:31:23Z</time></trkpt><trkpt lat="43.47418036770225" lon="11.517689180111903"><ele>536.0</ele><time>2026-04-04T08:31:24Z</time></trkpt><trkpt lat="43.474066961428505" lon="11.51769672546509"><ele>536.0</ele><time>2026-04-04T08:31:25Z</time></trkpt><trkpt lat="43.473936687155955" lon="11.517716069816666"><ele>536.0</ele><time>2026-04-04T08:31:26Z</time></trkpt><trkpt lat="43.47381204106985" lon="11.5177417696246"><ele>536.0</ele><time>2026-04-04T08:31:27Z</time></trkpt><trkpt lat="43.47368012477813" lon="11.517771533364634"><ele>539.5</ele><time>2026-04-04T08:31:28Z</time></trkpt><trkpt lat="43.47355639022086" lon="11.517805841186638"><ele>543.0</ele><time>2026-04-04T08:31:29Z</time></trkpt><trkpt lat="43.47342567675883" lon="11.51785642759262"><ele>546.5</ele><time>2026-04-04T08:31:30Z</time></trkpt><trkpt lat="43.47330358961296" lon="11.517956916705094"><ele>550.0</ele><time>2026-04-04T08:31:31Z</time></trkpt><trkpt lat="43.47318065763881" lon="11.518062133546666"><ele>546.75</ele><time>2026-04-04T08:31:32Z</time></trkpt><trkpt lat="43.47305781621445" lon="11.518159024367773"><ele>543.5</ele><time>2026-04-04T08:31:33Z</time></trkpt><trkpt lat="43.47294547366608" lon="11.518269144926752"><ele>540.25</ele><time>2026-04-04T08:31:34Z</time></trkpt><trkpt lat="43.47283728473068" lon="11.518374308179572"><ele>537.0</ele><time>2026-04-04T08:31:35Z</time></trkpt><trkpt lat="43.472726568469874" lon="11.518482110393212"><ele>537.0</ele><time>2026-04-04T08:31:36Z</time></trkpt><trkpt lat="43.47261586267733" lon="11.5185900273225"><ele>537.0</ele><time>2026-04-04T08:31:37Z</time></trkpt><trkpt lat="43.47250176945787" lon="11.518702686915042"><ele>537.0</ele><time>2026-04-04T08:31:38Z</time></trkpt><trkpt lat="43.47239387916445" lon="11.518815274738927"><ele>537.0</ele><time>2026-04-04T08:31:39Z</time></trkpt><trkpt lat="43.472286239207136" lon="11.518928618657192"><ele>536.5</ele><time>2026-04-04T08:31:40Z</time></trkpt><trkpt lat="43.472175018101936" lon="11.51904147511725"><ele>536.0</ele><time>2026-04-04T08:31:41Z</time></trkpt><trkpt lat="43.4720684453659" lon="11.519137653279909"><ele>535.5</ele><time>2026-04-04T08:31:42Z</time></trkpt><trkpt lat="43.47197496614029" lon="11.51921209866262"><ele>535.0</ele><time>2026-04-04T08:31:43Z</time></trkpt><trkpt lat="43.47188110204784" lon="11.519276455796929"><ele>535.0</ele><time>2026-04-04T08:31:44Z</time></trkpt><trkpt lat="43.47179312511158" lon="11.519269206239645"><ele>535.0</ele><time>2026-04-04T08:31:45Z</time></trkpt><trkpt lat="43.47171990729773" lon="11.519201780348954"><ele>535.0</ele><time>2026-04-04T08:31:46Z</time></trkpt><trkpt lat="43.471646089781224" lon="11.519129159511925"><ele>535.0</ele><time>2026-04-04T08:31:47Z</time></trkpt><trkpt lat="43.47156569636968" lon="11.5190491122262"><ele>535.0</ele><time>2026-04-04T08:31:48Z</time></trkpt><trkpt lat="43.47148959940394" lon="11.519008332889328"><ele>535.0</ele><time>2026-04-04T08:31:49Z</time></trkpt><trkpt lat="43.47141572201132" lon="11.518987406119065"><ele>535.0</ele><time>2026-04-04T08:31:50Z</time></trkpt><trkpt lat="43.471339436012585" lon="11.519030476359978"><ele>535.0</ele><time>2026-04-04T08:31:51Z</time></trkpt><trkpt lat="43.47132339098725" lon="11.519192288256681"><ele>535.0</ele><time>2026-04-04T08:31:52Z</time></trkpt><trkpt lat="43.47131889804982" lon="11.519323296172765"><ele>535.0</ele><time>2026-04-04T08:31:53Z</time></trkpt><trkpt lat="43.471269064204535" lon="11.519458360453726"><ele>535.0</ele><time>2026-04-04T08:31:54Z</time></trkpt><trkpt lat="43.471219035353215" lon="11.519564715855623"><ele>536.8</ele><time>2026-04-04T08:31:55Z</time></trkpt><trkpt lat="43.47114659381945" lon="11.519588973052052"><ele>538.6</ele><time>2026-04-04T08:31:56Z</time></trkpt><trkpt lat="43.471061741877975" lon="11.519584745086842"><ele>540.4</ele><time>2026-04-04T08:31:57Z</time></trkpt><trkpt lat="43.47097348989868" lon="11.519648863423235"><ele>542.2</ele><time>2026-04-04T08:31:58Z</time></trkpt><trkpt lat="43.47088402503221" lon="11.519732588973287"><ele>544.0</ele><time>2026-04-04T08:31:59Z</time></trkpt><trkpt lat="43.470816113409114" lon="11.51985754299886"><ele>544.0</ele><time>2026-04-04T08:32:00Z</time></trkpt><trkpt lat="43.47076820295812" lon="11.520037070262646"><ele>544.0</ele><time>2026-04-04T08:32:01Z</time></trkpt><trkpt lat="43.47073277499829" lon="11.520204405406078"><ele>544.0</ele><time>2026-04-04T08:32:02Z</time></trkpt><trkpt lat="43.470670277929365" lon="11.520339756518876"><ele>544.0</ele><time>2026-04-04T08:32:03Z</time></trkpt><trkpt lat="43.470607841618936" lon="11.520476926161994"><ele>542.0</ele><time>2026-04-04T08:32:04Z</time></trkpt><trkpt lat="43.47053568049101" lon="11.520596067928217"><ele>540.0</ele><time>2026-04-04T08:32:05Z</time></trkpt><trkpt lat="43.470441827354776" lon="11.520684758447695"><ele>538.0</ele><time>2026-04-04T08:32:06Z</time></trkpt><trkpt lat="43.470333847678646" lon="11.520755389499403"><ele>536.0</ele><time>2026-04-04T08:32:07Z</time></trkpt><trkpt lat="43.47021222462645" lon="11.520837920011902"><ele>540.75</ele><time>2026-04-04T08:32:08Z</time></trkpt><trkpt lat="43.47010982582268" lon="11.520939882400489"><ele>545.5</ele><time>2026-04-04T08:32:09Z</time></trkpt><trkpt lat="43.46999758167732" lon="11.521043722946215"><ele>550.25</ele><time>2026-04-04T08:32:10Z</time></trkpt><trkpt lat="43.469880148899776" lon="11.521141997061106"><ele>555.0</ele><time>2026-04-04T08:32:11Z</time></trkpt><trkpt lat="43.469767357180324" lon="11.521239008945999"><ele>555.0</ele><time>2026-04-04T08:32:12Z</time></trkpt><trkpt lat="43.46965253732462" lon="11.521327968880822"><ele>555.0</ele><time>2026-04-04T08:32:13Z</time></trkpt><trkpt lat="43.46953894786295" lon="11.521414947040693"><ele>555.0</ele><time>2026-04-04T08:32:14Z</time></trkpt><trkpt lat="43.46943096201069" lon="11.521503270482153"><ele>555.0</ele><time>2026-04-04T08:32:15Z</time></trkpt><trkpt lat="43.46934865059424" lon="11.521574000221857"><ele>557.8333333333334</ele><time>2026-04-04T08:32:16Z</time></trkpt><trkpt lat="43.46928190411757" lon="11.52165048603206"><ele>560.6666666666666</ele><time>2026-04-04T08:32:17Z</time></trkpt><trkpt lat="43.46924455133402" lon="11.521750157976351"><ele>563.5</ele><time>2026-04-04T08:32:18Z</time></trkpt><trkpt lat="43.469287486332746" lon="11.5218903930629"><ele>566.3333333333333</ele><time>2026-04-04T08:32:19Z</time></trkpt><trkpt lat="43.4693184821073" lon="11.52200184690619"><ele>569.1666666666666</ele><time>2026-04-04T08:32:20Z</time></trkpt><trkpt lat="43.46933083661378" lon="11.522092727916213"><ele>572.0</ele><time>2026-04-04T08:32:21Z</time></trkpt><trkpt lat="43.46924170692832" lon="11.522123619556593"><ele>572.0</ele><time>2026-04-04T08:32:23Z</time></trkpt><trkpt lat="43.46912955306001" lon="11.522078976267512"><ele>572.0</ele><time>2026-04-04T08:32:25Z</time></trkpt><trkpt lat="43.46904093888329" lon="11.522055770628546"><ele>572.0</ele><time>2026-04-04T08:32:26Z</time></trkpt><trkpt lat="43.46893877679907" lon="11.522019956574763"><ele>572.0</ele><time>2026-04-04T08:32:27Z</time></trkpt><trkpt lat="43.46883301614871" lon="11.521985984459677"><ele>572.0</ele><time>2026-04-04T08:32:28Z</time></trkpt><trkpt lat="43.46872807781893" lon="11.521949233102708"><ele>572.5</ele><time>2026-04-04T08:32:29Z</time></trkpt><trkpt lat="43.468638431565765" lon="11.521903489275964"><ele>573.0</ele><time>2026-04-04T08:32:30Z</time></trkpt><trkpt lat="43.46858027665401" lon="11.521843082252595"><ele>573.5</ele><time>2026-04-04T08:32:31Z</time></trkpt><trkpt lat="43.46852375688497" lon="11.521786781623666"><ele>574.0</ele><time>2026-04-04T08:32:32Z</time></trkpt><trkpt lat="43.46841738694138" lon="11.521804490976809"><ele>574.5</ele><time>2026-04-04T08:32:35Z</time></trkpt><trkpt lat="43.468372032911404" lon="11.521906674154067"><ele>575.0</ele><time>2026-04-04T08:33:14Z</time></trkpt><trkpt lat="43.468306584111644" lon="11.5220437333531"><ele>574.8</ele><time>2026-04-04T08:33:16Z</time></trkpt><trkpt lat="43.468261926222034" lon="11.522135769163027"><ele>574.6</ele><time>2026-04-04T08:33:17Z</time></trkpt><trkpt lat="43.468216273760945" lon="11.5222281155066"><ele>574.4</ele><time>2026-04-04T08:33:18Z</time></trkpt><trkpt lat="43.46815786926028" lon="11.522324419963198"><ele>574.2</ele><time>2026-04-04T08:33:21Z</time></trkpt><trkpt lat="43.468085502730986" lon="11.52231870401808"><ele>574.0</ele><time>2026-04-04T08:33:23Z</time></trkpt><trkpt lat="43.46809261941259" lon="11.522136648647288"><ele>574.2</ele><time>2026-04-04T08:33:25Z</time></trkpt><trkpt lat="43.468115790401576" lon="11.522009559226726"><ele>574.4</ele><time>2026-04-04T08:33:26Z</time></trkpt><trkpt lat="43.46813370411685" lon="11.521872021311644"><ele>574.6</ele><time>2026-04-04T08:33:27Z</time></trkpt><trkpt lat="43.46813383645863" lon="11.521727770373337"><ele>574.8</ele><time>2026-04-04T08:33:28Z</time></trkpt><trkpt lat="43.46810319685122" lon="11.521573535690143"><ele>575.0</ele><time>2026-04-04T08:33:29Z</time></trkpt><trkpt lat="43.468059558109104" lon="11.521434462437464"><ele>575.0</ele><time>2026-04-04T08:33:30Z</time></trkpt><trkpt lat="43.46800625243665" lon="11.521300375086662"><ele>575.0</ele><time>2026-04-04T08:33:31Z</time></trkpt><trkpt lat="43.46795916103991" lon="11.521160605233753"><ele>575.0</ele><time>2026-04-04T08:33:32Z</time></trkpt><trkpt lat="43.46791222429436" lon="11.521024711251084"><ele>575.0</ele><time>2026-04-04T08:33:33Z</time></trkpt><trkpt lat="43.4678733142649" lon="11.520885879070388"><ele>575.0</ele><time>2026-04-04T08:33:34Z</time></trkpt><trkpt lat="43.46783293987955" lon="11.520754543531135"><ele>570.8</ele><time>2026-04-04T08:33:35Z</time></trkpt><trkpt lat="43.46778841641156" lon="11.520617440869897"><ele>566.6</ele><time>2026-04-04T08:33:36Z</time></trkpt><trkpt lat="43.467751569843756" lon="11.520495124528303"><ele>562.4</ele><time>2026-04-04T08:33:37Z</time></trkpt><trkpt lat="43.46772478584224" lon="11.52037856002767"><ele>558.2</ele><time>2026-04-04T08:33:38Z</time></trkpt><trkpt lat="43.46773358695017" lon="11.520254818667297"><ele>554.0</ele><time>2026-04-04T08:33:39Z</time></trkpt><trkpt lat="43.4677465479697" lon="11.520133151091168"><ele>553.6666666666666</ele><time>2026-04-04T08:33:40Z</time></trkpt><trkpt lat="43.467775290761296" lon="11.520005582396658"><ele>553.3333333333333</ele><time>2026-04-04T08:33:41Z</time></trkpt><trkpt lat="43.467804667730924" lon="11.51988113810619"><ele>553.0</ele><time>2026-04-04T08:33:42Z</time></trkpt><trkpt lat="43.46783902966171" lon="11.5197701112394"><ele>552.6666666666666</ele><time>2026-04-04T08:33:43Z</time></trkpt><trkpt lat="43.467867093318226" lon="11.519683309889606"><ele>552.3333333333334</ele><time>2026-04-04T08:33:44Z</time></trkpt><trkpt lat="43.46786577196431" lon="11.519594908969147"><ele>552.0</ele><time>2026-04-04T08:33:45Z</time></trkpt><trkpt lat="43.46781326955798" lon="11.519521526665617"><ele>554.5</ele><time>2026-04-04T08:33:47Z</time></trkpt><trkpt lat="43.46771807111005" lon="11.519504246232007"><ele>557.0</ele><time>2026-04-04T08:33:51Z</time></trkpt><trkpt lat="43.4676436673379" lon="11.519503583735634"><ele>559.5</ele><time>2026-04-04T08:33:52Z</time></trkpt><trkpt lat="43.46755828935424" lon="11.519507773263415"><ele>562.0</ele><time>2026-04-04T08:33:53Z</time></trkpt><trkpt lat="43.467485439986945" lon="11.519509039824575"><ele>564.5</ele><time>2026-04-04T08:33:54Z</time></trkpt><trkpt lat="43.46741232703096" lon="11.519493290743126"><ele>567.0</ele><time>2026-04-04T08:33:55Z</time></trkpt><trkpt lat="43.46732731994012" lon="11.519466273402255"><ele>567.0</ele><time>2026-04-04T08:33:56Z</time></trkpt><trkpt lat="43.467238407319044" lon="11.519425965250358"><ele>567.0</ele><time>2026-04-04T08:33:57Z</time></trkpt><trkpt lat="43.46714412243903" lon="11.519376813639315"><ele>567.0</ele><time>2026-04-04T08:33:58Z</time></trkpt><trkpt lat="43.46706799973008" lon="11.519322654219579"><ele>567.0</ele><time>2026-04-04T08:33:59Z</time></trkpt><trkpt lat="43.467003985215534" lon="11.519282152003608"><ele>567.0</ele><time>2026-04-04T08:34:00Z</time></trkpt><trkpt lat="43.46700866805482" lon="11.519175421272777"><ele>567.0</ele><time>2026-04-04T08:34:01Z</time></trkpt><trkpt lat="43.46699203363687" lon="11.519088186366556"><ele>562.4</ele><time>2026-04-04T08:34:02Z</time></trkpt><trkpt lat="43.46696690135933" lon="11.518993632445008"><ele>557.8000000000001</ele><time>2026-04-04T08:34:03Z</time></trkpt><trkpt lat="43.46686003161196" lon="11.518927479549873"><ele>553.2</ele><time>2026-04-04T08:34:05Z</time></trkpt><trkpt lat="43.46678749307625" lon="11.51901432467265"><ele>548.6</ele><time>2026-04-04T08:34:06Z</time></trkpt><trkpt lat="43.46670966501014" lon="11.519067711218147"><ele>544.0</ele><time>2026-04-04T08:34:07Z</time></trkpt><trkpt lat="43.46660839917259" lon="11.519127806316906"><ele>544.0</ele><time>2026-04-04T08:34:08Z</time></trkpt><trkpt lat="43.46649480621727" lon="11.51917713258819"><ele>544.0</ele><time>2026-04-04T08:34:09Z</time></trkpt><trkpt lat="43.4663568888409" lon="11.51921878882991"><ele>544.0</ele><time>2026-04-04T08:34:10Z</time></trkpt><trkpt lat="43.46623123280715" lon="11.519264874706911"><ele>544.0</ele><time>2026-04-04T08:34:11Z</time></trkpt><trkpt lat="43.46611059699022" lon="11.519304602571866"><ele>541.4</ele><time>2026-04-04T08:34:12Z</time></trkpt><trkpt lat="43.46600587655738" lon="11.519358876167757"><ele>538.8</ele><time>2026-04-04T08:34:13Z</time></trkpt><trkpt lat="43.46590655314026" lon="11.51943032607653"><ele>536.2</ele><time>2026-04-04T08:34:14Z</time></trkpt><trkpt lat="43.46582106876728" lon="11.519486718081763"><ele>533.6</ele><time>2026-04-04T08:34:15Z</time></trkpt><trkpt lat="43.4657345339791" lon="11.519507325430055"><ele>531.0</ele><time>2026-04-04T08:34:16Z</time></trkpt><trkpt lat="43.46564722126194" lon="11.519475345147242"><ele>531.0</ele><time>2026-04-04T08:34:17Z</time></trkpt><trkpt lat="43.465556262311644" lon="11.519408245362532"><ele>531.0</ele><time>2026-04-04T08:34:18Z</time></trkpt><trkpt lat="43.46547027394968" lon="11.51929889609185"><ele>531.0</ele><time>2026-04-04T08:34:19Z</time></trkpt><trkpt lat="43.46538291042017" lon="11.519176080326497"><ele>531.0</ele><time>2026-04-04T08:34:20Z</time></trkpt><trkpt lat="43.465308424790564" lon="11.519042028138978"><ele>525.75</ele><time>2026-04-04T08:34:21Z</time></trkpt><trkpt lat="43.46525528456365" lon="11.518893606581301"><ele>520.5</ele><time>2026-04-04T08:34:22Z</time></trkpt><trkpt lat="43.465227462580756" lon="11.518733567055481"><ele>515.25</ele><time>2026-04-04T08:34:23Z</time></trkpt><trkpt lat="43.46522189135718" lon="11.518573901444043"><ele>510.0</ele><time>2026-04-04T08:34:24.001Z</time></trkpt><trkpt lat="43.46522181321087" lon="11.51843487066329"><ele>510.0</ele><time>2026-04-04T08:34:25.001Z</time></trkpt><trkpt lat="43.46518937126551" lon="11.51830852360861"><ele>510.0</ele><time>2026-04-04T08:34:26.001Z</time></trkpt><trkpt lat="43.46512215303775" lon="11.518205350779652"><ele>510.0</ele><time>2026-04-04T08:34:27.001Z</time></trkpt><trkpt lat="43.46501022840118" lon="11.518113867291873"><ele>510.0</ele><time>2026-04-04T08:34:28.001Z</time></trkpt><trkpt lat="43.46487963238094" lon="11.518019243309121"><ele>510.0</ele><time>2026-04-04T08:34:29.001Z</time></trkpt><trkpt lat="43.46473820686844" lon="11.517932518087163"><ele>510.0</ele><time>2026-04-04T08:34:30.001Z</time></trkpt><trkpt lat="43.46462090961932" lon="11.51783193373403"><ele>510.0</ele><time>2026-04-04T08:34:31.001Z</time></trkpt><trkpt lat="43.46452469458345" lon="11.51770955359369"><ele>510.0</ele><time>2026-04-04T08:34:32.001Z</time></trkpt><trkpt lat="43.4644597358078" lon="11.517560432037214"><ele>509.25</ele><time>2026-04-04T08:34:33.001Z</time></trkpt><trkpt lat="43.464401848501964" lon="11.51738794349917"><ele>508.5</ele><time>2026-04-04T08:34:34.001Z</time></trkpt><trkpt lat="43.464340686723716" lon="11.517206516831024"><ele>507.75</ele><time>2026-04-04T08:34:35.001Z</time></trkpt><trkpt lat="43.464272345490784" lon="11.51702889699983"><ele>507.0</ele><time>2026-04-04T08:34:36Z</time></trkpt><trkpt lat="43.464193377225406" lon="11.516853895374556"><ele>508.20000000000005</ele><time>2026-04-04T08:34:37Z</time></trkpt><trkpt lat="43.464120362588396" lon="11.516719898280472"><ele>509.40000000000003</ele><time>2026-04-04T08:34:38Z</time></trkpt><trkpt lat="43.4640409433744" lon="11.516623096180227"><ele>510.59999999999997</ele><time>2026-04-04T08:34:39Z</time></trkpt><trkpt lat="43.4639479801132" lon="11.516568171607524"><ele>511.79999999999995</ele><time>2026-04-04T08:34:40Z</time></trkpt><trkpt lat="43.463847669681556" lon="11.516574524406066"><ele>513.0</ele><time>2026-04-04T08:34:41Z</time></trkpt><trkpt lat="43.463730144305444" lon="11.516610431075705"><ele>514.5</ele><time>2026-04-04T08:34:42Z</time></trkpt><trkpt lat="43.46360067343744" lon="11.516628127843491"><ele>516.0</ele><time>2026-04-04T08:34:43Z</time></trkpt><trkpt lat="43.46345904458461" lon="11.516634549383934"><ele>517.5</ele><time>2026-04-04T08:34:44Z</time></trkpt><trkpt lat="43.46334175760686" lon="11.516628730652068"><ele>519.0</ele><time>2026-04-04T08:34:45Z</time></trkpt><trkpt lat="43.46323670894641" lon="11.516608169086785"><ele>519.0</ele><time>2026-04-04T08:34:46Z</time></trkpt><trkpt lat="43.46317184864695" lon="11.516495845871491"><ele>519.0</ele><time>2026-04-04T08:34:47Z</time></trkpt><trkpt lat="43.463107068796624" lon="11.516402206505763"><ele>519.0</ele><time>2026-04-04T08:34:48Z</time></trkpt><trkpt lat="43.46306757623474" lon="11.516254577935213"><ele>519.0</ele><time>2026-04-04T08:34:49Z</time></trkpt><trkpt lat="43.463040919447856" lon="11.516091563923952"><ele>519.0</ele><time>2026-04-04T08:34:50Z</time></trkpt><trkpt lat="43.46304958559601" lon="11.5159170666789"><ele>523.0</ele><time>2026-04-04T08:34:51Z</time></trkpt><trkpt lat="43.46304841074101" lon="11.515743331691656"><ele>527.0</ele><time>2026-04-04T08:34:52Z</time></trkpt><trkpt lat="43.46304992556432" lon="11.515574422377552"><ele>531.0</ele><time>2026-04-04T08:34:53Z</time></trkpt><trkpt lat="43.46304342863501" lon="11.515401603244435"><ele>535.0</ele><time>2026-04-04T08:34:54Z</time></trkpt><trkpt lat="43.46307356646194" lon="11.515217868465424"><ele>537.25</ele><time>2026-04-04T08:34:55Z</time></trkpt><trkpt lat="43.463081869633" lon="11.515039091906685"><ele>539.5</ele><time>2026-04-04T08:34:56Z</time></trkpt><trkpt lat="43.46306272815225" lon="11.514849047039071"><ele>541.75</ele><time>2026-04-04T08:34:57Z</time></trkpt><trkpt lat="43.463030629473494" lon="11.514647757811082"><ele>544.0</ele><time>2026-04-04T08:34:58Z</time></trkpt><trkpt lat="43.46299662066371" lon="11.514470145419658"><ele>544.75</ele><time>2026-04-04T08:34:59Z</time></trkpt><trkpt lat="43.462979419134875" lon="11.514286268902104"><ele>545.5</ele><time>2026-04-04T08:35:00Z</time></trkpt><trkpt lat="43.462978922323764" lon="11.51409993453844"><ele>546.25</ele><time>2026-04-04T08:35:01Z</time></trkpt><trkpt lat="43.462961659216894" lon="11.513912006262652"><ele>547.0</ele><time>2026-04-04T08:35:02Z</time></trkpt><trkpt lat="43.46291932077187" lon="11.513720413848331"><ele>547.0</ele><time>2026-04-04T08:35:03Z</time></trkpt><trkpt lat="43.46289614889639" lon="11.513526640721436"><ele>547.0</ele><time>2026-04-04T08:35:04Z</time></trkpt><trkpt lat="43.46286527325325" lon="11.513354804311339"><ele>547.0</ele><time>2026-04-04T08:35:05Z</time></trkpt><trkpt lat="43.46283530311339" lon="11.513188007421189"><ele>547.0</ele><time>2026-04-04T08:35:06Z</time></trkpt><trkpt lat="43.462782625633125" lon="11.513023519146163"><ele>547.5</ele><time>2026-04-04T08:35:07Z</time></trkpt><trkpt lat="43.46272613685311" lon="11.512848780102448"><ele>548.0</ele><time>2026-04-04T08:35:08Z</time></trkpt><trkpt lat="43.462653327070754" lon="11.512685701251874"><ele>548.5</ele><time>2026-04-04T08:35:09Z</time></trkpt><trkpt lat="43.46257303244142" lon="11.512530442504064"><ele>549.0</ele><time>2026-04-04T08:35:10Z</time></trkpt><trkpt lat="43.462490220761026" lon="11.512383278268048"><ele>549.0</ele><time>2026-04-04T08:35:11Z</time></trkpt><trkpt lat="43.46240495742934" lon="11.512261978953173"><ele>549.0</ele><time>2026-04-04T08:35:12Z</time></trkpt><trkpt lat="43.462325846842994" lon="11.512161682023914"><ele>549.0</ele><time>2026-04-04T08:35:13Z</time></trkpt><trkpt lat="43.462250011362144" lon="11.512106499646686"><ele>549.0</ele><time>2026-04-04T08:35:14Z</time></trkpt><trkpt lat="43.462166998749964" lon="11.512094738729038"><ele>549.0</ele><time>2026-04-04T08:35:15Z</time></trkpt><trkpt lat="43.46208405154414" lon="11.512128497304001"><ele>552.2</ele><time>2026-04-04T08:35:16Z</time></trkpt><trkpt lat="43.46200655942359" lon="11.512199542589428"><ele>555.4</ele><time>2026-04-04T08:35:17Z</time></trkpt><trkpt lat="43.461955598306396" lon="11.512321305470817"><ele>558.6</ele><time>2026-04-04T08:35:18Z</time></trkpt><trkpt lat="43.46194239215726" lon="11.512469366043167"><ele>561.8</ele><time>2026-04-04T08:35:19Z</time></trkpt><trkpt lat="43.461951279844236" lon="11.512641807732589"><ele>565.0</ele><time>2026-04-04T08:35:20Z</time></trkpt><trkpt lat="43.46198471204797" lon="11.512836929295824"><ele>565.2</ele><time>2026-04-04T08:35:21Z</time></trkpt><trkpt lat="43.46200617470787" lon="11.512993869518638"><ele>565.4</ele><time>2026-04-04T08:35:22Z</time></trkpt><trkpt lat="43.46200896607144" lon="11.51311988671267"><ele>565.6</ele><time>2026-04-04T08:35:23Z</time></trkpt><trkpt lat="43.46198511727824" lon="11.513213877706225"><ele>565.8</ele><time>2026-04-04T08:35:24Z</time></trkpt><trkpt lat="43.46187408363751" lon="11.51326559389948"><ele>566.0</ele><time>2026-04-04T08:35:26Z</time></trkpt><trkpt lat="43.46180797533075" lon="11.513220945311987"><ele>566.0</ele><time>2026-04-04T08:35:27Z</time></trkpt><trkpt lat="43.46175782938716" lon="11.513130715379045"><ele>566.0</ele><time>2026-04-04T08:35:28Z</time></trkpt><trkpt lat="43.4617372016796" lon="11.513028365110095"><ele>566.0</ele><time>2026-04-04T08:35:29Z</time></trkpt><trkpt lat="43.46170839483913" lon="11.512912443107439"><ele>566.0</ele><time>2026-04-04T08:35:30Z</time></trkpt><trkpt lat="43.46165533691485" lon="11.512854755174784"><ele>566.0</ele><time>2026-04-04T08:35:31Z</time></trkpt><trkpt lat="43.46159084044767" lon="11.512851301244766"><ele>566.0</ele><time>2026-04-04T08:35:32Z</time></trkpt><trkpt lat="43.46153043389195" lon="11.512899637990179"><ele>566.0</ele><time>2026-04-04T08:35:33Z</time></trkpt><trkpt lat="43.46149002573562" lon="11.512982068779474"><ele>566.0</ele><time>2026-04-04T08:35:34Z</time></trkpt><trkpt lat="43.46148708374574" lon="11.513088647894888"><ele>566.0</ele><time>2026-04-04T08:35:35Z</time></trkpt><trkpt lat="43.46150053715644" lon="11.513206264212318"><ele>566.0</ele><time>2026-04-04T08:35:36Z</time></trkpt><trkpt lat="43.46153234675982" lon="11.513315304680342"><ele>566.0</ele><time>2026-04-04T08:35:37Z</time></trkpt><trkpt lat="43.461582042090754" lon="11.513427448198394"><ele>566.0</ele><time>2026-04-04T08:35:38Z</time></trkpt><trkpt lat="43.461647383427284" lon="11.513538281287426"><ele>566.0</ele><time>2026-04-04T08:35:39Z</time></trkpt><trkpt lat="43.461726814853996" lon="11.513624813459856"><ele>566.0</ele><time>2026-04-04T08:35:40Z</time></trkpt><trkpt lat="43.461817073475984" lon="11.513682527127028"><ele>566.0</ele><time>2026-04-04T08:35:41Z</time></trkpt><trkpt lat="43.461920750061076" lon="11.513723748604274"><ele>566.0</ele><time>2026-04-04T08:35:42Z</time></trkpt><trkpt lat="43.461991546514724" lon="11.513767168735539"><ele>566.0</ele><time>2026-04-04T08:35:43Z</time></trkpt><trkpt lat="43.462029202818584" lon="11.513845904776028"><ele>566.3333333333333</ele><time>2026-04-04T08:35:44Z</time></trkpt><trkpt lat="43.46201232384284" lon="11.513951471972197"><ele>566.6666666666666</ele><time>2026-04-04T08:35:45Z</time></trkpt><trkpt lat="43.46195262771107" lon="11.514028487467812"><ele>567.0</ele><time>2026-04-04T08:35:46Z</time></trkpt><trkpt lat="43.46187553827807" lon="11.514059668440913"><ele>567.3333333333334</ele><time>2026-04-04T08:35:47Z</time></trkpt><trkpt lat="43.46178313900241" lon="11.5140549102377"><ele>567.6666666666667</ele><time>2026-04-04T08:35:48Z</time></trkpt><trkpt lat="43.461677220976846" lon="11.514040418749829"><ele>568.0</ele><time>2026-04-04T08:35:49Z</time></trkpt><trkpt lat="43.46155474307446" lon="11.514024399454858"><ele>568.0</ele><time>2026-04-04T08:35:50Z</time></trkpt><trkpt lat="43.46145299758534" lon="11.514034138168535"><ele>568.0</ele><time>2026-04-04T08:35:51Z</time></trkpt><trkpt lat="43.46137946640188" lon="11.51409533480916"><ele>568.0</ele><time>2026-04-04T08:35:52Z</time></trkpt><trkpt lat="43.461321804262624" lon="11.514194008954446"><ele>568.0</ele><time>2026-04-04T08:35:53Z</time></trkpt><trkpt lat="43.4612719042258" lon="11.514329982903535"><ele>568.0</ele><time>2026-04-04T08:35:54Z</time></trkpt><trkpt lat="43.46123881241624" lon="11.514489810672782"><ele>570.8</ele><time>2026-04-04T08:35:55Z</time></trkpt><trkpt lat="43.461231526507866" lon="11.514644423111783"><ele>573.5999999999999</ele><time>2026-04-04T08:35:56Z</time></trkpt><trkpt lat="43.461216488800254" lon="11.514788407054139"><ele>576.4000000000001</ele><time>2026-04-04T08:35:57Z</time></trkpt><trkpt lat="43.46117013786636" lon="11.51489641069069"><ele>579.2</ele><time>2026-04-04T08:35:58Z</time></trkpt><trkpt lat="43.46109521549813" lon="11.514984455567054"><ele>582.0</ele><time>2026-04-04T08:35:59Z</time></trkpt><trkpt lat="43.460998627779404" lon="11.51504971488791"><ele>582.0</ele><time>2026-04-04T08:36:00Z</time></trkpt><trkpt lat="43.46088545799878" lon="11.51510570625113"><ele>582.0</ele><time>2026-04-04T08:36:01Z</time></trkpt><trkpt lat="43.46076508018087" lon="11.51517841155517"><ele>582.0</ele><time>2026-04-04T08:36:02Z</time></trkpt><trkpt lat="43.460648386327925" lon="11.51525944779483"><ele>582.0</ele><time>2026-04-04T08:36:03Z</time></trkpt><trkpt lat="43.460540587575906" lon="11.515350644474642"><ele>584.2</ele><time>2026-04-04T08:36:04Z</time></trkpt><trkpt lat="43.46044912447367" lon="11.515453380160366"><ele>586.4000000000001</ele><time>2026-04-04T08:36:05Z</time></trkpt><trkpt lat="43.46039753070705" lon="11.515574546809518"><ele>588.5999999999999</ele><time>2026-04-04T08:36:06Z</time></trkpt><trkpt lat="43.46037873318596" lon="11.515711029687788"><ele>590.8</ele><time>2026-04-04T08:36:07Z</time></trkpt><trkpt lat="43.46038208675312" lon="11.515870187617258"><ele>593.0</ele><time>2026-04-04T08:36:08Z</time></trkpt><trkpt lat="43.46039053208165" lon="11.516059286157436"><ele>593.0</ele><time>2026-04-04T08:36:09Z</time></trkpt><trkpt lat="43.46039395279983" lon="11.516224864121813"><ele>593.0</ele><time>2026-04-04T08:36:10Z</time></trkpt><trkpt lat="43.46040021102646" lon="11.516360765875595"><ele>593.0</ele><time>2026-04-04T08:36:11Z</time></trkpt><trkpt lat="43.460396064572" lon="11.51646952070529"><ele>593.0</ele><time>2026-04-04T08:36:12Z</time></trkpt><trkpt lat="43.46036723208827" lon="11.516580196967626"><ele>593.0</ele><time>2026-04-04T08:36:13Z</time></trkpt><trkpt lat="43.460301348142394" lon="11.51669146714474"><ele>592.75</ele><time>2026-04-04T08:36:14Z</time></trkpt><trkpt lat="43.46020298998201" lon="11.516774559236335"><ele>592.5</ele><time>2026-04-04T08:36:15Z</time></trkpt><trkpt lat="43.460080339157976" lon="11.516840987786916"><ele>592.25</ele><time>2026-04-04T08:36:16Z</time></trkpt><trkpt lat="43.459952504191335" lon="11.516890001365502"><ele>592.0</ele><time>2026-04-04T08:36:17Z</time></trkpt><trkpt lat="43.45985342048376" lon="11.516924341125618"><ele>592.0</ele><time>2026-04-04T08:36:18Z</time></trkpt><trkpt lat="43.45977341329468" lon="11.51693943585649"><ele>592.0</ele><time>2026-04-04T08:36:19Z</time></trkpt><trkpt lat="43.45969684415592" lon="11.51693087324629"><ele>592.0</ele><time>2026-04-04T08:36:20Z</time></trkpt><trkpt lat="43.4596441396981" lon="11.516871686898048"><ele>592.0</ele><time>2026-04-04T08:36:21Z</time></trkpt><trkpt lat="43.45960632122326" lon="11.516780500907608"><ele>592.0</ele><time>2026-04-04T08:36:22Z</time></trkpt><trkpt lat="43.459589835172586" lon="11.516670542659172"><ele>592.0</ele><time>2026-04-04T08:36:23Z</time></trkpt><trkpt lat="43.45961231183798" lon="11.516542965082497"><ele>592.0</ele><time>2026-04-04T08:36:24Z</time></trkpt><trkpt lat="43.45965471453539" lon="11.516406532411244"><ele>592.0</ele><time>2026-04-04T08:36:25Z</time></trkpt><trkpt lat="43.459710613375975" lon="11.516262567749994"><ele>592.0</ele><time>2026-04-04T08:36:26Z</time></trkpt><trkpt lat="43.459753048201044" lon="11.516116065492911"><ele>592.0</ele><time>2026-04-04T08:36:27Z</time></trkpt><trkpt lat="43.45977003052322" lon="11.515975363577395"><ele>592.0</ele><time>2026-04-04T08:36:28Z</time></trkpt><trkpt lat="43.4597718822407" lon="11.515837402366692"><ele>592.2</ele><time>2026-04-04T08:36:29.001Z</time></trkpt><trkpt lat="43.45976776869729" lon="11.515694747660845"><ele>592.4000000000001</ele><time>2026-04-04T08:36:30.001Z</time></trkpt><trkpt lat="43.4597676844541" lon="11.51554810644606"><ele>592.5999999999999</ele><time>2026-04-04T08:36:31.001Z</time></trkpt><trkpt lat="43.4597896854245" lon="11.515407512453944"><ele>592.8</ele><time>2026-04-04T08:36:32.001Z</time></trkpt><trkpt lat="43.45983863837" lon="11.51526800778781"><ele>593.0</ele><time>2026-04-04T08:36:33.001Z</time></trkpt><trkpt lat="43.459883225640574" lon="11.515132285353387"><ele>593.8</ele><time>2026-04-04T08:36:34.001Z</time></trkpt><trkpt lat="43.45990659094267" lon="11.514993660037161"><ele>594.5999999999999</ele><time>2026-04-04T08:36:35.001Z</time></trkpt><trkpt lat="43.45990814701486" lon="11.514866322387364"><ele>595.4000000000001</ele><time>2026-04-04T08:36:36.001Z</time></trkpt><trkpt lat="43.45988131168539" lon="11.514751231617323"><ele>596.2</ele><time>2026-04-04T08:36:37.001Z</time></trkpt><trkpt lat="43.45982329418052" lon="11.514647815524997"><ele>597.0</ele><time>2026-04-04T08:36:38.001Z</time></trkpt><trkpt lat="43.459750387348286" lon="11.514554956759644"><ele>600.5</ele><time>2026-04-04T08:36:39.001Z</time></trkpt><trkpt lat="43.4596595175216" lon="11.514454721509644"><ele>604.0</ele><time>2026-04-04T08:36:40.001Z</time></trkpt><trkpt lat="43.45955026726854" lon="11.514360926351559"><ele>607.5</ele><time>2026-04-04T08:36:41.001Z</time></trkpt><trkpt lat="43.4594326967196" lon="11.514292261540392"><ele>611.0</ele><time>2026-04-04T08:36:42.001Z</time></trkpt><trkpt lat="43.459307206400865" lon="11.514233815569233"><ele>613.0</ele><time>2026-04-04T08:36:43.001Z</time></trkpt><trkpt lat="43.45918153704114" lon="11.514197920577582"><ele>615.0</ele><time>2026-04-04T08:36:44.001Z</time></trkpt><trkpt lat="43.459058531827374" lon="11.514172712923223"><ele>617.0</ele><time>2026-04-04T08:36:45.001Z</time></trkpt><trkpt lat="43.45893067046049" lon="11.514158428158467"><ele>619.0</ele><time>2026-04-04T08:36:46.001Z</time></trkpt><trkpt lat="43.45880729401644" lon="11.51414265269825"><ele>617.25</ele><time>2026-04-04T08:36:47Z</time></trkpt><trkpt lat="43.458682121305586" lon="11.514109590531556"><ele>615.5</ele><time>2026-04-04T08:36:48Z</time></trkpt><trkpt lat="43.45856165468249" lon="11.514040979749584"><ele>613.75</ele><time>2026-04-04T08:36:49Z</time></trkpt><trkpt lat="43.458465576720286" lon="11.513955936912732"><ele>612.0</ele><time>2026-04-04T08:36:50Z</time></trkpt><trkpt lat="43.45838024494838" lon="11.51385088228662"><ele>618.0</ele><time>2026-04-04T08:36:51Z</time></trkpt><trkpt lat="43.458320814022514" lon="11.513720620440647"><ele>624.0</ele><time>2026-04-04T08:36:52Z</time></trkpt><trkpt lat="43.45828027662959" lon="11.513561207544168"><ele>630.0</ele><time>2026-04-04T08:36:53Z</time></trkpt><trkpt lat="43.45824847007932" lon="11.513405048323683"><ele>636.0</ele><time>2026-04-04T08:36:54Z</time></trkpt><trkpt lat="43.458215284498706" lon="11.513281469192535"><ele>642.0</ele><time>2026-04-04T08:36:55Z</time></trkpt><trkpt lat="43.458160578148615" lon="11.513204772314841"><ele>642.0</ele><time>2026-04-04T08:36:56Z</time></trkpt><trkpt lat="43.45808778656997" lon="11.513160291006198"><ele>642.0</ele><time>2026-04-04T08:36:57Z</time></trkpt><trkpt lat="43.45800374603162" lon="11.513170376954777"><ele>642.0</ele><time>2026-04-04T08:36:58Z</time></trkpt><trkpt lat="43.4579210396567" lon="11.513228598090631"><ele>642.0</ele><time>2026-04-04T08:36:59Z</time></trkpt><trkpt lat="43.45783769047327" lon="11.513310601266117"><ele>642.0</ele><time>2026-04-04T08:37:00Z</time></trkpt><trkpt lat="43.45774692575186" lon="11.513397018540958"><ele>639.0</ele><time>2026-04-04T08:37:01Z</time></trkpt><trkpt lat="43.45765638477033" lon="11.513428595574881"><ele>636.0</ele><time>2026-04-04T08:37:02Z</time></trkpt><trkpt lat="43.45758926891461" lon="11.513404404555564"><ele>633.0</ele><time>2026-04-04T08:37:03Z</time></trkpt><trkpt lat="43.45753477471627" lon="11.513330364559005"><ele>630.0</ele><time>2026-04-04T08:37:04Z</time></trkpt><trkpt lat="43.45750725922722" lon="11.513239731619949"><ele>627.0</ele><time>2026-04-04T08:37:05Z</time></trkpt><trkpt lat="43.45746449455512" lon="11.513112380718853"><ele>624.0</ele><time>2026-04-04T08:37:06Z</time></trkpt><trkpt lat="43.45743777767617" lon="11.51296191212583"><ele>630.25</ele><time>2026-04-04T08:37:07Z</time></trkpt><trkpt lat="43.45741252371259" lon="11.512811288744292"><ele>636.5</ele><time>2026-04-04T08:37:08Z</time></trkpt><trkpt lat="43.45738860560016" lon="11.512653782384353"><ele>642.75</ele><time>2026-04-04T08:37:09Z</time></trkpt><trkpt lat="43.45736029389544" lon="11.512488601084472"><ele>649.0</ele><time>2026-04-04T08:37:10Z</time></trkpt><trkpt lat="43.457336569326756" lon="11.512319576408263"><ele>649.0</ele><time>2026-04-04T08:37:11Z</time></trkpt><trkpt lat="43.45731505823991" lon="11.512144674585553"><ele>649.0</ele><time>2026-04-04T08:37:12Z</time></trkpt><trkpt lat="43.45729522777986" lon="11.511988859994014"><ele>649.0</ele><time>2026-04-04T08:37:13Z</time></trkpt><trkpt lat="43.45727686422987" lon="11.511863787971482"><ele>649.0</ele><time>2026-04-04T08:37:14Z</time></trkpt><trkpt lat="43.45724843284102" lon="11.511764519250946"><ele>649.0</ele><time>2026-04-04T08:37:15Z</time></trkpt><trkpt lat="43.45720107940717" lon="11.511695049874165"><ele>653.0</ele><time>2026-04-04T08:37:16Z</time></trkpt><trkpt lat="43.45711666759896" lon="11.511667940625623"><ele>657.0</ele><time>2026-04-04T08:37:17Z</time></trkpt><trkpt lat="43.45703462567134" lon="11.511672655349381"><ele>661.0</ele><time>2026-04-04T08:37:18Z</time></trkpt><trkpt lat="43.456953709509925" lon="11.511726254228073"><ele>665.0</ele><time>2026-04-04T08:37:19Z</time></trkpt><trkpt lat="43.456877897756804" lon="11.511826499515106"><ele>669.0</ele><time>2026-04-04T08:37:20Z</time></trkpt><trkpt lat="43.45680718060967" lon="11.511943798493773"><ele>663.75</ele><time>2026-04-04T08:37:21Z</time></trkpt><trkpt lat="43.456723852980005" lon="11.512101801780203"><ele>658.5</ele><time>2026-04-04T08:37:22Z</time></trkpt><trkpt lat="43.456643735989594" lon="11.512253931548669"><ele>653.25</ele><time>2026-04-04T08:37:23Z</time></trkpt><trkpt lat="43.456550477373725" lon="11.512394993244211"><ele>648.0</ele><time>2026-04-04T08:37:24Z</time></trkpt><trkpt lat="43.45644519994379" lon="11.512544931581795"><ele>648.0</ele><time>2026-04-04T08:37:25Z</time></trkpt><trkpt lat="43.45634984544554" lon="11.51268296701836"><ele>648.0</ele><time>2026-04-04T08:37:26Z</time></trkpt><trkpt lat="43.45627097430007" lon="11.512800975172796"><ele>648.0</ele><time>2026-04-04T08:37:27Z</time></trkpt><trkpt lat="43.45621315282761" lon="11.512907722302195"><ele>648.0</ele><time>2026-04-04T08:37:28Z</time></trkpt><trkpt lat="43.45615882353095" lon="11.51299709151867"><ele>648.0</ele><time>2026-04-04T08:37:29Z</time></trkpt><trkpt lat="43.45604973269443" lon="11.513031017476061"><ele>648.1666666666666</ele><time>2026-04-04T08:37:31Z</time></trkpt><trkpt lat="43.45600451004216" lon="11.512964706766558"><ele>648.3333333333334</ele><time>2026-04-04T08:37:32Z</time></trkpt><trkpt lat="43.45597115039767" lon="11.51286726485306"><ele>648.5</ele><time>2026-04-04T08:37:33Z</time></trkpt><trkpt lat="43.45597222269132" lon="11.51275813476033"><ele>648.6666666666667</ele><time>2026-04-04T08:37:34Z</time></trkpt><trkpt lat="43.45600632620537" lon="11.512652416261066"><ele>648.8333333333334</ele><time>2026-04-04T08:37:35Z</time></trkpt><trkpt lat="43.456076719211495" lon="11.512568282831918"><ele>649.0</ele><time>2026-04-04T08:37:36Z</time></trkpt><trkpt lat="43.45616337605219" lon="11.512502880943364"><ele>649.0</ele><time>2026-04-04T08:37:37Z</time></trkpt><trkpt lat="43.45624959795496" lon="11.512433761969362"><ele>649.0</ele><time>2026-04-04T08:37:38Z</time></trkpt><trkpt lat="43.45629001750538" lon="11.51234110156603"><ele>649.0</ele><time>2026-04-04T08:37:39Z</time></trkpt><trkpt lat="43.456288944845376" lon="11.512230264304552"><ele>649.0</ele><time>2026-04-04T08:37:40Z</time></trkpt><trkpt lat="43.45626780259063" lon="11.51212187825954"><ele>649.0</ele><time>2026-04-04T08:37:41Z</time></trkpt><trkpt lat="43.456239419271064" lon="11.511988337624311"><ele>649.0</ele><time>2026-04-04T08:37:42Z</time></trkpt><trkpt lat="43.45621929269201" lon="11.511823880216935"><ele>650.5</ele><time>2026-04-04T08:37:43Z</time></trkpt><trkpt lat="43.45620449386533" lon="11.51164011710068"><ele>652.0</ele><time>2026-04-04T08:37:44Z</time></trkpt><trkpt lat="43.45619481209538" lon="11.511453091756193"><ele>653.5</ele><time>2026-04-04T08:37:45Z</time></trkpt><trkpt lat="43.45617914520156" lon="11.51124998286165"><ele>655.0</ele><time>2026-04-04T08:37:46Z</time></trkpt><trkpt lat="43.4561668444675" lon="11.511043066130373"><ele>659.0</ele><time>2026-04-04T08:37:47Z</time></trkpt><trkpt lat="43.45614725511555" lon="11.510804439229958"><ele>663.0</ele><time>2026-04-04T08:37:48Z</time></trkpt><trkpt lat="43.45613873936817" lon="11.510570930645821"><ele>667.0</ele><time>2026-04-04T08:37:49Z</time></trkpt><trkpt lat="43.45614263429175" lon="11.510356392642086"><ele>671.25</ele><time>2026-04-04T08:37:50Z</time></trkpt><trkpt lat="43.456161571834265" lon="11.51016498534547"><ele>675.5</ele><time>2026-04-04T08:37:51Z</time></trkpt><trkpt lat="43.45619298912009" lon="11.509968965363559"><ele>679.75</ele><time>2026-04-04T08:37:52Z</time></trkpt><trkpt lat="43.45622371069002" lon="11.509774784951798"><ele>684.0</ele><time>2026-04-04T08:37:53Z</time></trkpt><trkpt lat="43.4562593289124" lon="11.50959140943229"><ele>688.8000000000001</ele><time>2026-04-04T08:37:54Z</time></trkpt><trkpt lat="43.456294787648076" lon="11.509434306068945"><ele>693.6</ele><time>2026-04-04T08:37:55Z</time></trkpt><trkpt lat="43.45632348543004" lon="11.509293674236538"><ele>698.4</ele><time>2026-04-04T08:37:56Z</time></trkpt><trkpt lat="43.456331874735355" lon="11.509167443897176"><ele>703.2</ele><time>2026-04-04T08:37:57Z</time></trkpt><trkpt lat="43.45630636042264" lon="11.509076116034223"><ele>708.0</ele><time>2026-04-04T08:37:58Z</time></trkpt><trkpt lat="43.45625697849396" lon="11.509005863856194"><ele>708.0</ele><time>2026-04-04T08:37:59Z</time></trkpt><trkpt lat="43.456190905766086" lon="11.508980621160697"><ele>708.0</ele><time>2026-04-04T08:38:00Z</time></trkpt><trkpt lat="43.45611347109301" lon="11.509012571197818"><ele>708.0</ele><time>2026-04-04T08:38:01Z</time></trkpt><trkpt lat="43.45603884199512" lon="11.509079727724137"><ele>708.0</ele><time>2026-04-04T08:38:02Z</time></trkpt><trkpt lat="43.45596041636958" lon="11.509168381266807"><ele>708.0</ele><time>2026-04-04T08:38:03Z</time></trkpt><trkpt lat="43.45586214085885" lon="11.50924473306125"><ele>708.0</ele><time>2026-04-04T08:38:04Z</time></trkpt><trkpt lat="43.45577106778588" lon="11.509253392147055"><ele>708.0</ele><time>2026-04-04T08:38:05Z</time></trkpt><trkpt lat="43.4556822751802" lon="11.509195815914932"><ele>708.0</ele><time>2026-04-04T08:38:06Z</time></trkpt><trkpt lat="43.45561263090869" lon="11.509108089132871"><ele>708.0</ele><time>2026-04-04T08:38:07Z</time></trkpt><trkpt lat="43.45553583579452" lon="11.50899782106109"><ele>708.0</ele><time>2026-04-04T08:38:08Z</time></trkpt><trkpt lat="43.455468004340744" lon="11.508853529795779"><ele>709.0</ele><time>2026-04-04T08:38:09Z</time></trkpt><trkpt lat="43.45540563783554" lon="11.508739965847175"><ele>710.0</ele><time>2026-04-04T08:38:10Z</time></trkpt><trkpt lat="43.45533397774267" lon="11.508672960277893"><ele>711.0</ele><time>2026-04-04T08:38:11Z</time></trkpt><trkpt lat="43.45525543660656" lon="11.508670591118445"><ele>712.0</ele><time>2026-04-04T08:38:12Z</time></trkpt><trkpt lat="43.45516284449618" lon="11.508718921625773"><ele>713.0</ele><time>2026-04-04T08:38:13Z</time></trkpt><trkpt lat="43.45507559475409" lon="11.508809618415931"><ele>713.0</ele><time>2026-04-04T08:38:14Z</time></trkpt><trkpt lat="43.45499760645753" lon="11.508927209312965"><ele>713.0</ele><time>2026-04-04T08:38:15Z</time></trkpt><trkpt lat="43.454911612876614" lon="11.509074653336734"><ele>713.0</ele><time>2026-04-04T08:38:16Z</time></trkpt><trkpt lat="43.45484204784075" lon="11.509221471249845"><ele>713.0</ele><time>2026-04-04T08:38:17Z</time></trkpt><trkpt lat="43.45478221957013" lon="11.509366667972056"><ele>713.0</ele><time>2026-04-04T08:38:18Z</time></trkpt><trkpt lat="43.45473181570118" lon="11.509495481219203"><ele>713.0</ele><time>2026-04-04T08:38:19Z</time></trkpt><trkpt lat="43.45467399155939" lon="11.50956929821042"><ele>713.0</ele><time>2026-04-04T08:38:20Z</time></trkpt><trkpt lat="43.4545932696913" lon="11.509608985728697"><ele>713.0</ele><time>2026-04-04T08:38:21Z</time></trkpt><trkpt lat="43.45450500691206" lon="11.50958529789548"><ele>713.0</ele><time>2026-04-04T08:38:22Z</time></trkpt><trkpt lat="43.45440331006378" lon="11.509529363815577"><ele>715.2</ele><time>2026-04-04T08:38:23Z</time></trkpt><trkpt lat="43.45431471568419" lon="11.509432808823085"><ele>717.4</ele><time>2026-04-04T08:38:24Z</time></trkpt><trkpt lat="43.454241723561545" lon="11.509322365895395"><ele>719.6</ele><time>2026-04-04T08:38:25Z</time></trkpt><trkpt lat="43.454171980697176" lon="11.509207691573382"><ele>721.8000000000001</ele><time>2026-04-04T08:38:26Z</time></trkpt><trkpt lat="43.45409888175923" lon="11.509100263952678"><ele>724.0</ele><time>2026-04-04T08:38:27Z</time></trkpt><trkpt lat="43.45402467911973" lon="11.509000580154897"><ele>724.0</ele><time>2026-04-04T08:38:28Z</time></trkpt><trkpt lat="43.453946163555614" lon="11.508892042982692"><ele>724.0</ele><time>2026-04-04T08:38:29Z</time></trkpt><trkpt lat="43.45389395933052" lon="11.508769080008237"><ele>724.0</ele><time>2026-04-04T08:38:30Z</time></trkpt><trkpt lat="43.45387909472502" lon="11.50863747914371"><ele>724.0</ele><time>2026-04-04T08:38:31Z</time></trkpt><trkpt lat="43.4539056074072" lon="11.508510235350288"><ele>724.0</ele><time>2026-04-04T08:38:32Z</time></trkpt><trkpt lat="43.45393757397517" lon="11.508375806183993"><ele>727.5</ele><time>2026-04-04T08:38:33Z</time></trkpt><trkpt lat="43.45397289367849" lon="11.508226898375305"><ele>731.0</ele><time>2026-04-04T08:38:34Z</time></trkpt><trkpt lat="43.45399975352476" lon="11.508064084471023"><ele>734.5</ele><time>2026-04-04T08:38:35.001Z</time></trkpt><trkpt lat="43.454025285752145" lon="11.507903312728912"><ele>738.0</ele><time>2026-04-04T08:38:36.001Z</time></trkpt><trkpt lat="43.4540530782518" lon="11.507723954240738"><ele>738.5</ele><time>2026-04-04T08:38:37.001Z</time></trkpt><trkpt lat="43.454079449483785" lon="11.50753620583133"><ele>739.0</ele><time>2026-04-04T08:38:38.001Z</time></trkpt><trkpt lat="43.454108201239585" lon="11.507339337330878"><ele>739.5</ele><time>2026-04-04T08:38:39.001Z</time></trkpt><trkpt lat="43.45415480143004" lon="11.507186874870357"><ele>740.0</ele><time>2026-04-04T08:38:40.001Z</time></trkpt><trkpt lat="43.45422379960068" lon="11.507044030868451"><ele>737.75</ele><time>2026-04-04T08:38:41.001Z</time></trkpt><trkpt lat="43.454320222835044" lon="11.50692080983556"><ele>735.5</ele><time>2026-04-04T08:38:42.001Z</time></trkpt><trkpt lat="43.45437449077061" lon="11.506744727958226"><ele>733.25</ele><time>2026-04-04T08:38:43.001Z</time></trkpt><trkpt lat="43.45442055827908" lon="11.506570117747843"><ele>731.0</ele><time>2026-04-04T08:38:44.001Z</time></trkpt><trkpt lat="43.45447879674226" lon="11.50641262358992"><ele>731.0</ele><time>2026-04-04T08:38:45.001Z</time></trkpt><trkpt lat="43.4545162412742" lon="11.506257862236186"><ele>731.0</ele><time>2026-04-04T08:38:46.001Z</time></trkpt><trkpt lat="43.45458537684835" lon="11.506126472624434"><ele>731.0</ele><time>2026-04-04T08:38:47.001Z</time></trkpt><trkpt lat="43.454689384349" lon="11.506035416054386"><ele>731.0</ele><time>2026-04-04T08:38:48.001Z</time></trkpt><trkpt lat="43.45477604134666" lon="11.505929205162703"><ele>734.8333333333333</ele><time>2026-04-04T08:38:49.001Z</time></trkpt><trkpt lat="43.45485323205858" lon="11.505866110716887"><ele>738.6666666666666</ele><time>2026-04-04T08:38:50.001Z</time></trkpt><trkpt lat="43.454905015891775" lon="11.50577373818993"><ele>742.5</ele><time>2026-04-04T08:38:51Z</time></trkpt><trkpt lat="43.45491636931428" lon="11.505662795502674"><ele>746.3333333333334</ele><time>2026-04-04T08:38:52Z</time></trkpt><trkpt lat="43.454917229025966" lon="11.505554464983154"><ele>750.1666666666667</ele><time>2026-04-04T08:38:53Z</time></trkpt><trkpt lat="43.45488795888991" lon="11.505463280221772"><ele>754.0</ele><time>2026-04-04T08:38:54Z</time></trkpt><trkpt lat="43.45478439392447" lon="11.505425414739477"><ele>754.0</ele><time>2026-04-04T08:38:55Z</time></trkpt><trkpt lat="43.45470448198147" lon="11.505359192100528"><ele>754.0</ele><time>2026-04-04T08:38:56Z</time></trkpt><trkpt lat="43.45466942567643" lon="11.505271309593077"><ele>754.0</ele><time>2026-04-04T08:38:57Z</time></trkpt><trkpt lat="43.45468295566229" lon="11.505128785304263"><ele>754.0</ele><time>2026-04-04T08:38:59Z</time></trkpt><trkpt lat="43.45480055617379" lon="11.505012162201172"><ele>754.0</ele><time>2026-04-04T08:39:00Z</time></trkpt><trkpt lat="43.45485662939319" lon="11.504881429435631"><ele>754.0</ele><time>2026-04-04T08:39:01Z</time></trkpt><trkpt lat="43.45490693842949" lon="11.504713952344645"><ele>754.0</ele><time>2026-04-04T08:39:02Z</time></trkpt><trkpt lat="43.454974422597424" lon="11.50454982289607"><ele>754.0</ele><time>2026-04-04T08:39:03Z</time></trkpt><trkpt lat="43.45503490107921" lon="11.5043786613263"><ele>754.0</ele><time>2026-04-04T08:39:04Z</time></trkpt><trkpt lat="43.455094200379676" lon="11.50423823703817"><ele>755.0</ele><time>2026-04-04T08:39:05Z</time></trkpt><trkpt lat="43.45512927916371" lon="11.50412229967137"><ele>756.0</ele><time>2026-04-04T08:39:06Z</time></trkpt><trkpt lat="43.45512801941706" lon="11.504005512109412"><ele>757.0</ele><time>2026-04-04T08:39:07Z</time></trkpt><trkpt lat="43.45508981693854" lon="11.503896530415831"><ele>758.0</ele><time>2026-04-04T08:39:08Z</time></trkpt><trkpt lat="43.455011406385744" lon="11.503806877642056"><ele>759.0</ele><time>2026-04-04T08:39:09Z</time></trkpt><trkpt lat="43.45491089984416" lon="11.50374343535225"><ele>759.0</ele><time>2026-04-04T08:39:10Z</time></trkpt><trkpt lat="43.45479386160109" lon="11.503667338662462"><ele>759.0</ele><time>2026-04-04T08:39:11Z</time></trkpt><trkpt lat="43.454659006222805" lon="11.503598371916233"><ele>759.0</ele><time>2026-04-04T08:39:12Z</time></trkpt><trkpt lat="43.45453637390238" lon="11.503540288854152"><ele>759.0</ele><time>2026-04-04T08:39:13Z</time></trkpt><trkpt lat="43.4544286711278" lon="11.50347682090445"><ele>759.0</ele><time>2026-04-04T08:39:14Z</time></trkpt><trkpt lat="43.45433322150823" lon="11.503393957014351"><ele>759.0</ele><time>2026-04-04T08:39:15Z</time></trkpt><trkpt lat="43.45424056786065" lon="11.503280769054367"><ele>759.0</ele><time>2026-04-04T08:39:16Z</time></trkpt><trkpt lat="43.45414560671293" lon="11.503176715461171"><ele>759.0</ele><time>2026-04-04T08:39:17Z</time></trkpt><trkpt lat="43.45403756787269" lon="11.50309926462452"><ele>759.0</ele><time>2026-04-04T08:39:18Z</time></trkpt><trkpt lat="43.453928028333706" lon="11.50303464112226"><ele>759.0</ele><time>2026-04-04T08:39:19Z</time></trkpt><trkpt lat="43.45381296221891" lon="11.502966608847698"><ele>759.0</ele><time>2026-04-04T08:39:20Z</time></trkpt><trkpt lat="43.45370819878019" lon="11.50288594733205"><ele>759.0</ele><time>2026-04-04T08:39:21Z</time></trkpt><trkpt lat="43.45360869258325" lon="11.502758171528743"><ele>760.25</ele><time>2026-04-04T08:39:22Z</time></trkpt><trkpt lat="43.45350829479262" lon="11.502607514963112"><ele>761.5</ele><time>2026-04-04T08:39:23Z</time></trkpt><trkpt lat="43.4533956744494" lon="11.502501825282472"><ele>762.75</ele><time>2026-04-04T08:39:24Z</time></trkpt><trkpt lat="43.453287674928966" lon="11.502406333590768"><ele>764.0</ele><time>2026-04-04T08:39:25Z</time></trkpt><trkpt lat="43.453173879808205" lon="11.502363678184063"><ele>764.0</ele><time>2026-04-04T08:39:26Z</time></trkpt><trkpt lat="43.45307639312101" lon="11.502304545822636"><ele>764.0</ele><time>2026-04-04T08:39:27Z</time></trkpt><trkpt lat="43.45301066848145" lon="11.50222415017705"><ele>764.0</ele><time>2026-04-04T08:39:28Z</time></trkpt><trkpt lat="43.452914739562154" lon="11.502130533139626"><ele>764.0</ele><time>2026-04-04T08:39:29Z</time></trkpt><trkpt lat="43.45282734687376" lon="11.501997714898287"><ele>764.0</ele><time>2026-04-04T08:39:30Z</time></trkpt><trkpt lat="43.45271035748434" lon="11.501927120146593"><ele>768.0</ele><time>2026-04-04T08:39:31Z</time></trkpt><trkpt lat="43.45256523972228" lon="11.50188101915121"><ele>772.0</ele><time>2026-04-04T08:39:32Z</time></trkpt><trkpt lat="43.45241983105518" lon="11.501831060852773"><ele>776.0</ele><time>2026-04-04T08:39:33Z</time></trkpt><trkpt lat="43.45229870230214" lon="11.501790448749887"><ele>780.0</ele><time>2026-04-04T08:39:34Z</time></trkpt><trkpt lat="43.452195834825474" lon="11.5017635455151"><ele>780.75</ele><time>2026-04-04T08:39:35Z</time></trkpt><trkpt lat="43.45209291600429" lon="11.501774097828756"><ele>781.5</ele><time>2026-04-04T08:39:36Z</time></trkpt><trkpt lat="43.45200878380767" lon="11.501857301138793"><ele>782.25</ele><time>2026-04-04T08:39:37Z</time></trkpt><trkpt lat="43.45191434919731" lon="11.501960227530477"><ele>783.0</ele><time>2026-04-04T08:39:38Z</time></trkpt><trkpt lat="43.45183347774506" lon="11.502117896468881"><ele>777.0</ele><time>2026-04-04T08:39:39Z</time></trkpt><trkpt lat="43.45172384397389" lon="11.502259648100383"><ele>771.0</ele><time>2026-04-04T08:39:40Z</time></trkpt><trkpt lat="43.45160321990578" lon="11.502379981109705"><ele>765.0</ele><time>2026-04-04T08:39:41Z</time></trkpt><trkpt lat="43.45147375944142" lon="11.502475072091856"><ele>759.0</ele><time>2026-04-04T08:39:42Z</time></trkpt><trkpt lat="43.45136006951246" lon="11.502542192541927"><ele>761.75</ele><time>2026-04-04T08:39:43Z</time></trkpt><trkpt lat="43.45125420906684" lon="11.502605285380929"><ele>764.5</ele><time>2026-04-04T08:39:44Z</time></trkpt><trkpt lat="43.45113934500342" lon="11.502669344842841"><ele>767.25</ele><time>2026-04-04T08:39:45Z</time></trkpt><trkpt lat="43.45101842981451" lon="11.502721184434368"><ele>770.0</ele><time>2026-04-04T08:39:46Z</time></trkpt><trkpt lat="43.450904518796044" lon="11.502731994793706"><ele>770.0</ele><time>2026-04-04T08:39:47Z</time></trkpt><trkpt lat="43.45079780301619" lon="11.502721531920725"><ele>770.0</ele><time>2026-04-04T08:39:48Z</time></trkpt><trkpt lat="43.4507056064123" lon="11.502703200332707"><ele>770.0</ele><time>2026-04-04T08:39:49Z</time></trkpt><trkpt lat="43.45063142204892" lon="11.502646451416402"><ele>770.0</ele><time>2026-04-04T08:39:50Z</time></trkpt><trkpt lat="43.45055536051261" lon="11.502596135543564"><ele>770.0</ele><time>2026-04-04T08:39:51Z</time></trkpt><trkpt lat="43.45046994975555" lon="11.502545166083019"><ele>770.0</ele><time>2026-04-04T08:39:53Z</time></trkpt><trkpt lat="43.450569320890956" lon="11.50246711845868"><ele>770.0</ele><time>2026-04-04T08:39:56Z</time></trkpt><trkpt lat="43.4506347113857" lon="11.502384873141871"><ele>770.0</ele><time>2026-04-04T08:39:57Z</time></trkpt><trkpt lat="43.45072294353315" lon="11.502330048140543"><ele>770.0</ele><time>2026-04-04T08:39:58Z</time></trkpt><trkpt lat="43.45080539718782" lon="11.502265874541104"><ele>770.0</ele><time>2026-04-04T08:39:59Z</time></trkpt><trkpt lat="43.450884381183826" lon="11.50217155848488"><ele>772.0</ele><time>2026-04-04T08:40:00Z</time></trkpt><trkpt lat="43.45098106299885" lon="11.502061900783701"><ele>774.0</ele><time>2026-04-04T08:40:01Z</time></trkpt><trkpt lat="43.45108389430928" lon="11.501949647389885"><ele>776.0</ele><time>2026-04-04T08:40:02Z</time></trkpt><trkpt lat="43.45118311263023" lon="11.501847385934894"><ele>778.0</ele><time>2026-04-04T08:40:03Z</time></trkpt><trkpt lat="43.45128604167996" lon="11.501753400588253"><ele>779.25</ele><time>2026-04-04T08:40:04Z</time></trkpt><trkpt lat="43.45139693475627" lon="11.501673059190923"><ele>780.5</ele><time>2026-04-04T08:40:05Z</time></trkpt><trkpt lat="43.45151964408746" lon="11.50167348569709"><ele>781.75</ele><time>2026-04-04T08:40:06Z</time></trkpt><trkpt lat="43.45162948546023" lon="11.501630704326727"><ele>783.0</ele><time>2026-04-04T08:40:07Z</time></trkpt><trkpt lat="43.45173641345205" lon="11.501580662426159"><ele>783.0</ele><time>2026-04-04T08:40:08Z</time></trkpt><trkpt lat="43.45183754747317" lon="11.501510284541727"><ele>783.0</ele><time>2026-04-04T08:40:09Z</time></trkpt><trkpt lat="43.45192583068043" lon="11.50140607546294"><ele>783.0</ele><time>2026-04-04T08:40:10Z</time></trkpt><trkpt lat="43.452007988334614" lon="11.501289595004362"><ele>783.0</ele><time>2026-04-04T08:40:11Z</time></trkpt><trkpt lat="43.452095715210895" lon="11.501181082323793"><ele>786.25</ele><time>2026-04-04T08:40:12Z</time></trkpt><trkpt lat="43.45219632387654" lon="11.501097780199318"><ele>789.5</ele><time>2026-04-04T08:40:13Z</time></trkpt><trkpt lat="43.45230423641266" lon="11.501054847851742"><ele>792.75</ele><time>2026-04-04T08:40:14Z</time></trkpt><trkpt lat="43.45241860618573" lon="11.501048367169686"><ele>796.0</ele><time>2026-04-04T08:40:15Z</time></trkpt><trkpt lat="43.45253613222194" lon="11.501050507984012"><ele>796.0</ele><time>2026-04-04T08:40:16Z</time></trkpt><trkpt lat="43.45266166111916" lon="11.501046096275623"><ele>796.0</ele><time>2026-04-04T08:40:17Z</time></trkpt><trkpt lat="43.452786052053334" lon="11.501065050356933"><ele>796.0</ele><time>2026-04-04T08:40:18Z</time></trkpt><trkpt lat="43.45289998281138" lon="11.501121267233637"><ele>796.0</ele><time>2026-04-04T08:40:19Z</time></trkpt><trkpt lat="43.45301239061677" lon="11.501204331410351"><ele>794.5</ele><time>2026-04-04T08:40:20Z</time></trkpt><trkpt lat="43.45312858193261" lon="11.50126862623014"><ele>793.0</ele><time>2026-04-04T08:40:21Z</time></trkpt><trkpt lat="43.453252652904844" lon="11.501331729413938"><ele>791.5</ele><time>2026-04-04T08:40:22Z</time></trkpt><trkpt lat="43.45336499416109" lon="11.501395634320005"><ele>790.0</ele><time>2026-04-04T08:40:23Z</time></trkpt><trkpt lat="43.45345675930606" lon="11.501423121028282"><ele>790.0</ele><time>2026-04-04T08:40:24Z</time></trkpt><trkpt lat="43.45354801811198" lon="11.501400178429446"><ele>790.0</ele><time>2026-04-04T08:40:25Z</time></trkpt><trkpt lat="43.45363183676178" lon="11.501340417594768"><ele>790.0</ele><time>2026-04-04T08:40:26Z</time></trkpt><trkpt lat="43.453724199212566" lon="11.501243236168483"><ele>790.0</ele><time>2026-04-04T08:40:27Z</time></trkpt><trkpt lat="43.45383348549578" lon="11.501176009411616"><ele>790.0</ele><time>2026-04-04T08:40:28Z</time></trkpt><trkpt lat="43.45393748465179" lon="11.501083642627815"><ele>790.5</ele><time>2026-04-04T08:40:29Z</time></trkpt><trkpt lat="43.45406211620608" lon="11.50104298299506"><ele>791.0</ele><time>2026-04-04T08:40:30Z</time></trkpt><trkpt lat="43.454179717080585" lon="11.50100248198198"><ele>791.5</ele><time>2026-04-04T08:40:31Z</time></trkpt><trkpt lat="43.4542934540492" lon="11.500942566569606"><ele>792.0</ele><time>2026-04-04T08:40:32Z</time></trkpt><trkpt lat="43.45441474709283" lon="11.50090994172281"><ele>792.0</ele><time>2026-04-04T08:40:33Z</time></trkpt><trkpt lat="43.45454261952844" lon="11.500861478258457"><ele>792.0</ele><time>2026-04-04T08:40:34Z</time></trkpt><trkpt lat="43.454654279098044" lon="11.50080290814606"><ele>792.0</ele><time>2026-04-04T08:40:35Z</time></trkpt><trkpt lat="43.45477297980975" lon="11.500779858800982"><ele>792.0</ele><time>2026-04-04T08:40:36Z</time></trkpt><trkpt lat="43.45487633609765" lon="11.500757025005399"><ele>792.0</ele><time>2026-04-04T08:40:37Z</time></trkpt><trkpt lat="43.4549753702361" lon="11.500766826372415"><ele>792.0</ele><time>2026-04-04T08:40:38Z</time></trkpt><trkpt lat="43.45506827063344" lon="11.500802057089606"><ele>792.0</ele><time>2026-04-04T08:40:39Z</time></trkpt><trkpt lat="43.45516182324247" lon="11.500867319461733"><ele>792.0</ele><time>2026-04-04T08:40:40Z</time></trkpt><trkpt lat="43.4552739282432" lon="11.500910534664778"><ele>792.0</ele><time>2026-04-04T08:40:41.001Z</time></trkpt><trkpt lat="43.45540936152886" lon="11.50087788658358"><ele>792.25</ele><time>2026-04-04T08:40:42.001Z</time></trkpt><trkpt lat="43.45552317747661" lon="11.500809088474293"><ele>792.5</ele><time>2026-04-04T08:40:43.001Z</time></trkpt><trkpt lat="43.455637601059834" lon="11.500772008646381"><ele>792.75</ele><time>2026-04-04T08:40:44.001Z</time></trkpt><trkpt lat="43.455745467267135" lon="11.500729007823937"><ele>793.0</ele><time>2026-04-04T08:40:45.001Z</time></trkpt><trkpt lat="43.455859775506056" lon="11.500700937626574"><ele>793.0</ele><time>2026-04-04T08:40:46.001Z</time></trkpt><trkpt lat="43.45595710706518" lon="11.500702292084387"><ele>793.0</ele><time>2026-04-04T08:40:47.001Z</time></trkpt><trkpt lat="43.456071975811675" lon="11.500713051431466"><ele>793.0</ele><time>2026-04-04T08:40:48.001Z</time></trkpt><trkpt lat="43.45618648002086" lon="11.500674257010356"><ele>793.0</ele><time>2026-04-04T08:40:49.001Z</time></trkpt><trkpt lat="43.45628777349552" lon="11.500580230697025"><ele>795.0</ele><time>2026-04-04T08:40:50.001Z</time></trkpt><trkpt lat="43.45636556142175" lon="11.500471119730902"><ele>797.0</ele><time>2026-04-04T08:40:51Z</time></trkpt><trkpt lat="43.45646073672733" lon="11.500403743921607"><ele>799.0</ele><time>2026-04-04T08:40:52Z</time></trkpt><trkpt lat="43.456566976534795" lon="11.500355908414845"><ele>801.0</ele><time>2026-04-04T08:40:53Z</time></trkpt><trkpt lat="43.456676912457176" lon="11.50028531385418"><ele>796.0</ele><time>2026-04-04T08:40:54Z</time></trkpt><trkpt lat="43.4568091089477" lon="11.50025341651173"><ele>791.0</ele><time>2026-04-04T08:40:55Z</time></trkpt><trkpt lat="43.45694225860919" lon="11.500187567501376"><ele>786.0</ele><time>2026-04-04T08:40:56Z</time></trkpt><trkpt lat="43.457045361378086" lon="11.500142030194786"><ele>781.0</ele><time>2026-04-04T08:40:57Z</time></trkpt><trkpt lat="43.45714077244605" lon="11.500118634808072"><ele>781.0</ele><time>2026-04-04T08:40:58Z</time></trkpt><trkpt lat="43.457248889986396" lon="11.50012607640764"><ele>781.0</ele><time>2026-04-04T08:40:59Z</time></trkpt><trkpt lat="43.45735139946607" lon="11.500171970069399"><ele>781.0</ele><time>2026-04-04T08:41:00Z</time></trkpt><trkpt lat="43.45747699329261" lon="11.500216027456903"><ele>781.0</ele><time>2026-04-04T08:41:01Z</time></trkpt><trkpt lat="43.457612632267" lon="11.500296379017854"><ele>781.0</ele><time>2026-04-04T08:41:02Z</time></trkpt><trkpt lat="43.45774550070301" lon="11.500367641571026"><ele>781.0</ele><time>2026-04-04T08:41:03Z</time></trkpt><trkpt lat="43.45787156409941" lon="11.50041888859894"><ele>781.0</ele><time>2026-04-04T08:41:04Z</time></trkpt><trkpt lat="43.45798234974266" lon="11.50045224906657"><ele>781.0</ele><time>2026-04-04T08:41:05Z</time></trkpt><trkpt lat="43.45808524685897" lon="11.500479362992897"><ele>779.8333333333333</ele><time>2026-04-04T08:41:06Z</time></trkpt><trkpt lat="43.45817740297706" lon="11.500502618452776"><ele>778.6666666666666</ele><time>2026-04-04T08:41:07Z</time></trkpt><trkpt lat="43.45825132010313" lon="11.500568141978457"><ele>777.5</ele><time>2026-04-04T08:41:08Z</time></trkpt><trkpt lat="43.45832594466739" lon="11.500623003602481"><ele>776.3333333333333</ele><time>2026-04-04T08:41:09Z</time></trkpt><trkpt lat="43.4583953970365" lon="11.500675801487013"><ele>775.1666666666666</ele><time>2026-04-04T08:41:10Z</time></trkpt><trkpt lat="43.45846389104195" lon="11.500729429203815"><ele>774.0</ele><time>2026-04-04T08:41:11Z</time></trkpt><trkpt lat="43.45853703273386" lon="11.500774950531522"><ele>774.0</ele><time>2026-04-04T08:41:12Z</time></trkpt><trkpt lat="43.45860879561545" lon="11.500844850687482"><ele>774.0</ele><time>2026-04-04T08:41:13Z</time></trkpt><trkpt lat="43.458680024772285" lon="11.500893579623213"><ele>774.0</ele><time>2026-04-04T08:41:14Z</time></trkpt><trkpt lat="43.45874049163886" lon="11.500943456254943"><ele>774.0</ele><time>2026-04-04T08:41:15Z</time></trkpt><trkpt lat="43.458814339282085" lon="11.500973848250695"><ele>774.0</ele><time>2026-04-04T08:41:16Z</time></trkpt><trkpt lat="43.458895988832914" lon="11.501003019085225"><ele>774.0</ele><time>2026-04-04T08:41:17Z</time></trkpt><trkpt lat="43.45896616504305" lon="11.501029042167332"><ele>771.8000000000001</ele><time>2026-04-04T08:41:18Z</time></trkpt><trkpt lat="43.45905576917804" lon="11.501060229431218"><ele>769.6</ele><time>2026-04-04T08:41:19Z</time></trkpt><trkpt lat="43.459164282452754" lon="11.501076479552934"><ele>767.4</ele><time>2026-04-04T08:41:20Z</time></trkpt><trkpt lat="43.45927682082209" lon="11.501062243707494"><ele>765.2</ele><time>2026-04-04T08:41:21Z</time></trkpt><trkpt lat="43.45936506939155" lon="11.50102868521319"><ele>763.0</ele><time>2026-04-04T08:41:22Z</time></trkpt><trkpt lat="43.459447474896876" lon="11.50097473185821"><ele>763.0</ele><time>2026-04-04T08:41:23Z</time></trkpt><trkpt lat="43.45951017613273" lon="11.500908812451774"><ele>763.0</ele><time>2026-04-04T08:41:24Z</time></trkpt><trkpt lat="43.45957433499061" lon="11.500836645352697"><ele>763.0</ele><time>2026-04-04T08:41:25Z</time></trkpt><trkpt lat="43.45963944895672" lon="11.500774176635021"><ele>763.0</ele><time>2026-04-04T08:41:26Z</time></trkpt><trkpt lat="43.45971741046484" lon="11.500750303195037"><ele>763.0</ele><time>2026-04-04T08:41:27Z</time></trkpt><trkpt lat="43.45981053598709" lon="11.500719758997386"><ele>763.0</ele><time>2026-04-04T08:41:28Z</time></trkpt><trkpt lat="43.459900386291345" lon="11.500685938365338"><ele>761.6666666666667</ele><time>2026-04-04T08:41:29Z</time></trkpt><trkpt lat="43.45998751843753" lon="11.500720096235762"><ele>760.3333333333334</ele><time>2026-04-04T08:41:30Z</time></trkpt><trkpt lat="43.46004866072104" lon="11.50074939771124"><ele>759.0</ele><time>2026-04-04T08:41:31Z</time></trkpt><trkpt lat="43.460102270601" lon="11.500806556948193"><ele>757.6666666666666</ele><time>2026-04-04T08:41:32Z</time></trkpt><trkpt lat="43.46016161110616" lon="11.500876862920107"><ele>756.3333333333333</ele><time>2026-04-04T08:41:33Z</time></trkpt><trkpt lat="43.460257154056954" lon="11.500972613923956"><ele>755.0</ele><time>2026-04-04T08:41:34Z</time></trkpt><trkpt lat="43.460326616382936" lon="11.50107177467904"><ele>755.0</ele><time>2026-04-04T08:41:35Z</time></trkpt><trkpt lat="43.46042262967313" lon="11.501179094055331"><ele>755.0</ele><time>2026-04-04T08:41:36Z</time></trkpt><trkpt lat="43.46051538359041" lon="11.501255704730422"><ele>755.0</ele><time>2026-04-04T08:41:38Z</time></trkpt><trkpt lat="43.46058944781327" lon="11.501161745757178"><ele>755.0</ele><time>2026-04-04T08:41:40Z</time></trkpt><trkpt lat="43.46064412848584" lon="11.501019209228428"><ele>755.0</ele><time>2026-04-04T08:41:42Z</time></trkpt><trkpt lat="43.46065260966459" lon="11.500863224527333"><ele>756.0</ele><time>2026-04-04T08:41:43Z</time></trkpt><trkpt lat="43.46071550213576" lon="11.500743256855415"><ele>757.0</ele><time>2026-04-04T08:41:44Z</time></trkpt><trkpt lat="43.46074396608478" lon="11.500661869326906"><ele>758.0</ele><time>2026-04-04T08:41:45Z</time></trkpt><trkpt lat="43.460779327912164" lon="11.500588313212722"><ele>759.0</ele><time>2026-04-04T08:41:46Z</time></trkpt><trkpt lat="43.46083353327479" lon="11.500465606950318"><ele>760.0</ele><time>2026-04-04T08:41:48Z</time></trkpt><trkpt lat="43.46090583534234" lon="11.500358686983063"><ele>761.0</ele><time>2026-04-04T08:41:50Z</time></trkpt><trkpt lat="43.460954236654196" lon="11.500286932191457"><ele>761.0</ele><time>2026-04-04T08:41:51Z</time></trkpt><trkpt lat="43.46101995194789" lon="11.500205203689607"><ele>761.0</ele><time>2026-04-04T08:41:52Z</time></trkpt><trkpt lat="43.46111290999935" lon="11.500137332004153"><ele>761.0</ele><time>2026-04-04T08:41:54Z</time></trkpt><trkpt lat="43.46123237388595" lon="11.500054412847922"><ele>761.0</ele><time>2026-04-04T08:41:56Z</time></trkpt><trkpt lat="43.461312330616934" lon="11.500003816198886"><ele>761.0</ele><time>2026-04-04T08:41:57Z</time></trkpt><trkpt lat="43.461403383589555" lon="11.499948125016568"><ele>763.5999999999999</ele><time>2026-04-04T08:41:58Z</time></trkpt><trkpt lat="43.461499769573024" lon="11.499895187581599"><ele>766.2</ele><time>2026-04-04T08:41:59Z</time></trkpt><trkpt lat="43.461615516299695" lon="11.499848297390317"><ele>768.8</ele><time>2026-04-04T08:42:00Z</time></trkpt><trkpt lat="43.4617214326264" lon="11.499796445131961"><ele>771.4000000000001</ele><time>2026-04-04T08:42:01Z</time></trkpt><trkpt lat="43.4617858582237" lon="11.49973664620623"><ele>774.0</ele><time>2026-04-04T08:42:02Z</time></trkpt><trkpt lat="43.46184446928346" lon="11.499691652717624"><ele>774.0</ele><time>2026-04-04T08:42:03Z</time></trkpt><trkpt lat="43.46187060455301" lon="11.499604566243374"><ele>774.0</ele><time>2026-04-04T08:42:04Z</time></trkpt><trkpt lat="43.46193009358769" lon="11.499513884545646"><ele>774.0</ele><time>2026-04-04T08:42:05Z</time></trkpt><trkpt lat="43.46199644459172" lon="11.49946195299096"><ele>774.0</ele><time>2026-04-04T08:42:06Z</time></trkpt><trkpt lat="43.46206395059994" lon="11.49937695418909"><ele>774.0</ele><time>2026-04-04T08:42:08Z</time></trkpt><trkpt lat="43.46216226774268" lon="11.499401373549068"><ele>774.0</ele><time>2026-04-04T08:42:10Z</time></trkpt><trkpt lat="43.462285308595405" lon="11.499414445329695"><ele>775.2</ele><time>2026-04-04T08:42:12Z</time></trkpt><trkpt lat="43.462384389041475" lon="11.499404048861706"><ele>776.4000000000001</ele><time>2026-04-04T08:42:13Z</time></trkpt><trkpt lat="43.46247024906919" lon="11.499425313887448"><ele>777.6</ele><time>2026-04-04T08:42:14Z</time></trkpt><trkpt lat="43.46255235295327" lon="11.499414569358802"><ele>778.8</ele><time>2026-04-04T08:42:15Z</time></trkpt><trkpt lat="43.46264919311616" lon="11.499428906648149"><ele>780.0</ele><time>2026-04-04T08:42:16Z</time></trkpt><trkpt lat="43.46275180369594" lon="11.499454421304623"><ele>780.0</ele><time>2026-04-04T08:42:17Z</time></trkpt><trkpt lat="43.46284848493671" lon="11.499434152202433"><ele>780.0</ele><time>2026-04-04T08:42:18Z</time></trkpt><trkpt lat="43.4629597020139" lon="11.499409986761794"><ele>780.0</ele><time>2026-04-04T08:42:19Z</time></trkpt><trkpt lat="43.463065304440434" lon="11.499353062419315"><ele>780.0</ele><time>2026-04-04T08:42:20Z</time></trkpt><trkpt lat="43.46317747940852" lon="11.499286230585247"><ele>780.0</ele><time>2026-04-04T08:42:21Z</time></trkpt><trkpt lat="43.463279903287216" lon="11.499212200443196"><ele>780.4</ele><time>2026-04-04T08:42:22Z</time></trkpt><trkpt lat="43.46337701768513" lon="11.499145955954447"><ele>780.8</ele><time>2026-04-04T08:42:23Z</time></trkpt><trkpt lat="43.46346702270015" lon="11.499061220311358"><ele>781.2</ele><time>2026-04-04T08:42:24Z</time></trkpt><trkpt lat="43.46355590115503" lon="11.498978885439008"><ele>781.6</ele><time>2026-04-04T08:42:25Z</time></trkpt><trkpt lat="43.46361385187369" lon="11.498898169751486"><ele>782.0</ele><time>2026-04-04T08:42:26Z</time></trkpt><trkpt lat="43.46366222131797" lon="11.498821779290784"><ele>781.8</ele><time>2026-04-04T08:42:27Z</time></trkpt><trkpt lat="43.46370751615331" lon="11.498733911250572"><ele>781.6</ele><time>2026-04-04T08:42:28Z</time></trkpt><trkpt lat="43.46374954995076" lon="11.498635702011724"><ele>781.4</ele><time>2026-04-04T08:42:29Z</time></trkpt><trkpt lat="43.463826563911624" lon="11.498520984194712"><ele>781.1999999999999</ele><time>2026-04-04T08:42:30Z</time></trkpt><trkpt lat="43.463919127638206" lon="11.498429735629106"><ele>781.0</ele><time>2026-04-04T08:42:31Z</time></trkpt><trkpt lat="43.46401856985664" lon="11.498381983275086"><ele>781.0</ele><time>2026-04-04T08:42:32Z</time></trkpt><trkpt lat="43.46410788647729" lon="11.498365888414435"><ele>781.0</ele><time>2026-04-04T08:42:33Z</time></trkpt><trkpt lat="43.464238328283926" lon="11.498374382494916"><ele>781.0</ele><time>2026-04-04T08:42:34Z</time></trkpt><trkpt lat="43.46432686967893" lon="11.498340577548127"><ele>781.0</ele><time>2026-04-04T08:42:35Z</time></trkpt><trkpt lat="43.464404885410865" lon="11.498310789771146"><ele>781.0</ele><time>2026-04-04T08:42:36Z</time></trkpt><trkpt lat="43.464476962009044" lon="11.498262741264885"><ele>780.9999999999999</ele><time>2026-04-04T08:42:37Z</time></trkpt><trkpt lat="43.46455199057916" lon="11.498261178563611"><ele>781.0</ele><time>2026-04-04T08:42:38Z</time></trkpt><trkpt lat="43.46461700091463" lon="11.498267483562458"><ele>781.0</ele><time>2026-04-04T08:42:39Z</time></trkpt><trkpt lat="43.46471399415214" lon="11.498228846041174"><ele>781.0</ele><time>2026-04-04T08:42:41Z</time></trkpt><trkpt lat="43.46480064554113" lon="11.498160306653157"><ele>780.9999999999999</ele><time>2026-04-04T08:42:43Z</time></trkpt><trkpt lat="43.464834514003016" lon="11.498066190012691"><ele>781.0</ele><time>2026-04-04T08:42:46Z</time></trkpt><trkpt lat="43.46482413384765" lon="11.497977803028418"><ele>781.4999999999999</ele><time>2026-04-04T08:44:38Z</time></trkpt><trkpt lat="43.46479913525317" lon="11.49786683710037"><ele>782.0</ele><time>2026-04-04T08:44:41Z</time></trkpt><trkpt lat="43.464752927554265" lon="11.49775372044867"><ele>782.5</ele><time>2026-04-04T08:44:43Z</time></trkpt><trkpt lat="43.46471472553263" lon="11.497603100731503"><ele>783.0</ele><time>2026-04-04T08:44:45Z</time></trkpt><trkpt lat="43.46467719229093" lon="11.497528818023342"><ele>783.4999999999999</ele><time>2026-04-04T08:44:46Z</time></trkpt><trkpt lat="43.46463079525794" lon="11.4974474212891"><ele>784.0</ele><time>2026-04-04T08:44:47Z</time></trkpt><trkpt lat="43.464604743985326" lon="11.497368202519512"><ele>784.4999999999999</ele><time>2026-04-04T08:44:48Z</time></trkpt><trkpt lat="43.46457973437009" lon="11.497263221591853"><ele>785.0</ele><time>2026-04-04T08:44:49Z</time></trkpt><trkpt lat="43.46456527835516" lon="11.49715356558154"><ele>785.5</ele><time>2026-04-04T08:44:50Z</time></trkpt><trkpt lat="43.464556273872596" lon="11.497059630278711"><ele>786.0</ele><time>2026-04-04T08:44:51Z</time></trkpt><trkpt lat="43.46453095626678" lon="11.496945807674408"><ele>786.4999999999999</ele><time>2026-04-04T08:44:52Z</time></trkpt><trkpt lat="43.46450906287425" lon="11.496841527853636"><ele>787.0</ele><time>2026-04-04T08:44:53Z</time></trkpt><trkpt lat="43.46451432782413" lon="11.496711125005643"><ele>783.4000000000001</ele><time>2026-04-04T08:44:54Z</time></trkpt><trkpt lat="43.464499169647546" lon="11.496564903582486"><ele>779.8000000000001</ele><time>2026-04-04T08:44:55Z</time></trkpt><trkpt lat="43.46447523581737" lon="11.49643011289682"><ele>776.2</ele><time>2026-04-04T08:44:56Z</time></trkpt><trkpt lat="43.46444783114799" lon="11.496316654717669"><ele>772.6</ele><time>2026-04-04T08:44:57Z</time></trkpt><trkpt lat="43.46442262928295" lon="11.496189867904649"><ele>769.0</ele><time>2026-04-04T08:44:58Z</time></trkpt><trkpt lat="43.46441155123906" lon="11.496061978094444"><ele>767.4999999999999</ele><time>2026-04-04T08:44:59Z</time></trkpt><trkpt lat="43.464397586678864" lon="11.495918475575818"><ele>766.0</ele><time>2026-04-04T08:45:00Z</time></trkpt><trkpt lat="43.464377434821266" lon="11.495798080516227"><ele>764.5</ele><time>2026-04-04T08:45:01Z</time></trkpt><trkpt lat="43.464362977062756" lon="11.495706715189632"><ele>763.0</ele><time>2026-04-04T08:45:02Z</time></trkpt><trkpt lat="43.46435340811646" lon="11.495566526056448"><ele>761.5</ele><time>2026-04-04T08:45:04Z</time></trkpt><trkpt lat="43.464321939283074" lon="11.495484510631194"><ele>760.0</ele><time>2026-04-04T08:45:05Z</time></trkpt><trkpt lat="43.46429808726088" lon="11.495375458355497"><ele>760.0</ele><time>2026-04-04T08:45:06Z</time></trkpt><trkpt lat="43.4642897899624" lon="11.495270930389259"><ele>760.0</ele><time>2026-04-04T08:45:07Z</time></trkpt><trkpt lat="43.46428435348393" lon="11.495176552014842"><ele>760.0</ele><time>2026-04-04T08:45:08Z</time></trkpt><trkpt lat="43.46423279291152" lon="11.495019956524676"><ele>760.0</ele><time>2026-04-04T08:45:10Z</time></trkpt><trkpt lat="43.46419600003307" lon="11.49490291942445"><ele>760.0</ele><time>2026-04-04T08:45:11Z</time></trkpt><trkpt lat="43.464171614546785" lon="11.494752398047337"><ele>760.0</ele><time>2026-04-04T08:45:12Z</time></trkpt><trkpt lat="43.46417159774657" lon="11.494600202589623"><ele>760.0</ele><time>2026-04-04T08:45:13Z</time></trkpt><trkpt lat="43.46417693443836" lon="11.494485698251395"><ele>760.0</ele><time>2026-04-04T08:45:14Z</time></trkpt><trkpt lat="43.464175115571216" lon="11.494359656934071"><ele>760.0</ele><time>2026-04-04T08:45:15Z</time></trkpt><trkpt lat="43.464172868997345" lon="11.494222140291203"><ele>760.0</ele><time>2026-04-04T08:45:16Z</time></trkpt><trkpt lat="43.46416517736908" lon="11.494067899837287"><ele>760.8</ele><time>2026-04-04T08:45:17Z</time></trkpt><trkpt lat="43.46417697081826" lon="11.49394377103793"><ele>761.6</ele><time>2026-04-04T08:45:18Z</time></trkpt><trkpt lat="43.46420339865165" lon="11.493829032696627"><ele>762.4000000000001</ele><time>2026-04-04T08:45:19Z</time></trkpt><trkpt lat="43.46424089120549" lon="11.493695659977611"><ele>763.2</ele><time>2026-04-04T08:45:20Z</time></trkpt><trkpt lat="43.464266213900295" lon="11.493568354905408"><ele>764.0</ele><time>2026-04-04T08:45:22Z</time></trkpt><trkpt lat="43.46427802931615" lon="11.493398732370169"><ele>764.1666666666666</ele><time>2026-04-04T08:45:24Z</time></trkpt><trkpt lat="43.46427013344509" lon="11.49326833167263"><ele>764.3333333333333</ele><time>2026-04-04T08:45:25Z</time></trkpt><trkpt lat="43.464257697357596" lon="11.493148107895047"><ele>764.5</ele><time>2026-04-04T08:45:26Z</time></trkpt><trkpt lat="43.46425062005009" lon="11.493040989653117"><ele>764.6666666666666</ele><time>2026-04-04T08:45:27Z</time></trkpt><trkpt lat="43.46422673357262" lon="11.492931314325755"><ele>764.8333333333334</ele><time>2026-04-04T08:45:28Z</time></trkpt><trkpt lat="43.464176913978974" lon="11.492822647893714"><ele>765.0</ele><time>2026-04-04T08:45:29Z</time></trkpt><trkpt lat="43.46410938135882" lon="11.492714616570652"><ele>764.3333333333334</ele><time>2026-04-04T08:45:30Z</time></trkpt><trkpt lat="43.46404984970932" lon="11.49263104003807"><ele>763.6666666666666</ele><time>2026-04-04T08:45:31Z</time></trkpt><trkpt lat="43.46402604623407" lon="11.492537157200868"><ele>763.0</ele><time>2026-04-04T08:45:32Z</time></trkpt><trkpt lat="43.46405622299161" lon="11.492442948801433"><ele>762.3333333333333</ele><time>2026-04-04T08:45:33Z</time></trkpt><trkpt lat="43.46412171739863" lon="11.49238569302806"><ele>761.6666666666666</ele><time>2026-04-04T08:45:34Z</time></trkpt><trkpt lat="43.46420041390733" lon="11.492370245257163"><ele>761.0</ele><time>2026-04-04T08:45:35Z</time></trkpt><trkpt lat="43.46430662095892" lon="11.49234189558405"><ele>761.0</ele><time>2026-04-04T08:45:36Z</time></trkpt><trkpt lat="43.46443717223986" lon="11.492374565264232"><ele>761.0</ele><time>2026-04-04T08:45:37Z</time></trkpt><trkpt lat="43.46454648951091" lon="11.492404522877981"><ele>761.0</ele><time>2026-04-04T08:45:38Z</time></trkpt><trkpt lat="43.464617972480255" lon="11.49238629280639"><ele>761.0</ele><time>2026-04-04T08:45:39Z</time></trkpt><trkpt lat="43.46467590652006" lon="11.492330234214794"><ele>761.0</ele><time>2026-04-04T08:45:40Z</time></trkpt><trkpt lat="43.464715364047564" lon="11.492239365912877"><ele>761.8</ele><time>2026-04-04T08:45:41Z</time></trkpt><trkpt lat="43.46472015323877" lon="11.49210079574603"><ele>762.5999999999999</ele><time>2026-04-04T08:45:42Z</time></trkpt><trkpt lat="43.464712410072146" lon="11.491957059967913"><ele>763.4</ele><time>2026-04-04T08:45:43Z</time></trkpt><trkpt lat="43.46470127615322" lon="11.491831153790868"><ele>764.2</ele><time>2026-04-04T08:45:44Z</time></trkpt><trkpt lat="43.46472117579871" lon="11.49169203737759"><ele>765.0</ele><time>2026-04-04T08:45:45Z</time></trkpt><trkpt lat="43.46478376010864" lon="11.491501374178474"><ele>765.0</ele><time>2026-04-04T08:45:46Z</time></trkpt><trkpt lat="43.46480758210296" lon="11.491318171839046"><ele>765.0</ele><time>2026-04-04T08:45:47Z</time></trkpt><trkpt lat="43.46483254435037" lon="11.49118320207207"><ele>765.0</ele><time>2026-04-04T08:45:48Z</time></trkpt><trkpt lat="43.46490349548606" lon="11.491080291232695"><ele>765.0</ele><time>2026-04-04T08:45:49Z</time></trkpt><trkpt lat="43.46496900018671" lon="11.490981506387108"><ele>765.0</ele><time>2026-04-04T08:45:50Z</time></trkpt><trkpt lat="43.46504931661324" lon="11.490884147368401"><ele>764.0</ele><time>2026-04-04T08:45:51Z</time></trkpt><trkpt lat="43.46513036014052" lon="11.490777418201468"><ele>763.0</ele><time>2026-04-04T08:45:52Z</time></trkpt><trkpt lat="43.465194635694665" lon="11.490662653509183"><ele>762.0</ele><time>2026-04-04T08:45:53Z</time></trkpt><trkpt lat="43.46526414069981" lon="11.490589093321548"><ele>761.0</ele><time>2026-04-04T08:45:54Z</time></trkpt><trkpt lat="43.4653358178958" lon="11.490508000249902"><ele>760.0</ele><time>2026-04-04T08:45:55Z</time></trkpt><trkpt lat="43.46540346565184" lon="11.490412482809413"><ele>759.8</ele><time>2026-04-04T08:45:56Z</time></trkpt><trkpt lat="43.46544370761023" lon="11.490325961388626"><ele>759.6</ele><time>2026-04-04T08:45:57Z</time></trkpt><trkpt lat="43.465470566231794" lon="11.490166559228728"><ele>759.4000000000001</ele><time>2026-04-04T08:45:59Z</time></trkpt><trkpt lat="43.46548313892929" lon="11.48996162069384"><ele>759.2</ele><time>2026-04-04T08:46:01Z</time></trkpt><trkpt lat="43.46549881222058" lon="11.489840263101813"><ele>759.0</ele><time>2026-04-04T08:46:02Z</time></trkpt><trkpt lat="43.465506993668164" lon="11.489752726825765"><ele>755.8000000000001</ele><time>2026-04-04T08:46:03Z</time></trkpt><trkpt lat="43.46550140906119" lon="11.489561786329393"><ele>752.6</ele><time>2026-04-04T08:46:05Z</time></trkpt><trkpt lat="43.465522673589696" lon="11.489438943847839"><ele>749.4</ele><time>2026-04-04T08:46:06Z</time></trkpt><trkpt lat="43.465528756554555" lon="11.48933476255782"><ele>746.2</ele><time>2026-04-04T08:46:07Z</time></trkpt><trkpt lat="43.46547468801252" lon="11.489281725505574"><ele>743.0</ele><time>2026-04-04T08:46:08Z</time></trkpt><trkpt lat="43.46539108360149" lon="11.489164267929782"><ele>743.0</ele><time>2026-04-04T08:46:10Z</time></trkpt><trkpt lat="43.465353492379556" lon="11.489077047080299"><ele>743.0</ele><time>2026-04-04T08:46:11Z</time></trkpt><trkpt lat="43.46525243625377" lon="11.488962494312172"><ele>743.0</ele><time>2026-04-04T08:46:13Z</time></trkpt><trkpt lat="43.46515584455384" lon="11.488856286441019"><ele>743.0</ele><time>2026-04-04T08:46:15Z</time></trkpt><trkpt lat="43.46509641376868" lon="11.488785868299745"><ele>743.0</ele><time>2026-04-04T08:46:16Z</time></trkpt><trkpt lat="43.46505091910646" lon="11.488721127231571"><ele>740.0</ele><time>2026-04-04T08:46:17Z</time></trkpt><trkpt lat="43.46492087151052" lon="11.488655979897928"><ele>737.0</ele><time>2026-04-04T08:46:19Z</time></trkpt><trkpt lat="43.464841243255854" lon="11.488600915941104"><ele>734.0</ele><time>2026-04-04T08:46:20Z</time></trkpt><trkpt lat="43.4648004995451" lon="11.488533391962651"><ele>731.0</ele><time>2026-04-04T08:46:21Z</time></trkpt><trkpt lat="43.464793085170705" lon="11.488337700349874"><ele>728.0</ele><time>2026-04-04T08:46:23Z</time></trkpt><trkpt lat="43.46479485135446" lon="11.488193699204665"><ele>728.0</ele><time>2026-04-04T08:46:24Z</time></trkpt><trkpt lat="43.46478053177969" lon="11.488036046214932"><ele>728.0</ele><time>2026-04-04T08:46:25Z</time></trkpt><trkpt lat="43.464730592706275" lon="11.487880015451932"><ele>728.0</ele><time>2026-04-04T08:46:26Z</time></trkpt><trkpt lat="43.464680163050176" lon="11.487755400980927"><ele>728.0</ele><time>2026-04-04T08:46:27Z</time></trkpt><trkpt lat="43.46463871757897" lon="11.487665546930819"><ele>728.0</ele><time>2026-04-04T08:46:28Z</time></trkpt><trkpt lat="43.464545411901945" lon="11.487598730498942"><ele>728.0</ele><time>2026-04-04T08:46:30Z</time></trkpt><trkpt lat="43.464470656192354" lon="11.48759611113944"><ele>728.0</ele><time>2026-04-04T08:46:31Z</time></trkpt><trkpt lat="43.46436215553107" lon="11.48759340496278"><ele>728.0</ele><time>2026-04-04T08:46:32Z</time></trkpt><trkpt lat="43.4642469443303" lon="11.487586710357537"><ele>728.0</ele><time>2026-04-04T08:46:33Z</time></trkpt><trkpt lat="43.464153506841726" lon="11.487563174939789"><ele>728.0</ele><time>2026-04-04T08:46:34Z</time></trkpt><trkpt lat="43.46407644663663" lon="11.48753811554503"><ele>728.0</ele><time>2026-04-04T08:46:35Z</time></trkpt><trkpt lat="43.46399590308215" lon="11.487488155658387"><ele>728.0</ele><time>2026-04-04T08:46:36Z</time></trkpt><trkpt lat="43.463921975527384" lon="11.487446331426172"><ele>728.0</ele><time>2026-04-04T08:46:37Z</time></trkpt><trkpt lat="43.46383449160364" lon="11.487438544672116"><ele>728.0</ele><time>2026-04-04T08:46:38Z</time></trkpt><trkpt lat="43.463753136122165" lon="11.487456522118999"><ele>728.0</ele><time>2026-04-04T08:46:39Z</time></trkpt><trkpt lat="43.4636716453576" lon="11.487409050100785"><ele>728.0</ele><time>2026-04-04T08:46:41Z</time></trkpt><trkpt lat="43.463605995732934" lon="11.487387505826357"><ele>727.2857142857143</ele><time>2026-04-04T08:46:42Z</time></trkpt><trkpt lat="43.463531458252355" lon="11.487381493714498"><ele>726.5714285714286</ele><time>2026-04-04T08:46:43Z</time></trkpt><trkpt lat="43.46345886930651" lon="11.487360374915745"><ele>725.8571428571429</ele><time>2026-04-04T08:46:44Z</time></trkpt><trkpt lat="43.46340155425654" lon="11.487315703751563"><ele>725.1428571428571</ele><time>2026-04-04T08:46:45Z</time></trkpt><trkpt lat="43.46334637177663" lon="11.4872672080551"><ele>724.4285714285714</ele><time>2026-04-04T08:46:46Z</time></trkpt><trkpt lat="43.463274784064986" lon="11.487203623255205"><ele>723.7142857142858</ele><time>2026-04-04T08:46:47Z</time></trkpt><trkpt lat="43.46321200350812" lon="11.487139113757014"><ele>723.0</ele><time>2026-04-04T08:46:48Z</time></trkpt><trkpt lat="43.463099583921576" lon="11.48701767439852"><ele>723.0</ele><time>2026-04-04T08:46:50Z</time></trkpt><trkpt lat="43.46304048930438" lon="11.486950453323995"><ele>723.0</ele><time>2026-04-04T08:46:51Z</time></trkpt><trkpt lat="43.46298108408695" lon="11.486885726873044"><ele>723.0</ele><time>2026-04-04T08:46:52Z</time></trkpt><trkpt lat="43.46291463766967" lon="11.486832377727698"><ele>723.0</ele><time>2026-04-04T08:46:53Z</time></trkpt><trkpt lat="43.46283070941921" lon="11.486783973922831"><ele>723.0</ele><time>2026-04-04T08:46:54Z</time></trkpt><trkpt lat="43.462765806210726" lon="11.486749081841486"><ele>723.0</ele><time>2026-04-04T08:46:55Z</time></trkpt><trkpt lat="43.46270147606944" lon="11.486693654521678"><ele>720.2</ele><time>2026-04-04T08:46:56Z</time></trkpt><trkpt lat="43.46265856383365" lon="11.486611945873667"><ele>717.4</ele><time>2026-04-04T08:46:57Z</time></trkpt><trkpt lat="43.462666697969574" lon="11.486491819561486"><ele>714.6</ele><time>2026-04-04T08:46:58Z</time></trkpt><trkpt lat="43.46270162343994" lon="11.48633367507708"><ele>711.8000000000001</ele><time>2026-04-04T08:46:59Z</time></trkpt><trkpt lat="43.46274120941866" lon="11.486173782415088"><ele>709.0</ele><time>2026-04-04T08:47:00Z</time></trkpt><trkpt lat="43.462766159628664" lon="11.486053538927731"><ele>710.0</ele><time>2026-04-04T08:47:01Z</time></trkpt><trkpt lat="43.462795257519105" lon="11.485937535077886"><ele>711.0</ele><time>2026-04-04T08:47:02Z</time></trkpt><trkpt lat="43.46281500541158" lon="11.485851509891969"><ele>712.0</ele><time>2026-04-04T08:47:03Z</time></trkpt><trkpt lat="43.46285725634321" lon="11.485777436717864"><ele>713.0</ele><time>2026-04-04T08:47:04Z</time></trkpt><trkpt lat="43.46294563966174" lon="11.485697929438468"><ele>714.0</ele><time>2026-04-04T08:47:05Z</time></trkpt><trkpt lat="43.46306922614495" lon="11.485589465891115"><ele>714.0</ele><time>2026-04-04T08:47:06Z</time></trkpt><trkpt lat="43.463198427734035" lon="11.485474204950277"><ele>714.0</ele><time>2026-04-04T08:47:07Z</time></trkpt><trkpt lat="43.46331702071913" lon="11.485370665504783"><ele>714.0</ele><time>2026-04-04T08:47:08Z</time></trkpt><trkpt lat="43.46342394656299" lon="11.48531834359636"><ele>714.0</ele><time>2026-04-04T08:47:09Z</time></trkpt><trkpt lat="43.463497447654525" lon="11.485240236150364"><ele>710.8000000000001</ele><time>2026-04-04T08:47:10Z</time></trkpt><trkpt lat="43.46355386275484" lon="11.485120903671534"><ele>707.6</ele><time>2026-04-04T08:47:11Z</time></trkpt><trkpt lat="43.463606453529586" lon="11.485011087774753"><ele>704.4</ele><time>2026-04-04T08:47:12Z</time></trkpt><trkpt lat="43.463605235786105" lon="11.484879302494182"><ele>701.2</ele><time>2026-04-04T08:47:13Z</time></trkpt><trkpt lat="43.46360006041889" lon="11.484746076040086"><ele>698.0</ele><time>2026-04-04T08:47:14Z</time></trkpt><trkpt lat="43.46358343858224" lon="11.484610485491503"><ele>697.5999999999999</ele><time>2026-04-04T08:47:15Z</time></trkpt><trkpt lat="43.463522391392296" lon="11.484471531589058"><ele>697.1999999999999</ele><time>2026-04-04T08:47:16Z</time></trkpt><trkpt lat="43.46349249166593" lon="11.48433076223003"><ele>696.8</ele><time>2026-04-04T08:47:17Z</time></trkpt><trkpt lat="43.46350974956902" lon="11.484182592178655"><ele>696.4</ele><time>2026-04-04T08:47:18Z</time></trkpt><trkpt lat="43.46352901334838" lon="11.484026001952543"><ele>696.0</ele><time>2026-04-04T08:47:19Z</time></trkpt><trkpt lat="43.46354667565513" lon="11.483867309591332"><ele>695.8</ele><time>2026-04-04T08:47:20Z</time></trkpt><trkpt lat="43.46356596112189" lon="11.483711153367214"><ele>695.5999999999999</ele><time>2026-04-04T08:47:21Z</time></trkpt><trkpt lat="43.46357793096075" lon="11.483578989967622"><ele>695.4</ele><time>2026-04-04T08:47:22Z</time></trkpt><trkpt lat="43.46357627716365" lon="11.483454246268739"><ele>695.2</ele><time>2026-04-04T08:47:23Z</time></trkpt><trkpt lat="43.46352282290175" lon="11.483327303031357"><ele>695.0</ele><time>2026-04-04T08:47:24Z</time></trkpt><trkpt lat="43.46348192765411" lon="11.483198765427096"><ele>695.0</ele><time>2026-04-04T08:47:25Z</time></trkpt><trkpt lat="43.46345576255333" lon="11.483082187887327"><ele>695.0</ele><time>2026-04-04T08:47:26Z</time></trkpt><trkpt lat="43.46342632742805" lon="11.482976304378544"><ele>695.0</ele><time>2026-04-04T08:47:27Z</time></trkpt><trkpt lat="43.46341544638958" lon="11.482857059658874"><ele>695.0</ele><time>2026-04-04T08:47:28Z</time></trkpt><trkpt lat="43.46341591364104" lon="11.482747294379019"><ele>695.0</ele><time>2026-04-04T08:47:29Z</time></trkpt><trkpt lat="43.463444363416365" lon="11.482634011333637"><ele>695.0</ele><time>2026-04-04T08:47:30Z</time></trkpt><trkpt lat="43.46347389798369" lon="11.482526661712525"><ele>692.75</ele><time>2026-04-04T08:47:31Z</time></trkpt><trkpt lat="43.46351249135708" lon="11.482401806577032"><ele>690.5</ele><time>2026-04-04T08:47:32Z</time></trkpt><trkpt lat="43.4635897735629" lon="11.48225204836482"><ele>688.25</ele><time>2026-04-04T08:47:33Z</time></trkpt><trkpt lat="43.46365751284381" lon="11.482133340583703"><ele>686.0</ele><time>2026-04-04T08:47:34Z</time></trkpt><trkpt lat="43.46371152513379" lon="11.481995407944801"><ele>684.0</ele><time>2026-04-04T08:47:35Z</time></trkpt><trkpt lat="43.46375847346401" lon="11.481836479839457"><ele>682.0</ele><time>2026-04-04T08:47:36Z</time></trkpt><trkpt lat="43.463772152677464" lon="11.48168615000124"><ele>680.0</ele><time>2026-04-04T08:47:37Z</time></trkpt><trkpt lat="43.46374211239002" lon="11.481546066509235"><ele>678.0</ele><time>2026-04-04T08:47:38Z</time></trkpt><trkpt lat="43.463696342027056" lon="11.481404302644979"><ele>678.0</ele><time>2026-04-04T08:47:39Z</time></trkpt><trkpt lat="43.46362145656245" lon="11.481267110830126"><ele>678.0</ele><time>2026-04-04T08:47:40Z</time></trkpt><trkpt lat="43.46353019036308" lon="11.481164500683203"><ele>678.0</ele><time>2026-04-04T08:47:41Z</time></trkpt><trkpt lat="43.463466213824034" lon="11.481096458700945"><ele>678.0</ele><time>2026-04-04T08:47:42Z</time></trkpt><trkpt lat="43.46334890770184" lon="11.481056620268502"><ele>678.0</ele><time>2026-04-04T08:47:44Z</time></trkpt><trkpt lat="43.46326069270025" lon="11.481106714637301"><ele>678.0</ele><time>2026-04-04T08:47:45Z</time></trkpt><trkpt lat="43.46315254153869" lon="11.48113055879101"><ele>678.0</ele><time>2026-04-04T08:47:46Z</time></trkpt><trkpt lat="43.46304792596037" lon="11.481116710875042"><ele>678.0</ele><time>2026-04-04T08:47:47Z</time></trkpt><trkpt lat="43.462928736858494" lon="11.481109766001607"><ele>678.0</ele><time>2026-04-04T08:47:48Z</time></trkpt><trkpt lat="43.4628168302421" lon="11.481103657407276"><ele>678.0</ele><time>2026-04-04T08:47:49Z</time></trkpt><trkpt lat="43.46271290535473" lon="11.481099664597675"><ele>677.8</ele><time>2026-04-04T08:47:50Z</time></trkpt><trkpt lat="43.46261755039178" lon="11.481107422504124"><ele>677.5999999999999</ele><time>2026-04-04T08:47:51Z</time></trkpt><trkpt lat="43.4625286346328" lon="11.481094552699837"><ele>677.4000000000001</ele><time>2026-04-04T08:47:52Z</time></trkpt><trkpt lat="43.4624340313685" lon="11.481095245214624"><ele>677.2</ele><time>2026-04-04T08:47:53Z</time></trkpt><trkpt lat="43.46233134919254" lon="11.48109236330431"><ele>677.0</ele><time>2026-04-04T08:47:54Z</time></trkpt><trkpt lat="43.46223394561285" lon="11.48110805031384"><ele>677.0</ele><time>2026-04-04T08:47:55Z</time></trkpt><trkpt lat="43.462138264189306" lon="11.481125303471234"><ele>677.0</ele><time>2026-04-04T08:47:56Z</time></trkpt><trkpt lat="43.46204340144225" lon="11.48112994125134"><ele>677.0</ele><time>2026-04-04T08:47:57Z</time></trkpt><trkpt lat="43.46195608565855" lon="11.48110865274368"><ele>677.0</ele><time>2026-04-04T08:47:58Z</time></trkpt><trkpt lat="43.461869511079676" lon="11.48108002701721"><ele>677.0</ele><time>2026-04-04T08:47:59Z</time></trkpt><trkpt lat="43.46178799167595" lon="11.481058199687473"><ele>675.4000000000001</ele><time>2026-04-04T08:48:00Z</time></trkpt><trkpt lat="43.46171042411185" lon="11.48096958102581"><ele>673.8000000000001</ele><time>2026-04-04T08:48:01Z</time></trkpt><trkpt lat="43.46161936371894" lon="11.480906949689874"><ele>672.2</ele><time>2026-04-04T08:48:02Z</time></trkpt><trkpt lat="43.461549932138524" lon="11.480810844879363"><ele>670.6</ele><time>2026-04-04T08:48:03Z</time></trkpt><trkpt lat="43.461482487420994" lon="11.480692033351929"><ele>669.0</ele><time>2026-04-04T08:48:04Z</time></trkpt><trkpt lat="43.46142994545527" lon="11.48056068795637"><ele>667.0</ele><time>2026-04-04T08:48:05Z</time></trkpt><trkpt lat="43.461400231198574" lon="11.480429162471193"><ele>665.0</ele><time>2026-04-04T08:48:06Z</time></trkpt><trkpt lat="43.46136419025616" lon="11.480264623887821"><ele>663.0</ele><time>2026-04-04T08:48:07Z</time></trkpt><trkpt lat="43.461303055161814" lon="11.480075400649955"><ele>661.0</ele><time>2026-04-04T08:48:08Z</time></trkpt><trkpt lat="43.46126525690337" lon="11.479923758452262"><ele>662.1999999999999</ele><time>2026-04-04T08:48:09Z</time></trkpt><trkpt lat="43.46123204815016" lon="11.479783165773316"><ele>663.4</ele><time>2026-04-04T08:48:10Z</time></trkpt><trkpt lat="43.46119536197385" lon="11.479663834773206"><ele>664.6</ele><time>2026-04-04T08:48:11Z</time></trkpt><trkpt lat="43.461150603808804" lon="11.479569222712705"><ele>665.8</ele><time>2026-04-04T08:48:12Z</time></trkpt><trkpt lat="43.461071888536814" lon="11.479495626084452"><ele>667.0</ele><time>2026-04-04T08:48:13Z</time></trkpt><trkpt lat="43.46095061387834" lon="11.479395926796782"><ele>667.0</ele><time>2026-04-04T08:48:14Z</time></trkpt><trkpt lat="43.46084380852339" lon="11.479307380668665"><ele>667.0</ele><time>2026-04-04T08:48:15Z</time></trkpt><trkpt lat="43.46076025200347" lon="11.479205402521531"><ele>667.0</ele><time>2026-04-04T08:48:16Z</time></trkpt><trkpt lat="43.46067938518983" lon="11.479090419146635"><ele>667.0</ele><time>2026-04-04T08:48:17Z</time></trkpt><trkpt lat="43.460618790440606" lon="11.478972181351555"><ele>667.0</ele><time>2026-04-04T08:48:18Z</time></trkpt><trkpt lat="43.460584964315" lon="11.478875839634465"><ele>667.0</ele><time>2026-04-04T08:48:19Z</time></trkpt><trkpt lat="43.4605446315696" lon="11.478785133594599"><ele>667.0</ele><time>2026-04-04T08:48:20Z</time></trkpt><trkpt lat="43.460469071509486" lon="11.478693572329107"><ele>667.0</ele><time>2026-04-04T08:48:21Z</time></trkpt><trkpt lat="43.46038878983576" lon="11.478627158624603"><ele>667.0</ele><time>2026-04-04T08:48:22Z</time></trkpt><trkpt lat="43.460270732294994" lon="11.47854874898406"><ele>667.4000000000001</ele><time>2026-04-04T08:48:23Z</time></trkpt><trkpt lat="43.46018736494936" lon="11.47843481079587"><ele>667.8000000000001</ele><time>2026-04-04T08:48:24Z</time></trkpt><trkpt lat="43.46011398684374" lon="11.47834346967286"><ele>668.2</ele><time>2026-04-04T08:48:25Z</time></trkpt><trkpt lat="43.46002585808618" lon="11.478249148078268"><ele>668.6</ele><time>2026-04-04T08:48:26Z</time></trkpt><trkpt lat="43.45995451129889" lon="11.47814658260542"><ele>669.0</ele><time>2026-04-04T08:48:27Z</time></trkpt><trkpt lat="43.45988395263472" lon="11.478042527437285"><ele>666.4000000000001</ele><time>2026-04-04T08:48:28Z</time></trkpt><trkpt lat="43.45984577575179" lon="11.477917291212211"><ele>663.8</ele><time>2026-04-04T08:48:29Z</time></trkpt><trkpt lat="43.45981282565607" lon="11.477798382596225"><ele>661.2</ele><time>2026-04-04T08:48:30Z</time></trkpt><trkpt lat="43.45979602271959" lon="11.47766373250536"><ele>658.5999999999999</ele><time>2026-04-04T08:48:31Z</time></trkpt><trkpt lat="43.45976737371213" lon="11.47750743798583"><ele>656.0</ele><time>2026-04-04T08:48:32Z</time></trkpt><trkpt lat="43.4597557695329" lon="11.477385230981135"><ele>656.0</ele><time>2026-04-04T08:48:33Z</time></trkpt><trkpt lat="43.45972832841963" lon="11.47728657068702"><ele>656.0</ele><time>2026-04-04T08:48:34Z</time></trkpt><trkpt lat="43.45969070261274" lon="11.477189662414272"><ele>656.0</ele><time>2026-04-04T08:48:35Z</time></trkpt><trkpt lat="43.45966240038055" lon="11.477085298677999"><ele>656.0</ele><time>2026-04-04T08:48:36Z</time></trkpt><trkpt lat="43.45960160079511" lon="11.476953192246256"><ele>656.0</ele><time>2026-04-04T08:48:37Z</time></trkpt><trkpt lat="43.45952728108465" lon="11.476807641343125"><ele>656.75</ele><time>2026-04-04T08:48:38Z</time></trkpt><trkpt lat="43.45943952555814" lon="11.476662033920519"><ele>657.5</ele><time>2026-04-04T08:48:39Z</time></trkpt><trkpt lat="43.459335355598725" lon="11.476569374685846"><ele>658.25</ele><time>2026-04-04T08:48:40Z</time></trkpt><trkpt lat="43.45926413766428" lon="11.47643405240082"><ele>659.0</ele><time>2026-04-04T08:48:41Z</time></trkpt><trkpt lat="43.459194843977265" lon="11.47630450601639"><ele>660.0</ele><time>2026-04-04T08:48:42Z</time></trkpt><trkpt lat="43.45910907937053" lon="11.476135396945848"><ele>661.0</ele><time>2026-04-04T08:48:43Z</time></trkpt><trkpt lat="43.45902650288377" lon="11.475956817534957"><ele>662.0</ele><time>2026-04-04T08:48:44Z</time></trkpt><trkpt lat="43.45895703289821" lon="11.475782346320628"><ele>663.0</ele><time>2026-04-04T08:48:45Z</time></trkpt><trkpt lat="43.45888139887175" lon="11.475616121596584"><ele>663.0</ele><time>2026-04-04T08:48:46Z</time></trkpt><trkpt lat="43.458832768679066" lon="11.475451192385657"><ele>663.0</ele><time>2026-04-04T08:48:47Z</time></trkpt><trkpt lat="43.458791804557926" lon="11.475293330141906"><ele>663.0</ele><time>2026-04-04T08:48:48Z</time></trkpt><trkpt lat="43.45875127806084" lon="11.475137477963331"><ele>663.0</ele><time>2026-04-04T08:48:49Z</time></trkpt><trkpt lat="43.458710031006156" lon="11.47497864306774"><ele>661.25</ele><time>2026-04-04T08:48:50Z</time></trkpt><trkpt lat="43.4586759938693" lon="11.474805647286965"><ele>659.5</ele><time>2026-04-04T08:48:51Z</time></trkpt><trkpt lat="43.458661510864374" lon="11.47461356587736"><ele>657.75</ele><time>2026-04-04T08:48:52Z</time></trkpt><trkpt lat="43.45867011108747" lon="11.47442934593456"><ele>656.0</ele><time>2026-04-04T08:48:53Z</time></trkpt><trkpt lat="43.4587212552054" lon="11.474209128745821"><ele>656.3333333333333</ele><time>2026-04-04T08:48:54Z</time></trkpt><trkpt lat="43.45875814059447" lon="11.473989934951039"><ele>656.6666666666666</ele><time>2026-04-04T08:48:55Z</time></trkpt><trkpt lat="43.45879268596411" lon="11.473791376118161"><ele>657.0</ele><time>2026-04-04T08:48:56Z</time></trkpt><trkpt lat="43.45883321762472" lon="11.473597092817448"><ele>657.0</ele><time>2026-04-04T08:48:57Z</time></trkpt><trkpt lat="43.458861516332114" lon="11.473408123161784"><ele>657.0</ele><time>2026-04-04T08:48:58Z</time></trkpt><trkpt lat="43.45885931038921" lon="11.473225045595187"><ele>657.0</ele><time>2026-04-04T08:48:59Z</time></trkpt><trkpt lat="43.45885422187067" lon="11.47304367329394"><ele>657.0</ele><time>2026-04-04T08:48:59.999Z</time></trkpt><trkpt lat="43.458831348965795" lon="11.4728677086639"><ele>658.0</ele><time>2026-04-04T08:49:00.999Z</time></trkpt><trkpt lat="43.45877844951277" lon="11.472692481115816"><ele>659.0</ele><time>2026-04-04T08:49:01.999Z</time></trkpt><trkpt lat="43.45871989883648" lon="11.472539189430389"><ele>660.0</ele><time>2026-04-04T08:49:02.999Z</time></trkpt><trkpt lat="43.45864286272333" lon="11.472369143092436"><ele>661.0</ele><time>2026-04-04T08:49:04Z</time></trkpt><trkpt lat="43.45855633675192" lon="11.472202989252102"><ele>662.25</ele><time>2026-04-04T08:49:05Z</time></trkpt><trkpt lat="43.45846607284286" lon="11.47205547315827"><ele>663.5</ele><time>2026-04-04T08:49:06Z</time></trkpt><trkpt lat="43.458378943926895" lon="11.471909756734446"><ele>664.75</ele><time>2026-04-04T08:49:07Z</time></trkpt><trkpt lat="43.45829155601739" lon="11.471762965207603"><ele>666.0</ele><time>2026-04-04T08:49:08Z</time></trkpt><trkpt lat="43.45819263419312" lon="11.471598897844302"><ele>666.0</ele><time>2026-04-04T08:49:09Z</time></trkpt><trkpt lat="43.45809482120292" lon="11.471438643809797"><ele>666.0</ele><time>2026-04-04T08:49:10Z</time></trkpt><trkpt lat="43.45800274994776" lon="11.4712901800657"><ele>666.0</ele><time>2026-04-04T08:49:11Z</time></trkpt><trkpt lat="43.45791763806446" lon="11.471153766612067"><ele>666.0</ele><time>2026-04-04T08:49:12Z</time></trkpt><trkpt lat="43.45783278388104" lon="11.471024839177753"><ele>664.0</ele><time>2026-04-04T08:49:13Z</time></trkpt><trkpt lat="43.457748694363886" lon="11.470902789510047"><ele>662.0</ele><time>2026-04-04T08:49:14Z</time></trkpt><trkpt lat="43.45766468142777" lon="11.470792061680948"><ele>660.0</ele><time>2026-04-04T08:49:15Z</time></trkpt><trkpt lat="43.45757537887715" lon="11.470692972926171"><ele>658.0</ele><time>2026-04-04T08:49:16Z</time></trkpt><trkpt lat="43.45747003204236" lon="11.470603926949796"><ele>658.0</ele><time>2026-04-04T08:49:17Z</time></trkpt><trkpt lat="43.45735500046579" lon="11.470554386786503"><ele>658.0</ele><time>2026-04-04T08:49:18Z</time></trkpt><trkpt lat="43.45724275010296" lon="11.470475582828225"><ele>658.0</ele><time>2026-04-04T08:49:19Z</time></trkpt><trkpt lat="43.457110541083125" lon="11.470422725992263"><ele>658.0</ele><time>2026-04-04T08:49:20Z</time></trkpt><trkpt lat="43.4569834723309" lon="11.470383671501466"><ele>658.75</ele><time>2026-04-04T08:49:21Z</time></trkpt><trkpt lat="43.45685059733334" lon="11.470358831586665"><ele>659.5</ele><time>2026-04-04T08:49:22Z</time></trkpt><trkpt lat="43.456729959392355" lon="11.470346139105152"><ele>660.25</ele><time>2026-04-04T08:49:23Z</time></trkpt><trkpt lat="43.45661390668671" lon="11.470345479259727"><ele>661.0</ele><time>2026-04-04T08:49:24Z</time></trkpt><trkpt lat="43.456496012798084" lon="11.470388043050967"><ele>657.75</ele><time>2026-04-04T08:49:25Z</time></trkpt><trkpt lat="43.456395634850104" lon="11.470490372318489"><ele>654.5</ele><time>2026-04-04T08:49:26Z</time></trkpt><trkpt lat="43.4562973848531" lon="11.470605687774185"><ele>651.25</ele><time>2026-04-04T08:49:27Z</time></trkpt><trkpt lat="43.45618108997312" lon="11.470722511992696"><ele>648.0</ele><time>2026-04-04T08:49:28Z</time></trkpt><trkpt lat="43.45610011917296" lon="11.470866242596028"><ele>647.8</ele><time>2026-04-04T08:49:29Z</time></trkpt><trkpt lat="43.45602355296745" lon="11.471007496711337"><ele>647.5999999999999</ele><time>2026-04-04T08:49:30Z</time></trkpt><trkpt lat="43.45593727226548" lon="11.47113200762714"><ele>647.4000000000001</ele><time>2026-04-04T08:49:31Z</time></trkpt><trkpt lat="43.45586318102559" lon="11.471229596603425"><ele>647.2</ele><time>2026-04-04T08:49:32Z</time></trkpt><trkpt lat="43.45578495323263" lon="11.471294847269029"><ele>647.0</ele><time>2026-04-04T08:49:33Z</time></trkpt><trkpt lat="43.45570698113198" lon="11.471211652339521"><ele>647.0</ele><time>2026-04-04T08:49:34Z</time></trkpt><trkpt lat="43.455632166496386" lon="11.47118863515452"><ele>647.0</ele><time>2026-04-04T08:49:35Z</time></trkpt><trkpt lat="43.45552034469478" lon="11.471149881722308"><ele>647.0</ele><time>2026-04-04T08:49:36Z</time></trkpt><trkpt lat="43.45540092350542" lon="11.471092483616413"><ele>647.0</ele><time>2026-04-04T08:49:37Z</time></trkpt><trkpt lat="43.455283138223685" lon="11.471045198823543"><ele>647.0</ele><time>2026-04-04T08:49:38Z</time></trkpt><trkpt lat="43.455171516114156" lon="11.471002842655581"><ele>644.0</ele><time>2026-04-04T08:49:39Z</time></trkpt><trkpt lat="43.45505681677375" lon="11.47095590419674"><ele>641.0</ele><time>2026-04-04T08:49:40Z</time></trkpt><trkpt lat="43.454943458453236" lon="11.470907294435666"><ele>638.0</ele><time>2026-04-04T08:49:41Z</time></trkpt><trkpt lat="43.454823455276134" lon="11.470864718608896"><ele>635.0</ele><time>2026-04-04T08:49:42Z</time></trkpt><trkpt lat="43.454717461541115" lon="11.470827707116102"><ele>635.0</ele><time>2026-04-04T08:49:43Z</time></trkpt><trkpt lat="43.454622525958285" lon="11.47075752240187"><ele>635.0</ele><time>2026-04-04T08:49:44Z</time></trkpt><trkpt lat="43.454551980978074" lon="11.470656810803757"><ele>635.0</ele><time>2026-04-04T08:49:45Z</time></trkpt><trkpt lat="43.45450045738152" lon="11.470554837796357"><ele>635.0</ele><time>2026-04-04T08:49:46Z</time></trkpt><trkpt lat="43.45444976696913" lon="11.470446389132594"><ele>635.0</ele><time>2026-04-04T08:49:47Z</time></trkpt><trkpt lat="43.45439027506078" lon="11.470320592896801"><ele>631.8</ele><time>2026-04-04T08:49:48Z</time></trkpt><trkpt lat="43.4543296852541" lon="11.470197791279388"><ele>628.6</ele><time>2026-04-04T08:49:49Z</time></trkpt><trkpt lat="43.45426682349236" lon="11.4700716936069"><ele>625.4</ele><time>2026-04-04T08:49:50Z</time></trkpt><trkpt lat="43.45421099437733" lon="11.46995589059023"><ele>622.2</ele><time>2026-04-04T08:49:51Z</time></trkpt><trkpt lat="43.45415196775824" lon="11.4698267000378"><ele>619.0</ele><time>2026-04-04T08:49:52Z</time></trkpt><trkpt lat="43.45409857662547" lon="11.469693019114658"><ele>618.4</ele><time>2026-04-04T08:49:53Z</time></trkpt><trkpt lat="43.4540487339815" lon="11.469556289083611"><ele>617.8</ele><time>2026-04-04T08:49:54Z</time></trkpt><trkpt lat="43.45399948142297" lon="11.469421220063115"><ele>617.2</ele><time>2026-04-04T08:49:55Z</time></trkpt><trkpt lat="43.45394528595612" lon="11.469277541323562"><ele>616.6</ele><time>2026-04-04T08:49:56Z</time></trkpt><trkpt lat="43.453894647553945" lon="11.469163805311881"><ele>616.0</ele><time>2026-04-04T08:49:57Z</time></trkpt><trkpt lat="43.45384535067571" lon="11.469058893150764"><ele>616.0</ele><time>2026-04-04T08:49:58Z</time></trkpt><trkpt lat="43.4538044971714" lon="11.46896219491393"><ele>616.0</ele><time>2026-04-04T08:49:59Z</time></trkpt><trkpt lat="43.45377347279548" lon="11.468871553292614"><ele>616.0</ele><time>2026-04-04T08:50:00Z</time></trkpt><trkpt lat="43.45375267774239" lon="11.468753365393892"><ele>616.0</ele><time>2026-04-04T08:50:01Z</time></trkpt><trkpt lat="43.45375318832804" lon="11.468636668438485"><ele>616.0</ele><time>2026-04-04T08:50:02Z</time></trkpt><trkpt lat="43.453798144003386" lon="11.468528326336719"><ele>616.0</ele><time>2026-04-04T08:50:03Z</time></trkpt><trkpt lat="43.453838486684745" lon="11.468423207550181"><ele>614.25</ele><time>2026-04-04T08:50:04Z</time></trkpt><trkpt lat="43.45387857399508" lon="11.46830125674622"><ele>612.5</ele><time>2026-04-04T08:50:05Z</time></trkpt><trkpt lat="43.453955297129596" lon="11.468178195173442"><ele>610.75</ele><time>2026-04-04T08:50:06Z</time></trkpt><trkpt lat="43.454010490395554" lon="11.468026822238706"><ele>609.0</ele><time>2026-04-04T08:50:07Z</time></trkpt><trkpt lat="43.454094358655944" lon="11.467892174849771"><ele>605.75</ele><time>2026-04-04T08:50:08Z</time></trkpt><trkpt lat="43.45415771580028" lon="11.46773891222816"><ele>602.5</ele><time>2026-04-04T08:50:09Z</time></trkpt><trkpt lat="43.454239787361495" lon="11.467606722699164"><ele>599.25</ele><time>2026-04-04T08:50:10Z</time></trkpt><trkpt lat="43.45431441517515" lon="11.467473114736377"><ele>596.0</ele><time>2026-04-04T08:50:11Z</time></trkpt><trkpt lat="43.45438956005021" lon="11.467354169204954"><ele>596.0</ele><time>2026-04-04T08:50:12Z</time></trkpt><trkpt lat="43.4544701801331" lon="11.467240151242143"><ele>596.0</ele><time>2026-04-04T08:50:13Z</time></trkpt><trkpt lat="43.4545667554287" lon="11.467174149696415"><ele>596.0</ele><time>2026-04-04T08:50:14Z</time></trkpt><trkpt lat="43.45464984520665" lon="11.467081262740273"><ele>596.0</ele><time>2026-04-04T08:50:15Z</time></trkpt><trkpt lat="43.45473563843599" lon="11.467012793827594"><ele>596.0</ele><time>2026-04-04T08:50:16Z</time></trkpt><trkpt lat="43.454803424371896" lon="11.466925790458014"><ele>596.25</ele><time>2026-04-04T08:50:17Z</time></trkpt><trkpt lat="43.45483326036771" lon="11.46680048622312"><ele>596.5</ele><time>2026-04-04T08:50:18Z</time></trkpt><trkpt lat="43.45487582206838" lon="11.466658400143848"><ele>596.75</ele><time>2026-04-04T08:50:19Z</time></trkpt><trkpt lat="43.45487116076962" lon="11.466472094143251"><ele>597.0</ele><time>2026-04-04T08:50:20Z</time></trkpt><trkpt lat="43.454885518132194" lon="11.466313601278664"><ele>595.5</ele><time>2026-04-04T08:50:21Z</time></trkpt><trkpt lat="43.454908248439956" lon="11.466174445544164"><ele>594.0</ele><time>2026-04-04T08:50:22Z</time></trkpt><trkpt lat="43.454939307333426" lon="11.466066946155948"><ele>592.5</ele><time>2026-04-04T08:50:23Z</time></trkpt><trkpt lat="43.45499359313779" lon="11.465968364610116"><ele>591.0</ele><time>2026-04-04T08:50:24Z</time></trkpt><trkpt lat="43.455062505696986" lon="11.465931085216031"><ele>589.5</ele><time>2026-04-04T08:50:25Z</time></trkpt><trkpt lat="43.45512898166538" lon="11.465904523026998"><ele>588.0</ele><time>2026-04-04T08:50:26Z</time></trkpt><trkpt lat="43.45520426921584" lon="11.465894031938387"><ele>588.0</ele><time>2026-04-04T08:50:27Z</time></trkpt><trkpt lat="43.45531949524596" lon="11.465896568798682"><ele>588.0</ele><time>2026-04-04T08:50:28Z</time></trkpt><trkpt lat="43.45544637973144" lon="11.465939916494465"><ele>588.0</ele><time>2026-04-04T08:50:29Z</time></trkpt><trkpt lat="43.45557980221806" lon="11.465983586791502"><ele>588.0</ele><time>2026-04-04T08:50:30Z</time></trkpt><trkpt lat="43.45567506394282" lon="11.466034340511301"><ele>590.1999999999999</ele><time>2026-04-04T08:50:31Z</time></trkpt><trkpt lat="43.45575749484621" lon="11.466068764233881"><ele>592.4</ele><time>2026-04-04T08:50:32Z</time></trkpt><trkpt lat="43.45584093651796" lon="11.46604310512287"><ele>594.5999999999999</ele><time>2026-04-04T08:50:33Z</time></trkpt><trkpt lat="43.455904411560745" lon="11.465953741422641"><ele>596.8</ele><time>2026-04-04T08:50:34Z</time></trkpt><trkpt lat="43.455981236755605" lon="11.46586571057163"><ele>599.0</ele><time>2026-04-04T08:50:35Z</time></trkpt><trkpt lat="43.45605914245998" lon="11.465773055239515"><ele>599.0</ele><time>2026-04-04T08:50:36Z</time></trkpt><trkpt lat="43.456151139778704" lon="11.46571821683646"><ele>599.0</ele><time>2026-04-04T08:50:37Z</time></trkpt><trkpt lat="43.4562577248382" lon="11.465688142710173"><ele>599.0</ele><time>2026-04-04T08:50:38Z</time></trkpt><trkpt lat="43.456361475329345" lon="11.465701916484383"><ele>599.0</ele><time>2026-04-04T08:50:39Z</time></trkpt><trkpt lat="43.456445725042116" lon="11.465772295016784"><ele>599.0</ele><time>2026-04-04T08:50:40Z</time></trkpt><trkpt lat="43.45654483345796" lon="11.465851274299263"><ele>597.4</ele><time>2026-04-04T08:50:41Z</time></trkpt><trkpt lat="43.45664806548495" lon="11.465932799764525"><ele>595.8</ele><time>2026-04-04T08:50:42Z</time></trkpt><trkpt lat="43.45674157734098" lon="11.466011411329204"><ele>594.2</ele><time>2026-04-04T08:50:43Z</time></trkpt><trkpt lat="43.45684062988968" lon="11.466071587699437"><ele>592.6</ele><time>2026-04-04T08:50:44Z</time></trkpt><trkpt lat="43.4569165021651" lon="11.466164297700992"><ele>591.0</ele><time>2026-04-04T08:50:45Z</time></trkpt><trkpt lat="43.456985204362724" lon="11.466228069747388"><ele>591.0</ele><time>2026-04-04T08:50:46Z</time></trkpt><trkpt lat="43.45706068672769" lon="11.466256880404439"><ele>591.0</ele><time>2026-04-04T08:50:47Z</time></trkpt><trkpt lat="43.45712866188022" lon="11.46624000066579"><ele>591.0</ele><time>2026-04-04T08:50:48Z</time></trkpt><trkpt lat="43.45718845644428" lon="11.46618153062321"><ele>591.0</ele><time>2026-04-04T08:50:49Z</time></trkpt><trkpt lat="43.45721733900862" lon="11.466039271669276"><ele>591.0</ele><time>2026-04-04T08:50:50Z</time></trkpt><trkpt lat="43.45720897491218" lon="11.465876384993955"><ele>591.0</ele><time>2026-04-04T08:50:51Z</time></trkpt><trkpt lat="43.457206636958446" lon="11.465724418039152"><ele>592.2</ele><time>2026-04-04T08:50:52Z</time></trkpt><trkpt lat="43.45720735519749" lon="11.465580735859147"><ele>593.4000000000001</ele><time>2026-04-04T08:50:53Z</time></trkpt><trkpt lat="43.45721084905499" lon="11.4654195941274"><ele>594.6</ele><time>2026-04-04T08:50:54Z</time></trkpt><trkpt lat="43.457220500559" lon="11.4652581849951"><ele>595.8000000000001</ele><time>2026-04-04T08:50:55Z</time></trkpt><trkpt lat="43.45724520276404" lon="11.465110058856599"><ele>597.0</ele><time>2026-04-04T08:50:56Z</time></trkpt><trkpt lat="43.457274572641786" lon="11.465001417150047"><ele>594.6</ele><time>2026-04-04T08:50:57Z</time></trkpt><trkpt lat="43.457307936043954" lon="11.464922526864495"><ele>592.2</ele><time>2026-04-04T08:50:58Z</time></trkpt><trkpt lat="43.457379667794086" lon="11.464839470605702"><ele>589.8</ele><time>2026-04-04T08:50:59Z</time></trkpt><trkpt lat="43.4574533860427" lon="11.46474238484395"><ele>587.4</ele><time>2026-04-04T08:51:00Z</time></trkpt><trkpt lat="43.45750564161701" lon="11.464612656756453"><ele>585.0</ele><time>2026-04-04T08:51:01Z</time></trkpt><trkpt lat="43.45753813860296" lon="11.464480718157848"><ele>582.5</ele><time>2026-04-04T08:51:02Z</time></trkpt><trkpt lat="43.45754703645282" lon="11.464325132576844"><ele>580.0</ele><time>2026-04-04T08:51:03Z</time></trkpt><trkpt lat="43.45751324402663" lon="11.464148493800254"><ele>577.5</ele><time>2026-04-04T08:51:04Z</time></trkpt><trkpt lat="43.45750053185962" lon="11.463993482265646"><ele>575.0</ele><time>2026-04-04T08:51:04.999Z</time></trkpt><trkpt lat="43.45747765400122" lon="11.463848349338415"><ele>573.6666666666666</ele><time>2026-04-04T08:51:05.999Z</time></trkpt><trkpt lat="43.45743946113684" lon="11.463744672738605"><ele>572.3333333333333</ele><time>2026-04-04T08:51:06.999Z</time></trkpt><trkpt lat="43.457355232338145" lon="11.463683231921769"><ele>571.0</ele><time>2026-04-04T08:51:07.999Z</time></trkpt><trkpt lat="43.457289012585086" lon="11.463599720315518"><ele>569.6666666666666</ele><time>2026-04-04T08:51:08.999Z</time></trkpt><trkpt lat="43.4572121354519" lon="11.463535529596891"><ele>568.3333333333334</ele><time>2026-04-04T08:51:10Z</time></trkpt><trkpt lat="43.45716481134344" lon="11.463465368139731"><ele>567.0</ele><time>2026-04-04T08:51:11Z</time></trkpt><trkpt lat="43.45713202729883" lon="11.463374172050859"><ele>567.0</ele><time>2026-04-04T08:51:12Z</time></trkpt><trkpt lat="43.45711921705733" lon="11.463269875611132"><ele>567.0</ele><time>2026-04-04T08:51:13Z</time></trkpt><trkpt lat="43.45713312044365" lon="11.463073160535327"><ele>567.0</ele><time>2026-04-04T08:51:15Z</time></trkpt><trkpt lat="43.45718372151909" lon="11.46295094559676"><ele>567.0</ele><time>2026-04-04T08:51:16Z</time></trkpt><trkpt lat="43.45725027082036" lon="11.462847222943688"><ele>567.0</ele><time>2026-04-04T08:51:17Z</time></trkpt><trkpt lat="43.45726536643648" lon="11.462720411585716"><ele>565.2</ele><time>2026-04-04T08:51:18Z</time></trkpt><trkpt lat="43.45720686896627" lon="11.462579604778622"><ele>563.4000000000001</ele><time>2026-04-04T08:51:19Z</time></trkpt><trkpt lat="43.457178499781506" lon="11.462456993006732"><ele>561.5999999999999</ele><time>2026-04-04T08:51:20Z</time></trkpt><trkpt lat="43.45715974192152" lon="11.462367585836727"><ele>559.8</ele><time>2026-04-04T08:51:21Z</time></trkpt><trkpt lat="43.45719599012635" lon="11.462247484933956"><ele>558.0</ele><time>2026-04-04T08:51:22Z</time></trkpt><trkpt lat="43.45725241396671" lon="11.462144428317382"><ele>556.4</ele><time>2026-04-04T08:51:23Z</time></trkpt><trkpt lat="43.45730200833888" lon="11.462035755251872"><ele>554.8</ele><time>2026-04-04T08:51:24Z</time></trkpt><trkpt lat="43.45731974360121" lon="11.461910279805316"><ele>553.2</ele><time>2026-04-04T08:51:25Z</time></trkpt><trkpt lat="43.45734163842374" lon="11.461758940696171"><ele>551.6</ele><time>2026-04-04T08:51:26Z</time></trkpt><trkpt lat="43.45733253874001" lon="11.461590104853949"><ele>550.0</ele><time>2026-04-04T08:51:27Z</time></trkpt><trkpt lat="43.45730742939592" lon="11.461454951337192"><ele>550.0</ele><time>2026-04-04T08:51:28Z</time></trkpt><trkpt lat="43.45725505843854" lon="11.46134828328403"><ele>550.0</ele><time>2026-04-04T08:51:29Z</time></trkpt><trkpt lat="43.45720538178198" lon="11.461264663935157"><ele>550.0</ele><time>2026-04-04T08:51:30Z</time></trkpt><trkpt lat="43.4571389714684" lon="11.461183078003158"><ele>550.0</ele><time>2026-04-04T08:51:31Z</time></trkpt><trkpt lat="43.457037663628036" lon="11.461119741947725"><ele>550.0</ele><time>2026-04-04T08:51:32Z</time></trkpt><trkpt lat="43.45691354716267" lon="11.461093746162447"><ele>548.8333333333334</ele><time>2026-04-04T08:51:33Z</time></trkpt><trkpt lat="43.4568029764554" lon="11.461068569068486"><ele>547.6666666666667</ele><time>2026-04-04T08:51:34Z</time></trkpt><trkpt lat="43.45671611828917" lon="11.461029563838169"><ele>546.5</ele><time>2026-04-04T08:51:35Z</time></trkpt><trkpt lat="43.4566515419079" lon="11.46098522923225"><ele>545.3333333333334</ele><time>2026-04-04T08:51:36Z</time></trkpt><trkpt lat="43.45661654377583" lon="11.460909006312619"><ele>544.1666666666666</ele><time>2026-04-04T08:51:37Z</time></trkpt><trkpt lat="43.456616520584824" lon="11.460804117514686"><ele>543.0</ele><time>2026-04-04T08:51:38Z</time></trkpt><trkpt lat="43.456629623398946" lon="11.460702567658487"><ele>543.0</ele><time>2026-04-04T08:51:39Z</time></trkpt><trkpt lat="43.45664913304471" lon="11.460600462766742"><ele>543.0</ele><time>2026-04-04T08:51:40Z</time></trkpt><trkpt lat="43.45672956774177" lon="11.460530810071344"><ele>543.0</ele><time>2026-04-04T08:51:41Z</time></trkpt><trkpt lat="43.45680709647442" lon="11.460466721880309"><ele>543.0</ele><time>2026-04-04T08:51:42Z</time></trkpt><trkpt lat="43.45692706064179" lon="11.460429004776199"><ele>543.0</ele><time>2026-04-04T08:51:43Z</time></trkpt><trkpt lat="43.457018478541485" lon="11.4603422513074"><ele>542.75</ele><time>2026-04-04T08:51:44Z</time></trkpt><trkpt lat="43.45710038123043" lon="11.460211299263332"><ele>542.5</ele><time>2026-04-04T08:51:45Z</time></trkpt><trkpt lat="43.45717446630023" lon="11.460059037371206"><ele>542.25</ele><time>2026-04-04T08:51:46Z</time></trkpt><trkpt lat="43.45726157938468" lon="11.459923298743357"><ele>542.0</ele><time>2026-04-04T08:51:47Z</time></trkpt><trkpt lat="43.457330699265135" lon="11.459778077402113"><ele>542.0</ele><time>2026-04-04T08:51:48Z</time></trkpt><trkpt lat="43.457384644409906" lon="11.459625933293573"><ele>542.0</ele><time>2026-04-04T08:51:49Z</time></trkpt><trkpt lat="43.45745402280462" lon="11.459505230765382"><ele>542.0</ele><time>2026-04-04T08:51:50Z</time></trkpt><trkpt lat="43.45752354106219" lon="11.459388727345956"><ele>542.0</ele><time>2026-04-04T08:51:51Z</time></trkpt><trkpt lat="43.457589107923326" lon="11.459287685147968"><ele>542.0</ele><time>2026-04-04T08:51:52Z</time></trkpt><trkpt lat="43.45766112031136" lon="11.4592205407824"><ele>539.8333333333333</ele><time>2026-04-04T08:51:53Z</time></trkpt><trkpt lat="43.45774400671097" lon="11.45919477808521"><ele>537.6666666666666</ele><time>2026-04-04T08:51:54Z</time></trkpt><trkpt lat="43.4578361663345" lon="11.45921768498624"><ele>535.5</ele><time>2026-04-04T08:51:55Z</time></trkpt><trkpt lat="43.457928234226614" lon="11.459257109947147"><ele>533.3333333333334</ele><time>2026-04-04T08:51:56Z</time></trkpt><trkpt lat="43.45799859577101" lon="11.459302658077764"><ele>531.1666666666667</ele><time>2026-04-04T08:51:57Z</time></trkpt><trkpt lat="43.4580732636257" lon="11.459283118492111"><ele>529.0</ele><time>2026-04-04T08:51:58Z</time></trkpt><trkpt lat="43.458135989912996" lon="11.45921213498818"><ele>528.0</ele><time>2026-04-04T08:51:59Z</time></trkpt><trkpt lat="43.45818376095998" lon="11.45910490879009"><ele>527.0</ele><time>2026-04-04T08:52:00Z</time></trkpt><trkpt lat="43.45818049695769" lon="11.458964781827715"><ele>526.0</ele><time>2026-04-04T08:52:01Z</time></trkpt><trkpt lat="43.45814790666546" lon="11.458859009268926"><ele>525.0</ele><time>2026-04-04T08:52:02Z</time></trkpt><trkpt lat="43.45808285538592" lon="11.45875388040278"><ele>524.0</ele><time>2026-04-04T08:52:03Z</time></trkpt><trkpt lat="43.458033233581034" lon="11.45865819796958"><ele>523.6666666666666</ele><time>2026-04-04T08:52:04Z</time></trkpt><trkpt lat="43.457998913285174" lon="11.45857133723415"><ele>523.3333333333333</ele><time>2026-04-04T08:52:05Z</time></trkpt><trkpt lat="43.457983287047284" lon="11.458480707971184"><ele>523.0</ele><time>2026-04-04T08:52:06Z</time></trkpt><trkpt lat="43.45796791562686" lon="11.45839480134925"><ele>522.6666666666666</ele><time>2026-04-04T08:52:07Z</time></trkpt><trkpt lat="43.45795643431952" lon="11.458293702932389"><ele>522.3333333333334</ele><time>2026-04-04T08:52:08Z</time></trkpt><trkpt lat="43.45795636355539" lon="11.458205184113627"><ele>522.0</ele><time>2026-04-04T08:52:09Z</time></trkpt><trkpt lat="43.45780773386594" lon="11.458068596243944"><ele>521.6</ele><time>2026-04-04T08:52:11Z</time></trkpt><trkpt lat="43.457744797578655" lon="11.45801858286217"><ele>521.2</ele><time>2026-04-04T08:52:12Z</time></trkpt><trkpt lat="43.45766717324756" lon="11.457956897189174"><ele>520.8</ele><time>2026-04-04T08:52:13Z</time></trkpt><trkpt lat="43.45757279635201" lon="11.457899641873007"><ele>520.4</ele><time>2026-04-04T08:52:14Z</time></trkpt><trkpt lat="43.457472583360364" lon="11.457852460536241"><ele>520.0</ele><time>2026-04-04T08:52:15Z</time></trkpt><trkpt lat="43.45738743659849" lon="11.457805108374718"><ele>520.25</ele><time>2026-04-04T08:52:16Z</time></trkpt><trkpt lat="43.45730022934907" lon="11.457747682252899"><ele>520.5</ele><time>2026-04-04T08:52:17Z</time></trkpt><trkpt lat="43.45718669878258" lon="11.457676989139324"><ele>520.75</ele><time>2026-04-04T08:52:18Z</time></trkpt><trkpt lat="43.45707384739731" lon="11.457611465737545"><ele>521.0</ele><time>2026-04-04T08:52:19Z</time></trkpt><trkpt lat="43.45696224034426" lon="11.457559115836988"><ele>521.0</ele><time>2026-04-04T08:52:20Z</time></trkpt><trkpt lat="43.456850543204716" lon="11.45751969979726"><ele>521.0</ele><time>2026-04-04T08:52:21Z</time></trkpt><trkpt lat="43.456752193321144" lon="11.457493787064246"><ele>521.0</ele><time>2026-04-04T08:52:22Z</time></trkpt><trkpt lat="43.456660687687055" lon="11.457474249159784"><ele>521.0</ele><time>2026-04-04T08:52:23Z</time></trkpt><trkpt lat="43.456577119580096" lon="11.457457034139184"><ele>521.0</ele><time>2026-04-04T08:52:24Z</time></trkpt><trkpt lat="43.45650410716884" lon="11.45745169135738"><ele>521.0</ele><time>2026-04-04T08:52:25Z</time></trkpt><trkpt lat="43.4564334784326" lon="11.457436856685462"><ele>521.0</ele><time>2026-04-04T08:52:26Z</time></trkpt><trkpt lat="43.45635211848154" lon="11.45739970209898"><ele>521.0</ele><time>2026-04-04T08:52:27Z</time></trkpt><trkpt lat="43.45628610583979" lon="11.457367968633292"><ele>521.0</ele><time>2026-04-04T08:52:28Z</time></trkpt><trkpt lat="43.45622769257328" lon="11.457290424368088"><ele>521.0</ele><time>2026-04-04T08:52:29Z</time></trkpt><trkpt lat="43.456161170125284" lon="11.457239783416306"><ele>521.0</ele><time>2026-04-04T08:52:30Z</time></trkpt><trkpt lat="43.456102467476256" lon="11.457195095417841"><ele>521.0</ele><time>2026-04-04T08:52:31Z</time></trkpt><trkpt lat="43.45600739123652" lon="11.457130678493412"><ele>521.0</ele><time>2026-04-04T08:52:33Z</time></trkpt><trkpt lat="43.45587267643147" lon="11.457079410171502"><ele>521.0</ele><time>2026-04-04T08:52:35Z</time></trkpt><trkpt lat="43.45578052137732" lon="11.457027410722048"><ele>521.0</ele><time>2026-04-04T08:52:36Z</time></trkpt><trkpt lat="43.45568418719082" lon="11.45696371761435"><ele>521.0</ele><time>2026-04-04T08:52:37Z</time></trkpt><trkpt lat="43.4555929579902" lon="11.456900905068332"><ele>521.0</ele><time>2026-04-04T08:52:38Z</time></trkpt><trkpt lat="43.455506736170214" lon="11.456837008047993"><ele>521.0</ele><time>2026-04-04T08:52:39Z</time></trkpt><trkpt lat="43.455427722458204" lon="11.456776454864185"><ele>521.0</ele><time>2026-04-04T08:52:40Z</time></trkpt><trkpt lat="43.45536033462303" lon="11.456721032417903"><ele>521.0</ele><time>2026-04-04T08:52:41Z</time></trkpt><trkpt lat="43.455296613379375" lon="11.456667273165182"><ele>521.0</ele><time>2026-04-04T08:52:42Z</time></trkpt><trkpt lat="43.45524402220333" lon="11.45661808156198"><ele>517.6</ele><time>2026-04-04T08:52:43Z</time></trkpt><trkpt lat="43.45518020702844" lon="11.456565552399846"><ele>514.2</ele><time>2026-04-04T08:52:44Z</time></trkpt><trkpt lat="43.45515682837782" lon="11.456441562397659"><ele>510.79999999999995</ele><time>2026-04-04T08:52:45Z</time></trkpt><trkpt lat="43.45516615668152" lon="11.45630807921637"><ele>507.4</ele><time>2026-04-04T08:52:46Z</time></trkpt><trkpt lat="43.455144198604366" lon="11.4561755698506"><ele>504.0</ele><time>2026-04-04T08:52:47Z</time></trkpt><trkpt lat="43.45517047557383" lon="11.45603568247913"><ele>504.0</ele><time>2026-04-04T08:52:48Z</time></trkpt><trkpt lat="43.45517858395284" lon="11.455917303700462"><ele>504.0</ele><time>2026-04-04T08:52:49Z</time></trkpt><trkpt lat="43.455157237932106" lon="11.455829356723571"><ele>504.0</ele><time>2026-04-04T08:52:50Z</time></trkpt><trkpt lat="43.45504839005416" lon="11.455755821726582"><ele>504.0</ele><time>2026-04-04T08:52:52Z</time></trkpt><trkpt lat="43.454961951095385" lon="11.455748791025014"><ele>504.0</ele><time>2026-04-04T08:52:53Z</time></trkpt><trkpt lat="43.454872846613426" lon="11.455671823675683"><ele>504.0</ele><time>2026-04-04T08:52:54Z</time></trkpt><trkpt lat="43.45478355556976" lon="11.455618589574184"><ele>504.0</ele><time>2026-04-04T08:52:55Z</time></trkpt><trkpt lat="43.45469251576806" lon="11.455557753976173"><ele>504.0</ele><time>2026-04-04T08:52:56Z</time></trkpt><trkpt lat="43.45460436018502" lon="11.45549604506574"><ele>504.0</ele><time>2026-04-04T08:52:57Z</time></trkpt><trkpt lat="43.45452165350252" lon="11.455440383200767"><ele>504.0</ele><time>2026-04-04T08:52:58Z</time></trkpt><trkpt lat="43.45444795771472" lon="11.455392434379204"><ele>503.3333333333333</ele><time>2026-04-04T08:52:59Z</time></trkpt><trkpt lat="43.4543703579481" lon="11.455341945485458"><ele>502.66666666666663</ele><time>2026-04-04T08:53:00Z</time></trkpt><trkpt lat="43.45429684075451" lon="11.455293400783685"><ele>502.0</ele><time>2026-04-04T08:53:01Z</time></trkpt><trkpt lat="43.45422127228746" lon="11.455242047807054"><ele>501.3333333333333</ele><time>2026-04-04T08:53:02Z</time></trkpt><trkpt lat="43.45414971920421" lon="11.455193423507982"><ele>500.66666666666663</ele><time>2026-04-04T08:53:03Z</time></trkpt><trkpt lat="43.45405407162217" lon="11.455131217640023"><ele>500.0</ele><time>2026-04-04T08:53:05Z</time></trkpt><trkpt lat="43.45399333736274" lon="11.455093961512421"><ele>500.0</ele><time>2026-04-04T08:53:07Z</time></trkpt><trkpt lat="43.45408176483598" lon="11.45512317186373"><ele>500.0</ele><time>2026-04-04T08:53:43Z</time></trkpt><trkpt lat="43.45418924685678" lon="11.454969555225338"><ele>500.0</ele><time>2026-04-04T08:53:44Z</time></trkpt><trkpt lat="43.45426682595698" lon="11.454982997707383"><ele>500.0</ele><time>2026-04-04T08:53:46Z</time></trkpt><trkpt lat="43.45434791483078" lon="11.45499364778456"><ele>500.0</ele><time>2026-04-04T08:53:48Z</time></trkpt><trkpt lat="43.45445416411768" lon="11.455036409538932"><ele>500.0</ele><time>2026-04-04T08:53:50Z</time></trkpt><trkpt lat="43.45457647245159" lon="11.45507100741545"><ele>500.0</ele><time>2026-04-04T08:53:52Z</time></trkpt><trkpt lat="43.45469222765987" lon="11.455071082836776"><ele>500.0</ele><time>2026-04-04T08:53:54Z</time></trkpt><trkpt lat="43.45477858242513" lon="11.455064728777542"><ele>500.0</ele><time>2026-04-04T08:53:56Z</time></trkpt><trkpt lat="43.4548585990215" lon="11.454824563003138"><ele>501.16666666666663</ele><time>2026-04-04T08:53:58Z</time></trkpt><trkpt lat="43.45491425293944" lon="11.454736607875173"><ele>502.3333333333333</ele><time>2026-04-04T08:53:59Z</time></trkpt><trkpt lat="43.454974843526806" lon="11.45467776930584"><ele>503.5</ele><time>2026-04-04T08:54:00Z</time></trkpt><trkpt lat="43.45505451456329" lon="11.454625516405143"><ele>504.66666666666663</ele><time>2026-04-04T08:54:01Z</time></trkpt><trkpt lat="43.45512260419477" lon="11.454569729999529"><ele>505.8333333333333</ele><time>2026-04-04T08:54:02Z</time></trkpt><trkpt lat="43.45518392722006" lon="11.454500250174426"><ele>507.0</ele><time>2026-04-04T08:54:03Z</time></trkpt><trkpt lat="43.4552384568292" lon="11.4544220188505"><ele>507.0</ele><time>2026-04-04T08:54:04Z</time></trkpt><trkpt lat="43.455291415849196" lon="11.454353798168388"><ele>507.0</ele><time>2026-04-04T08:54:05Z</time></trkpt><trkpt lat="43.45534017574016" lon="11.45428815824125"><ele>507.0</ele><time>2026-04-04T08:54:06Z</time></trkpt><trkpt lat="43.455375880681494" lon="11.454200470583084"><ele>507.0</ele><time>2026-04-04T08:54:07Z</time></trkpt><trkpt lat="43.45539597325302" lon="11.454108977312597"><ele>507.0</ele><time>2026-04-04T08:54:08Z</time></trkpt><trkpt lat="43.45539436057048" lon="11.453973127290423"><ele>507.0</ele><time>2026-04-04T08:54:09Z</time></trkpt><trkpt lat="43.455380578818605" lon="11.45381463671112"><ele>506.8</ele><time>2026-04-04T08:54:10Z</time></trkpt><trkpt lat="43.4553615706372" lon="11.453637030804973"><ele>506.6</ele><time>2026-04-04T08:54:11Z</time></trkpt><trkpt lat="43.45535161170756" lon="11.453500200801967"><ele>506.40000000000003</ele><time>2026-04-04T08:54:12Z</time></trkpt><trkpt lat="43.45532101384409" lon="11.453390843163394"><ele>506.20000000000005</ele><time>2026-04-04T08:54:13Z</time></trkpt><trkpt lat="43.45527365802215" lon="11.453304207802665"><ele>506.0</ele><time>2026-04-04T08:54:14Z</time></trkpt><trkpt lat="43.455206491905955" lon="11.453161769135745"><ele>505.99999999999994</ele><time>2026-04-04T08:54:16Z</time></trkpt><trkpt lat="43.45515435276996" lon="11.453024767702487"><ele>506.0</ele><time>2026-04-04T08:54:18Z</time></trkpt><trkpt lat="43.45511725464314" lon="11.45294918272941"><ele>506.0</ele><time>2026-04-04T08:54:19Z</time></trkpt><trkpt lat="43.45507862472932" lon="11.452859455631557"><ele>506.0</ele><time>2026-04-04T08:54:20Z</time></trkpt><trkpt lat="43.45504202576968" lon="11.452766855412847"><ele>505.99999999999994</ele><time>2026-04-04T08:54:21Z</time></trkpt><trkpt lat="43.45499729394987" lon="11.452662805713462"><ele>506.0</ele><time>2026-04-04T08:54:22Z</time></trkpt><trkpt lat="43.454950638427306" lon="11.452545402000494"><ele>506.99999999999994</ele><time>2026-04-04T08:54:23Z</time></trkpt><trkpt lat="43.45491497700983" lon="11.452420746939492"><ele>508.0</ele><time>2026-04-04T08:54:24Z</time></trkpt><trkpt lat="43.45488607235773" lon="11.452328027044377"><ele>509.0</ele><time>2026-04-04T08:54:25Z</time></trkpt><trkpt lat="43.45488346944893" lon="11.452240755397973"><ele>510.0</ele><time>2026-04-04T08:54:26Z</time></trkpt><trkpt lat="43.45489698330951" lon="11.452125332022044"><ele>510.99999999999994</ele><time>2026-04-04T08:54:27Z</time></trkpt><trkpt lat="43.454930367303334" lon="11.452027479119517"><ele>512.0</ele><time>2026-04-04T08:54:28Z</time></trkpt><trkpt lat="43.45497980503566" lon="11.451956417533742"><ele>511.99999999999994</ele><time>2026-04-04T08:54:29Z</time></trkpt><trkpt lat="43.45504024463979" lon="11.451931531566368"><ele>512.0</ele><time>2026-04-04T08:54:31Z</time></trkpt><trkpt lat="43.45511018504872" lon="11.451906246190733"><ele>512.0</ele><time>2026-04-04T08:54:34Z</time></trkpt><trkpt lat="43.45521033181027" lon="11.451809042178931"><ele>512.0</ele><time>2026-04-04T08:54:36Z</time></trkpt><trkpt lat="43.45528802103835" lon="11.451756774596022"><ele>511.99999999999994</ele><time>2026-04-04T08:54:37Z</time></trkpt><trkpt lat="43.45535807441079" lon="11.451723381154487"><ele>512.0</ele><time>2026-04-04T08:54:38Z</time></trkpt><trkpt lat="43.45533137440131" lon="11.451531702832245"><ele>512.0</ele><time>2026-04-04T08:54:39Z</time></trkpt><trkpt lat="43.45537606269729" lon="11.451404894695099"><ele>512.0</ele><time>2026-04-04T08:54:40Z</time></trkpt><trkpt lat="43.45541699078716" lon="11.451290839959004"><ele>512.0</ele><time>2026-04-04T08:54:41Z</time></trkpt><trkpt lat="43.455454998197254" lon="11.451156780111168"><ele>512.0</ele><time>2026-04-04T08:54:42Z</time></trkpt><trkpt lat="43.45548165703766" lon="11.451016147146143"><ele>512.0</ele><time>2026-04-04T08:54:43Z</time></trkpt><trkpt lat="43.45551973930017" lon="11.450914664991695"><ele>511.99999999999994</ele><time>2026-04-04T08:54:44Z</time></trkpt><trkpt lat="43.455493939189346" lon="11.450783938460958"><ele>512.0</ele><time>2026-04-04T08:54:45Z</time></trkpt><trkpt lat="43.455468649975586" lon="11.450657807137295"><ele>512.0</ele><time>2026-04-04T08:54:46Z</time></trkpt><trkpt lat="43.4554202801475" lon="11.450554410200603"><ele>512.0</ele><time>2026-04-04T08:54:47Z</time></trkpt><trkpt lat="43.45535351925995" lon="11.450494438828336"><ele>511.99999999999994</ele><time>2026-04-04T08:54:48Z</time></trkpt><trkpt lat="43.45528231203016" lon="11.450506329591487"><ele>512.0</ele><time>2026-04-04T08:54:49Z</time></trkpt><trkpt lat="43.45522135156587" lon="11.450469245333135"><ele>511.8</ele><time>2026-04-04T08:54:50Z</time></trkpt><trkpt lat="43.455166242096695" lon="11.45040120191564"><ele>511.6</ele><time>2026-04-04T08:54:51Z</time></trkpt><trkpt lat="43.45507281492817" lon="11.450390163929718"><ele>511.40000000000003</ele><time>2026-04-04T08:54:52Z</time></trkpt><trkpt lat="43.45497669406347" lon="11.450331863892606"><ele>511.20000000000005</ele><time>2026-04-04T08:54:53Z</time></trkpt><trkpt lat="43.45490115611785" lon="11.450259254029858"><ele>511.0</ele><time>2026-04-04T08:54:54Z</time></trkpt><trkpt lat="43.45484015058528" lon="11.450177620856318"><ele>511.00000000000006</ele><time>2026-04-04T08:54:55Z</time></trkpt><trkpt lat="43.45480309150474" lon="11.450079809899599"><ele>511.0</ele><time>2026-04-04T08:54:56Z</time></trkpt><trkpt lat="43.454752712279756" lon="11.449990010028342"><ele>511.0</ele><time>2026-04-04T08:54:57Z</time></trkpt><trkpt lat="43.454705350235464" lon="11.449905587898932"><ele>511.0</ele><time>2026-04-04T08:54:58Z</time></trkpt><trkpt lat="43.4546651511749" lon="11.449833933679209"><ele>511.00000000000006</ele><time>2026-04-04T08:54:59Z</time></trkpt><trkpt lat="43.4545927894909" lon="11.449704950055214"><ele>511.0</ele><time>2026-04-04T08:55:01Z</time></trkpt><trkpt lat="43.454382007356486" lon="11.449829629302501"><ele>508.8</ele><time>2026-04-04T08:55:03Z</time></trkpt><trkpt lat="43.45432682663452" lon="11.44990831904942"><ele>506.6</ele><time>2026-04-04T08:55:04Z</time></trkpt><trkpt lat="43.45426875870069" lon="11.449977819767053"><ele>504.4</ele><time>2026-04-04T08:55:05Z</time></trkpt><trkpt lat="43.45419395773482" lon="11.449997288821365"><ele>502.2</ele><time>2026-04-04T08:55:06Z</time></trkpt><trkpt lat="43.45413093768069" lon="11.44994141157645"><ele>500.0</ele><time>2026-04-04T08:55:07Z</time></trkpt><trkpt lat="43.454044350758686" lon="11.449766741104987"><ele>500.0</ele><time>2026-04-04T08:55:09Z</time></trkpt><trkpt lat="43.453968449889835" lon="11.44969006042498"><ele>500.0</ele><time>2026-04-04T08:55:10Z</time></trkpt><trkpt lat="43.45389772602712" lon="11.449615825169255"><ele>500.0</ele><time>2026-04-04T08:55:11Z</time></trkpt><trkpt lat="43.45378911946884" lon="11.44952706861876"><ele>500.0</ele><time>2026-04-04T08:55:12Z</time></trkpt><trkpt lat="43.453704992148516" lon="11.449420277551997"><ele>500.0</ele><time>2026-04-04T08:55:13Z</time></trkpt><trkpt lat="43.45363159829887" lon="11.449327867304717"><ele>496.0</ele><time>2026-04-04T08:55:14Z</time></trkpt><trkpt lat="43.45355154747268" lon="11.449275138345337"><ele>492.0</ele><time>2026-04-04T08:55:15Z</time></trkpt><trkpt lat="43.453444126896194" lon="11.449258071454322"><ele>488.0</ele><time>2026-04-04T08:55:16Z</time></trkpt><trkpt lat="43.45328555549509" lon="11.449252314015116"><ele>484.0</ele><time>2026-04-04T08:55:17Z</time></trkpt><trkpt lat="43.45315927587778" lon="11.449250388192795"><ele>484.0</ele><time>2026-04-04T08:55:18Z</time></trkpt><trkpt lat="43.45309268430076" lon="11.449242834610219"><ele>484.0</ele><time>2026-04-04T08:55:19Z</time></trkpt><trkpt lat="43.4529940798422" lon="11.449104079746313"><ele>484.0</ele><time>2026-04-04T08:55:21Z</time></trkpt><trkpt lat="43.45291494369479" lon="11.44909839889168"><ele>484.0</ele><time>2026-04-04T08:55:22Z</time></trkpt><trkpt lat="43.45283291070019" lon="11.449146832152294"><ele>484.0</ele><time>2026-04-04T08:55:23Z</time></trkpt><trkpt lat="43.45275405276699" lon="11.449181620414075"><ele>481.2</ele><time>2026-04-04T08:55:24Z</time></trkpt><trkpt lat="43.452615846360665" lon="11.449133238207894"><ele>478.4</ele><time>2026-04-04T08:55:26Z</time></trkpt><trkpt lat="43.45255589919381" lon="11.449097434604926"><ele>475.6</ele><time>2026-04-04T08:55:27Z</time></trkpt><trkpt lat="43.452519391820104" lon="11.448936468919664"><ele>472.8</ele><time>2026-04-04T08:55:29Z</time></trkpt><trkpt lat="43.452520439227435" lon="11.448810797747022"><ele>470.0</ele><time>2026-04-04T08:55:30Z</time></trkpt><trkpt lat="43.452526618242366" lon="11.448705726727907"><ele>468.8</ele><time>2026-04-04T08:55:31Z</time></trkpt><trkpt lat="43.452504047090386" lon="11.448591970893839"><ele>467.6</ele><time>2026-04-04T08:55:32Z</time></trkpt><trkpt lat="43.452457664342276" lon="11.448462523347583"><ele>466.4</ele><time>2026-04-04T08:55:33Z</time></trkpt><trkpt lat="43.452402915515755" lon="11.448339428312874"><ele>465.2</ele><time>2026-04-04T08:55:34Z</time></trkpt><trkpt lat="43.45235659991048" lon="11.448234828991845"><ele>464.0</ele><time>2026-04-04T08:55:35Z</time></trkpt><trkpt lat="43.45231870589657" lon="11.448116443351639"><ele>464.0</ele><time>2026-04-04T08:55:36Z</time></trkpt><trkpt lat="43.45229990837569" lon="11.447987231890748"><ele>464.0</ele><time>2026-04-04T08:55:37Z</time></trkpt><trkpt lat="43.45228021090122" lon="11.447815938628828"><ele>464.0</ele><time>2026-04-04T08:55:38Z</time></trkpt><trkpt lat="43.452268139109876" lon="11.447602119681042"><ele>464.0</ele><time>2026-04-04T08:55:39Z</time></trkpt><trkpt lat="43.45224361331433" lon="11.447441911907204"><ele>463.79999999999995</ele><time>2026-04-04T08:55:40Z</time></trkpt><trkpt lat="43.452244107123164" lon="11.447328970273762"><ele>463.59999999999997</ele><time>2026-04-04T08:55:41Z</time></trkpt><trkpt lat="43.45223329362523" lon="11.447213562051807"><ele>463.4</ele><time>2026-04-04T08:55:42Z</time></trkpt><trkpt lat="43.4522307467004" lon="11.44707206635999"><ele>463.2</ele><time>2026-04-04T08:55:43Z</time></trkpt><trkpt lat="43.45221526315637" lon="11.446944201000127"><ele>463.0</ele><time>2026-04-04T08:55:44Z</time></trkpt><trkpt lat="43.45218329734738" lon="11.446823803464815"><ele>463.0</ele><time>2026-04-04T08:55:45Z</time></trkpt><trkpt lat="43.45212422670507" lon="11.446718210229935"><ele>462.99999999999994</ele><time>2026-04-04T08:55:46Z</time></trkpt><trkpt lat="43.45206715311937" lon="11.446620694216369"><ele>462.99999999999994</ele><time>2026-04-04T08:55:47Z</time></trkpt><trkpt lat="43.45203059891788" lon="11.446503292159854"><ele>463.0</ele><time>2026-04-04T08:55:48Z</time></trkpt><trkpt lat="43.45202979489493" lon="11.446375123926968"><ele>463.0</ele><time>2026-04-04T08:55:49Z</time></trkpt><trkpt lat="43.45200696586094" lon="11.446220844376494"><ele>462.0</ele><time>2026-04-04T08:55:50Z</time></trkpt><trkpt lat="43.45198415347286" lon="11.446059818641787"><ele>460.99999999999994</ele><time>2026-04-04T08:55:51Z</time></trkpt><trkpt lat="43.45196653179267" lon="11.445923131083266"><ele>459.99999999999994</ele><time>2026-04-04T08:55:52Z</time></trkpt><trkpt lat="43.45195008814739" lon="11.445788128475835"><ele>459.0</ele><time>2026-04-04T08:55:53Z</time></trkpt><trkpt lat="43.45193632095995" lon="11.445671499336685"><ele>458.0</ele><time>2026-04-04T08:55:54Z</time></trkpt><trkpt lat="43.451937186205164" lon="11.44550854575291"><ele>457.4</ele><time>2026-04-04T08:55:56Z</time></trkpt><trkpt lat="43.45193861337088" lon="11.445346584826227"><ele>456.79999999999995</ele><time>2026-04-04T08:55:58Z</time></trkpt><trkpt lat="43.451978163728334" lon="11.445273042667704"><ele>456.2</ele><time>2026-04-04T08:55:59Z</time></trkpt><trkpt lat="43.45204135676882" lon="11.445174985741314"><ele>455.6</ele><time>2026-04-04T08:56:00Z</time></trkpt><trkpt lat="43.452123036270564" lon="11.445040817506552"><ele>455.0</ele><time>2026-04-04T08:56:01Z</time></trkpt><trkpt lat="43.45220246566641" lon="11.444896450379742"><ele>455.49999999999994</ele><time>2026-04-04T08:56:02Z</time></trkpt><trkpt lat="43.45224439809746" lon="11.444794916363602"><ele>456.0</ele><time>2026-04-04T08:56:03Z</time></trkpt><trkpt lat="43.452246193466905" lon="11.444690613138055"><ele>456.5</ele><time>2026-04-04T08:56:05Z</time></trkpt><trkpt lat="43.4522130771147" lon="11.444603517570071"><ele>457.0</ele><time>2026-04-04T08:56:07Z</time></trkpt><trkpt lat="43.45217333942723" lon="11.44447615915684"><ele>457.49999999999994</ele><time>2026-04-04T08:58:36Z</time></trkpt><trkpt lat="43.45215185714471" lon="11.444371852097445"><ele>458.0</ele><time>2026-04-04T08:58:37Z</time></trkpt><trkpt lat="43.45213192135942" lon="11.444195238306774"><ele>457.79999999999995</ele><time>2026-04-04T08:58:39Z</time></trkpt><trkpt lat="43.452118952325314" lon="11.44408834442832"><ele>457.59999999999997</ele><time>2026-04-04T08:58:40Z</time></trkpt><trkpt lat="43.45210342934138" lon="11.443945684111055"><ele>457.40000000000003</ele><time>2026-04-04T08:58:41Z</time></trkpt><trkpt lat="43.45206697305687" lon="11.443792031311489"><ele>457.20000000000005</ele><time>2026-04-04T08:58:42Z</time></trkpt><trkpt lat="43.45201584267296" lon="11.443626639135037"><ele>457.0</ele><time>2026-04-04T08:58:43Z</time></trkpt><trkpt lat="43.45198220155011" lon="11.443502704217115"><ele>457.0</ele><time>2026-04-04T08:58:44Z</time></trkpt><trkpt lat="43.451957972757484" lon="11.443388277488966"><ele>457.00000000000006</ele><time>2026-04-04T08:58:45Z</time></trkpt><trkpt lat="43.4519426401241" lon="11.443285154833594"><ele>457.00000000000006</ele><time>2026-04-04T08:58:46Z</time></trkpt><trkpt lat="43.4519086152461" lon="11.443135695366264"><ele>457.0</ele><time>2026-04-04T08:58:48Z</time></trkpt><trkpt lat="43.4518124468538" lon="11.443030275275861"><ele>457.0</ele><time>2026-04-04T08:58:50Z</time></trkpt><trkpt lat="43.4517172858713" lon="11.442997544943859"><ele>455.8</ele><time>2026-04-04T08:58:52Z</time></trkpt><trkpt lat="43.45165213205354" lon="11.44293077275565"><ele>454.6</ele><time>2026-04-04T08:58:54Z</time></trkpt><trkpt lat="43.451618338025405" lon="11.442789440121768"><ele>453.40000000000003</ele><time>2026-04-04T08:58:56Z</time></trkpt><trkpt lat="43.45166180234991" lon="11.442644388711917"><ele>452.20000000000005</ele><time>2026-04-04T08:58:58Z</time></trkpt><trkpt lat="43.451732855186805" lon="11.442493830502437"><ele>451.0</ele><time>2026-04-04T08:59:00Z</time></trkpt><trkpt lat="43.45177794796775" lon="11.442420331411496"><ele>451.00000000000006</ele><time>2026-04-04T08:59:01Z</time></trkpt><trkpt lat="43.45182574384444" lon="11.442355804564055"><ele>451.0</ele><time>2026-04-04T08:59:02Z</time></trkpt><trkpt lat="43.451910879375696" lon="11.442227703705264"><ele>451.0</ele><time>2026-04-04T08:59:04Z</time></trkpt><trkpt lat="43.45196536594501" lon="11.442168444371621"><ele>451.0</ele><time>2026-04-04T08:59:05Z</time></trkpt><trkpt lat="43.452038823355664" lon="11.442113759575678"><ele>451.00000000000006</ele><time>2026-04-04T08:59:06Z</time></trkpt><trkpt lat="43.45210100491014" lon="11.4420905910701"><ele>451.0</ele><time>2026-04-04T08:59:07Z</time></trkpt><trkpt lat="43.452171445101285" lon="11.442099598722246"><ele>448.33333333333337</ele><time>2026-04-04T08:59:08Z</time></trkpt><trkpt lat="43.45224198504385" lon="11.442098528905628"><ele>445.6666666666667</ele><time>2026-04-04T08:59:09Z</time></trkpt><trkpt lat="43.452314502477044" lon="11.442065858465256"><ele>443.0</ele><time>2026-04-04T08:59:10Z</time></trkpt><trkpt lat="43.45242321152946" lon="11.442013890517222"><ele>440.33333333333337</ele><time>2026-04-04T08:59:12Z</time></trkpt><trkpt lat="43.45248287576798" lon="11.441977080928426"><ele>437.6666666666667</ele><time>2026-04-04T08:59:13Z</time></trkpt><trkpt lat="43.452533803396136" lon="11.441918137646704"><ele>435.0</ele><time>2026-04-04T08:59:14Z</time></trkpt><trkpt lat="43.452629955451215" lon="11.441808949851193"><ele>435.0</ele><time>2026-04-04T08:59:16Z</time></trkpt><trkpt lat="43.45269782279224" lon="11.441772895967306"><ele>435.0</ele><time>2026-04-04T08:59:17Z</time></trkpt><trkpt lat="43.452774522294746" lon="11.44165159236716"><ele>435.0</ele><time>2026-04-04T08:59:19Z</time></trkpt><trkpt lat="43.45275791635286" lon="11.441556156779576"><ele>435.0</ele><time>2026-04-04T08:59:20Z</time></trkpt><trkpt lat="43.45273650614585" lon="11.441465311217769"><ele>435.0</ele><time>2026-04-04T08:59:21Z</time></trkpt><trkpt lat="43.45266410943888" lon="11.441335507842185"><ele>435.0</ele><time>2026-04-04T08:59:23Z</time></trkpt><trkpt lat="43.45262678024462" lon="11.441259358349301"><ele>432.0</ele><time>2026-04-04T08:59:24Z</time></trkpt><trkpt lat="43.45257892701155" lon="11.441202021692275"><ele>429.0</ele><time>2026-04-04T08:59:25Z</time></trkpt><trkpt lat="43.45248525767946" lon="11.441109263307052"><ele>426.0</ele><time>2026-04-04T08:59:27Z</time></trkpt><trkpt lat="43.452417380148724" lon="11.441018938984184"><ele>423.0</ele><time>2026-04-04T08:59:29Z</time></trkpt><trkpt lat="43.45234962068441" lon="11.440918474660904"><ele>420.0</ele><time>2026-04-04T08:59:31Z</time></trkpt><trkpt lat="43.45231853545988" lon="11.44084288563387"><ele>417.0</ele><time>2026-04-04T08:59:32Z</time></trkpt><trkpt lat="43.45228413473082" lon="11.440724903573171"><ele>417.0</ele><time>2026-04-04T08:59:34Z</time></trkpt><trkpt lat="43.452183223319324" lon="11.440634010523583"><ele>417.0</ele><time>2026-04-04T08:59:36Z</time></trkpt><trkpt lat="43.45211918714902" lon="11.440536621224313"><ele>417.0</ele><time>2026-04-04T08:59:38Z</time></trkpt><trkpt lat="43.45211485147215" lon="11.440428878107912"><ele>417.0</ele><time>2026-04-04T08:59:39Z</time></trkpt><trkpt lat="43.45209271368643" lon="11.44033938873825"><ele>417.0</ele><time>2026-04-04T08:59:40Z</time></trkpt><trkpt lat="43.45206020294896" lon="11.4402489212515"><ele>417.0</ele><time>2026-04-04T08:59:42Z</time></trkpt><trkpt lat="43.4519799449959" lon="11.440188202842169"><ele>413.3333333333333</ele><time>2026-04-04T08:59:44Z</time></trkpt><trkpt lat="43.45188744781477" lon="11.440187756957986"><ele>409.66666666666663</ele><time>2026-04-04T08:59:45Z</time></trkpt><trkpt lat="43.45182213171" lon="11.440162079485754"><ele>406.0</ele><time>2026-04-04T08:59:46Z</time></trkpt><trkpt lat="43.4517588015184" lon="11.440104834149997"><ele>402.3333333333333</ele><time>2026-04-04T08:59:47Z</time></trkpt><trkpt lat="43.45162732448773" lon="11.440053796792355"><ele>398.66666666666663</ele><time>2026-04-04T08:59:50Z</time></trkpt><trkpt lat="43.45155239989448" lon="11.440040461778025"><ele>395.0</ele><time>2026-04-04T08:59:52Z</time></trkpt><trkpt lat="43.45151731016941" lon="11.439934447820814"><ele>395.0</ele><time>2026-04-04T08:59:54Z</time></trkpt><trkpt lat="43.45157178146838" lon="11.439838100863154"><ele>395.0</ele><time>2026-04-04T08:59:56Z</time></trkpt><trkpt lat="43.451692041971015" lon="11.439805118821287"><ele>395.0</ele><time>2026-04-04T08:59:58Z</time></trkpt><trkpt lat="43.451812662861265" lon="11.439754279707074"><ele>395.0</ele><time>2026-04-04T09:00:00Z</time></trkpt><trkpt lat="43.45187190288158" lon="11.439709755480973"><ele>395.0</ele><time>2026-04-04T09:00:01Z</time></trkpt><trkpt lat="43.45193031559927" lon="11.439590480198511"><ele>392.8333333333333</ele><time>2026-04-04T09:00:03Z</time></trkpt><trkpt lat="43.45195750762048" lon="11.439508144313228"><ele>390.66666666666663</ele><time>2026-04-04T09:00:04Z</time></trkpt><trkpt lat="43.45199888590688" lon="11.4393948713402"><ele>388.5</ele><time>2026-04-04T09:00:05Z</time></trkpt><trkpt lat="43.45205181594032" lon="11.43930375752299"><ele>386.3333333333333</ele><time>2026-04-04T09:00:06Z</time></trkpt><trkpt lat="43.4521064376845" lon="11.439243376462121"><ele>384.16666666666663</ele><time>2026-04-04T09:00:07Z</time></trkpt><trkpt lat="43.452175621222146" lon="11.439204617095394"><ele>382.0</ele><time>2026-04-04T09:00:08Z</time></trkpt><trkpt lat="43.4522486293657" lon="11.439191663276242"><ele>382.0</ele><time>2026-04-04T09:00:09Z</time></trkpt><trkpt lat="43.452319758255044" lon="11.439188200277664"><ele>382.0</ele><time>2026-04-04T09:00:10Z</time></trkpt><trkpt lat="43.45239651995318" lon="11.43918481369711"><ele>382.0</ele><time>2026-04-04T09:00:11Z</time></trkpt><trkpt lat="43.45246950847533" lon="11.439175728807625"><ele>382.0</ele><time>2026-04-04T09:00:12Z</time></trkpt><trkpt lat="43.45253779572233" lon="11.43916393982197"><ele>382.0</ele><time>2026-04-04T09:00:13Z</time></trkpt><trkpt lat="43.45259838453366" lon="11.439139643556853"><ele>382.0</ele><time>2026-04-04T09:00:14Z</time></trkpt><trkpt lat="43.45265526066102" lon="11.439098033746921"><ele>382.0</ele><time>2026-04-04T09:00:15Z</time></trkpt><trkpt lat="43.45271539326822" lon="11.438951141019079"><ele>382.0</ele><time>2026-04-04T09:00:17Z</time></trkpt><trkpt lat="43.45271005413447" lon="11.438852591856964"><ele>382.0</ele><time>2026-04-04T09:00:18Z</time></trkpt><trkpt lat="43.45269799285045" lon="11.438755262531007"><ele>382.0</ele><time>2026-04-04T09:00:19Z</time></trkpt><trkpt lat="43.452699098073005" lon="11.438644760803392"><ele>382.0</ele><time>2026-04-04T09:00:20Z</time></trkpt><trkpt lat="43.452704954909564" lon="11.438554263880562"><ele>382.0</ele><time>2026-04-04T09:00:21Z</time></trkpt><trkpt lat="43.452632312171005" lon="11.438394113867227"><ele>382.0</ele><time>2026-04-04T09:00:23Z</time></trkpt><trkpt lat="43.452564928818155" lon="11.438330903113142"><ele>379.40000000000003</ele><time>2026-04-04T09:00:24Z</time></trkpt><trkpt lat="43.45249155802493" lon="11.438309807562506"><ele>376.8</ele><time>2026-04-04T09:00:25Z</time></trkpt><trkpt lat="43.452402092451024" lon="11.438306023063983"><ele>374.2</ele><time>2026-04-04T09:00:26Z</time></trkpt><trkpt lat="43.452288797047096" lon="11.438304986730547"><ele>371.6</ele><time>2026-04-04T09:00:27Z</time></trkpt><trkpt lat="43.45218325967015" lon="11.438292872734428"><ele>369.0</ele><time>2026-04-04T09:00:28Z</time></trkpt><trkpt lat="43.45208041518328" lon="11.438273012972784"><ele>367.6</ele><time>2026-04-04T09:00:29Z</time></trkpt><trkpt lat="43.451975630866805" lon="11.438273853584626"><ele>366.2</ele><time>2026-04-04T09:00:30Z</time></trkpt><trkpt lat="43.45188345087171" lon="11.438312354848378"><ele>364.8</ele><time>2026-04-04T09:00:31Z</time></trkpt><trkpt lat="43.4518033010913" lon="11.438381433537797"><ele>363.40000000000003</ele><time>2026-04-04T09:00:32Z</time></trkpt><trkpt lat="43.45171941280321" lon="11.438475654845973"><ele>362.0</ele><time>2026-04-04T09:00:33Z</time></trkpt><trkpt lat="43.451615443449484" lon="11.438588114958998"><ele>362.0</ele><time>2026-04-04T09:00:34Z</time></trkpt><trkpt lat="43.451512817379765" lon="11.438706203934299"><ele>362.0</ele><time>2026-04-04T09:00:35Z</time></trkpt><trkpt lat="43.451413876755296" lon="11.438803253687604"><ele>362.0</ele><time>2026-04-04T09:00:36Z</time></trkpt><trkpt lat="43.45131714147672" lon="11.438853174446454"><ele>362.0</ele><time>2026-04-04T09:00:37Z</time></trkpt><trkpt lat="43.451223107309396" lon="11.438863793598255"><ele>361.6666666666667</ele><time>2026-04-04T09:00:38Z</time></trkpt><trkpt lat="43.45113401277525" lon="11.438853705209187"><ele>361.33333333333337</ele><time>2026-04-04T09:00:39Z</time></trkpt><trkpt lat="43.45104008937233" lon="11.43883364889047"><ele>361.0</ele><time>2026-04-04T09:00:40Z</time></trkpt><trkpt lat="43.45097445624935" lon="11.438788330085853"><ele>360.6666666666667</ele><time>2026-04-04T09:00:41Z</time></trkpt><trkpt lat="43.450917680359396" lon="11.438703597609837"><ele>360.3333333333333</ele><time>2026-04-04T09:00:42Z</time></trkpt><trkpt lat="43.45088868865242" lon="11.438607873791094"><ele>360.0</ele><time>2026-04-04T09:00:43Z</time></trkpt><trkpt lat="43.450876818415146" lon="11.438507202078362"><ele>360.0</ele><time>2026-04-04T09:00:44Z</time></trkpt><trkpt lat="43.45087329097858" lon="11.43839537270989"><ele>360.0</ele><time>2026-04-04T09:00:45Z</time></trkpt><trkpt lat="43.450877802415945" lon="11.438249356577789"><ele>360.0</ele><time>2026-04-04T09:00:46Z</time></trkpt><trkpt lat="43.45089123390049" lon="11.438076160577067"><ele>360.0</ele><time>2026-04-04T09:00:47Z</time></trkpt><trkpt lat="43.45089991497028" lon="11.437889329791478"><ele>359.75</ele><time>2026-04-04T09:00:48Z</time></trkpt><trkpt lat="43.45090578420259" lon="11.437709559198764"><ele>359.5</ele><time>2026-04-04T09:00:49Z</time></trkpt><trkpt lat="43.45091536112376" lon="11.4375405633583"><ele>359.25</ele><time>2026-04-04T09:00:50Z</time></trkpt><trkpt lat="43.45092540137425" lon="11.437357624762114"><ele>359.0</ele><time>2026-04-04T09:00:51Z</time></trkpt><trkpt lat="43.45093321999764" lon="11.437169869544633"><ele>361.0</ele><time>2026-04-04T09:00:52Z</time></trkpt><trkpt lat="43.45094669391426" lon="11.436981553282335"><ele>363.0</ele><time>2026-04-04T09:00:53Z</time></trkpt><trkpt lat="43.450979653718036" lon="11.436816821198802"><ele>365.0</ele><time>2026-04-04T09:00:54Z</time></trkpt><trkpt lat="43.45100649262546" lon="11.436694511005552"><ele>367.0</ele><time>2026-04-04T09:00:55Z</time></trkpt><trkpt lat="43.45097889955589" lon="11.436597278354181"><ele>369.0</ele><time>2026-04-04T09:00:57Z</time></trkpt><trkpt lat="43.45087003258057" lon="11.436607684669752"><ele>369.0</ele><time>2026-04-04T09:01:00Z</time></trkpt><trkpt lat="43.45080454715657" lon="11.436657133544678"><ele>369.0</ele><time>2026-04-04T09:01:01Z</time></trkpt><trkpt lat="43.450711309986474" lon="11.43673838816197"><ele>369.0</ele><time>2026-04-04T09:01:02Z</time></trkpt><trkpt lat="43.450597547650396" lon="11.436804561887211"><ele>369.0</ele><time>2026-04-04T09:01:03Z</time></trkpt><trkpt lat="43.45048295433481" lon="11.436846526282137"><ele>369.0</ele><time>2026-04-04T09:01:04Z</time></trkpt><trkpt lat="43.45038870023192" lon="11.43686670652931"><ele>371.2</ele><time>2026-04-04T09:01:05Z</time></trkpt><trkpt lat="43.45031281646276" lon="11.436872471866291"><ele>373.4</ele><time>2026-04-04T09:01:06Z</time></trkpt><trkpt lat="43.45019975446723" lon="11.43680844269245"><ele>375.6</ele><time>2026-04-04T09:01:08Z</time></trkpt><trkpt lat="43.45020373813547" lon="11.436663975632321"><ele>377.8</ele><time>2026-04-04T09:01:10Z</time></trkpt><trkpt lat="43.450242202424874" lon="11.436578046114343"><ele>380.0</ele><time>2026-04-04T09:01:11Z</time></trkpt><trkpt lat="43.45029871787756" lon="11.436483585761435"><ele>380.0</ele><time>2026-04-04T09:01:12Z</time></trkpt><trkpt lat="43.45037406342298" lon="11.436358416818873"><ele>380.0</ele><time>2026-04-04T09:01:13Z</time></trkpt><trkpt lat="43.45042869225206" lon="11.43624584898422"><ele>380.0</ele><time>2026-04-04T09:01:14Z</time></trkpt><trkpt lat="43.45045481059175" lon="11.436152971226814"><ele>380.0</ele><time>2026-04-04T09:01:15Z</time></trkpt><trkpt lat="43.45047557388246" lon="11.436044681207976"><ele>380.0</ele><time>2026-04-04T09:01:16Z</time></trkpt><trkpt lat="43.45052406679584" lon="11.43593310048514"><ele>380.0</ele><time>2026-04-04T09:01:17Z</time></trkpt><trkpt lat="43.450543267102745" lon="11.435799589075883"><ele>380.0</ele><time>2026-04-04T09:01:18Z</time></trkpt><trkpt lat="43.450579760260915" lon="11.435665744789933"><ele>380.0</ele><time>2026-04-04T09:01:19Z</time></trkpt><trkpt lat="43.450593148407236" lon="11.435505507671934"><ele>380.0</ele><time>2026-04-04T09:01:20Z</time></trkpt><trkpt lat="43.45059419071044" lon="11.435333809183032"><ele>380.0</ele><time>2026-04-04T09:01:21Z</time></trkpt><trkpt lat="43.450589706957516" lon="11.43514742654166"><ele>380.8</ele><time>2026-04-04T09:01:22Z</time></trkpt><trkpt lat="43.450583336617846" lon="11.434986610836846"><ele>381.6</ele><time>2026-04-04T09:01:23Z</time></trkpt><trkpt lat="43.450576844380905" lon="11.43484813444285"><ele>382.4</ele><time>2026-04-04T09:01:24Z</time></trkpt><trkpt lat="43.45056885421601" lon="11.434714399033536"><ele>383.2</ele><time>2026-04-04T09:01:25Z</time></trkpt><trkpt lat="43.45056470061298" lon="11.434620135378326"><ele>384.0</ele><time>2026-04-04T09:01:26Z</time></trkpt><trkpt lat="43.45057649807841" lon="11.434465570819622"><ele>384.0</ele><time>2026-04-04T09:01:28Z</time></trkpt><trkpt lat="43.45056624871386" lon="11.434350182487268"><ele>384.0</ele><time>2026-04-04T09:01:29Z</time></trkpt><trkpt lat="43.45053082563806" lon="11.434205729658942"><ele>384.0</ele><time>2026-04-04T09:01:30Z</time></trkpt><trkpt lat="43.45046053631665" lon="11.43403888922444"><ele>384.0</ele><time>2026-04-04T09:01:31Z</time></trkpt><trkpt lat="43.45040150011292" lon="11.433872591076286"><ele>387.5</ele><time>2026-04-04T09:01:32Z</time></trkpt><trkpt lat="43.45036799549446" lon="11.433687809231813"><ele>391.0</ele><time>2026-04-04T09:01:33Z</time></trkpt><trkpt lat="43.45032645144421" lon="11.433499572853226"><ele>394.5</ele><time>2026-04-04T09:01:34Z</time></trkpt><trkpt lat="43.450327925679524" lon="11.433295528267374"><ele>398.0</ele><time>2026-04-04T09:01:35Z</time></trkpt><trkpt lat="43.45034054052246" lon="11.43309465473772"><ele>397.25</ele><time>2026-04-04T09:01:36Z</time></trkpt><trkpt lat="43.45035746147282" lon="11.432885601197555"><ele>396.5</ele><time>2026-04-04T09:01:37Z</time></trkpt><trkpt lat="43.450376061460695" lon="11.43269117768327"><ele>395.75</ele><time>2026-04-04T09:01:38Z</time></trkpt><trkpt lat="43.45039170145885" lon="11.432507971364252"><ele>395.0</ele><time>2026-04-04T09:01:39Z</time></trkpt><trkpt lat="43.450402622562486" lon="11.432332588782126"><ele>395.0</ele><time>2026-04-04T09:01:40Z</time></trkpt><trkpt lat="43.450424422016134" lon="11.432158270798647"><ele>395.0</ele><time>2026-04-04T09:01:41Z</time></trkpt><trkpt lat="43.45047576594898" lon="11.432000216158675"><ele>395.0</ele><time>2026-04-04T09:01:42Z</time></trkpt><trkpt lat="43.45055469888492" lon="11.431850726156807"><ele>395.0</ele><time>2026-04-04T09:01:43Z</time></trkpt><trkpt lat="43.45064045120595" lon="11.431715951479502"><ele>390.0</ele><time>2026-04-04T09:01:44Z</time></trkpt><trkpt lat="43.4507141128678" lon="11.431582991682138"><ele>385.0</ele><time>2026-04-04T09:01:45Z</time></trkpt><trkpt lat="43.4507794774648" lon="11.431437672204781"><ele>380.0</ele><time>2026-04-04T09:01:46Z</time></trkpt><trkpt lat="43.4508467810561" lon="11.431293249659138"><ele>375.0</ele><time>2026-04-04T09:01:47Z</time></trkpt><trkpt lat="43.45084912664021" lon="11.431111503375357"><ele>374.75</ele><time>2026-04-04T09:01:48Z</time></trkpt><trkpt lat="43.45083111430608" lon="11.430943067760147"><ele>374.5</ele><time>2026-04-04T09:01:49Z</time></trkpt><trkpt lat="43.450792941557296" lon="11.430760630490798"><ele>374.25</ele><time>2026-04-04T09:01:50Z</time></trkpt><trkpt lat="43.45076172779376" lon="11.43058604239207"><ele>374.0</ele><time>2026-04-04T09:01:51Z</time></trkpt><trkpt lat="43.450752424137995" lon="11.430410069955498"><ele>373.25</ele><time>2026-04-04T09:01:52Z</time></trkpt><trkpt lat="43.45076462957763" lon="11.430234734345367"><ele>372.5</ele><time>2026-04-04T09:01:53Z</time></trkpt><trkpt lat="43.45082517196292" lon="11.430069255715322"><ele>371.75</ele><time>2026-04-04T09:01:54Z</time></trkpt><trkpt lat="43.45087482686786" lon="11.429882855264857"><ele>371.0</ele><time>2026-04-04T09:01:55Z</time></trkpt><trkpt lat="43.450967775228584" lon="11.429740516548156"><ele>370.75</ele><time>2026-04-04T09:01:56Z</time></trkpt><trkpt lat="43.451042840805705" lon="11.429606853988103"><ele>370.5</ele><time>2026-04-04T09:01:57Z</time></trkpt><trkpt lat="43.45108487662812" lon="11.429450824901663"><ele>370.25</ele><time>2026-04-04T09:01:58Z</time></trkpt><trkpt lat="43.451070777520364" lon="11.429284617223816"><ele>370.0</ele><time>2026-04-04T09:01:59Z</time></trkpt><trkpt lat="43.451040440152696" lon="11.429116643427708"><ele>370.0</ele><time>2026-04-04T09:02:00Z</time></trkpt><trkpt lat="43.45100382680446" lon="11.428963404468155"><ele>370.0</ele><time>2026-04-04T09:02:01Z</time></trkpt><trkpt lat="43.45097136732713" lon="11.428815166867427"><ele>370.0</ele><time>2026-04-04T09:02:02Z</time></trkpt><trkpt lat="43.45095417333297" lon="11.428662311580329"><ele>370.0</ele><time>2026-04-04T09:02:03Z</time></trkpt><trkpt lat="43.45096204029869" lon="11.428491714587926"><ele>369.66666666666663</ele><time>2026-04-04T09:02:04Z</time></trkpt><trkpt lat="43.451031897374044" lon="11.428304476718507"><ele>369.3333333333333</ele><time>2026-04-04T09:02:05Z</time></trkpt><trkpt lat="43.45114299281932" lon="11.42816121290813"><ele>369.0</ele><time>2026-04-04T09:02:06Z</time></trkpt><trkpt lat="43.45127476654256" lon="11.428061978969284"><ele>366.0</ele><time>2026-04-04T09:02:07Z</time></trkpt><trkpt lat="43.45141093555814" lon="11.427976128926673"><ele>363.0</ele><time>2026-04-04T09:02:08Z</time></trkpt><trkpt lat="43.451533223646635" lon="11.427912089734253"><ele>360.0</ele><time>2026-04-04T09:02:09Z</time></trkpt><trkpt lat="43.45164614486342" lon="11.4278610193024"><ele>357.0</ele><time>2026-04-04T09:02:10Z</time></trkpt><trkpt lat="43.45175462219888" lon="11.427814908788221"><ele>357.0</ele><time>2026-04-04T09:02:11Z</time></trkpt><trkpt lat="43.45185489614479" lon="11.427773455595515"><ele>357.0</ele><time>2026-04-04T09:02:12Z</time></trkpt><trkpt lat="43.4519460678494" lon="11.427718598951495"><ele>357.0</ele><time>2026-04-04T09:02:13Z</time></trkpt><trkpt lat="43.45203484979946" lon="11.427666682131598"><ele>357.0</ele><time>2026-04-04T09:02:14Z</time></trkpt><trkpt lat="43.4521149949502" lon="11.42761910090744"><ele>357.0</ele><time>2026-04-04T09:02:15Z</time></trkpt><trkpt lat="43.452183816589006" lon="11.427573444747368"><ele>357.0</ele><time>2026-04-04T09:02:16Z</time></trkpt><trkpt lat="43.452136291216675" lon="11.427295613965539"><ele>357.0</ele><time>2026-04-04T09:02:20Z</time></trkpt><trkpt lat="43.45209076918255" lon="11.42718346085062"><ele>357.0</ele><time>2026-04-04T09:02:21Z</time></trkpt><trkpt lat="43.45203614752753" lon="11.427047269723646"><ele>357.0</ele><time>2026-04-04T09:02:22Z</time></trkpt><trkpt lat="43.451964723531205" lon="11.426868547970624"><ele>357.75</ele><time>2026-04-04T09:02:23Z</time></trkpt><trkpt lat="43.45188223445413" lon="11.426679208978186"><ele>358.5</ele><time>2026-04-04T09:02:24Z</time></trkpt><trkpt lat="43.451794416901436" lon="11.426526354611864"><ele>359.25</ele><time>2026-04-04T09:02:25Z</time></trkpt><trkpt lat="43.45175596427554" lon="11.426385529932707"><ele>360.0</ele><time>2026-04-04T09:02:26Z</time></trkpt><trkpt lat="43.45172689305304" lon="11.426271760404724"><ele>360.5</ele><time>2026-04-04T09:02:27Z</time></trkpt><trkpt lat="43.45170995181857" lon="11.426115396482887"><ele>361.0</ele><time>2026-04-04T09:02:28Z</time></trkpt><trkpt lat="43.45168735768273" lon="11.425918382002834"><ele>361.5</ele><time>2026-04-04T09:02:29Z</time></trkpt><trkpt lat="43.45169381703922" lon="11.42575664591811"><ele>362.0</ele><time>2026-04-04T09:02:30Z</time></trkpt><trkpt lat="43.45168907722773" lon="11.425627983336067"><ele>362.0</ele><time>2026-04-04T09:02:31Z</time></trkpt><trkpt lat="43.45167626373829" lon="11.425527328507831"><ele>362.0</ele><time>2026-04-04T09:02:32Z</time></trkpt><trkpt lat="43.45164921097087" lon="11.42543054704129"><ele>362.0</ele><time>2026-04-04T09:02:33Z</time></trkpt><trkpt lat="43.4516174800339" lon="11.425353465606353"><ele>362.0</ele><time>2026-04-04T09:02:34Z</time></trkpt><trkpt lat="43.45157979432879" lon="11.425281447336296"><ele>362.0</ele><time>2026-04-04T09:02:36Z</time></trkpt><trkpt lat="43.45161746674481" lon="11.425392970084344"><ele>362.0</ele><time>2026-04-04T09:03:15Z</time></trkpt><trkpt lat="43.451659953245496" lon="11.425539330070533"><ele>362.0</ele><time>2026-04-04T09:03:16Z</time></trkpt><trkpt lat="43.451656409647086" lon="11.425673066100082"><ele>362.0</ele><time>2026-04-04T09:03:17Z</time></trkpt><trkpt lat="43.451631910035374" lon="11.425803611666643"><ele>362.0</ele><time>2026-04-04T09:03:18Z</time></trkpt><trkpt lat="43.451600537489846" lon="11.425938850567873"><ele>362.0</ele><time>2026-04-04T09:03:19Z</time></trkpt><trkpt lat="43.45169981333821" lon="11.425990483458493"><ele>362.0</ele><time>2026-04-04T09:03:20Z</time></trkpt><trkpt lat="43.451700797295" lon="11.426109633706824"><ele>362.0</ele><time>2026-04-04T09:03:21Z</time></trkpt><trkpt lat="43.45170244055143" lon="11.42622547012845"><ele>362.0</ele><time>2026-04-04T09:03:22Z</time></trkpt><trkpt lat="43.451712550704165" lon="11.426329265098978"><ele>362.0</ele><time>2026-04-04T09:03:23Z</time></trkpt><trkpt lat="43.45174165684909" lon="11.426429051821549"><ele>362.0</ele><time>2026-04-04T09:03:24Z</time></trkpt><trkpt lat="43.45178648108594" lon="11.426527681297587"><ele>362.0</ele><time>2026-04-04T09:03:25Z</time></trkpt><trkpt lat="43.451830406545504" lon="11.426634379970366"><ele>362.0</ele><time>2026-04-04T09:03:26Z</time></trkpt><trkpt lat="43.451877636880155" lon="11.426739892739821"><ele>361.6666666666667</ele><time>2026-04-04T09:03:27Z</time></trkpt><trkpt lat="43.45192970917302" lon="11.426839429396004"><ele>361.33333333333337</ele><time>2026-04-04T09:03:28Z</time></trkpt><trkpt lat="43.45197089872911" lon="11.426948773011077"><ele>361.0</ele><time>2026-04-04T09:03:29Z</time></trkpt><trkpt lat="43.452009828582746" lon="11.427061845086158"><ele>360.6666666666667</ele><time>2026-04-04T09:03:30Z</time></trkpt><trkpt lat="43.45205746111919" lon="11.427167032191413"><ele>360.3333333333333</ele><time>2026-04-04T09:03:30.999Z</time></trkpt><trkpt lat="43.45210496254342" lon="11.427270975909785"><ele>360.0</ele><time>2026-04-04T09:03:31.999Z</time></trkpt><trkpt lat="43.45214375908007" lon="11.427374943117282"><ele>357.6666666666667</ele><time>2026-04-04T09:03:32.999Z</time></trkpt><trkpt lat="43.4521815525495" lon="11.427463493781405"><ele>355.3333333333333</ele><time>2026-04-04T09:03:33.999Z</time></trkpt><trkpt lat="43.45224678217144" lon="11.427543739986918"><ele>353.0</ele><time>2026-04-04T09:03:35.999Z</time></trkpt><trkpt lat="43.45232260980306" lon="11.42753339793668"><ele>350.66666666666663</ele><time>2026-04-04T09:03:37.999Z</time></trkpt><trkpt lat="43.45239256934451" lon="11.42748796677778"><ele>348.3333333333333</ele><time>2026-04-04T09:03:38.999Z</time></trkpt><trkpt lat="43.452477952910414" lon="11.427394714351786"><ele>346.0</ele><time>2026-04-04T09:03:39.999Z</time></trkpt><trkpt lat="43.45256808002667" lon="11.427260811205493"><ele>346.25</ele><time>2026-04-04T09:03:40.999Z</time></trkpt><trkpt lat="43.452665486846655" lon="11.42710162466185"><ele>346.5</ele><time>2026-04-04T09:03:41.999Z</time></trkpt><trkpt lat="43.45276873034728" lon="11.426956951773416"><ele>346.75</ele><time>2026-04-04T09:03:42.999Z</time></trkpt><trkpt lat="43.452876249746915" lon="11.426813578519415"><ele>347.0</ele><time>2026-04-04T09:03:43.999Z</time></trkpt><trkpt lat="43.45297406646221" lon="11.426683269533882"><ele>345.0</ele><time>2026-04-04T09:03:44.999Z</time></trkpt><trkpt lat="43.45306976358433" lon="11.426554650389905"><ele>343.0</ele><time>2026-04-04T09:03:45.999Z</time></trkpt><trkpt lat="43.453161569939574" lon="11.426428293907447"><ele>341.0</ele><time>2026-04-04T09:03:46.999Z</time></trkpt><trkpt lat="43.45324852948229" lon="11.426303521966735"><ele>339.0</ele><time>2026-04-04T09:03:47.999Z</time></trkpt><trkpt lat="43.453336837589646" lon="11.426195761385644"><ele>339.0</ele><time>2026-04-04T09:03:48.999Z</time></trkpt><trkpt lat="43.453419746536795" lon="11.426061834252721"><ele>339.0</ele><time>2026-04-04T09:03:49.999Z</time></trkpt><trkpt lat="43.453499743820885" lon="11.425937704008346"><ele>339.0</ele><time>2026-04-04T09:03:50.999Z</time></trkpt><trkpt lat="43.45358306021965" lon="11.42581615808581"><ele>339.0</ele><time>2026-04-04T09:03:51.999Z</time></trkpt><trkpt lat="43.45366861966544" lon="11.425701032056246"><ele>339.0</ele><time>2026-04-04T09:03:52.999Z</time></trkpt><trkpt lat="43.45375185979778" lon="11.425584328250268"><ele>339.0</ele><time>2026-04-04T09:03:53.999Z</time></trkpt><trkpt lat="43.453829358319965" lon="11.425467632789564"><ele>339.0</ele><time>2026-04-04T09:03:54.999Z</time></trkpt><trkpt lat="43.45390550654116" lon="11.425347146131392"><ele>339.0</ele><time>2026-04-04T09:03:55.999Z</time></trkpt><trkpt lat="43.453977536606025" lon="11.425233984542873"><ele>337.25</ele><time>2026-04-04T09:03:56.999Z</time></trkpt><trkpt lat="43.454055065774064" lon="11.425119341989376"><ele>335.5</ele><time>2026-04-04T09:03:57.999Z</time></trkpt><trkpt lat="43.4541262240697" lon="11.425005398828946"><ele>333.75</ele><time>2026-04-04T09:03:58.999Z</time></trkpt><trkpt lat="43.454208593469325" lon="11.424891317113453"><ele>332.0</ele><time>2026-04-04T09:03:59.999Z</time></trkpt><trkpt lat="43.45428551742685" lon="11.424765216738281"><ele>331.75</ele><time>2026-04-04T09:04:00.999Z</time></trkpt><trkpt lat="43.45436364951963" lon="11.42463233926956"><ele>331.5</ele><time>2026-04-04T09:04:01.999Z</time></trkpt><trkpt lat="43.45443282003349" lon="11.424485669688332"><ele>331.25</ele><time>2026-04-04T09:04:02.999Z</time></trkpt><trkpt lat="43.45450153203336" lon="11.424359070768691"><ele>331.0</ele><time>2026-04-04T09:04:03.999Z</time></trkpt><trkpt lat="43.45456211748386" lon="11.424246958760337"><ele>331.4</ele><time>2026-04-04T09:04:04.999Z</time></trkpt><trkpt lat="43.45462219183872" lon="11.424139871768883"><ele>331.8</ele><time>2026-04-04T09:04:05.999Z</time></trkpt><trkpt lat="43.45468366805078" lon="11.424067052772939"><ele>332.2</ele><time>2026-04-04T09:04:06.999Z</time></trkpt><trkpt lat="43.454749751638715" lon="11.423998783942487"><ele>332.59999999999997</ele><time>2026-04-04T09:04:08.999Z</time></trkpt><trkpt lat="43.454846389246676" lon="11.424075288593926"><ele>333.0</ele><time>2026-04-04T09:04:10.999Z</time></trkpt><trkpt lat="43.45494105020736" lon="11.424177816514739"><ele>333.0</ele><time>2026-04-04T09:04:11.999Z</time></trkpt><trkpt lat="43.45506189240892" lon="11.424310770598575"><ele>333.0</ele><time>2026-04-04T09:04:12.999Z</time></trkpt><trkpt lat="43.45520553478689" lon="11.424465249571568"><ele>333.0</ele><time>2026-04-04T09:04:13.999Z</time></trkpt><trkpt lat="43.45536228615204" lon="11.424643737202397"><ele>334.3333333333333</ele><time>2026-04-04T09:04:14.999Z</time></trkpt><trkpt lat="43.45552812112973" lon="11.424819256578868"><ele>335.66666666666663</ele><time>2026-04-04T09:04:15.999Z</time></trkpt><trkpt lat="43.455693075823376" lon="11.424975679981314"><ele>337.0</ele><time>2026-04-04T09:04:16.999Z</time></trkpt><trkpt lat="43.455831597845666" lon="11.425125878046979"><ele>337.0</ele><time>2026-04-04T09:04:17.999Z</time></trkpt><trkpt lat="43.455949022903795" lon="11.425259831559053"><ele>337.0</ele><time>2026-04-04T09:04:18.999Z</time></trkpt><trkpt lat="43.456069941456" lon="11.425381316572567"><ele>337.0</ele><time>2026-04-04T09:04:19.999Z</time></trkpt><trkpt lat="43.456188315865454" lon="11.42547942660785"><ele>337.0</ele><time>2026-04-04T09:04:20.999Z</time></trkpt><trkpt lat="43.456318058523344" lon="11.425542905057025"><ele>338.25</ele><time>2026-04-04T09:04:21.999Z</time></trkpt><trkpt lat="43.45645718630226" lon="11.425565468157254"><ele>339.5</ele><time>2026-04-04T09:04:22.999Z</time></trkpt><trkpt lat="43.45661217913173" lon="11.42556452900055"><ele>340.75</ele><time>2026-04-04T09:04:23.999Z</time></trkpt><trkpt lat="43.456762474778635" lon="11.425560483051457"><ele>342.0</ele><time>2026-04-04T09:04:24.999Z</time></trkpt><trkpt lat="43.45691202050087" lon="11.425581851008575"><ele>342.0</ele><time>2026-04-04T09:04:25.999Z</time></trkpt><trkpt lat="43.45705906598026" lon="11.425634613111207"><ele>342.0</ele><time>2026-04-04T09:04:26.999Z</time></trkpt><trkpt lat="43.457193029591416" lon="11.425690668724046"><ele>342.0</ele><time>2026-04-04T09:04:27.999Z</time></trkpt><trkpt lat="43.4573201954341" lon="11.425742554470677"><ele>342.0</ele><time>2026-04-04T09:04:28.999Z</time></trkpt><trkpt lat="43.457450973916416" lon="11.425794498911323"><ele>340.8</ele><time>2026-04-04T09:04:29.999Z</time></trkpt><trkpt lat="43.45757328321694" lon="11.425849566774748"><ele>339.6</ele><time>2026-04-04T09:04:30.999Z</time></trkpt><trkpt lat="43.4576883840707" lon="11.4259013265461"><ele>338.40000000000003</ele><time>2026-04-04T09:04:31.999Z</time></trkpt><trkpt lat="43.45778992532375" lon="11.425943964109571"><ele>337.20000000000005</ele><time>2026-04-04T09:04:32.999Z</time></trkpt><trkpt lat="43.457865283227015" lon="11.42597053148579"><ele>336.0</ele><time>2026-04-04T09:04:33.999Z</time></trkpt><trkpt lat="43.45793452129386" lon="11.426017400311098"><ele>336.0</ele><time>2026-04-04T09:04:35.999Z</time></trkpt><trkpt lat="43.457991189299264" lon="11.425825454919556"><ele>336.0</ele><time>2026-04-04T09:04:37.999Z</time></trkpt><trkpt lat="43.45801563866274" lon="11.425719908461948"><ele>336.0</ele><time>2026-04-04T09:04:38.999Z</time></trkpt><trkpt lat="43.45802979338849" lon="11.425600869011737"><ele>336.0</ele><time>2026-04-04T09:04:39.999Z</time></trkpt><trkpt lat="43.458023574795284" lon="11.425512948442691"><ele>336.0</ele><time>2026-04-04T09:04:40.999Z</time></trkpt><trkpt lat="43.45794709877985" lon="11.42540023069468"><ele>337.8</ele><time>2026-04-04T09:04:42.999Z</time></trkpt><trkpt lat="43.45786893077545" lon="11.425350983023376"><ele>339.6</ele><time>2026-04-04T09:04:43.999Z</time></trkpt><trkpt lat="43.45778104462003" lon="11.425315351897668"><ele>341.4</ele><time>2026-04-04T09:04:44.999Z</time></trkpt><trkpt lat="43.457702431148" lon="11.425272436514211"><ele>343.2</ele><time>2026-04-04T09:04:45.999Z</time></trkpt><trkpt lat="43.45761201858314" lon="11.42521872081377"><ele>345.0</ele><time>2026-04-04T09:04:46.999Z</time></trkpt><trkpt lat="43.45752110239605" lon="11.425164705901775"><ele>345.0</ele><time>2026-04-04T09:04:47.999Z</time></trkpt><trkpt lat="43.457424170976054" lon="11.425113706428968"><ele>345.0</ele><time>2026-04-04T09:04:48.999Z</time></trkpt><trkpt lat="43.45733059029041" lon="11.425068371630298"><ele>345.0</ele><time>2026-04-04T09:04:49.999Z</time></trkpt><trkpt lat="43.45725364426955" lon="11.42501975973177"><ele>345.0</ele><time>2026-04-04T09:04:50.999Z</time></trkpt><trkpt lat="43.45719390653694" lon="11.424961952756272"><ele>345.0</ele><time>2026-04-04T09:04:51.999Z</time></trkpt><trkpt lat="43.45714749547603" lon="11.424883226670989"><ele>345.0</ele><time>2026-04-04T09:04:52.999Z</time></trkpt><trkpt lat="43.45713719102847" lon="11.424746779751656"><ele>346.8</ele><time>2026-04-04T09:04:53.999Z</time></trkpt><trkpt lat="43.45711124862381" lon="11.424618900187706"><ele>348.6</ele><time>2026-04-04T09:04:54.999Z</time></trkpt><trkpt lat="43.45706829447074" lon="11.424497666350963"><ele>350.4</ele><time>2026-04-04T09:04:55.999Z</time></trkpt><trkpt lat="43.457014048866796" lon="11.42438532755536"><ele>352.2</ele><time>2026-04-04T09:04:56.999Z</time></trkpt><trkpt lat="43.45695013674157" lon="11.424270379444565"><ele>354.0</ele><time>2026-04-04T09:04:57.999Z</time></trkpt><trkpt lat="43.456878049022684" lon="11.424157536286987"><ele>354.0</ele><time>2026-04-04T09:04:58.999Z</time></trkpt><trkpt lat="43.45680551864651" lon="11.424045889805821"><ele>354.0</ele><time>2026-04-04T09:04:59.999Z</time></trkpt><trkpt lat="43.456737066556904" lon="11.423940521917816"><ele>354.0</ele><time>2026-04-04T09:05:00.999Z</time></trkpt><trkpt lat="43.45667422447147" lon="11.423843104915317"><ele>354.0</ele><time>2026-04-04T09:05:01.999Z</time></trkpt><trkpt lat="43.45661257327442" lon="11.423754708529259"><ele>354.0</ele><time>2026-04-04T09:05:02.999Z</time></trkpt><trkpt lat="43.45657161674363" lon="11.423675904619499"><ele>355.6</ele><time>2026-04-04T09:05:03.999Z</time></trkpt><trkpt lat="43.456568553281315" lon="11.42352681717558"><ele>357.2</ele><time>2026-04-04T09:05:05.999Z</time></trkpt><trkpt lat="43.456654356609356" lon="11.423425209571839"><ele>358.8</ele><time>2026-04-04T09:05:07.999Z</time></trkpt><trkpt lat="43.456770911908045" lon="11.423373145340921"><ele>360.40000000000003</ele><time>2026-04-04T09:05:09.999Z</time></trkpt><trkpt lat="43.45683233765109" lon="11.423318461855455"><ele>362.0</ele><time>2026-04-04T09:05:10.999Z</time></trkpt><trkpt lat="43.45690019671478" lon="11.423250520695719"><ele>362.0</ele><time>2026-04-04T09:05:11.999Z</time></trkpt><trkpt lat="43.45698180329771" lon="11.423176766990268"><ele>362.0</ele><time>2026-04-04T09:05:12.999Z</time></trkpt><trkpt lat="43.45706690546409" lon="11.423123785475973"><ele>362.0</ele><time>2026-04-04T09:05:13.999Z</time></trkpt><trkpt lat="43.45716398944932" lon="11.423056343021052"><ele>362.0</ele><time>2026-04-04T09:05:14.999Z</time></trkpt><trkpt lat="43.45725993659941" lon="11.422963997284935"><ele>362.0</ele><time>2026-04-04T09:05:15.999Z</time></trkpt><trkpt lat="43.45736048824896" lon="11.42286110698873"><ele>364.25</ele><time>2026-04-04T09:05:16.999Z</time></trkpt><trkpt lat="43.45747477534283" lon="11.422771872763875"><ele>366.5</ele><time>2026-04-04T09:05:17.999Z</time></trkpt><trkpt lat="43.45758507167868" lon="11.422657362224674"><ele>368.75</ele><time>2026-04-04T09:05:18.999Z</time></trkpt><trkpt lat="43.457698239357946" lon="11.422551501319345"><ele>371.0</ele><time>2026-04-04T09:05:19.999Z</time></trkpt><trkpt lat="43.457813137742626" lon="11.42246144039037"><ele>371.0</ele><time>2026-04-04T09:05:20.999Z</time></trkpt><trkpt lat="43.45791697615118" lon="11.422350854057022"><ele>371.0</ele><time>2026-04-04T09:05:21.999Z</time></trkpt><trkpt lat="43.45801269119001" lon="11.422245028851476"><ele>371.0</ele><time>2026-04-04T09:05:22.999Z</time></trkpt><trkpt lat="43.458109645537576" lon="11.422138361167445"><ele>371.0</ele><time>2026-04-04T09:05:23.999Z</time></trkpt><trkpt lat="43.4582032731239" lon="11.422044813109466"><ele>372.5</ele><time>2026-04-04T09:05:24.999Z</time></trkpt><trkpt lat="43.458305690806135" lon="11.421945962876363"><ele>374.0</ele><time>2026-04-04T09:05:25.999Z</time></trkpt><trkpt lat="43.458417267171754" lon="11.42185164669066"><ele>375.5</ele><time>2026-04-04T09:05:26.999Z</time></trkpt><trkpt lat="43.458534461349664" lon="11.421757945170139"><ele>377.0</ele><time>2026-04-04T09:05:27.999Z</time></trkpt><trkpt lat="43.45864567446389" lon="11.421668912316385"><ele>377.0</ele><time>2026-04-04T09:05:28.999Z</time></trkpt><trkpt lat="43.458752295284114" lon="11.42158326393483"><ele>377.0</ele><time>2026-04-04T09:05:29.999Z</time></trkpt><trkpt lat="43.458847791257725" lon="11.421509161592024"><ele>377.0</ele><time>2026-04-04T09:05:30.999Z</time></trkpt><trkpt lat="43.458934960913695" lon="11.421453509896901"><ele>377.0</ele><time>2026-04-04T09:05:31.999Z</time></trkpt><trkpt lat="43.45902414785257" lon="11.421427866275353"><ele>377.0</ele><time>2026-04-04T09:05:32.999Z</time></trkpt><trkpt lat="43.45908762146046" lon="11.421406145086403"><ele>377.8</ele><time>2026-04-04T09:05:33.999Z</time></trkpt><trkpt lat="43.45917453873531" lon="11.421452003336407"><ele>378.6</ele><time>2026-04-04T09:05:34.999Z</time></trkpt><trkpt lat="43.459271171175025" lon="11.421462219217156"><ele>379.40000000000003</ele><time>2026-04-04T09:05:35.999Z</time></trkpt><trkpt lat="43.459362298438926" lon="11.421459906877034"><ele>380.20000000000005</ele><time>2026-04-04T09:05:36.999Z</time></trkpt><trkpt lat="43.45945209809249" lon="11.421439473297902"><ele>381.0</ele><time>2026-04-04T09:05:37.999Z</time></trkpt><trkpt lat="43.45954734028799" lon="11.421446443354135"><ele>381.1666666666667</ele><time>2026-04-04T09:05:38.999Z</time></trkpt><trkpt lat="43.459643855121804" lon="11.421444640015798"><ele>381.3333333333333</ele><time>2026-04-04T09:05:39.999Z</time></trkpt><trkpt lat="43.459732883665524" lon="11.421441234606583"><ele>381.5</ele><time>2026-04-04T09:05:40.999Z</time></trkpt><trkpt lat="43.45981320682953" lon="11.421439809735679"><ele>381.66666666666663</ele><time>2026-04-04T09:05:41.999Z</time></trkpt><trkpt lat="43.45990094463283" lon="11.421444801291345"><ele>381.8333333333333</ele><time>2026-04-04T09:05:42.999Z</time></trkpt><trkpt lat="43.4599920214442" lon="11.421428315150607"><ele>382.0</ele><time>2026-04-04T09:05:43.999Z</time></trkpt><trkpt lat="43.46008305852728" lon="11.421444567936707"><ele>382.0</ele><time>2026-04-04T09:05:44.999Z</time></trkpt><trkpt lat="43.46015604302607" lon="11.42146493069314"><ele>382.0</ele><time>2026-04-04T09:05:45.999Z</time></trkpt><trkpt lat="43.46023163553983" lon="11.42147315718205"><ele>382.0</ele><time>2026-04-04T09:05:46.999Z</time></trkpt><trkpt lat="43.46032020973242" lon="11.421463651467056"><ele>382.0</ele><time>2026-04-04T09:05:48.999Z</time></trkpt><trkpt lat="43.460312113694975" lon="11.421036193036349"><ele>382.16666666666663</ele><time>2026-04-04T09:05:49.999Z</time></trkpt><trkpt lat="43.4603048359526" lon="11.420920548431663"><ele>382.3333333333333</ele><time>2026-04-04T09:05:50.999Z</time></trkpt><trkpt lat="43.46031641293973" lon="11.420824500366924"><ele>382.5</ele><time>2026-04-04T09:05:51.999Z</time></trkpt><trkpt lat="43.46032502303088" lon="11.42071884165575"><ele>382.6666666666667</ele><time>2026-04-04T09:05:52.999Z</time></trkpt><trkpt lat="43.46035023656548" lon="11.420632866004382"><ele>382.83333333333337</ele><time>2026-04-04T09:05:53.999Z</time></trkpt><trkpt lat="43.46039493623939" lon="11.42055611577516"><ele>383.0</ele><time>2026-04-04T09:05:54.999Z</time></trkpt><trkpt lat="43.460484159727535" lon="11.42049661176192"><ele>384.83333333333337</ele><time>2026-04-04T09:05:56.999Z</time></trkpt><trkpt lat="43.46053254166755" lon="11.420431662696439"><ele>386.6666666666667</ele><time>2026-04-04T09:06:12.999Z</time></trkpt><trkpt lat="43.460590233839504" lon="11.420363791519536"><ele>388.5</ele><time>2026-04-04T09:06:13.999Z</time></trkpt><trkpt lat="43.460657250682424" lon="11.420294509491296"><ele>390.33333333333337</ele><time>2026-04-04T09:06:14.999Z</time></trkpt><trkpt lat="43.46072772353572" lon="11.420220134742353"><ele>392.1666666666667</ele><time>2026-04-04T09:06:15.999Z</time></trkpt><trkpt lat="43.460785741559214" lon="11.420173893486924"><ele>394.0</ele><time>2026-04-04T09:06:16.999Z</time></trkpt><trkpt lat="43.46086879689984" lon="11.420146693817799"><ele>394.00000000000006</ele><time>2026-04-04T09:06:17.999Z</time></trkpt><trkpt lat="43.46094621093672" lon="11.420141580731743"><ele>394.0</ele><time>2026-04-04T09:06:18.999Z</time></trkpt><trkpt lat="43.4610190059393" lon="11.420132520199198"><ele>394.0</ele><time>2026-04-04T09:06:19.999Z</time></trkpt><trkpt lat="43.461126407624995" lon="11.420081799712277"><ele>394.0</ele><time>2026-04-04T09:06:21.999Z</time></trkpt><trkpt lat="43.4611571016527" lon="11.41995556698432"><ele>394.00000000000006</ele><time>2026-04-04T09:06:23.999Z</time></trkpt><trkpt lat="43.46114531371166" lon="11.41986719719306"><ele>394.0</ele><time>2026-04-04T09:06:24.999Z</time></trkpt><trkpt lat="43.46114709818018" lon="11.419733929855992"><ele>394.2</ele><time>2026-04-04T09:06:25.999Z</time></trkpt><trkpt lat="43.461165468853125" lon="11.41959278981336"><ele>394.4</ele><time>2026-04-04T09:06:26.999Z</time></trkpt><trkpt lat="43.4611798071631" lon="11.419420744985779"><ele>394.6</ele><time>2026-04-04T09:06:27.999Z</time></trkpt><trkpt lat="43.46119119545108" lon="11.419290517538974"><ele>394.8</ele><time>2026-04-04T09:06:28.999Z</time></trkpt><trkpt lat="43.461203908151376" lon="11.41918758176417"><ele>395.0</ele><time>2026-04-04T09:06:29.999Z</time></trkpt><trkpt lat="43.461216407512524" lon="11.419076012634664"><ele>394.99999999999994</ele><time>2026-04-04T09:06:30.999Z</time></trkpt><trkpt lat="43.46122909762417" lon="11.418989860874236"><ele>395.0</ele><time>2026-04-04T09:06:31.999Z</time></trkpt><trkpt lat="43.46125611212906" lon="11.418848043486081"><ele>395.0</ele><time>2026-04-04T09:06:33.999Z</time></trkpt><trkpt lat="43.46130982229441" lon="11.418695987108137"><ele>395.0</ele><time>2026-04-04T09:06:35.999Z</time></trkpt><trkpt lat="43.46136563670493" lon="11.41862606303515"><ele>394.99999999999994</ele><time>2026-04-04T09:06:36.999Z</time></trkpt><trkpt lat="43.4614304573549" lon="11.418583013678688"><ele>395.0</ele><time>2026-04-04T09:06:38.999Z</time></trkpt><trkpt lat="43.461530414443516" lon="11.418533780587216"><ele>397.4</ele><time>2026-04-04T09:06:54.999Z</time></trkpt><trkpt lat="43.4615980051462" lon="11.418489292784571"><ele>399.8</ele><time>2026-04-04T09:06:55.999Z</time></trkpt><trkpt lat="43.46169612061944" lon="11.418373052559595"><ele>402.20000000000005</ele><time>2026-04-04T09:06:57.999Z</time></trkpt><trkpt lat="43.461767805870224" lon="11.418282437117641"><ele>404.6</ele><time>2026-04-04T09:06:58.999Z</time></trkpt><trkpt lat="43.461831374061504" lon="11.418208531698351"><ele>407.0</ele><time>2026-04-04T09:06:59.999Z</time></trkpt><trkpt lat="43.461942572824256" lon="11.418070844382308"><ele>407.49999999999994</ele><time>2026-04-04T09:07:01.999Z</time></trkpt><trkpt lat="43.46199552884854" lon="11.417965655034163"><ele>408.0</ele><time>2026-04-04T09:07:02.999Z</time></trkpt><trkpt lat="43.46203935997696" lon="11.417852904108573"><ele>408.5</ele><time>2026-04-04T09:07:03.999Z</time></trkpt><trkpt lat="43.46209688901566" lon="11.417771760220633"><ele>409.0</ele><time>2026-04-04T09:07:04.999Z</time></trkpt><trkpt lat="43.46216330846685" lon="11.417694557066232"><ele>409.49999999999994</ele><time>2026-04-04T09:07:05.999Z</time></trkpt><trkpt lat="43.46222825067151" lon="11.4176053236963"><ele>410.0</ele><time>2026-04-04T09:07:06.999Z</time></trkpt><trkpt lat="43.46227523118146" lon="11.417542961587687"><ele>409.99999999999994</ele><time>2026-04-04T09:07:07.999Z</time></trkpt><trkpt lat="43.462332892875494" lon="11.417418475168773"><ele>410.0</ele><time>2026-04-04T09:07:08.999Z</time></trkpt><trkpt lat="43.462359672782206" lon="11.417298328875361"><ele>410.0</ele><time>2026-04-04T09:07:09.999Z</time></trkpt><trkpt lat="43.46239580920804" lon="11.417202243127978"><ele>410.0</ele><time>2026-04-04T09:07:10.999Z</time></trkpt><trkpt lat="43.46242846840481" lon="11.417097865395565"><ele>409.99999999999994</ele><time>2026-04-04T09:07:11.999Z</time></trkpt><trkpt lat="43.46246236317469" lon="11.417002082525716"><ele>410.0</ele><time>2026-04-04T09:07:12.999Z</time></trkpt><trkpt lat="43.46250880505633" lon="11.416837752314388"><ele>408.49999999999994</ele><time>2026-04-04T09:07:14.999Z</time></trkpt><trkpt lat="43.46251390601218" lon="11.416743038409994"><ele>407.0</ele><time>2026-04-04T09:07:15.999Z</time></trkpt><trkpt lat="43.46250148975537" lon="11.416637681682884"><ele>405.5</ele><time>2026-04-04T09:07:16.999Z</time></trkpt><trkpt lat="43.46249238199236" lon="11.41651402029139"><ele>404.0</ele><time>2026-04-04T09:07:17.999Z</time></trkpt><trkpt lat="43.46249538135" lon="11.4163782029963"><ele>402.49999999999994</ele><time>2026-04-04T09:07:18.999Z</time></trkpt><trkpt lat="43.46247762422405" lon="11.416268783171873"><ele>401.0</ele><time>2026-04-04T09:07:19.999Z</time></trkpt><trkpt lat="43.46243819854759" lon="11.416178077998081"><ele>398.4</ele><time>2026-04-04T09:07:20.999Z</time></trkpt><trkpt lat="43.46238031030766" lon="11.416093651607431"><ele>395.8</ele><time>2026-04-04T09:07:21.999Z</time></trkpt><trkpt lat="43.46231926298091" lon="11.416010686341206"><ele>393.2</ele><time>2026-04-04T09:07:22.999Z</time></trkpt><trkpt lat="43.46226902588271" lon="11.41588821972051"><ele>390.59999999999997</ele><time>2026-04-04T09:07:24.999Z</time></trkpt><trkpt lat="43.462349538294234" lon="11.415770196981377"><ele>388.0</ele><time>2026-04-04T09:07:26.999Z</time></trkpt><trkpt lat="43.462435199498636" lon="11.41566333678819"><ele>388.00000000000006</ele><time>2026-04-04T09:07:27.999Z</time></trkpt><trkpt lat="43.462520862781155" lon="11.415556755374038"><ele>388.0</ele><time>2026-04-04T09:07:28.999Z</time></trkpt><trkpt lat="43.46257472236131" lon="11.41548219631767"><ele>388.0</ele><time>2026-04-04T09:07:29.999Z</time></trkpt><trkpt lat="43.46261569974964" lon="11.415396443624944"><ele>388.0</ele><time>2026-04-04T09:07:30.999Z</time></trkpt><trkpt lat="43.46266335874428" lon="11.415310463975018"><ele>388.00000000000006</ele><time>2026-04-04T09:07:31.999Z</time></trkpt><trkpt lat="43.46271634510729" lon="11.415229867246335"><ele>388.0</ele><time>2026-04-04T09:07:32.999Z</time></trkpt><trkpt lat="43.462769426532645" lon="11.415155591399863"><ele>385.83333333333337</ele><time>2026-04-04T09:07:33.999Z</time></trkpt><trkpt lat="43.462841343653245" lon="11.415111050871964"><ele>383.6666666666667</ele><time>2026-04-04T09:07:34.999Z</time></trkpt><trkpt lat="43.46293251179986" lon="11.415101960269833"><ele>381.5</ele><time>2026-04-04T09:07:35.999Z</time></trkpt><trkpt lat="43.46302111488951" lon="11.415069505458888"><ele>379.33333333333337</ele><time>2026-04-04T09:07:36.999Z</time></trkpt><trkpt lat="43.46309429441713" lon="11.41502867066451"><ele>377.1666666666667</ele><time>2026-04-04T09:07:37.999Z</time></trkpt><trkpt lat="43.46317354550443" lon="11.415012615898476"><ele>375.0</ele><time>2026-04-04T09:07:38.999Z</time></trkpt><trkpt lat="43.46324624763886" lon="11.41503081046753"><ele>374.3333333333333</ele><time>2026-04-04T09:07:39.999Z</time></trkpt><trkpt lat="43.46331880930058" lon="11.415022616911859"><ele>373.6666666666667</ele><time>2026-04-04T09:07:40.999Z</time></trkpt><trkpt lat="43.463427099045404" lon="11.414961838326152"><ele>373.0</ele><time>2026-04-04T09:07:42.999Z</time></trkpt><trkpt lat="43.463490509280405" lon="11.414954091424182"><ele>372.33333333333337</ele><time>2026-04-04T09:07:43.999Z</time></trkpt><trkpt lat="43.46357645971977" lon="11.414955359462033"><ele>371.6666666666667</ele><time>2026-04-04T09:07:45.999Z</time></trkpt><trkpt lat="43.46368115194795" lon="11.41495826140683"><ele>371.0</ele><time>2026-04-04T09:07:46.999Z</time></trkpt><trkpt lat="43.463717647757704" lon="11.414878914248046"><ele>371.0</ele><time>2026-04-04T09:07:48.999Z</time></trkpt><trkpt lat="43.46381456481863" lon="11.414674901035042"><ele>371.0</ele><time>2026-04-04T09:07:49.999Z</time></trkpt><trkpt lat="43.46378735085528" lon="11.414532251706841"><ele>371.0</ele><time>2026-04-04T09:07:50.999Z</time></trkpt><trkpt lat="43.463246045211996" lon="11.414594040676457"><ele>370.0</ele><time>2026-04-04T09:07:51.999Z</time></trkpt><trkpt lat="43.46315603689409" lon="11.414485350800541"><ele>369.0</ele><time>2026-04-04T09:07:52.999Z</time></trkpt><trkpt lat="43.46305831738632" lon="11.414402218707615"><ele>368.0</ele><time>2026-04-04T09:07:53.999Z</time></trkpt><trkpt lat="43.46298080643241" lon="11.414340671385796"><ele>367.0</ele><time>2026-04-04T09:07:55Z</time></trkpt><trkpt lat="43.46290311178007" lon="11.414272484064883"><ele>366.0</ele><time>2026-04-04T09:07:56Z</time></trkpt><trkpt lat="43.46283385050369" lon="11.414179920941871"><ele>365.8</ele><time>2026-04-04T09:07:57Z</time></trkpt><trkpt lat="43.46275293599507" lon="11.414109373658986"><ele>365.6</ele><time>2026-04-04T09:07:58Z</time></trkpt><trkpt lat="43.46267827381587" lon="11.41403108117579"><ele>365.4</ele><time>2026-04-04T09:07:59Z</time></trkpt><trkpt lat="43.462613986078374" lon="11.41392796023845"><ele>365.2</ele><time>2026-04-04T09:08:00Z</time></trkpt><trkpt lat="43.462561032648175" lon="11.41380885229671"><ele>365.0</ele><time>2026-04-04T09:08:01Z</time></trkpt><trkpt lat="43.46250369566924" lon="11.413689522124226"><ele>362.6</ele><time>2026-04-04T09:08:02Z</time></trkpt><trkpt lat="43.462449201993806" lon="11.413584005716869"><ele>360.2</ele><time>2026-04-04T09:08:03Z</time></trkpt><trkpt lat="43.462407572665256" lon="11.413499923686903"><ele>357.79999999999995</ele><time>2026-04-04T09:08:04Z</time></trkpt><trkpt lat="43.46237778529614" lon="11.413385915550545"><ele>355.4</ele><time>2026-04-04T09:08:05.999Z</time></trkpt><trkpt lat="43.462423779642585" lon="11.413261220850814"><ele>353.0</ele><time>2026-04-04T09:08:07.999Z</time></trkpt><trkpt lat="43.462493674122605" lon="11.413141224505203"><ele>353.0</ele><time>2026-04-04T09:08:08.999Z</time></trkpt><trkpt lat="43.462582488270684" lon="11.412993457812059"><ele>353.0</ele><time>2026-04-04T09:08:09.999Z</time></trkpt><trkpt lat="43.46268823187284" lon="11.412805515093758"><ele>353.0</ele><time>2026-04-04T09:08:10.999Z</time></trkpt><trkpt lat="43.46278559324563" lon="11.412635836639954"><ele>352.6666666666667</ele><time>2026-04-04T09:08:11.999Z</time></trkpt><trkpt lat="43.46293424579938" lon="11.412377522935879"><ele>352.3333333333333</ele><time>2026-04-04T09:08:12.999Z</time></trkpt><trkpt lat="43.46304823542709" lon="11.412156423817171"><ele>352.0</ele><time>2026-04-04T09:08:13.999Z</time></trkpt><trkpt lat="43.463143803529" lon="11.411948787352593"><ele>353.3333333333333</ele><time>2026-04-04T09:08:14.999Z</time></trkpt><trkpt lat="43.4632598551229" lon="11.411753390488746"><ele>354.6666666666667</ele><time>2026-04-04T09:08:15.999Z</time></trkpt><trkpt lat="43.46335799903144" lon="11.411571895177898"><ele>356.0</ele><time>2026-04-04T09:08:16.999Z</time></trkpt><trkpt lat="43.46345417181984" lon="11.411390812261384"><ele>355.6666666666667</ele><time>2026-04-04T09:08:17.999Z</time></trkpt><trkpt lat="43.463549340381064" lon="11.411213750663412"><ele>355.3333333333333</ele><time>2026-04-04T09:08:18.999Z</time></trkpt><trkpt lat="43.463643371687425" lon="11.411037356783302"><ele>355.0</ele><time>2026-04-04T09:08:19.999Z</time></trkpt><trkpt lat="43.463735092261906" lon="11.410865086333443"><ele>356.25</ele><time>2026-04-04T09:08:20.999Z</time></trkpt><trkpt lat="43.46382607096068" lon="11.410692577678743"><ele>357.5</ele><time>2026-04-04T09:08:21.999Z</time></trkpt><trkpt lat="43.46391304904222" lon="11.410526188011518"><ele>358.75</ele><time>2026-04-04T09:08:22.999Z</time></trkpt><trkpt lat="43.463989201160516" lon="11.410367858446776"><ele>360.0</ele><time>2026-04-04T09:08:23.999Z</time></trkpt><trkpt lat="43.46404514636648" lon="11.41021195796583"><ele>360.0</ele><time>2026-04-04T09:08:24.999Z</time></trkpt><trkpt lat="43.464084917573736" lon="11.410061723787589"><ele>360.0</ele><time>2026-04-04T09:08:25.999Z</time></trkpt><trkpt lat="43.46410233452425" lon="11.40990752861714"><ele>360.0</ele><time>2026-04-04T09:08:26.999Z</time></trkpt><trkpt lat="43.464109979620495" lon="11.409763608670191"><ele>360.0</ele><time>2026-04-04T09:08:27.999Z</time></trkpt><trkpt lat="43.46413027253846" lon="11.40963331333067"><ele>360.0</ele><time>2026-04-04T09:08:28.999Z</time></trkpt><trkpt lat="43.46414501452697" lon="11.409541368183332"><ele>359.0</ele><time>2026-04-04T09:08:29.999Z</time></trkpt><trkpt lat="43.46415639863165" lon="11.409393184591773"><ele>358.0</ele><time>2026-04-04T09:08:31.999Z</time></trkpt><trkpt lat="43.46419022958615" lon="11.409270561400556"><ele>357.0</ele><time>2026-04-04T09:08:33.999Z</time></trkpt><trkpt lat="43.464036956948306" lon="11.409153422367003"><ele>356.0</ele><time>2026-04-04T09:08:34.999Z</time></trkpt><trkpt lat="43.463988424531976" lon="11.409045609271232"><ele>356.0</ele><time>2026-04-04T09:08:35.999Z</time></trkpt><trkpt lat="43.46391495165272" lon="11.408844129946475"><ele>356.0</ele><time>2026-04-04T09:08:36.999Z</time></trkpt><trkpt lat="43.46381779524824" lon="11.408674988520863"><ele>356.0</ele><time>2026-04-04T09:08:37.999Z</time></trkpt><trkpt lat="43.46374996085707" lon="11.408584624923208"><ele>356.0</ele><time>2026-04-04T09:08:39.999Z</time></trkpt><trkpt lat="43.46366551425787" lon="11.408484079234865"><ele>357.0</ele><time>2026-04-04T09:08:40.999Z</time></trkpt><trkpt lat="43.46358393991793" lon="11.408349440866052"><ele>358.0</ele><time>2026-04-04T09:08:41.999Z</time></trkpt><trkpt lat="43.46349258161739" lon="11.408228369170713"><ele>359.0</ele><time>2026-04-04T09:08:42.999Z</time></trkpt><trkpt lat="43.463409943417695" lon="11.408100333224159"><ele>360.0</ele><time>2026-04-04T09:08:43.999Z</time></trkpt><trkpt lat="43.46331223955526" lon="11.407990250314054"><ele>361.25</ele><time>2026-04-04T09:08:44.999Z</time></trkpt><trkpt lat="43.46322515156042" lon="11.407889237683984"><ele>362.5</ele><time>2026-04-04T09:08:45.999Z</time></trkpt><trkpt lat="43.463128426445515" lon="11.40777905796324"><ele>363.75</ele><time>2026-04-04T09:08:46.999Z</time></trkpt><trkpt lat="43.463049297324346" lon="11.407661019544326"><ele>365.0</ele><time>2026-04-04T09:08:47.999Z</time></trkpt><trkpt lat="43.462967565345345" lon="11.407548048161258"><ele>367.4</ele><time>2026-04-04T09:08:48.999Z</time></trkpt><trkpt lat="43.462879599228174" lon="11.407439013444588"><ele>369.8</ele><time>2026-04-04T09:08:49.999Z</time></trkpt><trkpt lat="43.4627991632043" lon="11.407333810902891"><ele>372.20000000000005</ele><time>2026-04-04T09:08:50.999Z</time></trkpt><trkpt lat="43.46271744983033" lon="11.407235987363098"><ele>374.6</ele><time>2026-04-04T09:08:51.999Z</time></trkpt><trkpt lat="43.46264325832121" lon="11.407121072783987"><ele>377.0</ele><time>2026-04-04T09:08:52.999Z</time></trkpt><trkpt lat="43.46256652934395" lon="11.407024204024161"><ele>378.40000000000003</ele><time>2026-04-04T09:08:53.999Z</time></trkpt><trkpt lat="43.462483919674604" lon="11.406942633614644"><ele>379.8</ele><time>2026-04-04T09:08:54.999Z</time></trkpt><trkpt lat="43.462418398196405" lon="11.406854191079354"><ele>381.2</ele><time>2026-04-04T09:08:55.999Z</time></trkpt><trkpt lat="43.46234707940429" lon="11.406773663958203"><ele>382.6</ele><time>2026-04-04T09:08:56.999Z</time></trkpt><trkpt lat="43.46225642386898" lon="11.406727239357032"><ele>384.0</ele><time>2026-04-04T09:08:57.999Z</time></trkpt><trkpt lat="43.4621510200423" lon="11.406737436843297"><ele>387.0</ele><time>2026-04-04T09:08:58.999Z</time></trkpt><trkpt lat="43.462051233160025" lon="11.40673999253247"><ele>390.0</ele><time>2026-04-04T09:08:59.999Z</time></trkpt><trkpt lat="43.46194867838001" lon="11.406739047494598"><ele>393.0</ele><time>2026-04-04T09:09:00.999Z</time></trkpt><trkpt lat="43.461859240447616" lon="11.406738223330684"><ele>396.0</ele><time>2026-04-04T09:09:01.999Z</time></trkpt><trkpt lat="43.46174069032019" lon="11.406740234784774"><ele>399.0</ele><time>2026-04-04T09:09:02.999Z</time></trkpt><trkpt lat="43.46162710603145" lon="11.406744557664386"><ele>399.0</ele><time>2026-04-04T09:09:03.999Z</time></trkpt><trkpt lat="43.46151593082883" lon="11.406770342766265"><ele>399.0</ele><time>2026-04-04T09:09:04.999Z</time></trkpt><trkpt lat="43.46140343619112" lon="11.406788719515406"><ele>399.0</ele><time>2026-04-04T09:09:05.999Z</time></trkpt><trkpt lat="43.461286910881725" lon="11.406817260432286"><ele>399.0</ele><time>2026-04-04T09:09:06.999Z</time></trkpt><trkpt lat="43.461184952916774" lon="11.406847287471763"><ele>399.0</ele><time>2026-04-04T09:09:07.999Z</time></trkpt><trkpt lat="43.46110904966674" lon="11.40687361763982"><ele>402.5</ele><time>2026-04-04T09:09:08.999Z</time></trkpt><trkpt lat="43.46103233666669" lon="11.40681223120534"><ele>406.0</ele><time>2026-04-04T09:09:10.999Z</time></trkpt><trkpt lat="43.46105183202293" lon="11.406685379480177"><ele>409.5</ele><time>2026-04-04T09:09:12.999Z</time></trkpt><trkpt lat="43.46106230537555" lon="11.406589740932674"><ele>413.0</ele><time>2026-04-04T09:09:13.999Z</time></trkpt><trkpt lat="43.461101889138746" lon="11.406477243537614"><ele>416.5</ele><time>2026-04-04T09:09:14.999Z</time></trkpt><trkpt lat="43.461119266215576" lon="11.406362497334035"><ele>420.0</ele><time>2026-04-04T09:09:15.999Z</time></trkpt><trkpt lat="43.461161420379796" lon="11.406267408999463"><ele>422.4</ele><time>2026-04-04T09:09:16.999Z</time></trkpt><trkpt lat="43.46119644507919" lon="11.40613568705348"><ele>424.8</ele><time>2026-04-04T09:09:17.999Z</time></trkpt><trkpt lat="43.46121262802043" lon="11.406008908407786"><ele>427.20000000000005</ele><time>2026-04-04T09:09:18.999Z</time></trkpt><trkpt lat="43.46120666069618" lon="11.405895674050864"><ele>429.6</ele><time>2026-04-04T09:09:19.999Z</time></trkpt><trkpt lat="43.461171978392564" lon="11.405774780049743"><ele>432.0</ele><time>2026-04-04T09:09:20.999Z</time></trkpt><trkpt lat="43.461104028187556" lon="11.405688617167398"><ele>432.0</ele><time>2026-04-04T09:09:21.999Z</time></trkpt><trkpt lat="43.461045450617355" lon="11.405582328141993"><ele>432.00000000000006</ele><time>2026-04-04T09:09:22.999Z</time></trkpt><trkpt lat="43.46098361683499" lon="11.405460722556095"><ele>432.00000000000006</ele><time>2026-04-04T09:09:23.999Z</time></trkpt><trkpt lat="43.4609269202577" lon="11.40531818084832"><ele>432.0</ele><time>2026-04-04T09:09:24.999Z</time></trkpt><trkpt lat="43.4608435188071" lon="11.405197401819603"><ele>432.0</ele><time>2026-04-04T09:09:25.999Z</time></trkpt><trkpt lat="43.460777819174986" lon="11.405067752259628"><ele>432.40000000000003</ele><time>2026-04-04T09:09:26.999Z</time></trkpt><trkpt lat="43.460711883698224" lon="11.40494495149663"><ele>432.80000000000007</ele><time>2026-04-04T09:09:27.999Z</time></trkpt><trkpt lat="43.46064956684182" lon="11.40483076603921"><ele>433.2</ele><time>2026-04-04T09:09:28.999Z</time></trkpt><trkpt lat="43.460599805182376" lon="11.404710163857313"><ele>433.6</ele><time>2026-04-04T09:09:29.999Z</time></trkpt><trkpt lat="43.46054649102621" lon="11.40460352766945"><ele>434.0</ele><time>2026-04-04T09:09:30.999Z</time></trkpt><trkpt lat="43.46051174623776" lon="11.404506977023889"><ele>435.6</ele><time>2026-04-04T09:09:31.999Z</time></trkpt><trkpt lat="43.46048477327287" lon="11.404409410722945"><ele>437.2</ele><time>2026-04-04T09:09:32.999Z</time></trkpt><trkpt lat="43.46045463480546" lon="11.40429368715722"><ele>438.80000000000007</ele><time>2026-04-04T09:09:33.999Z</time></trkpt><trkpt lat="43.46046609118914" lon="11.404172135874582"><ele>440.40000000000003</ele><time>2026-04-04T09:09:34.999Z</time></trkpt><trkpt lat="43.46056172778377" lon="11.404050057371478"><ele>442.0</ele><time>2026-04-04T09:09:36.999Z</time></trkpt><trkpt lat="43.46061821145302" lon="11.40399488501271"><ele>442.0</ele><time>2026-04-04T09:09:37.999Z</time></trkpt><trkpt lat="43.46068008145462" lon="11.403914850306423"><ele>442.00000000000006</ele><time>2026-04-04T09:09:38.999Z</time></trkpt><trkpt lat="43.46076540824474" lon="11.40383779484882"><ele>442.00000000000006</ele><time>2026-04-04T09:09:39.999Z</time></trkpt><trkpt lat="43.46085591720992" lon="11.403763032064855"><ele>442.0</ele><time>2026-04-04T09:09:40.999Z</time></trkpt><trkpt lat="43.46094630334003" lon="11.40367961396425"><ele>442.0</ele><time>2026-04-04T09:09:41.999Z</time></trkpt><trkpt lat="43.46104933397345" lon="11.40360589282879"><ele>444.75</ele><time>2026-04-04T09:09:42.999Z</time></trkpt><trkpt lat="43.46114730095115" lon="11.40351859765637"><ele>447.5</ele><time>2026-04-04T09:09:43.999Z</time></trkpt><trkpt lat="43.461244420187036" lon="11.403433503830477"><ele>450.25</ele><time>2026-04-04T09:09:44.999Z</time></trkpt><trkpt lat="43.46133741846134" lon="11.403352020775221"><ele>453.0</ele><time>2026-04-04T09:09:45.999Z</time></trkpt><trkpt lat="43.461430702359024" lon="11.40327028742805"><ele>453.0</ele><time>2026-04-04T09:09:46.999Z</time></trkpt><trkpt lat="43.46152012309682" lon="11.403194376718355"><ele>453.0</ele><time>2026-04-04T09:09:47.999Z</time></trkpt><trkpt lat="43.46159464983804" lon="11.403140182999334"><ele>453.0</ele><time>2026-04-04T09:09:48.999Z</time></trkpt><trkpt lat="43.46167209582027" lon="11.403084116062752"><ele>453.0</ele><time>2026-04-04T09:09:49.999Z</time></trkpt><trkpt lat="43.46172966246386" lon="11.40302372282639"><ele>453.0</ele><time>2026-04-04T09:09:50.999Z</time></trkpt><trkpt lat="43.461793637978786" lon="11.40296160163746"><ele>453.0</ele><time>2026-04-04T09:09:51.999Z</time></trkpt><trkpt lat="43.46183111545341" lon="11.402870220904848"><ele>455.59999999999997</ele><time>2026-04-04T09:09:52.999Z</time></trkpt><trkpt lat="43.46184631082108" lon="11.402756510222906"><ele>458.19999999999993</ele><time>2026-04-04T09:09:53.999Z</time></trkpt><trkpt lat="43.46183961227362" lon="11.402625061219172"><ele>460.8</ele><time>2026-04-04T09:09:54.999Z</time></trkpt><trkpt lat="43.46182885123306" lon="11.402480536825378"><ele>463.4</ele><time>2026-04-04T09:09:55.999Z</time></trkpt><trkpt lat="43.46185990017365" lon="11.402361929034928"><ele>466.0</ele><time>2026-04-04T09:09:56.999Z</time></trkpt><trkpt lat="43.46189030134186" lon="11.402224490127477"><ele>468.0</ele><time>2026-04-04T09:09:57.999Z</time></trkpt><trkpt lat="43.46192686532425" lon="11.402065538347557"><ele>470.0</ele><time>2026-04-04T09:09:58.999Z</time></trkpt><trkpt lat="43.46194446640334" lon="11.401902399434954"><ele>472.0</ele><time>2026-04-04T09:09:59.999Z</time></trkpt><trkpt lat="43.46197935637078" lon="11.40175938294204"><ele>474.0</ele><time>2026-04-04T09:10:01Z</time></trkpt><trkpt lat="43.46200305557458" lon="11.401624662936788"><ele>474.0</ele><time>2026-04-04T09:10:02Z</time></trkpt><trkpt lat="43.462016222690266" lon="11.401504173197033"><ele>474.0</ele><time>2026-04-04T09:10:03Z</time></trkpt><trkpt lat="43.46199410326005" lon="11.401386961783544"><ele>474.0</ele><time>2026-04-04T09:10:04Z</time></trkpt><trkpt lat="43.46194560002378" lon="11.401278471541934"><ele>474.0</ele><time>2026-04-04T09:10:05Z</time></trkpt><trkpt lat="43.46188723412212" lon="11.401166071113462"><ele>474.0</ele><time>2026-04-04T09:10:06Z</time></trkpt><trkpt lat="43.461828334255145" lon="11.401043583328832"><ele>475.2</ele><time>2026-04-04T09:10:07Z</time></trkpt><trkpt lat="43.46176273644729" lon="11.400923841224435"><ele>476.4</ele><time>2026-04-04T09:10:08Z</time></trkpt><trkpt lat="43.46173372504288" lon="11.40080169548831"><ele>477.6</ele><time>2026-04-04T09:10:09Z</time></trkpt><trkpt lat="43.461700890275914" lon="11.400678989898415"><ele>478.8</ele><time>2026-04-04T09:10:10Z</time></trkpt><trkpt lat="43.46168494358425" lon="11.400550197578708"><ele>480.0</ele><time>2026-04-04T09:10:11Z</time></trkpt><trkpt lat="43.46167616203765" lon="11.400404883193941"><ele>482.25</ele><time>2026-04-04T09:10:12Z</time></trkpt><trkpt lat="43.461722477485615" lon="11.40026421624327"><ele>484.5</ele><time>2026-04-04T09:10:13Z</time></trkpt><trkpt lat="43.46175842715185" lon="11.400108430880492"><ele>486.75</ele><time>2026-04-04T09:10:14Z</time></trkpt><trkpt lat="43.46181803472252" lon="11.399963186454876"><ele>489.0</ele><time>2026-04-04T09:10:15Z</time></trkpt><trkpt lat="43.46188248281815" lon="11.399823101162902"><ele>489.0</ele><time>2026-04-04T09:10:16Z</time></trkpt><trkpt lat="43.46195444018929" lon="11.399684192287827"><ele>489.0</ele><time>2026-04-04T09:10:17Z</time></trkpt><trkpt lat="43.462035957529025" lon="11.399552366414948"><ele>489.0</ele><time>2026-04-04T09:10:18Z</time></trkpt><trkpt lat="43.46210286704109" lon="11.399413407876214"><ele>489.0</ele><time>2026-04-04T09:10:19Z</time></trkpt><trkpt lat="43.46218468731911" lon="11.399292443281652"><ele>488.25</ele><time>2026-04-04T09:10:20Z</time></trkpt><trkpt lat="43.46226521910746" lon="11.399172346638945"><ele>487.5</ele><time>2026-04-04T09:10:21Z</time></trkpt><trkpt lat="43.46233492311358" lon="11.399036708098963"><ele>486.75</ele><time>2026-04-04T09:10:22Z</time></trkpt><trkpt lat="43.462415597858204" lon="11.398912796100001"><ele>486.0</ele><time>2026-04-04T09:10:23Z</time></trkpt><trkpt lat="43.462481812615216" lon="11.398777259623555"><ele>490.0</ele><time>2026-04-04T09:10:24Z</time></trkpt><trkpt lat="43.46253042897476" lon="11.39862089914507"><ele>494.0</ele><time>2026-04-04T09:10:25Z</time></trkpt><trkpt lat="43.462565019860236" lon="11.398458270850576"><ele>498.0</ele><time>2026-04-04T09:10:26Z</time></trkpt><trkpt lat="43.46259271664942" lon="11.3983074655288"><ele>502.0</ele><time>2026-04-04T09:10:27Z</time></trkpt><trkpt lat="43.46261939010517" lon="11.398145394635034"><ele>504.25</ele><time>2026-04-04T09:10:28Z</time></trkpt><trkpt lat="43.462640151215254" lon="11.397980341388887"><ele>506.5</ele><time>2026-04-04T09:10:29Z</time></trkpt><trkpt lat="43.46267091725241" lon="11.397807348601004"><ele>508.75</ele><time>2026-04-04T09:10:30Z</time></trkpt><trkpt lat="43.46269440110037" lon="11.397649215296049"><ele>511.0</ele><time>2026-04-04T09:10:31Z</time></trkpt><trkpt lat="43.462719458443175" lon="11.397482216597345"><ele>511.0</ele><time>2026-04-04T09:10:32Z</time></trkpt><trkpt lat="43.4627290216703" lon="11.39731481580555"><ele>511.0</ele><time>2026-04-04T09:10:33Z</time></trkpt><trkpt lat="43.4627686963234" lon="11.397152413830765"><ele>511.0</ele><time>2026-04-04T09:10:34Z</time></trkpt><trkpt lat="43.46277901409049" lon="11.396969456671854"><ele>511.0</ele><time>2026-04-04T09:10:35Z</time></trkpt><trkpt lat="43.46281404420685" lon="11.396787215020698"><ele>512.25</ele><time>2026-04-04T09:10:36Z</time></trkpt><trkpt lat="43.462832765684134" lon="11.396603926799168"><ele>513.5</ele><time>2026-04-04T09:10:37Z</time></trkpt><trkpt lat="43.46286586077036" lon="11.396437809138174"><ele>514.75</ele><time>2026-04-04T09:10:38Z</time></trkpt><trkpt lat="43.462910155815074" lon="11.396289325081325"><ele>516.0</ele><time>2026-04-04T09:10:39Z</time></trkpt><trkpt lat="43.462928640595415" lon="11.396141007416482"><ele>514.5</ele><time>2026-04-04T09:10:40Z</time></trkpt><trkpt lat="43.46297209171527" lon="11.395987469264274"><ele>513.0</ele><time>2026-04-04T09:10:41Z</time></trkpt><trkpt lat="43.46303024214449" lon="11.395852663900794"><ele>511.5</ele><time>2026-04-04T09:10:42Z</time></trkpt><trkpt lat="43.46307748940098" lon="11.395715199710958"><ele>510.0</ele><time>2026-04-04T09:10:42.999Z</time></trkpt><trkpt lat="43.46311757814813" lon="11.395554829766754"><ele>511.5</ele><time>2026-04-04T09:10:43.999Z</time></trkpt><trkpt lat="43.463198200508884" lon="11.395418935091284"><ele>513.0</ele><time>2026-04-04T09:10:44.999Z</time></trkpt><trkpt lat="43.46326858676709" lon="11.395280046850546"><ele>514.5</ele><time>2026-04-04T09:10:45.999Z</time></trkpt><trkpt lat="43.463344670092695" lon="11.395142992602143"><ele>516.0</ele><time>2026-04-04T09:10:46.999Z</time></trkpt><trkpt lat="43.463428866036125" lon="11.395019914562956"><ele>516.0</ele><time>2026-04-04T09:10:47.999Z</time></trkpt><trkpt lat="43.46351806458487" lon="11.39489603081205"><ele>516.0</ele><time>2026-04-04T09:10:48.999Z</time></trkpt><trkpt lat="43.46358748959266" lon="11.394761188263379"><ele>516.0</ele><time>2026-04-04T09:10:49.999Z</time></trkpt><trkpt lat="43.463667646015985" lon="11.394628157309983"><ele>516.0</ele><time>2026-04-04T09:10:50.999Z</time></trkpt><trkpt lat="43.46373623330935" lon="11.394484849418442"><ele>517.75</ele><time>2026-04-04T09:10:51.999Z</time></trkpt><trkpt lat="43.46380307658656" lon="11.394334607831187"><ele>519.5</ele><time>2026-04-04T09:10:52.999Z</time></trkpt><trkpt lat="43.46387637142191" lon="11.39419101257477"><ele>521.25</ele><time>2026-04-04T09:10:53.999Z</time></trkpt><trkpt lat="43.463942527075794" lon="11.39403618168157"><ele>523.0</ele><time>2026-04-04T09:10:54.999Z</time></trkpt><trkpt lat="43.46401362392021" lon="11.393898592349665"><ele>522.5</ele><time>2026-04-04T09:10:55.999Z</time></trkpt><trkpt lat="43.464070203428925" lon="11.393780554167307"><ele>522.0</ele><time>2026-04-04T09:10:56.999Z</time></trkpt><trkpt lat="43.46412705258305" lon="11.393682340208766"><ele>521.5</ele><time>2026-04-04T09:10:57.999Z</time></trkpt><trkpt lat="43.46415612477675" lon="11.393573745584105"><ele>521.0</ele><time>2026-04-04T09:10:58.999Z</time></trkpt><trkpt lat="43.46418531149222" lon="11.393466017067718"><ele>520.5</ele><time>2026-04-04T09:10:59.999Z</time></trkpt><trkpt lat="43.4642014988706" lon="11.39335983499356"><ele>520.0</ele><time>2026-04-04T09:11:00.999Z</time></trkpt><trkpt lat="43.464206953242666" lon="11.393261331600353"><ele>520.0</ele><time>2026-04-04T09:11:01.999Z</time></trkpt><trkpt lat="43.46423230247894" lon="11.393163796118461"><ele>520.0</ele><time>2026-04-04T09:11:02.999Z</time></trkpt><trkpt lat="43.46428771743113" lon="11.393112147115609"><ele>520.0</ele><time>2026-04-04T09:11:03.999Z</time></trkpt><trkpt lat="43.46437636865456" lon="11.393152062405662"><ele>520.0</ele><time>2026-04-04T09:11:05.999Z</time></trkpt><trkpt lat="43.46445093126962" lon="11.39317298817359"><ele>520.0</ele><time>2026-04-04T09:11:06.999Z</time></trkpt><trkpt lat="43.464540441122196" lon="11.393206119465086"><ele>520.0</ele><time>2026-04-04T09:11:07.999Z</time></trkpt><trkpt lat="43.46464102035928" lon="11.39324619582503"><ele>517.8</ele><time>2026-04-04T09:11:08.999Z</time></trkpt><trkpt lat="43.46474044510625" lon="11.39328800110127"><ele>515.6</ele><time>2026-04-04T09:11:09.999Z</time></trkpt><trkpt lat="43.464832874260225" lon="11.393328115649082"><ele>513.4</ele><time>2026-04-04T09:11:10.999Z</time></trkpt><trkpt lat="43.46493137572482" lon="11.393376291498713"><ele>511.2</ele><time>2026-04-04T09:11:11.999Z</time></trkpt><trkpt lat="43.46504310654673" lon="11.393393549628858"><ele>509.0</ele><time>2026-04-04T09:11:12.999Z</time></trkpt><trkpt lat="43.46515430401684" lon="11.393429831692147"><ele>509.0</ele><time>2026-04-04T09:11:13.999Z</time></trkpt><trkpt lat="43.465246082124686" lon="11.39346662859948"><ele>509.0</ele><time>2026-04-04T09:11:14.999Z</time></trkpt><trkpt lat="43.46538097059897" lon="11.393506250835323"><ele>509.0</ele><time>2026-04-04T09:11:15.999Z</time></trkpt><trkpt lat="43.465508916484275" lon="11.393531312619501"><ele>509.0</ele><time>2026-04-04T09:11:16.999Z</time></trkpt><trkpt lat="43.46562985983488" lon="11.393556852855243"><ele>506.25</ele><time>2026-04-04T09:11:17.999Z</time></trkpt><trkpt lat="43.46577267749995" lon="11.39356667339853"><ele>503.5</ele><time>2026-04-04T09:11:18.999Z</time></trkpt><trkpt lat="43.46589103625427" lon="11.393583021446076"><ele>500.75</ele><time>2026-04-04T09:11:19.999Z</time></trkpt><trkpt lat="43.46601154475949" lon="11.393599651692654"><ele>498.0</ele><time>2026-04-04T09:11:20.999Z</time></trkpt><trkpt lat="43.466122384639995" lon="11.39360778678379"><ele>498.0</ele><time>2026-04-04T09:11:21.999Z</time></trkpt><trkpt lat="43.46622699986919" lon="11.393646061915145"><ele>497.99999999999994</ele><time>2026-04-04T09:11:22.999Z</time></trkpt><trkpt lat="43.46633453951965" lon="11.393662945476136"><ele>497.99999999999994</ele><time>2026-04-04T09:11:23.999Z</time></trkpt><trkpt lat="43.46643484633863" lon="11.393680812787284"><ele>498.0</ele><time>2026-04-04T09:11:24.999Z</time></trkpt><trkpt lat="43.466540522951924" lon="11.393703182244195"><ele>498.0</ele><time>2026-04-04T09:11:25.999Z</time></trkpt><trkpt lat="43.466644870011635" lon="11.393722591998042"><ele>498.59999999999997</ele><time>2026-04-04T09:11:26.999Z</time></trkpt><trkpt lat="43.466738945845684" lon="11.39376569962275"><ele>499.19999999999993</ele><time>2026-04-04T09:11:27.999Z</time></trkpt><trkpt lat="43.466830353712105" lon="11.39380649540136"><ele>499.8</ele><time>2026-04-04T09:11:28.999Z</time></trkpt><trkpt lat="43.466922468210505" lon="11.39387836593164"><ele>500.4</ele><time>2026-04-04T09:11:29.999Z</time></trkpt><trkpt lat="43.46700261570468" lon="11.393959623118247"><ele>501.0</ele><time>2026-04-04T09:11:30.999Z</time></trkpt><trkpt lat="43.467081044609365" lon="11.394018504964173"><ele>498.20000000000005</ele><time>2026-04-04T09:11:31.999Z</time></trkpt><trkpt lat="43.467172302709145" lon="11.394065325115777"><ele>495.40000000000003</ele><time>2026-04-04T09:11:32.999Z</time></trkpt><trkpt lat="43.46726530877094" lon="11.394034105199637"><ele>492.6</ele><time>2026-04-04T09:11:33.999Z</time></trkpt><trkpt lat="43.46735554300363" lon="11.394011720090745"><ele>489.8</ele><time>2026-04-04T09:11:34.999Z</time></trkpt><trkpt lat="43.46740664491074" lon="11.393923973536936"><ele>487.0</ele><time>2026-04-04T09:11:35.999Z</time></trkpt><trkpt lat="43.46747065990738" lon="11.393849946794223"><ele>488.20000000000005</ele><time>2026-04-04T09:11:36.999Z</time></trkpt><trkpt lat="43.46753755894784" lon="11.393784944688331"><ele>489.40000000000003</ele><time>2026-04-04T09:11:37.999Z</time></trkpt><trkpt lat="43.467591576967706" lon="11.393656281588143"><ele>490.59999999999997</ele><time>2026-04-04T09:11:38.999Z</time></trkpt><trkpt lat="43.467649672639844" lon="11.393536838347648"><ele>491.79999999999995</ele><time>2026-04-04T09:11:39.999Z</time></trkpt><trkpt lat="43.467692493905915" lon="11.39342555946514"><ele>493.0</ele><time>2026-04-04T09:11:40.999Z</time></trkpt><trkpt lat="43.467738106613936" lon="11.393330810298513"><ele>493.0</ele><time>2026-04-04T09:11:41.999Z</time></trkpt><trkpt lat="43.467752466178226" lon="11.393226833591505"><ele>492.99999999999994</ele><time>2026-04-04T09:11:42.999Z</time></trkpt><trkpt lat="43.467771010241144" lon="11.39311031921824"><ele>492.99999999999994</ele><time>2026-04-04T09:11:43.999Z</time></trkpt><trkpt lat="43.46778178916209" lon="11.392971353041686"><ele>493.0</ele><time>2026-04-04T09:11:44.999Z</time></trkpt><trkpt lat="43.467774626580685" lon="11.392840388168091"><ele>493.0</ele><time>2026-04-04T09:11:45.999Z</time></trkpt><trkpt lat="43.467775983075576" lon="11.392690582171916"><ele>494.0</ele><time>2026-04-04T09:11:46.999Z</time></trkpt><trkpt lat="43.467759549992145" lon="11.392542981199263"><ele>494.99999999999994</ele><time>2026-04-04T09:11:47.999Z</time></trkpt><trkpt lat="43.467728886192255" lon="11.392395226261318"><ele>495.99999999999994</ele><time>2026-04-04T09:11:48.999Z</time></trkpt><trkpt lat="43.46769079356557" lon="11.392242760258242"><ele>497.0</ele><time>2026-04-04T09:11:49.999Z</time></trkpt><trkpt lat="43.46766252727085" lon="11.392110648918056"><ele>498.0</ele><time>2026-04-04T09:11:50.999Z</time></trkpt><trkpt lat="43.467634080811536" lon="11.391972793592839"><ele>498.5</ele><time>2026-04-04T09:11:51.999Z</time></trkpt><trkpt lat="43.46761253192853" lon="11.391823841387664"><ele>499.0</ele><time>2026-04-04T09:11:52.999Z</time></trkpt><trkpt lat="43.46760403379107" lon="11.391677620541602"><ele>499.5</ele><time>2026-04-04T09:11:53.999Z</time></trkpt><trkpt lat="43.46761063887205" lon="11.391579260015929"><ele>500.0</ele><time>2026-04-04T09:11:54.999Z</time></trkpt><trkpt lat="43.4676258339167" lon="11.39147308590366"><ele>500.5</ele><time>2026-04-04T09:11:55.999Z</time></trkpt><trkpt lat="43.46765137898232" lon="11.39136759904511"><ele>501.0</ele><time>2026-04-04T09:11:56.999Z</time></trkpt><trkpt lat="43.467691273231445" lon="11.391276608209875"><ele>502.6</ele><time>2026-04-04T09:11:57.999Z</time></trkpt><trkpt lat="43.46773977717708" lon="11.39117657652399"><ele>504.20000000000005</ele><time>2026-04-04T09:11:58.999Z</time></trkpt><trkpt lat="43.4678077390574" lon="11.391064035336612"><ele>505.79999999999995</ele><time>2026-04-04T09:11:59.999Z</time></trkpt><trkpt lat="43.46789026700531" lon="11.390958144448335"><ele>507.4</ele><time>2026-04-04T09:12:00.999Z</time></trkpt><trkpt lat="43.467949296385754" lon="11.390851808810684"><ele>509.0</ele><time>2026-04-04T09:12:01.999Z</time></trkpt><trkpt lat="43.468003673256334" lon="11.390743446547495"><ele>509.0</ele><time>2026-04-04T09:12:02.999Z</time></trkpt><trkpt lat="43.46804986391512" lon="11.39064105215616"><ele>509.0</ele><time>2026-04-04T09:12:03.999Z</time></trkpt><trkpt lat="43.46806801683815" lon="11.390495716947068"><ele>509.0</ele><time>2026-04-04T09:12:05.999Z</time></trkpt><trkpt lat="43.468050199042274" lon="11.390404104320615"><ele>509.0</ele><time>2026-04-04T09:12:07Z</time></trkpt><trkpt lat="43.46802535979995" lon="11.390245572634294"><ele>509.0</ele><time>2026-04-04T09:12:08Z</time></trkpt><trkpt lat="43.46798719244738" lon="11.390059540338198"><ele>509.0</ele><time>2026-04-04T09:12:09Z</time></trkpt><trkpt lat="43.467949625296576" lon="11.389911164706268"><ele>509.0</ele><time>2026-04-04T09:12:10Z</time></trkpt><trkpt lat="43.46789510220569" lon="11.389765729194417"><ele>509.0</ele><time>2026-04-04T09:12:11Z</time></trkpt><trkpt lat="43.467842669029686" lon="11.389637575176055"><ele>509.0</ele><time>2026-04-04T09:12:12Z</time></trkpt><trkpt lat="43.46780396636154" lon="11.38949821780782"><ele>509.0</ele><time>2026-04-04T09:12:13Z</time></trkpt><trkpt lat="43.4677749229526" lon="11.389377980665495"><ele>507.3333333333333</ele><time>2026-04-04T09:12:14Z</time></trkpt><trkpt lat="43.467752797788634" lon="11.389263523190714"><ele>505.66666666666663</ele><time>2026-04-04T09:12:15Z</time></trkpt><trkpt lat="43.46774172944714" lon="11.389119729344554"><ele>504.0</ele><time>2026-04-04T09:12:16Z</time></trkpt><trkpt lat="43.46773120256711" lon="11.388981591508454"><ele>502.33333333333337</ele><time>2026-04-04T09:12:17Z</time></trkpt><trkpt lat="43.467725712759794" lon="11.388889000887179"><ele>500.6666666666667</ele><time>2026-04-04T09:12:18Z</time></trkpt><trkpt lat="43.467721697530656" lon="11.388768384234826"><ele>499.0</ele><time>2026-04-04T09:12:20Z</time></trkpt><trkpt lat="43.467724267226686" lon="11.388604600960768"><ele>499.00000000000006</ele><time>2026-04-04T09:12:22Z</time></trkpt><trkpt lat="43.467748015698184" lon="11.388512330437868"><ele>499.0</ele><time>2026-04-04T09:12:23Z</time></trkpt><trkpt lat="43.467786127174605" lon="11.38842936285128"><ele>499.0</ele><time>2026-04-04T09:12:24Z</time></trkpt><trkpt lat="43.4678433344997" lon="11.388325749382462"><ele>499.0</ele><time>2026-04-04T09:12:25Z</time></trkpt><trkpt lat="43.467900802094455" lon="11.388221460640503"><ele>499.00000000000006</ele><time>2026-04-04T09:12:26Z</time></trkpt><trkpt lat="43.467963836646774" lon="11.388094132123701"><ele>499.0</ele><time>2026-04-04T09:12:27Z</time></trkpt><trkpt lat="43.468026265693645" lon="11.387942155792949"><ele>498.0</ele><time>2026-04-04T09:12:28Z</time></trkpt><trkpt lat="43.468086644869864" lon="11.387786558506248"><ele>497.0</ele><time>2026-04-04T09:12:29Z</time></trkpt><trkpt lat="43.46815004237614" lon="11.387636880906456"><ele>496.0</ele><time>2026-04-04T09:12:30Z</time></trkpt><trkpt lat="43.468218761009055" lon="11.3874885806416"><ele>495.0</ele><time>2026-04-04T09:12:31Z</time></trkpt><trkpt lat="43.46829220008925" lon="11.3873315877483"><ele>495.0</ele><time>2026-04-04T09:12:32Z</time></trkpt><trkpt lat="43.468380338745895" lon="11.38718414222274"><ele>495.0</ele><time>2026-04-04T09:12:33Z</time></trkpt><trkpt lat="43.468457168896336" lon="11.387049918122896"><ele>495.0</ele><time>2026-04-04T09:12:34Z</time></trkpt><trkpt lat="43.468539817355875" lon="11.38691880395483"><ele>495.0</ele><time>2026-04-04T09:12:35Z</time></trkpt><trkpt lat="43.46860696621637" lon="11.3867746899621"><ele>492.8</ele><time>2026-04-04T09:12:36Z</time></trkpt><trkpt lat="43.46863409656267" lon="11.386655757976838"><ele>490.6</ele><time>2026-04-04T09:12:37Z</time></trkpt><trkpt lat="43.468626931555" lon="11.386547642856492"><ele>488.4</ele><time>2026-04-04T09:12:38Z</time></trkpt><trkpt lat="43.468630599992274" lon="11.38642038460012"><ele>486.2</ele><time>2026-04-04T09:12:39Z</time></trkpt><trkpt lat="43.468633121619895" lon="11.386293948886848"><ele>484.0</ele><time>2026-04-04T09:12:40Z</time></trkpt><trkpt lat="43.46863756518318" lon="11.386147362472268"><ele>482.25</ele><time>2026-04-04T09:12:41Z</time></trkpt><trkpt lat="43.46863822314475" lon="11.38597543771631"><ele>480.5</ele><time>2026-04-04T09:12:42Z</time></trkpt><trkpt lat="43.46865982670875" lon="11.385800806530058"><ele>478.75</ele><time>2026-04-04T09:12:43Z</time></trkpt><trkpt lat="43.468665235204625" lon="11.385638269819568"><ele>477.0</ele><time>2026-04-04T09:12:44Z</time></trkpt><trkpt lat="43.46863147992451" lon="11.385489255421856"><ele>476.40000000000003</ele><time>2026-04-04T09:12:45Z</time></trkpt><trkpt lat="43.46864563829718" lon="11.385349631049696"><ele>475.80000000000007</ele><time>2026-04-04T09:12:46Z</time></trkpt><trkpt lat="43.46868254061516" lon="11.385239658525006"><ele>475.2</ele><time>2026-04-04T09:12:47Z</time></trkpt><trkpt lat="43.46873892695937" lon="11.385143603260657"><ele>474.6</ele><time>2026-04-04T09:12:48Z</time></trkpt><trkpt lat="43.46881102763309" lon="11.38507714400436"><ele>474.0</ele><time>2026-04-04T09:12:49Z</time></trkpt><trkpt lat="43.468898405083024" lon="11.38501237024877"><ele>473.2</ele><time>2026-04-04T09:12:50Z</time></trkpt><trkpt lat="43.46899055153735" lon="11.38496640871564"><ele>472.4</ele><time>2026-04-04T09:12:51Z</time></trkpt><trkpt lat="43.469080209222525" lon="11.384938235999824"><ele>471.6</ele><time>2026-04-04T09:12:52Z</time></trkpt><trkpt lat="43.4691758910188" lon="11.38492324405393"><ele>470.8</ele><time>2026-04-04T09:12:53Z</time></trkpt><trkpt lat="43.46926282963856" lon="11.384910286003041"><ele>470.0</ele><time>2026-04-04T09:12:54Z</time></trkpt><trkpt lat="43.469346894537736" lon="11.384916687115702"><ele>469.99999999999994</ele><time>2026-04-04T09:12:55Z</time></trkpt><trkpt lat="43.469425864756445" lon="11.384950481752306"><ele>470.0</ele><time>2026-04-04T09:12:56Z</time></trkpt><trkpt lat="43.46949562769802" lon="11.385011852360247"><ele>470.0</ele><time>2026-04-04T09:12:57Z</time></trkpt><trkpt lat="43.46956277631377" lon="11.385089942733515"><ele>470.0</ele><time>2026-04-04T09:12:58Z</time></trkpt><trkpt lat="43.469618819854986" lon="11.385182527184062"><ele>469.99999999999994</ele><time>2026-04-04T09:12:59Z</time></trkpt><trkpt lat="43.46967415482419" lon="11.38528320972395"><ele>470.0</ele><time>2026-04-04T09:13:00Z</time></trkpt><trkpt lat="43.46971849378926" lon="11.385383880274834"><ele>469.3333333333333</ele><time>2026-04-04T09:13:01Z</time></trkpt><trkpt lat="43.46976061158881" lon="11.385474398281396"><ele>468.66666666666663</ele><time>2026-04-04T09:13:02Z</time></trkpt><trkpt lat="43.469855434088394" lon="11.38554716501712"><ele>468.0</ele><time>2026-04-04T09:13:04Z</time></trkpt><trkpt lat="43.46992068894541" lon="11.385508998402948"><ele>467.33333333333337</ele><time>2026-04-04T09:13:05Z</time></trkpt><trkpt lat="43.469957629523705" lon="11.385407421235959"><ele>466.6666666666667</ele><time>2026-04-04T09:13:06Z</time></trkpt><trkpt lat="43.469969778220864" lon="11.38525960528583"><ele>466.0</ele><time>2026-04-04T09:13:07Z</time></trkpt><trkpt lat="43.46998844950575" lon="11.385060686306488"><ele>463.5</ele><time>2026-04-04T09:13:08Z</time></trkpt><trkpt lat="43.47000768470648" lon="11.384907235915296"><ele>461.0</ele><time>2026-04-04T09:13:09Z</time></trkpt><trkpt lat="43.47006292287172" lon="11.38479265355153"><ele>458.5</ele><time>2026-04-04T09:13:10Z</time></trkpt><trkpt lat="43.47012046034818" lon="11.384641339345025"><ele>456.0</ele><time>2026-04-04T09:13:11Z</time></trkpt><trkpt lat="43.47016730384388" lon="11.384494987598934"><ele>455.25</ele><time>2026-04-04T09:13:12Z</time></trkpt><trkpt lat="43.470217973702574" lon="11.384340114026962"><ele>454.5</ele><time>2026-04-04T09:13:13Z</time></trkpt><trkpt lat="43.470227611372" lon="11.384176525370645"><ele>453.75</ele><time>2026-04-04T09:13:14Z</time></trkpt><trkpt lat="43.470250156660875" lon="11.383994669530518"><ele>453.0</ele><time>2026-04-04T09:13:15Z</time></trkpt><trkpt lat="43.47029321647893" lon="11.383809624975934"><ele>452.25</ele><time>2026-04-04T09:13:16Z</time></trkpt><trkpt lat="43.47032328572221" lon="11.383627260023651"><ele>451.5</ele><time>2026-04-04T09:13:17Z</time></trkpt><trkpt lat="43.47036488820232" lon="11.383471031939347"><ele>450.75</ele><time>2026-04-04T09:13:18Z</time></trkpt><trkpt lat="43.4704146385528" lon="11.383348614261513"><ele>450.0</ele><time>2026-04-04T09:13:19Z</time></trkpt><trkpt lat="43.470502026577016" lon="11.383266581279763"><ele>452.2</ele><time>2026-04-04T09:13:20Z</time></trkpt><trkpt lat="43.47059606982808" lon="11.38320382412807"><ele>454.4</ele><time>2026-04-04T09:13:21Z</time></trkpt><trkpt lat="43.47068489784336" lon="11.383126273540148"><ele>456.6</ele><time>2026-04-04T09:13:22Z</time></trkpt><trkpt lat="43.47078371171238" lon="11.383063960574068"><ele>458.8</ele><time>2026-04-04T09:13:23Z</time></trkpt><trkpt lat="43.47088764590802" lon="11.38303459449892"><ele>461.0</ele><time>2026-04-04T09:13:24Z</time></trkpt><trkpt lat="43.47098854192331" lon="11.382970688214536"><ele>461.0</ele><time>2026-04-04T09:13:25Z</time></trkpt><trkpt lat="43.47108422400914" lon="11.382911968051054"><ele>461.0</ele><time>2026-04-04T09:13:26Z</time></trkpt><trkpt lat="43.471174010266374" lon="11.382840378820159"><ele>461.0</ele><time>2026-04-04T09:13:26.999Z</time></trkpt><trkpt lat="43.47127410997112" lon="11.382762140105635"><ele>461.0</ele><time>2026-04-04T09:13:27.999Z</time></trkpt><trkpt lat="43.47135974979997" lon="11.382669990453888"><ele>461.0</ele><time>2026-04-04T09:13:28.999Z</time></trkpt><trkpt lat="43.47143410411483" lon="11.382560676117674"><ele>464.4</ele><time>2026-04-04T09:13:29.999Z</time></trkpt><trkpt lat="43.47149108331214" lon="11.382431450595197"><ele>467.8</ele><time>2026-04-04T09:13:30.999Z</time></trkpt><trkpt lat="43.471535236728485" lon="11.382301583311156"><ele>471.19999999999993</ele><time>2026-04-04T09:13:31.999Z</time></trkpt><trkpt lat="43.47156927366655" lon="11.382178278562554"><ele>474.59999999999997</ele><time>2026-04-04T09:13:32.999Z</time></trkpt><trkpt lat="43.47162919866962" lon="11.382068110174277"><ele>478.0</ele><time>2026-04-04T09:13:33.999Z</time></trkpt><trkpt lat="43.47169716326399" lon="11.381964179387912"><ele>478.0</ele><time>2026-04-04T09:13:34.999Z</time></trkpt><trkpt lat="43.471760899087386" lon="11.381851655148262"><ele>477.99999999999994</ele><time>2026-04-04T09:13:35.999Z</time></trkpt><trkpt lat="43.47186431752278" lon="11.381784335179029"><ele>477.99999999999994</ele><time>2026-04-04T09:13:36.999Z</time></trkpt><trkpt lat="43.47188917702926" lon="11.381637223054295"><ele>478.0</ele><time>2026-04-04T09:13:37.999Z</time></trkpt><trkpt lat="43.47192242808783" lon="11.381509785163194"><ele>478.0</ele><time>2026-04-04T09:13:38.999Z</time></trkpt><trkpt lat="43.47197920277095" lon="11.38139763747292"><ele>478.0</ele><time>2026-04-04T09:13:39.999Z</time></trkpt><trkpt lat="43.47201817218669" lon="11.381284822949334"><ele>477.99999999999994</ele><time>2026-04-04T09:13:40.999Z</time></trkpt><trkpt lat="43.47205252846172" lon="11.381177769198533"><ele>477.99999999999994</ele><time>2026-04-04T09:13:41.999Z</time></trkpt><trkpt lat="43.472071116809275" lon="11.381037946046174"><ele>478.0</ele><time>2026-04-04T09:13:42.999Z</time></trkpt><trkpt lat="43.47208150552307" lon="11.380904247398792"><ele>478.0</ele><time>2026-04-04T09:13:43.999Z</time></trkpt><trkpt lat="43.47208420786889" lon="11.380773735980142"><ele>478.0</ele><time>2026-04-04T09:13:44.999Z</time></trkpt><trkpt lat="43.47207652825089" lon="11.380645102427687"><ele>477.99999999999994</ele><time>2026-04-04T09:13:45.999Z</time></trkpt><trkpt lat="43.47206471702842" lon="11.380517779113843"><ele>477.99999999999994</ele><time>2026-04-04T09:13:46.999Z</time></trkpt><trkpt lat="43.472044426465814" lon="11.380379575917168"><ele>478.0</ele><time>2026-04-04T09:13:47.999Z</time></trkpt><trkpt lat="43.47200670418122" lon="11.380226646853961"><ele>478.0</ele><time>2026-04-04T09:13:48.999Z</time></trkpt><trkpt lat="43.47195462500971" lon="11.380089054685678"><ele>477.4</ele><time>2026-04-04T09:13:49.999Z</time></trkpt><trkpt lat="43.47192297492363" lon="11.379950690977182"><ele>476.79999999999995</ele><time>2026-04-04T09:13:50.999Z</time></trkpt><trkpt lat="43.47186686268817" lon="11.379830041272024"><ele>476.2</ele><time>2026-04-04T09:13:51.999Z</time></trkpt><trkpt lat="43.471839184691675" lon="11.379691742421858"><ele>475.6</ele><time>2026-04-04T09:13:52.999Z</time></trkpt><trkpt lat="43.4717851555522" lon="11.379572934827587"><ele>475.0</ele><time>2026-04-04T09:13:54Z</time></trkpt><trkpt lat="43.47175186354455" lon="11.379464999448123"><ele>473.50000000000006</ele><time>2026-04-04T09:13:54.999Z</time></trkpt><trkpt lat="43.47173614679265" lon="11.379356447713871"><ele>472.0</ele><time>2026-04-04T09:13:55.999Z</time></trkpt><trkpt lat="43.47171083626312" lon="11.379257645430448"><ele>470.5</ele><time>2026-04-04T09:13:56.999Z</time></trkpt><trkpt lat="43.47168160212553" lon="11.379150968772146"><ele>469.0</ele><time>2026-04-04T09:13:57.999Z</time></trkpt><trkpt lat="43.47167650768917" lon="11.379038524848584"><ele>467.50000000000006</ele><time>2026-04-04T09:13:58.999Z</time></trkpt><trkpt lat="43.47167524490027" lon="11.378925301158468"><ele>466.0</ele><time>2026-04-04T09:13:59.999Z</time></trkpt><trkpt lat="43.47169177212907" lon="11.37879949062915"><ele>464.50000000000006</ele><time>2026-04-04T09:14:00.999Z</time></trkpt><trkpt lat="43.471708632169886" lon="11.378668308979876"><ele>463.0</ele><time>2026-04-04T09:14:01.999Z</time></trkpt><trkpt lat="43.47171058228144" lon="11.37854126893251"><ele>461.5</ele><time>2026-04-04T09:14:02.999Z</time></trkpt><trkpt lat="43.47173316988298" lon="11.378433066994056"><ele>460.0</ele><time>2026-04-04T09:14:03.999Z</time></trkpt><trkpt lat="43.471742081380505" lon="11.378328710275309"><ele>458.50000000000006</ele><time>2026-04-04T09:14:04.999Z</time></trkpt><trkpt lat="43.47174799104211" lon="11.378231122132808"><ele>457.0</ele><time>2026-04-04T09:14:05.999Z</time></trkpt><trkpt lat="43.47171431034815" lon="11.378119138041548"><ele>454.8</ele><time>2026-04-04T09:14:06.999Z</time></trkpt><trkpt lat="43.471698294946535" lon="11.37800857950586"><ele>452.6</ele><time>2026-04-04T09:14:07.999Z</time></trkpt><trkpt lat="43.47164879518887" lon="11.377914730647209"><ele>450.40000000000003</ele><time>2026-04-04T09:14:08.999Z</time></trkpt><trkpt lat="43.471579022907676" lon="11.377821999366013"><ele>448.20000000000005</ele><time>2026-04-04T09:14:09.999Z</time></trkpt><trkpt lat="43.47148813895388" lon="11.377727720196802"><ele>446.0</ele><time>2026-04-04T09:14:10.999Z</time></trkpt><trkpt lat="43.471408280482436" lon="11.377646034656356"><ele>446.0</ele><time>2026-04-04T09:14:11.999Z</time></trkpt><trkpt lat="43.47133551839746" lon="11.377571607584777"><ele>446.0</ele><time>2026-04-04T09:14:13Z</time></trkpt><trkpt lat="43.471256453524894" lon="11.377499256397142"><ele>446.0</ele><time>2026-04-04T09:14:14Z</time></trkpt><trkpt lat="43.47117842993499" lon="11.377437744068292"><ele>446.0</ele><time>2026-04-04T09:14:15Z</time></trkpt><trkpt lat="43.47107735740847" lon="11.377381633698231"><ele>446.0</ele><time>2026-04-04T09:14:16Z</time></trkpt><trkpt lat="43.470983419278916" lon="11.377335756504168"><ele>445.8</ele><time>2026-04-04T09:14:17Z</time></trkpt><trkpt lat="43.47089843355524" lon="11.377284108023195"><ele>445.6</ele><time>2026-04-04T09:14:18Z</time></trkpt><trkpt lat="43.47081460298104" lon="11.377221807354388"><ele>445.4</ele><time>2026-04-04T09:14:19Z</time></trkpt><trkpt lat="43.470725675922075" lon="11.377156406383326"><ele>445.2</ele><time>2026-04-04T09:14:20Z</time></trkpt><trkpt lat="43.47062993142407" lon="11.377102919830612"><ele>445.0</ele><time>2026-04-04T09:14:21Z</time></trkpt><trkpt lat="43.47053189601926" lon="11.377062519635276"><ele>441.8</ele><time>2026-04-04T09:14:22Z</time></trkpt><trkpt lat="43.47042957130829" lon="11.377027098858562"><ele>438.6</ele><time>2026-04-04T09:14:23Z</time></trkpt><trkpt lat="43.47032487393789" lon="11.376992892679782"><ele>435.4</ele><time>2026-04-04T09:14:24Z</time></trkpt><trkpt lat="43.470228419692724" lon="11.376961861504354"><ele>432.2</ele><time>2026-04-04T09:14:25Z</time></trkpt><trkpt lat="43.47014101146201" lon="11.376931498402929"><ele>429.0</ele><time>2026-04-04T09:14:26Z</time></trkpt><trkpt lat="43.47005225175195" lon="11.37689752032141"><ele>429.0</ele><time>2026-04-04T09:14:27Z</time></trkpt><trkpt lat="43.46996390962665" lon="11.376860139333644"><ele>429.0</ele><time>2026-04-04T09:14:28Z</time></trkpt><trkpt lat="43.469801486363146" lon="11.37678200585561"><ele>429.0</ele><time>2026-04-04T09:14:30Z</time></trkpt><trkpt lat="43.469718678606554" lon="11.376721068917588"><ele>429.0</ele><time>2026-04-04T09:14:31Z</time></trkpt><trkpt lat="43.46962245164516" lon="11.376638304296911"><ele>427.4</ele><time>2026-04-04T09:14:32Z</time></trkpt><trkpt lat="43.469531169062634" lon="11.376558567897893"><ele>425.79999999999995</ele><time>2026-04-04T09:14:33Z</time></trkpt><trkpt lat="43.46944316590209" lon="11.376484305338876"><ele>424.20000000000005</ele><time>2026-04-04T09:14:34Z</time></trkpt><trkpt lat="43.46935557229028" lon="11.376422369288779"><ele>422.6</ele><time>2026-04-04T09:14:35Z</time></trkpt><trkpt lat="43.469281929897335" lon="11.37637943923598"><ele>421.0</ele><time>2026-04-04T09:14:36Z</time></trkpt><trkpt lat="43.469174926288176" lon="11.376366265351551"><ele>421.0</ele><time>2026-04-04T09:14:37Z</time></trkpt><trkpt lat="43.46906597037392" lon="11.37647004677337"><ele>421.0</ele><time>2026-04-04T09:14:38Z</time></trkpt><trkpt lat="43.46896217158485" lon="11.376506855098572"><ele>421.0</ele><time>2026-04-04T09:14:39Z</time></trkpt><trkpt lat="43.46886959473169" lon="11.37653926612133"><ele>421.0</ele><time>2026-04-04T09:14:40Z</time></trkpt><trkpt lat="43.468769442502506" lon="11.376537421853746"><ele>421.0</ele><time>2026-04-04T09:14:41Z</time></trkpt><trkpt lat="43.46866426225395" lon="11.376527293644155"><ele>418.6</ele><time>2026-04-04T09:14:42Z</time></trkpt><trkpt lat="43.46856175558676" lon="11.376511936504764"><ele>416.20000000000005</ele><time>2026-04-04T09:14:43Z</time></trkpt><trkpt lat="43.4684587536319" lon="11.376493988163835"><ele>413.79999999999995</ele><time>2026-04-04T09:14:44Z</time></trkpt><trkpt lat="43.46835559575906" lon="11.376473848816973"><ele>411.4</ele><time>2026-04-04T09:14:45Z</time></trkpt><trkpt lat="43.46825659267716" lon="11.37645183303641"><ele>409.0</ele><time>2026-04-04T09:14:46Z</time></trkpt><trkpt lat="43.46817226004161" lon="11.376427368623302"><ele>409.00000000000006</ele><time>2026-04-04T09:14:47Z</time></trkpt><trkpt lat="43.46810404972032" lon="11.37639436127844"><ele>409.0</ele><time>2026-04-04T09:14:48Z</time></trkpt><trkpt lat="43.46804746742948" lon="11.376351168089437"><ele>409.0</ele><time>2026-04-04T09:14:49Z</time></trkpt><trkpt lat="43.46800610420133" lon="11.37620436196677"><ele>409.0</ele><time>2026-04-04T09:14:51Z</time></trkpt><trkpt lat="43.468035424687024" lon="11.376107930473172"><ele>409.00000000000006</ele><time>2026-04-04T09:14:52Z</time></trkpt><trkpt lat="43.46807535510314" lon="11.3759953831328"><ele>409.0</ele><time>2026-04-04T09:14:53Z</time></trkpt><trkpt lat="43.46811532360344" lon="11.375843003537184"><ele>408.79999999999995</ele><time>2026-04-04T09:14:54Z</time></trkpt><trkpt lat="43.46816185148801" lon="11.375693833722561"><ele>408.59999999999997</ele><time>2026-04-04T09:14:55Z</time></trkpt><trkpt lat="43.468210089015464" lon="11.375562318967377"><ele>408.4</ele><time>2026-04-04T09:14:56Z</time></trkpt><trkpt lat="43.46822963107495" lon="11.37544056220564"><ele>408.2</ele><time>2026-04-04T09:14:57Z</time></trkpt><trkpt lat="43.468231513706456" lon="11.375317231531735"><ele>408.0</ele><time>2026-04-04T09:14:58Z</time></trkpt><trkpt lat="43.46822035714126" lon="11.375223230034106"><ele>405.79999999999995</ele><time>2026-04-04T09:14:59Z</time></trkpt><trkpt lat="43.46828015489847" lon="11.37508780859616"><ele>403.6</ele><time>2026-04-04T09:15:01Z</time></trkpt><trkpt lat="43.46833833519425" lon="11.375004413966753"><ele>401.4</ele><time>2026-04-04T09:15:02Z</time></trkpt><trkpt lat="43.468440416418886" lon="11.374985635923863"><ele>399.20000000000005</ele><time>2026-04-04T09:15:03Z</time></trkpt><trkpt lat="43.46853834220831" lon="11.374960079649568"><ele>397.0</ele><time>2026-04-04T09:15:04Z</time></trkpt><trkpt lat="43.46862778533979" lon="11.374949135085599"><ele>397.0</ele><time>2026-04-04T09:15:05Z</time></trkpt><trkpt lat="43.4687222863865" lon="11.374957610990432"><ele>397.0</ele><time>2026-04-04T09:15:06Z</time></trkpt><trkpt lat="43.46881167823129" lon="11.374984990257317"><ele>397.0</ele><time>2026-04-04T09:15:07Z</time></trkpt><trkpt lat="43.46890867622338" lon="11.374988722691564"><ele>397.0</ele><time>2026-04-04T09:15:08Z</time></trkpt><trkpt lat="43.468998128137954" lon="11.375016555045734"><ele>397.0</ele><time>2026-04-04T09:15:09Z</time></trkpt><trkpt lat="43.469074923069925" lon="11.375053883574338"><ele>396.00000000000006</ele><time>2026-04-04T09:15:10Z</time></trkpt><trkpt lat="43.46915475266897" lon="11.37502136302484"><ele>395.0</ele><time>2026-04-04T09:15:11Z</time></trkpt><trkpt lat="43.469222341542704" lon="11.374952816987715"><ele>394.0</ele><time>2026-04-04T09:15:12Z</time></trkpt><trkpt lat="43.46926748909058" lon="11.374874457485454"><ele>393.0</ele><time>2026-04-04T09:15:13Z</time></trkpt><trkpt lat="43.4692690997601" lon="11.374734098987618"><ele>392.00000000000006</ele><time>2026-04-04T09:15:15Z</time></trkpt><trkpt lat="43.46927620447111" lon="11.374645627458646"><ele>391.0</ele><time>2026-04-04T09:15:18Z</time></trkpt><trkpt lat="43.4692793597591" lon="11.374553427939832"><ele>390.00000000000006</ele><time>2026-04-04T09:15:57.999Z</time></trkpt><trkpt lat="43.46929311653211" lon="11.374423478405637"><ele>389.0</ele><time>2026-04-04T09:15:59.999Z</time></trkpt><trkpt lat="43.46935003534774" lon="11.37434707135655"><ele>388.0</ele><time>2026-04-04T09:16:01.999Z</time></trkpt><trkpt lat="43.469446082428895" lon="11.37434520637869"><ele>387.0</ele><time>2026-04-04T09:16:03.999Z</time></trkpt><trkpt lat="43.469482323495086" lon="11.374262231468974"><ele>386.00000000000006</ele><time>2026-04-04T09:16:07.999Z</time></trkpt><trkpt lat="43.46937625160359" lon="11.374240525864101"><ele>385.0</ele><time>2026-04-04T09:16:09.999Z</time></trkpt><trkpt lat="43.46929331983301" lon="11.37422630821811"><ele>385.00000000000006</ele><time>2026-04-04T09:16:10.999Z</time></trkpt><trkpt lat="43.469214122654975" lon="11.374221488668757"><ele>385.0</ele><time>2026-04-04T09:16:11.999Z</time></trkpt><trkpt lat="43.46913421964773" lon="11.374210863751964"><ele>385.0</ele><time>2026-04-04T09:16:12.999Z</time></trkpt><trkpt lat="43.46905638891591" lon="11.374187880227739"><ele>385.0</ele><time>2026-04-04T09:16:13.999Z</time></trkpt><trkpt lat="43.46898568361754" lon="11.374148496874556"><ele>385.00000000000006</ele><time>2026-04-04T09:16:14.999Z</time></trkpt><trkpt lat="43.468919322669" lon="11.374097090967835"><ele>385.0</ele><time>2026-04-04T09:16:15.999Z</time></trkpt><trkpt lat="43.46884292121995" lon="11.37404231543708"><ele>385.0</ele><time>2026-04-04T09:16:16.999Z</time></trkpt><trkpt lat="43.468776823768124" lon="11.37395419706116"><ele>385.0</ele><time>2026-04-04T09:16:17.999Z</time></trkpt><trkpt lat="43.46870975984516" lon="11.373859104075155"><ele>385.0</ele><time>2026-04-04T09:16:19Z</time></trkpt><trkpt lat="43.46864523400046" lon="11.373754810023396"><ele>385.0</ele><time>2026-04-04T09:16:20Z</time></trkpt><trkpt lat="43.468588170324395" lon="11.373647067851907"><ele>385.0</ele><time>2026-04-04T09:16:21Z</time></trkpt><trkpt lat="43.46852095335728" lon="11.373566580045212"><ele>384.6</ele><time>2026-04-04T09:16:22Z</time></trkpt><trkpt lat="43.468431856834925" lon="11.37348961484426"><ele>384.2</ele><time>2026-04-04T09:16:23Z</time></trkpt><trkpt lat="43.46834723675419" lon="11.373437266317529"><ele>383.79999999999995</ele><time>2026-04-04T09:16:24Z</time></trkpt><trkpt lat="43.468261250081255" lon="11.373394006470058"><ele>383.4</ele><time>2026-04-04T09:16:25Z</time></trkpt><trkpt lat="43.4681811926815" lon="11.373354697401172"><ele>383.0</ele><time>2026-04-04T09:16:26Z</time></trkpt><trkpt lat="43.46810218599011" lon="11.373315904357735"><ele>383.0</ele><time>2026-04-04T09:16:27Z</time></trkpt><trkpt lat="43.46802676760569" lon="11.373278873165415"><ele>383.0</ele><time>2026-04-04T09:16:28Z</time></trkpt><trkpt lat="43.467953410641854" lon="11.373261808193828"><ele>383.0</ele><time>2026-04-04T09:16:29Z</time></trkpt><trkpt lat="43.46791346970809" lon="11.373186101243288"><ele>383.0</ele><time>2026-04-04T09:16:30Z</time></trkpt><trkpt lat="43.46788891909607" lon="11.373000736026295"><ele>383.0</ele><time>2026-04-04T09:16:32Z</time></trkpt><trkpt lat="43.467883125476476" lon="11.372902856262757"><ele>383.0</ele><time>2026-04-04T09:16:33Z</time></trkpt><trkpt lat="43.46787254859785" lon="11.372803052237707"><ele>382.4</ele><time>2026-04-04T09:16:34Z</time></trkpt><trkpt lat="43.467849711123385" lon="11.372685328898557"><ele>381.79999999999995</ele><time>2026-04-04T09:16:35Z</time></trkpt><trkpt lat="43.46780029727178" lon="11.372519095546089"><ele>381.2</ele><time>2026-04-04T09:16:37Z</time></trkpt><trkpt lat="43.46776251429212" lon="11.372407593737547"><ele>380.6</ele><time>2026-04-04T09:16:38Z</time></trkpt><trkpt lat="43.46771718102423" lon="11.372266424816106"><ele>380.0</ele><time>2026-04-04T09:16:39Z</time></trkpt><trkpt lat="43.46765267022704" lon="11.37210723735738"><ele>380.0</ele><time>2026-04-04T09:16:40Z</time></trkpt><trkpt lat="43.46760156453187" lon="11.371933908651602"><ele>380.0</ele><time>2026-04-04T09:16:41Z</time></trkpt><trkpt lat="43.46753053070636" lon="11.371782828897341"><ele>380.0</ele><time>2026-04-04T09:16:42Z</time></trkpt><trkpt lat="43.467451888577656" lon="11.371652136486963"><ele>380.0</ele><time>2026-04-04T09:16:43Z</time></trkpt><trkpt lat="43.46733343141841" lon="11.371543349551093"><ele>380.0</ele><time>2026-04-04T09:16:44Z</time></trkpt><trkpt lat="43.46720508808706" lon="11.371450148903524"><ele>380.0</ele><time>2026-04-04T09:16:45Z</time></trkpt><trkpt lat="43.467069114006996" lon="11.371357027826981"><ele>380.0</ele><time>2026-04-04T09:16:46Z</time></trkpt><trkpt lat="43.46692995043831" lon="11.371257190655081"><ele>379.75</ele><time>2026-04-04T09:16:47Z</time></trkpt><trkpt lat="43.46680287370728" lon="11.371153060455887"><ele>379.5</ele><time>2026-04-04T09:16:48Z</time></trkpt><trkpt lat="43.46669725628872" lon="11.37103592890983"><ele>379.25</ele><time>2026-04-04T09:16:49Z</time></trkpt><trkpt lat="43.466588406018836" lon="11.370867296675213"><ele>379.0</ele><time>2026-04-04T09:16:50Z</time></trkpt><trkpt lat="43.4664744659288" lon="11.370684096133896"><ele>378.0</ele><time>2026-04-04T09:16:51Z</time></trkpt><trkpt lat="43.46637040906975" lon="11.370500162757523"><ele>377.0</ele><time>2026-04-04T09:16:52Z</time></trkpt><trkpt lat="43.466277581258986" lon="11.37031992836481"><ele>376.0</ele><time>2026-04-04T09:16:53Z</time></trkpt><trkpt lat="43.46620421724945" lon="11.37015853549877"><ele>376.0</ele><time>2026-04-04T09:16:54Z</time></trkpt><trkpt lat="43.46613501702348" lon="11.369991502808533"><ele>376.0</ele><time>2026-04-04T09:16:55Z</time></trkpt><trkpt lat="43.466065367762646" lon="11.369808927402742"><ele>376.0</ele><time>2026-04-04T09:16:56Z</time></trkpt><trkpt lat="43.466005327069276" lon="11.36963224883412"><ele>376.0</ele><time>2026-04-04T09:16:57Z</time></trkpt><trkpt lat="43.465956185344375" lon="11.369462681150132"><ele>375.5</ele><time>2026-04-04T09:16:58Z</time></trkpt><trkpt lat="43.46591529620397" lon="11.369306417733462"><ele>375.0</ele><time>2026-04-04T09:16:59Z</time></trkpt><trkpt lat="43.46587674779811" lon="11.369149094431993"><ele>374.5</ele><time>2026-04-04T09:17:00Z</time></trkpt><trkpt lat="43.46583364407585" lon="11.368969358325948"><ele>374.0</ele><time>2026-04-04T09:17:01Z</time></trkpt><trkpt lat="43.46579379975349" lon="11.368793070878144"><ele>374.0</ele><time>2026-04-04T09:17:02Z</time></trkpt><trkpt lat="43.46575311287558" lon="11.368618517654292"><ele>374.0</ele><time>2026-04-04T09:17:03Z</time></trkpt><trkpt lat="43.465753243204425" lon="11.368430379577587"><ele>374.0</ele><time>2026-04-04T09:17:04Z</time></trkpt><trkpt lat="43.46576920239806" lon="11.36824365775844"><ele>374.0</ele><time>2026-04-04T09:17:05Z</time></trkpt><trkpt lat="43.46580901577694" lon="11.368061013093499"><ele>373.25</ele><time>2026-04-04T09:17:06Z</time></trkpt><trkpt lat="43.46584622136942" lon="11.367889995368673"><ele>372.5</ele><time>2026-04-04T09:17:07Z</time></trkpt><trkpt lat="43.46588089372792" lon="11.367717528582663"><ele>371.75</ele><time>2026-04-04T09:17:08Z</time></trkpt><trkpt lat="43.46591393211979" lon="11.367552526148547"><ele>371.0</ele><time>2026-04-04T09:17:09Z</time></trkpt><trkpt lat="43.46595027895559" lon="11.367374113507577"><ele>370.5</ele><time>2026-04-04T09:17:10Z</time></trkpt><trkpt lat="43.465988690372235" lon="11.367186773517737"><ele>370.0</ele><time>2026-04-04T09:17:11Z</time></trkpt><trkpt lat="43.466029193668014" lon="11.36699654220582"><ele>369.5</ele><time>2026-04-04T09:17:12Z</time></trkpt><trkpt lat="43.46607278633848" lon="11.366807052969563"><ele>369.0</ele><time>2026-04-04T09:17:13Z</time></trkpt><trkpt lat="43.466116117762915" lon="11.366609751157561"><ele>369.0</ele><time>2026-04-04T09:17:14Z</time></trkpt><trkpt lat="43.46615414227007" lon="11.366409409406952"><ele>369.0</ele><time>2026-04-04T09:17:15Z</time></trkpt><trkpt lat="43.46619954579833" lon="11.366203406798451"><ele>369.0</ele><time>2026-04-04T09:17:16Z</time></trkpt><trkpt lat="43.466249030166445" lon="11.365985242730613"><ele>369.3333333333333</ele><time>2026-04-04T09:17:17Z</time></trkpt><trkpt lat="43.466287969804505" lon="11.365796593377038"><ele>369.66666666666663</ele><time>2026-04-04T09:17:18Z</time></trkpt><trkpt lat="43.46633246622591" lon="11.365593059588216"><ele>370.0</ele><time>2026-04-04T09:17:19Z</time></trkpt><trkpt lat="43.46638227210054" lon="11.3653735420919"><ele>370.0</ele><time>2026-04-04T09:17:20Z</time></trkpt><trkpt lat="43.46642774321024" lon="11.365158012590422"><ele>370.0</ele><time>2026-04-04T09:17:21Z</time></trkpt><trkpt lat="43.46647509162157" lon="11.364933389120738"><ele>370.0</ele><time>2026-04-04T09:17:22Z</time></trkpt><trkpt lat="43.46652014831541" lon="11.364705820505135"><ele>369.66666666666663</ele><time>2026-04-04T09:17:23Z</time></trkpt><trkpt lat="43.466564589990654" lon="11.364488246354849"><ele>369.3333333333333</ele><time>2026-04-04T09:17:24Z</time></trkpt><trkpt lat="43.46661287949995" lon="11.364288945327276"><ele>369.0</ele><time>2026-04-04T09:17:25Z</time></trkpt><trkpt lat="43.46665647974696" lon="11.364082344869313"><ele>369.0</ele><time>2026-04-04T09:17:26Z</time></trkpt><trkpt lat="43.466702449510535" lon="11.363887278742908"><ele>369.0</ele><time>2026-04-04T09:17:27Z</time></trkpt><trkpt lat="43.46674194141678" lon="11.363707318310565"><ele>369.0</ele><time>2026-04-04T09:17:28Z</time></trkpt><trkpt lat="43.46678509826328" lon="11.36354221633472"><ele>369.0</ele><time>2026-04-04T09:17:29Z</time></trkpt><trkpt lat="43.46682277311513" lon="11.363384646750578"><ele>369.0</ele><time>2026-04-04T09:17:30Z</time></trkpt><trkpt lat="43.46685326965033" lon="11.363237569551483"><ele>369.0</ele><time>2026-04-04T09:17:31Z</time></trkpt><trkpt lat="43.46686260121773" lon="11.363110390642413"><ele>369.0</ele><time>2026-04-04T09:17:32Z</time></trkpt><trkpt lat="43.46686817865333" lon="11.362981246317995"><ele>369.0</ele><time>2026-04-04T09:17:33Z</time></trkpt><trkpt lat="43.466817607330185" lon="11.362838116713883"><ele>369.0</ele><time>2026-04-04T09:17:34Z</time></trkpt><trkpt lat="43.466749375506616" lon="11.3626911632387"><ele>369.0</ele><time>2026-04-04T09:17:35Z</time></trkpt><trkpt lat="43.46663275160618" lon="11.362551552028542"><ele>369.0</ele><time>2026-04-04T09:17:36Z</time></trkpt><trkpt lat="43.46654592898595" lon="11.362396587644747"><ele>369.0</ele><time>2026-04-04T09:17:37Z</time></trkpt><trkpt lat="43.46647523742308" lon="11.362242952096189"><ele>369.0</ele><time>2026-04-04T09:17:38Z</time></trkpt><trkpt lat="43.46638329926047" lon="11.362096715200703"><ele>369.25</ele><time>2026-04-04T09:17:39Z</time></trkpt><trkpt lat="43.46632157712788" lon="11.361894615043777"><ele>369.5</ele><time>2026-04-04T09:17:40Z</time></trkpt><trkpt lat="43.46627329788896" lon="11.361703509130908"><ele>369.75</ele><time>2026-04-04T09:17:41Z</time></trkpt><trkpt lat="43.46623318757078" lon="11.361530919213655"><ele>370.0</ele><time>2026-04-04T09:17:42Z</time></trkpt><trkpt lat="43.466215426499716" lon="11.361361214115613"><ele>370.0</ele><time>2026-04-04T09:17:43Z</time></trkpt><trkpt lat="43.46616610312362" lon="11.361219480087826"><ele>370.0</ele><time>2026-04-04T09:17:44Z</time></trkpt><trkpt lat="43.466092265770044" lon="11.361096487511842"><ele>370.0</ele><time>2026-04-04T09:17:45Z</time></trkpt><trkpt lat="43.46598981596812" lon="11.360990399698482"><ele>370.0</ele><time>2026-04-04T09:17:46Z</time></trkpt><trkpt lat="43.46585915137023" lon="11.360922830963808"><ele>370.0</ele><time>2026-04-04T09:17:47Z</time></trkpt><trkpt lat="43.46575134901832" lon="11.360817896660587"><ele>370.0</ele><time>2026-04-04T09:17:48Z</time></trkpt><trkpt lat="43.46566423719295" lon="11.360691703227804"><ele>370.0</ele><time>2026-04-04T09:17:49Z</time></trkpt><trkpt lat="43.4655958001309" lon="11.360536556704677"><ele>370.0</ele><time>2026-04-04T09:17:50Z</time></trkpt><trkpt lat="43.46551275192172" lon="11.360363752967126"><ele>368.25</ele><time>2026-04-04T09:17:51Z</time></trkpt><trkpt lat="43.4654253129024" lon="11.360209029402531"><ele>366.5</ele><time>2026-04-04T09:17:52Z</time></trkpt><trkpt lat="43.46532483245436" lon="11.360087260590511"><ele>364.75</ele><time>2026-04-04T09:17:53Z</time></trkpt><trkpt lat="43.465235287254046" lon="11.35998621236981"><ele>363.0</ele><time>2026-04-04T09:17:54Z</time></trkpt><trkpt lat="43.465168936565675" lon="11.35984644252616"><ele>363.5</ele><time>2026-04-04T09:17:55Z</time></trkpt><trkpt lat="43.465108954902206" lon="11.359675300448254"><ele>364.0</ele><time>2026-04-04T09:17:55.999Z</time></trkpt><trkpt lat="43.46505621075552" lon="11.359509568807416"><ele>364.5</ele><time>2026-04-04T09:17:56.999Z</time></trkpt><trkpt lat="43.46501281467242" lon="11.359344873361701"><ele>365.0</ele><time>2026-04-04T09:17:57.999Z</time></trkpt><trkpt lat="43.46498662953457" lon="11.35918995730071"><ele>365.0</ele><time>2026-04-04T09:17:58.999Z</time></trkpt><trkpt lat="43.464967974218894" lon="11.359029899645101"><ele>365.0</ele><time>2026-04-04T09:17:59.999Z</time></trkpt><trkpt lat="43.46494683650798" lon="11.358859202135271"><ele>365.0</ele><time>2026-04-04T09:18:00.999Z</time></trkpt><trkpt lat="43.46491402481972" lon="11.358676906164758"><ele>365.0</ele><time>2026-04-04T09:18:01.999Z</time></trkpt><trkpt lat="43.46487045091188" lon="11.358487823882296"><ele>366.0</ele><time>2026-04-04T09:18:02.999Z</time></trkpt><trkpt lat="43.46481976363336" lon="11.3582907566324"><ele>367.0</ele><time>2026-04-04T09:18:03.999Z</time></trkpt><trkpt lat="43.46476328251043" lon="11.358102712378722"><ele>368.0</ele><time>2026-04-04T09:18:04.999Z</time></trkpt><trkpt lat="43.4646995158162" lon="11.357939950671739"><ele>369.0</ele><time>2026-04-04T09:18:05.999Z</time></trkpt><trkpt lat="43.464627194414675" lon="11.357785882400112"><ele>367.75</ele><time>2026-04-04T09:18:06.999Z</time></trkpt><trkpt lat="43.46454181041439" lon="11.357631768519399"><ele>366.5</ele><time>2026-04-04T09:18:07.999Z</time></trkpt><trkpt lat="43.46443550771481" lon="11.357494509237725"><ele>365.25</ele><time>2026-04-04T09:18:08.999Z</time></trkpt><trkpt lat="43.46432327226392" lon="11.357383568570377"><ele>364.0</ele><time>2026-04-04T09:18:09.999Z</time></trkpt><trkpt lat="43.46420505522303" lon="11.35727893102737"><ele>365.0</ele><time>2026-04-04T09:18:10.999Z</time></trkpt><trkpt lat="43.46407904445012" lon="11.35718404521015"><ele>366.0</ele><time>2026-04-04T09:18:11.999Z</time></trkpt><trkpt lat="43.46394466191168" lon="11.357104784093934"><ele>367.0</ele><time>2026-04-04T09:18:12.999Z</time></trkpt><trkpt lat="43.46381167804307" lon="11.357056377219484"><ele>368.0</ele><time>2026-04-04T09:18:13.999Z</time></trkpt><trkpt lat="43.46367326352269" lon="11.357037834556136"><ele>368.0</ele><time>2026-04-04T09:18:14.999Z</time></trkpt><trkpt lat="43.46353716257939" lon="11.357013196423182"><ele>368.0</ele><time>2026-04-04T09:18:15.999Z</time></trkpt><trkpt lat="43.46341025212976" lon="11.356982893100646"><ele>368.0</ele><time>2026-04-04T09:18:16.999Z</time></trkpt><trkpt lat="43.46328816933346" lon="11.356967253022784"><ele>368.0</ele><time>2026-04-04T09:18:17.999Z</time></trkpt><trkpt lat="43.46317077129622" lon="11.356957251985412"><ele>368.0</ele><time>2026-04-04T09:18:18.999Z</time></trkpt><trkpt lat="43.46306954329948" lon="11.356923781656299"><ele>368.0</ele><time>2026-04-04T09:18:19.999Z</time></trkpt><trkpt lat="43.46298944560499" lon="11.35685077979434"><ele>368.0</ele><time>2026-04-04T09:18:20.999Z</time></trkpt><trkpt lat="43.462894683010205" lon="11.356770157121675"><ele>368.0</ele><time>2026-04-04T09:18:21.999Z</time></trkpt><trkpt lat="43.462804646074225" lon="11.356656824742643"><ele>368.0</ele><time>2026-04-04T09:18:22.999Z</time></trkpt><trkpt lat="43.46268309297977" lon="11.356562781407488"><ele>366.6666666666667</ele><time>2026-04-04T09:18:23.999Z</time></trkpt><trkpt lat="43.46256926366656" lon="11.356435645687107"><ele>365.3333333333333</ele><time>2026-04-04T09:18:25Z</time></trkpt><trkpt lat="43.46243008853777" lon="11.356323344214234"><ele>364.0</ele><time>2026-04-04T09:18:26Z</time></trkpt><trkpt lat="43.462297360937846" lon="11.356201788078984"><ele>364.0</ele><time>2026-04-04T09:18:27Z</time></trkpt><trkpt lat="43.46215261626935" lon="11.356078045921333"><ele>364.0</ele><time>2026-04-04T09:18:28Z</time></trkpt><trkpt lat="43.462016893653626" lon="11.355925056255652"><ele>364.0</ele><time>2026-04-04T09:18:29Z</time></trkpt><trkpt lat="43.4618804550982" lon="11.355793834884288"><ele>362.0</ele><time>2026-04-04T09:18:30Z</time></trkpt><trkpt lat="43.46174939128248" lon="11.355674970171922"><ele>360.0</ele><time>2026-04-04T09:18:31Z</time></trkpt><trkpt lat="43.46162199907222" lon="11.3555780287447"><ele>358.0</ele><time>2026-04-04T09:18:32Z</time></trkpt><trkpt lat="43.461510185647086" lon="11.35550817575565"><ele>356.0</ele><time>2026-04-04T09:18:33Z</time></trkpt><trkpt lat="43.46139811044582" lon="11.35547172114127"><ele>355.5</ele><time>2026-04-04T09:18:34Z</time></trkpt><trkpt lat="43.46127470624666" lon="11.355484590986173"><ele>355.0</ele><time>2026-04-04T09:18:35Z</time></trkpt><trkpt lat="43.461147529559625" lon="11.355515024441448"><ele>354.5</ele><time>2026-04-04T09:18:36Z</time></trkpt><trkpt lat="43.46101420417091" lon="11.355555870405455"><ele>354.0</ele><time>2026-04-04T09:18:37Z</time></trkpt><trkpt lat="43.46089122299702" lon="11.355583441947463"><ele>354.0</ele><time>2026-04-04T09:18:38Z</time></trkpt><trkpt lat="43.46075785079482" lon="11.35559715589835"><ele>354.0</ele><time>2026-04-04T09:18:39Z</time></trkpt><trkpt lat="43.460611053998434" lon="11.355616672200979"><ele>354.0</ele><time>2026-04-04T09:18:40Z</time></trkpt><trkpt lat="43.46046041353349" lon="11.355575398410291"><ele>354.0</ele><time>2026-04-04T09:18:41Z</time></trkpt><trkpt lat="43.46032659725283" lon="11.355527620827566"><ele>353.25</ele><time>2026-04-04T09:18:42Z</time></trkpt><trkpt lat="43.4602030760353" lon="11.355494860583343"><ele>352.5</ele><time>2026-04-04T09:18:43Z</time></trkpt><trkpt lat="43.46007152260386" lon="11.355502431453505"><ele>351.75</ele><time>2026-04-04T09:18:44Z</time></trkpt><trkpt lat="43.45994397690971" lon="11.355553252881624"><ele>351.0</ele><time>2026-04-04T09:18:45Z</time></trkpt><trkpt lat="43.459816825774006" lon="11.355601368605218"><ele>351.0</ele><time>2026-04-04T09:18:46Z</time></trkpt><trkpt lat="43.45967094525703" lon="11.355624520615953"><ele>351.0</ele><time>2026-04-04T09:18:47Z</time></trkpt><trkpt lat="43.459528381505685" lon="11.355591356514683"><ele>351.0</ele><time>2026-04-04T09:18:48Z</time></trkpt><trkpt lat="43.45938655548863" lon="11.355560674072937"><ele>351.0</ele><time>2026-04-04T09:18:49Z</time></trkpt><trkpt lat="43.45924779116034" lon="11.355518897819618"><ele>350.75</ele><time>2026-04-04T09:18:50Z</time></trkpt><trkpt lat="43.459121378579034" lon="11.355484287546329"><ele>350.5</ele><time>2026-04-04T09:18:51Z</time></trkpt><trkpt lat="43.458986012717574" lon="11.355438236794926"><ele>350.25</ele><time>2026-04-04T09:18:52Z</time></trkpt><trkpt lat="43.45884726990658" lon="11.355379961944235"><ele>350.0</ele><time>2026-04-04T09:18:53Z</time></trkpt><trkpt lat="43.458715645781965" lon="11.35530911179379"><ele>350.0</ele><time>2026-04-04T09:18:54Z</time></trkpt><trkpt lat="43.45858284292409" lon="11.355213210915894"><ele>350.0</ele><time>2026-04-04T09:18:55Z</time></trkpt><trkpt lat="43.458456604080574" lon="11.355104144338716"><ele>350.0</ele><time>2026-04-04T09:18:56Z</time></trkpt><trkpt lat="43.4583361594389" lon="11.354988858914894"><ele>350.0</ele><time>2026-04-04T09:18:57Z</time></trkpt><trkpt lat="43.45822530241383" lon="11.35486884551122"><ele>350.0</ele><time>2026-04-04T09:18:58Z</time></trkpt><trkpt lat="43.458120371236845" lon="11.35477997125585"><ele>350.0</ele><time>2026-04-04T09:18:59Z</time></trkpt><trkpt lat="43.45800580182129" lon="11.354727832728472"><ele>350.0</ele><time>2026-04-04T09:19:00Z</time></trkpt><trkpt lat="43.45787470798144" lon="11.354694731126957"><ele>350.0</ele><time>2026-04-04T09:19:01Z</time></trkpt><trkpt lat="43.45772573923531" lon="11.3546664559371"><ele>351.6666666666667</ele><time>2026-04-04T09:19:02Z</time></trkpt><trkpt lat="43.45757765408705" lon="11.354617083085842"><ele>353.3333333333333</ele><time>2026-04-04T09:19:03Z</time></trkpt><trkpt lat="43.457428332189835" lon="11.354547027325872"><ele>355.0</ele><time>2026-04-04T09:19:04Z</time></trkpt><trkpt lat="43.45728690543245" lon="11.354449613794205"><ele>355.0</ele><time>2026-04-04T09:19:05Z</time></trkpt><trkpt lat="43.45715078917346" lon="11.354361946678326"><ele>355.0</ele><time>2026-04-04T09:19:06Z</time></trkpt><trkpt lat="43.457005934859716" lon="11.354307480976512"><ele>355.0</ele><time>2026-04-04T09:19:07Z</time></trkpt><trkpt lat="43.45685384173518" lon="11.354276735410219"><ele>352.0</ele><time>2026-04-04T09:19:08Z</time></trkpt><trkpt lat="43.456682023597665" lon="11.354251768503667"><ele>349.0</ele><time>2026-04-04T09:19:09Z</time></trkpt><trkpt lat="43.456508213234244" lon="11.35421366327275"><ele>346.0</ele><time>2026-04-04T09:19:10Z</time></trkpt><trkpt lat="43.45635725520712" lon="11.354194027819043"><ele>345.66666666666663</ele><time>2026-04-04T09:19:11Z</time></trkpt><trkpt lat="43.456209484759505" lon="11.354172521499441"><ele>345.3333333333333</ele><time>2026-04-04T09:19:12Z</time></trkpt><trkpt lat="43.45605710072265" lon="11.354145182506898"><ele>345.0</ele><time>2026-04-04T09:19:13Z</time></trkpt><trkpt lat="43.45591001731627" lon="11.354098684312225"><ele>345.0</ele><time>2026-04-04T09:19:14Z</time></trkpt><trkpt lat="43.455770531644205" lon="11.354041274111843"><ele>345.0</ele><time>2026-04-04T09:19:15Z</time></trkpt><trkpt lat="43.45562902168198" lon="11.35398002265202"><ele>345.0</ele><time>2026-04-04T09:19:16Z</time></trkpt><trkpt lat="43.4554978906715" lon="11.353930357316278"><ele>345.0</ele><time>2026-04-04T09:19:17Z</time></trkpt><trkpt lat="43.45536975333606" lon="11.353909687563164"><ele>344.5</ele><time>2026-04-04T09:19:18Z</time></trkpt><trkpt lat="43.45525009536069" lon="11.353939467639796"><ele>344.0</ele><time>2026-04-04T09:19:19Z</time></trkpt><trkpt lat="43.45514289030864" lon="11.35398841116974"><ele>343.5</ele><time>2026-04-04T09:19:20Z</time></trkpt><trkpt lat="43.45503425302834" lon="11.354032633160093"><ele>343.0</ele><time>2026-04-04T09:19:21Z</time></trkpt><trkpt lat="43.4549243699615" lon="11.354062538049256"><ele>343.0</ele><time>2026-04-04T09:19:22Z</time></trkpt><trkpt lat="43.454810510470836" lon="11.35410478334245"><ele>343.0</ele><time>2026-04-04T09:19:23Z</time></trkpt><trkpt lat="43.45470245099637" lon="11.354169203328993"><ele>343.0</ele><time>2026-04-04T09:19:24Z</time></trkpt><trkpt lat="43.45460875558552" lon="11.35422967668481"><ele>343.0</ele><time>2026-04-04T09:19:25Z</time></trkpt><trkpt lat="43.4544976021304" lon="11.354320978773593"><ele>341.59999999999997</ele><time>2026-04-04T09:19:26Z</time></trkpt><trkpt lat="43.4543946808955" lon="11.35437161476576"><ele>340.2</ele><time>2026-04-04T09:19:27Z</time></trkpt><trkpt lat="43.45429411267185" lon="11.354384479456446"><ele>338.8</ele><time>2026-04-04T09:19:28Z</time></trkpt><trkpt lat="43.45419674177301" lon="11.354366384510309"><ele>337.4</ele><time>2026-04-04T09:19:29Z</time></trkpt><trkpt lat="43.45410989220555" lon="11.354313816878998"><ele>336.0</ele><time>2026-04-04T09:19:30Z</time></trkpt><trkpt lat="43.454036616548855" lon="11.354265482825328"><ele>336.0</ele><time>2026-04-04T09:19:31Z</time></trkpt><trkpt lat="43.45395420716668" lon="11.354246641813182"><ele>336.0</ele><time>2026-04-04T09:19:32Z</time></trkpt><trkpt lat="43.45387068012222" lon="11.354287415310576"><ele>336.0</ele><time>2026-04-04T09:19:33Z</time></trkpt><trkpt lat="43.453769134745485" lon="11.354358187973492"><ele>336.0</ele><time>2026-04-04T09:19:34Z</time></trkpt><trkpt lat="43.45364360301545" lon="11.354434236440703"><ele>336.0</ele><time>2026-04-04T09:19:35Z</time></trkpt><trkpt lat="43.453500611677114" lon="11.354511906588069"><ele>337.0</ele><time>2026-04-04T09:19:36Z</time></trkpt><trkpt lat="43.45335472163446" lon="11.354578646583057"><ele>338.0</ele><time>2026-04-04T09:19:37Z</time></trkpt><trkpt lat="43.45321780597194" lon="11.354634898990193"><ele>339.0</ele><time>2026-04-04T09:19:38Z</time></trkpt><trkpt lat="43.45306792972571" lon="11.354710955821279"><ele>339.75</ele><time>2026-04-04T09:19:39Z</time></trkpt><trkpt lat="43.45293608351175" lon="11.354793689708254"><ele>340.5</ele><time>2026-04-04T09:19:40Z</time></trkpt><trkpt lat="43.45280178163843" lon="11.354889268327769"><ele>341.25</ele><time>2026-04-04T09:19:41Z</time></trkpt><trkpt lat="43.4526637204743" lon="11.354978119188122"><ele>342.0</ele><time>2026-04-04T09:19:42Z</time></trkpt><trkpt lat="43.452519607165144" lon="11.355060750531608"><ele>342.0</ele><time>2026-04-04T09:19:43Z</time></trkpt><trkpt lat="43.452394418669755" lon="11.355114275670735"><ele>342.0</ele><time>2026-04-04T09:19:44Z</time></trkpt><trkpt lat="43.45225662931063" lon="11.355171175116356"><ele>342.0</ele><time>2026-04-04T09:19:45Z</time></trkpt><trkpt lat="43.4521380042788" lon="11.355223156747485"><ele>342.0</ele><time>2026-04-04T09:19:46Z</time></trkpt><trkpt lat="43.45201559427311" lon="11.355271544229996"><ele>343.40000000000003</ele><time>2026-04-04T09:19:47Z</time></trkpt><trkpt lat="43.45190494009666" lon="11.355294821816212"><ele>344.8</ele><time>2026-04-04T09:19:48Z</time></trkpt><trkpt lat="43.45179845239335" lon="11.355308092114004"><ele>346.2</ele><time>2026-04-04T09:19:49Z</time></trkpt><trkpt lat="43.451703221942985" lon="11.35532132671509"><ele>347.6</ele><time>2026-04-04T09:19:50Z</time></trkpt><trkpt lat="43.451622815556576" lon="11.355349501499319"><ele>349.0</ele><time>2026-04-04T09:19:51Z</time></trkpt><trkpt lat="43.45154995665365" lon="11.355400841697243"><ele>348.99999999999994</ele><time>2026-04-04T09:19:52Z</time></trkpt><trkpt lat="43.451492508290585" lon="11.355453853192644"><ele>349.0</ele><time>2026-04-04T09:19:53Z</time></trkpt><trkpt lat="43.45142752392743" lon="11.355501451830627"><ele>349.0</ele><time>2026-04-04T09:19:54Z</time></trkpt><trkpt lat="43.4513521828763" lon="11.355546985114467"><ele>349.0</ele><time>2026-04-04T09:19:55Z</time></trkpt><trkpt lat="43.45127149316431" lon="11.355594257333674"><ele>349.0</ele><time>2026-04-04T09:19:56Z</time></trkpt><trkpt lat="43.45120643984173" lon="11.35562905352538"><ele>348.99999999999994</ele><time>2026-04-04T09:19:57Z</time></trkpt><trkpt lat="43.451141183152025" lon="11.355648818348568"><ele>349.0</ele><time>2026-04-04T09:19:59Z</time></trkpt><trkpt lat="43.45108926528417" lon="11.355717004090321"><ele>348.6</ele><time>2026-04-04T09:20:15.999Z</time></trkpt><trkpt lat="43.451042360078375" lon="11.35580052982411"><ele>348.2</ele><time>2026-04-04T09:20:17.999Z</time></trkpt><trkpt lat="43.45098679087536" lon="11.35586074528009"><ele>347.8</ele><time>2026-04-04T09:20:19.999Z</time></trkpt><trkpt lat="43.450888855601136" lon="11.355970202597279"><ele>347.40000000000003</ele><time>2026-04-04T09:20:21.999Z</time></trkpt><trkpt lat="43.450816365335804" lon="11.356064574863225"><ele>347.0</ele><time>2026-04-04T09:20:22.999Z</time></trkpt><trkpt lat="43.45074801619611" lon="11.356132935849098"><ele>347.0</ele><time>2026-04-04T09:20:23.999Z</time></trkpt><trkpt lat="43.450648345075265" lon="11.356238174135617"><ele>347.0</ele><time>2026-04-04T09:20:25.999Z</time></trkpt><trkpt lat="43.45058447791499" lon="11.356306871794903"><ele>347.0</ele><time>2026-04-04T09:20:26.999Z</time></trkpt><trkpt lat="43.45051405394278" lon="11.356390406392451"><ele>347.0</ele><time>2026-04-04T09:20:27.999Z</time></trkpt><trkpt lat="43.45043252098576" lon="11.356476948796328"><ele>347.0</ele><time>2026-04-04T09:20:28.999Z</time></trkpt><trkpt lat="43.45034200500505" lon="11.35655944246953"><ele>345.6</ele><time>2026-04-04T09:20:29.999Z</time></trkpt><trkpt lat="43.45025278127731" lon="11.356628993380633"><ele>344.20000000000005</ele><time>2026-04-04T09:20:31Z</time></trkpt><trkpt lat="43.45015760341674" lon="11.35668683139231"><ele>342.8</ele><time>2026-04-04T09:20:32Z</time></trkpt><trkpt lat="43.45007886706948" lon="11.35673880228569"><ele>341.4</ele><time>2026-04-04T09:20:33Z</time></trkpt><trkpt lat="43.44999563062713" lon="11.35677817689559"><ele>340.0</ele><time>2026-04-04T09:20:34Z</time></trkpt><trkpt lat="43.44987729035557" lon="11.356790362332497"><ele>340.0</ele><time>2026-04-04T09:20:35Z</time></trkpt><trkpt lat="43.449743380173985" lon="11.356774974776409"><ele>340.0</ele><time>2026-04-04T09:20:36Z</time></trkpt><trkpt lat="43.449617814743256" lon="11.35675416336594"><ele>340.0</ele><time>2026-04-04T09:20:37Z</time></trkpt><trkpt lat="43.4495038990171" lon="11.356730608914456"><ele>340.0</ele><time>2026-04-04T09:20:38Z</time></trkpt><trkpt lat="43.449397193971855" lon="11.356705931328696"><ele>338.0</ele><time>2026-04-04T09:20:39Z</time></trkpt><trkpt lat="43.449295603273285" lon="11.356660507432851"><ele>336.0</ele><time>2026-04-04T09:20:40Z</time></trkpt><trkpt lat="43.449188747186874" lon="11.356591725227915"><ele>334.0</ele><time>2026-04-04T09:20:41Z</time></trkpt><trkpt lat="43.449070869443645" lon="11.356481354605863"><ele>332.0</ele><time>2026-04-04T09:20:42Z</time></trkpt><trkpt lat="43.448957185962435" lon="11.356371270262397"><ele>333.33333333333337</ele><time>2026-04-04T09:20:43Z</time></trkpt><trkpt lat="43.448829298496605" lon="11.356277942311106"><ele>334.6666666666667</ele><time>2026-04-04T09:20:44Z</time></trkpt><trkpt lat="43.448684053959134" lon="11.356197854966105"><ele>336.0</ele><time>2026-04-04T09:20:45Z</time></trkpt><trkpt lat="43.44853817248112" lon="11.35610872352965"><ele>336.0</ele><time>2026-04-04T09:20:46Z</time></trkpt><trkpt lat="43.44839431353776" lon="11.356021509788802"><ele>336.0</ele><time>2026-04-04T09:20:47Z</time></trkpt><trkpt lat="43.44826244851252" lon="11.355949835624042"><ele>336.0</ele><time>2026-04-04T09:20:48Z</time></trkpt><trkpt lat="43.448122196856666" lon="11.355867242619734"><ele>336.0</ele><time>2026-04-04T09:20:49Z</time></trkpt><trkpt lat="43.44798474517671" lon="11.355782329694398"><ele>336.0</ele><time>2026-04-04T09:20:50Z</time></trkpt><trkpt lat="43.447846306985646" lon="11.355695662254387"><ele>336.0</ele><time>2026-04-04T09:20:51Z</time></trkpt><trkpt lat="43.44770529707708" lon="11.355611157938757"><ele>334.75</ele><time>2026-04-04T09:20:52Z</time></trkpt><trkpt lat="43.44758201562832" lon="11.355543757020444"><ele>333.5</ele><time>2026-04-04T09:20:53Z</time></trkpt><trkpt lat="43.44746397964223" lon="11.355488474640172"><ele>332.25</ele><time>2026-04-04T09:20:54Z</time></trkpt><trkpt lat="43.44734966366238" lon="11.35545531754897"><ele>331.0</ele><time>2026-04-04T09:20:55Z</time></trkpt><trkpt lat="43.44723185472707" lon="11.355437485963845"><ele>332.5</ele><time>2026-04-04T09:20:56Z</time></trkpt><trkpt lat="43.44710728378852" lon="11.35541369883241"><ele>334.0</ele><time>2026-04-04T09:20:57Z</time></trkpt><trkpt lat="43.446981676644135" lon="11.355392898352878"><ele>335.5</ele><time>2026-04-04T09:20:58Z</time></trkpt><trkpt lat="43.44685023765967" lon="11.355363564399777"><ele>337.0</ele><time>2026-04-04T09:20:59Z</time></trkpt><trkpt lat="43.44672241740204" lon="11.355337070607536"><ele>337.0</ele><time>2026-04-04T09:21:00Z</time></trkpt><trkpt lat="43.4465881893741" lon="11.35530609403362"><ele>337.0</ele><time>2026-04-04T09:21:01Z</time></trkpt><trkpt lat="43.44645251979478" lon="11.355282389778797"><ele>337.0</ele><time>2026-04-04T09:21:02Z</time></trkpt><trkpt lat="43.446311626340446" lon="11.355258051101364"><ele>337.0</ele><time>2026-04-04T09:21:03Z</time></trkpt><trkpt lat="43.44617351809169" lon="11.355240624899992"><ele>335.75</ele><time>2026-04-04T09:21:04Z</time></trkpt><trkpt lat="43.446045041353656" lon="11.355227106445478"><ele>334.5</ele><time>2026-04-04T09:21:05Z</time></trkpt><trkpt lat="43.44592518877202" lon="11.355218480691702"><ele>333.25</ele><time>2026-04-04T09:21:06Z</time></trkpt><trkpt lat="43.44580936500302" lon="11.355210728894015"><ele>332.0</ele><time>2026-04-04T09:21:07Z</time></trkpt><trkpt lat="43.44569296497118" lon="11.355187617942835"><ele>332.0</ele><time>2026-04-04T09:21:08Z</time></trkpt><trkpt lat="43.44557741920366" lon="11.355141345501615"><ele>332.0</ele><time>2026-04-04T09:21:09Z</time></trkpt><trkpt lat="43.44546064635004" lon="11.355064514121658"><ele>332.0</ele><time>2026-04-04T09:21:10Z</time></trkpt><trkpt lat="43.445345807693066" lon="11.354970038176846"><ele>332.0</ele><time>2026-04-04T09:21:11Z</time></trkpt><trkpt lat="43.44523817119464" lon="11.354864009257604"><ele>331.20000000000005</ele><time>2026-04-04T09:21:12Z</time></trkpt><trkpt lat="43.44514880623466" lon="11.354759228976878"><ele>330.4</ele><time>2026-04-04T09:21:13Z</time></trkpt><trkpt lat="43.44508157656481" lon="11.354650836075232"><ele>329.6</ele><time>2026-04-04T09:21:14Z</time></trkpt><trkpt lat="43.4450245094094" lon="11.354539650274397"><ele>328.79999999999995</ele><time>2026-04-04T09:21:15Z</time></trkpt><trkpt lat="43.4449823436399" lon="11.35441681502531"><ele>328.0</ele><time>2026-04-04T09:21:16Z</time></trkpt><trkpt lat="43.444950624374606" lon="11.35428931793498"><ele>328.0</ele><time>2026-04-04T09:21:17Z</time></trkpt><trkpt lat="43.44493679066045" lon="11.354170096235583"><ele>328.0</ele><time>2026-04-04T09:21:18Z</time></trkpt><trkpt lat="43.44493110996851" lon="11.35404810565691"><ele>328.0</ele><time>2026-04-04T09:21:19Z</time></trkpt><trkpt lat="43.444926222061824" lon="11.353927738475493"><ele>328.0</ele><time>2026-04-04T09:21:20Z</time></trkpt><trkpt lat="43.444907697637035" lon="11.353835763560328"><ele>328.0</ele><time>2026-04-04T09:21:21Z</time></trkpt><trkpt lat="43.44482163408509" lon="11.353745611607804"><ele>328.0</ele><time>2026-04-04T09:21:23Z</time></trkpt><trkpt lat="43.444751589088874" lon="11.353738146069364"><ele>327.79999999999995</ele><time>2026-04-04T09:21:24Z</time></trkpt><trkpt lat="43.44466684528635" lon="11.35375529624917"><ele>327.6</ele><time>2026-04-04T09:21:25Z</time></trkpt><trkpt lat="43.4445567794489" lon="11.353804233468697"><ele>327.4</ele><time>2026-04-04T09:21:26Z</time></trkpt><trkpt lat="43.44443888683807" lon="11.353848839716774"><ele>327.20000000000005</ele><time>2026-04-04T09:21:27Z</time></trkpt><trkpt lat="43.444328961614104" lon="11.353882610088414"><ele>327.0</ele><time>2026-04-04T09:21:28Z</time></trkpt><trkpt lat="43.44420676454322" lon="11.353921162688167"><ele>326.25</ele><time>2026-04-04T09:21:29Z</time></trkpt><trkpt lat="43.44408781127968" lon="11.353971272437846"><ele>325.5</ele><time>2026-04-04T09:21:30Z</time></trkpt><trkpt lat="43.44396024859457" lon="11.354048260235436"><ele>324.75</ele><time>2026-04-04T09:21:31Z</time></trkpt><trkpt lat="43.443831013276366" lon="11.354139265230431"><ele>324.0</ele><time>2026-04-04T09:21:32Z</time></trkpt><trkpt lat="43.44369181495378" lon="11.354241748296344"><ele>326.5</ele><time>2026-04-04T09:21:33Z</time></trkpt><trkpt lat="43.443560632559574" lon="11.354325810071629"><ele>329.0</ele><time>2026-04-04T09:21:34Z</time></trkpt><trkpt lat="43.44344069594779" lon="11.354405779544997"><ele>331.5</ele><time>2026-04-04T09:21:35Z</time></trkpt><trkpt lat="43.44331411891471" lon="11.35449798574238"><ele>334.0</ele><time>2026-04-04T09:21:36Z</time></trkpt><trkpt lat="43.44318884699749" lon="11.35458301981362"><ele>334.0</ele><time>2026-04-04T09:21:37Z</time></trkpt><trkpt lat="43.443061975377674" lon="11.354658487205898"><ele>334.0</ele><time>2026-04-04T09:21:38Z</time></trkpt><trkpt lat="43.44293545659775" lon="11.354725550846434"><ele>334.0</ele><time>2026-04-04T09:21:39Z</time></trkpt><trkpt lat="43.442806107827856" lon="11.354789248668501"><ele>334.0</ele><time>2026-04-04T09:21:40Z</time></trkpt><trkpt lat="43.44267784568152" lon="11.354873897735859"><ele>334.5</ele><time>2026-04-04T09:21:41Z</time></trkpt><trkpt lat="43.44255528866616" lon="11.35498394753838"><ele>335.0</ele><time>2026-04-04T09:21:42Z</time></trkpt><trkpt lat="43.442437060319875" lon="11.35510702556536"><ele>335.5</ele><time>2026-04-04T09:21:43Z</time></trkpt><trkpt lat="43.442322306684126" lon="11.355206212701612"><ele>336.0</ele><time>2026-04-04T09:21:44Z</time></trkpt><trkpt lat="43.44220743545406" lon="11.355282229001835"><ele>340.75</ele><time>2026-04-04T09:21:45Z</time></trkpt><trkpt lat="43.4420840542679" lon="11.355320969386758"><ele>345.5</ele><time>2026-04-04T09:21:46Z</time></trkpt><trkpt lat="43.4419682296543" lon="11.355323739112611"><ele>350.25</ele><time>2026-04-04T09:21:47Z</time></trkpt><trkpt lat="43.44183069053172" lon="11.355331493090931"><ele>355.0</ele><time>2026-04-04T09:21:48Z</time></trkpt><trkpt lat="43.4417085669699" lon="11.355343336230298"><ele>355.0</ele><time>2026-04-04T09:21:49Z</time></trkpt><trkpt lat="43.44160967479043" lon="11.355377159987757"><ele>355.0</ele><time>2026-04-04T09:21:50Z</time></trkpt><trkpt lat="43.4415366466295" lon="11.355461149840405"><ele>355.0</ele><time>2026-04-04T09:21:51Z</time></trkpt><trkpt lat="43.44148452446615" lon="11.35555297969145"><ele>355.0</ele><time>2026-04-04T09:21:52Z</time></trkpt><trkpt lat="43.441445582707686" lon="11.355634517636373"><ele>355.0</ele><time>2026-04-04T09:21:53Z</time></trkpt><trkpt lat="43.44136839847896" lon="11.355749681691153"><ele>354.5</ele><time>2026-04-04T09:21:55Z</time></trkpt><trkpt lat="43.441317888946344" lon="11.35580896064836"><ele>354.0</ele><time>2026-04-04T09:21:56Z</time></trkpt><trkpt lat="43.441257791773566" lon="11.355860420332695"><ele>353.5</ele><time>2026-04-04T09:21:57Z</time></trkpt><trkpt lat="43.441156149655825" lon="11.355902788925123"><ele>353.0</ele><time>2026-04-04T09:21:59Z</time></trkpt><trkpt lat="43.44104479156524" lon="11.355887461911479"><ele>352.5</ele><time>2026-04-04T09:22:01Z</time></trkpt><trkpt lat="43.44098494579745" lon="11.355799799019183"><ele>352.0</ele><time>2026-04-04T09:22:03Z</time></trkpt><trkpt lat="43.440984076205304" lon="11.35570526222487"><ele>352.0</ele><time>2026-04-04T09:22:05Z</time></trkpt><trkpt lat="43.44101948453329" lon="11.355560277370417"><ele>352.0</ele><time>2026-04-04T09:22:07Z</time></trkpt><trkpt lat="43.441043797822864" lon="11.355447414688014"><ele>352.0</ele><time>2026-04-04T09:22:08Z</time></trkpt><trkpt lat="43.44105611042376" lon="11.355313017060487"><ele>352.0</ele><time>2026-04-04T09:22:09Z</time></trkpt><trkpt lat="43.44104887979883" lon="11.355162628175803"><ele>352.0</ele><time>2026-04-04T09:22:10Z</time></trkpt><trkpt lat="43.4410258341929" lon="11.354999894064257"><ele>352.25</ele><time>2026-04-04T09:22:11Z</time></trkpt><trkpt lat="43.44099326495755" lon="11.354816085705753"><ele>352.5</ele><time>2026-04-04T09:22:12Z</time></trkpt><trkpt lat="43.440964285467665" lon="11.354641124223063"><ele>352.75</ele><time>2026-04-04T09:22:13Z</time></trkpt><trkpt lat="43.440934566025575" lon="11.35448421044292"><ele>353.0</ele><time>2026-04-04T09:22:14Z</time></trkpt><trkpt lat="43.44089949433832" lon="11.354339184547015"><ele>353.5</ele><time>2026-04-04T09:22:15Z</time></trkpt><trkpt lat="43.44085855436814" lon="11.3542030087373"><ele>354.0</ele><time>2026-04-04T09:22:16Z</time></trkpt><trkpt lat="43.440829291927486" lon="11.354056152038273"><ele>354.5</ele><time>2026-04-04T09:22:17Z</time></trkpt><trkpt lat="43.44080707489806" lon="11.353886442661016"><ele>355.0</ele><time>2026-04-04T09:22:18Z</time></trkpt><trkpt lat="43.4407941727508" lon="11.353719929615778"><ele>356.5</ele><time>2026-04-04T09:22:19Z</time></trkpt><trkpt lat="43.44077322274421" lon="11.353546139001416"><ele>358.0</ele><time>2026-04-04T09:22:20Z</time></trkpt><trkpt lat="43.440749463651166" lon="11.353368707693559"><ele>359.5</ele><time>2026-04-04T09:22:21Z</time></trkpt><trkpt lat="43.44073674351307" lon="11.353186602018969"><ele>361.0</ele><time>2026-04-04T09:22:22Z</time></trkpt><trkpt lat="43.44072649320397" lon="11.35298940959161"><ele>362.5</ele><time>2026-04-04T09:22:23Z</time></trkpt><trkpt lat="43.440704678488984" lon="11.352803778900194"><ele>364.0</ele><time>2026-04-04T09:22:24Z</time></trkpt><trkpt lat="43.44067244056444" lon="11.352612607119218"><ele>365.5</ele><time>2026-04-04T09:22:25Z</time></trkpt><trkpt lat="43.44064027296349" lon="11.352434348273661"><ele>367.0</ele><time>2026-04-04T09:22:26Z</time></trkpt><trkpt lat="43.440606815664104" lon="11.352257890708525"><ele>368.5</ele><time>2026-04-04T09:22:27Z</time></trkpt><trkpt lat="43.44057871252592" lon="11.352087691004776"><ele>370.0</ele><time>2026-04-04T09:22:28Z</time></trkpt><trkpt lat="43.440568898038556" lon="11.351919988046838"><ele>371.5</ele><time>2026-04-04T09:22:29Z</time></trkpt><trkpt lat="43.440562529649156" lon="11.351769617206372"><ele>373.0</ele><time>2026-04-04T09:22:30Z</time></trkpt><trkpt lat="43.44053364053747" lon="11.351640503925449"><ele>373.0</ele><time>2026-04-04T09:22:31Z</time></trkpt><trkpt lat="43.44047834226543" lon="11.35151634272744"><ele>373.0</ele><time>2026-04-04T09:22:32Z</time></trkpt><trkpt lat="43.44040027431945" lon="11.351384489919697"><ele>373.0</ele><time>2026-04-04T09:22:33Z</time></trkpt><trkpt lat="43.440340513485765" lon="11.35122319886596"><ele>373.0</ele><time>2026-04-04T09:22:34Z</time></trkpt><trkpt lat="43.44029709335661" lon="11.351056809770023"><ele>373.0</ele><time>2026-04-04T09:22:35Z</time></trkpt><trkpt lat="43.44024789726611" lon="11.350903880982731"><ele>373.0</ele><time>2026-04-04T09:22:36Z</time></trkpt><trkpt lat="43.44017641578627" lon="11.350773406208978"><ele>373.0</ele><time>2026-04-04T09:22:37Z</time></trkpt><trkpt lat="43.440075260013224" lon="11.350660125371673"><ele>373.0</ele><time>2026-04-04T09:22:38Z</time></trkpt><trkpt lat="43.43995791783242" lon="11.350563926125199"><ele>373.75</ele><time>2026-04-04T09:22:39Z</time></trkpt><trkpt lat="43.43982958826521" lon="11.350480300531103"><ele>374.5</ele><time>2026-04-04T09:22:40Z</time></trkpt><trkpt lat="43.43969976052998" lon="11.350406032311934"><ele>375.25</ele><time>2026-04-04T09:22:41Z</time></trkpt><trkpt lat="43.439567717627234" lon="11.350343289691457"><ele>376.0</ele><time>2026-04-04T09:22:42Z</time></trkpt><trkpt lat="43.43942876359994" lon="11.350287218076451"><ele>376.25</ele><time>2026-04-04T09:22:43Z</time></trkpt><trkpt lat="43.43929557092023" lon="11.350231700175021"><ele>376.5</ele><time>2026-04-04T09:22:44Z</time></trkpt><trkpt lat="43.439152877700934" lon="11.350172220383499"><ele>376.75</ele><time>2026-04-04T09:22:45Z</time></trkpt><trkpt lat="43.43902694749447" lon="11.350111885332765"><ele>377.0</ele><time>2026-04-04T09:22:46Z</time></trkpt><trkpt lat="43.438910763878205" lon="11.350061496727923"><ele>376.5</ele><time>2026-04-04T09:22:47Z</time></trkpt><trkpt lat="43.4387980146769" lon="11.350018666398011"><ele>376.0</ele><time>2026-04-04T09:22:48Z</time></trkpt><trkpt lat="43.438690941225126" lon="11.34997146962555"><ele>375.5</ele><time>2026-04-04T09:22:49Z</time></trkpt><trkpt lat="43.43858431572201" lon="11.349922477537469"><ele>375.0</ele><time>2026-04-04T09:22:50Z</time></trkpt><trkpt lat="43.438462185021336" lon="11.349869376388071"><ele>375.0</ele><time>2026-04-04T09:22:51Z</time></trkpt><trkpt lat="43.43835088571622" lon="11.349799413118912"><ele>375.0</ele><time>2026-04-04T09:22:52Z</time></trkpt><trkpt lat="43.43825115688904" lon="11.34970015460958"><ele>375.0</ele><time>2026-04-04T09:22:53Z</time></trkpt><trkpt lat="43.438170987996436" lon="11.349580702555874"><ele>375.0</ele><time>2026-04-04T09:22:54Z</time></trkpt><trkpt lat="43.43809818696904" lon="11.349435152290761"><ele>375.5</ele><time>2026-04-04T09:22:55Z</time></trkpt><trkpt lat="43.43803466682482" lon="11.349271043877893"><ele>376.0</ele><time>2026-04-04T09:22:56Z</time></trkpt><trkpt lat="43.43798173414796" lon="11.34908803741807"><ele>376.5</ele><time>2026-04-04T09:22:57Z</time></trkpt><trkpt lat="43.437943925037494" lon="11.348884813299756"><ele>377.0</ele><time>2026-04-04T09:22:58Z</time></trkpt><trkpt lat="43.43790989146513" lon="11.348700242358039"><ele>377.0</ele><time>2026-04-04T09:22:59Z</time></trkpt><trkpt lat="43.437852274821346" lon="11.348538277878255"><ele>377.0</ele><time>2026-04-04T09:23:00Z</time></trkpt><trkpt lat="43.43778063645362" lon="11.348428826245598"><ele>377.0</ele><time>2026-04-04T09:23:01Z</time></trkpt><trkpt lat="43.437694055093125" lon="11.348363549833566"><ele>377.0</ele><time>2026-04-04T09:23:02Z</time></trkpt><trkpt lat="43.43759939365697" lon="11.348350072385463"><ele>377.0</ele><time>2026-04-04T09:23:03Z</time></trkpt><trkpt lat="43.4375078946898" lon="11.348365732387743"><ele>377.0</ele><time>2026-04-04T09:23:04Z</time></trkpt><trkpt lat="43.43743372377975" lon="11.34835531299366"><ele>377.0</ele><time>2026-04-04T09:23:05Z</time></trkpt><trkpt lat="43.4373547373678" lon="11.348250946933165"><ele>377.0</ele><time>2026-04-04T09:23:07Z</time></trkpt><trkpt lat="43.43739019596298" lon="11.348074138338601"><ele>377.0</ele><time>2026-04-04T09:23:09Z</time></trkpt><trkpt lat="43.43741653231862" lon="11.34794936605523"><ele>377.0</ele><time>2026-04-04T09:23:10Z</time></trkpt><trkpt lat="43.437445436848925" lon="11.34781023658472"><ele>378.40000000000003</ele><time>2026-04-04T09:23:11Z</time></trkpt><trkpt lat="43.43749599014779" lon="11.347670567281131"><ele>379.8</ele><time>2026-04-04T09:23:12Z</time></trkpt><trkpt lat="43.43756512154344" lon="11.347561709310833"><ele>381.2</ele><time>2026-04-04T09:23:13Z</time></trkpt><trkpt lat="43.43764596704648" lon="11.347511616007893"><ele>382.6</ele><time>2026-04-04T09:23:14Z</time></trkpt><trkpt lat="43.437730156088925" lon="11.347500949543875"><ele>384.0</ele><time>2026-04-04T09:23:15Z</time></trkpt><trkpt lat="43.43784075697589" lon="11.347534019565119"><ele>385.4</ele><time>2026-04-04T09:23:16Z</time></trkpt><trkpt lat="43.437969994877044" lon="11.34756978615214"><ele>386.79999999999995</ele><time>2026-04-04T09:23:17Z</time></trkpt><trkpt lat="43.43806477997845" lon="11.347596676766594"><ele>388.20000000000005</ele><time>2026-04-04T09:23:18Z</time></trkpt><trkpt lat="43.4381511509469" lon="11.347611969072906"><ele>389.6</ele><time>2026-04-04T09:23:19Z</time></trkpt><trkpt lat="43.43823512822888" lon="11.347619459875093"><ele>391.0</ele><time>2026-04-04T09:23:20Z</time></trkpt><trkpt lat="43.438306364645356" lon="11.34762073519281"><ele>391.0</ele><time>2026-04-04T09:23:21Z</time></trkpt><trkpt lat="43.43842430651433" lon="11.347640267544815"><ele>391.0</ele><time>2026-04-04T09:23:23Z</time></trkpt><trkpt lat="43.438491901015766" lon="11.347611665926504"><ele>391.0</ele><time>2026-04-04T09:23:25Z</time></trkpt><trkpt lat="43.438512650444494" lon="11.347466158092343"><ele>391.0</ele><time>2026-04-04T09:23:27Z</time></trkpt><trkpt lat="43.438453968847526" lon="11.347323222758675"><ele>391.0</ele><time>2026-04-04T09:23:29Z</time></trkpt><trkpt lat="43.43844997265539" lon="11.347219550000572"><ele>393.00000000000006</ele><time>2026-04-04T09:23:30Z</time></trkpt><trkpt lat="43.438426481368744" lon="11.347098952484032"><ele>395.0</ele><time>2026-04-04T09:23:31Z</time></trkpt><trkpt lat="43.43840425906191" lon="11.346984869545789"><ele>397.0</ele><time>2026-04-04T09:23:32Z</time></trkpt><trkpt lat="43.43838120159344" lon="11.346866499130313"><ele>399.0</ele><time>2026-04-04T09:23:33Z</time></trkpt><trkpt lat="43.43834689581939" lon="11.346752209393369"><ele>401.00000000000006</ele><time>2026-04-04T09:23:34Z</time></trkpt><trkpt lat="43.43832952803501" lon="11.34663062120048"><ele>403.0</ele><time>2026-04-04T09:23:35Z</time></trkpt><trkpt lat="43.438311832321055" lon="11.346503418171901"><ele>403.00000000000006</ele><time>2026-04-04T09:23:36Z</time></trkpt><trkpt lat="43.43828914675166" lon="11.346390842548667"><ele>403.0</ele><time>2026-04-04T09:23:37Z</time></trkpt><trkpt lat="43.43827123628415" lon="11.346281109375148"><ele>403.0</ele><time>2026-04-04T09:23:38Z</time></trkpt><trkpt lat="43.438244028935394" lon="11.346147311507798"><ele>403.0</ele><time>2026-04-04T09:23:40Z</time></trkpt><trkpt lat="43.43822319427813" lon="11.346023999463236"><ele>403.00000000000006</ele><time>2026-04-04T09:23:42Z</time></trkpt><trkpt lat="43.438238561365324" lon="11.345938726588006"><ele>403.0</ele><time>2026-04-04T09:23:45Z</time></trkpt><trkpt lat="43.43836959662372" lon="11.345976478618523"><ele>406.33333333333337</ele><time>2026-04-04T09:23:48Z</time></trkpt><trkpt lat="43.43843773205264" lon="11.34600209996688"><ele>409.6666666666667</ele><time>2026-04-04T09:23:49Z</time></trkpt><trkpt lat="43.438509722555196" lon="11.346041253502603"><ele>413.0</ele><time>2026-04-04T09:23:50Z</time></trkpt><trkpt lat="43.43858973587262" lon="11.34609042577147"><ele>416.33333333333337</ele><time>2026-04-04T09:23:51Z</time></trkpt><trkpt lat="43.4386760676566" lon="11.346099659584931"><ele>419.6666666666667</ele><time>2026-04-04T09:23:52Z</time></trkpt><trkpt lat="43.43875873513541" lon="11.346079160160867"><ele>423.0</ele><time>2026-04-04T09:23:53Z</time></trkpt><trkpt lat="43.438830253197764" lon="11.346034510075528"><ele>423.2</ele><time>2026-04-04T09:23:54Z</time></trkpt><trkpt lat="43.4388947999265" lon="11.345966644670565"><ele>423.4</ele><time>2026-04-04T09:23:55Z</time></trkpt><trkpt lat="43.43895435610257" lon="11.345871833539094"><ele>423.59999999999997</ele><time>2026-04-04T09:23:56Z</time></trkpt><trkpt lat="43.43902274585951" lon="11.345751609892679"><ele>423.79999999999995</ele><time>2026-04-04T09:23:57Z</time></trkpt><trkpt lat="43.43911640681249" lon="11.345632829789276"><ele>424.0</ele><time>2026-04-04T09:23:58Z</time></trkpt><trkpt lat="43.43921344529979" lon="11.345497861765127"><ele>427.2</ele><time>2026-04-04T09:23:59Z</time></trkpt><trkpt lat="43.43928788973593" lon="11.345371267226998"><ele>430.4</ele><time>2026-04-04T09:24:00Z</time></trkpt><trkpt lat="43.43934565584434" lon="11.345268371347974"><ele>433.6</ele><time>2026-04-04T09:24:01Z</time></trkpt><trkpt lat="43.43939983279469" lon="11.345155719170121"><ele>436.8</ele><time>2026-04-04T09:24:02Z</time></trkpt><trkpt lat="43.43944209035258" lon="11.345041839365434"><ele>440.0</ele><time>2026-04-04T09:24:03Z</time></trkpt><trkpt lat="43.439463746847956" lon="11.344927169298483"><ele>439.99999999999994</ele><time>2026-04-04T09:24:04Z</time></trkpt><trkpt lat="43.43945642292692" lon="11.344813124536183"><ele>440.0</ele><time>2026-04-04T09:24:05Z</time></trkpt><trkpt lat="43.43943040467082" lon="11.344700102226048"><ele>440.0</ele><time>2026-04-04T09:24:06Z</time></trkpt><trkpt lat="43.439390074182725" lon="11.344584529946417"><ele>440.0</ele><time>2026-04-04T09:24:07Z</time></trkpt><trkpt lat="43.43934262987059" lon="11.344489365301063"><ele>439.99999999999994</ele><time>2026-04-04T09:24:08Z</time></trkpt><trkpt lat="43.439276775613166" lon="11.344442106236237"><ele>440.0</ele><time>2026-04-04T09:24:09Z</time></trkpt><trkpt lat="43.439185596622" lon="11.344423819745597"><ele>442.2</ele><time>2026-04-04T09:24:11Z</time></trkpt><trkpt lat="43.439080766447944" lon="11.344485830182823"><ele>444.4</ele><time>2026-04-04T09:24:13Z</time></trkpt><trkpt lat="43.43897448096454" lon="11.344547541623616"><ele>446.6</ele><time>2026-04-04T09:24:15Z</time></trkpt><trkpt lat="43.438901037614734" lon="11.344654409568168"><ele>448.8</ele><time>2026-04-04T09:24:17Z</time></trkpt><trkpt lat="43.43883694937375" lon="11.344702618851825"><ele>451.0</ele><time>2026-04-04T09:24:18Z</time></trkpt><trkpt lat="43.43875524662515" lon="11.344782946678215"><ele>451.1666666666667</ele><time>2026-04-04T09:24:20Z</time></trkpt><trkpt lat="43.43866900293462" lon="11.344846009845748"><ele>451.33333333333337</ele><time>2026-04-04T09:24:22Z</time></trkpt><trkpt lat="43.43859272784847" lon="11.344873954800926"><ele>451.5</ele><time>2026-04-04T09:24:23Z</time></trkpt><trkpt lat="43.43852155745447" lon="11.344859938233498"><ele>451.66666666666663</ele><time>2026-04-04T09:24:24Z</time></trkpt><trkpt lat="43.43845242168934" lon="11.344840100262095"><ele>451.8333333333333</ele><time>2026-04-04T09:24:25Z</time></trkpt><trkpt lat="43.43840797755909" lon="11.344767937977142"><ele>452.0</ele><time>2026-04-04T09:24:27Z</time></trkpt><trkpt lat="43.438394800813455" lon="11.344679462077707"><ele>455.49999999999994</ele><time>2026-04-04T09:24:29Z</time></trkpt><trkpt lat="43.43846971799197" lon="11.344548291269765"><ele>459.0</ele><time>2026-04-04T09:24:31Z</time></trkpt><trkpt lat="43.43851399848913" lon="11.344421693669249"><ele>462.5</ele><time>2026-04-04T09:24:33Z</time></trkpt><trkpt lat="43.438475641297885" lon="11.344348884892012"><ele>466.0</ele><time>2026-04-04T09:24:34Z</time></trkpt><trkpt lat="43.43838684169542" lon="11.344350508483656"><ele>469.49999999999994</ele><time>2026-04-04T09:24:35Z</time></trkpt><trkpt lat="43.438322044717026" lon="11.344365053745019"><ele>473.0</ele><time>2026-04-04T09:24:37Z</time></trkpt><trkpt lat="43.438245797604075" lon="11.344354292648175"><ele>472.99999999999994</ele><time>2026-04-04T09:24:40Z</time></trkpt><trkpt lat="43.438179106558835" lon="11.344331342233488"><ele>473.0</ele><time>2026-04-04T09:24:42Z</time></trkpt><trkpt lat="43.438082053161615" lon="11.34430586452841"><ele>473.0</ele><time>2026-04-04T09:24:46Z</time></trkpt><trkpt lat="43.43803036686554" lon="11.344247676867086"><ele>473.0</ele><time>2026-04-04T09:24:47Z</time></trkpt><trkpt lat="43.437975144480134" lon="11.344198284488913"><ele>472.99999999999994</ele><time>2026-04-04T09:24:48Z</time></trkpt><trkpt lat="43.437904372048926" lon="11.344123850475654"><ele>473.0</ele><time>2026-04-04T09:24:49Z</time></trkpt><trkpt lat="43.437843068152056" lon="11.344012945164575"><ele>470.75</ele><time>2026-04-04T09:24:50Z</time></trkpt><trkpt lat="43.43776193041458" lon="11.343912729744522"><ele>468.5</ele><time>2026-04-04T09:24:51Z</time></trkpt><trkpt lat="43.437694836326614" lon="11.343791497099081"><ele>466.25</ele><time>2026-04-04T09:24:52Z</time></trkpt><trkpt lat="43.43763996704409" lon="11.34365372363177"><ele>464.0</ele><time>2026-04-04T09:24:53Z</time></trkpt><trkpt lat="43.43756443748869" lon="11.343506295667364"><ele>470.25</ele><time>2026-04-04T09:24:54Z</time></trkpt><trkpt lat="43.437491022981625" lon="11.343361532018715"><ele>476.5</ele><time>2026-04-04T09:24:55Z</time></trkpt><trkpt lat="43.4374070490301" lon="11.343232296929918"><ele>482.75</ele><time>2026-04-04T09:24:56Z</time></trkpt><trkpt lat="43.43733218378664" lon="11.34306978170398"><ele>489.0</ele><time>2026-04-04T09:24:57Z</time></trkpt><trkpt lat="43.43726078110838" lon="11.342899058324825"><ele>491.79999999999995</ele><time>2026-04-04T09:24:58Z</time></trkpt><trkpt lat="43.43717418215037" lon="11.342760082584073"><ele>494.59999999999997</ele><time>2026-04-04T09:24:59Z</time></trkpt><trkpt lat="43.43709787852333" lon="11.342662417822483"><ele>497.4</ele><time>2026-04-04T09:25:00Z</time></trkpt><trkpt lat="43.437029111518314" lon="11.342585235122925"><ele>500.2</ele><time>2026-04-04T09:25:01Z</time></trkpt><trkpt lat="43.436961039783654" lon="11.342513453515732"><ele>503.0</ele><time>2026-04-04T09:25:02Z</time></trkpt><trkpt lat="43.43687006116861" lon="11.342434847341975"><ele>503.0</ele><time>2026-04-04T09:25:03Z</time></trkpt><trkpt lat="43.436755334999255" lon="11.342385541259953"><ele>502.99999999999994</ele><time>2026-04-04T09:25:04Z</time></trkpt><trkpt lat="43.43664456093783" lon="11.342356230109132"><ele>502.99999999999994</ele><time>2026-04-04T09:25:05Z</time></trkpt><trkpt lat="43.436543684257735" lon="11.342329678273947"><ele>503.0</ele><time>2026-04-04T09:25:06Z</time></trkpt><trkpt lat="43.43645163761684" lon="11.342299707909799"><ele>503.0</ele><time>2026-04-04T09:25:07Z</time></trkpt><trkpt lat="43.43637583280703" lon="11.342263418402235"><ele>502.99999999999994</ele><time>2026-04-04T09:25:08Z</time></trkpt><trkpt lat="43.43630448509244" lon="11.342217466419454"><ele>503.0</ele><time>2026-04-04T09:25:09Z</time></trkpt><trkpt lat="43.4362469792159" lon="11.342179813845329"><ele>503.0</ele><time>2026-04-04T09:25:10Z</time></trkpt><trkpt lat="43.436141686864964" lon="11.342074180710563"><ele>503.0</ele><time>2026-04-04T09:25:12Z</time></trkpt><trkpt lat="43.43610377565436" lon="11.341994140379603"><ele>502.99999999999994</ele><time>2026-04-04T09:25:13Z</time></trkpt><trkpt lat="43.436068027929906" lon="11.341921984893519"><ele>503.0</ele><time>2026-04-04T09:25:14Z</time></trkpt><trkpt lat="43.43601800331824" lon="11.341852024790922"><ele>505.99999999999994</ele><time>2026-04-04T09:25:15Z</time></trkpt><trkpt lat="43.43590314297703" lon="11.341849582034465"><ele>509.0</ele><time>2026-04-04T09:25:16Z</time></trkpt><trkpt lat="43.43583726394451" lon="11.341830505547387"><ele>512.0</ele><time>2026-04-04T09:25:17Z</time></trkpt><trkpt lat="43.43573519870289" lon="11.341785465877292"><ele>515.0</ele><time>2026-04-04T09:25:19Z</time></trkpt><trkpt lat="43.4356672205075" lon="11.34176452228768"><ele>518.0</ele><time>2026-04-04T09:25:20Z</time></trkpt><trkpt lat="43.43559096768743" lon="11.341714664796774"><ele>521.0</ele><time>2026-04-04T09:25:21Z</time></trkpt><trkpt lat="43.43551564390642" lon="11.34168515942986"><ele>520.6</ele><time>2026-04-04T09:25:22Z</time></trkpt><trkpt lat="43.435450012914245" lon="11.341674694493669"><ele>520.2</ele><time>2026-04-04T09:25:23Z</time></trkpt><trkpt lat="43.4353848102922" lon="11.341759923502194"><ele>519.8</ele><time>2026-04-04T09:25:25Z</time></trkpt><trkpt lat="43.43540277968592" lon="11.3419477437991"><ele>519.4</ele><time>2026-04-04T09:25:27Z</time></trkpt><trkpt lat="43.43542817682438" lon="11.342076920881363"><ele>519.0</ele><time>2026-04-04T09:25:28Z</time></trkpt><trkpt lat="43.43545280741399" lon="11.342219532978076"><ele>519.0</ele><time>2026-04-04T09:25:29Z</time></trkpt><trkpt lat="43.435461757350524" lon="11.342360105602653"><ele>519.0</ele><time>2026-04-04T09:25:30Z</time></trkpt><trkpt lat="43.43544520398225" lon="11.342510318615384"><ele>519.0</ele><time>2026-04-04T09:25:31Z</time></trkpt><trkpt lat="43.435386991692134" lon="11.34263034127474"><ele>519.0</ele><time>2026-04-04T09:25:32Z</time></trkpt><trkpt lat="43.43533560868854" lon="11.342725843962597"><ele>519.0</ele><time>2026-04-04T09:25:33Z</time></trkpt><trkpt lat="43.4352702078258" lon="11.342785781337925"><ele>519.0</ele><time>2026-04-04T09:25:34Z</time></trkpt><trkpt lat="43.435191221493426" lon="11.342784977569265"><ele>519.0</ele><time>2026-04-04T09:25:35Z</time></trkpt><trkpt lat="43.4350939622608" lon="11.342796823419473"><ele>519.0</ele><time>2026-04-04T09:25:36Z</time></trkpt><trkpt lat="43.43497463039142" lon="11.342806080350861"><ele>519.0</ele><time>2026-04-04T09:25:37Z</time></trkpt><trkpt lat="43.434864950127455" lon="11.342797691187505"><ele>519.0</ele><time>2026-04-04T09:25:38Z</time></trkpt><trkpt lat="43.4347618325722" lon="11.342778459266139"><ele>519.0</ele><time>2026-04-04T09:25:39Z</time></trkpt><trkpt lat="43.434665958593" lon="11.342749474931846"><ele>519.0</ele><time>2026-04-04T09:25:40Z</time></trkpt><trkpt lat="43.43457460745209" lon="11.342745950780413"><ele>519.0</ele><time>2026-04-04T09:25:41Z</time></trkpt><trkpt lat="43.43450314995686" lon="11.34276329227538"><ele>519.0</ele><time>2026-04-04T09:25:42Z</time></trkpt><trkpt lat="43.43444273102019" lon="11.342860969125553"><ele>519.0</ele><time>2026-04-04T09:25:43Z</time></trkpt><trkpt lat="43.43440249672802" lon="11.34298659448233"><ele>520.6</ele><time>2026-04-04T09:25:44Z</time></trkpt><trkpt lat="43.43434305120622" lon="11.34307379744427"><ele>522.2</ele><time>2026-04-04T09:25:45Z</time></trkpt><trkpt lat="43.43427019489295" lon="11.343091382603252"><ele>523.8000000000001</ele><time>2026-04-04T09:25:46Z</time></trkpt><trkpt lat="43.43420140588918" lon="11.343051940641194"><ele>525.4</ele><time>2026-04-04T09:25:47Z</time></trkpt><trkpt lat="43.434121627232386" lon="11.342974460535842"><ele>527.0</ele><time>2026-04-04T09:25:48Z</time></trkpt><trkpt lat="43.43402312370936" lon="11.342884649700911"><ele>527.0</ele><time>2026-04-04T09:25:49Z</time></trkpt><trkpt lat="43.43390513355277" lon="11.342826203380563"><ele>527.0</ele><time>2026-04-04T09:25:50Z</time></trkpt><trkpt lat="43.43379360320658" lon="11.3427413861321"><ele>527.0</ele><time>2026-04-04T09:25:51Z</time></trkpt><trkpt lat="43.43365838035201" lon="11.342693399135777"><ele>527.0</ele><time>2026-04-04T09:25:52Z</time></trkpt><trkpt lat="43.433549652443226" lon="11.342629243570254"><ele>526.4</ele><time>2026-04-04T09:25:53Z</time></trkpt><trkpt lat="43.433464611279476" lon="11.342586944500999"><ele>525.8000000000001</ele><time>2026-04-04T09:25:54Z</time></trkpt><trkpt lat="43.43337518482207" lon="11.342533158458084"><ele>525.2</ele><time>2026-04-04T09:25:55Z</time></trkpt><trkpt lat="43.43327457845423" lon="11.3424962199816"><ele>524.6</ele><time>2026-04-04T09:25:56Z</time></trkpt><trkpt lat="43.43315278392681" lon="11.342486178267611"><ele>524.0</ele><time>2026-04-04T09:25:57Z</time></trkpt><trkpt lat="43.4330270738584" lon="11.342435432570664"><ele>524.3333333333333</ele><time>2026-04-04T09:25:58Z</time></trkpt><trkpt lat="43.432944730979" lon="11.342346479110722"><ele>524.6666666666666</ele><time>2026-04-04T09:25:59Z</time></trkpt><trkpt lat="43.43287623220777" lon="11.342283617801527"><ele>525.0</ele><time>2026-04-04T09:26:00Z</time></trkpt><trkpt lat="43.43281958269199" lon="11.342236769619639"><ele>525.3333333333334</ele><time>2026-04-04T09:26:01Z</time></trkpt><trkpt lat="43.432753069121965" lon="11.342221204132748"><ele>525.6666666666667</ele><time>2026-04-04T09:26:03Z</time></trkpt><trkpt lat="43.43271108928016" lon="11.34228984535726"><ele>526.0</ele><time>2026-04-04T09:26:05Z</time></trkpt><trkpt lat="43.43266251002986" lon="11.34236702530902"><ele>526.0</ele><time>2026-04-04T09:26:07Z</time></trkpt><trkpt lat="43.432617762170736" lon="11.342542988598984"><ele>526.0</ele><time>2026-04-04T09:26:09Z</time></trkpt><trkpt lat="43.432579251698115" lon="11.342617046170114"><ele>526.0</ele><time>2026-04-04T09:26:10Z</time></trkpt><trkpt lat="43.43254597494276" lon="11.342704693974987"><ele>526.0</ele><time>2026-04-04T09:26:12Z</time></trkpt><trkpt lat="43.432510988095366" lon="11.342572202516163"><ele>526.0</ele><time>2026-04-04T09:26:18Z</time></trkpt><trkpt lat="43.43253715578957" lon="11.342479095705787"><ele>526.0</ele><time>2026-04-04T09:26:19Z</time></trkpt><trkpt lat="43.43251637791345" lon="11.3423732307937"><ele>526.0</ele><time>2026-04-04T09:26:21Z</time></trkpt><trkpt lat="43.43240306486656" lon="11.342324799082164"><ele>526.0</ele><time>2026-04-04T09:26:22Z</time></trkpt><trkpt lat="43.43229465077359" lon="11.342249241922683"><ele>526.0</ele><time>2026-04-04T09:26:24Z</time></trkpt><trkpt lat="43.43223263959551" lon="11.342172367794596"><ele>526.0</ele><time>2026-04-04T09:26:25Z</time></trkpt><trkpt lat="43.432179116621214" lon="11.3420339444766"><ele>526.0</ele><time>2026-04-04T09:26:26Z</time></trkpt><trkpt lat="43.43215366815922" lon="11.3418841019761"><ele>528.0</ele><time>2026-04-04T09:26:27Z</time></trkpt><trkpt lat="43.432160450071756" lon="11.341784428557549"><ele>530.0</ele><time>2026-04-04T09:26:28Z</time></trkpt><trkpt lat="43.432214922552525" lon="11.341682389470929"><ele>532.0</ele><time>2026-04-04T09:26:29Z</time></trkpt><trkpt lat="43.43222726685509" lon="11.341559252423323"><ele>534.0</ele><time>2026-04-04T09:26:30Z</time></trkpt><trkpt lat="43.432178671524596" lon="11.341399044861772"><ele>536.0</ele><time>2026-04-04T09:26:31Z</time></trkpt><trkpt lat="43.43209318438044" lon="11.341239201558968"><ele>539.25</ele><time>2026-04-04T09:26:32Z</time></trkpt><trkpt lat="43.432031174277334" lon="11.341055531382544"><ele>542.5</ele><time>2026-04-04T09:26:33Z</time></trkpt><trkpt lat="43.431966392680486" lon="11.340870348463884"><ele>545.75</ele><time>2026-04-04T09:26:34Z</time></trkpt><trkpt lat="43.43190227657545" lon="11.340686934610352"><ele>549.0</ele><time>2026-04-04T09:26:34.999Z</time></trkpt><trkpt lat="43.43184063234012" lon="11.340493947203443"><ele>550.0</ele><time>2026-04-04T09:26:35.999Z</time></trkpt><trkpt lat="43.43180014754999" lon="11.340340309517044"><ele>551.0</ele><time>2026-04-04T09:26:36.999Z</time></trkpt><trkpt lat="43.43178473702029" lon="11.340252078160557"><ele>552.0</ele><time>2026-04-04T09:26:37.999Z</time></trkpt><trkpt lat="43.43176675766626" lon="11.34015823458657"><ele>553.0</ele><time>2026-04-04T09:26:38.999Z</time></trkpt><trkpt lat="43.43177125696817" lon="11.340041265161782"><ele>554.0</ele><time>2026-04-04T09:26:39.999Z</time></trkpt><trkpt lat="43.43177775525896" lon="11.339936965727295"><ele>555.0</ele><time>2026-04-04T09:26:40.999Z</time></trkpt><trkpt lat="43.4318066040368" lon="11.339858612467415"><ele>556.25</ele><time>2026-04-04T09:26:41.999Z</time></trkpt><trkpt lat="43.431840048745904" lon="11.33970453571408"><ele>557.5</ele><time>2026-04-04T09:26:43.999Z</time></trkpt><trkpt lat="43.43186100817631" lon="11.33957606335046"><ele>558.75</ele><time>2026-04-04T09:26:44.999Z</time></trkpt><trkpt lat="43.43193985682446" lon="11.339445211354448"><ele>560.0</ele><time>2026-04-04T09:26:45.999Z</time></trkpt><trkpt lat="43.43199868279658" lon="11.339305907017769"><ele>560.0</ele><time>2026-04-04T09:26:46.999Z</time></trkpt><trkpt lat="43.43203103886862" lon="11.339193409523764"><ele>560.0</ele><time>2026-04-04T09:26:48Z</time></trkpt><trkpt lat="43.432055944360016" lon="11.339103076073666"><ele>560.0</ele><time>2026-04-04T09:26:49Z</time></trkpt><trkpt lat="43.43201006888354" lon="11.338953709974396"><ele>560.0</ele><time>2026-04-04T09:26:50Z</time></trkpt><trkpt lat="43.43195476146195" lon="11.338815448895955"><ele>560.0</ele><time>2026-04-04T09:26:51Z</time></trkpt><trkpt lat="43.43188939633906" lon="11.338696047683673"><ele>563.25</ele><time>2026-04-04T09:26:52Z</time></trkpt><trkpt lat="43.431812105720155" lon="11.338568534552447"><ele>566.5</ele><time>2026-04-04T09:26:53Z</time></trkpt><trkpt lat="43.43171993736987" lon="11.338432204493799"><ele>569.75</ele><time>2026-04-04T09:26:54Z</time></trkpt><trkpt lat="43.4316190627292" lon="11.338308599716424"><ele>573.0</ele><time>2026-04-04T09:26:55Z</time></trkpt><trkpt lat="43.43151017114162" lon="11.338228132288826"><ele>573.0</ele><time>2026-04-04T09:26:56Z</time></trkpt><trkpt lat="43.43139968093622" lon="11.338174515434138"><ele>573.0</ele><time>2026-04-04T09:26:57Z</time></trkpt><trkpt lat="43.43128545062686" lon="11.338106839633417"><ele>573.0</ele><time>2026-04-04T09:26:58Z</time></trkpt><trkpt lat="43.431198286601045" lon="11.338043531343974"><ele>573.0</ele><time>2026-04-04T09:26:59Z</time></trkpt><trkpt lat="43.43111737946892" lon="11.337963015114155"><ele>573.0</ele><time>2026-04-04T09:27:00Z</time></trkpt><trkpt lat="43.4310278192442" lon="11.337861055565094"><ele>576.0</ele><time>2026-04-04T09:27:01Z</time></trkpt><trkpt lat="43.4309327344963" lon="11.337751827282805"><ele>579.0</ele><time>2026-04-04T09:27:02Z</time></trkpt><trkpt lat="43.43083175785598" lon="11.33763601345933"><ele>582.0</ele><time>2026-04-04T09:27:03Z</time></trkpt><trkpt lat="43.430720723995634" lon="11.337508708690269"><ele>585.0</ele><time>2026-04-04T09:27:04Z</time></trkpt><trkpt lat="43.43060577766197" lon="11.337375209344803"><ele>585.0</ele><time>2026-04-04T09:27:05Z</time></trkpt><trkpt lat="43.4304948893169" lon="11.337244745563066"><ele>585.0</ele><time>2026-04-04T09:27:06Z</time></trkpt><trkpt lat="43.43037504980276" lon="11.337100299375132"><ele>585.0</ele><time>2026-04-04T09:27:07Z</time></trkpt><trkpt lat="43.43023858502701" lon="11.33693146994065"><ele>585.0</ele><time>2026-04-04T09:27:08Z</time></trkpt><trkpt lat="43.43011938019919" lon="11.33678524661376"><ele>585.0</ele><time>2026-04-04T09:27:09Z</time></trkpt><trkpt lat="43.42999626672584" lon="11.336638886379484"><ele>585.0</ele><time>2026-04-04T09:27:10Z</time></trkpt><trkpt lat="43.42988926281389" lon="11.336514552065896"><ele>585.0</ele><time>2026-04-04T09:27:11Z</time></trkpt><trkpt lat="43.42980774812556" lon="11.336421767039106"><ele>585.0</ele><time>2026-04-04T09:27:12Z</time></trkpt><trkpt lat="43.42972938333821" lon="11.336337048635324"><ele>585.0</ele><time>2026-04-04T09:27:13Z</time></trkpt><trkpt lat="43.42965768980008" lon="11.336266458625314"><ele>585.0</ele><time>2026-04-04T09:27:14Z</time></trkpt><trkpt lat="43.42960046733952" lon="11.336182764297892"><ele>585.0</ele><time>2026-04-04T09:27:15Z</time></trkpt><trkpt lat="43.429568339084085" lon="11.336052646643317"><ele>583.75</ele><time>2026-04-04T09:27:16Z</time></trkpt><trkpt lat="43.429528618502935" lon="11.335866638099674"><ele>582.5</ele><time>2026-04-04T09:27:17Z</time></trkpt><trkpt lat="43.42947841447059" lon="11.335688701919267"><ele>581.25</ele><time>2026-04-04T09:27:18Z</time></trkpt><trkpt lat="43.42935871331439" lon="11.335609680501692"><ele>580.0</ele><time>2026-04-04T09:27:19Z</time></trkpt><trkpt lat="43.42923072818702" lon="11.335515206123306"><ele>582.0</ele><time>2026-04-04T09:27:20Z</time></trkpt><trkpt lat="43.42908184808764" lon="11.335430777529098"><ele>584.0</ele><time>2026-04-04T09:27:21Z</time></trkpt><trkpt lat="43.42891102330487" lon="11.335348847468333"><ele>586.0</ele><time>2026-04-04T09:27:22Z</time></trkpt><trkpt lat="43.42870150192487" lon="11.335246249436768"><ele>586.0</ele><time>2026-04-04T09:27:23Z</time></trkpt><trkpt lat="43.428513950174676" lon="11.335148120346888"><ele>586.0</ele><time>2026-04-04T09:27:24Z</time></trkpt><trkpt lat="43.42838867379467" lon="11.33504270942637"><ele>586.0</ele><time>2026-04-04T09:27:25Z</time></trkpt><trkpt lat="43.428263544464656" lon="11.334965110368"><ele>586.0</ele><time>2026-04-04T09:27:26Z</time></trkpt><trkpt lat="43.42813259888233" lon="11.334906867471576"><ele>586.0</ele><time>2026-04-04T09:27:27Z</time></trkpt><trkpt lat="43.42802872851905" lon="11.334864939161656"><ele>586.0</ele><time>2026-04-04T09:27:28Z</time></trkpt><trkpt lat="43.42793159467691" lon="11.334849067382386"><ele>586.0</ele><time>2026-04-04T09:27:29Z</time></trkpt><trkpt lat="43.42783760862988" lon="11.334825725136128"><ele>586.0</ele><time>2026-04-04T09:27:30Z</time></trkpt><trkpt lat="43.42775855117181" lon="11.334821314904143"><ele>585.6666666666667</ele><time>2026-04-04T09:27:31Z</time></trkpt><trkpt lat="43.42769046255569" lon="11.334817516559076"><ele>585.3333333333334</ele><time>2026-04-04T09:27:32Z</time></trkpt><trkpt lat="43.42762468618994" lon="11.334802996232797"><ele>585.0</ele><time>2026-04-04T09:27:34Z</time></trkpt><trkpt lat="43.42770879237021" lon="11.334731366310555"><ele>584.6666666666666</ele><time>2026-04-04T09:28:33.999Z</time></trkpt><trkpt lat="43.427770067314995" lon="11.334758264564847"><ele>584.3333333333333</ele><time>2026-04-04T09:28:36.999Z</time></trkpt><trkpt lat="43.42786723593809" lon="11.334715844986029"><ele>584.0</ele><time>2026-04-04T09:33:18Z</time></trkpt><trkpt lat="43.427982451355966" lon="11.334662324883617"><ele>585.0</ele><time>2026-04-04T09:33:20Z</time></trkpt><trkpt lat="43.428053055628126" lon="11.334633726482712"><ele>586.0</ele><time>2026-04-04T09:33:21Z</time></trkpt><trkpt lat="43.42813117605873" lon="11.33463018405288"><ele>587.0</ele><time>2026-04-04T09:33:22Z</time></trkpt><trkpt lat="43.42819990966599" lon="11.334585681672026"><ele>588.0</ele><time>2026-04-04T09:33:23Z</time></trkpt><trkpt lat="43.4282748288663" lon="11.334561808451133"><ele>589.0</ele><time>2026-04-04T09:33:24Z</time></trkpt><trkpt lat="43.42835335089604" lon="11.334538146805112"><ele>590.0</ele><time>2026-04-04T09:33:25Z</time></trkpt><trkpt lat="43.428440208933836" lon="11.334507643589026"><ele>590.0</ele><time>2026-04-04T09:33:26Z</time></trkpt><trkpt lat="43.42852613647313" lon="11.334475431060874"><ele>590.0</ele><time>2026-04-04T09:33:27Z</time></trkpt><trkpt lat="43.42861805330431" lon="11.334445998936486"><ele>590.0</ele><time>2026-04-04T09:33:28Z</time></trkpt><trkpt lat="43.42870859421435" lon="11.334413192026313"><ele>590.0</ele><time>2026-04-04T09:33:29Z</time></trkpt><trkpt lat="43.42880095319208" lon="11.33439160854822"><ele>590.0</ele><time>2026-04-04T09:33:30Z</time></trkpt><trkpt lat="43.42887644615418" lon="11.334332104809548"><ele>589.4</ele><time>2026-04-04T09:33:31Z</time></trkpt><trkpt lat="43.428945032247945" lon="11.334260557562274"><ele>588.8</ele><time>2026-04-04T09:33:32Z</time></trkpt><trkpt lat="43.429013612905244" lon="11.334177254908006"><ele>588.2</ele><time>2026-04-04T09:33:33Z</time></trkpt><trkpt lat="43.42909431355957" lon="11.334079102034105"><ele>587.6</ele><time>2026-04-04T09:33:34Z</time></trkpt><trkpt lat="43.42918251862322" lon="11.333971821923281"><ele>587.0</ele><time>2026-04-04T09:33:35Z</time></trkpt><trkpt lat="43.42926334690332" lon="11.333867076914583"><ele>587.0</ele><time>2026-04-04T09:33:36Z</time></trkpt><trkpt lat="43.42934405551144" lon="11.333765466190536"><ele>587.0</ele><time>2026-04-04T09:33:37Z</time></trkpt><trkpt lat="43.42941995091693" lon="11.333689528535263"><ele>587.0</ele><time>2026-04-04T09:33:38Z</time></trkpt><trkpt lat="43.42950316126384" lon="11.333620198059673"><ele>587.0</ele><time>2026-04-04T09:33:39Z</time></trkpt><trkpt lat="43.42959441852172" lon="11.333558607778874"><ele>587.0</ele><time>2026-04-04T09:33:40Z</time></trkpt><trkpt lat="43.429684262252245" lon="11.333513638536836"><ele>588.4</ele><time>2026-04-04T09:33:41Z</time></trkpt><trkpt lat="43.42978158986233" lon="11.333475596740355"><ele>589.8000000000001</ele><time>2026-04-04T09:33:42Z</time></trkpt><trkpt lat="43.42987677704761" lon="11.33345458683914"><ele>591.2</ele><time>2026-04-04T09:33:43Z</time></trkpt><trkpt lat="43.42996488818885" lon="11.333459701728996"><ele>592.6</ele><time>2026-04-04T09:33:44Z</time></trkpt><trkpt lat="43.4300474367374" lon="11.33348740080938"><ele>594.0</ele><time>2026-04-04T09:33:45Z</time></trkpt><trkpt lat="43.43013743020451" lon="11.3335147813093"><ele>594.0</ele><time>2026-04-04T09:33:46Z</time></trkpt><trkpt lat="43.430235536607086" lon="11.333589742207135"><ele>594.0</ele><time>2026-04-04T09:33:47Z</time></trkpt><trkpt lat="43.43033728753359" lon="11.333651653029534"><ele>594.0</ele><time>2026-04-04T09:33:48Z</time></trkpt><trkpt lat="43.43043955317901" lon="11.333688062447306"><ele>594.0</ele><time>2026-04-04T09:33:49Z</time></trkpt><trkpt lat="43.43054831668582" lon="11.333728899354325"><ele>594.0</ele><time>2026-04-04T09:33:50Z</time></trkpt><trkpt lat="43.43065942850643" lon="11.333757768537959"><ele>593.25</ele><time>2026-04-04T09:33:51Z</time></trkpt><trkpt lat="43.43077709171407" lon="11.333752212679201"><ele>592.5</ele><time>2026-04-04T09:33:52Z</time></trkpt><trkpt lat="43.43089779580356" lon="11.33375928713866"><ele>591.75</ele><time>2026-04-04T09:33:53Z</time></trkpt><trkpt lat="43.43102932455358" lon="11.33373405701148"><ele>591.0</ele><time>2026-04-04T09:33:54Z</time></trkpt><trkpt lat="43.43114959101482" lon="11.33367664728834"><ele>591.0</ele><time>2026-04-04T09:33:55Z</time></trkpt><trkpt lat="43.43127570479288" lon="11.333680939888888"><ele>591.0</ele><time>2026-04-04T09:33:56Z</time></trkpt><trkpt lat="43.43138411790779" lon="11.333684009884683"><ele>591.0</ele><time>2026-04-04T09:33:57Z</time></trkpt><trkpt lat="43.43149401408261" lon="11.333701140307083"><ele>591.0</ele><time>2026-04-04T09:33:58Z</time></trkpt><trkpt lat="43.43158374033413" lon="11.33373422297647"><ele>591.0</ele><time>2026-04-04T09:33:59Z</time></trkpt><trkpt lat="43.43165523519528" lon="11.33379070718636"><ele>591.4</ele><time>2026-04-04T09:34:00Z</time></trkpt><trkpt lat="43.431732867904294" lon="11.333810633052362"><ele>591.8</ele><time>2026-04-04T09:34:01Z</time></trkpt><trkpt lat="43.43180986113606" lon="11.333815627761295"><ele>592.1999999999999</ele><time>2026-04-04T09:34:02Z</time></trkpt><trkpt lat="43.43189755756022" lon="11.333776077869086"><ele>592.6</ele><time>2026-04-04T09:34:03Z</time></trkpt><trkpt lat="43.432007617716714" lon="11.333709112035915"><ele>593.0</ele><time>2026-04-04T09:34:04Z</time></trkpt><trkpt lat="43.43211889445939" lon="11.333639597149075"><ele>593.75</ele><time>2026-04-04T09:34:05Z</time></trkpt><trkpt lat="43.43223785291655" lon="11.333565130872985"><ele>594.5</ele><time>2026-04-04T09:34:06Z</time></trkpt><trkpt lat="43.43235875723759" lon="11.333491251226521"><ele>595.25</ele><time>2026-04-04T09:34:07Z</time></trkpt><trkpt lat="43.43248349408588" lon="11.333432752948411"><ele>596.0</ele><time>2026-04-04T09:34:08Z</time></trkpt><trkpt lat="43.43260654742005" lon="11.333355719463107"><ele>596.0</ele><time>2026-04-04T09:34:09Z</time></trkpt><trkpt lat="43.432726693651006" lon="11.333286339283305"><ele>596.0</ele><time>2026-04-04T09:34:10Z</time></trkpt><trkpt lat="43.432834624296525" lon="11.333222889521995"><ele>596.0</ele><time>2026-04-04T09:34:11Z</time></trkpt><trkpt lat="43.43294062572617" lon="11.333164201085197"><ele>596.0</ele><time>2026-04-04T09:34:12Z</time></trkpt><trkpt lat="43.43306011225392" lon="11.333114547204257"><ele>594.75</ele><time>2026-04-04T09:34:13Z</time></trkpt><trkpt lat="43.43317528579325" lon="11.333044710015912"><ele>593.5</ele><time>2026-04-04T09:34:14Z</time></trkpt><trkpt lat="43.43328292145667" lon="11.332978223567292"><ele>592.25</ele><time>2026-04-04T09:34:15Z</time></trkpt><trkpt lat="43.433382472309674" lon="11.332919691281248"><ele>591.0</ele><time>2026-04-04T09:34:16Z</time></trkpt><trkpt lat="43.433479854157724" lon="11.332869527937003"><ele>591.0</ele><time>2026-04-04T09:34:17Z</time></trkpt><trkpt lat="43.43356798518329" lon="11.332826981924548"><ele>591.0</ele><time>2026-04-04T09:34:18Z</time></trkpt><trkpt lat="43.43365963164407" lon="11.332787077586394"><ele>591.0</ele><time>2026-04-04T09:34:19Z</time></trkpt><trkpt lat="43.43376108812205" lon="11.332743835460423"><ele>591.0</ele><time>2026-04-04T09:34:20Z</time></trkpt><trkpt lat="43.43387279253043" lon="11.332698728033305"><ele>591.0</ele><time>2026-04-04T09:34:21Z</time></trkpt><trkpt lat="43.433986474075155" lon="11.332662857988968"><ele>591.0</ele><time>2026-04-04T09:34:22Z</time></trkpt><trkpt lat="43.4341037749142" lon="11.332620252970983"><ele>591.0</ele><time>2026-04-04T09:34:23Z</time></trkpt><trkpt lat="43.43422550640725" lon="11.332589446479366"><ele>591.0</ele><time>2026-04-04T09:34:24Z</time></trkpt><trkpt lat="43.43434760516551" lon="11.332534990243444"><ele>591.0</ele><time>2026-04-04T09:34:25Z</time></trkpt><trkpt lat="43.43445916981514" lon="11.33247780070343"><ele>591.0</ele><time>2026-04-04T09:34:26Z</time></trkpt><trkpt lat="43.43455274122435" lon="11.332402105341487"><ele>591.0</ele><time>2026-04-04T09:34:27Z</time></trkpt><trkpt lat="43.43464056299313" lon="11.332291919665058"><ele>591.0</ele><time>2026-04-04T09:34:28Z</time></trkpt><trkpt lat="43.434727095758845" lon="11.33215877468356"><ele>591.0</ele><time>2026-04-04T09:34:29Z</time></trkpt><trkpt lat="43.43479871430727" lon="11.332025571650975"><ele>589.25</ele><time>2026-04-04T09:34:30Z</time></trkpt><trkpt lat="43.43488381094488" lon="11.331900546298431"><ele>587.5</ele><time>2026-04-04T09:34:31Z</time></trkpt><trkpt lat="43.434956031173286" lon="11.331768655407668"><ele>585.75</ele><time>2026-04-04T09:34:32Z</time></trkpt><trkpt lat="43.4350396421245" lon="11.331635039681409"><ele>584.0</ele><time>2026-04-04T09:34:33Z</time></trkpt><trkpt lat="43.43513293734598" lon="11.331509823388695"><ele>584.0</ele><time>2026-04-04T09:34:34Z</time></trkpt><trkpt lat="43.43522898587108" lon="11.331409439002462"><ele>584.0</ele><time>2026-04-04T09:34:35Z</time></trkpt><trkpt lat="43.43530915012589" lon="11.331302243681737"><ele>584.0</ele><time>2026-04-04T09:34:36Z</time></trkpt><trkpt lat="43.435399355840985" lon="11.331198280639342"><ele>584.0</ele><time>2026-04-04T09:34:37Z</time></trkpt><trkpt lat="43.435470394555075" lon="11.331066534529224"><ele>583.5</ele><time>2026-04-04T09:34:38Z</time></trkpt><trkpt lat="43.43553462893728" lon="11.330911704584876"><ele>583.0</ele><time>2026-04-04T09:34:39Z</time></trkpt><trkpt lat="43.43560545402993" lon="11.330747468429674"><ele>582.5</ele><time>2026-04-04T09:34:40Z</time></trkpt><trkpt lat="43.43567700594854" lon="11.330582467696535"><ele>582.0</ele><time>2026-04-04T09:34:41Z</time></trkpt><trkpt lat="43.435741407726425" lon="11.33041943336913"><ele>583.75</ele><time>2026-04-04T09:34:42Z</time></trkpt><trkpt lat="43.43580667532753" lon="11.330258824321811"><ele>585.5</ele><time>2026-04-04T09:34:43Z</time></trkpt><trkpt lat="43.435872473484004" lon="11.330105511918575"><ele>587.25</ele><time>2026-04-04T09:34:44Z</time></trkpt><trkpt lat="43.43593749193247" lon="11.329952796664838"><ele>589.0</ele><time>2026-04-04T09:34:45Z</time></trkpt><trkpt lat="43.43600632511874" lon="11.329809609069608"><ele>587.5</ele><time>2026-04-04T09:34:46Z</time></trkpt><trkpt lat="43.43608331379505" lon="11.32968835340092"><ele>586.0</ele><time>2026-04-04T09:34:47Z</time></trkpt><trkpt lat="43.436161212360616" lon="11.329568361537097"><ele>584.5</ele><time>2026-04-04T09:34:48Z</time></trkpt><trkpt lat="43.43624291173633" lon="11.329442890807831"><ele>583.0</ele><time>2026-04-04T09:34:49Z</time></trkpt><trkpt lat="43.43631884084105" lon="11.329326281831678"><ele>584.1999999999999</ele><time>2026-04-04T09:34:50Z</time></trkpt><trkpt lat="43.436389917696644" lon="11.329217124767146"><ele>585.4</ele><time>2026-04-04T09:34:51Z</time></trkpt><trkpt lat="43.43645538804187" lon="11.329109131291437"><ele>586.5999999999999</ele><time>2026-04-04T09:34:52Z</time></trkpt><trkpt lat="43.436494302518234" lon="11.329009583222112"><ele>587.8</ele><time>2026-04-04T09:34:53Z</time></trkpt><trkpt lat="43.43651572949013" lon="11.328892237663606"><ele>589.0</ele><time>2026-04-04T09:34:54Z</time></trkpt><trkpt lat="43.43645923126625" lon="11.328736928128233"><ele>589.0</ele><time>2026-04-04T09:34:55Z</time></trkpt><trkpt lat="43.43643898033578" lon="11.328593740110213"><ele>589.0</ele><time>2026-04-04T09:34:56Z</time></trkpt><trkpt lat="43.43646269785944" lon="11.328446493776832"><ele>589.0</ele><time>2026-04-04T09:34:57Z</time></trkpt><trkpt lat="43.436476923708184" lon="11.328290766451119"><ele>589.0</ele><time>2026-04-04T09:34:58Z</time></trkpt><trkpt lat="43.43649613090659" lon="11.328143689780946"><ele>589.0</ele><time>2026-04-04T09:34:59Z</time></trkpt><trkpt lat="43.43651981841822" lon="11.328002660523147"><ele>587.0</ele><time>2026-04-04T09:35:00Z</time></trkpt><trkpt lat="43.43654682350386" lon="11.327866474921041"><ele>585.0</ele><time>2026-04-04T09:35:01Z</time></trkpt><trkpt lat="43.43658104256879" lon="11.327739700161453"><ele>583.0</ele><time>2026-04-04T09:35:02Z</time></trkpt><trkpt lat="43.43662985109596" lon="11.327630488282997"><ele>581.0</ele><time>2026-04-04T09:35:03Z</time></trkpt><trkpt lat="43.43668397197598" lon="11.327539746483758"><ele>579.0</ele><time>2026-04-04T09:35:04Z</time></trkpt><trkpt lat="43.43673106291202" lon="11.327461072975147"><ele>579.0</ele><time>2026-04-04T09:35:05Z</time></trkpt><trkpt lat="43.436779903827556" lon="11.327402919578265"><ele>579.0</ele><time>2026-04-04T09:35:06Z</time></trkpt><trkpt lat="43.436826044281446" lon="11.327328540355614"><ele>579.0</ele><time>2026-04-04T09:35:07Z</time></trkpt><trkpt lat="43.436820949980294" lon="11.327196606814523"><ele>579.0</ele><time>2026-04-04T09:35:08Z</time></trkpt><trkpt lat="43.4367216240019" lon="11.327099984017659"><ele>579.0</ele><time>2026-04-04T09:35:09Z</time></trkpt><trkpt lat="43.436704198749105" lon="11.327001664018733"><ele>579.0</ele><time>2026-04-04T09:35:10Z</time></trkpt><trkpt lat="43.43676920059647" lon="11.326866571866578"><ele>576.5</ele><time>2026-04-04T09:35:12Z</time></trkpt><trkpt lat="43.43688098474362" lon="11.326873314913941"><ele>574.0</ele><time>2026-04-04T09:35:13Z</time></trkpt><trkpt lat="43.43696237223655" lon="11.326773942749448"><ele>571.5</ele><time>2026-04-04T09:35:14Z</time></trkpt><trkpt lat="43.43702126285231" lon="11.326626516795091"><ele>569.0</ele><time>2026-04-04T09:35:15Z</time></trkpt><trkpt lat="43.43705398193592" lon="11.326440801464932"><ele>568.0</ele><time>2026-04-04T09:35:16Z</time></trkpt><trkpt lat="43.437083919732665" lon="11.32628206529632"><ele>567.0</ele><time>2026-04-04T09:35:17Z</time></trkpt><trkpt lat="43.437121282377085" lon="11.326135786697042"><ele>566.0</ele><time>2026-04-04T09:35:18Z</time></trkpt><trkpt lat="43.43715473912165" lon="11.325974458089169"><ele>565.0</ele><time>2026-04-04T09:35:19Z</time></trkpt><trkpt lat="43.43718919933615" lon="11.325815258105777"><ele>565.0</ele><time>2026-04-04T09:35:20Z</time></trkpt><trkpt lat="43.43723205610014" lon="11.325662248007015"><ele>565.0</ele><time>2026-04-04T09:35:21Z</time></trkpt><trkpt lat="43.437283407914705" lon="11.325540656891821"><ele>565.0</ele><time>2026-04-04T09:35:22Z</time></trkpt><trkpt lat="43.437346978189616" lon="11.325467735668203"><ele>565.0</ele><time>2026-04-04T09:35:23Z</time></trkpt><trkpt lat="43.43741539766157" lon="11.3254498066151"><ele>565.0</ele><time>2026-04-04T09:35:24Z</time></trkpt><trkpt lat="43.4375103209371" lon="11.325366665703708"><ele>561.25</ele><time>2026-04-04T09:35:26Z</time></trkpt><trkpt lat="43.4375183352146" lon="11.325240624481612"><ele>557.5</ele><time>2026-04-04T09:35:27Z</time></trkpt><trkpt lat="43.437405084806436" lon="11.325133974035467"><ele>553.75</ele><time>2026-04-04T09:35:28Z</time></trkpt><trkpt lat="43.43729819227012" lon="11.325063170292573"><ele>550.0</ele><time>2026-04-04T09:35:29Z</time></trkpt><trkpt lat="43.43719942401908" lon="11.324954342570559"><ele>549.0</ele><time>2026-04-04T09:35:30Z</time></trkpt><trkpt lat="43.437118935397834" lon="11.324825538949638"><ele>548.0</ele><time>2026-04-04T09:35:31Z</time></trkpt><trkpt lat="43.437040012365074" lon="11.32468577292015"><ele>547.0</ele><time>2026-04-04T09:35:32Z</time></trkpt><trkpt lat="43.43696076129033" lon="11.324551602610603"><ele>546.0</ele><time>2026-04-04T09:35:33Z</time></trkpt><trkpt lat="43.43687985386127" lon="11.324420987052545"><ele>544.8</ele><time>2026-04-04T09:35:34Z</time></trkpt><trkpt lat="43.436784534566726" lon="11.324315327128913"><ele>543.6</ele><time>2026-04-04T09:35:35Z</time></trkpt><trkpt lat="43.43670467555963" lon="11.324216212647267"><ele>542.4</ele><time>2026-04-04T09:35:36Z</time></trkpt><trkpt lat="43.43662521481363" lon="11.324125495018125"><ele>541.2</ele><time>2026-04-04T09:35:37Z</time></trkpt><trkpt lat="43.436538897709426" lon="11.32403518998219"><ele>540.0</ele><time>2026-04-04T09:35:37.999Z</time></trkpt><trkpt lat="43.436450423215675" lon="11.323970678997973"><ele>540.0</ele><time>2026-04-04T09:35:38.999Z</time></trkpt><trkpt lat="43.4363717489148" lon="11.323911246090388"><ele>540.0</ele><time>2026-04-04T09:35:39.999Z</time></trkpt><trkpt lat="43.436312749358876" lon="11.32382309998341"><ele>540.0</ele><time>2026-04-04T09:35:40.999Z</time></trkpt><trkpt lat="43.43626120807331" lon="11.323726584828686"><ele>540.0</ele><time>2026-04-04T09:35:41.999Z</time></trkpt><trkpt lat="43.43622855829233" lon="11.323602309620274"><ele>540.0</ele><time>2026-04-04T09:35:42.999Z</time></trkpt><trkpt lat="43.43619433110926" lon="11.323452396423802"><ele>537.25</ele><time>2026-04-04T09:35:43.999Z</time></trkpt><trkpt lat="43.43615928725584" lon="11.323288723364843"><ele>534.5</ele><time>2026-04-04T09:35:44.999Z</time></trkpt><trkpt lat="43.43612229222106" lon="11.323113356613508"><ele>531.75</ele><time>2026-04-04T09:35:45.999Z</time></trkpt><trkpt lat="43.43608395752293" lon="11.3229238093655"><ele>529.0</ele><time>2026-04-04T09:35:46.999Z</time></trkpt><trkpt lat="43.436048213322444" lon="11.322749306799075"><ele>529.0</ele><time>2026-04-04T09:35:47.999Z</time></trkpt><trkpt lat="43.436013448676455" lon="11.32258744281279"><ele>529.0</ele><time>2026-04-04T09:35:48.999Z</time></trkpt><trkpt lat="43.43597940352439" lon="11.322436504750888"><ele>529.0</ele><time>2026-04-04T09:35:49.999Z</time></trkpt><trkpt lat="43.435939729722215" lon="11.322272611436235"><ele>529.0</ele><time>2026-04-04T09:35:50.999Z</time></trkpt><trkpt lat="43.43588507292218" lon="11.322112160312765"><ele>529.0</ele><time>2026-04-04T09:35:51.999Z</time></trkpt><trkpt lat="43.435809447843916" lon="11.321965395038823"><ele>529.0</ele><time>2026-04-04T09:35:52.999Z</time></trkpt><trkpt lat="43.4357313122639" lon="11.321823399882977"><ele>529.0</ele><time>2026-04-04T09:35:53.999Z</time></trkpt><trkpt lat="43.43566287714193" lon="11.321687664344763"><ele>529.0</ele><time>2026-04-04T09:35:54.999Z</time></trkpt><trkpt lat="43.43561710298917" lon="11.321547551366564"><ele>530.5</ele><time>2026-04-04T09:35:55.999Z</time></trkpt><trkpt lat="43.43558558171334" lon="11.321397561993217"><ele>532.0</ele><time>2026-04-04T09:35:56.999Z</time></trkpt><trkpt lat="43.435572222064835" lon="11.321231733347659"><ele>533.5</ele><time>2026-04-04T09:35:57.999Z</time></trkpt><trkpt lat="43.435568388204274" lon="11.321066480775274"><ele>535.0</ele><time>2026-04-04T09:35:58.999Z</time></trkpt><trkpt lat="43.4355812559223" lon="11.320905781736634"><ele>535.0</ele><time>2026-04-04T09:35:59.999Z</time></trkpt><trkpt lat="43.43562677116386" lon="11.320791311074183"><ele>535.0</ele><time>2026-04-04T09:36:00.999Z</time></trkpt><trkpt lat="43.4356815567666" lon="11.320675543710752"><ele>535.0</ele><time>2026-04-04T09:36:01.999Z</time></trkpt><trkpt lat="43.435733040393885" lon="11.320551028925435"><ele>535.0</ele><time>2026-04-04T09:36:02.999Z</time></trkpt><trkpt lat="43.43578506085389" lon="11.320423742774594"><ele>535.0</ele><time>2026-04-04T09:36:03.999Z</time></trkpt><trkpt lat="43.43582726792606" lon="11.320314339642257"><ele>536.4</ele><time>2026-04-04T09:36:04.999Z</time></trkpt><trkpt lat="43.43582969798803" lon="11.320198466465348"><ele>537.8</ele><time>2026-04-04T09:36:05.999Z</time></trkpt><trkpt lat="43.43576577249166" lon="11.320079335851418"><ele>539.2</ele><time>2026-04-04T09:36:06.999Z</time></trkpt><trkpt lat="43.43570700977752" lon="11.319969163395658"><ele>540.6</ele><time>2026-04-04T09:36:07.999Z</time></trkpt><trkpt lat="43.43563719393611" lon="11.319852429855104"><ele>542.0</ele><time>2026-04-04T09:36:08.999Z</time></trkpt><trkpt lat="43.43558901206151" lon="11.319714965959584"><ele>543.4</ele><time>2026-04-04T09:36:09.999Z</time></trkpt><trkpt lat="43.43556762611572" lon="11.319599671738489"><ele>544.8000000000001</ele><time>2026-04-04T09:36:10.999Z</time></trkpt><trkpt lat="43.43555107551483" lon="11.319483826506682"><ele>546.2</ele><time>2026-04-04T09:36:11.999Z</time></trkpt><trkpt lat="43.43562551998813" lon="11.319400762375734"><ele>547.6</ele><time>2026-04-04T09:36:12.999Z</time></trkpt><trkpt lat="43.435699171673434" lon="11.319281984739575"><ele>549.0</ele><time>2026-04-04T09:36:13.999Z</time></trkpt><trkpt lat="43.435780525589294" lon="11.319174530412672"><ele>549.0</ele><time>2026-04-04T09:36:14.999Z</time></trkpt><trkpt lat="43.43582179025374" lon="11.319057660272941"><ele>549.0</ele><time>2026-04-04T09:36:15.999Z</time></trkpt><trkpt lat="43.43585281276508" lon="11.318951750875819"><ele>549.0</ele><time>2026-04-04T09:36:16.999Z</time></trkpt><trkpt lat="43.43582004163765" lon="11.318815308105567"><ele>549.0</ele><time>2026-04-04T09:36:17.999Z</time></trkpt><trkpt lat="43.43578197632285" lon="11.318677011077618"><ele>549.0</ele><time>2026-04-04T09:36:18.999Z</time></trkpt><trkpt lat="43.435748887312286" lon="11.318508707728782"><ele>550.5</ele><time>2026-04-04T09:36:19.999Z</time></trkpt><trkpt lat="43.43570721260811" lon="11.318329639460476"><ele>552.0</ele><time>2026-04-04T09:36:20.999Z</time></trkpt><trkpt lat="43.43567391730948" lon="11.318164157825219"><ele>553.5</ele><time>2026-04-04T09:36:21.999Z</time></trkpt><trkpt lat="43.43564857096367" lon="11.318012513342543"><ele>555.0</ele><time>2026-04-04T09:36:22.999Z</time></trkpt><trkpt lat="43.43562851184983" lon="11.317865486858446"><ele>555.0</ele><time>2026-04-04T09:36:23.999Z</time></trkpt><trkpt lat="43.4356554188795" lon="11.317710656950005"><ele>555.0</ele><time>2026-04-04T09:36:24.999Z</time></trkpt><trkpt lat="43.435688975501115" lon="11.31757890636109"><ele>555.0</ele><time>2026-04-04T09:36:25.999Z</time></trkpt><trkpt lat="43.43570500191984" lon="11.31743916248412"><ele>555.0</ele><time>2026-04-04T09:36:26.999Z</time></trkpt><trkpt lat="43.43569579024745" lon="11.317281250187733"><ele>555.0</ele><time>2026-04-04T09:36:27.999Z</time></trkpt><trkpt lat="43.43565460964297" lon="11.317106452480362"><ele>555.0</ele><time>2026-04-04T09:36:28.999Z</time></trkpt><trkpt lat="43.43560850084954" lon="11.316916409490558"><ele>555.0</ele><time>2026-04-04T09:36:29.999Z</time></trkpt><trkpt lat="43.435558946882104" lon="11.316727678626831"><ele>555.0</ele><time>2026-04-04T09:36:30.999Z</time></trkpt><trkpt lat="43.43551890607341" lon="11.316566573314894"><ele>555.0</ele><time>2026-04-04T09:36:31.999Z</time></trkpt><trkpt lat="43.435489144506676" lon="11.316433462505803"><ele>558.0</ele><time>2026-04-04T09:36:32.999Z</time></trkpt><trkpt lat="43.4354549764233" lon="11.316320736921403"><ele>561.0</ele><time>2026-04-04T09:36:33.999Z</time></trkpt><trkpt lat="43.43539461270708" lon="11.316209231102526"><ele>564.0</ele><time>2026-04-04T09:36:34.999Z</time></trkpt><trkpt lat="43.43531454626443" lon="11.316108667985223"><ele>567.0</ele><time>2026-04-04T09:36:35.999Z</time></trkpt><trkpt lat="43.4352164240031" lon="11.316021966450577"><ele>570.0</ele><time>2026-04-04T09:36:36.999Z</time></trkpt><trkpt lat="43.4351031942086" lon="11.31594377506214"><ele>570.0</ele><time>2026-04-04T09:36:37.999Z</time></trkpt><trkpt lat="43.435028643841505" lon="11.315840530354201"><ele>570.0</ele><time>2026-04-04T09:36:38.999Z</time></trkpt><trkpt lat="43.434961097688294" lon="11.315750802239192"><ele>570.0</ele><time>2026-04-04T09:36:39.999Z</time></trkpt><trkpt lat="43.43491179357536" lon="11.315637009379913"><ele>570.0</ele><time>2026-04-04T09:36:40.999Z</time></trkpt><trkpt lat="43.434847380184735" lon="11.315499606210693"><ele>570.0</ele><time>2026-04-04T09:36:41.999Z</time></trkpt><trkpt lat="43.434776373979794" lon="11.315365119901134"><ele>568.75</ele><time>2026-04-04T09:36:42.999Z</time></trkpt><trkpt lat="43.43469076961429" lon="11.315261153731745"><ele>567.5</ele><time>2026-04-04T09:36:43.999Z</time></trkpt><trkpt lat="43.434583689552326" lon="11.315181485173698"><ele>566.25</ele><time>2026-04-04T09:36:44.999Z</time></trkpt><trkpt lat="43.43448345558532" lon="11.315109438231767"><ele>565.0</ele><time>2026-04-04T09:36:45.999Z</time></trkpt><trkpt lat="43.43441383558821" lon="11.315003096394005"><ele>565.0</ele><time>2026-04-04T09:36:46.999Z</time></trkpt><trkpt lat="43.43433419627135" lon="11.31492110890548"><ele>565.0</ele><time>2026-04-04T09:36:47.999Z</time></trkpt><trkpt lat="43.434287373606615" lon="11.314819073226529"><ele>565.0</ele><time>2026-04-04T09:36:48.999Z</time></trkpt><trkpt lat="43.43425684111315" lon="11.31473266545096"><ele>565.0</ele><time>2026-04-04T09:36:49.999Z</time></trkpt><trkpt lat="43.434219849230125" lon="11.31458004724165"><ele>565.0</ele><time>2026-04-04T09:36:51.999Z</time></trkpt><trkpt lat="43.43423458028799" lon="11.314473289935124"><ele>562.0</ele><time>2026-04-04T09:36:52.999Z</time></trkpt><trkpt lat="43.43429901306466" lon="11.314381707567863"><ele>559.0</ele><time>2026-04-04T09:36:53.999Z</time></trkpt><trkpt lat="43.43436816411845" lon="11.314215880108382"><ele>556.0</ele><time>2026-04-04T09:36:54.999Z</time></trkpt><trkpt lat="43.43444155898374" lon="11.314049050180095"><ele>553.0</ele><time>2026-04-04T09:36:55.999Z</time></trkpt><trkpt lat="43.434509046001054" lon="11.3138909816056"><ele>551.25</ele><time>2026-04-04T09:36:56.999Z</time></trkpt><trkpt lat="43.434572704767646" lon="11.313733034252008"><ele>549.5</ele><time>2026-04-04T09:36:57.999Z</time></trkpt><trkpt lat="43.43462522728388" lon="11.313542030327984"><ele>547.75</ele><time>2026-04-04T09:36:58.999Z</time></trkpt><trkpt lat="43.43469807659402" lon="11.313378709615193"><ele>546.0</ele><time>2026-04-04T09:36:59.999Z</time></trkpt><trkpt lat="43.434749158648515" lon="11.313219289237654"><ele>546.0</ele><time>2026-04-04T09:37:00.999Z</time></trkpt><trkpt lat="43.4348007460807" lon="11.313087212146657"><ele>546.0</ele><time>2026-04-04T09:37:01.999Z</time></trkpt><trkpt lat="43.43487763067335" lon="11.312965610172759"><ele>546.0</ele><time>2026-04-04T09:37:02.999Z</time></trkpt><trkpt lat="43.43493945749135" lon="11.312846523083932"><ele>546.0</ele><time>2026-04-04T09:37:03.999Z</time></trkpt><trkpt lat="43.434990624538514" lon="11.312732844683275"><ele>546.0</ele><time>2026-04-04T09:37:04.999Z</time></trkpt><trkpt lat="43.4350641484319" lon="11.31265818736683"><ele>546.0</ele><time>2026-04-04T09:37:05.999Z</time></trkpt><trkpt lat="43.43514431473958" lon="11.312646126938354"><ele>546.0</ele><time>2026-04-04T09:37:06.999Z</time></trkpt><trkpt lat="43.43521280298079" lon="11.312601739661151"><ele>546.0</ele><time>2026-04-04T09:37:07.999Z</time></trkpt><trkpt lat="43.43528239608265" lon="11.312564315980826"><ele>546.0</ele><time>2026-04-04T09:37:08.999Z</time></trkpt><trkpt lat="43.435344046326094" lon="11.312511722032106"><ele>546.0</ele><time>2026-04-04T09:37:09.999Z</time></trkpt><trkpt lat="43.43536860563543" lon="11.31240863109394"><ele>546.0</ele><time>2026-04-04T09:37:10.999Z</time></trkpt><trkpt lat="43.43531107238427" lon="11.312279191126411"><ele>545.8</ele><time>2026-04-04T09:37:11.999Z</time></trkpt><trkpt lat="43.43527870029274" lon="11.31214564139186"><ele>545.6</ele><time>2026-04-04T09:37:12.999Z</time></trkpt><trkpt lat="43.435290359680465" lon="11.312000996136778"><ele>545.4</ele><time>2026-04-04T09:37:13.999Z</time></trkpt><trkpt lat="43.43531483425122" lon="11.311896352423172"><ele>545.2</ele><time>2026-04-04T09:37:14.999Z</time></trkpt><trkpt lat="43.43534816675412" lon="11.311807167644574"><ele>545.0</ele><time>2026-04-04T09:37:15.999Z</time></trkpt><trkpt lat="43.43541365977477" lon="11.311713385405607"><ele>546.4</ele><time>2026-04-04T09:37:17.999Z</time></trkpt><trkpt lat="43.43549556727955" lon="11.311615508396716"><ele>547.8</ele><time>2026-04-04T09:37:21.999Z</time></trkpt><trkpt lat="43.43551928272164" lon="11.311480716335751"><ele>549.2</ele><time>2026-04-04T09:37:22.999Z</time></trkpt><trkpt lat="43.43555961490299" lon="11.311389104687311"><ele>550.6</ele><time>2026-04-04T09:37:23.999Z</time></trkpt><trkpt lat="43.43559302263212" lon="11.311303455298365"><ele>552.0</ele><time>2026-04-04T09:37:25Z</time></trkpt><trkpt lat="43.43565062684224" lon="11.311166570182124"><ele>552.0</ele><time>2026-04-04T09:37:27Z</time></trkpt><trkpt lat="43.435750456337814" lon="11.311023624502953"><ele>552.0</ele><time>2026-04-04T09:37:29Z</time></trkpt><trkpt lat="43.43583761470043" lon="11.310916987965191"><ele>552.0</ele><time>2026-04-04T09:37:30Z</time></trkpt><trkpt lat="43.43593345770608" lon="11.310786143245595"><ele>552.0</ele><time>2026-04-04T09:37:31Z</time></trkpt><trkpt lat="43.436000925872214" lon="11.310668424089364"><ele>549.8000000000001</ele><time>2026-04-04T09:37:32Z</time></trkpt><trkpt lat="43.43605031872764" lon="11.310560914765171"><ele>547.6</ele><time>2026-04-04T09:37:33Z</time></trkpt><trkpt lat="43.43609754260409" lon="11.310438324301902"><ele>545.4000000000001</ele><time>2026-04-04T09:37:34Z</time></trkpt><trkpt lat="43.436128146414326" lon="11.310305768714764"><ele>543.2</ele><time>2026-04-04T09:37:35Z</time></trkpt><trkpt lat="43.43615934831255" lon="11.310194779512555"><ele>541.0</ele><time>2026-04-04T09:37:36Z</time></trkpt><trkpt lat="43.436199685534206" lon="11.310099859908151"><ele>541.0</ele><time>2026-04-04T09:37:37Z</time></trkpt><trkpt lat="43.43624760061561" lon="11.310012465967256"><ele>541.0</ele><time>2026-04-04T09:37:38Z</time></trkpt><trkpt lat="43.436310437707434" lon="11.309955220795372"><ele>541.0</ele><time>2026-04-04T09:37:39Z</time></trkpt><trkpt lat="43.43638204247923" lon="11.309896831013518"><ele>541.0</ele><time>2026-04-04T09:37:40Z</time></trkpt><trkpt lat="43.43644647217766" lon="11.309812296548111"><ele>541.0</ele><time>2026-04-04T09:37:41Z</time></trkpt><trkpt lat="43.436481513223306" lon="11.309722938626834"><ele>541.0</ele><time>2026-04-04T09:37:42Z</time></trkpt><trkpt lat="43.43653157625068" lon="11.309615597598118"><ele>540.2</ele><time>2026-04-04T09:37:44Z</time></trkpt><trkpt lat="43.43649557818549" lon="11.309490095069059"><ele>539.4000000000001</ele><time>2026-04-04T09:37:46Z</time></trkpt><trkpt lat="43.436383070359156" lon="11.309427428114377"><ele>538.6</ele><time>2026-04-04T09:37:48Z</time></trkpt><trkpt lat="43.43638322274116" lon="11.309253608135863"><ele>537.8000000000001</ele><time>2026-04-04T09:37:50Z</time></trkpt><trkpt lat="43.43635694665579" lon="11.30912640445899"><ele>537.0</ele><time>2026-04-04T09:37:51Z</time></trkpt><trkpt lat="43.436330110400995" lon="11.308992754539528"><ele>534.4</ele><time>2026-04-04T09:37:52Z</time></trkpt><trkpt lat="43.43630713189034" lon="11.3088783170122"><ele>531.8000000000001</ele><time>2026-04-04T09:37:53Z</time></trkpt><trkpt lat="43.436286422385564" lon="11.308780223937832"><ele>529.2</ele><time>2026-04-04T09:37:54Z</time></trkpt><trkpt lat="43.436262172710215" lon="11.308671855523494"><ele>526.6</ele><time>2026-04-04T09:37:55Z</time></trkpt><trkpt lat="43.43622409217468" lon="11.308532255848915"><ele>524.0</ele><time>2026-04-04T09:37:56Z</time></trkpt><trkpt lat="43.43617781794956" lon="11.308370469985013"><ele>523.5</ele><time>2026-04-04T09:37:57Z</time></trkpt><trkpt lat="43.436132938055586" lon="11.308211731118218"><ele>523.0</ele><time>2026-04-04T09:37:58Z</time></trkpt><trkpt lat="43.43609051324913" lon="11.308059276261302"><ele>522.5</ele><time>2026-04-04T09:37:59Z</time></trkpt><trkpt lat="43.43604822107053" lon="11.307907298024128"><ele>522.0</ele><time>2026-04-04T09:38:00Z</time></trkpt><trkpt lat="43.43601048897004" lon="11.307771879302116"><ele>521.5</ele><time>2026-04-04T09:38:01Z</time></trkpt><trkpt lat="43.435979240478886" lon="11.307653473538434"><ele>521.0</ele><time>2026-04-04T09:38:02Z</time></trkpt><trkpt lat="43.435950997443875" lon="11.307545175281954"><ele>520.5</ele><time>2026-04-04T09:38:03Z</time></trkpt><trkpt lat="43.43592398403655" lon="11.307437874617674"><ele>520.0</ele><time>2026-04-04T09:38:04Z</time></trkpt><trkpt lat="43.43589344488985" lon="11.307316569495201"><ele>519.5</ele><time>2026-04-04T09:38:05Z</time></trkpt><trkpt lat="43.435864890180646" lon="11.307207309749879"><ele>519.0</ele><time>2026-04-04T09:38:06Z</time></trkpt><trkpt lat="43.435835713498335" lon="11.30709833017598"><ele>517.6666666666666</ele><time>2026-04-04T09:38:07Z</time></trkpt><trkpt lat="43.43580986545955" lon="11.306997746259832"><ele>516.3333333333334</ele><time>2026-04-04T09:38:08Z</time></trkpt><trkpt lat="43.43579402256978" lon="11.306912808724334"><ele>515.0</ele><time>2026-04-04T09:38:09Z</time></trkpt><trkpt lat="43.43579963812478" lon="11.306756039300243"><ele>513.6666666666667</ele><time>2026-04-04T09:38:11Z</time></trkpt><trkpt lat="43.43585021157238" lon="11.306642677100555"><ele>512.3333333333334</ele><time>2026-04-04T09:38:13Z</time></trkpt><trkpt lat="43.435817634072556" lon="11.30654616362639"><ele>511.0</ele><time>2026-04-04T09:38:17Z</time></trkpt><trkpt lat="43.43573743574446" lon="11.306535251900764"><ele>511.0</ele><time>2026-04-04T09:38:20Z</time></trkpt><trkpt lat="43.4356807785944" lon="11.306577637030427"><ele>511.0</ele><time>2026-04-04T09:38:23Z</time></trkpt><trkpt lat="43.43574626268956" lon="11.306547369591712"><ele>511.0</ele><time>2026-04-04T09:39:06Z</time></trkpt><trkpt lat="43.435817885439704" lon="11.306504593212676"><ele>511.0</ele><time>2026-04-04T09:39:08Z</time></trkpt><trkpt lat="43.4357520301805" lon="11.306545540666583"><ele>511.0</ele><time>2026-04-04T09:40:45Z</time></trkpt><trkpt lat="43.43568517785835" lon="11.306572965585424"><ele>511.0</ele><time>2026-04-04T09:40:50Z</time></trkpt><trkpt lat="43.43562043836013" lon="11.30656689001147"><ele>511.0</ele><time>2026-04-04T09:40:55Z</time></trkpt><trkpt lat="43.43555495440773" lon="11.306521254707203"><ele>511.0</ele><time>2026-04-04T09:41:12Z</time></trkpt><trkpt lat="43.4355204622237" lon="11.306422572784456"><ele>511.0</ele><time>2026-04-04T09:42:59Z</time></trkpt><trkpt lat="43.43554111126858" lon="11.30651203213593"><ele>511.0</ele><time>2026-04-04T09:46:22Z</time></trkpt><trkpt lat="43.435808804487706" lon="11.306506423957865"><ele>511.0</ele><time>2026-04-04T09:51:20Z</time></trkpt><trkpt lat="43.43573729191629" lon="11.306560580189487"><ele>511.0</ele><time>2026-04-04T09:51:55Z</time></trkpt><trkpt lat="43.435672422588084" lon="11.306589059347012"><ele>511.0</ele><time>2026-04-04T09:51:58Z</time></trkpt><trkpt lat="43.43561539223836" lon="11.306548113901359"><ele>511.0</ele><time>2026-04-04T09:52:27Z</time></trkpt><trkpt lat="43.435611647655875" lon="11.306458899087792"><ele>511.0</ele><time>2026-04-04T09:52:29Z</time></trkpt><trkpt lat="43.43564084143282" lon="11.30636833311096"><ele>511.0</ele><time>2026-04-04T09:52:32Z</time></trkpt><trkpt lat="43.43561992939364" lon="11.306252931938971"><ele>511.0</ele><time>2026-04-04T09:52:50Z</time></trkpt><trkpt lat="43.435618885071996" lon="11.306132213034237"><ele>511.0</ele><time>2026-04-04T09:52:54Z</time></trkpt><trkpt lat="43.4356448291316" lon="11.306031692863483"><ele>509.8</ele><time>2026-04-04T09:52:58Z</time></trkpt><trkpt lat="43.43560345811406" lon="11.305855448800841"><ele>508.6</ele><time>2026-04-04T09:53:02Z</time></trkpt><trkpt lat="43.43552010152927" lon="11.305866432972369"><ele>507.4</ele><time>2026-04-04T09:53:03Z</time></trkpt><trkpt lat="43.43546440677704" lon="11.305764210840433"><ele>506.2</ele><time>2026-04-04T09:53:05Z</time></trkpt><trkpt lat="43.43541462828768" lon="11.30567354734352"><ele>505.0</ele><time>2026-04-04T09:53:07Z</time></trkpt><trkpt lat="43.43537387876896" lon="11.305550888974311"><ele>504.2</ele><time>2026-04-04T09:53:09Z</time></trkpt><trkpt lat="43.435336311103505" lon="11.30545228572571"><ele>503.4</ele><time>2026-04-04T09:53:11Z</time></trkpt><trkpt lat="43.4353218071692" lon="11.305310494687792"><ele>502.6</ele><time>2026-04-04T09:53:13Z</time></trkpt><trkpt lat="43.43537536044697" lon="11.305165103276394"><ele>501.8</ele><time>2026-04-04T09:53:15Z</time></trkpt><trkpt lat="43.43539667857166" lon="11.305052086616447"><ele>501.0</ele><time>2026-04-04T09:53:17Z</time></trkpt><trkpt lat="43.43548544132817" lon="11.30504961195055"><ele>500.0</ele><time>2026-04-04T09:53:19Z</time></trkpt><trkpt lat="43.435597435835135" lon="11.305119233596493"><ele>499.0</ele><time>2026-04-04T09:53:21Z</time></trkpt><trkpt lat="43.4356874591949" lon="11.305131853805353"><ele>498.0</ele><time>2026-04-04T09:53:22Z</time></trkpt><trkpt lat="43.435758193241924" lon="11.305170529677351"><ele>497.0</ele><time>2026-04-04T09:53:23Z</time></trkpt><trkpt lat="43.43583072535308" lon="11.305204193029839"><ele>496.0</ele><time>2026-04-04T09:53:24Z</time></trkpt><trkpt lat="43.435913610909004" lon="11.305239344782569"><ele>496.0</ele><time>2026-04-04T09:53:25Z</time></trkpt><trkpt lat="43.436013047153736" lon="11.305294704449722"><ele>496.0</ele><time>2026-04-04T09:53:26Z</time></trkpt><trkpt lat="43.436112241392415" lon="11.305334879461988"><ele>496.0</ele><time>2026-04-04T09:53:27Z</time></trkpt><trkpt lat="43.43619927608924" lon="11.305374933497584"><ele>496.0</ele><time>2026-04-04T09:53:28Z</time></trkpt><trkpt lat="43.43628292211937" lon="11.305407451686067"><ele>496.0</ele><time>2026-04-04T09:53:29Z</time></trkpt><trkpt lat="43.43636329283982" lon="11.305419484159302"><ele>495.20000000000005</ele><time>2026-04-04T09:53:30Z</time></trkpt><trkpt lat="43.43643820592877" lon="11.305404250365646"><ele>494.40000000000003</ele><time>2026-04-04T09:53:31Z</time></trkpt><trkpt lat="43.43650491035663" lon="11.305373498149514"><ele>493.6</ele><time>2026-04-04T09:53:32Z</time></trkpt><trkpt lat="43.43660348613904" lon="11.305310037743622"><ele>492.8</ele><time>2026-04-04T09:53:34Z</time></trkpt><trkpt lat="43.43667001363807" lon="11.305262992546336"><ele>492.0</ele><time>2026-04-04T09:53:36Z</time></trkpt><trkpt lat="43.43681647384592" lon="11.30511841138806"><ele>492.0</ele><time>2026-04-04T09:53:41Z</time></trkpt><trkpt lat="43.43668013819756" lon="11.30525215308839"><ele>492.0</ele><time>2026-04-04T09:53:48Z</time></trkpt><trkpt lat="43.43641872394291" lon="11.305035381066514"><ele>492.0</ele><time>2026-04-04T09:53:52Z</time></trkpt><trkpt lat="43.43636485836962" lon="11.304922247097966"><ele>492.0</ele><time>2026-04-04T09:53:54Z</time></trkpt><trkpt lat="43.436367494159484" lon="11.304796940969583"><ele>492.0</ele><time>2026-04-04T09:53:56Z</time></trkpt><trkpt lat="43.43639139634127" lon="11.304715486427057"><ele>492.0</ele><time>2026-04-04T09:53:58Z</time></trkpt><trkpt lat="43.43642955752762" lon="11.304584264760281"><ele>492.0</ele><time>2026-04-04T09:54:00Z</time></trkpt><trkpt lat="43.43645298032728" lon="11.304486775252704"><ele>492.0</ele><time>2026-04-04T09:54:01Z</time></trkpt><trkpt lat="43.43646168494433" lon="11.304395058104848"><ele>491.3333333333333</ele><time>2026-04-04T09:54:02Z</time></trkpt><trkpt lat="43.4364549686402" lon="11.30427637491212"><ele>490.66666666666663</ele><time>2026-04-04T09:54:04Z</time></trkpt><trkpt lat="43.436488168141096" lon="11.30416077014608"><ele>490.0</ele><time>2026-04-04T09:54:06Z</time></trkpt><trkpt lat="43.436536421546734" lon="11.304088250517866"><ele>489.3333333333333</ele><time>2026-04-04T09:54:07Z</time></trkpt><trkpt lat="43.43659381738591" lon="11.304026087937928"><ele>488.66666666666663</ele><time>2026-04-04T09:54:08Z</time></trkpt><trkpt lat="43.43663405283166" lon="11.303945945062674"><ele>488.0</ele><time>2026-04-04T09:54:09Z</time></trkpt><trkpt lat="43.436659802714594" lon="11.303846191365176"><ele>487.79999999999995</ele><time>2026-04-04T09:54:10Z</time></trkpt><trkpt lat="43.43667936553054" lon="11.30372784433218"><ele>487.59999999999997</ele><time>2026-04-04T09:54:11Z</time></trkpt><trkpt lat="43.43667664689115" lon="11.303609508801525"><ele>487.40000000000003</ele><time>2026-04-04T09:54:12Z</time></trkpt><trkpt lat="43.436685915962094" lon="11.303470506703844"><ele>487.20000000000005</ele><time>2026-04-04T09:54:13Z</time></trkpt><trkpt lat="43.43668075344268" lon="11.303335497752856"><ele>487.0</ele><time>2026-04-04T09:54:14Z</time></trkpt><trkpt lat="43.43667762341376" lon="11.303185103999958"><ele>488.40000000000003</ele><time>2026-04-04T09:54:15Z</time></trkpt><trkpt lat="43.43667670087318" lon="11.30302790382567"><ele>489.80000000000007</ele><time>2026-04-04T09:54:16Z</time></trkpt><trkpt lat="43.4366799569084" lon="11.302873968026331"><ele>491.2</ele><time>2026-04-04T09:54:17Z</time></trkpt><trkpt lat="43.436682808382585" lon="11.302729255592105"><ele>492.6</ele><time>2026-04-04T09:54:18Z</time></trkpt><trkpt lat="43.436685550187796" lon="11.302582014757203"><ele>494.0</ele><time>2026-04-04T09:54:19Z</time></trkpt><trkpt lat="43.43668340180525" lon="11.302426871771917"><ele>494.0</ele><time>2026-04-04T09:54:20Z</time></trkpt><trkpt lat="43.43667892076934" lon="11.30226985295964"><ele>494.0</ele><time>2026-04-04T09:54:21Z</time></trkpt><trkpt lat="43.436669502922335" lon="11.302118214610722"><ele>494.0</ele><time>2026-04-04T09:54:22Z</time></trkpt><trkpt lat="43.4366626578763" lon="11.301971140046538"><ele>494.0</ele><time>2026-04-04T09:54:23Z</time></trkpt><trkpt lat="43.436660250173944" lon="11.301818006606913"><ele>494.0</ele><time>2026-04-04T09:54:24Z</time></trkpt><trkpt lat="43.43666025017272" lon="11.301684188957623"><ele>494.0</ele><time>2026-04-04T09:54:25Z</time></trkpt><trkpt lat="43.436662961218694" lon="11.301545425011764"><ele>494.0</ele><time>2026-04-04T09:54:26Z</time></trkpt><trkpt lat="43.436672753686985" lon="11.301399223689206"><ele>494.0</ele><time>2026-04-04T09:54:27Z</time></trkpt><trkpt lat="43.436694394096804" lon="11.301261365585503"><ele>494.0</ele><time>2026-04-04T09:54:28Z</time></trkpt><trkpt lat="43.43672647478916" lon="11.301146016179583"><ele>494.0</ele><time>2026-04-04T09:54:29Z</time></trkpt><trkpt lat="43.43677113226484" lon="11.301042173839978"><ele>494.0</ele><time>2026-04-04T09:54:30Z</time></trkpt><trkpt lat="43.43682744924353" lon="11.300959011451239"><ele>494.0</ele><time>2026-04-04T09:54:31Z</time></trkpt><trkpt lat="43.43689123947139" lon="11.300848456670911"><ele>494.0</ele><time>2026-04-04T09:54:33Z</time></trkpt><trkpt lat="43.436952876920984" lon="11.300799767177807"><ele>494.0</ele><time>2026-04-04T09:54:37Z</time></trkpt><trkpt lat="43.43705212092765" lon="11.300710823766929"><ele>494.0</ele><time>2026-04-04T09:54:39Z</time></trkpt><trkpt lat="43.43712762585039" lon="11.300620953224405"><ele>495.49999999999994</ele><time>2026-04-04T09:54:40Z</time></trkpt><trkpt lat="43.43718668177741" lon="11.300539705727212"><ele>497.0</ele><time>2026-04-04T09:54:41Z</time></trkpt><trkpt lat="43.43723941746498" lon="11.300466108119657"><ele>498.5</ele><time>2026-04-04T09:54:42Z</time></trkpt><trkpt lat="43.43731307683013" lon="11.300361412181694"><ele>500.0</ele><time>2026-04-04T09:54:44Z</time></trkpt><trkpt lat="43.43736795112327" lon="11.300283416625636"><ele>501.49999999999994</ele><time>2026-04-04T09:54:46Z</time></trkpt><trkpt lat="43.4374398209633" lon="11.300191404620428"><ele>503.0</ele><time>2026-04-04T09:54:48Z</time></trkpt><trkpt lat="43.43746130818338" lon="11.299922853294586"><ele>503.0</ele><time>2026-04-04T09:54:49Z</time></trkpt><trkpt lat="43.437471993081324" lon="11.29981608640136"><ele>503.0</ele><time>2026-04-04T09:54:50Z</time></trkpt><trkpt lat="43.43749384320655" lon="11.299647026832664"><ele>503.0</ele><time>2026-04-04T09:54:51Z</time></trkpt><trkpt lat="43.437229184019294" lon="11.299616992576805"><ele>501.4</ele><time>2026-04-04T09:54:52Z</time></trkpt><trkpt lat="43.43721554962401" lon="11.299485296970493"><ele>499.79999999999995</ele><time>2026-04-04T09:54:54Z</time></trkpt><trkpt lat="43.43720447626184" lon="11.299359615002103"><ele>498.2</ele><time>2026-04-04T09:54:56Z</time></trkpt><trkpt lat="43.43714108928984" lon="11.299186075607782"><ele>496.6</ele><time>2026-04-04T09:54:58Z</time></trkpt><trkpt lat="43.43713172451199" lon="11.299073040483432"><ele>495.0</ele><time>2026-04-04T09:54:59Z</time></trkpt><trkpt lat="43.437099297262186" lon="11.298982825553724"><ele>492.1666666666667</ele><time>2026-04-04T09:55:00Z</time></trkpt><trkpt lat="43.43706037796125" lon="11.298840199664074"><ele>489.33333333333337</ele><time>2026-04-04T09:55:02Z</time></trkpt><trkpt lat="43.43699130315385" lon="11.29871146574976"><ele>486.5</ele><time>2026-04-04T09:55:04Z</time></trkpt><trkpt lat="43.43694941054008" lon="11.29864048156822"><ele>483.6666666666667</ele><time>2026-04-04T09:55:05Z</time></trkpt><trkpt lat="43.4368985639385" lon="11.29857968857582"><ele>480.83333333333337</ele><time>2026-04-04T09:55:06Z</time></trkpt><trkpt lat="43.43683476591512" lon="11.29854302748678"><ele>478.0</ele><time>2026-04-04T09:55:07Z</time></trkpt><trkpt lat="43.436755620206654" lon="11.29853283458828"><ele>478.0</ele><time>2026-04-04T09:55:08Z</time></trkpt><trkpt lat="43.436663284044435" lon="11.298496928404912"><ele>477.99999999999994</ele><time>2026-04-04T09:55:09Z</time></trkpt><trkpt lat="43.436592170850346" lon="11.298442633054169"><ele>477.99999999999994</ele><time>2026-04-04T09:55:10Z</time></trkpt><trkpt lat="43.43652839219483" lon="11.298361412063386"><ele>478.0</ele><time>2026-04-04T09:55:11Z</time></trkpt><trkpt lat="43.43644698214366" lon="11.298287641832635"><ele>478.0</ele><time>2026-04-04T09:55:12Z</time></trkpt><trkpt lat="43.436341860082756" lon="11.298256435094615"><ele>476.75</ele><time>2026-04-04T09:55:13Z</time></trkpt><trkpt lat="43.436237221356386" lon="11.298201482481272"><ele>475.5</ele><time>2026-04-04T09:55:14Z</time></trkpt><trkpt lat="43.43611429556506" lon="11.298174620749988"><ele>474.25</ele><time>2026-04-04T09:55:15Z</time></trkpt><trkpt lat="43.43598832831104" lon="11.298177380562446"><ele>473.0</ele><time>2026-04-04T09:55:16Z</time></trkpt><trkpt lat="43.43586195097318" lon="11.298179650845261"><ele>473.0</ele><time>2026-04-04T09:55:17Z</time></trkpt><trkpt lat="43.43573908069757" lon="11.298175866657479"><ele>472.99999999999994</ele><time>2026-04-04T09:55:18Z</time></trkpt><trkpt lat="43.43563568368144" lon="11.298145764052835"><ele>472.99999999999994</ele><time>2026-04-04T09:55:19Z</time></trkpt><trkpt lat="43.435540639817724" lon="11.298096387277024"><ele>473.0</ele><time>2026-04-04T09:55:20Z</time></trkpt><trkpt lat="43.435466020521666" lon="11.298044800920588"><ele>473.0</ele><time>2026-04-04T09:55:21Z</time></trkpt><trkpt lat="43.435391178322924" lon="11.29796221311688"><ele>472.66666666666663</ele><time>2026-04-04T09:55:23Z</time></trkpt><trkpt lat="43.43539331107829" lon="11.297867781066834"><ele>472.3333333333333</ele><time>2026-04-04T09:55:26Z</time></trkpt><trkpt lat="43.43541209812401" lon="11.297742293045392"><ele>472.0</ele><time>2026-04-04T09:55:29Z</time></trkpt><trkpt lat="43.435463783760774" lon="11.297634592581325"><ele>471.66666666666663</ele><time>2026-04-04T09:55:30Z</time></trkpt><trkpt lat="43.43552570132955" lon="11.297529111465241"><ele>471.3333333333333</ele><time>2026-04-04T09:55:31Z</time></trkpt><trkpt lat="43.43559428141606" lon="11.297439291328597"><ele>471.0</ele><time>2026-04-04T09:55:32Z</time></trkpt><trkpt lat="43.43568255784441" lon="11.297374866681398"><ele>471.0</ele><time>2026-04-04T09:55:33Z</time></trkpt><trkpt lat="43.43578049249247" lon="11.297324552467447"><ele>471.0</ele><time>2026-04-04T09:55:34Z</time></trkpt><trkpt lat="43.435874530149846" lon="11.29726803568545"><ele>471.0</ele><time>2026-04-04T09:55:35Z</time></trkpt><trkpt lat="43.43597255421074" lon="11.297214885407127"><ele>471.0</ele><time>2026-04-04T09:55:36Z</time></trkpt><trkpt lat="43.43607990736673" lon="11.297170120279887"><ele>471.0</ele><time>2026-04-04T09:55:37Z</time></trkpt><trkpt lat="43.43617958552938" lon="11.29713391009737"><ele>468.20000000000005</ele><time>2026-04-04T09:55:38Z</time></trkpt><trkpt lat="43.436283800923604" lon="11.297084733933373"><ele>465.40000000000003</ele><time>2026-04-04T09:55:39Z</time></trkpt><trkpt lat="43.436390621179825" lon="11.297039719297869"><ele>462.6</ele><time>2026-04-04T09:55:40Z</time></trkpt><trkpt lat="43.43649685744061" lon="11.29701129093693"><ele>459.8</ele><time>2026-04-04T09:55:41Z</time></trkpt><trkpt lat="43.43659755766034" lon="11.296976543425963"><ele>457.0</ele><time>2026-04-04T09:55:42Z</time></trkpt><trkpt lat="43.43668995669069" lon="11.296947133095774"><ele>457.00000000000006</ele><time>2026-04-04T09:55:43Z</time></trkpt><trkpt lat="43.436773218732" lon="11.296916224067973"><ele>457.0</ele><time>2026-04-04T09:55:44Z</time></trkpt><trkpt lat="43.436829571659764" lon="11.296857400056592"><ele>457.0</ele><time>2026-04-04T09:55:45Z</time></trkpt><trkpt lat="43.43686784631253" lon="11.296763077857422"><ele>457.0</ele><time>2026-04-04T09:55:46Z</time></trkpt><trkpt lat="43.436870243819904" lon="11.296657667382055"><ele>457.00000000000006</ele><time>2026-04-04T09:55:47Z</time></trkpt><trkpt lat="43.436846100587715" lon="11.296548059528272"><ele>457.0</ele><time>2026-04-04T09:55:48Z</time></trkpt><trkpt lat="43.43680426234618" lon="11.296410896920829"><ele>457.0</ele><time>2026-04-04T09:55:49Z</time></trkpt><trkpt lat="43.43674616758064" lon="11.296255229024606"><ele>457.0</ele><time>2026-04-04T09:55:50Z</time></trkpt><trkpt lat="43.43669234798451" lon="11.29610094802304"><ele>457.0</ele><time>2026-04-04T09:55:51Z</time></trkpt><trkpt lat="43.436644325251464" lon="11.295942241390424"><ele>457.0</ele><time>2026-04-04T09:55:52Z</time></trkpt><trkpt lat="43.4366016889378" lon="11.29578796862254"><ele>457.0</ele><time>2026-04-04T09:55:53Z</time></trkpt><trkpt lat="43.436549789320615" lon="11.295627398283717"><ele>457.0</ele><time>2026-04-04T09:55:54Z</time></trkpt><trkpt lat="43.43651830493069" lon="11.295467288383257"><ele>457.0</ele><time>2026-04-04T09:55:55Z</time></trkpt><trkpt lat="43.4364727272409" lon="11.29531235095773"><ele>457.0</ele><time>2026-04-04T09:55:56Z</time></trkpt><trkpt lat="43.43643892690663" lon="11.295149699520481"><ele>458.0</ele><time>2026-04-04T09:55:57Z</time></trkpt><trkpt lat="43.4363704675296" lon="11.295032904428526"><ele>459.00000000000006</ele><time>2026-04-04T09:55:58Z</time></trkpt><trkpt lat="43.436326106831075" lon="11.29491671948956"><ele>460.00000000000006</ele><time>2026-04-04T09:55:59Z</time></trkpt><trkpt lat="43.43625324570367" lon="11.29481588320548"><ele>461.0</ele><time>2026-04-04T09:56:00Z</time></trkpt><trkpt lat="43.43616489484098" lon="11.294704713480913"><ele>462.0</ele><time>2026-04-04T09:56:01Z</time></trkpt><trkpt lat="43.436083380569755" lon="11.294596321523121"><ele>459.6</ele><time>2026-04-04T09:56:02Z</time></trkpt><trkpt lat="43.43600701123773" lon="11.294491499237429"><ele>457.20000000000005</ele><time>2026-04-04T09:56:03Z</time></trkpt><trkpt lat="43.435930065384504" lon="11.294380427649198"><ele>454.8</ele><time>2026-04-04T09:56:04Z</time></trkpt><trkpt lat="43.43586671583494" lon="11.294264328180713"><ele>452.4</ele><time>2026-04-04T09:56:05Z</time></trkpt><trkpt lat="43.43580293283399" lon="11.294134866427198"><ele>450.0</ele><time>2026-04-04T09:56:06Z</time></trkpt><trkpt lat="43.43573851529713" lon="11.294016884320788"><ele>450.0</ele><time>2026-04-04T09:56:07Z</time></trkpt><trkpt lat="43.43564080782632" lon="11.293926194203166"><ele>450.0</ele><time>2026-04-04T09:56:08Z</time></trkpt><trkpt lat="43.43553469452916" lon="11.293834836144999"><ele>450.0</ele><time>2026-04-04T09:56:09Z</time></trkpt><trkpt lat="43.435443931687615" lon="11.293725667893169"><ele>450.0</ele><time>2026-04-04T09:56:10Z</time></trkpt><trkpt lat="43.435344523545574" lon="11.293639507631289"><ele>448.6</ele><time>2026-04-04T09:56:11Z</time></trkpt><trkpt lat="43.43525779301843" lon="11.293557809624499"><ele>447.2</ele><time>2026-04-04T09:56:12Z</time></trkpt><trkpt lat="43.43518914062098" lon="11.293462298135736"><ele>445.79999999999995</ele><time>2026-04-04T09:56:13Z</time></trkpt><trkpt lat="43.4351273490903" lon="11.293336768557156"><ele>444.4</ele><time>2026-04-04T09:56:14Z</time></trkpt><trkpt lat="43.43507358675276" lon="11.293202907758682"><ele>443.0</ele><time>2026-04-04T09:56:15Z</time></trkpt><trkpt lat="43.43501793441358" lon="11.29304914613078"><ele>443.0</ele><time>2026-04-04T09:56:16Z</time></trkpt><trkpt lat="43.43497084283297" lon="11.292899239110776"><ele>442.99999999999994</ele><time>2026-04-04T09:56:17Z</time></trkpt><trkpt lat="43.43493483405673" lon="11.292762114747571"><ele>442.99999999999994</ele><time>2026-04-04T09:56:18Z</time></trkpt><trkpt lat="43.43490504845301" lon="11.292620612312096"><ele>443.0</ele><time>2026-04-04T09:56:19Z</time></trkpt><trkpt lat="43.43488811419123" lon="11.292470842407978"><ele>443.0</ele><time>2026-04-04T09:56:20Z</time></trkpt><trkpt lat="43.43487909938845" lon="11.29231781948365"><ele>442.4</ele><time>2026-04-04T09:56:21Z</time></trkpt><trkpt lat="43.43485596195759" lon="11.292171870103228"><ele>441.79999999999995</ele><time>2026-04-04T09:56:22Z</time></trkpt><trkpt lat="43.4348435145584" lon="11.292035939306695"><ele>441.2</ele><time>2026-04-04T09:56:23Z</time></trkpt><trkpt lat="43.43483989715051" lon="11.291902745166121"><ele>440.6</ele><time>2026-04-04T09:56:24Z</time></trkpt><trkpt lat="43.4348143176286" lon="11.291772099780973"><ele>440.0</ele><time>2026-04-04T09:56:25Z</time></trkpt><trkpt lat="43.434764694344956" lon="11.291652077319746"><ele>440.0</ele><time>2026-04-04T09:56:26Z</time></trkpt><trkpt lat="43.43469979535298" lon="11.291528677632293"><ele>440.0</ele><time>2026-04-04T09:56:27Z</time></trkpt><trkpt lat="43.43460833386824" lon="11.291394674382518"><ele>440.0</ele><time>2026-04-04T09:56:28Z</time></trkpt><trkpt lat="43.43452662783077" lon="11.291271222745724"><ele>440.0</ele><time>2026-04-04T09:56:29Z</time></trkpt><trkpt lat="43.43445161773009" lon="11.291148772437428"><ele>437.8</ele><time>2026-04-04T09:56:30Z</time></trkpt><trkpt lat="43.43438306738005" lon="11.291023284289551"><ele>435.6</ele><time>2026-04-04T09:56:31Z</time></trkpt><trkpt lat="43.4343271331717" lon="11.29089681386579"><ele>433.4</ele><time>2026-04-04T09:56:32Z</time></trkpt><trkpt lat="43.43428346519735" lon="11.290767407250724"><ele>431.2</ele><time>2026-04-04T09:56:33Z</time></trkpt><trkpt lat="43.43424759856545" lon="11.290631925004238"><ele>429.0</ele><time>2026-04-04T09:56:34Z</time></trkpt><trkpt lat="43.43423157959135" lon="11.290484307583643"><ele>428.25</ele><time>2026-04-04T09:56:35Z</time></trkpt><trkpt lat="43.43421886066582" lon="11.290322754933044"><ele>427.5</ele><time>2026-04-04T09:56:36Z</time></trkpt><trkpt lat="43.43421058180941" lon="11.290144082725543"><ele>426.75</ele><time>2026-04-04T09:56:37Z</time></trkpt><trkpt lat="43.434203716631124" lon="11.28998579224257"><ele>426.0</ele><time>2026-04-04T09:56:38Z</time></trkpt><trkpt lat="43.43419086725021" lon="11.289833856411896"><ele>426.25</ele><time>2026-04-04T09:56:39Z</time></trkpt><trkpt lat="43.434138942549446" lon="11.28970425767819"><ele>426.5</ele><time>2026-04-04T09:56:40Z</time></trkpt><trkpt lat="43.434084669955105" lon="11.289567068988722"><ele>426.75</ele><time>2026-04-04T09:56:41Z</time></trkpt><trkpt lat="43.4339833354594" lon="11.289456526184166"><ele>427.0</ele><time>2026-04-04T09:56:42Z</time></trkpt><trkpt lat="43.43389027535647" lon="11.289344006471762"><ele>427.0</ele><time>2026-04-04T09:56:43Z</time></trkpt><trkpt lat="43.43379968104953" lon="11.289229963589658"><ele>427.0</ele><time>2026-04-04T09:56:44Z</time></trkpt><trkpt lat="43.433702770533124" lon="11.289121959679603"><ele>427.0</ele><time>2026-04-04T09:56:45Z</time></trkpt><trkpt lat="43.433579912327055" lon="11.289027353632449"><ele>427.0</ele><time>2026-04-04T09:56:46Z</time></trkpt><trkpt lat="43.433475722596874" lon="11.288941145351782"><ele>427.6</ele><time>2026-04-04T09:56:47Z</time></trkpt><trkpt lat="43.43338891957182" lon="11.28885349033821"><ele>428.20000000000005</ele><time>2026-04-04T09:56:48Z</time></trkpt><trkpt lat="43.433298429067754" lon="11.288761595201297"><ele>428.8</ele><time>2026-04-04T09:56:49Z</time></trkpt><trkpt lat="43.43321602497773" lon="11.28869310702653"><ele>429.4</ele><time>2026-04-04T09:56:50Z</time></trkpt><trkpt lat="43.433130781894754" lon="11.288625389028292"><ele>430.0</ele><time>2026-04-04T09:56:51Z</time></trkpt><trkpt lat="43.433042997753475" lon="11.288559036727666"><ele>427.2</ele><time>2026-04-04T09:56:52Z</time></trkpt><trkpt lat="43.432957272847034" lon="11.288498736877349"><ele>424.4</ele><time>2026-04-04T09:56:53Z</time></trkpt><trkpt lat="43.432868053052786" lon="11.288442016693113"><ele>421.6</ele><time>2026-04-04T09:56:54Z</time></trkpt><trkpt lat="43.43277330444121" lon="11.288388266952131"><ele>418.8</ele><time>2026-04-04T09:56:55Z</time></trkpt><trkpt lat="43.43268915021663" lon="11.288355840471487"><ele>416.0</ele><time>2026-04-04T09:56:56Z</time></trkpt><trkpt lat="43.43260587922268" lon="11.288313051983458"><ele>416.0</ele><time>2026-04-04T09:56:57Z</time></trkpt><trkpt lat="43.432523998261594" lon="11.288256972950412"><ele>416.0</ele><time>2026-04-04T09:56:58Z</time></trkpt><trkpt lat="43.43243575938722" lon="11.288212872009577"><ele>416.0</ele><time>2026-04-04T09:56:59Z</time></trkpt><trkpt lat="43.43232898324572" lon="11.288207514648978"><ele>416.0</ele><time>2026-04-04T09:57:00Z</time></trkpt><trkpt lat="43.432241497187796" lon="11.288241057342768"><ele>416.0</ele><time>2026-04-04T09:57:01Z</time></trkpt><trkpt lat="43.432156905117075" lon="11.288269976166115"><ele>413.20000000000005</ele><time>2026-04-04T09:57:02Z</time></trkpt><trkpt lat="43.432086274963545" lon="11.288332709092037"><ele>410.40000000000003</ele><time>2026-04-04T09:57:03Z</time></trkpt><trkpt lat="43.43200392201841" lon="11.288372017467186"><ele>407.6</ele><time>2026-04-04T09:57:04Z</time></trkpt><trkpt lat="43.431900343862246" lon="11.28835578824994"><ele>404.8</ele><time>2026-04-04T09:57:06Z</time></trkpt><trkpt lat="43.43187364342151" lon="11.288238569729016"><ele>402.0</ele><time>2026-04-04T09:57:08Z</time></trkpt><trkpt lat="43.43190338562235" lon="11.288070453577367"><ele>401.0</ele><time>2026-04-04T09:57:10Z</time></trkpt><trkpt lat="43.43195918257676" lon="11.287949036035323"><ele>400.0</ele><time>2026-04-04T09:57:11Z</time></trkpt><trkpt lat="43.432021490650115" lon="11.287836272347405"><ele>399.0</ele><time>2026-04-04T09:57:12Z</time></trkpt><trkpt lat="43.43206854646667" lon="11.287744526545133"><ele>398.0</ele><time>2026-04-04T09:57:13Z</time></trkpt><trkpt lat="43.43210930424561" lon="11.287628989072594"><ele>397.0</ele><time>2026-04-04T09:57:14Z</time></trkpt><trkpt lat="43.43212465780387" lon="11.2875010579021"><ele>397.0</ele><time>2026-04-04T09:57:15Z</time></trkpt><trkpt lat="43.43212778125103" lon="11.287362857972276"><ele>397.0</ele><time>2026-04-04T09:57:16Z</time></trkpt><trkpt lat="43.43213337571824" lon="11.287235097287578"><ele>397.0</ele><time>2026-04-04T09:57:17Z</time></trkpt><trkpt lat="43.432111611320664" lon="11.287098864395164"><ele>397.0</ele><time>2026-04-04T09:57:18Z</time></trkpt><trkpt lat="43.43205781348201" lon="11.286967240424037"><ele>397.0</ele><time>2026-04-04T09:57:19Z</time></trkpt><trkpt lat="43.43197122745516" lon="11.286852042433333"><ele>396.0</ele><time>2026-04-04T09:57:20Z</time></trkpt><trkpt lat="43.43190556587815" lon="11.286704221624424"><ele>395.0</ele><time>2026-04-04T09:57:21Z</time></trkpt><trkpt lat="43.43183078048081" lon="11.286584591027202"><ele>394.0</ele><time>2026-04-04T09:57:22Z</time></trkpt><trkpt lat="43.431763139999084" lon="11.286468117967944"><ele>393.0</ele><time>2026-04-04T09:57:23Z</time></trkpt><trkpt lat="43.431704820967965" lon="11.286350268271118"><ele>391.79999999999995</ele><time>2026-04-04T09:57:24Z</time></trkpt><trkpt lat="43.43165099189361" lon="11.286238549712806"><ele>390.6</ele><time>2026-04-04T09:57:25Z</time></trkpt><trkpt lat="43.43158528097498" lon="11.286133145499905"><ele>389.4</ele><time>2026-04-04T09:57:26Z</time></trkpt><trkpt lat="43.431511898959876" lon="11.286036523559925"><ele>388.20000000000005</ele><time>2026-04-04T09:57:27Z</time></trkpt><trkpt lat="43.4314328429949" lon="11.285943483158555"><ele>387.0</ele><time>2026-04-04T09:57:28Z</time></trkpt><trkpt lat="43.43137229891896" lon="11.285876084270123"><ele>387.0</ele><time>2026-04-04T09:57:29Z</time></trkpt><trkpt lat="43.43131910075869" lon="11.285816862923829"><ele>387.0</ele><time>2026-04-04T09:57:30Z</time></trkpt><trkpt lat="43.43123078681666" lon="11.285756757494692"><ele>387.0</ele><time>2026-04-04T09:57:32Z</time></trkpt><trkpt lat="43.431198866286" lon="11.285679410772044"><ele>387.0</ele><time>2026-04-04T09:57:34Z</time></trkpt><trkpt lat="43.43117581617049" lon="11.285570870477864"><ele>387.0</ele><time>2026-04-04T09:57:36Z</time></trkpt><trkpt lat="43.431190627692985" lon="11.285478985427554"><ele>387.0</ele><time>2026-04-04T09:57:37Z</time></trkpt><trkpt lat="43.43106747362065" lon="11.285308102312591"><ele>385.20000000000005</ele><time>2026-04-04T09:57:39Z</time></trkpt><trkpt lat="43.431003019446116" lon="11.28521232844489"><ele>383.4</ele><time>2026-04-04T09:57:40Z</time></trkpt><trkpt lat="43.43094268136463" lon="11.285116637276188"><ele>381.6</ele><time>2026-04-04T09:57:41Z</time></trkpt><trkpt lat="43.430887218164536" lon="11.285013314078205"><ele>379.79999999999995</ele><time>2026-04-04T09:57:42Z</time></trkpt><trkpt lat="43.430835444634646" lon="11.284900387444535"><ele>378.0</ele><time>2026-04-04T09:57:43Z</time></trkpt><trkpt lat="43.43079154475771" lon="11.284790436470772"><ele>376.4</ele><time>2026-04-04T09:57:44Z</time></trkpt><trkpt lat="43.430752629433364" lon="11.284665505280765"><ele>374.79999999999995</ele><time>2026-04-04T09:57:45Z</time></trkpt><trkpt lat="43.43073021692453" lon="11.28453451837842"><ele>373.2</ele><time>2026-04-04T09:57:46Z</time></trkpt><trkpt lat="43.43072864443217" lon="11.284410889371893"><ele>371.6</ele><time>2026-04-04T09:57:47Z</time></trkpt><trkpt lat="43.43073132723305" lon="11.284267172522874"><ele>370.0</ele><time>2026-04-04T09:57:48Z</time></trkpt><trkpt lat="43.430743879598914" lon="11.284110411992996"><ele>370.0</ele><time>2026-04-04T09:57:49Z</time></trkpt><trkpt lat="43.43075714928225" lon="11.283970452270788"><ele>370.0</ele><time>2026-04-04T09:57:50Z</time></trkpt><trkpt lat="43.430774832018976" lon="11.283847806624202"><ele>370.0</ele><time>2026-04-04T09:57:51Z</time></trkpt><trkpt lat="43.43078562915533" lon="11.283715458000247"><ele>370.0</ele><time>2026-04-04T09:57:52Z</time></trkpt><trkpt lat="43.43075831651141" lon="11.283574293314956"><ele>370.0</ele><time>2026-04-04T09:57:53Z</time></trkpt><trkpt lat="43.43066827968864" lon="11.283431518737775"><ele>368.6</ele><time>2026-04-04T09:57:54Z</time></trkpt><trkpt lat="43.4306449803395" lon="11.283280005364464"><ele>367.2</ele><time>2026-04-04T09:57:55Z</time></trkpt><trkpt lat="43.430604358567656" lon="11.283132930594936"><ele>365.79999999999995</ele><time>2026-04-04T09:57:56Z</time></trkpt><trkpt lat="43.43055214387725" lon="11.283016754388951"><ele>364.4</ele><time>2026-04-04T09:57:57Z</time></trkpt><trkpt lat="43.430451121426024" lon="11.282960015671776"><ele>363.0</ele><time>2026-04-04T09:57:58Z</time></trkpt><trkpt lat="43.43039564633306" lon="11.282875121181561"><ele>362.59999999999997</ele><time>2026-04-04T09:57:59Z</time></trkpt><trkpt lat="43.430345017737665" lon="11.282790916570562"><ele>362.2</ele><time>2026-04-04T09:58:00Z</time></trkpt><trkpt lat="43.43030340164186" lon="11.282701856867035"><ele>361.8</ele><time>2026-04-04T09:58:01Z</time></trkpt><trkpt lat="43.43026670601049" lon="11.282596073713277"><ele>361.4</ele><time>2026-04-04T09:58:02Z</time></trkpt><trkpt lat="43.43022492679158" lon="11.282443780299664"><ele>361.0</ele><time>2026-04-04T09:58:03Z</time></trkpt><trkpt lat="43.430181549780706" lon="11.28228023480791"><ele>360.20000000000005</ele><time>2026-04-04T09:58:04Z</time></trkpt><trkpt lat="43.430132383073506" lon="11.282150972983361"><ele>359.40000000000003</ele><time>2026-04-04T09:58:05Z</time></trkpt><trkpt lat="43.43007577520807" lon="11.282030063806918"><ele>358.6</ele><time>2026-04-04T09:58:06Z</time></trkpt><trkpt lat="43.4299906199935" lon="11.281929969715637"><ele>357.8</ele><time>2026-04-04T09:58:07Z</time></trkpt><trkpt lat="43.42987048058646" lon="11.28190141596501"><ele>357.0</ele><time>2026-04-04T09:58:08Z</time></trkpt><trkpt lat="43.42977638407358" lon="11.281833156746876"><ele>357.0</ele><time>2026-04-04T09:58:09Z</time></trkpt><trkpt lat="43.429688741785846" lon="11.281764396858389"><ele>357.0</ele><time>2026-04-04T09:58:10Z</time></trkpt><trkpt lat="43.429599522823175" lon="11.28177093697575"><ele>357.0</ele><time>2026-04-04T09:58:11Z</time></trkpt><trkpt lat="43.42953828041774" lon="11.281678348390013"><ele>357.0</ele><time>2026-04-04T09:58:12Z</time></trkpt><trkpt lat="43.42946060003739" lon="11.281516258361453"><ele>357.0</ele><time>2026-04-04T09:58:13Z</time></trkpt><trkpt lat="43.42940010830405" lon="11.281378143986814"><ele>355.40000000000003</ele><time>2026-04-04T09:58:14Z</time></trkpt><trkpt lat="43.42936777858734" lon="11.281247473978476"><ele>353.8</ele><time>2026-04-04T09:58:15Z</time></trkpt><trkpt lat="43.42929648405004" lon="11.281169345486"><ele>352.2</ele><time>2026-04-04T09:58:16Z</time></trkpt><trkpt lat="43.429210757609916" lon="11.281118690745974"><ele>350.6</ele><time>2026-04-04T09:58:17Z</time></trkpt><trkpt lat="43.42909738825452" lon="11.281119101770718"><ele>349.0</ele><time>2026-04-04T09:58:18Z</time></trkpt><trkpt lat="43.4289676820087" lon="11.281206123081937"><ele>349.0</ele><time>2026-04-04T09:58:19Z</time></trkpt><trkpt lat="43.42882034130744" lon="11.281212394652798"><ele>349.0</ele><time>2026-04-04T09:58:20Z</time></trkpt><trkpt lat="43.42865988100848" lon="11.281208807673265"><ele>349.0</ele><time>2026-04-04T09:58:21Z</time></trkpt><trkpt lat="43.42850513206122" lon="11.281210837374621"><ele>349.4</ele><time>2026-04-04T09:58:22Z</time></trkpt><trkpt lat="43.42837877567848" lon="11.281215509514485"><ele>349.79999999999995</ele><time>2026-04-04T09:58:23Z</time></trkpt><trkpt lat="43.428271035842386" lon="11.281221201117665"><ele>350.20000000000005</ele><time>2026-04-04T09:58:24Z</time></trkpt><trkpt lat="43.42817207118563" lon="11.28122896524843"><ele>350.6</ele><time>2026-04-04T09:58:25Z</time></trkpt><trkpt lat="43.428073325317236" lon="11.28123545360667"><ele>351.0</ele><time>2026-04-04T09:58:26Z</time></trkpt><trkpt lat="43.42797358277054" lon="11.28123389970775"><ele>351.25</ele><time>2026-04-04T09:58:27Z</time></trkpt><trkpt lat="43.427867932090464" lon="11.281228152384276"><ele>351.5</ele><time>2026-04-04T09:58:28Z</time></trkpt><trkpt lat="43.42776005969787" lon="11.281219827565394"><ele>351.75</ele><time>2026-04-04T09:58:29Z</time></trkpt><trkpt lat="43.42764579196665" lon="11.28121100920188"><ele>352.0</ele><time>2026-04-04T09:58:30Z</time></trkpt><trkpt lat="43.427519948627456" lon="11.281201297512668"><ele>352.0</ele><time>2026-04-04T09:58:31Z</time></trkpt><trkpt lat="43.427375129616905" lon="11.281190163740812"><ele>352.0</ele><time>2026-04-04T09:58:32Z</time></trkpt><trkpt lat="43.427226386267215" lon="11.28118224456095"><ele>352.0</ele><time>2026-04-04T09:58:33Z</time></trkpt><trkpt lat="43.42709567976954" lon="11.281176728474858"><ele>352.0</ele><time>2026-04-04T09:58:34Z</time></trkpt><trkpt lat="43.426969862623004" lon="11.281171489142967"><ele>351.5</ele><time>2026-04-04T09:58:35Z</time></trkpt><trkpt lat="43.42684235086253" lon="11.281166179240968"><ele>351.0</ele><time>2026-04-04T09:58:36Z</time></trkpt><trkpt lat="43.42671593146738" lon="11.28116091482192"><ele>350.5</ele><time>2026-04-04T09:58:37Z</time></trkpt><trkpt lat="43.426590274089435" lon="11.28115284616063"><ele>350.0</ele><time>2026-04-04T09:58:38Z</time></trkpt><trkpt lat="43.426473723550295" lon="11.281144213807671"><ele>350.0</ele><time>2026-04-04T09:58:39Z</time></trkpt><trkpt lat="43.42637831496756" lon="11.281136694565264"><ele>350.0</ele><time>2026-04-04T09:58:40Z</time></trkpt><trkpt lat="43.42630543005027" lon="11.281130950437257"><ele>350.0</ele><time>2026-04-04T09:58:41Z</time></trkpt><trkpt lat="43.42624205604844" lon="11.281125793286463"><ele>350.0</ele><time>2026-04-04T09:58:42Z</time></trkpt><trkpt lat="43.426139699701906" lon="11.28111616966476"><ele>350.0</ele><time>2026-04-04T09:58:44Z</time></trkpt><trkpt lat="43.426056069541055" lon="11.281108306705129"><ele>350.0</ele><time>2026-04-04T09:58:46Z</time></trkpt><trkpt lat="43.42599041312418" lon="11.28110140797786"><ele>349.6666666666667</ele><time>2026-04-04T09:58:48Z</time></trkpt><trkpt lat="43.42592385793364" lon="11.281092752579426"><ele>349.33333333333337</ele><time>2026-04-04T09:58:50Z</time></trkpt><trkpt lat="43.42584634830353" lon="11.281080705154944"><ele>349.0</ele><time>2026-04-04T09:58:52Z</time></trkpt><trkpt lat="43.42576679126599" lon="11.281066532845966"><ele>348.6666666666667</ele><time>2026-04-04T09:58:54Z</time></trkpt><trkpt lat="43.42569482530042" lon="11.281055853095355"><ele>348.3333333333333</ele><time>2026-04-04T09:58:56Z</time></trkpt><trkpt lat="43.425615071813965" lon="11.281050997086426"><ele>348.0</ele><time>2026-04-04T09:58:58Z</time></trkpt><trkpt lat="43.425530891808876" lon="11.281066828635737"><ele>347.2</ele><time>2026-04-04T09:59:00Z</time></trkpt><trkpt lat="43.425434962610176" lon="11.281095537400613"><ele>346.4</ele><time>2026-04-04T09:59:02Z</time></trkpt><trkpt lat="43.425328410409925" lon="11.281129618584039"><ele>345.59999999999997</ele><time>2026-04-04T09:59:04Z</time></trkpt><trkpt lat="43.425264663346695" lon="11.281149167524271"><ele>344.79999999999995</ele><time>2026-04-04T09:59:05Z</time></trkpt><trkpt lat="43.425202691231924" lon="11.281166527919456"><ele>344.0</ele><time>2026-04-04T09:59:06Z</time></trkpt><trkpt lat="43.42507856988713" lon="11.281198590112412"><ele>344.0</ele><time>2026-04-04T09:59:08Z</time></trkpt><trkpt lat="43.42500614037621" lon="11.281218440159297"><ele>344.0</ele><time>2026-04-04T09:59:09Z</time></trkpt><trkpt lat="43.42491176226652" lon="11.281247808039879"><ele>344.0</ele><time>2026-04-04T09:59:10Z</time></trkpt><trkpt lat="43.42480944304166" lon="11.281279646989747"><ele>344.0</ele><time>2026-04-04T09:59:11Z</time></trkpt><trkpt lat="43.42471964822652" lon="11.281303921215395"><ele>344.0</ele><time>2026-04-04T09:59:12Z</time></trkpt><trkpt lat="43.42465279228704" lon="11.281316805290519"><ele>344.0</ele><time>2026-04-04T09:59:13Z</time></trkpt><trkpt lat="43.4245966522322" lon="11.281274974094956"><ele>344.0</ele><time>2026-04-04T09:59:15Z</time></trkpt><trkpt lat="43.4246351730737" lon="11.281115981066616"><ele>344.0</ele><time>2026-04-04T09:59:17Z</time></trkpt><trkpt lat="43.42469491884518" lon="11.281007554525297"><ele>344.0</ele><time>2026-04-04T09:59:18Z</time></trkpt><trkpt lat="43.42476165893626" lon="11.280904167086327"><ele>344.0</ele><time>2026-04-04T09:59:19Z</time></trkpt><trkpt lat="43.424820206784396" lon="11.280799544100747"><ele>344.0</ele><time>2026-04-04T09:59:20Z</time></trkpt><trkpt lat="43.42488420022287" lon="11.280706806054264"><ele>342.2</ele><time>2026-04-04T09:59:21Z</time></trkpt><trkpt lat="43.42494739417128" lon="11.280598645056134"><ele>340.4</ele><time>2026-04-04T09:59:22Z</time></trkpt><trkpt lat="43.42500575046457" lon="11.280480987122232"><ele>338.6</ele><time>2026-04-04T09:59:23Z</time></trkpt><trkpt lat="43.42507546696269" lon="11.28036606437445"><ele>336.8</ele><time>2026-04-04T09:59:24Z</time></trkpt><trkpt lat="43.42514450490225" lon="11.280242929706334"><ele>335.0</ele><time>2026-04-04T09:59:25Z</time></trkpt><trkpt lat="43.425213351224535" lon="11.280123536316653"><ele>335.0</ele><time>2026-04-04T09:59:26Z</time></trkpt><trkpt lat="43.42528254524374" lon="11.28001110183766"><ele>335.0</ele><time>2026-04-04T09:59:27Z</time></trkpt><trkpt lat="43.425346315268854" lon="11.279914897178077"><ele>335.0</ele><time>2026-04-04T09:59:28Z</time></trkpt><trkpt lat="43.425411597366754" lon="11.27978642941873"><ele>335.0</ele><time>2026-04-04T09:59:29Z</time></trkpt><trkpt lat="43.42547912938656" lon="11.279672383380875"><ele>335.0</ele><time>2026-04-04T09:59:30Z</time></trkpt><trkpt lat="43.425548727643495" lon="11.279551566719807"><ele>335.1666666666667</ele><time>2026-04-04T09:59:31Z</time></trkpt><trkpt lat="43.42561100738448" lon="11.279442761563214"><ele>335.33333333333337</ele><time>2026-04-04T09:59:32Z</time></trkpt><trkpt lat="43.425671170322985" lon="11.279345497127641"><ele>335.5</ele><time>2026-04-04T09:59:33Z</time></trkpt><trkpt lat="43.425718078427685" lon="11.279251776807735"><ele>335.6666666666667</ele><time>2026-04-04T09:59:34Z</time></trkpt><trkpt lat="43.425746916972166" lon="11.279159779963482"><ele>335.8333333333333</ele><time>2026-04-04T09:59:35Z</time></trkpt><trkpt lat="43.42574569319677" lon="11.2790698836275"><ele>336.0</ele><time>2026-04-04T09:59:36Z</time></trkpt><trkpt lat="43.42573239982339" lon="11.278967309051833"><ele>333.6</ele><time>2026-04-04T09:59:37Z</time></trkpt><trkpt lat="43.42564635975836" lon="11.278895069458853"><ele>331.20000000000005</ele><time>2026-04-04T09:59:38Z</time></trkpt><trkpt lat="43.42557073664732" lon="11.278778149137375"><ele>328.79999999999995</ele><time>2026-04-04T09:59:39Z</time></trkpt><trkpt lat="43.425480709310854" lon="11.278683564190366"><ele>326.4</ele><time>2026-04-04T09:59:40Z</time></trkpt><trkpt lat="43.425400634935905" lon="11.278598410471195"><ele>324.0</ele><time>2026-04-04T09:59:41Z</time></trkpt><trkpt lat="43.42532257659805" lon="11.278512217704426"><ele>323.79999999999995</ele><time>2026-04-04T09:59:42Z</time></trkpt><trkpt lat="43.42524590939689" lon="11.27842616578995"><ele>323.59999999999997</ele><time>2026-04-04T09:59:43Z</time></trkpt><trkpt lat="43.42518142489519" lon="11.278359323343373"><ele>323.4</ele><time>2026-04-04T09:59:44Z</time></trkpt><trkpt lat="43.42511439690391" lon="11.27829446111248"><ele>323.2</ele><time>2026-04-04T09:59:45Z</time></trkpt><trkpt lat="43.425044704500806" lon="11.278231713721468"><ele>323.0</ele><time>2026-04-04T09:59:46Z</time></trkpt><trkpt lat="43.424863974585236" lon="11.278139215176267"><ele>323.0</ele><time>2026-04-04T09:59:48Z</time></trkpt><trkpt lat="43.42473981832952" lon="11.27815503994007"><ele>323.0</ele><time>2026-04-04T09:59:49Z</time></trkpt><trkpt lat="43.4246191269221" lon="11.278124733549472"><ele>323.0</ele><time>2026-04-04T09:59:50Z</time></trkpt><trkpt lat="43.424499664528156" lon="11.278116577262645"><ele>323.0</ele><time>2026-04-04T09:59:51Z</time></trkpt><trkpt lat="43.42438282282524" lon="11.278108785650815"><ele>318.75</ele><time>2026-04-04T09:59:52Z</time></trkpt><trkpt lat="43.42426110163235" lon="11.278100668647006"><ele>314.5</ele><time>2026-04-04T09:59:53Z</time></trkpt><trkpt lat="43.424122282343944" lon="11.278093679258603"><ele>310.25</ele><time>2026-04-04T09:59:54Z</time></trkpt><trkpt lat="43.423988057535524" lon="11.27809285518201"><ele>306.0</ele><time>2026-04-04T09:59:55Z</time></trkpt><trkpt lat="43.423853209673844" lon="11.27810021054757"><ele>305.5</ele><time>2026-04-04T09:59:56Z</time></trkpt><trkpt lat="43.42371706571283" lon="11.278132247578275"><ele>305.0</ele><time>2026-04-04T09:59:57Z</time></trkpt><trkpt lat="43.42359248583052" lon="11.278156264112573"><ele>304.5</ele><time>2026-04-04T09:59:58Z</time></trkpt><trkpt lat="43.42346787857166" lon="11.27816684202512"><ele>304.0</ele><time>2026-04-04T09:59:59Z</time></trkpt><trkpt lat="43.4233407160918" lon="11.278158976607326"><ele>304.0</ele><time>2026-04-04T10:00:00Z</time></trkpt><trkpt lat="43.423203248673225" lon="11.278166639817378"><ele>304.0</ele><time>2026-04-04T10:00:01Z</time></trkpt><trkpt lat="43.42308497845252" lon="11.278181266628053"><ele>304.0</ele><time>2026-04-04T10:00:02Z</time></trkpt><trkpt lat="43.422954114151224" lon="11.278201477961717"><ele>304.0</ele><time>2026-04-04T10:00:03Z</time></trkpt><trkpt lat="43.422820230352436" lon="11.27824067426513"><ele>302.0</ele><time>2026-04-04T10:00:04Z</time></trkpt><trkpt lat="43.422693366755986" lon="11.27826997667952"><ele>300.0</ele><time>2026-04-04T10:00:05Z</time></trkpt><trkpt lat="43.42257213787095" lon="11.278273142510388"><ele>298.0</ele><time>2026-04-04T10:00:06Z</time></trkpt><trkpt lat="43.42245269953704" lon="11.278273452205125"><ele>296.0</ele><time>2026-04-04T10:00:07Z</time></trkpt><trkpt lat="43.42233733968282" lon="11.278275019749204"><ele>296.0</ele><time>2026-04-04T10:00:08Z</time></trkpt><trkpt lat="43.42222150513301" lon="11.278273917777549"><ele>296.0</ele><time>2026-04-04T10:00:09Z</time></trkpt><trkpt lat="43.42212239680739" lon="11.278260559305672"><ele>296.0</ele><time>2026-04-04T10:00:10Z</time></trkpt><trkpt lat="43.42203188940709" lon="11.278210776983222"><ele>296.0</ele><time>2026-04-04T10:00:11Z</time></trkpt><trkpt lat="43.42196011749467" lon="11.27813516469591"><ele>296.0</ele><time>2026-04-04T10:00:12Z</time></trkpt><trkpt lat="43.42189007263982" lon="11.278055863954833"><ele>295.40000000000003</ele><time>2026-04-04T10:00:13Z</time></trkpt><trkpt lat="43.4218196258717" lon="11.277976827901712"><ele>294.8</ele><time>2026-04-04T10:00:14Z</time></trkpt><trkpt lat="43.421756482052515" lon="11.277906709751155"><ele>294.20000000000005</ele><time>2026-04-04T10:00:15Z</time></trkpt><trkpt lat="43.421700193381994" lon="11.27783420316216"><ele>293.6</ele><time>2026-04-04T10:00:16Z</time></trkpt><trkpt lat="43.4216431225092" lon="11.27772705646792"><ele>293.0</ele><time>2026-04-04T10:00:17.999Z</time></trkpt><trkpt lat="43.42153547823938" lon="11.277714209453356"><ele>293.0</ele><time>2026-04-04T10:00:18.999Z</time></trkpt><trkpt lat="43.42146041078823" lon="11.2777903677928"><ele>293.0</ele><time>2026-04-04T10:00:19.999Z</time></trkpt><trkpt lat="43.42139367262125" lon="11.277858478524887"><ele>293.0</ele><time>2026-04-04T10:00:20.999Z</time></trkpt><trkpt lat="43.421325277269084" lon="11.277964788052826"><ele>293.0</ele><time>2026-04-04T10:00:21.999Z</time></trkpt><trkpt lat="43.42125283558939" lon="11.278075536690155"><ele>293.0</ele><time>2026-04-04T10:00:22.999Z</time></trkpt><trkpt lat="43.4211747613572" lon="11.278175106453654"><ele>293.2</ele><time>2026-04-04T10:00:23.999Z</time></trkpt><trkpt lat="43.421082738329645" lon="11.278254348195844"><ele>293.4</ele><time>2026-04-04T10:00:24.999Z</time></trkpt><trkpt lat="43.42099531515848" lon="11.278341389982762"><ele>293.59999999999997</ele><time>2026-04-04T10:00:25.999Z</time></trkpt><trkpt lat="43.42092889539551" lon="11.278465325319116"><ele>293.8</ele><time>2026-04-04T10:00:26.999Z</time></trkpt><trkpt lat="43.42085837914515" lon="11.278572677496314"><ele>294.0</ele><time>2026-04-04T10:00:27.999Z</time></trkpt><trkpt lat="43.420789232583225" lon="11.278679132211227"><ele>294.0</ele><time>2026-04-04T10:00:28.999Z</time></trkpt><trkpt lat="43.42070453557036" lon="11.278770530164625"><ele>294.0</ele><time>2026-04-04T10:00:29.999Z</time></trkpt><trkpt lat="43.420645582584235" lon="11.278901376343757"><ele>294.0</ele><time>2026-04-04T10:00:30.999Z</time></trkpt><trkpt lat="43.42057870838537" lon="11.27900679125154"><ele>294.0</ele><time>2026-04-04T10:00:31.999Z</time></trkpt><trkpt lat="43.42052667987535" lon="11.279124011335718"><ele>294.0</ele><time>2026-04-04T10:00:32.999Z</time></trkpt><trkpt lat="43.420489347995314" lon="11.279256748689196"><ele>292.59999999999997</ele><time>2026-04-04T10:00:33.999Z</time></trkpt><trkpt lat="43.420460201645454" lon="11.279384460740634"><ele>291.2</ele><time>2026-04-04T10:00:34.999Z</time></trkpt><trkpt lat="43.42042102643296" lon="11.279501178090602"><ele>289.79999999999995</ele><time>2026-04-04T10:00:35.999Z</time></trkpt><trkpt lat="43.42034149383763" lon="11.279607767327692"><ele>288.4</ele><time>2026-04-04T10:00:36.999Z</time></trkpt><trkpt lat="43.42025170206061" lon="11.279670020416674"><ele>287.0</ele><time>2026-04-04T10:00:37.999Z</time></trkpt><trkpt lat="43.42014028270046" lon="11.2797420459282"><ele>285.75</ele><time>2026-04-04T10:00:38.999Z</time></trkpt><trkpt lat="43.42001961073386" lon="11.279813765956838"><ele>284.5</ele><time>2026-04-04T10:00:39.999Z</time></trkpt><trkpt lat="43.41990500053837" lon="11.279919563592872"><ele>283.25</ele><time>2026-04-04T10:00:40.999Z</time></trkpt><trkpt lat="43.41978419023311" lon="11.280035732100975"><ele>282.0</ele><time>2026-04-04T10:00:41.999Z</time></trkpt><trkpt lat="43.419664803716074" lon="11.280159009368232"><ele>282.5</ele><time>2026-04-04T10:00:42.999Z</time></trkpt><trkpt lat="43.4195633313163" lon="11.280269843983458"><ele>283.0</ele><time>2026-04-04T10:00:43.999Z</time></trkpt><trkpt lat="43.419471367566075" lon="11.280385036136837"><ele>283.5</ele><time>2026-04-04T10:00:44.999Z</time></trkpt><trkpt lat="43.41938236470641" lon="11.280499248808335"><ele>284.0</ele><time>2026-04-04T10:00:45.999Z</time></trkpt><trkpt lat="43.419290548455436" lon="11.280591330824569"><ele>282.2</ele><time>2026-04-04T10:00:46.999Z</time></trkpt><trkpt lat="43.41920472922899" lon="11.280685783064824"><ele>280.4</ele><time>2026-04-04T10:00:47.999Z</time></trkpt><trkpt lat="43.419121361448646" lon="11.280786341495673"><ele>278.6</ele><time>2026-04-04T10:00:48.999Z</time></trkpt><trkpt lat="43.41904647879205" lon="11.280882090787621"><ele>276.8</ele><time>2026-04-04T10:00:49.999Z</time></trkpt><trkpt lat="43.41897532469535" lon="11.280973072125581"><ele>275.0</ele><time>2026-04-04T10:00:50.999Z</time></trkpt><trkpt lat="43.41891487548274" lon="11.28105036587998"><ele>275.0</ele><time>2026-04-04T10:00:51.999Z</time></trkpt><trkpt lat="43.418859272584264" lon="11.281121462423478"><ele>275.0</ele><time>2026-04-04T10:00:52.999Z</time></trkpt><trkpt lat="43.41880687547535" lon="11.28118846061807"><ele>275.0</ele><time>2026-04-04T10:00:53.999Z</time></trkpt><trkpt lat="43.41874756845064" lon="11.28126142312016"><ele>275.0</ele><time>2026-04-04T10:00:54.999Z</time></trkpt><trkpt lat="43.418690625789345" lon="11.281329753442153"><ele>275.0</ele><time>2026-04-04T10:00:55.999Z</time></trkpt><trkpt lat="43.41863430645528" lon="11.281385738849325"><ele>275.0</ele><time>2026-04-04T10:00:56.999Z</time></trkpt><trkpt lat="43.41857660516449" lon="11.281424825245166"><ele>275.0</ele><time>2026-04-04T10:00:57.999Z</time></trkpt><trkpt lat="43.418513407903696" lon="11.28143699326337"><ele>274.8</ele><time>2026-04-04T10:00:58.999Z</time></trkpt><trkpt lat="43.41843424810313" lon="11.281430844219624"><ele>274.6</ele><time>2026-04-04T10:00:59.999Z</time></trkpt><trkpt lat="43.418356827115446" lon="11.281396589127334"><ele>274.4</ele><time>2026-04-04T10:01:00.999Z</time></trkpt><trkpt lat="43.41825325657481" lon="11.28134641966047"><ele>274.2</ele><time>2026-04-04T10:01:01.999Z</time></trkpt><trkpt lat="43.41813935324362" lon="11.281277976367708"><ele>274.0</ele><time>2026-04-04T10:01:02.999Z</time></trkpt><trkpt lat="43.41802559285836" lon="11.281245788267787"><ele>273.0</ele><time>2026-04-04T10:01:03.999Z</time></trkpt><trkpt lat="43.417923667449394" lon="11.281268217963587"><ele>272.0</ele><time>2026-04-04T10:01:04.999Z</time></trkpt><trkpt lat="43.41781689179868" lon="11.281341283222122"><ele>271.0</ele><time>2026-04-04T10:01:05.999Z</time></trkpt><trkpt lat="43.41769281718559" lon="11.281437391888952"><ele>270.0</ele><time>2026-04-04T10:01:06.999Z</time></trkpt><trkpt lat="43.41757023193097" lon="11.281525215755298"><ele>268.5</ele><time>2026-04-04T10:01:07.999Z</time></trkpt><trkpt lat="43.41746027157039" lon="11.281606272704016"><ele>267.0</ele><time>2026-04-04T10:01:08.999Z</time></trkpt><trkpt lat="43.41733574596288" lon="11.281670104458925"><ele>265.5</ele><time>2026-04-04T10:01:09.999Z</time></trkpt><trkpt lat="43.41722538706791" lon="11.281752633879023"><ele>264.0</ele><time>2026-04-04T10:01:10.999Z</time></trkpt><trkpt lat="43.41711510571311" lon="11.281816741814517"><ele>263.5</ele><time>2026-04-04T10:01:11.999Z</time></trkpt><trkpt lat="43.41699436574551" lon="11.28185752264062"><ele>263.0</ele><time>2026-04-04T10:01:12.999Z</time></trkpt><trkpt lat="43.41686474709713" lon="11.281896546192431"><ele>262.5</ele><time>2026-04-04T10:01:13.999Z</time></trkpt><trkpt lat="43.41673580261616" lon="11.281933311070992"><ele>262.0</ele><time>2026-04-04T10:01:14.999Z</time></trkpt><trkpt lat="43.41660697192654" lon="11.281988947105875"><ele>262.0</ele><time>2026-04-04T10:01:15.999Z</time></trkpt><trkpt lat="43.41648046335993" lon="11.282028528697925"><ele>262.0</ele><time>2026-04-04T10:01:16.999Z</time></trkpt><trkpt lat="43.416370343846" lon="11.282069291864579"><ele>262.0</ele><time>2026-04-04T10:01:17.999Z</time></trkpt><trkpt lat="43.416285678620476" lon="11.28211638197907"><ele>262.0</ele><time>2026-04-04T10:01:18.999Z</time></trkpt><trkpt lat="43.41622864683949" lon="11.282196936076085"><ele>262.0</ele><time>2026-04-04T10:01:19.999Z</time></trkpt><trkpt lat="43.416194406448355" lon="11.282306552534397"><ele>261.8333333333333</ele><time>2026-04-04T10:01:20.999Z</time></trkpt><trkpt lat="43.416199038644" lon="11.282423451203691"><ele>261.66666666666663</ele><time>2026-04-04T10:01:21.999Z</time></trkpt><trkpt lat="43.416196148187794" lon="11.282540567901458"><ele>261.5</ele><time>2026-04-04T10:01:22.999Z</time></trkpt><trkpt lat="43.41614424446095" lon="11.282610451041334"><ele>261.3333333333333</ele><time>2026-04-04T10:01:23.999Z</time></trkpt><trkpt lat="43.416070238228265" lon="11.28268313238002"><ele>261.1666666666667</ele><time>2026-04-04T10:01:24.999Z</time></trkpt><trkpt lat="43.41597750151777" lon="11.282765491216063"><ele>261.0</ele><time>2026-04-04T10:01:25.999Z</time></trkpt><trkpt lat="43.415890271915615" lon="11.282872657828175"><ele>261.0</ele><time>2026-04-04T10:01:26.999Z</time></trkpt><trkpt lat="43.41580240704981" lon="11.282998714179602"><ele>261.0</ele><time>2026-04-04T10:01:27.999Z</time></trkpt><trkpt lat="43.41572863928343" lon="11.283159571138546"><ele>261.0</ele><time>2026-04-04T10:01:28.999Z</time></trkpt><trkpt lat="43.415648085222976" lon="11.28331099417164"><ele>261.0</ele><time>2026-04-04T10:01:29.999Z</time></trkpt><trkpt lat="43.41556955762962" lon="11.283460224985815"><ele>262.5</ele><time>2026-04-04T10:01:30.999Z</time></trkpt><trkpt lat="43.41548982507016" lon="11.283603413226015"><ele>264.0</ele><time>2026-04-04T10:01:31.999Z</time></trkpt><trkpt lat="43.41540790742918" lon="11.28375027774965"><ele>265.5</ele><time>2026-04-04T10:01:32.999Z</time></trkpt><trkpt lat="43.415331496087205" lon="11.28389669576034"><ele>267.0</ele><time>2026-04-04T10:01:33.999Z</time></trkpt><trkpt lat="43.415239992775014" lon="11.284042050931733"><ele>269.5</ele><time>2026-04-04T10:01:34.999Z</time></trkpt><trkpt lat="43.415179951537326" lon="11.2842075881553"><ele>272.0</ele><time>2026-04-04T10:01:35.999Z</time></trkpt><trkpt lat="43.415099969120085" lon="11.284368763687542"><ele>274.5</ele><time>2026-04-04T10:01:36.999Z</time></trkpt><trkpt lat="43.41502450342398" lon="11.28452137077223"><ele>277.0</ele><time>2026-04-04T10:01:37.999Z</time></trkpt><trkpt lat="43.414931999000174" lon="11.284626412970715"><ele>277.0</ele><time>2026-04-04T10:01:38.999Z</time></trkpt><trkpt lat="43.414876037548346" lon="11.284757707084422"><ele>277.0</ele><time>2026-04-04T10:01:39.999Z</time></trkpt><trkpt lat="43.41480032891561" lon="11.284856808787167"><ele>277.0</ele><time>2026-04-04T10:01:40.999Z</time></trkpt><trkpt lat="43.41471420434852" lon="11.28490592583424"><ele>277.0</ele><time>2026-04-04T10:01:41.999Z</time></trkpt><trkpt lat="43.41462528878349" lon="11.284970846118673"><ele>277.0</ele><time>2026-04-04T10:01:42.999Z</time></trkpt><trkpt lat="43.41452820727698" lon="11.285068912030832"><ele>277.0</ele><time>2026-04-04T10:01:43.999Z</time></trkpt><trkpt lat="43.414420860134555" lon="11.285153338114204"><ele>277.0</ele><time>2026-04-04T10:01:44.999Z</time></trkpt><trkpt lat="43.41431910568147" lon="11.285252774784997"><ele>277.0</ele><time>2026-04-04T10:01:45.999Z</time></trkpt><trkpt lat="43.41422462746044" lon="11.285363188999902"><ele>277.0</ele><time>2026-04-04T10:01:46.999Z</time></trkpt><trkpt lat="43.41413564332377" lon="11.285486815921695"><ele>278.75</ele><time>2026-04-04T10:01:47.999Z</time></trkpt><trkpt lat="43.414046730731634" lon="11.28562240779303"><ele>280.5</ele><time>2026-04-04T10:01:48.999Z</time></trkpt><trkpt lat="43.413947912829926" lon="11.285752808127656"><ele>282.25</ele><time>2026-04-04T10:01:49.999Z</time></trkpt><trkpt lat="43.41389010135695" lon="11.285900226284967"><ele>284.0</ele><time>2026-04-04T10:01:50.999Z</time></trkpt><trkpt lat="43.4138294072143" lon="11.286035192652179"><ele>281.0</ele><time>2026-04-04T10:01:51.999Z</time></trkpt><trkpt lat="43.41377431165224" lon="11.286177330922724"><ele>278.0</ele><time>2026-04-04T10:01:52.999Z</time></trkpt><trkpt lat="43.41371921998013" lon="11.286328696547727"><ele>275.0</ele><time>2026-04-04T10:01:53.999Z</time></trkpt><trkpt lat="43.41367874432634" lon="11.286488485055024"><ele>272.0</ele><time>2026-04-04T10:01:54.999Z</time></trkpt><trkpt lat="43.41363817082542" lon="11.286630641153486"><ele>272.0</ele><time>2026-04-04T10:01:55.999Z</time></trkpt><trkpt lat="43.413597697731525" lon="11.286778722251483"><ele>272.0</ele><time>2026-04-04T10:01:56.999Z</time></trkpt><trkpt lat="43.41354235270625" lon="11.286945403600294"><ele>272.0</ele><time>2026-04-04T10:01:57.999Z</time></trkpt><trkpt lat="43.41349636246385" lon="11.287093375440895"><ele>272.0</ele><time>2026-04-04T10:01:58.999Z</time></trkpt><trkpt lat="43.4134617361958" lon="11.287235099545024"><ele>272.4</ele><time>2026-04-04T10:01:59.999Z</time></trkpt><trkpt lat="43.41341684056727" lon="11.287360809327552"><ele>272.79999999999995</ele><time>2026-04-04T10:02:00.999Z</time></trkpt><trkpt lat="43.41335017882966" lon="11.287462912462928"><ele>273.2</ele><time>2026-04-04T10:02:01.999Z</time></trkpt><trkpt lat="43.413247948554066" lon="11.287495538017309"><ele>273.59999999999997</ele><time>2026-04-04T10:02:02.999Z</time></trkpt><trkpt lat="43.41313564683898" lon="11.287529042759958"><ele>274.0</ele><time>2026-04-04T10:02:03.999Z</time></trkpt><trkpt lat="43.41301092671786" lon="11.287586141357123"><ele>274.0</ele><time>2026-04-04T10:02:04.999Z</time></trkpt><trkpt lat="43.412890726413096" lon="11.287657252673377"><ele>274.0</ele><time>2026-04-04T10:02:05.999Z</time></trkpt><trkpt lat="43.41277142431274" lon="11.28769327718348"><ele>274.0</ele><time>2026-04-04T10:02:06.999Z</time></trkpt><trkpt lat="43.412649580872575" lon="11.287669793663861"><ele>274.0</ele><time>2026-04-04T10:02:07.999Z</time></trkpt><trkpt lat="43.41251512350005" lon="11.287637973186113"><ele>274.0</ele><time>2026-04-04T10:02:08.999Z</time></trkpt><trkpt lat="43.412382588283926" lon="11.287610622358939"><ele>274.0</ele><time>2026-04-04T10:02:09.999Z</time></trkpt><trkpt lat="43.41227183991537" lon="11.28759293104323"><ele>274.0</ele><time>2026-04-04T10:02:10.999Z</time></trkpt><trkpt lat="43.41216235837957" lon="11.287606366296478"><ele>274.0</ele><time>2026-04-04T10:02:11.999Z</time></trkpt><trkpt lat="43.412058642741364" lon="11.287658071234056"><ele>274.0</ele><time>2026-04-04T10:02:12.999Z</time></trkpt><trkpt lat="43.41194957910076" lon="11.28771528691048"><ele>274.0</ele><time>2026-04-04T10:02:13.999Z</time></trkpt><trkpt lat="43.411838230397926" lon="11.287789447725956"><ele>274.0</ele><time>2026-04-04T10:02:14.999Z</time></trkpt><trkpt lat="43.411726627017615" lon="11.287857377712395"><ele>274.0</ele><time>2026-04-04T10:02:15.999Z</time></trkpt><trkpt lat="43.4116118323629" lon="11.287951552410274"><ele>274.0</ele><time>2026-04-04T10:02:16.999Z</time></trkpt><trkpt lat="43.411493050014876" lon="11.28802772366659"><ele>274.0</ele><time>2026-04-04T10:02:17.999Z</time></trkpt><trkpt lat="43.41140894804539" lon="11.28815366567004"><ele>274.0</ele><time>2026-04-04T10:02:18.999Z</time></trkpt><trkpt lat="43.411320059568695" lon="11.288284350203124"><ele>274.0</ele><time>2026-04-04T10:02:19.999Z</time></trkpt><trkpt lat="43.41123590120828" lon="11.288433344111418"><ele>275.0</ele><time>2026-04-04T10:02:20.999Z</time></trkpt><trkpt lat="43.41116303767653" lon="11.288591012851683"><ele>276.0</ele><time>2026-04-04T10:02:21.999Z</time></trkpt><trkpt lat="43.411102118718986" lon="11.28876849021281"><ele>277.0</ele><time>2026-04-04T10:02:22.999Z</time></trkpt><trkpt lat="43.41105457635951" lon="11.288915984865557"><ele>278.0</ele><time>2026-04-04T10:02:23.999Z</time></trkpt><trkpt lat="43.410980291578" lon="11.289019575850757"><ele>278.8</ele><time>2026-04-04T10:02:24.999Z</time></trkpt><trkpt lat="43.41090718270279" lon="11.28910523326055"><ele>279.6</ele><time>2026-04-04T10:02:26Z</time></trkpt><trkpt lat="43.41082335575839" lon="11.289127613968027"><ele>280.4</ele><time>2026-04-04T10:02:27Z</time></trkpt><trkpt lat="43.41071886093421" lon="11.289134360423294"><ele>281.2</ele><time>2026-04-04T10:02:28Z</time></trkpt><trkpt lat="43.41060002972497" lon="11.289156850161413"><ele>282.0</ele><time>2026-04-04T10:02:29Z</time></trkpt><trkpt lat="43.41046804942975" lon="11.289183641899694"><ele>282.5</ele><time>2026-04-04T10:02:30Z</time></trkpt><trkpt lat="43.41032772890677" lon="11.289226552405008"><ele>283.0</ele><time>2026-04-04T10:02:31Z</time></trkpt><trkpt lat="43.41018630975486" lon="11.289273737148264"><ele>283.5</ele><time>2026-04-04T10:02:32Z</time></trkpt><trkpt lat="43.41007067388658" lon="11.289310946214302"><ele>284.0</ele><time>2026-04-04T10:02:33Z</time></trkpt><trkpt lat="43.40995516106576" lon="11.289349182993224"><ele>284.0</ele><time>2026-04-04T10:02:34Z</time></trkpt><trkpt lat="43.409833704360764" lon="11.289391463650949"><ele>284.0</ele><time>2026-04-04T10:02:35Z</time></trkpt><trkpt lat="43.40971955037287" lon="11.289453579724709"><ele>284.0</ele><time>2026-04-04T10:02:36Z</time></trkpt><trkpt lat="43.40960031044134" lon="11.289526711924685"><ele>284.0</ele><time>2026-04-04T10:02:37Z</time></trkpt><trkpt lat="43.40949366537219" lon="11.289588367682418"><ele>285.0</ele><time>2026-04-04T10:02:38Z</time></trkpt><trkpt lat="43.40941235328003" lon="11.289631827787357"><ele>286.0</ele><time>2026-04-04T10:02:39Z</time></trkpt><trkpt lat="43.409303886554156" lon="11.28968475952644"><ele>287.0</ele><time>2026-04-04T10:02:41Z</time></trkpt><trkpt lat="43.40922949507821" lon="11.289711251400668"><ele>288.0</ele><time>2026-04-04T10:02:43Z</time></trkpt><trkpt lat="43.40914235533507" lon="11.289738833784467"><ele>289.0</ele><time>2026-04-04T10:02:51Z</time></trkpt><trkpt lat="43.40900094756269" lon="11.289786717956403"><ele>289.66666666666663</ele><time>2026-04-04T10:02:53Z</time></trkpt><trkpt lat="43.408909708615276" lon="11.28983365232348"><ele>290.3333333333333</ele><time>2026-04-04T10:02:54Z</time></trkpt><trkpt lat="43.40882844605541" lon="11.28989134685841"><ele>291.0</ele><time>2026-04-04T10:02:55Z</time></trkpt><trkpt lat="43.40875450183093" lon="11.289964634780777"><ele>291.6666666666667</ele><time>2026-04-04T10:02:56Z</time></trkpt><trkpt lat="43.408696413381236" lon="11.29003658070438"><ele>292.33333333333337</ele><time>2026-04-04T10:02:57Z</time></trkpt><trkpt lat="43.40866114666296" lon="11.290128394384071"><ele>293.0</ele><time>2026-04-04T10:02:58Z</time></trkpt><trkpt lat="43.40859816311026" lon="11.290153596818184"><ele>293.1666666666667</ele><time>2026-04-04T10:02:59Z</time></trkpt><trkpt lat="43.40854609183252" lon="11.290203013788247"><ele>293.33333333333337</ele><time>2026-04-04T10:03:00Z</time></trkpt><trkpt lat="43.4084719610884" lon="11.29023738338459"><ele>293.5</ele><time>2026-04-04T10:03:02Z</time></trkpt><trkpt lat="43.408403978523985" lon="11.290284608249872"><ele>293.6666666666667</ele><time>2026-04-04T10:03:04Z</time></trkpt><trkpt lat="43.40832081381873" lon="11.290312973880145"><ele>293.8333333333333</ele><time>2026-04-04T10:03:06Z</time></trkpt><trkpt lat="43.40820714805301" lon="11.290277742069952"><ele>294.0</ele><time>2026-04-04T10:03:08Z</time></trkpt><trkpt lat="43.40813086623563" lon="11.290288115841387"><ele>294.0</ele><time>2026-04-04T10:03:09Z</time></trkpt><trkpt lat="43.40803659532957" lon="11.290334561696069"><ele>294.0</ele><time>2026-04-04T10:03:10Z</time></trkpt><trkpt lat="43.40793303240667" lon="11.290421633200511"><ele>294.0</ele><time>2026-04-04T10:03:11Z</time></trkpt><trkpt lat="43.40782473197047" lon="11.290508060736412"><ele>294.0</ele><time>2026-04-04T10:03:12Z</time></trkpt><trkpt lat="43.407723569807395" lon="11.290592623050756"><ele>293.25</ele><time>2026-04-04T10:03:13Z</time></trkpt><trkpt lat="43.4076308913875" lon="11.290670637747864"><ele>292.5</ele><time>2026-04-04T10:03:14Z</time></trkpt><trkpt lat="43.40753469679196" lon="11.290751612253025"><ele>291.75</ele><time>2026-04-04T10:03:15Z</time></trkpt><trkpt lat="43.40742700912355" lon="11.290840403081312"><ele>291.0</ele><time>2026-04-04T10:03:16Z</time></trkpt><trkpt lat="43.40731366324863" lon="11.290933120656947"><ele>291.0</ele><time>2026-04-04T10:03:17Z</time></trkpt><trkpt lat="43.4072017258932" lon="11.291024686065644"><ele>291.0</ele><time>2026-04-04T10:03:18Z</time></trkpt><trkpt lat="43.40708842572842" lon="11.29111736623716"><ele>291.0</ele><time>2026-04-04T10:03:19Z</time></trkpt><trkpt lat="43.40695711512464" lon="11.291227758360732"><ele>291.0</ele><time>2026-04-04T10:03:20Z</time></trkpt><trkpt lat="43.406827103659396" lon="11.291332906435931"><ele>290.0</ele><time>2026-04-04T10:03:21Z</time></trkpt><trkpt lat="43.406706936930036" lon="11.291429569226871"><ele>289.0</ele><time>2026-04-04T10:03:21.999Z</time></trkpt><trkpt lat="43.4065888856794" lon="11.291528801597558"><ele>288.0</ele><time>2026-04-04T10:03:22.999Z</time></trkpt><trkpt lat="43.40647563649049" lon="11.291646493473241"><ele>287.0</ele><time>2026-04-04T10:03:23.999Z</time></trkpt><trkpt lat="43.406368620583414" lon="11.291770701448806"><ele>286.25</ele><time>2026-04-04T10:03:24.999Z</time></trkpt><trkpt lat="43.40626529118876" lon="11.291907755108914"><ele>285.5</ele><time>2026-04-04T10:03:25.999Z</time></trkpt><trkpt lat="43.406183197084324" lon="11.292073401891601"><ele>284.75</ele><time>2026-04-04T10:03:26.999Z</time></trkpt><trkpt lat="43.40610053480241" lon="11.292230324343016"><ele>284.0</ele><time>2026-04-04T10:03:27.999Z</time></trkpt><trkpt lat="43.405998714220615" lon="11.292360025093299"><ele>284.0</ele><time>2026-04-04T10:03:28.999Z</time></trkpt><trkpt lat="43.40589903136529" lon="11.292453706318883"><ele>284.0</ele><time>2026-04-04T10:03:29.999Z</time></trkpt><trkpt lat="43.405776287551454" lon="11.29253381132595"><ele>284.0</ele><time>2026-04-04T10:03:30.999Z</time></trkpt><trkpt lat="43.405627158792264" lon="11.292614237830882"><ele>284.0</ele><time>2026-04-04T10:03:31.999Z</time></trkpt><trkpt lat="43.4054642566101" lon="11.292701419326159"><ele>285.33333333333337</ele><time>2026-04-04T10:03:32.999Z</time></trkpt><trkpt lat="43.40530945973845" lon="11.292786591399217"><ele>286.6666666666667</ele><time>2026-04-04T10:03:33.999Z</time></trkpt><trkpt lat="43.405140753212315" lon="11.292888077530083"><ele>288.0</ele><time>2026-04-04T10:03:34.999Z</time></trkpt><trkpt lat="43.40497374072393" lon="11.293003513945251"><ele>287.0</ele><time>2026-04-04T10:03:35.999Z</time></trkpt><trkpt lat="43.40482076883912" lon="11.293114543852944"><ele>286.0</ele><time>2026-04-04T10:03:36.999Z</time></trkpt><trkpt lat="43.404692188225866" lon="11.293265843922663"><ele>285.0</ele><time>2026-04-04T10:03:37.999Z</time></trkpt><trkpt lat="43.404546938225074" lon="11.293389928897556"><ele>285.0</ele><time>2026-04-04T10:03:38.999Z</time></trkpt><trkpt lat="43.40440799429425" lon="11.293531349272065"><ele>285.0</ele><time>2026-04-04T10:03:39.999Z</time></trkpt><trkpt lat="43.404264963681186" lon="11.293676929173769"><ele>285.0</ele><time>2026-04-04T10:03:40.999Z</time></trkpt><trkpt lat="43.404118520793794" lon="11.2938228304318"><ele>284.0</ele><time>2026-04-04T10:03:41.999Z</time></trkpt><trkpt lat="43.40396377263278" lon="11.293973577522289"><ele>283.0</ele><time>2026-04-04T10:03:42.999Z</time></trkpt><trkpt lat="43.40382095348906" lon="11.29412532096754"><ele>282.0</ele><time>2026-04-04T10:03:43.999Z</time></trkpt><trkpt lat="43.40369187957527" lon="11.29426613872733"><ele>282.0</ele><time>2026-04-04T10:03:44.999Z</time></trkpt><trkpt lat="43.40356348458702" lon="11.294400079388744"><ele>282.0</ele><time>2026-04-04T10:03:45.999Z</time></trkpt><trkpt lat="43.4034310603762" lon="11.294533474181293"><ele>282.0</ele><time>2026-04-04T10:03:46.999Z</time></trkpt><trkpt lat="43.40330178460644" lon="11.294667073481296"><ele>280.5</ele><time>2026-04-04T10:03:47.999Z</time></trkpt><trkpt lat="43.403045365082725" lon="11.294924430787084"><ele>279.0</ele><time>2026-04-04T10:03:49.999Z</time></trkpt><trkpt lat="43.40291537235513" lon="11.295052405735374"><ele>279.0</ele><time>2026-04-04T10:03:50.999Z</time></trkpt><trkpt lat="43.402786037654685" lon="11.295179732870656"><ele>279.0</ele><time>2026-04-04T10:03:51.999Z</time></trkpt><trkpt lat="43.402655677623436" lon="11.295306505455038"><ele>279.0</ele><time>2026-04-04T10:03:52.999Z</time></trkpt><trkpt lat="43.40251662848177" lon="11.295440255761017"><ele>279.0</ele><time>2026-04-04T10:03:53.999Z</time></trkpt><trkpt lat="43.40238692933251" lon="11.295572280983588"><ele>279.0</ele><time>2026-04-04T10:03:54.999Z</time></trkpt><trkpt lat="43.40225227099" lon="11.29571590426002"><ele>279.0</ele><time>2026-04-04T10:03:55.999Z</time></trkpt><trkpt lat="43.40212306957871" lon="11.295860946216527"><ele>278.6666666666667</ele><time>2026-04-04T10:03:56.999Z</time></trkpt><trkpt lat="43.40198959868193" lon="11.296033525445718"><ele>278.33333333333337</ele><time>2026-04-04T10:03:57.999Z</time></trkpt><trkpt lat="43.401870336652145" lon="11.296201429667748"><ele>278.0</ele><time>2026-04-04T10:03:58.999Z</time></trkpt><trkpt lat="43.401761314517024" lon="11.296360765238752"><ele>275.75</ele><time>2026-04-04T10:03:59.999Z</time></trkpt><trkpt lat="43.401661008783215" lon="11.296511896250916"><ele>273.5</ele><time>2026-04-04T10:04:00.999Z</time></trkpt><trkpt lat="43.4015660763746" lon="11.296652199591671"><ele>271.25</ele><time>2026-04-04T10:04:01.999Z</time></trkpt><trkpt lat="43.40146926276698" lon="11.296780107101828"><ele>269.0</ele><time>2026-04-04T10:04:02.999Z</time></trkpt><trkpt lat="43.401376427368575" lon="11.296896111649906"><ele>268.8</ele><time>2026-04-04T10:04:03.999Z</time></trkpt><trkpt lat="43.40128060087482" lon="11.297004652065997"><ele>268.59999999999997</ele><time>2026-04-04T10:04:04.999Z</time></trkpt><trkpt lat="43.401190660240864" lon="11.297099815108556"><ele>268.4</ele><time>2026-04-04T10:04:05.999Z</time></trkpt><trkpt lat="43.401115080518835" lon="11.29717091482459"><ele>268.2</ele><time>2026-04-04T10:04:06.999Z</time></trkpt><trkpt lat="43.40104968976551" lon="11.297235944131383"><ele>268.0</ele><time>2026-04-04T10:04:07.999Z</time></trkpt><trkpt lat="43.401000956668156" lon="11.29729658655576"><ele>268.0</ele><time>2026-04-04T10:04:08.999Z</time></trkpt><trkpt lat="43.400932168314505" lon="11.297369002532632"><ele>268.0</ele><time>2026-04-04T10:04:10.999Z</time></trkpt><trkpt lat="43.40090149770798" lon="11.297216789312992"><ele>268.0</ele><time>2026-04-04T10:04:12.999Z</time></trkpt><trkpt lat="43.400847195854" lon="11.297045219379797"><ele>268.0</ele><time>2026-04-04T10:04:14.999Z</time></trkpt><trkpt lat="43.400813215800255" lon="11.296937368743162"><ele>268.0</ele><time>2026-04-04T10:04:15.999Z</time></trkpt><trkpt lat="43.40078196577422" lon="11.296838183054145"><ele>269.2</ele><time>2026-04-04T10:04:16.999Z</time></trkpt><trkpt lat="43.400744170744275" lon="11.29671822391822"><ele>270.4</ele><time>2026-04-04T10:04:17.999Z</time></trkpt><trkpt lat="43.40070547186486" lon="11.296595396019036"><ele>271.59999999999997</ele><time>2026-04-04T10:04:18.999Z</time></trkpt><trkpt lat="43.40066498261827" lon="11.296467634020102"><ele>272.8</ele><time>2026-04-04T10:04:19.999Z</time></trkpt><trkpt lat="43.400622131356634" lon="11.296333199704383"><ele>274.0</ele><time>2026-04-04T10:04:20.999Z</time></trkpt><trkpt lat="43.4005769832383" lon="11.296195391448698"><ele>277.0</ele><time>2026-04-04T10:04:21.999Z</time></trkpt><trkpt lat="43.40052710606708" lon="11.296046713023154"><ele>280.0</ele><time>2026-04-04T10:04:22.999Z</time></trkpt><trkpt lat="43.40047540612428" lon="11.295892601677693"><ele>283.0</ele><time>2026-04-04T10:04:23.999Z</time></trkpt><trkpt lat="43.40042825473618" lon="11.295748162733478"><ele>286.0</ele><time>2026-04-04T10:04:24.999Z</time></trkpt><trkpt lat="43.400381789210044" lon="11.295599298203275"><ele>288.0</ele><time>2026-04-04T10:04:25.999Z</time></trkpt><trkpt lat="43.400334987896024" lon="11.295446454973824"><ele>290.0</ele><time>2026-04-04T10:04:26.999Z</time></trkpt><trkpt lat="43.400292395230984" lon="11.295292892080617"><ele>292.0</ele><time>2026-04-04T10:04:27.999Z</time></trkpt><trkpt lat="43.4002517081922" lon="11.295146126154027"><ele>294.0</ele><time>2026-04-04T10:04:28.999Z</time></trkpt><trkpt lat="43.40022178418061" lon="11.295010702530815"><ele>294.0</ele><time>2026-04-04T10:04:29.999Z</time></trkpt><trkpt lat="43.400202004764935" lon="11.294887019088224"><ele>294.0</ele><time>2026-04-04T10:04:30.999Z</time></trkpt><trkpt lat="43.400191565550735" lon="11.294767838012444"><ele>294.0</ele><time>2026-04-04T10:04:32Z</time></trkpt><trkpt lat="43.40017787707388" lon="11.294653955022786"><ele>294.0</ele><time>2026-04-04T10:04:33Z</time></trkpt><trkpt lat="43.40015637160249" lon="11.294572189143267"><ele>294.0</ele><time>2026-04-04T10:04:34Z</time></trkpt><trkpt lat="43.400114425005604" lon="11.294480660562705"><ele>294.0</ele><time>2026-04-04T10:04:35Z</time></trkpt><trkpt lat="43.40003736247851" lon="11.29440877441572"><ele>294.0</ele><time>2026-04-04T10:04:36Z</time></trkpt><trkpt lat="43.399937826759455" lon="11.294383674975998"><ele>294.0</ele><time>2026-04-04T10:04:37Z</time></trkpt><trkpt lat="43.39983752904392" lon="11.29436331862201"><ele>294.0</ele><time>2026-04-04T10:04:38Z</time></trkpt><trkpt lat="43.39971407987853" lon="11.294347485523781"><ele>294.0</ele><time>2026-04-04T10:04:39Z</time></trkpt><trkpt lat="43.399582507152786" lon="11.294337495025895"><ele>295.5</ele><time>2026-04-04T10:04:40Z</time></trkpt><trkpt lat="43.39945134056982" lon="11.294335192256513"><ele>297.0</ele><time>2026-04-04T10:04:41Z</time></trkpt><trkpt lat="43.399322785684355" lon="11.294332102421373"><ele>298.5</ele><time>2026-04-04T10:04:42Z</time></trkpt><trkpt lat="43.39919173249924" lon="11.294327744744534"><ele>300.0</ele><time>2026-04-04T10:04:43Z</time></trkpt><trkpt lat="43.39906008138869" lon="11.294323423144528"><ele>300.0</ele><time>2026-04-04T10:04:44Z</time></trkpt><trkpt lat="43.398924263252596" lon="11.294318590433619"><ele>300.0</ele><time>2026-04-04T10:04:45Z</time></trkpt><trkpt lat="43.398787015742776" lon="11.294310320393029"><ele>300.0</ele><time>2026-04-04T10:04:46Z</time></trkpt><trkpt lat="43.39865636253525" lon="11.294299912026519"><ele>300.0</ele><time>2026-04-04T10:04:47Z</time></trkpt><trkpt lat="43.398526743974166" lon="11.294289511463324"><ele>302.0</ele><time>2026-04-04T10:04:48Z</time></trkpt><trkpt lat="43.39839854608998" lon="11.294279224896966"><ele>304.0</ele><time>2026-04-04T10:04:49Z</time></trkpt><trkpt lat="43.398273312072014" lon="11.294267945912557"><ele>306.0</ele><time>2026-04-04T10:04:50Z</time></trkpt><trkpt lat="43.398153161839474" lon="11.294256371814463"><ele>308.0</ele><time>2026-04-04T10:04:51Z</time></trkpt><trkpt lat="43.398032649684176" lon="11.294244762851113"><ele>309.25</ele><time>2026-04-04T10:04:52Z</time></trkpt><trkpt lat="43.397911263064955" lon="11.29423322067143"><ele>310.5</ele><time>2026-04-04T10:04:53Z</time></trkpt><trkpt lat="43.397784150010146" lon="11.294221189630292"><ele>311.75</ele><time>2026-04-04T10:04:54Z</time></trkpt><trkpt lat="43.39765817350164" lon="11.294206913577925"><ele>313.0</ele><time>2026-04-04T10:04:55Z</time></trkpt><trkpt lat="43.39754679997437" lon="11.294194130761786"><ele>313.0</ele><time>2026-04-04T10:04:56Z</time></trkpt><trkpt lat="43.39744104898157" lon="11.294176161399806"><ele>313.0</ele><time>2026-04-04T10:04:57Z</time></trkpt><trkpt lat="43.397326615370105" lon="11.294159114230753"><ele>313.0</ele><time>2026-04-04T10:04:58Z</time></trkpt><trkpt lat="43.39720690928964" lon="11.294138859704445"><ele>313.0</ele><time>2026-04-04T10:04:59Z</time></trkpt><trkpt lat="43.39708091911732" lon="11.294118091144043"><ele>312.75</ele><time>2026-04-04T10:05:00Z</time></trkpt><trkpt lat="43.39695326088045" lon="11.294088847244083"><ele>312.5</ele><time>2026-04-04T10:05:01Z</time></trkpt><trkpt lat="43.39681941929799" lon="11.29405437038095"><ele>312.25</ele><time>2026-04-04T10:05:02Z</time></trkpt><trkpt lat="43.396694476483894" lon="11.294020605314048"><ele>312.0</ele><time>2026-04-04T10:05:03Z</time></trkpt><trkpt lat="43.39656667768341" lon="11.293979987911625"><ele>312.0</ele><time>2026-04-04T10:05:04Z</time></trkpt><trkpt lat="43.396425605969974" lon="11.293938562332144"><ele>312.0</ele><time>2026-04-04T10:05:05Z</time></trkpt><trkpt lat="43.39628395826735" lon="11.293908865459873"><ele>312.0</ele><time>2026-04-04T10:05:06Z</time></trkpt><trkpt lat="43.396150451436085" lon="11.293890661984364"><ele>312.0</ele><time>2026-04-04T10:05:07Z</time></trkpt><trkpt lat="43.396024036322686" lon="11.29387702848296"><ele>310.0</ele><time>2026-04-04T10:05:08Z</time></trkpt><trkpt lat="43.395898347076816" lon="11.293864171568083"><ele>308.0</ele><time>2026-04-04T10:05:09Z</time></trkpt><trkpt lat="43.39576869968802" lon="11.293852594631367"><ele>306.0</ele><time>2026-04-04T10:05:10Z</time></trkpt><trkpt lat="43.39564872872404" lon="11.293841881748433"><ele>304.0</ele><time>2026-04-04T10:05:11Z</time></trkpt><trkpt lat="43.39552966792066" lon="11.293833423921438"><ele>303.8</ele><time>2026-04-04T10:05:12Z</time></trkpt><trkpt lat="43.39540978406014" lon="11.29382848134026"><ele>303.59999999999997</ele><time>2026-04-04T10:05:13Z</time></trkpt><trkpt lat="43.39529287603297" lon="11.293823661437004"><ele>303.4</ele><time>2026-04-04T10:05:14Z</time></trkpt><trkpt lat="43.395186643467085" lon="11.293814749031286"><ele>303.2</ele><time>2026-04-04T10:05:15Z</time></trkpt><trkpt lat="43.39509113753088" lon="11.293797245381853"><ele>303.0</ele><time>2026-04-04T10:05:16Z</time></trkpt><trkpt lat="43.394994152418434" lon="11.293772270696456"><ele>303.0</ele><time>2026-04-04T10:05:17Z</time></trkpt><trkpt lat="43.39488179442876" lon="11.29377318291731"><ele>303.0</ele><time>2026-04-04T10:05:18Z</time></trkpt><trkpt lat="43.39478490317429" lon="11.29372103367983"><ele>303.0</ele><time>2026-04-04T10:05:19Z</time></trkpt><trkpt lat="43.39467803655299" lon="11.293661511688438"><ele>303.0</ele><time>2026-04-04T10:05:20Z</time></trkpt><trkpt lat="43.39456598601737" lon="11.293611689186113"><ele>303.0</ele><time>2026-04-04T10:05:21Z</time></trkpt><trkpt lat="43.39445029625228" lon="11.293570258333109"><ele>303.25</ele><time>2026-04-04T10:05:22Z</time></trkpt><trkpt lat="43.39434169515669" lon="11.29354323819533"><ele>303.5</ele><time>2026-04-04T10:05:23Z</time></trkpt><trkpt lat="43.39424103539059" lon="11.29348031708955"><ele>303.75</ele><time>2026-04-04T10:05:24Z</time></trkpt><trkpt lat="43.39412467106518" lon="11.293449906414248"><ele>304.0</ele><time>2026-04-04T10:05:25Z</time></trkpt><trkpt lat="43.394016114173304" lon="11.293403916231034"><ele>304.0</ele><time>2026-04-04T10:05:26Z</time></trkpt><trkpt lat="43.39391404642141" lon="11.293357390360685"><ele>304.0</ele><time>2026-04-04T10:05:27Z</time></trkpt><trkpt lat="43.39381955233814" lon="11.293295197036496"><ele>304.0</ele><time>2026-04-04T10:05:28Z</time></trkpt><trkpt lat="43.39373434733147" lon="11.293202544880144"><ele>304.0</ele><time>2026-04-04T10:05:29Z</time></trkpt><trkpt lat="43.39364957759706" lon="11.293080275569435"><ele>304.0</ele><time>2026-04-04T10:05:30Z</time></trkpt><trkpt lat="43.393563153131694" lon="11.292932180984227"><ele>303.5</ele><time>2026-04-04T10:05:31Z</time></trkpt><trkpt lat="43.39348455893821" lon="11.292787401361272"><ele>303.0</ele><time>2026-04-04T10:05:32Z</time></trkpt><trkpt lat="43.39341607612853" lon="11.292654024350266"><ele>302.5</ele><time>2026-04-04T10:05:33Z</time></trkpt><trkpt lat="43.39336021725075" lon="11.292530152467206"><ele>302.0</ele><time>2026-04-04T10:05:34Z</time></trkpt><trkpt lat="43.393312067506045" lon="11.292400429363312"><ele>300.25</ele><time>2026-04-04T10:05:35Z</time></trkpt><trkpt lat="43.39325203361335" lon="11.292247621840911"><ele>298.5</ele><time>2026-04-04T10:05:36Z</time></trkpt><trkpt lat="43.393184170137346" lon="11.292110088383883"><ele>296.75</ele><time>2026-04-04T10:05:37Z</time></trkpt><trkpt lat="43.39309755621544" lon="11.291972060507513"><ele>295.0</ele><time>2026-04-04T10:05:38Z</time></trkpt><trkpt lat="43.39301325311997" lon="11.291846483637858"><ele>295.0</ele><time>2026-04-04T10:05:39Z</time></trkpt><trkpt lat="43.392924527353074" lon="11.29172458976179"><ele>295.0</ele><time>2026-04-04T10:05:40Z</time></trkpt><trkpt lat="43.39283542809677" lon="11.291613623618138"><ele>295.0</ele><time>2026-04-04T10:05:41Z</time></trkpt><trkpt lat="43.39273954292982" lon="11.291506120220243"><ele>295.0</ele><time>2026-04-04T10:05:42Z</time></trkpt><trkpt lat="43.392631445333585" lon="11.291403351137856"><ele>293.25</ele><time>2026-04-04T10:05:43Z</time></trkpt><trkpt lat="43.39250989910811" lon="11.291308448728119"><ele>291.5</ele><time>2026-04-04T10:05:44Z</time></trkpt><trkpt lat="43.39239934127438" lon="11.291230532244274"><ele>289.75</ele><time>2026-04-04T10:05:44.999Z</time></trkpt><trkpt lat="43.39229313046004" lon="11.291161365534032"><ele>288.0</ele><time>2026-04-04T10:05:45.999Z</time></trkpt><trkpt lat="43.392184679867995" lon="11.291094132437932"><ele>288.0</ele><time>2026-04-04T10:05:46.999Z</time></trkpt><trkpt lat="43.39208316496036" lon="11.291032216494049"><ele>288.0</ele><time>2026-04-04T10:05:47.999Z</time></trkpt><trkpt lat="43.391978513410436" lon="11.290974035725391"><ele>288.0</ele><time>2026-04-04T10:05:48.999Z</time></trkpt><trkpt lat="43.39187600623415" lon="11.290920898330233"><ele>288.0</ele><time>2026-04-04T10:05:49.999Z</time></trkpt><trkpt lat="43.391750395696754" lon="11.290876454191661"><ele>288.0</ele><time>2026-04-04T10:05:50.999Z</time></trkpt><trkpt lat="43.39161807650299" lon="11.29083318099918"><ele>288.0</ele><time>2026-04-04T10:05:51.999Z</time></trkpt><trkpt lat="43.391505148354476" lon="11.290803339461423"><ele>288.0</ele><time>2026-04-04T10:05:52.999Z</time></trkpt><trkpt lat="43.391406599298286" lon="11.290788678474556"><ele>288.0</ele><time>2026-04-04T10:05:53.999Z</time></trkpt><trkpt lat="43.39131613583437" lon="11.290807361464408"><ele>288.0</ele><time>2026-04-04T10:05:54.999Z</time></trkpt><trkpt lat="43.39122792954949" lon="11.290808663170566"><ele>286.0</ele><time>2026-04-04T10:05:55.999Z</time></trkpt><trkpt lat="43.39114727168183" lon="11.290859134920192"><ele>284.0</ele><time>2026-04-04T10:05:56.999Z</time></trkpt><trkpt lat="43.39105189468607" lon="11.290959244015545"><ele>282.0</ele><time>2026-04-04T10:05:57.999Z</time></trkpt><trkpt lat="43.39095554671254" lon="11.29106028000216"><ele>280.0</ele><time>2026-04-04T10:05:58.999Z</time></trkpt><trkpt lat="43.390841233256346" lon="11.29116177432624"><ele>280.0</ele><time>2026-04-04T10:05:59.999Z</time></trkpt><trkpt lat="43.390724724213115" lon="11.2912337850197"><ele>280.0</ele><time>2026-04-04T10:06:00.999Z</time></trkpt><trkpt lat="43.390621222929994" lon="11.29130022864361"><ele>280.0</ele><time>2026-04-04T10:06:01.999Z</time></trkpt><trkpt lat="43.390514992642814" lon="11.291346874844658"><ele>280.0</ele><time>2026-04-04T10:06:02.999Z</time></trkpt><trkpt lat="43.39040263484264" lon="11.291379034893916"><ele>279.25</ele><time>2026-04-04T10:06:03.999Z</time></trkpt><trkpt lat="43.39028166973688" lon="11.291406772936423"><ele>278.5</ele><time>2026-04-04T10:06:04.999Z</time></trkpt><trkpt lat="43.390152132391194" lon="11.291428255683744"><ele>277.75</ele><time>2026-04-04T10:06:05.999Z</time></trkpt><trkpt lat="43.39002052090049" lon="11.291438681248195"><ele>277.0</ele><time>2026-04-04T10:06:06.999Z</time></trkpt><trkpt lat="43.38988857711526" lon="11.291444862121958"><ele>277.0</ele><time>2026-04-04T10:06:07.999Z</time></trkpt><trkpt lat="43.389754857258694" lon="11.291455638727973"><ele>277.0</ele><time>2026-04-04T10:06:08.999Z</time></trkpt><trkpt lat="43.38962035432868" lon="11.291492849994622"><ele>277.0</ele><time>2026-04-04T10:06:09.999Z</time></trkpt><trkpt lat="43.389493682234736" lon="11.291580670796034"><ele>277.0</ele><time>2026-04-04T10:06:10.999Z</time></trkpt><trkpt lat="43.38935012752508" lon="11.291615828597942"><ele>277.0</ele><time>2026-04-04T10:06:11.999Z</time></trkpt><trkpt lat="43.389207540824195" lon="11.291642265942805"><ele>277.0</ele><time>2026-04-04T10:06:12.999Z</time></trkpt><trkpt lat="43.389042726837026" lon="11.291668817610237"><ele>277.0</ele><time>2026-04-04T10:06:13.999Z</time></trkpt><trkpt lat="43.38890147633809" lon="11.29169420909107"><ele>277.25</ele><time>2026-04-04T10:06:14.999Z</time></trkpt><trkpt lat="43.38876562191605" lon="11.29174885888223"><ele>277.5</ele><time>2026-04-04T10:06:15.999Z</time></trkpt><trkpt lat="43.388626244789556" lon="11.291790602682438"><ele>277.75</ele><time>2026-04-04T10:06:16.999Z</time></trkpt><trkpt lat="43.38849149689459" lon="11.29184017324673"><ele>278.0</ele><time>2026-04-04T10:06:17.999Z</time></trkpt><trkpt lat="43.388369741591376" lon="11.29191102307563"><ele>278.0</ele><time>2026-04-04T10:06:18.999Z</time></trkpt><trkpt lat="43.388248918563676" lon="11.291963806832868"><ele>278.0</ele><time>2026-04-04T10:06:19.999Z</time></trkpt><trkpt lat="43.38812842745282" lon="11.292040133967713"><ele>278.0</ele><time>2026-04-04T10:06:20.999Z</time></trkpt><trkpt lat="43.388009711998706" lon="11.292118857769028"><ele>278.0</ele><time>2026-04-04T10:06:21.999Z</time></trkpt><trkpt lat="43.3879034207161" lon="11.292193396183183"><ele>278.5</ele><time>2026-04-04T10:06:22.999Z</time></trkpt><trkpt lat="43.38778483543547" lon="11.292282464707627"><ele>279.0</ele><time>2026-04-04T10:06:23.999Z</time></trkpt><trkpt lat="43.38767706400149" lon="11.292370694189358"><ele>279.5</ele><time>2026-04-04T10:06:24.999Z</time></trkpt><trkpt lat="43.387551066495426" lon="11.2924717383344"><ele>280.0</ele><time>2026-04-04T10:06:25.999Z</time></trkpt><trkpt lat="43.387425811871545" lon="11.292602854052136"><ele>280.0</ele><time>2026-04-04T10:06:26.999Z</time></trkpt><trkpt lat="43.38732225271907" lon="11.292727523897081"><ele>280.0</ele><time>2026-04-04T10:06:27.999Z</time></trkpt><trkpt lat="43.387213270679716" lon="11.292858309357534"><ele>280.0</ele><time>2026-04-04T10:06:28.999Z</time></trkpt><trkpt lat="43.38711442158106" lon="11.292983694474803"><ele>280.0</ele><time>2026-04-04T10:06:29.999Z</time></trkpt><trkpt lat="43.387020747461435" lon="11.293118043251143"><ele>280.25</ele><time>2026-04-04T10:06:30.999Z</time></trkpt><trkpt lat="43.38693893485325" lon="11.29326291765146"><ele>280.5</ele><time>2026-04-04T10:06:31.999Z</time></trkpt><trkpt lat="43.38685834115167" lon="11.293420619414865"><ele>280.75</ele><time>2026-04-04T10:06:32.999Z</time></trkpt><trkpt lat="43.38678257149823" lon="11.293570378145201"><ele>281.0</ele><time>2026-04-04T10:06:33.999Z</time></trkpt><trkpt lat="43.38672194638756" lon="11.293703701496487"><ele>281.0</ele><time>2026-04-04T10:06:34.999Z</time></trkpt><trkpt lat="43.38663550387666" lon="11.293792290070407"><ele>281.0</ele><time>2026-04-04T10:06:35.999Z</time></trkpt><trkpt lat="43.38655699440975" lon="11.293883241705052"><ele>281.0</ele><time>2026-04-04T10:06:36.999Z</time></trkpt><trkpt lat="43.38648729370372" lon="11.293944174419735"><ele>281.0</ele><time>2026-04-04T10:06:38Z</time></trkpt><trkpt lat="43.38642045471551" lon="11.293991843291158"><ele>281.0</ele><time>2026-04-04T10:06:39Z</time></trkpt><trkpt lat="43.38634783985616" lon="11.294033549821567"><ele>281.0</ele><time>2026-04-04T10:06:40Z</time></trkpt><trkpt lat="43.386268671297806" lon="11.294067772092003"><ele>280.6</ele><time>2026-04-04T10:06:41Z</time></trkpt><trkpt lat="43.386177445681156" lon="11.294099346884094"><ele>280.20000000000005</ele><time>2026-04-04T10:06:42Z</time></trkpt><trkpt lat="43.38606757021465" lon="11.294131449191106"><ele>279.79999999999995</ele><time>2026-04-04T10:06:43Z</time></trkpt><trkpt lat="43.38595532718813" lon="11.29415657995414"><ele>279.4</ele><time>2026-04-04T10:06:44Z</time></trkpt><trkpt lat="43.38583437108554" lon="11.29417722974764"><ele>279.0</ele><time>2026-04-04T10:06:45Z</time></trkpt><trkpt lat="43.38570333786362" lon="11.29419916530733"><ele>279.0</ele><time>2026-04-04T10:06:46Z</time></trkpt><trkpt lat="43.3855702295013" lon="11.294221448189107"><ele>279.0</ele><time>2026-04-04T10:06:47Z</time></trkpt><trkpt lat="43.38543525499533" lon="11.294245197923242"><ele>279.0</ele><time>2026-04-04T10:06:48Z</time></trkpt><trkpt lat="43.38530962555235" lon="11.294270115236367"><ele>279.0</ele><time>2026-04-04T10:06:49Z</time></trkpt><trkpt lat="43.385195121101894" lon="11.294297290553432"><ele>277.0</ele><time>2026-04-04T10:06:50Z</time></trkpt><trkpt lat="43.38508576919326" lon="11.294322988555232"><ele>275.0</ele><time>2026-04-04T10:06:51Z</time></trkpt><trkpt lat="43.384970242018916" lon="11.294345432709347"><ele>273.0</ele><time>2026-04-04T10:06:52Z</time></trkpt><trkpt lat="43.38484798934206" lon="11.294358050164405"><ele>271.0</ele><time>2026-04-04T10:06:53Z</time></trkpt><trkpt lat="43.38473320969197" lon="11.294348366788995"><ele>269.75</ele><time>2026-04-04T10:06:54Z</time></trkpt><trkpt lat="43.38461164736567" lon="11.294317472936035"><ele>268.5</ele><time>2026-04-04T10:06:55Z</time></trkpt><trkpt lat="43.38447553695099" lon="11.294278030289936"><ele>267.25</ele><time>2026-04-04T10:06:56Z</time></trkpt><trkpt lat="43.38432849522326" lon="11.294230227693904"><ele>266.0</ele><time>2026-04-04T10:06:57Z</time></trkpt><trkpt lat="43.38417043118173" lon="11.294197048712407"><ele>266.0</ele><time>2026-04-04T10:06:58Z</time></trkpt><trkpt lat="43.38402396975763" lon="11.294189173286052"><ele>266.0</ele><time>2026-04-04T10:06:59Z</time></trkpt><trkpt lat="43.38388563610616" lon="11.294170145339017"><ele>266.0</ele><time>2026-04-04T10:07:00Z</time></trkpt><trkpt lat="43.383753723454404" lon="11.29412240722448"><ele>266.0</ele><time>2026-04-04T10:07:01Z</time></trkpt><trkpt lat="43.383622499485156" lon="11.29406177032311"><ele>265.0</ele><time>2026-04-04T10:07:02Z</time></trkpt><trkpt lat="43.38349099831319" lon="11.294000580016197"><ele>264.0</ele><time>2026-04-04T10:07:03Z</time></trkpt><trkpt lat="43.383369907481075" lon="11.293945299408596"><ele>263.0</ele><time>2026-04-04T10:07:04Z</time></trkpt><trkpt lat="43.38325470921112" lon="11.29389051956409"><ele>262.0</ele><time>2026-04-04T10:07:05Z</time></trkpt><trkpt lat="43.383155335242186" lon="11.293843143461643"><ele>262.0</ele><time>2026-04-04T10:07:06Z</time></trkpt><trkpt lat="43.38308294459286" lon="11.29381034542511"><ele>262.0</ele><time>2026-04-04T10:07:07Z</time></trkpt><trkpt lat="43.38300985386475" lon="11.293695492781776"><ele>262.0</ele><time>2026-04-04T10:07:09Z</time></trkpt><trkpt lat="43.38298894329896" lon="11.293590203301553"><ele>262.0</ele><time>2026-04-04T10:07:10Z</time></trkpt><trkpt lat="43.38293617762336" lon="11.29350830123774"><ele>262.0</ele><time>2026-04-04T10:07:11Z</time></trkpt><trkpt lat="43.38286014358789" lon="11.293438454369099"><ele>262.0</ele><time>2026-04-04T10:07:12Z</time></trkpt><trkpt lat="43.38274616284305" lon="11.293430641028124"><ele>260.0</ele><time>2026-04-04T10:07:13Z</time></trkpt><trkpt lat="43.3826438658015" lon="11.293439355007767"><ele>258.0</ele><time>2026-04-04T10:07:14Z</time></trkpt><trkpt lat="43.38255467543379" lon="11.293512432218279"><ele>256.0</ele><time>2026-04-04T10:07:15Z</time></trkpt><trkpt lat="43.38247162035558" lon="11.293577925998656"><ele>254.0</ele><time>2026-04-04T10:07:16Z</time></trkpt><trkpt lat="43.38240866463414" lon="11.293674069811011"><ele>252.0</ele><time>2026-04-04T10:07:17Z</time></trkpt><trkpt lat="43.38236841895314" lon="11.293800476860946"><ele>252.0</ele><time>2026-04-04T10:07:18Z</time></trkpt><trkpt lat="43.38233873742123" lon="11.293947006663572"><ele>252.0</ele><time>2026-04-04T10:07:19Z</time></trkpt><trkpt lat="43.38230719919948" lon="11.294098854397628"><ele>252.0</ele><time>2026-04-04T10:07:20Z</time></trkpt><trkpt lat="43.38227783165455" lon="11.294230324138386"><ele>252.0</ele><time>2026-04-04T10:07:21Z</time></trkpt><trkpt lat="43.38225240466174" lon="11.294352391058222"><ele>252.0</ele><time>2026-04-04T10:07:22Z</time></trkpt><trkpt lat="43.382242629261754" lon="11.29448521610817"><ele>252.0</ele><time>2026-04-04T10:07:23Z</time></trkpt><trkpt lat="43.382249965754" lon="11.294615662139867"><ele>252.0</ele><time>2026-04-04T10:07:24Z</time></trkpt><trkpt lat="43.38226447128485" lon="11.29473710776322"><ele>252.0</ele><time>2026-04-04T10:07:25Z</time></trkpt><trkpt lat="43.38227244972194" lon="11.294857558402436"><ele>252.0</ele><time>2026-04-04T10:07:26Z</time></trkpt><trkpt lat="43.382268726298605" lon="11.29496216779577"><ele>252.0</ele><time>2026-04-04T10:07:27Z</time></trkpt><trkpt lat="43.382235487599" lon="11.295055411535767"><ele>252.0</ele><time>2026-04-04T10:07:28Z</time></trkpt><trkpt lat="43.38217777573508" lon="11.295148028249324"><ele>249.83333333333334</ele><time>2026-04-04T10:07:29Z</time></trkpt><trkpt lat="43.38211647592126" lon="11.29522685423709"><ele>247.66666666666669</ele><time>2026-04-04T10:07:30Z</time></trkpt><trkpt lat="43.38206039206369" lon="11.295306756888095"><ele>245.5</ele><time>2026-04-04T10:07:31Z</time></trkpt><trkpt lat="43.38200658868099" lon="11.295393693936443"><ele>243.33333333333334</ele><time>2026-04-04T10:07:32Z</time></trkpt><trkpt lat="43.38195157456302" lon="11.295475309313275"><ele>241.16666666666669</ele><time>2026-04-04T10:07:33Z</time></trkpt><trkpt lat="43.38190031764854" lon="11.295556347379158"><ele>239.0</ele><time>2026-04-04T10:07:34Z</time></trkpt><trkpt lat="43.38184823693858" lon="11.295629860594703"><ele>239.00000000000003</ele><time>2026-04-04T10:07:35Z</time></trkpt><trkpt lat="43.38179688225509" lon="11.29571558424473"><ele>239.0</ele><time>2026-04-04T10:07:36Z</time></trkpt><trkpt lat="43.38174976632124" lon="11.295780179540683"><ele>239.0</ele><time>2026-04-04T10:07:37Z</time></trkpt><trkpt lat="43.38167900894473" lon="11.295881339154468"><ele>239.0</ele><time>2026-04-04T10:07:39Z</time></trkpt><trkpt lat="43.381609938230234" lon="11.296001324709854"><ele>239.00000000000003</ele><time>2026-04-04T10:07:41Z</time></trkpt><trkpt lat="43.381564361706516" lon="11.296070139642246"><ele>239.0</ele><time>2026-04-04T10:07:42Z</time></trkpt><trkpt lat="43.38152383462816" lon="11.296138006552141"><ele>239.00000000000003</ele><time>2026-04-04T10:07:43Z</time></trkpt><trkpt lat="43.3814802682131" lon="11.29622849372187"><ele>239.0</ele><time>2026-04-04T10:07:44Z</time></trkpt><trkpt lat="43.38143474907277" lon="11.296339605798513"><ele>239.0</ele><time>2026-04-04T10:07:45Z</time></trkpt><trkpt lat="43.381396909404096" lon="11.296455178644152"><ele>239.0</ele><time>2026-04-04T10:07:46Z</time></trkpt><trkpt lat="43.38136397908515" lon="11.296555720495924"><ele>239.00000000000003</ele><time>2026-04-04T10:07:47Z</time></trkpt><trkpt lat="43.381328394867936" lon="11.2966333345195"><ele>239.0</ele><time>2026-04-04T10:07:48Z</time></trkpt><trkpt lat="43.381282143219295" lon="11.296705205266072"><ele>240.0</ele><time>2026-04-04T10:07:49Z</time></trkpt><trkpt lat="43.38121595720482" lon="11.296758577085269"><ele>240.99999999999997</ele><time>2026-04-04T10:07:50Z</time></trkpt><trkpt lat="43.38112672297545" lon="11.296729470395244"><ele>241.99999999999997</ele><time>2026-04-04T10:07:51Z</time></trkpt><trkpt lat="43.38104023264046" lon="11.296770142302591"><ele>243.0</ele><time>2026-04-04T10:07:52Z</time></trkpt><trkpt lat="43.38096441945152" lon="11.296881719917678"><ele>244.0</ele><time>2026-04-04T10:07:53Z</time></trkpt><trkpt lat="43.38089807422103" lon="11.296989696508602"><ele>244.0</ele><time>2026-04-04T10:07:54Z</time></trkpt><trkpt lat="43.38085401146743" lon="11.297117961577793"><ele>243.99999999999997</ele><time>2026-04-04T10:07:55Z</time></trkpt><trkpt lat="43.38083959514001" lon="11.2972338755463"><ele>243.99999999999997</ele><time>2026-04-04T10:07:56Z</time></trkpt><trkpt lat="43.38081847528752" lon="11.297388082026524"><ele>244.0</ele><time>2026-04-04T10:07:57.999Z</time></trkpt><trkpt lat="43.38076354671827" lon="11.29746537093877"><ele>244.0</ele><time>2026-04-04T10:07:59.999Z</time></trkpt><trkpt lat="43.38065190464009" lon="11.297415127456956"><ele>244.5</ele><time>2026-04-04T10:08:01.999Z</time></trkpt><trkpt lat="43.38057990056353" lon="11.29734081634668"><ele>245.0</ele><time>2026-04-04T10:08:02.999Z</time></trkpt><trkpt lat="43.38048543792832" lon="11.297276643523261"><ele>245.5</ele><time>2026-04-04T10:08:03.999Z</time></trkpt><trkpt lat="43.38035354345398" lon="11.297260162391545"><ele>246.0</ele><time>2026-04-04T10:08:04.999Z</time></trkpt><trkpt lat="43.38020756697004" lon="11.297244303500683"><ele>244.66666666666669</ele><time>2026-04-04T10:08:05.999Z</time></trkpt><trkpt lat="43.38006070210191" lon="11.29723470205116"><ele>243.33333333333334</ele><time>2026-04-04T10:08:06.999Z</time></trkpt><trkpt lat="43.37990958760622" lon="11.297232779213424"><ele>242.0</ele><time>2026-04-04T10:08:07.999Z</time></trkpt><trkpt lat="43.379743611927225" lon="11.297229138716627"><ele>242.0</ele><time>2026-04-04T10:08:08.999Z</time></trkpt><trkpt lat="43.3795984262391" lon="11.29722727809262"><ele>242.0</ele><time>2026-04-04T10:08:09.999Z</time></trkpt><trkpt lat="43.379463107607954" lon="11.297223931078221"><ele>242.0</ele><time>2026-04-04T10:08:10.999Z</time></trkpt><trkpt lat="43.37931713334376" lon="11.297218706821269"><ele>242.0</ele><time>2026-04-04T10:08:11.999Z</time></trkpt><trkpt lat="43.37917829934912" lon="11.297206034044635"><ele>242.0</ele><time>2026-04-04T10:08:12.999Z</time></trkpt><trkpt lat="43.37904324364991" lon="11.29716267602566"><ele>242.0</ele><time>2026-04-04T10:08:13.999Z</time></trkpt><trkpt lat="43.37890947000827" lon="11.29710803374579"><ele>242.0</ele><time>2026-04-04T10:08:14.999Z</time></trkpt><trkpt lat="43.37876305012359" lon="11.297054941304566"><ele>242.0</ele><time>2026-04-04T10:08:15.999Z</time></trkpt><trkpt lat="43.378624368756" lon="11.297011718103319"><ele>243.5</ele><time>2026-04-04T10:08:16.999Z</time></trkpt><trkpt lat="43.37848713257991" lon="11.296982504508744"><ele>245.0</ele><time>2026-04-04T10:08:17.999Z</time></trkpt><trkpt lat="43.37836906710798" lon="11.296974501902135"><ele>246.5</ele><time>2026-04-04T10:08:18.999Z</time></trkpt><trkpt lat="43.378250780043615" lon="11.29698605026863"><ele>248.0</ele><time>2026-04-04T10:08:19.999Z</time></trkpt><trkpt lat="43.37814981023352" lon="11.297023882698545"><ele>248.0</ele><time>2026-04-04T10:08:20.999Z</time></trkpt><trkpt lat="43.378041974622946" lon="11.297082527832053"><ele>248.0</ele><time>2026-04-04T10:08:21.999Z</time></trkpt><trkpt lat="43.37790207636128" lon="11.297162971320619"><ele>248.0</ele><time>2026-04-04T10:08:22.999Z</time></trkpt><trkpt lat="43.3777607221119" lon="11.297238451242317"><ele>248.0</ele><time>2026-04-04T10:08:23.999Z</time></trkpt><trkpt lat="43.37759843056314" lon="11.297329992041027"><ele>250.33333333333334</ele><time>2026-04-04T10:08:24.999Z</time></trkpt><trkpt lat="43.37743194960047" lon="11.297420897746271"><ele>252.66666666666669</ele><time>2026-04-04T10:08:25.999Z</time></trkpt><trkpt lat="43.37726566081103" lon="11.297515319607887"><ele>255.0</ele><time>2026-04-04T10:08:26.999Z</time></trkpt><trkpt lat="43.377108285966045" lon="11.29760500617407"><ele>256.3333333333333</ele><time>2026-04-04T10:08:27.999Z</time></trkpt><trkpt lat="43.37697148293712" lon="11.297682483513265"><ele>257.66666666666663</ele><time>2026-04-04T10:08:28.999Z</time></trkpt><trkpt lat="43.37683346880039" lon="11.297763198242496"><ele>259.0</ele><time>2026-04-04T10:08:29.999Z</time></trkpt><trkpt lat="43.376685322926356" lon="11.29783360986757"><ele>259.0</ele><time>2026-04-04T10:08:30.999Z</time></trkpt><trkpt lat="43.37654183310868" lon="11.297906674779085"><ele>259.0</ele><time>2026-04-04T10:08:31.999Z</time></trkpt><trkpt lat="43.37640415109118" lon="11.297975712866817"><ele>259.0</ele><time>2026-04-04T10:08:32.999Z</time></trkpt><trkpt lat="43.37626920167145" lon="11.298039476602154"><ele>259.0</ele><time>2026-04-04T10:08:33.999Z</time></trkpt><trkpt lat="43.37612523577351" lon="11.298118756304612"><ele>261.5</ele><time>2026-04-04T10:08:34.999Z</time></trkpt><trkpt lat="43.37598027471516" lon="11.298199772149816"><ele>264.0</ele><time>2026-04-04T10:08:35.999Z</time></trkpt><trkpt lat="43.37584899482602" lon="11.298262370699572"><ele>266.5</ele><time>2026-04-04T10:08:36.999Z</time></trkpt><trkpt lat="43.37571013411487" lon="11.298334253317124"><ele>269.0</ele><time>2026-04-04T10:08:37.999Z</time></trkpt><trkpt lat="43.37555945756569" lon="11.298409308378053"><ele>268.33333333333337</ele><time>2026-04-04T10:08:38.999Z</time></trkpt><trkpt lat="43.375411891260896" lon="11.298483759736644"><ele>267.6666666666667</ele><time>2026-04-04T10:08:39.999Z</time></trkpt><trkpt lat="43.37524587451141" lon="11.298542549721446"><ele>267.0</ele><time>2026-04-04T10:08:40.999Z</time></trkpt><trkpt lat="43.3750823318076" lon="11.298609499955852"><ele>267.0</ele><time>2026-04-04T10:08:41.999Z</time></trkpt><trkpt lat="43.37494738286678" lon="11.298704173175722"><ele>267.0</ele><time>2026-04-04T10:08:42.999Z</time></trkpt><trkpt lat="43.37481754069604" lon="11.298764285765195"><ele>267.0</ele><time>2026-04-04T10:08:44Z</time></trkpt><trkpt lat="43.374693940026305" lon="11.29882322354646"><ele>267.0</ele><time>2026-04-04T10:08:45Z</time></trkpt><trkpt lat="43.37456062639096" lon="11.298879229142424"><ele>270.0</ele><time>2026-04-04T10:08:46Z</time></trkpt><trkpt lat="43.37442269083339" lon="11.298948844205297"><ele>273.0</ele><time>2026-04-04T10:08:47Z</time></trkpt><trkpt lat="43.37429084574471" lon="11.299001469640695"><ele>276.0</ele><time>2026-04-04T10:08:48Z</time></trkpt><trkpt lat="43.37415214699433" lon="11.29906354449018"><ele>279.0</ele><time>2026-04-04T10:08:49Z</time></trkpt><trkpt lat="43.374021587342746" lon="11.299139709119107"><ele>279.0</ele><time>2026-04-04T10:08:50Z</time></trkpt><trkpt lat="43.37388549034106" lon="11.299208263853659"><ele>279.0</ele><time>2026-04-04T10:08:51Z</time></trkpt><trkpt lat="43.37375637514198" lon="11.299282244868222"><ele>279.0</ele><time>2026-04-04T10:08:52Z</time></trkpt><trkpt lat="43.37362579643831" lon="11.299361015842969"><ele>279.0</ele><time>2026-04-04T10:08:53Z</time></trkpt><trkpt lat="43.373507471583906" lon="11.299416800605808"><ele>281.0</ele><time>2026-04-04T10:08:54Z</time></trkpt><trkpt lat="43.3733898404029" lon="11.2994692824475"><ele>283.0</ele><time>2026-04-04T10:08:55Z</time></trkpt><trkpt lat="43.373294700683935" lon="11.299493601151585"><ele>285.0</ele><time>2026-04-04T10:08:56Z</time></trkpt><trkpt lat="43.37320689697934" lon="11.29951343739422"><ele>287.0</ele><time>2026-04-04T10:08:57Z</time></trkpt><trkpt lat="43.37314581849065" lon="11.299556831103281"><ele>289.0</ele><time>2026-04-04T10:08:58Z</time></trkpt><trkpt lat="43.373088591912826" lon="11.299501293058155"><ele>291.0</ele><time>2026-04-04T10:09:00Z</time></trkpt><trkpt lat="43.37305833027105" lon="11.299381157151497"><ele>291.0</ele><time>2026-04-04T10:09:01Z</time></trkpt><trkpt lat="43.37304834151826" lon="11.299192966071182"><ele>291.0</ele><time>2026-04-04T10:09:02Z</time></trkpt><trkpt lat="43.37297685301501" lon="11.29902198239397"><ele>291.0</ele><time>2026-04-04T10:09:03Z</time></trkpt><trkpt lat="43.37289211778862" lon="11.298822851675224"><ele>291.0</ele><time>2026-04-04T10:09:04Z</time></trkpt><trkpt lat="43.37280469096179" lon="11.298635295900763"><ele>291.5</ele><time>2026-04-04T10:09:05Z</time></trkpt><trkpt lat="43.37270315862664" lon="11.298494239808146"><ele>292.0</ele><time>2026-04-04T10:09:06Z</time></trkpt><trkpt lat="43.37261007904253" lon="11.29838119776475"><ele>292.5</ele><time>2026-04-04T10:09:07Z</time></trkpt><trkpt lat="43.37251208246019" lon="11.298264967652319"><ele>293.0</ele><time>2026-04-04T10:09:08Z</time></trkpt><trkpt lat="43.37240779389161" lon="11.298141275002218"><ele>293.8</ele><time>2026-04-04T10:09:09Z</time></trkpt><trkpt lat="43.372305464675506" lon="11.298015391841707"><ele>294.6</ele><time>2026-04-04T10:09:10Z</time></trkpt><trkpt lat="43.37221807726233" lon="11.297899123194181"><ele>295.4</ele><time>2026-04-04T10:09:11Z</time></trkpt><trkpt lat="43.372146737430626" lon="11.297796006526097"><ele>296.2</ele><time>2026-04-04T10:09:12Z</time></trkpt><trkpt lat="43.37209282739242" lon="11.297707645743108"><ele>297.0</ele><time>2026-04-04T10:09:13Z</time></trkpt><trkpt lat="43.37205856169076" lon="11.297627797406252"><ele>298.0</ele><time>2026-04-04T10:09:14Z</time></trkpt><trkpt lat="43.37204290872484" lon="11.297462607737133"><ele>299.0</ele><time>2026-04-04T10:09:16Z</time></trkpt><trkpt lat="43.37194043265488" lon="11.297345358698637"><ele>300.0</ele><time>2026-04-04T10:09:17Z</time></trkpt><trkpt lat="43.37190829546446" lon="11.29722617277088"><ele>301.0</ele><time>2026-04-04T10:09:18Z</time></trkpt><trkpt lat="43.37186538126757" lon="11.29711020669277"><ele>302.0</ele><time>2026-04-04T10:09:19Z</time></trkpt><trkpt lat="43.37182338528494" lon="11.296991358151267"><ele>305.0</ele><time>2026-04-04T10:09:21Z</time></trkpt><trkpt lat="43.37178825511758" lon="11.296848944597423"><ele>308.0</ele><time>2026-04-04T10:09:24Z</time></trkpt><trkpt lat="43.37175535230134" lon="11.296739334166993"><ele>311.0</ele><time>2026-04-04T10:09:25Z</time></trkpt><trkpt lat="43.371674745169685" lon="11.296637230063524"><ele>314.0</ele><time>2026-04-04T10:09:26Z</time></trkpt><trkpt lat="43.37159822757893" lon="11.296548682565438"><ele>317.0</ele><time>2026-04-04T10:09:27Z</time></trkpt><trkpt lat="43.37153795327219" lon="11.296476955511624"><ele>317.6</ele><time>2026-04-04T10:09:28Z</time></trkpt><trkpt lat="43.37146272279624" lon="11.296381786330704"><ele>318.2</ele><time>2026-04-04T10:09:30Z</time></trkpt><trkpt lat="43.37140752678982" lon="11.296312012878955"><ele>318.8</ele><time>2026-04-04T10:09:32Z</time></trkpt><trkpt lat="43.37135886587227" lon="11.296239636292771"><ele>319.4</ele><time>2026-04-04T10:09:35Z</time></trkpt><trkpt lat="43.37132089170737" lon="11.296166723905333"><ele>320.0</ele><time>2026-04-04T10:09:37Z</time></trkpt><trkpt lat="43.371175835728" lon="11.29609306206148"><ele>320.0</ele><time>2026-04-04T10:09:39Z</time></trkpt><trkpt lat="43.37109819425518" lon="11.296050343331936"><ele>320.0</ele><time>2026-04-04T10:09:40Z</time></trkpt><trkpt lat="43.37101709737513" lon="11.29600436540826"><ele>320.0</ele><time>2026-04-04T10:09:41Z</time></trkpt><trkpt lat="43.370951438694256" lon="11.295946576089506"><ele>320.0</ele><time>2026-04-04T10:09:42Z</time></trkpt><trkpt lat="43.37088220182067" lon="11.29586599581759"><ele>320.0</ele><time>2026-04-04T10:09:43Z</time></trkpt><trkpt lat="43.37078408394111" lon="11.295776568290615"><ele>320.0</ele><time>2026-04-04T10:09:45Z</time></trkpt><trkpt lat="43.37072348637896" lon="11.295727543722613"><ele>320.0</ele><time>2026-04-04T10:09:46Z</time></trkpt><trkpt lat="43.370667774100795" lon="11.295681701214823"><ele>320.0</ele><time>2026-04-04T10:09:47Z</time></trkpt><trkpt lat="43.370613502081405" lon="11.295637043480095"><ele>320.0</ele><time>2026-04-04T10:09:48Z</time></trkpt><trkpt lat="43.37051339667267" lon="11.295533353670585"><ele>320.0</ele><time>2026-04-04T10:09:50Z</time></trkpt><trkpt lat="43.370468977483796" lon="11.29546130301819"><ele>320.0</ele><time>2026-04-04T10:09:51Z</time></trkpt><trkpt lat="43.37042623319945" lon="11.29536522142153"><ele>317.75</ele><time>2026-04-04T10:09:52Z</time></trkpt><trkpt lat="43.3703800335897" lon="11.295266589102287"><ele>315.5</ele><time>2026-04-04T10:09:53Z</time></trkpt><trkpt lat="43.37031918916648" lon="11.295136691343185"><ele>313.25</ele><time>2026-04-04T10:09:54Z</time></trkpt><trkpt lat="43.37024017130154" lon="11.294973200042907"><ele>311.0</ele><time>2026-04-04T10:09:55Z</time></trkpt><trkpt lat="43.37016909966264" lon="11.2948301077271"><ele>310.6666666666667</ele><time>2026-04-04T10:09:56Z</time></trkpt><trkpt lat="43.37011256259767" lon="11.294716278258258"><ele>310.33333333333337</ele><time>2026-04-04T10:09:57Z</time></trkpt><trkpt lat="43.370060006517996" lon="11.294622555164318"><ele>310.0</ele><time>2026-04-04T10:09:58Z</time></trkpt><trkpt lat="43.370003048450954" lon="11.29455053871221"><ele>309.6666666666667</ele><time>2026-04-04T10:09:59Z</time></trkpt><trkpt lat="43.36995332600158" lon="11.294480889712194"><ele>309.3333333333333</ele><time>2026-04-04T10:10:00Z</time></trkpt><trkpt lat="43.3699088711966" lon="11.294411958837399"><ele>309.0</ele><time>2026-04-04T10:10:00.999Z</time></trkpt><trkpt lat="43.36984985062993" lon="11.29432044703395"><ele>309.0</ele><time>2026-04-04T10:10:03.999Z</time></trkpt><trkpt lat="43.36980200523942" lon="11.294255477615954"><ele>309.0</ele><time>2026-04-04T10:10:04.999Z</time></trkpt><trkpt lat="43.36958158164398" lon="11.294440286575037"><ele>309.0</ele><time>2026-04-04T10:10:05.999Z</time></trkpt><trkpt lat="43.36947751030838" lon="11.294454332480942"><ele>309.0</ele><time>2026-04-04T10:10:06.999Z</time></trkpt><trkpt lat="43.369387929483175" lon="11.294467753246533"><ele>307.1666666666667</ele><time>2026-04-04T10:10:07.999Z</time></trkpt><trkpt lat="43.3693210316197" lon="11.29447153019721"><ele>305.3333333333333</ele><time>2026-04-04T10:10:08.999Z</time></trkpt><trkpt lat="43.36925728535908" lon="11.294478918999555"><ele>303.5</ele><time>2026-04-04T10:10:09.999Z</time></trkpt><trkpt lat="43.369200892088045" lon="11.294570687728593"><ele>301.66666666666663</ele><time>2026-04-04T10:10:11.999Z</time></trkpt><trkpt lat="43.36922954873881" lon="11.294680755697996"><ele>299.8333333333333</ele><time>2026-04-04T10:10:13.999Z</time></trkpt><trkpt lat="43.36925927718112" lon="11.294784211731312"><ele>298.0</ele><time>2026-04-04T10:10:16.999Z</time></trkpt><trkpt lat="43.36926856231875" lon="11.294911071898893"><ele>297.5</ele><time>2026-04-04T10:10:17.999Z</time></trkpt><trkpt lat="43.369280037190734" lon="11.295024121295885"><ele>297.0</ele><time>2026-04-04T10:10:18.999Z</time></trkpt><trkpt lat="43.369325159292934" lon="11.295110465897995"><ele>296.5</ele><time>2026-04-04T10:10:19.999Z</time></trkpt><trkpt lat="43.369377467237946" lon="11.295188919432936"><ele>296.0</ele><time>2026-04-04T10:10:20.999Z</time></trkpt><trkpt lat="43.36944219461564" lon="11.295295471440538"><ele>295.5</ele><time>2026-04-04T10:10:21.999Z</time></trkpt><trkpt lat="43.36949449442948" lon="11.295390692664478"><ele>295.0</ele><time>2026-04-04T10:10:22.999Z</time></trkpt><trkpt lat="43.36953903073272" lon="11.295485069531159"><ele>293.5</ele><time>2026-04-04T10:10:23.999Z</time></trkpt><trkpt lat="43.369559208237305" lon="11.295587543589846"><ele>292.0</ele><time>2026-04-04T10:10:24.999Z</time></trkpt><trkpt lat="43.36957444587719" lon="11.295698480925493"><ele>290.5</ele><time>2026-04-04T10:10:25.999Z</time></trkpt><trkpt lat="43.36959875277915" lon="11.295805685612452"><ele>289.0</ele><time>2026-04-04T10:10:26.999Z</time></trkpt><trkpt lat="43.369606042120665" lon="11.295914110459519"><ele>287.5</ele><time>2026-04-04T10:10:28.999Z</time></trkpt><trkpt lat="43.36955569481968" lon="11.29600083311116"><ele>286.0</ele><time>2026-04-04T10:10:30.999Z</time></trkpt><trkpt lat="43.369484237754875" lon="11.296001477147723"><ele>285.99999999999994</ele><time>2026-04-04T10:10:32.999Z</time></trkpt><trkpt lat="43.369416811650595" lon="11.295990306870843"><ele>286.0</ele><time>2026-04-04T10:10:59Z</time></trkpt><trkpt lat="43.36934997369824" lon="11.29598351976878"><ele>286.0</ele><time>2026-04-04T10:11:01Z</time></trkpt><trkpt lat="43.36927995410034" lon="11.295987405049368"><ele>286.0</ele><time>2026-04-04T10:11:02Z</time></trkpt><trkpt lat="43.369205749574725" lon="11.296008823908716"><ele>286.0</ele><time>2026-04-04T10:11:03Z</time></trkpt><trkpt lat="43.369135012137704" lon="11.296021352553453"><ele>285.99999999999994</ele><time>2026-04-04T10:11:04Z</time></trkpt><trkpt lat="43.3690433148328" lon="11.296032089889081"><ele>286.0</ele><time>2026-04-04T10:11:05Z</time></trkpt><trkpt lat="43.3689490457097" lon="11.296038347261533"><ele>286.0</ele><time>2026-04-04T10:11:06Z</time></trkpt><trkpt lat="43.368863270585" lon="11.296032583330037"><ele>286.0</ele><time>2026-04-04T10:11:07Z</time></trkpt><trkpt lat="43.36876993402674" lon="11.296002025514028"><ele>286.0</ele><time>2026-04-04T10:11:08Z</time></trkpt><trkpt lat="43.36866939231218" lon="11.295950710363092"><ele>286.0</ele><time>2026-04-04T10:11:09Z</time></trkpt><trkpt lat="43.368565334270414" lon="11.29592149921349"><ele>286.0</ele><time>2026-04-04T10:11:10Z</time></trkpt><trkpt lat="43.36846913805218" lon="11.295894202960893"><ele>283.2</ele><time>2026-04-04T10:11:11Z</time></trkpt><trkpt lat="43.36838258655363" lon="11.29587200401194"><ele>280.40000000000003</ele><time>2026-04-04T10:11:12Z</time></trkpt><trkpt lat="43.3682891220081" lon="11.295838085447707"><ele>277.6</ele><time>2026-04-04T10:11:13Z</time></trkpt><trkpt lat="43.36820230010582" lon="11.295791176374063"><ele>274.8</ele><time>2026-04-04T10:11:14Z</time></trkpt><trkpt lat="43.3681217106859" lon="11.29574790341999"><ele>272.0</ele><time>2026-04-04T10:11:15Z</time></trkpt><trkpt lat="43.36804350862844" lon="11.295675523658526"><ele>271.5</ele><time>2026-04-04T10:11:16Z</time></trkpt><trkpt lat="43.36799455529925" lon="11.295589068985706"><ele>271.0</ele><time>2026-04-04T10:11:17Z</time></trkpt><trkpt lat="43.36797255213089" lon="11.295492818879362"><ele>270.5</ele><time>2026-04-04T10:11:18Z</time></trkpt><trkpt lat="43.367944543137796" lon="11.295389555103519"><ele>270.0</ele><time>2026-04-04T10:11:19Z</time></trkpt><trkpt lat="43.367903961928064" lon="11.295316690536591"><ele>269.5</ele><time>2026-04-04T10:11:20Z</time></trkpt><trkpt lat="43.367807529933124" lon="11.295289060823972"><ele>269.0</ele><time>2026-04-04T10:11:22Z</time></trkpt><trkpt lat="43.36773686480393" lon="11.295281248705617"><ele>269.0</ele><time>2026-04-04T10:11:23Z</time></trkpt><trkpt lat="43.36766342440649" lon="11.295261361517515"><ele>269.0</ele><time>2026-04-04T10:11:24Z</time></trkpt><trkpt lat="43.367585391224324" lon="11.295236381131206"><ele>269.0</ele><time>2026-04-04T10:11:25Z</time></trkpt><trkpt lat="43.36747625777097" lon="11.295241450560608"><ele>269.0</ele><time>2026-04-04T10:11:27Z</time></trkpt><trkpt lat="43.367413805845366" lon="11.295295246272355"><ele>269.0</ele><time>2026-04-04T10:11:28Z</time></trkpt><trkpt lat="43.36731913411716" lon="11.295290677850586"><ele>269.0</ele><time>2026-04-04T10:11:29Z</time></trkpt><trkpt lat="43.36721715116017" lon="11.29524471636335"><ele>267.33333333333337</ele><time>2026-04-04T10:11:30Z</time></trkpt><trkpt lat="43.36712431161987" lon="11.295205403934888"><ele>265.6666666666667</ele><time>2026-04-04T10:11:31Z</time></trkpt><trkpt lat="43.36704976760173" lon="11.295159774037892"><ele>264.0</ele><time>2026-04-04T10:11:32Z</time></trkpt><trkpt lat="43.36699008432423" lon="11.295120468126276"><ele>262.3333333333333</ele><time>2026-04-04T10:11:33Z</time></trkpt><trkpt lat="43.36692105835134" lon="11.295083010834684"><ele>260.66666666666663</ele><time>2026-04-04T10:11:34Z</time></trkpt><trkpt lat="43.366849212693346" lon="11.295082404279828"><ele>259.0</ele><time>2026-04-04T10:11:35Z</time></trkpt><trkpt lat="43.36677073959834" lon="11.295205100871815"><ele>259.0</ele><time>2026-04-04T10:11:37Z</time></trkpt><trkpt lat="43.36676472981903" lon="11.295310207327683"><ele>259.0</ele><time>2026-04-04T10:11:38Z</time></trkpt><trkpt lat="43.36677650770123" lon="11.295420956872988"><ele>259.0</ele><time>2026-04-04T10:11:39Z</time></trkpt><trkpt lat="43.36678244057274" lon="11.295537229931863"><ele>259.0</ele><time>2026-04-04T10:11:40Z</time></trkpt><trkpt lat="43.36678590238667" lon="11.295640377640405"><ele>259.0</ele><time>2026-04-04T10:11:41Z</time></trkpt><trkpt lat="43.36677701806014" lon="11.295741217224085"><ele>259.0</ele><time>2026-04-04T10:11:42Z</time></trkpt><trkpt lat="43.3667742643771" lon="11.295840158727568"><ele>258.8333333333333</ele><time>2026-04-04T10:11:43Z</time></trkpt><trkpt lat="43.36675395706764" lon="11.295953936530934"><ele>258.66666666666663</ele><time>2026-04-04T10:11:45Z</time></trkpt><trkpt lat="43.36674406604168" lon="11.29604044018951"><ele>258.5</ele><time>2026-04-04T10:11:52Z</time></trkpt><trkpt lat="43.36674446166173" lon="11.296161503507708"><ele>258.3333333333333</ele><time>2026-04-04T10:11:53Z</time></trkpt><trkpt lat="43.366737281562415" lon="11.296277145187394"><ele>258.1666666666667</ele><time>2026-04-04T10:11:54Z</time></trkpt><trkpt lat="43.36670480053093" lon="11.296393623432843"><ele>258.0</ele><time>2026-04-04T10:11:55Z</time></trkpt><trkpt lat="43.366642952753025" lon="11.296543329590419"><ele>258.6</ele><time>2026-04-04T10:11:56Z</time></trkpt><trkpt lat="43.366604696854736" lon="11.296722511019293"><ele>259.20000000000005</ele><time>2026-04-04T10:11:57Z</time></trkpt><trkpt lat="43.36657380174193" lon="11.296860056580465"><ele>259.8</ele><time>2026-04-04T10:11:58Z</time></trkpt><trkpt lat="43.36654478974977" lon="11.296984436000331"><ele>260.40000000000003</ele><time>2026-04-04T10:11:58.999Z</time></trkpt><trkpt lat="43.36650536692033" lon="11.297094827776755"><ele>261.0</ele><time>2026-04-04T10:11:59.999Z</time></trkpt><trkpt lat="43.366482498447446" lon="11.297179272863078"><ele>262.6</ele><time>2026-04-04T10:12:00.999Z</time></trkpt><trkpt lat="43.36649928020143" lon="11.297291786340383"><ele>264.20000000000005</ele><time>2026-04-04T10:12:02.999Z</time></trkpt><trkpt lat="43.3665653158497" lon="11.297309194623987"><ele>265.79999999999995</ele><time>2026-04-04T10:12:03.999Z</time></trkpt><trkpt lat="43.36670218745258" lon="11.297258318106465"><ele>267.4</ele><time>2026-04-04T10:12:05.999Z</time></trkpt><trkpt lat="43.366798269292595" lon="11.297265009500022"><ele>269.0</ele><time>2026-04-04T10:12:06.999Z</time></trkpt><trkpt lat="43.36690550108959" lon="11.297268277413215"><ele>269.0</ele><time>2026-04-04T10:12:07.999Z</time></trkpt><trkpt lat="43.36700080340995" lon="11.297302500291067"><ele>269.0</ele><time>2026-04-04T10:12:08.999Z</time></trkpt><trkpt lat="43.36706779718523" lon="11.297348390886798"><ele>269.0</ele><time>2026-04-04T10:12:09.999Z</time></trkpt><trkpt lat="43.36711651732065" lon="11.297408732821431"><ele>269.0</ele><time>2026-04-04T10:12:10.999Z</time></trkpt><trkpt lat="43.3671083363067" lon="11.297565614173005"><ele>269.0</ele><time>2026-04-04T10:12:12.999Z</time></trkpt><trkpt lat="43.36713104342038" lon="11.297661491443645"><ele>269.0</ele><time>2026-04-04T10:12:13.999Z</time></trkpt><trkpt lat="43.367219604722926" lon="11.297773813589766"><ele>269.6666666666667</ele><time>2026-04-04T10:12:15.999Z</time></trkpt><trkpt lat="43.36729549737907" lon="11.297772285810911"><ele>270.33333333333337</ele><time>2026-04-04T10:12:16.999Z</time></trkpt><trkpt lat="43.36738506907836" lon="11.297825308894051"><ele>271.0</ele><time>2026-04-04T10:12:17.999Z</time></trkpt><trkpt lat="43.36744824077928" lon="11.297858136379727"><ele>271.6666666666667</ele><time>2026-04-04T10:12:18.999Z</time></trkpt><trkpt lat="43.36751150413083" lon="11.297984895301314"><ele>272.3333333333333</ele><time>2026-04-04T10:12:20.999Z</time></trkpt><trkpt lat="43.36748587029545" lon="11.298093994778402"><ele>273.0</ele><time>2026-04-04T10:12:21.999Z</time></trkpt><trkpt lat="43.367485177349366" lon="11.298230159768444"><ele>274.5</ele><time>2026-04-04T10:12:22.999Z</time></trkpt><trkpt lat="43.367497092721536" lon="11.298397960035173"><ele>276.0</ele><time>2026-04-04T10:12:23.999Z</time></trkpt><trkpt lat="43.36750020371633" lon="11.298590274824354"><ele>277.5</ele><time>2026-04-04T10:12:24.999Z</time></trkpt><trkpt lat="43.36749782993691" lon="11.298739778747148"><ele>279.0</ele><time>2026-04-04T10:12:25.999Z</time></trkpt><trkpt lat="43.3674953676994" lon="11.298874117352447"><ele>281.0</ele><time>2026-04-04T10:12:26.999Z</time></trkpt><trkpt lat="43.36750619436569" lon="11.298998891658345"><ele>283.0</ele><time>2026-04-04T10:12:27.999Z</time></trkpt><trkpt lat="43.36754482080041" lon="11.299130317942705"><ele>285.0</ele><time>2026-04-04T10:12:28.999Z</time></trkpt><trkpt lat="43.36761816043703" lon="11.299259049448324"><ele>287.0</ele><time>2026-04-04T10:12:29.999Z</time></trkpt><trkpt lat="43.36769158786069" lon="11.299409836661622"><ele>289.0</ele><time>2026-04-04T10:12:30.999Z</time></trkpt><trkpt lat="43.36778385687328" lon="11.299602247643076"><ele>290.25</ele><time>2026-04-04T10:12:31.999Z</time></trkpt><trkpt lat="43.367891621325825" lon="11.2997846135055"><ele>291.5</ele><time>2026-04-04T10:12:32.999Z</time></trkpt><trkpt lat="43.3679633003477" lon="11.299933236768627"><ele>292.75</ele><time>2026-04-04T10:12:33.999Z</time></trkpt><trkpt lat="43.36805100485378" lon="11.300064351977058"><ele>294.0</ele><time>2026-04-04T10:12:34.999Z</time></trkpt><trkpt lat="43.36812369827514" lon="11.300151850805001"><ele>294.0</ele><time>2026-04-04T10:12:35.999Z</time></trkpt><trkpt lat="43.36818558208015" lon="11.300243132166392"><ele>294.0</ele><time>2026-04-04T10:12:36.999Z</time></trkpt><trkpt lat="43.368251691881525" lon="11.300334480317563"><ele>294.0</ele><time>2026-04-04T10:12:37.999Z</time></trkpt><trkpt lat="43.36832770119665" lon="11.300408354626502"><ele>294.0</ele><time>2026-04-04T10:12:38.999Z</time></trkpt><trkpt lat="43.36839274714277" lon="11.300488269643447"><ele>294.0</ele><time>2026-04-04T10:12:39.999Z</time></trkpt><trkpt lat="43.36845422573012" lon="11.300633966774033"><ele>296.59999999999997</ele><time>2026-04-04T10:12:41.999Z</time></trkpt><trkpt lat="43.36845640482505" lon="11.300740431321728"><ele>299.2</ele><time>2026-04-04T10:12:42.999Z</time></trkpt><trkpt lat="43.36843868305153" lon="11.300851358549922"><ele>301.79999999999995</ele><time>2026-04-04T10:12:43.999Z</time></trkpt><trkpt lat="43.36840291146754" lon="11.301011332291978"><ele>304.4</ele><time>2026-04-04T10:12:44.999Z</time></trkpt><trkpt lat="43.36833437106039" lon="11.301149364687967"><ele>307.0</ele><time>2026-04-04T10:12:45.999Z</time></trkpt><trkpt lat="43.368259133066935" lon="11.301339373652862"><ele>308.5</ele><time>2026-04-04T10:12:46.999Z</time></trkpt><trkpt lat="43.36822433079538" lon="11.301523340737365"><ele>310.0</ele><time>2026-04-04T10:12:47.999Z</time></trkpt><trkpt lat="43.3681819949827" lon="11.301727369118678"><ele>311.5</ele><time>2026-04-04T10:12:48.999Z</time></trkpt><trkpt lat="43.36816474705847" lon="11.30191023195938"><ele>313.0</ele><time>2026-04-04T10:12:49.999Z</time></trkpt><trkpt lat="43.368122550066325" lon="11.302040516941009"><ele>313.0</ele><time>2026-04-04T10:12:50.999Z</time></trkpt><trkpt lat="43.36808935124898" lon="11.302146632575887"><ele>313.0</ele><time>2026-04-04T10:12:51.999Z</time></trkpt><trkpt lat="43.368040144248006" lon="11.302209318794059"><ele>313.0</ele><time>2026-04-04T10:12:52.999Z</time></trkpt><trkpt lat="43.36791735188768" lon="11.30231899921843"><ele>313.0</ele><time>2026-04-04T10:12:54.999Z</time></trkpt><trkpt lat="43.367814590576394" lon="11.302416404026816"><ele>313.0</ele><time>2026-04-04T10:12:56Z</time></trkpt><trkpt lat="43.367705344605014" lon="11.302522241388965"><ele>317.75</ele><time>2026-04-04T10:12:57Z</time></trkpt><trkpt lat="43.36761304009761" lon="11.3026438075752"><ele>322.5</ele><time>2026-04-04T10:12:58Z</time></trkpt><trkpt lat="43.36752805125894" lon="11.30277215760999"><ele>327.25</ele><time>2026-04-04T10:12:59Z</time></trkpt><trkpt lat="43.367448663359454" lon="11.30288000552938"><ele>332.0</ele><time>2026-04-04T10:13:00Z</time></trkpt><trkpt lat="43.3673963927182" lon="11.302971902665345"><ele>332.0</ele><time>2026-04-04T10:13:01Z</time></trkpt><trkpt lat="43.36737203756428" lon="11.303052683534064"><ele>332.0</ele><time>2026-04-04T10:13:02Z</time></trkpt><trkpt lat="43.3673681437946" lon="11.303149708724625"><ele>332.0</ele><time>2026-04-04T10:13:03Z</time></trkpt><trkpt lat="43.367378213503926" lon="11.303246054143086"><ele>332.0</ele><time>2026-04-04T10:13:04Z</time></trkpt><trkpt lat="43.367385646457784" lon="11.303337549527155"><ele>332.0</ele><time>2026-04-04T10:13:05Z</time></trkpt><trkpt lat="43.367380662832424" lon="11.303487402397105"><ele>332.0</ele><time>2026-04-04T10:13:06Z</time></trkpt><trkpt lat="43.367384869650245" lon="11.30363301706332"><ele>331.0</ele><time>2026-04-04T10:13:07Z</time></trkpt><trkpt lat="43.367356353457" lon="11.30378675645323"><ele>330.0</ele><time>2026-04-04T10:13:08Z</time></trkpt><trkpt lat="43.36732136306137" lon="11.30396873257635"><ele>329.0</ele><time>2026-04-04T10:13:09Z</time></trkpt><trkpt lat="43.36728141492989" lon="11.304146244134879"><ele>328.0</ele><time>2026-04-04T10:13:10Z</time></trkpt><trkpt lat="43.367242583964014" lon="11.304305668112312"><ele>328.0</ele><time>2026-04-04T10:13:11Z</time></trkpt><trkpt lat="43.367208591450286" lon="11.304434074888338"><ele>328.0</ele><time>2026-04-04T10:13:12Z</time></trkpt><trkpt lat="43.367163181226545" lon="11.304577700733354"><ele>328.0</ele><time>2026-04-04T10:13:13Z</time></trkpt><trkpt lat="43.367118931119926" lon="11.304689948365978"><ele>328.0</ele><time>2026-04-04T10:13:14Z</time></trkpt><trkpt lat="43.367081758155315" lon="11.304778870261435"><ele>328.0</ele><time>2026-04-04T10:13:15Z</time></trkpt><trkpt lat="43.367032830681474" lon="11.304879174814321"><ele>327.5</ele><time>2026-04-04T10:13:16Z</time></trkpt><trkpt lat="43.366981279082154" lon="11.304996749347353"><ele>327.0</ele><time>2026-04-04T10:13:17Z</time></trkpt><trkpt lat="43.36699158366516" lon="11.30519047075833"><ele>326.5</ele><time>2026-04-04T10:13:18Z</time></trkpt><trkpt lat="43.366956837661924" lon="11.305352024646528"><ele>326.0</ele><time>2026-04-04T10:13:19Z</time></trkpt><trkpt lat="43.36693454094476" lon="11.305500884851298"><ele>327.0</ele><time>2026-04-04T10:13:20Z</time></trkpt><trkpt lat="43.36692538507418" lon="11.30564190538369"><ele>328.0</ele><time>2026-04-04T10:13:21Z</time></trkpt><trkpt lat="43.36690296909362" lon="11.305767009192524"><ele>329.0</ele><time>2026-04-04T10:13:22Z</time></trkpt><trkpt lat="43.36687579270815" lon="11.305897599913658"><ele>330.0</ele><time>2026-04-04T10:13:23Z</time></trkpt><trkpt lat="43.36685868421158" lon="11.30604172539655"><ele>331.0</ele><time>2026-04-04T10:13:24Z</time></trkpt><trkpt lat="43.36683723034812" lon="11.306184006526507"><ele>331.0</ele><time>2026-04-04T10:13:25Z</time></trkpt><trkpt lat="43.36678664761078" lon="11.306330471783308"><ele>331.0</ele><time>2026-04-04T10:13:26Z</time></trkpt><trkpt lat="43.366748271228936" lon="11.306453260956733"><ele>331.0</ele><time>2026-04-04T10:13:27Z</time></trkpt><trkpt lat="43.366722704542056" lon="11.306589876912238"><ele>331.0</ele><time>2026-04-04T10:13:28Z</time></trkpt><trkpt lat="43.36666564024252" lon="11.306705746953769"><ele>331.0</ele><time>2026-04-04T10:13:29Z</time></trkpt><trkpt lat="43.36661825711522" lon="11.306833585718199"><ele>332.25</ele><time>2026-04-04T10:13:30Z</time></trkpt><trkpt lat="43.366560296666535" lon="11.306954117706152"><ele>333.5</ele><time>2026-04-04T10:13:31Z</time></trkpt><trkpt lat="43.36649535330252" lon="11.307085346176269"><ele>334.75</ele><time>2026-04-04T10:13:32Z</time></trkpt><trkpt lat="43.36642711697424" lon="11.307221724226508"><ele>336.0</ele><time>2026-04-04T10:13:33Z</time></trkpt><trkpt lat="43.36636699507695" lon="11.307366147226311"><ele>336.0</ele><time>2026-04-04T10:13:34Z</time></trkpt><trkpt lat="43.36631674208117" lon="11.307509017834247"><ele>336.0</ele><time>2026-04-04T10:13:35Z</time></trkpt><trkpt lat="43.366248188672245" lon="11.307632932314585"><ele>336.0</ele><time>2026-04-04T10:13:36Z</time></trkpt><trkpt lat="43.366202240191335" lon="11.307729091031865"><ele>336.0</ele><time>2026-04-04T10:13:37Z</time></trkpt><trkpt lat="43.366108502588894" lon="11.307799018293522"><ele>336.0</ele><time>2026-04-04T10:13:39Z</time></trkpt><trkpt lat="43.36601481314197" lon="11.307750685299911"><ele>336.0</ele><time>2026-04-04T10:13:41Z</time></trkpt><trkpt lat="43.36593322336737" lon="11.307678571823638"><ele>336.0</ele><time>2026-04-04T10:13:42Z</time></trkpt><trkpt lat="43.36583242783872" lon="11.307642357977707"><ele>336.0</ele><time>2026-04-04T10:13:43Z</time></trkpt><trkpt lat="43.36570931520801" lon="11.307621482631772"><ele>336.0</ele><time>2026-04-04T10:13:44Z</time></trkpt><trkpt lat="43.365615630214485" lon="11.307581527566887"><ele>336.0</ele><time>2026-04-04T10:13:45Z</time></trkpt><trkpt lat="43.365517520246954" lon="11.307554999327582"><ele>336.20000000000005</ele><time>2026-04-04T10:13:46Z</time></trkpt><trkpt lat="43.36541186435869" lon="11.307515954013482"><ele>336.40000000000003</ele><time>2026-04-04T10:13:47Z</time></trkpt><trkpt lat="43.36530953387714" lon="11.307471028322274"><ele>336.6</ele><time>2026-04-04T10:13:48Z</time></trkpt><trkpt lat="43.365236335956574" lon="11.30743928519268"><ele>336.8</ele><time>2026-04-04T10:13:49Z</time></trkpt><trkpt lat="43.36514137099858" lon="11.307408088740996"><ele>337.0</ele><time>2026-04-04T10:13:50Z</time></trkpt><trkpt lat="43.365073035564436" lon="11.307360344787552"><ele>337.0</ele><time>2026-04-04T10:13:51Z</time></trkpt><trkpt lat="43.36497939952302" lon="11.307340577483092"><ele>337.0</ele><time>2026-04-04T10:13:53Z</time></trkpt><trkpt lat="43.36494206149757" lon="11.30744168722554"><ele>337.0</ele><time>2026-04-04T10:13:55Z</time></trkpt><trkpt lat="43.36499391692628" lon="11.30752167558205"><ele>337.0</ele><time>2026-04-04T10:13:56Z</time></trkpt><trkpt lat="43.36501705735931" lon="11.307606537058794"><ele>337.0</ele><time>2026-04-04T10:13:58Z</time></trkpt><trkpt lat="43.364957079669416" lon="11.307696813828246"><ele>337.0</ele><time>2026-04-04T10:14:00Z</time></trkpt><trkpt lat="43.36489975843206" lon="11.307765278277854"><ele>337.0</ele><time>2026-04-04T10:14:01Z</time></trkpt><trkpt lat="43.36484161407392" lon="11.307831534696472"><ele>337.0</ele><time>2026-04-04T10:14:01.999Z</time></trkpt><trkpt lat="43.36478202692045" lon="11.307897923027515"><ele>337.0</ele><time>2026-04-04T10:14:02.999Z</time></trkpt><trkpt lat="43.36468576371973" lon="11.307999853035536"><ele>337.0</ele><time>2026-04-04T10:14:03.999Z</time></trkpt><trkpt lat="43.36459432602614" lon="11.308112143781454"><ele>337.0</ele><time>2026-04-04T10:14:04.999Z</time></trkpt><trkpt lat="43.36452624328447" lon="11.308209021222794"><ele>336.8333333333333</ele><time>2026-04-04T10:14:05.999Z</time></trkpt><trkpt lat="43.36447460507045" lon="11.3082857223863"><ele>336.66666666666663</ele><time>2026-04-04T10:14:06.999Z</time></trkpt><trkpt lat="43.36442493362038" lon="11.308363142519672"><ele>336.5</ele><time>2026-04-04T10:14:07.999Z</time></trkpt><trkpt lat="43.36437167886108" lon="11.308453635958939"><ele>336.3333333333333</ele><time>2026-04-04T10:14:09.999Z</time></trkpt><trkpt lat="43.36432457956786" lon="11.308535305033281"><ele>336.1666666666667</ele><time>2026-04-04T10:14:11.999Z</time></trkpt><trkpt lat="43.36427921943376" lon="11.308608873524253"><ele>336.0</ele><time>2026-04-04T10:14:14.999Z</time></trkpt><trkpt lat="43.364189765296715" lon="11.308744840454322"><ele>336.0</ele><time>2026-04-04T10:14:16.999Z</time></trkpt><trkpt lat="43.36412306642844" lon="11.308842400557545"><ele>336.0</ele><time>2026-04-04T10:14:17.999Z</time></trkpt><trkpt lat="43.36406793676101" lon="11.308944411662617"><ele>336.0</ele><time>2026-04-04T10:14:18.999Z</time></trkpt><trkpt lat="43.36398068583558" lon="11.30905143053014"><ele>336.0</ele><time>2026-04-04T10:14:19.999Z</time></trkpt><trkpt lat="43.363884752228245" lon="11.309126690451892"><ele>336.0</ele><time>2026-04-04T10:14:20.999Z</time></trkpt><trkpt lat="43.36380258355468" lon="11.30921806049488"><ele>335.25</ele><time>2026-04-04T10:14:21.999Z</time></trkpt><trkpt lat="43.36371560120685" lon="11.309332367433841"><ele>334.5</ele><time>2026-04-04T10:14:22.999Z</time></trkpt><trkpt lat="43.363622848278794" lon="11.309456616559645"><ele>333.75</ele><time>2026-04-04T10:14:23.999Z</time></trkpt><trkpt lat="43.36351134367672" lon="11.309596554283946"><ele>333.0</ele><time>2026-04-04T10:14:24.999Z</time></trkpt><trkpt lat="43.363415725306766" lon="11.3097194603177"><ele>333.0</ele><time>2026-04-04T10:14:25.999Z</time></trkpt><trkpt lat="43.36333182002727" lon="11.309830205874537"><ele>333.0</ele><time>2026-04-04T10:14:26.999Z</time></trkpt><trkpt lat="43.36325556699609" lon="11.309925697489362"><ele>333.0</ele><time>2026-04-04T10:14:27.999Z</time></trkpt><trkpt lat="43.363174200438124" lon="11.310008023180048"><ele>333.0</ele><time>2026-04-04T10:14:28.999Z</time></trkpt><trkpt lat="43.36308045055986" lon="11.3100980170649"><ele>333.0</ele><time>2026-04-04T10:14:29.999Z</time></trkpt><trkpt lat="43.36298070129647" lon="11.31018428039596"><ele>334.2</ele><time>2026-04-04T10:14:30.999Z</time></trkpt><trkpt lat="43.362878524436596" lon="11.310270920547074"><ele>335.4</ele><time>2026-04-04T10:14:31.999Z</time></trkpt><trkpt lat="43.36279193640634" lon="11.310349147206116"><ele>336.59999999999997</ele><time>2026-04-04T10:14:32.999Z</time></trkpt><trkpt lat="43.36271702233107" lon="11.310424352342158"><ele>337.79999999999995</ele><time>2026-04-04T10:14:33.999Z</time></trkpt><trkpt lat="43.36265767228647" lon="11.310513180071439"><ele>339.0</ele><time>2026-04-04T10:14:34.999Z</time></trkpt><trkpt lat="43.362625872043935" lon="11.310629415496056"><ele>339.75</ele><time>2026-04-04T10:14:35.999Z</time></trkpt><trkpt lat="43.36258356624581" lon="11.310756059985733"><ele>340.5</ele><time>2026-04-04T10:14:36.999Z</time></trkpt><trkpt lat="43.362531029579266" lon="11.310902243858274"><ele>341.25</ele><time>2026-04-04T10:14:37.999Z</time></trkpt><trkpt lat="43.362479885913665" lon="11.311067149548212"><ele>342.0</ele><time>2026-04-04T10:14:38.999Z</time></trkpt><trkpt lat="43.362422196806584" lon="11.31124208562469"><ele>342.0</ele><time>2026-04-04T10:14:39.999Z</time></trkpt><trkpt lat="43.362368616079316" lon="11.311403551003638"><ele>342.0</ele><time>2026-04-04T10:14:40.999Z</time></trkpt><trkpt lat="43.362344147057435" lon="11.311539203733313"><ele>342.0</ele><time>2026-04-04T10:14:41.999Z</time></trkpt><trkpt lat="43.36231309933323" lon="11.311657317235603"><ele>342.0</ele><time>2026-04-04T10:14:42.999Z</time></trkpt><trkpt lat="43.36228153609712" lon="11.31175784583323"><ele>342.0</ele><time>2026-04-04T10:14:43.999Z</time></trkpt><trkpt lat="43.36226791284857" lon="11.31185529005233"><ele>341.40000000000003</ele><time>2026-04-04T10:14:44.999Z</time></trkpt><trkpt lat="43.36223412540247" lon="11.311985121898484"><ele>340.8</ele><time>2026-04-04T10:14:46.999Z</time></trkpt><trkpt lat="43.36212308850765" lon="11.312051345093558"><ele>340.2</ele><time>2026-04-04T10:15:26Z</time></trkpt><trkpt lat="43.36204515202659" lon="11.312101181669195"><ele>339.6</ele><time>2026-04-04T10:15:27Z</time></trkpt><trkpt lat="43.36197076419045" lon="11.312148749096155"><ele>339.0</ele><time>2026-04-04T10:15:28Z</time></trkpt><trkpt lat="43.36189250371132" lon="11.312198573455593"><ele>337.75</ele><time>2026-04-04T10:15:29Z</time></trkpt><trkpt lat="43.36179970399098" lon="11.312257641321732"><ele>336.5</ele><time>2026-04-04T10:15:30Z</time></trkpt><trkpt lat="43.36169181993124" lon="11.312326310434935"><ele>335.25</ele><time>2026-04-04T10:15:31Z</time></trkpt><trkpt lat="43.36158463277399" lon="11.312394536064888"><ele>334.0</ele><time>2026-04-04T10:15:32Z</time></trkpt><trkpt lat="43.3614694891435" lon="11.312467826059724"><ele>333.75</ele><time>2026-04-04T10:15:33Z</time></trkpt><trkpt lat="43.361352334475875" lon="11.312543841026324"><ele>333.5</ele><time>2026-04-04T10:15:34Z</time></trkpt><trkpt lat="43.36124119714212" lon="11.312617667437202"><ele>333.25</ele><time>2026-04-04T10:15:35Z</time></trkpt><trkpt lat="43.361131894611546" lon="11.312698821728352"><ele>333.0</ele><time>2026-04-04T10:15:36Z</time></trkpt><trkpt lat="43.36102319305346" lon="11.312793520182602"><ele>333.0</ele><time>2026-04-04T10:15:37Z</time></trkpt><trkpt lat="43.36092663976698" lon="11.312917245625744"><ele>333.0</ele><time>2026-04-04T10:15:38Z</time></trkpt><trkpt lat="43.360809535107194" lon="11.313004733828599"><ele>333.0</ele><time>2026-04-04T10:15:39Z</time></trkpt><trkpt lat="43.36069911025153" lon="11.313109980097714"><ele>333.0</ele><time>2026-04-04T10:15:40Z</time></trkpt><trkpt lat="43.36059185577181" lon="11.313206992487066"><ele>334.0</ele><time>2026-04-04T10:15:41Z</time></trkpt><trkpt lat="43.3604847626534" lon="11.313291209284914"><ele>335.0</ele><time>2026-04-04T10:15:42Z</time></trkpt><trkpt lat="43.3603948405071" lon="11.313384821716513"><ele>336.0</ele><time>2026-04-04T10:15:43Z</time></trkpt><trkpt lat="43.360305876526716" lon="11.313440088953898"><ele>337.0</ele><time>2026-04-04T10:15:44Z</time></trkpt><trkpt lat="43.36022274096719" lon="11.313494631762273"><ele>338.0</ele><time>2026-04-04T10:15:45Z</time></trkpt><trkpt lat="43.3601503939494" lon="11.31355359795713"><ele>338.0</ele><time>2026-04-04T10:15:46Z</time></trkpt><trkpt lat="43.36007536460268" lon="11.313621704395112"><ele>338.0</ele><time>2026-04-04T10:15:47Z</time></trkpt><trkpt lat="43.35999978611997" lon="11.313706634900553"><ele>338.0</ele><time>2026-04-04T10:15:48Z</time></trkpt><trkpt lat="43.35991895058746" lon="11.313798338787763"><ele>338.0</ele><time>2026-04-04T10:15:49Z</time></trkpt><trkpt lat="43.35983796928874" lon="11.313896301207357"><ele>338.0</ele><time>2026-04-04T10:15:50Z</time></trkpt><trkpt lat="43.35976234171139" lon="11.313989317627032"><ele>338.4</ele><time>2026-04-04T10:15:51Z</time></trkpt><trkpt lat="43.35968876887056" lon="11.31407868741717"><ele>338.79999999999995</ele><time>2026-04-04T10:15:52Z</time></trkpt><trkpt lat="43.3596167427962" lon="11.314161797570886"><ele>339.2</ele><time>2026-04-04T10:15:53Z</time></trkpt><trkpt lat="43.359538385655156" lon="11.314246557347257"><ele>339.6</ele><time>2026-04-04T10:15:54Z</time></trkpt><trkpt lat="43.35945907323839" lon="11.314337431187568"><ele>340.0</ele><time>2026-04-04T10:15:55Z</time></trkpt><trkpt lat="43.359382449345546" lon="11.314412792712867"><ele>340.0</ele><time>2026-04-04T10:15:56Z</time></trkpt><trkpt lat="43.35931026568396" lon="11.314478035168214"><ele>340.0</ele><time>2026-04-04T10:15:57Z</time></trkpt><trkpt lat="43.35923800656546" lon="11.314533501300325"><ele>340.0</ele><time>2026-04-04T10:15:58Z</time></trkpt><trkpt lat="43.35915304243615" lon="11.314558649532922"><ele>340.0</ele><time>2026-04-04T10:15:59Z</time></trkpt><trkpt lat="43.35908018520213" lon="11.314598631436631"><ele>340.0</ele><time>2026-04-04T10:16:00Z</time></trkpt><trkpt lat="43.35901864217433" lon="11.314628152126106"><ele>340.0</ele><time>2026-04-04T10:16:01Z</time></trkpt><trkpt lat="43.35890790909257" lon="11.314669278807386"><ele>341.2</ele><time>2026-04-04T10:16:03Z</time></trkpt><trkpt lat="43.35879119622834" lon="11.314692940411293"><ele>342.4</ele><time>2026-04-04T10:16:04.999Z</time></trkpt><trkpt lat="43.358657360451474" lon="11.314705748438058"><ele>343.6</ele><time>2026-04-04T10:16:06.999Z</time></trkpt><trkpt lat="43.35858325006222" lon="11.314710615444854"><ele>344.8</ele><time>2026-04-04T10:16:07.999Z</time></trkpt><trkpt lat="43.358510798829506" lon="11.314714725536636"><ele>346.0</ele><time>2026-04-04T10:16:08.999Z</time></trkpt><trkpt lat="43.358401752660654" lon="11.314719534706574"><ele>346.0</ele><time>2026-04-04T10:16:10.999Z</time></trkpt><trkpt lat="43.35831101930551" lon="11.314722609986926"><ele>346.0</ele><time>2026-04-04T10:16:12.999Z</time></trkpt><trkpt lat="43.35818361373977" lon="11.31472692821785"><ele>346.0</ele><time>2026-04-04T10:16:14.999Z</time></trkpt><trkpt lat="43.35809439759346" lon="11.314729694903752"><ele>346.0</ele><time>2026-04-04T10:16:15.999Z</time></trkpt><trkpt lat="43.35799587037851" lon="11.314730716893173"><ele>346.0</ele><time>2026-04-04T10:16:16.999Z</time></trkpt><trkpt lat="43.357896659807686" lon="11.31473174596999"><ele>347.20000000000005</ele><time>2026-04-04T10:16:17.999Z</time></trkpt><trkpt lat="43.357805568789765" lon="11.314731885668197"><ele>348.40000000000003</ele><time>2026-04-04T10:16:18.999Z</time></trkpt><trkpt lat="43.35772164608485" lon="11.314731055340417"><ele>349.6</ele><time>2026-04-04T10:16:19.999Z</time></trkpt><trkpt lat="43.3576305343133" lon="11.314728019469568"><ele>350.8</ele><time>2026-04-04T10:16:20.999Z</time></trkpt><trkpt lat="43.35753873238064" lon="11.31472444753516"><ele>352.0</ele><time>2026-04-04T10:16:21.999Z</time></trkpt><trkpt lat="43.357447191999896" lon="11.314720885791298"><ele>352.0</ele><time>2026-04-04T10:16:22.999Z</time></trkpt><trkpt lat="43.35735243154349" lon="11.314717198749767"><ele>352.0</ele><time>2026-04-04T10:16:23.999Z</time></trkpt><trkpt lat="43.35725573201162" lon="11.314713436257806"><ele>352.0</ele><time>2026-04-04T10:16:24.999Z</time></trkpt><trkpt lat="43.35714443150675" lon="11.314709105636828"><ele>352.0</ele><time>2026-04-04T10:16:25.999Z</time></trkpt><trkpt lat="43.357025853122224" lon="11.31470526526728"><ele>352.0</ele><time>2026-04-04T10:16:26.999Z</time></trkpt><trkpt lat="43.356919583374044" lon="11.314701709383488"><ele>351.8</ele><time>2026-04-04T10:16:27.999Z</time></trkpt><trkpt lat="43.35681410233525" lon="11.31469817988392"><ele>351.6</ele><time>2026-04-04T10:16:28.999Z</time></trkpt><trkpt lat="43.35670479926207" lon="11.314694522495133"><ele>351.40000000000003</ele><time>2026-04-04T10:16:29.999Z</time></trkpt><trkpt lat="43.356593525330865" lon="11.31469079916105"><ele>351.20000000000005</ele><time>2026-04-04T10:16:30.999Z</time></trkpt><trkpt lat="43.35649694759031" lon="11.314687567587727"><ele>351.0</ele><time>2026-04-04T10:16:31.999Z</time></trkpt><trkpt lat="43.35640493576532" lon="11.314678149033869"><ele>350.8</ele><time>2026-04-04T10:16:32.999Z</time></trkpt><trkpt lat="43.35630868937746" lon="11.314655186602588"><ele>350.6</ele><time>2026-04-04T10:16:33.999Z</time></trkpt><trkpt lat="43.3561964096894" lon="11.314615324168479"><ele>350.4</ele><time>2026-04-04T10:16:34.999Z</time></trkpt><trkpt lat="43.35609381147485" lon="11.314563726715539"><ele>350.2</ele><time>2026-04-04T10:16:35.999Z</time></trkpt><trkpt lat="43.355990391441324" lon="11.314507203938616"><ele>350.0</ele><time>2026-04-04T10:16:36.999Z</time></trkpt><trkpt lat="43.35588103094432" lon="11.314444087628516"><ele>350.0</ele><time>2026-04-04T10:16:37.999Z</time></trkpt><trkpt lat="43.35578244557662" lon="11.314386825210336"><ele>350.0</ele><time>2026-04-04T10:16:38.999Z</time></trkpt><trkpt lat="43.35568258185656" lon="11.314327563289144"><ele>350.0</ele><time>2026-04-04T10:16:39.999Z</time></trkpt><trkpt lat="43.355578070995605" lon="11.314265543583373"><ele>350.0</ele><time>2026-04-04T10:16:40.999Z</time></trkpt><trkpt lat="43.35548045780035" lon="11.314207617140944"><ele>350.0</ele><time>2026-04-04T10:16:41.999Z</time></trkpt><trkpt lat="43.355383184891586" lon="11.314149892664084"><ele>350.4</ele><time>2026-04-04T10:16:42.999Z</time></trkpt><trkpt lat="43.35529257160654" lon="11.314096120988031"><ele>350.8</ele><time>2026-04-04T10:16:43.999Z</time></trkpt><trkpt lat="43.35519799230898" lon="11.314039628157834"><ele>351.20000000000005</ele><time>2026-04-04T10:16:44.999Z</time></trkpt><trkpt lat="43.355106872930904" lon="11.313985333625048"><ele>351.6</ele><time>2026-04-04T10:16:45.999Z</time></trkpt><trkpt lat="43.3550223073329" lon="11.31393494425271"><ele>352.0</ele><time>2026-04-04T10:16:46.999Z</time></trkpt><trkpt lat="43.35493753091414" lon="11.313884503975023"><ele>351.0</ele><time>2026-04-04T10:16:47.999Z</time></trkpt><trkpt lat="43.35483407331857" lon="11.313822951524562"><ele>350.0</ele><time>2026-04-04T10:16:48.999Z</time></trkpt><trkpt lat="43.35471434567627" lon="11.313751719156066"><ele>349.0</ele><time>2026-04-04T10:16:49.999Z</time></trkpt><trkpt lat="43.354593172205384" lon="11.313679925010685"><ele>348.0</ele><time>2026-04-04T10:16:50.999Z</time></trkpt><trkpt lat="43.35448430679805" lon="11.313615803234615"><ele>348.0</ele><time>2026-04-04T10:16:51.999Z</time></trkpt><trkpt lat="43.35437031277437" lon="11.313548660772632"><ele>348.0</ele><time>2026-04-04T10:16:52.999Z</time></trkpt><trkpt lat="43.35424542312007" lon="11.313475100741654"><ele>348.0</ele><time>2026-04-04T10:16:53.999Z</time></trkpt><trkpt lat="43.35414281481326" lon="11.31341446707605"><ele>348.0</ele><time>2026-04-04T10:16:54.999Z</time></trkpt><trkpt lat="43.354036912019446" lon="11.313351424427657"><ele>348.0</ele><time>2026-04-04T10:16:55.999Z</time></trkpt><trkpt lat="43.35393050234232" lon="11.313296388256575"><ele>348.0</ele><time>2026-04-04T10:16:56.999Z</time></trkpt><trkpt lat="43.35381951686471" lon="11.313246947107988"><ele>348.0</ele><time>2026-04-04T10:16:57.999Z</time></trkpt><trkpt lat="43.35371178397427" lon="11.313204003698473"><ele>348.0</ele><time>2026-04-04T10:16:58.999Z</time></trkpt><trkpt lat="43.353584889082" lon="11.313161048775223"><ele>348.25</ele><time>2026-04-04T10:16:59.999Z</time></trkpt><trkpt lat="43.35346138638375" lon="11.313128226615936"><ele>348.5</ele><time>2026-04-04T10:17:00.999Z</time></trkpt><trkpt lat="43.353336515735435" lon="11.313096552798624"><ele>348.75</ele><time>2026-04-04T10:17:01.999Z</time></trkpt><trkpt lat="43.35320875871497" lon="11.313065294979323"><ele>349.0</ele><time>2026-04-04T10:17:02.999Z</time></trkpt><trkpt lat="43.35311119689739" lon="11.313041424916879"><ele>350.8333333333333</ele><time>2026-04-04T10:17:03.999Z</time></trkpt><trkpt lat="43.35303005813778" lon="11.313022757159628"><ele>352.66666666666663</ele><time>2026-04-04T10:17:04.999Z</time></trkpt><trkpt lat="43.35296625940115" lon="11.31300808878959"><ele>354.5</ele><time>2026-04-04T10:17:05.999Z</time></trkpt><trkpt lat="43.35287832057336" lon="11.312987870289591"><ele>356.3333333333333</ele><time>2026-04-04T10:17:08Z</time></trkpt><trkpt lat="43.3527992380387" lon="11.31296987216585"><ele>358.1666666666667</ele><time>2026-04-04T10:17:11Z</time></trkpt><trkpt lat="43.35271491496098" lon="11.312951640951503"><ele>360.0</ele><time>2026-04-04T10:17:13Z</time></trkpt><trkpt lat="43.3526446255162" lon="11.312936443929175"><ele>360.0</ele><time>2026-04-04T10:17:15Z</time></trkpt><trkpt lat="43.352538237430224" lon="11.312913442146812"><ele>360.0</ele><time>2026-04-04T10:17:17Z</time></trkpt><trkpt lat="43.35244369884547" lon="11.312895164070124"><ele>360.0</ele><time>2026-04-04T10:17:19Z</time></trkpt><trkpt lat="43.35237786218345" lon="11.312882513695918"><ele>360.0</ele><time>2026-04-04T10:17:20Z</time></trkpt><trkpt lat="43.35230381212526" lon="11.312868833732471"><ele>360.0</ele><time>2026-04-04T10:17:21Z</time></trkpt><trkpt lat="43.352231212519754" lon="11.31285798420629"><ele>360.0</ele><time>2026-04-04T10:17:22Z</time></trkpt><trkpt lat="43.35216348597883" lon="11.3128485339474"><ele>359.8333333333333</ele><time>2026-04-04T10:17:23Z</time></trkpt><trkpt lat="43.35208360362088" lon="11.3128385833347"><ele>359.6666666666667</ele><time>2026-04-04T10:17:24Z</time></trkpt><trkpt lat="43.35200769448332" lon="11.312837456988394"><ele>359.5</ele><time>2026-04-04T10:17:25Z</time></trkpt><trkpt lat="43.351925463232654" lon="11.312844445496642"><ele>359.33333333333337</ele><time>2026-04-04T10:17:26Z</time></trkpt><trkpt lat="43.35183944480503" lon="11.312853760272587"><ele>359.1666666666667</ele><time>2026-04-04T10:17:27Z</time></trkpt><trkpt lat="43.351756725883355" lon="11.312858481205998"><ele>359.0</ele><time>2026-04-04T10:17:28Z</time></trkpt><trkpt lat="43.351683289337714" lon="11.31284788394602"><ele>359.0</ele><time>2026-04-04T10:17:29Z</time></trkpt><trkpt lat="43.3516072257478" lon="11.312815911275898"><ele>359.0</ele><time>2026-04-04T10:17:30Z</time></trkpt><trkpt lat="43.35151881370349" lon="11.312782666890785"><ele>359.0</ele><time>2026-04-04T10:17:31Z</time></trkpt><trkpt lat="43.35142313127543" lon="11.312742470069344"><ele>359.0</ele><time>2026-04-04T10:17:32Z</time></trkpt><trkpt lat="43.35131410980364" lon="11.312701238878166"><ele>359.0</ele><time>2026-04-04T10:17:33Z</time></trkpt><trkpt lat="43.35117216831911" lon="11.312660175443861"><ele>358.25</ele><time>2026-04-04T10:17:34Z</time></trkpt><trkpt lat="43.35103565068629" lon="11.312625241362067"><ele>357.5</ele><time>2026-04-04T10:17:35Z</time></trkpt><trkpt lat="43.350894162539944" lon="11.312591061100642"><ele>356.75</ele><time>2026-04-04T10:17:36Z</time></trkpt><trkpt lat="43.350768667545715" lon="11.312561222394919"><ele>356.0</ele><time>2026-04-04T10:17:37Z</time></trkpt><trkpt lat="43.35065190262369" lon="11.31253349367079"><ele>356.8</ele><time>2026-04-04T10:17:38Z</time></trkpt><trkpt lat="43.35053426994577" lon="11.312505974951574"><ele>357.6</ele><time>2026-04-04T10:17:39Z</time></trkpt><trkpt lat="43.350419205831464" lon="11.312480598334485"><ele>358.4</ele><time>2026-04-04T10:17:40Z</time></trkpt><trkpt lat="43.3503170872472" lon="11.31245807679675"><ele>359.2</ele><time>2026-04-04T10:17:41Z</time></trkpt><trkpt lat="43.35021532585995" lon="11.312435634013537"><ele>360.0</ele><time>2026-04-04T10:17:42Z</time></trkpt><trkpt lat="43.350115228595826" lon="11.312413558227984"><ele>360.0</ele><time>2026-04-04T10:17:43Z</time></trkpt><trkpt lat="43.35002107830393" lon="11.312392454265199"><ele>360.0</ele><time>2026-04-04T10:17:44Z</time></trkpt><trkpt lat="43.34993481486151" lon="11.312371475501193"><ele>360.0</ele><time>2026-04-04T10:17:45Z</time></trkpt><trkpt lat="43.349860967931626" lon="11.312357887861241"><ele>360.0</ele><time>2026-04-04T10:17:46Z</time></trkpt><trkpt lat="43.3497945250418" lon="11.312348804918015"><ele>360.0</ele><time>2026-04-04T10:17:47Z</time></trkpt><trkpt lat="43.349680153327455" lon="11.312394515689656"><ele>360.0</ele><time>2026-04-04T10:17:49Z</time></trkpt><trkpt lat="43.34958329648043" lon="11.312425156864439"><ele>360.8333333333333</ele><time>2026-04-04T10:17:51Z</time></trkpt><trkpt lat="43.349492890372694" lon="11.312449077258456"><ele>361.6666666666667</ele><time>2026-04-04T10:17:53Z</time></trkpt><trkpt lat="43.34941976630591" lon="11.312430853231714"><ele>362.5</ele><time>2026-04-04T10:17:54Z</time></trkpt><trkpt lat="43.34934041334678" lon="11.312394425749947"><ele>363.33333333333337</ele><time>2026-04-04T10:17:55Z</time></trkpt><trkpt lat="43.34926568507379" lon="11.31236588990625"><ele>364.1666666666667</ele><time>2026-04-04T10:17:56Z</time></trkpt><trkpt lat="43.34918627199339" lon="11.312347809798023"><ele>365.0</ele><time>2026-04-04T10:17:57Z</time></trkpt><trkpt lat="43.3491044009504" lon="11.312334451306898"><ele>365.0</ele><time>2026-04-04T10:17:58Z</time></trkpt><trkpt lat="43.34902982567055" lon="11.312302903809915"><ele>365.0</ele><time>2026-04-04T10:17:59Z</time></trkpt><trkpt lat="43.34897946554853" lon="11.312197089612624"><ele>365.0</ele><time>2026-04-04T10:18:00Z</time></trkpt><trkpt lat="43.34889156985284" lon="11.312095352640037"><ele>365.0</ele><time>2026-04-04T10:18:01Z</time></trkpt><trkpt lat="43.34876911130721" lon="11.311944713491894"><ele>365.0</ele><time>2026-04-04T10:18:02Z</time></trkpt><trkpt lat="43.34865704835413" lon="11.311778753914632"><ele>365.0</ele><time>2026-04-04T10:18:03Z</time></trkpt><trkpt lat="43.34855673781594" lon="11.31159625116581"><ele>365.0</ele><time>2026-04-04T10:18:04Z</time></trkpt><trkpt lat="43.34847156176768" lon="11.311412432235102"><ele>365.0</ele><time>2026-04-04T10:18:05Z</time></trkpt><trkpt lat="43.34838152232676" lon="11.311215353023718"><ele>365.0</ele><time>2026-04-04T10:18:06Z</time></trkpt><trkpt lat="43.3482971645769" lon="11.311031230199722"><ele>365.0</ele><time>2026-04-04T10:18:07Z</time></trkpt><trkpt lat="43.34820841589289" lon="11.310839282093113"><ele>365.0</ele><time>2026-04-04T10:18:08Z</time></trkpt><trkpt lat="43.34812187865343" lon="11.310653733947618"><ele>363.33333333333337</ele><time>2026-04-04T10:18:09Z</time></trkpt><trkpt lat="43.34803644591581" lon="11.310471145604843"><ele>361.6666666666667</ele><time>2026-04-04T10:18:10Z</time></trkpt><trkpt lat="43.34795278606603" lon="11.310295150177692"><ele>360.0</ele><time>2026-04-04T10:18:11Z</time></trkpt><trkpt lat="43.34787067865554" lon="11.310139690423895"><ele>360.0</ele><time>2026-04-04T10:18:12Z</time></trkpt><trkpt lat="43.34778686556723" lon="11.30999374500384"><ele>360.0</ele><time>2026-04-04T10:18:13Z</time></trkpt><trkpt lat="43.347702275858616" lon="11.309865775697318"><ele>360.0</ele><time>2026-04-04T10:18:14Z</time></trkpt><trkpt lat="43.34761891579298" lon="11.309743210041603"><ele>360.0</ele><time>2026-04-04T10:18:15Z</time></trkpt><trkpt lat="43.34753716085454" lon="11.309628674451213"><ele>359.5</ele><time>2026-04-04T10:18:16Z</time></trkpt><trkpt lat="43.34746177716557" lon="11.309525706339496"><ele>359.0</ele><time>2026-04-04T10:18:17Z</time></trkpt><trkpt lat="43.34739386164703" lon="11.309430837009465"><ele>358.5</ele><time>2026-04-04T10:18:18Z</time></trkpt><trkpt lat="43.34734222405687" lon="11.309349968374393"><ele>358.0</ele><time>2026-04-04T10:18:19Z</time></trkpt><trkpt lat="43.34733079340249" lon="11.30925109961512"><ele>357.5</ele><time>2026-04-04T10:18:20Z</time></trkpt><trkpt lat="43.34731221743727" lon="11.309147703747385"><ele>357.0</ele><time>2026-04-04T10:18:21Z</time></trkpt><trkpt lat="43.34725787289272" lon="11.30905594567931"><ele>357.6</ele><time>2026-04-04T10:18:22Z</time></trkpt><trkpt lat="43.34716355169706" lon="11.308997795744684"><ele>358.20000000000005</ele><time>2026-04-04T10:18:23Z</time></trkpt><trkpt lat="43.347060777888096" lon="11.30897086779038"><ele>358.8</ele><time>2026-04-04T10:18:24Z</time></trkpt><trkpt lat="43.34696620484488" lon="11.30891549106121"><ele>359.4</ele><time>2026-04-04T10:18:25Z</time></trkpt><trkpt lat="43.34688098232565" lon="11.308813557052652"><ele>360.0</ele><time>2026-04-04T10:18:26Z</time></trkpt><trkpt lat="43.34679101333904" lon="11.30870480923162"><ele>358.8</ele><time>2026-04-04T10:18:27Z</time></trkpt><trkpt lat="43.346705037655106" lon="11.308608625154987"><ele>357.6</ele><time>2026-04-04T10:18:28Z</time></trkpt><trkpt lat="43.346642256933286" lon="11.308486772006754"><ele>356.4</ele><time>2026-04-04T10:18:29Z</time></trkpt><trkpt lat="43.34655867723082" lon="11.308400977749887"><ele>355.2</ele><time>2026-04-04T10:18:30Z</time></trkpt><trkpt lat="43.34647584569182" lon="11.308322886795773"><ele>354.0</ele><time>2026-04-04T10:18:30.999Z</time></trkpt><trkpt lat="43.346392584819384" lon="11.308248960942668"><ele>353.79999999999995</ele><time>2026-04-04T10:18:31.999Z</time></trkpt><trkpt lat="43.3463094632322" lon="11.308181235449506"><ele>353.59999999999997</ele><time>2026-04-04T10:18:32.999Z</time></trkpt><trkpt lat="43.34622543874019" lon="11.308116080121138"><ele>353.4</ele><time>2026-04-04T10:18:33.999Z</time></trkpt><trkpt lat="43.34614886890086" lon="11.308056807523338"><ele>353.2</ele><time>2026-04-04T10:18:34.999Z</time></trkpt><trkpt lat="43.34607064270651" lon="11.30800148576143"><ele>353.0</ele><time>2026-04-04T10:18:35.999Z</time></trkpt><trkpt lat="43.34599043557938" lon="11.307943871546144"><ele>351.83333333333337</ele><time>2026-04-04T10:18:36.999Z</time></trkpt><trkpt lat="43.34591411207223" lon="11.307889047332264"><ele>350.6666666666667</ele><time>2026-04-04T10:18:37.999Z</time></trkpt><trkpt lat="43.34583247319076" lon="11.30785131812175"><ele>349.5</ele><time>2026-04-04T10:18:38.999Z</time></trkpt><trkpt lat="43.345760118220525" lon="11.307792044203829"><ele>348.3333333333333</ele><time>2026-04-04T10:18:39.999Z</time></trkpt><trkpt lat="43.34568266456993" lon="11.30773250072441"><ele>347.16666666666663</ele><time>2026-04-04T10:18:40.999Z</time></trkpt><trkpt lat="43.34559655259541" lon="11.307669304285774"><ele>346.0</ele><time>2026-04-04T10:18:41.999Z</time></trkpt><trkpt lat="43.34550670545145" lon="11.307603407738004"><ele>345.0</ele><time>2026-04-04T10:18:42.999Z</time></trkpt><trkpt lat="43.34542492106276" lon="11.307513947629493"><ele>344.0</ele><time>2026-04-04T10:18:43.999Z</time></trkpt><trkpt lat="43.34532990365485" lon="11.30743690124421"><ele>343.0</ele><time>2026-04-04T10:18:44.999Z</time></trkpt><trkpt lat="43.345244499281605" lon="11.307368315631248"><ele>342.0</ele><time>2026-04-04T10:18:45.999Z</time></trkpt><trkpt lat="43.345164195854764" lon="11.307305204350774"><ele>341.0</ele><time>2026-04-04T10:18:46.999Z</time></trkpt><trkpt lat="43.345087862624396" lon="11.307247745857373"><ele>340.6666666666667</ele><time>2026-04-04T10:18:47.999Z</time></trkpt><trkpt lat="43.34501067375884" lon="11.307191668113596"><ele>340.33333333333337</ele><time>2026-04-04T10:18:48.999Z</time></trkpt><trkpt lat="43.3449368224565" lon="11.307153659740974"><ele>340.0</ele><time>2026-04-04T10:18:49.999Z</time></trkpt><trkpt lat="43.344871109329375" lon="11.307085330702645"><ele>339.6666666666667</ele><time>2026-04-04T10:18:50.999Z</time></trkpt><trkpt lat="43.34479748133836" lon="11.307043997872901"><ele>339.3333333333333</ele><time>2026-04-04T10:18:52.999Z</time></trkpt><trkpt lat="43.344738438904045" lon="11.306981902665624"><ele>339.0</ele><time>2026-04-04T10:18:56.999Z</time></trkpt><trkpt lat="43.34470930391062" lon="11.306889152094458"><ele>339.0</ele><time>2026-04-04T10:18:59.999Z</time></trkpt><trkpt lat="43.344655303820645" lon="11.306728303198994"><ele>339.0</ele><time>2026-04-04T10:19:01.999Z</time></trkpt><trkpt lat="43.34461728448662" lon="11.306613821239683"><ele>339.0</ele><time>2026-04-04T10:19:02.999Z</time></trkpt><trkpt lat="43.344543095401065" lon="11.306542295720101"><ele>339.0</ele><time>2026-04-04T10:19:03.999Z</time></trkpt><trkpt lat="43.344453490270496" lon="11.306558693459376"><ele>339.0</ele><time>2026-04-04T10:19:04.999Z</time></trkpt><trkpt lat="43.34437315039592" lon="11.306553575813997"><ele>339.0</ele><time>2026-04-04T10:19:05.999Z</time></trkpt><trkpt lat="43.34428000775237" lon="11.306615335870335"><ele>339.0</ele><time>2026-04-04T10:19:06.999Z</time></trkpt><trkpt lat="43.34418508955436" lon="11.306526591874544"><ele>339.0</ele><time>2026-04-04T10:19:07.999Z</time></trkpt><trkpt lat="43.34408416468497" lon="11.306452153156968"><ele>339.0</ele><time>2026-04-04T10:19:08.999Z</time></trkpt><trkpt lat="43.343980188721964" lon="11.306375568690367"><ele>339.0</ele><time>2026-04-04T10:19:09.999Z</time></trkpt><trkpt lat="43.3437741816054" lon="11.306227218805628"><ele>339.0</ele><time>2026-04-04T10:19:11.999Z</time></trkpt><trkpt lat="43.34366610891092" lon="11.306148775107813"><ele>339.0</ele><time>2026-04-04T10:19:12.999Z</time></trkpt><trkpt lat="43.343572531204785" lon="11.306078544500918"><ele>339.0</ele><time>2026-04-04T10:19:14Z</time></trkpt><trkpt lat="43.3434952878598" lon="11.306018622506606"><ele>339.0</ele><time>2026-04-04T10:19:15Z</time></trkpt><trkpt lat="43.343415239650675" lon="11.305951426618368"><ele>339.0</ele><time>2026-04-04T10:19:17Z</time></trkpt><trkpt lat="43.343344908580576" lon="11.305879629414047"><ele>339.0</ele><time>2026-04-04T10:19:23Z</time></trkpt><trkpt lat="43.34327086695306" lon="11.30577474771922"><ele>339.0</ele><time>2026-04-04T10:19:25Z</time></trkpt><trkpt lat="43.34321287624351" lon="11.305734274739107"><ele>339.0</ele><time>2026-04-04T10:19:26Z</time></trkpt><trkpt lat="43.34314203312118" lon="11.30570937971589"><ele>339.0</ele><time>2026-04-04T10:19:27Z</time></trkpt><trkpt lat="43.343074638303264" lon="11.305682468861843"><ele>339.0</ele><time>2026-04-04T10:19:28Z</time></trkpt><trkpt lat="43.34297373968823" lon="11.305606115531921"><ele>339.0</ele><time>2026-04-04T10:19:30Z</time></trkpt><trkpt lat="43.342869244654715" lon="11.30553173515903"><ele>339.0</ele><time>2026-04-04T10:19:32Z</time></trkpt><trkpt lat="43.342791856477035" lon="11.3055412227534"><ele>339.0</ele><time>2026-04-04T10:19:33Z</time></trkpt><trkpt lat="43.34272011904292" lon="11.305583159464907"><ele>338.57142857142856</ele><time>2026-04-04T10:19:34Z</time></trkpt><trkpt lat="43.34266910370627" lon="11.305668251506892"><ele>338.14285714285717</ele><time>2026-04-04T10:19:35Z</time></trkpt><trkpt lat="43.34262429382445" lon="11.305735222520786"><ele>337.7142857142857</ele><time>2026-04-04T10:19:36Z</time></trkpt><trkpt lat="43.34258205348977" lon="11.305805899590144"><ele>337.2857142857143</ele><time>2026-04-04T10:19:37Z</time></trkpt><trkpt lat="43.34253523957152" lon="11.305878561624128"><ele>336.8571428571429</ele><time>2026-04-04T10:19:38Z</time></trkpt><trkpt lat="43.342476285670955" lon="11.305935189455289"><ele>336.42857142857144</ele><time>2026-04-04T10:19:39Z</time></trkpt><trkpt lat="43.34240427263313" lon="11.305961525318267"><ele>336.0</ele><time>2026-04-04T10:19:40Z</time></trkpt><trkpt lat="43.342328088760716" lon="11.305929644628486"><ele>336.0</ele><time>2026-04-04T10:19:41Z</time></trkpt><trkpt lat="43.34220915226634" lon="11.305941428741342"><ele>336.0</ele><time>2026-04-04T10:19:43Z</time></trkpt><trkpt lat="43.342108570479816" lon="11.305950624317614"><ele>336.0</ele><time>2026-04-04T10:19:45Z</time></trkpt><trkpt lat="43.34219089005276" lon="11.306204720713461"><ele>336.0</ele><time>2026-04-04T10:22:04Z</time></trkpt><trkpt lat="43.34225396554309" lon="11.306186071053716"><ele>336.0</ele><time>2026-04-04T10:22:04.999Z</time></trkpt><trkpt lat="43.34227976779169" lon="11.306009109425474"><ele>336.0</ele><time>2026-04-04T10:22:05.999Z</time></trkpt><trkpt lat="43.342363278909914" lon="11.305991961600226"><ele>336.0</ele><time>2026-04-04T10:22:07.999Z</time></trkpt><trkpt lat="43.34242706998059" lon="11.306003015893168"><ele>336.0</ele><time>2026-04-04T10:22:09.999Z</time></trkpt><trkpt lat="43.34251598999078" lon="11.305984011587013"><ele>336.0</ele><time>2026-04-04T10:22:12.999Z</time></trkpt><trkpt lat="43.34262074406522" lon="11.30595059044941"><ele>336.0</ele><time>2026-04-04T10:22:14.999Z</time></trkpt><trkpt lat="43.34270333025611" lon="11.305940459480688"><ele>336.0</ele><time>2026-04-04T10:22:16.999Z</time></trkpt><trkpt lat="43.342767328323546" lon="11.305950308633788"><ele>336.0</ele><time>2026-04-04T10:22:18.999Z</time></trkpt><trkpt lat="43.34288837078672" lon="11.305933585627702"><ele>336.0</ele><time>2026-04-04T10:22:20.999Z</time></trkpt><trkpt lat="43.342950734409214" lon="11.305912923145014"><ele>336.0</ele><time>2026-04-04T10:22:21.999Z</time></trkpt><trkpt lat="43.342999046901014" lon="11.305782527913685"><ele>336.0</ele><time>2026-04-04T10:22:23.999Z</time></trkpt><trkpt lat="43.34298896722012" lon="11.305692002553046"><ele>336.0</ele><time>2026-04-04T10:22:24.999Z</time></trkpt><trkpt lat="43.34295680299412" lon="11.305605276117136"><ele>336.0</ele><time>2026-04-04T10:22:25.999Z</time></trkpt><trkpt lat="43.34289041072909" lon="11.305491355882381"><ele>336.0</ele><time>2026-04-04T10:22:27.999Z</time></trkpt><trkpt lat="43.342819345810454" lon="11.30538951762366"><ele>336.0</ele><time>2026-04-04T10:22:29.999Z</time></trkpt><trkpt lat="43.34273205093964" lon="11.305282894321563"><ele>336.0</ele><time>2026-04-04T10:22:31.999Z</time></trkpt><trkpt lat="43.34264361530243" lon="11.305177154843781"><ele>335.8</ele><time>2026-04-04T10:22:33.999Z</time></trkpt><trkpt lat="43.342553006315086" lon="11.305076125491846"><ele>335.6</ele><time>2026-04-04T10:22:35.999Z</time></trkpt><trkpt lat="43.342473035942426" lon="11.304966083451824"><ele>335.4</ele><time>2026-04-04T10:22:37.999Z</time></trkpt><trkpt lat="43.34240313982991" lon="11.304889210792743"><ele>335.2</ele><time>2026-04-04T10:22:39.999Z</time></trkpt><trkpt lat="43.342339901182854" lon="11.30480274596954"><ele>335.0</ele><time>2026-04-04T10:22:41.999Z</time></trkpt><trkpt lat="43.34228766610992" lon="11.304740474981495"><ele>335.0</ele><time>2026-04-04T10:22:43.999Z</time></trkpt><trkpt lat="43.34222356932514" lon="11.304681158236761"><ele>335.0</ele><time>2026-04-04T10:22:46.999Z</time></trkpt><trkpt lat="43.34216896707769" lon="11.304636344264988"><ele>335.0</ele><time>2026-04-04T10:22:50.999Z</time></trkpt><trkpt lat="43.34209537336863" lon="11.304553924830918"><ele>335.0</ele><time>2026-04-04T10:22:52.999Z</time></trkpt><trkpt lat="43.34203683774276" lon="11.304463000102203"><ele>335.0</ele><time>2026-04-04T10:22:54.999Z</time></trkpt><trkpt lat="43.341956963091775" lon="11.304364985949112"><ele>335.0</ele><time>2026-04-04T10:22:56.999Z</time></trkpt><trkpt lat="43.34191337618895" lon="11.304300993267642"><ele>333.83333333333337</ele><time>2026-04-04T10:22:57.999Z</time></trkpt><trkpt lat="43.34186979654578" lon="11.304231931588038"><ele>332.6666666666667</ele><time>2026-04-04T10:22:58.999Z</time></trkpt><trkpt lat="43.34184358133426" lon="11.30413818138079"><ele>331.5</ele><time>2026-04-04T10:22:59.999Z</time></trkpt><trkpt lat="43.34179918330222" lon="11.304052624285145"><ele>330.3333333333333</ele><time>2026-04-04T10:23:00.999Z</time></trkpt><trkpt lat="43.34175024515446" lon="11.30396619851128"><ele>329.16666666666663</ele><time>2026-04-04T10:23:01.999Z</time></trkpt><trkpt lat="43.34168844444575" lon="11.303887875418278"><ele>328.0</ele><time>2026-04-04T10:23:02.999Z</time></trkpt><trkpt lat="43.3416087568819" lon="11.303809065886202"><ele>327.75</ele><time>2026-04-04T10:23:03.999Z</time></trkpt><trkpt lat="43.34150395954772" lon="11.30370670976739"><ele>327.5</ele><time>2026-04-04T10:23:04.999Z</time></trkpt><trkpt lat="43.34139741745287" lon="11.303602861401112"><ele>327.25</ele><time>2026-04-04T10:23:05.999Z</time></trkpt><trkpt lat="43.341297218785094" lon="11.303505353766127"><ele>327.0</ele><time>2026-04-04T10:23:06.999Z</time></trkpt><trkpt lat="43.34118848991458" lon="11.303426014648965"><ele>326.5</ele><time>2026-04-04T10:23:07.999Z</time></trkpt><trkpt lat="43.34109346303332" lon="11.303321522608083"><ele>326.0</ele><time>2026-04-04T10:23:08.999Z</time></trkpt><trkpt lat="43.340998574473915" lon="11.303222220800805"><ele>325.5</ele><time>2026-04-04T10:23:09.999Z</time></trkpt><trkpt lat="43.34091305508268" lon="11.303126897336458"><ele>325.0</ele><time>2026-04-04T10:23:10.999Z</time></trkpt><trkpt lat="43.340828350471526" lon="11.303027716449304"><ele>325.0</ele><time>2026-04-04T10:23:11.999Z</time></trkpt><trkpt lat="43.34075108418876" lon="11.30291716259913"><ele>325.0</ele><time>2026-04-04T10:23:12.999Z</time></trkpt><trkpt lat="43.34066043253825" lon="11.302795204108874"><ele>325.0</ele><time>2026-04-04T10:23:13.999Z</time></trkpt><trkpt lat="43.34057714976512" lon="11.302682159669637"><ele>325.0</ele><time>2026-04-04T10:23:14.999Z</time></trkpt><trkpt lat="43.3404970462758" lon="11.302563343085"><ele>324.25</ele><time>2026-04-04T10:23:15.999Z</time></trkpt><trkpt lat="43.340424989210995" lon="11.302445843136148"><ele>323.5</ele><time>2026-04-04T10:23:16.999Z</time></trkpt><trkpt lat="43.34035606609595" lon="11.302328906142288"><ele>322.75</ele><time>2026-04-04T10:23:17.999Z</time></trkpt><trkpt lat="43.34029408960804" lon="11.302197056472087"><ele>322.0</ele><time>2026-04-04T10:23:18.999Z</time></trkpt><trkpt lat="43.34023478778567" lon="11.302061431569065"><ele>322.0</ele><time>2026-04-04T10:23:19.999Z</time></trkpt><trkpt lat="43.34017350479654" lon="11.301929087076216"><ele>322.0</ele><time>2026-04-04T10:23:20.999Z</time></trkpt><trkpt lat="43.340112674526964" lon="11.301804058107638"><ele>322.0</ele><time>2026-04-04T10:23:21.999Z</time></trkpt><trkpt lat="43.3400582909571" lon="11.301688319045631"><ele>322.0</ele><time>2026-04-04T10:23:22.999Z</time></trkpt><trkpt lat="43.340008696674154" lon="11.301580177450711"><ele>322.0</ele><time>2026-04-04T10:23:23.999Z</time></trkpt><trkpt lat="43.33994943909419" lon="11.30147023030021"><ele>321.8</ele><time>2026-04-04T10:23:24.999Z</time></trkpt><trkpt lat="43.33988101425031" lon="11.301349351598319"><ele>321.6</ele><time>2026-04-04T10:23:25.999Z</time></trkpt><trkpt lat="43.33982145008118" lon="11.30123487748339"><ele>321.40000000000003</ele><time>2026-04-04T10:23:26.999Z</time></trkpt><trkpt lat="43.33977011465643" lon="11.301119214157612"><ele>321.20000000000005</ele><time>2026-04-04T10:23:27.999Z</time></trkpt><trkpt lat="43.33972604483473" lon="11.301009754280981"><ele>321.0</ele><time>2026-04-04T10:23:28.999Z</time></trkpt><trkpt lat="43.33968159384332" lon="11.300904516899656"><ele>320.2</ele><time>2026-04-04T10:23:29.999Z</time></trkpt><trkpt lat="43.3396364296648" lon="11.300798454340176"><ele>319.40000000000003</ele><time>2026-04-04T10:23:30.999Z</time></trkpt><trkpt lat="43.339594649444365" lon="11.300691187288736"><ele>318.6</ele><time>2026-04-04T10:23:31.999Z</time></trkpt><trkpt lat="43.33950931046502" lon="11.300605910927533"><ele>317.8</ele><time>2026-04-04T10:23:33.999Z</time></trkpt><trkpt lat="43.339553109967305" lon="11.300403587611873"><ele>317.0</ele><time>2026-04-04T10:23:34.999Z</time></trkpt><trkpt lat="43.339558480682115" lon="11.300291911457073"><ele>316.2857142857143</ele><time>2026-04-04T10:23:35.999Z</time></trkpt><trkpt lat="43.339571740665804" lon="11.300194715029594"><ele>315.57142857142856</ele><time>2026-04-04T10:23:36.999Z</time></trkpt><trkpt lat="43.33957286186515" lon="11.30008838466413"><ele>314.8571428571429</ele><time>2026-04-04T10:23:37.999Z</time></trkpt><trkpt lat="43.33958556832597" lon="11.299989764870878"><ele>314.1428571428571</ele><time>2026-04-04T10:23:38.999Z</time></trkpt><trkpt lat="43.339599677394105" lon="11.299893646867687"><ele>313.4285714285714</ele><time>2026-04-04T10:23:39.999Z</time></trkpt><trkpt lat="43.33961854872393" lon="11.29979344286248"><ele>312.7142857142857</ele><time>2026-04-04T10:23:40.999Z</time></trkpt><trkpt lat="43.339647915211515" lon="11.299700939535796"><ele>312.0</ele><time>2026-04-04T10:23:41.999Z</time></trkpt><trkpt lat="43.33968845169605" lon="11.299622694234671"><ele>312.8333333333333</ele><time>2026-04-04T10:23:42.999Z</time></trkpt><trkpt lat="43.339734843001885" lon="11.299553065527604"><ele>313.6666666666667</ele><time>2026-04-04T10:23:43.999Z</time></trkpt><trkpt lat="43.33977755784965" lon="11.299483974278912"><ele>314.5</ele><time>2026-04-04T10:23:44.999Z</time></trkpt><trkpt lat="43.3398154352783" lon="11.299407578815156"><ele>315.33333333333337</ele><time>2026-04-04T10:23:45.999Z</time></trkpt><trkpt lat="43.339858295888725" lon="11.299340706687488"><ele>316.1666666666667</ele><time>2026-04-04T10:23:46.999Z</time></trkpt><trkpt lat="43.33992960939147" lon="11.299249026787308"><ele>317.0</ele><time>2026-04-04T10:23:48.999Z</time></trkpt><trkpt lat="43.34006673165474" lon="11.299163336244668"><ele>317.0</ele><time>2026-04-04T10:23:51.999Z</time></trkpt><trkpt lat="43.339782487460894" lon="11.29937242594506"><ele>317.0</ele><time>2026-04-04T10:23:53.999Z</time></trkpt><trkpt lat="43.3397114608986" lon="11.299495069802584"><ele>317.0</ele><time>2026-04-04T10:23:54.999Z</time></trkpt><trkpt lat="43.33965658648477" lon="11.299608954090493"><ele>316.0</ele><time>2026-04-04T10:23:55.999Z</time></trkpt><trkpt lat="43.33960991443496" lon="11.299739711015546"><ele>315.0</ele><time>2026-04-04T10:23:56.999Z</time></trkpt><trkpt lat="43.339575755586" lon="11.299885002525924"><ele>314.0</ele><time>2026-04-04T10:23:57.999Z</time></trkpt><trkpt lat="43.33955391808253" lon="11.300021161436453"><ele>313.0</ele><time>2026-04-04T10:23:58.999Z</time></trkpt><trkpt lat="43.339542754636234" lon="11.300151670131866"><ele>312.0</ele><time>2026-04-04T10:23:59.999Z</time></trkpt><trkpt lat="43.33953341366139" lon="11.300279778125008"><ele>312.0</ele><time>2026-04-04T10:24:00.999Z</time></trkpt><trkpt lat="43.33951860359768" lon="11.300394991951995"><ele>312.0</ele><time>2026-04-04T10:24:01.999Z</time></trkpt><trkpt lat="43.339486483697925" lon="11.300483419098548"><ele>312.0</ele><time>2026-04-04T10:24:02.999Z</time></trkpt><trkpt lat="43.33948447683703" lon="11.300571465650352"><ele>312.0</ele><time>2026-04-04T10:24:03.999Z</time></trkpt><trkpt lat="43.33928267305735" lon="11.300585546839732"><ele>312.0</ele><time>2026-04-04T10:24:05.999Z</time></trkpt><trkpt lat="43.33919906086437" lon="11.300548868170745"><ele>312.0</ele><time>2026-04-04T10:24:06.999Z</time></trkpt><trkpt lat="43.33910812734485" lon="11.300497696949256"><ele>312.0</ele><time>2026-04-04T10:24:07.999Z</time></trkpt><trkpt lat="43.3390111853826" lon="11.300448216400818"><ele>312.0</ele><time>2026-04-04T10:24:08.999Z</time></trkpt><trkpt lat="43.33891457497683" lon="11.300399639123995"><ele>312.0</ele><time>2026-04-04T10:24:09.999Z</time></trkpt><trkpt lat="43.33881627298847" lon="11.300338207083007"><ele>312.0</ele><time>2026-04-04T10:24:10.999Z</time></trkpt><trkpt lat="43.33872255473496" lon="11.300251575830464"><ele>312.0</ele><time>2026-04-04T10:24:11.999Z</time></trkpt><trkpt lat="43.33863770178171" lon="11.300159201595676"><ele>312.0</ele><time>2026-04-04T10:24:12.999Z</time></trkpt><trkpt lat="43.33855873262663" lon="11.300060910130602"><ele>312.0</ele><time>2026-04-04T10:24:13.999Z</time></trkpt><trkpt lat="43.3384926398512" lon="11.299948115008887"><ele>312.0</ele><time>2026-04-04T10:24:14.999Z</time></trkpt><trkpt lat="43.338440659273054" lon="11.299834121231614"><ele>312.0</ele><time>2026-04-04T10:24:15.999Z</time></trkpt><trkpt lat="43.338390705873444" lon="11.299724381968465"><ele>311.6</ele><time>2026-04-04T10:24:16.999Z</time></trkpt><trkpt lat="43.33834377536656" lon="11.299618813582319"><ele>311.2</ele><time>2026-04-04T10:24:17.999Z</time></trkpt><trkpt lat="43.3382969917575" lon="11.299511267359648"><ele>310.8</ele><time>2026-04-04T10:24:18.999Z</time></trkpt><trkpt lat="43.3382446207751" lon="11.299410094439269"><ele>310.4</ele><time>2026-04-04T10:24:19.999Z</time></trkpt><trkpt lat="43.338192707554896" lon="11.299299284063652"><ele>310.0</ele><time>2026-04-04T10:24:20.999Z</time></trkpt><trkpt lat="43.338138626089055" lon="11.299184542367199"><ele>310.0</ele><time>2026-04-04T10:24:21.999Z</time></trkpt><trkpt lat="43.338085674301894" lon="11.29906715528619"><ele>310.0</ele><time>2026-04-04T10:24:22.999Z</time></trkpt><trkpt lat="43.338036538253945" lon="11.298952216221483"><ele>310.0</ele><time>2026-04-04T10:24:23.999Z</time></trkpt><trkpt lat="43.337983608626516" lon="11.298838508864225"><ele>310.0</ele><time>2026-04-04T10:24:24.999Z</time></trkpt><trkpt lat="43.33793385673308" lon="11.298730033340002"><ele>310.0</ele><time>2026-04-04T10:24:25.999Z</time></trkpt><trkpt lat="43.33789252892102" lon="11.298629369204068"><ele>310.0</ele><time>2026-04-04T10:24:26.999Z</time></trkpt><trkpt lat="43.33786494208396" lon="11.298537520127834"><ele>310.0</ele><time>2026-04-04T10:24:27.999Z</time></trkpt><trkpt lat="43.33783840153792" lon="11.29843234080627"><ele>310.0</ele><time>2026-04-04T10:24:28.999Z</time></trkpt><trkpt lat="43.33783966942505" lon="11.298321398375737"><ele>310.0</ele><time>2026-04-04T10:24:29.999Z</time></trkpt><trkpt lat="43.33783924902853" lon="11.298218254147596"><ele>310.0</ele><time>2026-04-04T10:24:30.999Z</time></trkpt><trkpt lat="43.33781491346622" lon="11.298120428377247"><ele>310.0</ele><time>2026-04-04T10:24:31.999Z</time></trkpt><trkpt lat="43.33777408255793" lon="11.298045723481088"><ele>310.3333333333333</ele><time>2026-04-04T10:24:32.999Z</time></trkpt><trkpt lat="43.337715047824084" lon="11.297990654610587"><ele>310.66666666666663</ele><time>2026-04-04T10:24:33.999Z</time></trkpt><trkpt lat="43.337636670670854" lon="11.297947961201851"><ele>311.0</ele><time>2026-04-04T10:24:34.999Z</time></trkpt><trkpt lat="43.33754879481586" lon="11.297898009526428"><ele>311.3333333333333</ele><time>2026-04-04T10:24:35.999Z</time></trkpt><trkpt lat="43.33746242001362" lon="11.297838432713238"><ele>311.6666666666667</ele><time>2026-04-04T10:24:36.999Z</time></trkpt><trkpt lat="43.33737969830238" lon="11.297767470068266"><ele>312.0</ele><time>2026-04-04T10:24:37.999Z</time></trkpt><trkpt lat="43.337305298857316" lon="11.297681301867318"><ele>312.0</ele><time>2026-04-04T10:24:38.999Z</time></trkpt><trkpt lat="43.3372324906464" lon="11.297580008426698"><ele>312.0</ele><time>2026-04-04T10:24:39.999Z</time></trkpt><trkpt lat="43.33715959435827" lon="11.297466688258668"><ele>312.0</ele><time>2026-04-04T10:24:40.999Z</time></trkpt><trkpt lat="43.33708487596376" lon="11.297351637992113"><ele>312.0</ele><time>2026-04-04T10:24:41.999Z</time></trkpt><trkpt lat="43.337005572812295" lon="11.297238960454322"><ele>312.0</ele><time>2026-04-04T10:24:42.999Z</time></trkpt><trkpt lat="43.336929472343634" lon="11.297132433513784"><ele>311.0</ele><time>2026-04-04T10:24:43.999Z</time></trkpt><trkpt lat="43.33686017617295" lon="11.297032518326377"><ele>310.0</ele><time>2026-04-04T10:24:44.999Z</time></trkpt><trkpt lat="43.336799361792735" lon="11.296936592377154"><ele>309.0</ele><time>2026-04-04T10:24:45.999Z</time></trkpt><trkpt lat="43.336734354559546" lon="11.296836682958293"><ele>308.0</ele><time>2026-04-04T10:24:46.999Z</time></trkpt><trkpt lat="43.33668065276309" lon="11.296743985165614"><ele>307.0</ele><time>2026-04-04T10:24:47.999Z</time></trkpt><trkpt lat="43.33661928468809" lon="11.296655729182053"><ele>307.0</ele><time>2026-04-04T10:24:48.999Z</time></trkpt><trkpt lat="43.336568053638054" lon="11.296563790218375"><ele>307.0</ele><time>2026-04-04T10:24:49.999Z</time></trkpt><trkpt lat="43.33650844903102" lon="11.29646940947453"><ele>307.0</ele><time>2026-04-04T10:24:50.999Z</time></trkpt><trkpt lat="43.3364560097767" lon="11.296365686628935"><ele>307.0</ele><time>2026-04-04T10:24:51.999Z</time></trkpt><trkpt lat="43.33640976092088" lon="11.296272780702447"><ele>307.0</ele><time>2026-04-04T10:24:52.999Z</time></trkpt><trkpt lat="43.336371449976774" lon="11.296176115792333"><ele>307.0</ele><time>2026-04-04T10:24:53.999Z</time></trkpt><trkpt lat="43.336331943095644" lon="11.296058942789005"><ele>305.4</ele><time>2026-04-04T10:24:54.999Z</time></trkpt><trkpt lat="43.33629144427222" lon="11.295927026168355"><ele>303.79999999999995</ele><time>2026-04-04T10:24:55.999Z</time></trkpt><trkpt lat="43.33625959059369" lon="11.295786465500848"><ele>302.2</ele><time>2026-04-04T10:24:56.999Z</time></trkpt><trkpt lat="43.33624188969125" lon="11.295628854885004"><ele>300.59999999999997</ele><time>2026-04-04T10:24:57.999Z</time></trkpt><trkpt lat="43.33623120395385" lon="11.295480254256123"><ele>299.0</ele><time>2026-04-04T10:24:58.999Z</time></trkpt><trkpt lat="43.336230134780656" lon="11.295342733701302"><ele>298.83333333333337</ele><time>2026-04-04T10:24:59.999Z</time></trkpt><trkpt lat="43.336242195503445" lon="11.295221817720307"><ele>298.6666666666667</ele><time>2026-04-04T10:25:00.999Z</time></trkpt><trkpt lat="43.33625935991153" lon="11.295104352239965"><ele>298.5</ele><time>2026-04-04T10:25:01.999Z</time></trkpt><trkpt lat="43.336284318706674" lon="11.294995492396533"><ele>298.3333333333333</ele><time>2026-04-04T10:25:02.999Z</time></trkpt><trkpt lat="43.336317120987644" lon="11.294900292303794"><ele>298.16666666666663</ele><time>2026-04-04T10:25:03.999Z</time></trkpt><trkpt lat="43.336351958785016" lon="11.294809826258147"><ele>298.0</ele><time>2026-04-04T10:25:04.999Z</time></trkpt><trkpt lat="43.33639160432141" lon="11.294696749221318"><ele>299.0</ele><time>2026-04-04T10:25:05.999Z</time></trkpt><trkpt lat="43.33642932075548" lon="11.294583083979594"><ele>300.0</ele><time>2026-04-04T10:25:06.999Z</time></trkpt><trkpt lat="43.33647078910505" lon="11.2944862829498"><ele>301.0</ele><time>2026-04-04T10:25:07.999Z</time></trkpt><trkpt lat="43.3365040024423" lon="11.294410964976484"><ele>302.0</ele><time>2026-04-04T10:25:08.999Z</time></trkpt><trkpt lat="43.336538893098506" lon="11.294327830692799"><ele>303.0</ele><time>2026-04-04T10:25:10.999Z</time></trkpt><trkpt lat="43.33657043066992" lon="11.294237944322369"><ele>304.0</ele><time>2026-04-04T10:25:26.999Z</time></trkpt><trkpt lat="43.33660308448676" lon="11.294133931537443"><ele>304.0</ele><time>2026-04-04T10:25:27.999Z</time></trkpt><trkpt lat="43.33664683314101" lon="11.294039056857196"><ele>304.0</ele><time>2026-04-04T10:25:28.999Z</time></trkpt><trkpt lat="43.3366965469414" lon="11.293909104516816"><ele>304.0</ele><time>2026-04-04T10:25:29.999Z</time></trkpt><trkpt lat="43.33674883051293" lon="11.293780229356653"><ele>304.0</ele><time>2026-04-04T10:25:30.999Z</time></trkpt><trkpt lat="43.33679033591538" lon="11.293648724281265"><ele>304.0</ele><time>2026-04-04T10:25:32Z</time></trkpt><trkpt lat="43.33682840979647" lon="11.29351162629677"><ele>303.75</ele><time>2026-04-04T10:25:33Z</time></trkpt><trkpt lat="43.3368530822685" lon="11.293370551699164"><ele>303.5</ele><time>2026-04-04T10:25:34Z</time></trkpt><trkpt lat="43.336859872831425" lon="11.293202036729003"><ele>303.25</ele><time>2026-04-04T10:25:35Z</time></trkpt><trkpt lat="43.33685570233885" lon="11.293020028408476"><ele>303.0</ele><time>2026-04-04T10:25:36Z</time></trkpt><trkpt lat="43.336821876296625" lon="11.292837436283655"><ele>303.0</ele><time>2026-04-04T10:25:37Z</time></trkpt><trkpt lat="43.33678363045569" lon="11.292676976694802"><ele>303.0</ele><time>2026-04-04T10:25:38Z</time></trkpt><trkpt lat="43.33672002944561" lon="11.292492343701086"><ele>303.0</ele><time>2026-04-04T10:25:39Z</time></trkpt><trkpt lat="43.336661465140686" lon="11.292309789549522"><ele>303.0</ele><time>2026-04-04T10:25:40Z</time></trkpt><trkpt lat="43.33661412630011" lon="11.292147431628793"><ele>302.25</ele><time>2026-04-04T10:25:41Z</time></trkpt><trkpt lat="43.33654403546255" lon="11.291997337520277"><ele>301.5</ele><time>2026-04-04T10:25:42Z</time></trkpt><trkpt lat="43.33645373662466" lon="11.291877624734653"><ele>300.75</ele><time>2026-04-04T10:25:43Z</time></trkpt><trkpt lat="43.33635222037115" lon="11.291776810861492"><ele>300.0</ele><time>2026-04-04T10:25:44Z</time></trkpt><trkpt lat="43.33623125498315" lon="11.291707411165435"><ele>300.0</ele><time>2026-04-04T10:25:45Z</time></trkpt><trkpt lat="43.33610090136833" lon="11.291660738294164"><ele>300.0</ele><time>2026-04-04T10:25:46Z</time></trkpt><trkpt lat="43.33595267269807" lon="11.291629267332631"><ele>300.0</ele><time>2026-04-04T10:25:47Z</time></trkpt><trkpt lat="43.33580155276691" lon="11.291598720209995"><ele>300.0</ele><time>2026-04-04T10:25:48Z</time></trkpt><trkpt lat="43.33565121381954" lon="11.29156040899919"><ele>299.5</ele><time>2026-04-04T10:25:49Z</time></trkpt><trkpt lat="43.33551007014001" lon="11.291539742292727"><ele>299.0</ele><time>2026-04-04T10:25:50Z</time></trkpt><trkpt lat="43.33536965466877" lon="11.291512529286658"><ele>298.5</ele><time>2026-04-04T10:25:51Z</time></trkpt><trkpt lat="43.33523993393518" lon="11.291488478093662"><ele>298.0</ele><time>2026-04-04T10:25:52Z</time></trkpt><trkpt lat="43.33511213412643" lon="11.291460109325591"><ele>298.0</ele><time>2026-04-04T10:25:53Z</time></trkpt><trkpt lat="43.33499426884204" lon="11.291433652920515"><ele>298.0</ele><time>2026-04-04T10:25:54Z</time></trkpt><trkpt lat="43.33487953988869" lon="11.291403788713437"><ele>298.0</ele><time>2026-04-04T10:25:55Z</time></trkpt><trkpt lat="43.33474477396475" lon="11.291380311772429"><ele>298.0</ele><time>2026-04-04T10:25:56Z</time></trkpt><trkpt lat="43.3345880723089" lon="11.291362882498607"><ele>293.3333333333333</ele><time>2026-04-04T10:25:57Z</time></trkpt><trkpt lat="43.33443183248652" lon="11.291341992886471"><ele>288.6666666666667</ele><time>2026-04-04T10:25:58Z</time></trkpt><trkpt lat="43.33427910221587" lon="11.29132619677668"><ele>284.0</ele><time>2026-04-04T10:25:59Z</time></trkpt><trkpt lat="43.334120911323154" lon="11.291304276949637"><ele>284.0</ele><time>2026-04-04T10:26:00Z</time></trkpt><trkpt lat="43.33395610566697" lon="11.291284922095752"><ele>284.0</ele><time>2026-04-04T10:26:01Z</time></trkpt><trkpt lat="43.333782882671215" lon="11.291277419101595"><ele>284.0</ele><time>2026-04-04T10:26:02Z</time></trkpt><trkpt lat="43.33360856102804" lon="11.29126787121534"><ele>282.33333333333337</ele><time>2026-04-04T10:26:03Z</time></trkpt><trkpt lat="43.333431532256796" lon="11.291269093645944"><ele>280.6666666666667</ele><time>2026-04-04T10:26:04Z</time></trkpt><trkpt lat="43.33325461345626" lon="11.291275128207356"><ele>279.0</ele><time>2026-04-04T10:26:05Z</time></trkpt><trkpt lat="43.33308096365313" lon="11.291296006197044"><ele>277.6666666666667</ele><time>2026-04-04T10:26:06Z</time></trkpt><trkpt lat="43.33290793503653" lon="11.291331906684372"><ele>276.33333333333337</ele><time>2026-04-04T10:26:07Z</time></trkpt><trkpt lat="43.33272803285202" lon="11.291365800288268"><ele>275.0</ele><time>2026-04-04T10:26:08Z</time></trkpt><trkpt lat="43.33255024107598" lon="11.291400227935561"><ele>274.6666666666667</ele><time>2026-04-04T10:26:09Z</time></trkpt><trkpt lat="43.33236733559667" lon="11.291447787716082"><ele>274.3333333333333</ele><time>2026-04-04T10:26:10Z</time></trkpt><trkpt lat="43.332200585399484" lon="11.291492520030427"><ele>274.0</ele><time>2026-04-04T10:26:11Z</time></trkpt><trkpt lat="43.332030552475345" lon="11.291553519368936"><ele>274.0</ele><time>2026-04-04T10:26:12Z</time></trkpt><trkpt lat="43.33186157036377" lon="11.291622300998327"><ele>274.0</ele><time>2026-04-04T10:26:13Z</time></trkpt><trkpt lat="43.33168447501798" lon="11.291691176938931"><ele>274.0</ele><time>2026-04-04T10:26:14Z</time></trkpt><trkpt lat="43.331505517107054" lon="11.29177558356697"><ele>272.0</ele><time>2026-04-04T10:26:15Z</time></trkpt><trkpt lat="43.33133472988562" lon="11.291860163525884"><ele>270.0</ele><time>2026-04-04T10:26:16Z</time></trkpt><trkpt lat="43.33116141862263" lon="11.29195435376231"><ele>268.0</ele><time>2026-04-04T10:26:17Z</time></trkpt><trkpt lat="43.33099070674668" lon="11.292058002565847"><ele>268.0</ele><time>2026-04-04T10:26:18Z</time></trkpt><trkpt lat="43.330815515639024" lon="11.292168582330799"><ele>268.0</ele><time>2026-04-04T10:26:19Z</time></trkpt><trkpt lat="43.33064476091009" lon="11.292290002571814"><ele>268.0</ele><time>2026-04-04T10:26:20Z</time></trkpt><trkpt lat="43.330478257795235" lon="11.29241656499799"><ele>268.0</ele><time>2026-04-04T10:26:21Z</time></trkpt><trkpt lat="43.33030941310918" lon="11.29255354087986"><ele>268.0</ele><time>2026-04-04T10:26:22Z</time></trkpt><trkpt lat="43.33014411726174" lon="11.29269360188406"><ele>268.0</ele><time>2026-04-04T10:26:23Z</time></trkpt><trkpt lat="43.32998050144871" lon="11.292837864859885"><ele>268.0</ele><time>2026-04-04T10:26:24Z</time></trkpt><trkpt lat="43.32981626257534" lon="11.292994212844745"><ele>268.0</ele><time>2026-04-04T10:26:25Z</time></trkpt><trkpt lat="43.32965375917605" lon="11.29315596824332"><ele>268.0</ele><time>2026-04-04T10:26:26Z</time></trkpt><trkpt lat="43.3294882165582" lon="11.293305812161723"><ele>268.3333333333333</ele><time>2026-04-04T10:26:27Z</time></trkpt><trkpt lat="43.32932310042801" lon="11.293447946599652"><ele>268.6666666666667</ele><time>2026-04-04T10:26:28Z</time></trkpt><trkpt lat="43.32917062086762" lon="11.293588794928747"><ele>269.0</ele><time>2026-04-04T10:26:29Z</time></trkpt><trkpt lat="43.329018947824" lon="11.293729355565358"><ele>268.0</ele><time>2026-04-04T10:26:30Z</time></trkpt><trkpt lat="43.32886140639418" lon="11.293870951330579"><ele>267.0</ele><time>2026-04-04T10:26:31Z</time></trkpt><trkpt lat="43.32870127181617" lon="11.294015674923276"><ele>266.0</ele><time>2026-04-04T10:26:32Z</time></trkpt><trkpt lat="43.32854115458191" lon="11.29415373033272"><ele>266.0</ele><time>2026-04-04T10:26:33Z</time></trkpt><trkpt lat="43.32838149049871" lon="11.294291490356233"><ele>266.0</ele><time>2026-04-04T10:26:34Z</time></trkpt><trkpt lat="43.32821601984195" lon="11.29443653264802"><ele>266.0</ele><time>2026-04-04T10:26:35Z</time></trkpt><trkpt lat="43.32804984494202" lon="11.294584684152824"><ele>265.6666666666667</ele><time>2026-04-04T10:26:36Z</time></trkpt><trkpt lat="43.32788423057404" lon="11.294732718367367"><ele>265.3333333333333</ele><time>2026-04-04T10:26:37Z</time></trkpt><trkpt lat="43.32771919705667" lon="11.294875379710803"><ele>265.0</ele><time>2026-04-04T10:26:38Z</time></trkpt><trkpt lat="43.32755436176688" lon="11.295017891785452"><ele>265.66666666666663</ele><time>2026-04-04T10:26:39Z</time></trkpt><trkpt lat="43.327382618895115" lon="11.295166978754649"><ele>266.3333333333333</ele><time>2026-04-04T10:26:40Z</time></trkpt><trkpt lat="43.327213234436584" lon="11.29531911435622"><ele>267.0</ele><time>2026-04-04T10:26:41Z</time></trkpt><trkpt lat="43.32703883332226" lon="11.295463591157953"><ele>266.0</ele><time>2026-04-04T10:26:42Z</time></trkpt><trkpt lat="43.326863454426025" lon="11.295602760016688"><ele>265.0</ele><time>2026-04-04T10:26:43Z</time></trkpt><trkpt lat="43.326686461556754" lon="11.29573954198427"><ele>264.0</ele><time>2026-04-04T10:26:44Z</time></trkpt><trkpt lat="43.32650886922831" lon="11.295875423159323"><ele>261.6666666666667</ele><time>2026-04-04T10:26:45Z</time></trkpt><trkpt lat="43.32632984895455" lon="11.296010034729564"><ele>259.33333333333337</ele><time>2026-04-04T10:26:46Z</time></trkpt><trkpt lat="43.32614643874329" lon="11.296141018491971"><ele>257.0</ele><time>2026-04-04T10:26:47Z</time></trkpt><trkpt lat="43.325962875124816" lon="11.29626884422847"><ele>257.0</ele><time>2026-04-04T10:26:48Z</time></trkpt><trkpt lat="43.325778803504434" lon="11.296399276961374"><ele>257.0</ele><time>2026-04-04T10:26:49Z</time></trkpt><trkpt lat="43.32559646437461" lon="11.296528654758642"><ele>257.0</ele><time>2026-04-04T10:26:50Z</time></trkpt><trkpt lat="43.32541155500814" lon="11.296657697809435"><ele>258.0</ele><time>2026-04-04T10:26:51Z</time></trkpt><trkpt lat="43.32522709576164" lon="11.29678992926953"><ele>259.0</ele><time>2026-04-04T10:26:52Z</time></trkpt><trkpt lat="43.3250425357004" lon="11.296923066210804"><ele>260.0</ele><time>2026-04-04T10:26:53Z</time></trkpt><trkpt lat="43.324856771775096" lon="11.29705101496445"><ele>260.6666666666667</ele><time>2026-04-04T10:26:54Z</time></trkpt><trkpt lat="43.324669998453224" lon="11.297179956638892"><ele>261.3333333333333</ele><time>2026-04-04T10:26:55Z</time></trkpt><trkpt lat="43.32448853774004" lon="11.29730339290449"><ele>262.0</ele><time>2026-04-04T10:26:56Z</time></trkpt><trkpt lat="43.32431405719249" lon="11.297426933804763"><ele>262.0</ele><time>2026-04-04T10:26:57Z</time></trkpt><trkpt lat="43.324142895052866" lon="11.297548496384147"><ele>262.0</ele><time>2026-04-04T10:26:58Z</time></trkpt><trkpt lat="43.32397581858702" lon="11.297665816039304"><ele>262.0</ele><time>2026-04-04T10:26:59Z</time></trkpt><trkpt lat="43.32380908841263" lon="11.297779368908712"><ele>262.3333333333333</ele><time>2026-04-04T10:27:00Z</time></trkpt><trkpt lat="43.32363865000321" lon="11.297898399863918"><ele>262.6666666666667</ele><time>2026-04-04T10:27:01Z</time></trkpt><trkpt lat="43.32347184243785" lon="11.298017428106995"><ele>263.0</ele><time>2026-04-04T10:27:02Z</time></trkpt><trkpt lat="43.323305903345116" lon="11.29813644222851"><ele>263.0</ele><time>2026-04-04T10:27:03Z</time></trkpt><trkpt lat="43.323139496404735" lon="11.298254743959662"><ele>263.0</ele><time>2026-04-04T10:27:04Z</time></trkpt><trkpt lat="43.32297621382224" lon="11.298368754986582"><ele>263.0</ele><time>2026-04-04T10:27:05Z</time></trkpt><trkpt lat="43.32281364534488" lon="11.29848077098701"><ele>261.0</ele><time>2026-04-04T10:27:06Z</time></trkpt><trkpt lat="43.322654193317994" lon="11.298595006734987"><ele>259.0</ele><time>2026-04-04T10:27:07Z</time></trkpt><trkpt lat="43.322493517939854" lon="11.298710487838704"><ele>257.0</ele><time>2026-04-04T10:27:08Z</time></trkpt><trkpt lat="43.32233422160449" lon="11.29882496771217"><ele>258.33333333333337</ele><time>2026-04-04T10:27:09Z</time></trkpt><trkpt lat="43.32217227236924" lon="11.298936900990634"><ele>259.6666666666667</ele><time>2026-04-04T10:27:10Z</time></trkpt><trkpt lat="43.32201195204713" lon="11.299049496359293"><ele>261.0</ele><time>2026-04-04T10:27:11Z</time></trkpt><trkpt lat="43.32185161234936" lon="11.299165020641214"><ele>261.0</ele><time>2026-04-04T10:27:12Z</time></trkpt><trkpt lat="43.32169346008422" lon="11.2992818830705"><ele>261.0</ele><time>2026-04-04T10:27:13Z</time></trkpt><trkpt lat="43.3215302413209" lon="11.29939563029431"><ele>261.0</ele><time>2026-04-04T10:27:14Z</time></trkpt><trkpt lat="43.32136536107141" lon="11.299508895285983"><ele>259.6666666666667</ele><time>2026-04-04T10:27:15Z</time></trkpt><trkpt lat="43.321199167670386" lon="11.299626038377003"><ele>258.33333333333337</ele><time>2026-04-04T10:27:16Z</time></trkpt><trkpt lat="43.32103389814494" lon="11.299738560031946"><ele>257.0</ele><time>2026-04-04T10:27:17Z</time></trkpt><trkpt lat="43.32086518806296" lon="11.299855530330287"><ele>257.0</ele><time>2026-04-04T10:27:18Z</time></trkpt><trkpt lat="43.32069949922541" lon="11.299973702389392"><ele>257.0</ele><time>2026-04-04T10:27:19Z</time></trkpt><trkpt lat="43.32053339652724" lon="11.300093126621423"><ele>257.0</ele><time>2026-04-04T10:27:20Z</time></trkpt><trkpt lat="43.32036592031369" lon="11.300213698025663"><ele>257.0</ele><time>2026-04-04T10:27:21Z</time></trkpt><trkpt lat="43.32019741868764" lon="11.30033828813198"><ele>257.0</ele><time>2026-04-04T10:27:22Z</time></trkpt><trkpt lat="43.320028239489076" lon="11.300458760121627"><ele>257.0</ele><time>2026-04-04T10:27:23Z</time></trkpt><trkpt lat="43.319856914562344" lon="11.300580810033116"><ele>257.33333333333337</ele><time>2026-04-04T10:27:24Z</time></trkpt><trkpt lat="43.3196861026609" lon="11.30069997046718"><ele>257.6666666666667</ele><time>2026-04-04T10:27:25Z</time></trkpt><trkpt lat="43.31951392453869" lon="11.300819462547151"><ele>258.0</ele><time>2026-04-04T10:27:26Z</time></trkpt><trkpt lat="43.319341257940664" lon="11.300936416343486"><ele>258.0</ele><time>2026-04-04T10:27:27Z</time></trkpt><trkpt lat="43.31916959125646" lon="11.301056500451157"><ele>258.0</ele><time>2026-04-04T10:27:28Z</time></trkpt><trkpt lat="43.319001001350976" lon="11.301178336007586"><ele>258.0</ele><time>2026-04-04T10:27:29Z</time></trkpt><trkpt lat="43.318828235313305" lon="11.301301530067331"><ele>255.66666666666669</ele><time>2026-04-04T10:27:30Z</time></trkpt><trkpt lat="43.31865364260283" lon="11.301424795977226"><ele>253.33333333333334</ele><time>2026-04-04T10:27:31Z</time></trkpt><trkpt lat="43.31848110574609" lon="11.301545158296397"><ele>251.0</ele><time>2026-04-04T10:27:32Z</time></trkpt><trkpt lat="43.31831005610091" lon="11.301671493553425"><ele>251.0</ele><time>2026-04-04T10:27:33Z</time></trkpt><trkpt lat="43.318142351966486" lon="11.301803615346278"><ele>251.0</ele><time>2026-04-04T10:27:34Z</time></trkpt><trkpt lat="43.31797993485071" lon="11.301945849280804"><ele>251.0</ele><time>2026-04-04T10:27:35Z</time></trkpt><trkpt lat="43.31781801879563" lon="11.302096840358015"><ele>250.33333333333334</ele><time>2026-04-04T10:27:36Z</time></trkpt><trkpt lat="43.317656476922565" lon="11.302250958701272"><ele>249.66666666666669</ele><time>2026-04-04T10:27:37Z</time></trkpt><trkpt lat="43.31749528315036" lon="11.302409346701358"><ele>249.0</ele><time>2026-04-04T10:27:38Z</time></trkpt><trkpt lat="43.31733552880862" lon="11.3025740498535"><ele>249.0</ele><time>2026-04-04T10:27:39Z</time></trkpt><trkpt lat="43.31717830787273" lon="11.302745768447458"><ele>249.0</ele><time>2026-04-04T10:27:40Z</time></trkpt><trkpt lat="43.31702572780508" lon="11.302921511949162"><ele>249.0</ele><time>2026-04-04T10:27:41Z</time></trkpt><trkpt lat="43.31687453406159" lon="11.303102073935225"><ele>249.0</ele><time>2026-04-04T10:27:42Z</time></trkpt><trkpt lat="43.316729099603585" lon="11.30328649059538"><ele>249.0</ele><time>2026-04-04T10:27:43Z</time></trkpt><trkpt lat="43.316585863038895" lon="11.303477250211056"><ele>249.0</ele><time>2026-04-04T10:27:44Z</time></trkpt><trkpt lat="43.31644407114679" lon="11.303664267720887"><ele>250.0</ele><time>2026-04-04T10:27:45Z</time></trkpt><trkpt lat="43.31630505624098" lon="11.303853299986509"><ele>251.0</ele><time>2026-04-04T10:27:46Z</time></trkpt><trkpt lat="43.31617216735917" lon="11.304050836799641"><ele>252.0</ele><time>2026-04-04T10:27:47Z</time></trkpt><trkpt lat="43.3160417688499" lon="11.304253270882107"><ele>252.0</ele><time>2026-04-04T10:27:48Z</time></trkpt><trkpt lat="43.31591268542953" lon="11.304456843077558"><ele>252.0</ele><time>2026-04-04T10:27:49Z</time></trkpt><trkpt lat="43.31578716999123" lon="11.30466752302944"><ele>252.0</ele><time>2026-04-04T10:27:50Z</time></trkpt><trkpt lat="43.31566723335764" lon="11.304884114464347"><ele>253.66666666666669</ele><time>2026-04-04T10:27:51Z</time></trkpt><trkpt lat="43.31554678838375" lon="11.305107111246944"><ele>255.33333333333334</ele><time>2026-04-04T10:27:52Z</time></trkpt><trkpt lat="43.31542311380742" lon="11.305336784272749"><ele>257.0</ele><time>2026-04-04T10:27:53Z</time></trkpt><trkpt lat="43.31529768400229" lon="11.305578549731031"><ele>255.0</ele><time>2026-04-04T10:27:54Z</time></trkpt><trkpt lat="43.31518135362475" lon="11.30580366950507"><ele>253.0</ele><time>2026-04-04T10:27:55Z</time></trkpt><trkpt lat="43.315069627324284" lon="11.306019230492419"><ele>251.0</ele><time>2026-04-04T10:27:56Z</time></trkpt><trkpt lat="43.314960889856096" lon="11.306228186543233"><ele>250.0</ele><time>2026-04-04T10:27:57Z</time></trkpt><trkpt lat="43.314850388624066" lon="11.306439308601014"><ele>249.0</ele><time>2026-04-04T10:27:58Z</time></trkpt><trkpt lat="43.31474055608673" lon="11.306654585263487"><ele>248.0</ele><time>2026-04-04T10:27:59Z</time></trkpt><trkpt lat="43.31462847901515" lon="11.306866263417099"><ele>247.0</ele><time>2026-04-04T10:28:00Z</time></trkpt><trkpt lat="43.314513550934116" lon="11.307079049885795"><ele>246.0</ele><time>2026-04-04T10:28:01Z</time></trkpt><trkpt lat="43.31439854004934" lon="11.307296073473802"><ele>245.0</ele><time>2026-04-04T10:28:02Z</time></trkpt><trkpt lat="43.31428335790165" lon="11.307512167231671"><ele>245.0</ele><time>2026-04-04T10:28:03Z</time></trkpt><trkpt lat="43.31416439930859" lon="11.307727040379731"><ele>245.0</ele><time>2026-04-04T10:28:04Z</time></trkpt><trkpt lat="43.31404183371603" lon="11.307937487871866"><ele>245.0</ele><time>2026-04-04T10:28:05Z</time></trkpt><trkpt lat="43.313917020679774" lon="11.308144088436697"><ele>243.66666666666669</ele><time>2026-04-04T10:28:06Z</time></trkpt><trkpt lat="43.3137872704155" lon="11.308345333664413"><ele>242.33333333333331</ele><time>2026-04-04T10:28:07Z</time></trkpt><trkpt lat="43.3136591054934" lon="11.308542853902441"><ele>241.0</ele><time>2026-04-04T10:28:08Z</time></trkpt><trkpt lat="43.31352923569367" lon="11.30873968513307"><ele>241.66666666666666</ele><time>2026-04-04T10:28:09Z</time></trkpt><trkpt lat="43.31339794740021" lon="11.308935634653814"><ele>242.33333333333331</ele><time>2026-04-04T10:28:10Z</time></trkpt><trkpt lat="43.31326801357644" lon="11.309123169221213"><ele>243.0</ele><time>2026-04-04T10:28:11Z</time></trkpt><trkpt lat="43.31313112808199" lon="11.309308710488077"><ele>241.66666666666669</ele><time>2026-04-04T10:28:12Z</time></trkpt><trkpt lat="43.31299431332096" lon="11.309490531423826"><ele>240.33333333333334</ele><time>2026-04-04T10:28:13Z</time></trkpt><trkpt lat="43.31285509101417" lon="11.309674907700852"><ele>239.0</ele><time>2026-04-04T10:28:14Z</time></trkpt><trkpt lat="43.312711241768525" lon="11.309854444257212"><ele>239.0</ele><time>2026-04-04T10:28:15Z</time></trkpt><trkpt lat="43.312563777007036" lon="11.310027074338075"><ele>239.0</ele><time>2026-04-04T10:28:16Z</time></trkpt><trkpt lat="43.31241576567125" lon="11.310200784933476"><ele>239.0</ele><time>2026-04-04T10:28:17Z</time></trkpt><trkpt lat="43.31226255478415" lon="11.310378098600053"><ele>239.33333333333334</ele><time>2026-04-04T10:28:18Z</time></trkpt><trkpt lat="43.31210958317561" lon="11.310547532165764"><ele>239.66666666666669</ele><time>2026-04-04T10:28:19Z</time></trkpt><trkpt lat="43.31195064878441" lon="11.31071730333221"><ele>240.0</ele><time>2026-04-04T10:28:20Z</time></trkpt><trkpt lat="43.31179440609714" lon="11.310880701770099"><ele>240.0</ele><time>2026-04-04T10:28:21Z</time></trkpt><trkpt lat="43.31163024974656" lon="11.311042147845484"><ele>240.0</ele><time>2026-04-04T10:28:22Z</time></trkpt><trkpt lat="43.311468429094504" lon="11.311193566581517"><ele>240.0</ele><time>2026-04-04T10:28:23Z</time></trkpt><trkpt lat="43.311307497697584" lon="11.31133712965938"><ele>239.66666666666669</ele><time>2026-04-04T10:28:24Z</time></trkpt><trkpt lat="43.31115205609258" lon="11.311483513876047"><ele>239.33333333333334</ele><time>2026-04-04T10:28:25Z</time></trkpt><trkpt lat="43.310996115587734" lon="11.311626461665002"><ele>239.0</ele><time>2026-04-04T10:28:26Z</time></trkpt><trkpt lat="43.31084037651017" lon="11.311779332350103"><ele>239.0</ele><time>2026-04-04T10:28:27Z</time></trkpt><trkpt lat="43.3106752053979" lon="11.31191758769039"><ele>239.0</ele><time>2026-04-04T10:28:28Z</time></trkpt><trkpt lat="43.310512117189724" lon="11.312062270537314"><ele>239.0</ele><time>2026-04-04T10:28:29Z</time></trkpt><trkpt lat="43.310348364342836" lon="11.31220543025854"><ele>237.66666666666669</ele><time>2026-04-04T10:28:30Z</time></trkpt><trkpt lat="43.31018502590414" lon="11.312349652033102"><ele>236.33333333333331</ele><time>2026-04-04T10:28:31Z</time></trkpt><trkpt lat="43.31002253649018" lon="11.312491899883259"><ele>235.0</ele><time>2026-04-04T10:28:32Z</time></trkpt><trkpt lat="43.30985937546452" lon="11.312641581186472"><ele>235.0</ele><time>2026-04-04T10:28:33Z</time></trkpt><trkpt lat="43.309693395190656" lon="11.312784486447049"><ele>235.0</ele><time>2026-04-04T10:28:34Z</time></trkpt><trkpt lat="43.30952969059876" lon="11.312925009270293"><ele>235.0</ele><time>2026-04-04T10:28:35Z</time></trkpt><trkpt lat="43.30937355252966" lon="11.313080324378245"><ele>235.0</ele><time>2026-04-04T10:28:36Z</time></trkpt><trkpt lat="43.30921241946039" lon="11.313220614955652"><ele>235.0</ele><time>2026-04-04T10:28:37Z</time></trkpt><trkpt lat="43.30905529052191" lon="11.313358603695924"><ele>235.0</ele><time>2026-04-04T10:28:38Z</time></trkpt><trkpt lat="43.30890340346178" lon="11.313493675401324"><ele>237.33333333333331</ele><time>2026-04-04T10:28:39Z</time></trkpt><trkpt lat="43.308751267007665" lon="11.313622389580475"><ele>239.66666666666669</ele><time>2026-04-04T10:28:40Z</time></trkpt><trkpt lat="43.30860023579829" lon="11.313745002214898"><ele>242.0</ele><time>2026-04-04T10:28:41Z</time></trkpt><trkpt lat="43.30845587145507" lon="11.313866886366782"><ele>240.0</ele><time>2026-04-04T10:28:42Z</time></trkpt><trkpt lat="43.30832544302736" lon="11.313981226465357"><ele>238.0</ele><time>2026-04-04T10:28:43Z</time></trkpt><trkpt lat="43.30820208220931" lon="11.314088831251786"><ele>236.0</ele><time>2026-04-04T10:28:44Z</time></trkpt><trkpt lat="43.308080885168806" lon="11.314194105001393"><ele>234.0</ele><time>2026-04-04T10:28:45Z</time></trkpt><trkpt lat="43.307964663294364" lon="11.314287301345036"><ele>233.5</ele><time>2026-04-04T10:28:46Z</time></trkpt><trkpt lat="43.30785722613286" lon="11.314371860962996"><ele>233.0</ele><time>2026-04-04T10:28:47Z</time></trkpt><trkpt lat="43.307760282088125" lon="11.314454093536698"><ele>232.5</ele><time>2026-04-04T10:28:48Z</time></trkpt><trkpt lat="43.30765993698857" lon="11.31451635876308"><ele>232.0</ele><time>2026-04-04T10:28:49Z</time></trkpt><trkpt lat="43.30755338183109" lon="11.314539763236224"><ele>232.0</ele><time>2026-04-04T10:28:50Z</time></trkpt><trkpt lat="43.307447949672" lon="11.314518805590083"><ele>232.0</ele><time>2026-04-04T10:28:51Z</time></trkpt><trkpt lat="43.307369654679995" lon="11.314448130985554"><ele>232.0</ele><time>2026-04-04T10:28:52Z</time></trkpt><trkpt lat="43.307306585163616" lon="11.31441021184387"><ele>232.0</ele><time>2026-04-04T10:28:53Z</time></trkpt><trkpt lat="43.30726414232663" lon="11.314324836629853"><ele>232.0</ele><time>2026-04-04T10:28:54Z</time></trkpt><trkpt lat="43.30721511058703" lon="11.314182655018396"><ele>234.6</ele><time>2026-04-04T10:28:56Z</time></trkpt><trkpt lat="43.307197585072224" lon="11.31406344356707"><ele>237.2</ele><time>2026-04-04T10:28:58Z</time></trkpt><trkpt lat="43.30725100388277" lon="11.313904405672202"><ele>239.8</ele><time>2026-04-04T10:29:00Z</time></trkpt><trkpt lat="43.30725315389656" lon="11.313801645583895"><ele>242.4</ele><time>2026-04-04T10:29:01Z</time></trkpt><trkpt lat="43.307354989142276" lon="11.31373814315176"><ele>245.0</ele><time>2026-04-04T10:29:02Z</time></trkpt><trkpt lat="43.307413683043485" lon="11.31367338956083"><ele>245.2</ele><time>2026-04-04T10:29:03Z</time></trkpt><trkpt lat="43.307521544886434" lon="11.313557127722449"><ele>245.4</ele><time>2026-04-04T10:29:05Z</time></trkpt><trkpt lat="43.30760399404002" lon="11.31349789976911"><ele>245.60000000000002</ele><time>2026-04-04T10:29:06Z</time></trkpt><trkpt lat="43.30769721264451" lon="11.313470507458504"><ele>245.8</ele><time>2026-04-04T10:29:07Z</time></trkpt><trkpt lat="43.30778798827417" lon="11.313478827019797"><ele>246.0</ele><time>2026-04-04T10:29:08Z</time></trkpt><trkpt lat="43.30787218189399" lon="11.313520135184373"><ele>246.0</ele><time>2026-04-04T10:29:09Z</time></trkpt><trkpt lat="43.30795910719126" lon="11.313588911004103"><ele>246.00000000000003</ele><time>2026-04-04T10:29:10Z</time></trkpt><trkpt lat="43.30804647097471" lon="11.313679141057595"><ele>246.00000000000003</ele><time>2026-04-04T10:29:11Z</time></trkpt><trkpt lat="43.30813393078111" lon="11.313776584453217"><ele>246.0</ele><time>2026-04-04T10:29:12Z</time></trkpt><trkpt lat="43.3082118869005" lon="11.31386213372311"><ele>246.0</ele><time>2026-04-04T10:29:13Z</time></trkpt><trkpt lat="43.308278521398755" lon="11.313934232388112"><ele>244.0</ele><time>2026-04-04T10:29:14Z</time></trkpt><trkpt lat="43.30834173075576" lon="11.314003388225355"><ele>242.0</ele><time>2026-04-04T10:29:15Z</time></trkpt><trkpt lat="43.30840184471718" lon="11.31406661015711"><ele>240.0</ele><time>2026-04-04T10:29:16Z</time></trkpt><trkpt lat="43.308463518197456" lon="11.314131849537825"><ele>238.0</ele><time>2026-04-04T10:29:17Z</time></trkpt><trkpt lat="43.3085332326254" lon="11.314210383324717"><ele>236.0</ele><time>2026-04-04T10:29:18Z</time></trkpt><trkpt lat="43.30861642557688" lon="11.314299043556852"><ele>234.0</ele><time>2026-04-04T10:29:19Z</time></trkpt><trkpt lat="43.30870176103879" lon="11.31439881882838"><ele>234.0</ele><time>2026-04-04T10:29:20Z</time></trkpt><trkpt lat="43.30877290426461" lon="11.314506331172208"><ele>234.0</ele><time>2026-04-04T10:29:21Z</time></trkpt><trkpt lat="43.308827950035784" lon="11.314624302608665"><ele>234.0</ele><time>2026-04-04T10:29:22Z</time></trkpt><trkpt lat="43.30888783838309" lon="11.314767260154657"><ele>234.0</ele><time>2026-04-04T10:29:23Z</time></trkpt><trkpt lat="43.30895233926496" lon="11.314929685241625"><ele>235.0</ele><time>2026-04-04T10:29:24Z</time></trkpt><trkpt lat="43.30901533463632" lon="11.315099745378092"><ele>236.0</ele><time>2026-04-04T10:29:25Z</time></trkpt><trkpt lat="43.30906653488409" lon="11.315273930650799"><ele>237.0</ele><time>2026-04-04T10:29:26Z</time></trkpt><trkpt lat="43.309100179464735" lon="11.315430978900311"><ele>238.0</ele><time>2026-04-04T10:29:27Z</time></trkpt><trkpt lat="43.30912923803342" lon="11.315579572531798"><ele>238.2</ele><time>2026-04-04T10:29:28Z</time></trkpt><trkpt lat="43.309159420587264" lon="11.315707497712118"><ele>238.4</ele><time>2026-04-04T10:29:29Z</time></trkpt><trkpt lat="43.30919788406704" lon="11.315816710885015"><ele>238.59999999999997</ele><time>2026-04-04T10:29:30Z</time></trkpt><trkpt lat="43.309237365712505" lon="11.315910301805266"><ele>238.79999999999998</ele><time>2026-04-04T10:29:31Z</time></trkpt><trkpt lat="43.30926814801943" lon="11.315998005802998"><ele>239.0</ele><time>2026-04-04T10:29:32Z</time></trkpt><trkpt lat="43.30932645496947" lon="11.316144943162419"><ele>239.0</ele><time>2026-04-04T10:29:34Z</time></trkpt><trkpt lat="43.3093549973675" lon="11.316296198047517"><ele>238.99999999999997</ele><time>2026-04-04T10:29:36Z</time></trkpt><trkpt lat="43.30933632664154" lon="11.316433955407907"><ele>238.99999999999997</ele><time>2026-04-04T10:29:38Z</time></trkpt><trkpt lat="43.309289351610055" lon="11.316560389583112"><ele>239.0</ele><time>2026-04-04T10:29:40Z</time></trkpt><trkpt lat="43.30921320587642" lon="11.316656020411747"><ele>239.0</ele><time>2026-04-04T10:29:42Z</time></trkpt><trkpt lat="43.30915076500614" lon="11.316694122562717"><ele>239.00000000000003</ele><time>2026-04-04T10:29:43Z</time></trkpt><trkpt lat="43.30907746169234" lon="11.316699865527303"><ele>239.0</ele><time>2026-04-04T10:29:44Z</time></trkpt><trkpt lat="43.30898419671503" lon="11.316677622233634"><ele>239.0</ele><time>2026-04-04T10:29:45Z</time></trkpt><trkpt lat="43.308891064794" lon="11.316635142242607"><ele>239.0</ele><time>2026-04-04T10:29:46Z</time></trkpt><trkpt lat="43.308813212397496" lon="11.316571030563967"><ele>239.00000000000003</ele><time>2026-04-04T10:29:47Z</time></trkpt><trkpt lat="43.308741807167884" lon="11.316499666171165"><ele>239.0</ele><time>2026-04-04T10:29:48Z</time></trkpt><trkpt lat="43.308680696396195" lon="11.316439733465895"><ele>239.00000000000003</ele><time>2026-04-04T10:29:49Z</time></trkpt><trkpt lat="43.308623819389226" lon="11.316395219595098"><ele>239.0</ele><time>2026-04-04T10:29:50Z</time></trkpt><trkpt lat="43.30852886477254" lon="11.31633154643925"><ele>239.0</ele><time>2026-04-04T10:29:52Z</time></trkpt><trkpt lat="43.30845412637638" lon="11.316284278604593"><ele>239.0</ele><time>2026-04-04T10:29:54Z</time></trkpt><trkpt lat="43.30839075679581" lon="11.316372635083095"><ele>239.00000000000003</ele><time>2026-04-04T10:29:55Z</time></trkpt><trkpt lat="43.30833544973447" lon="11.316490853894292"><ele>239.0</ele><time>2026-04-04T10:29:57Z</time></trkpt><trkpt lat="43.30834068346703" lon="11.31666569189512"><ele>239.00000000000003</ele><time>2026-04-04T10:29:59Z</time></trkpt><trkpt lat="43.30841481822983" lon="11.316777097428954"><ele>239.0</ele><time>2026-04-04T10:30:01Z</time></trkpt><trkpt lat="43.30852408596181" lon="11.31678930434196"><ele>239.0</ele><time>2026-04-04T10:30:03Z</time></trkpt><trkpt lat="43.308598061963814" lon="11.3168014823132"><ele>239.0</ele><time>2026-04-04T10:30:04Z</time></trkpt><trkpt lat="43.30867917084652" lon="11.316816041980337"><ele>239.00000000000003</ele><time>2026-04-04T10:30:05Z</time></trkpt><trkpt lat="43.30874398634055" lon="11.31681569976335"><ele>239.0</ele><time>2026-04-04T10:30:06Z</time></trkpt><trkpt lat="43.308813644641276" lon="11.31680242117956"><ele>239.00000000000003</ele><time>2026-04-04T10:30:07Z</time></trkpt><trkpt lat="43.30890106374387" lon="11.316790899058082"><ele>239.0</ele><time>2026-04-04T10:30:08Z</time></trkpt><trkpt lat="43.308977957852704" lon="11.316790619266943"><ele>239.0</ele><time>2026-04-04T10:30:09Z</time></trkpt><trkpt lat="43.3090489028738" lon="11.316785761361084"><ele>239.0</ele><time>2026-04-04T10:30:10Z</time></trkpt><trkpt lat="43.30911387074664" lon="11.316785768433698"><ele>239.00000000000003</ele><time>2026-04-04T10:30:11Z</time></trkpt><trkpt lat="43.30925922393014" lon="11.316791396178989"><ele>239.0</ele><time>2026-04-04T10:30:13Z</time></trkpt><trkpt lat="43.30934675173961" lon="11.316803588449313"><ele>239.0</ele><time>2026-04-04T10:30:14Z</time></trkpt><trkpt lat="43.30943489707847" lon="11.316821360851392"><ele>238.99999999999997</ele><time>2026-04-04T10:30:15Z</time></trkpt><trkpt lat="43.3095218375095" lon="11.31684081916579"><ele>238.99999999999997</ele><time>2026-04-04T10:30:16Z</time></trkpt><trkpt lat="43.30961413397011" lon="11.316866984672085"><ele>239.0</ele><time>2026-04-04T10:30:17Z</time></trkpt><trkpt lat="43.30970477621477" lon="11.316890534320155"><ele>239.0</ele><time>2026-04-04T10:30:18Z</time></trkpt><trkpt lat="43.30979040320978" lon="11.3169155095799"><ele>239.0</ele><time>2026-04-04T10:30:19Z</time></trkpt><trkpt lat="43.309867092063214" lon="11.316938028849226"><ele>238.99999999999997</ele><time>2026-04-04T10:30:20Z</time></trkpt><trkpt lat="43.30994963586588" lon="11.316963894599667"><ele>238.99999999999997</ele><time>2026-04-04T10:30:21Z</time></trkpt><trkpt lat="43.31004581144646" lon="11.316991565642127"><ele>239.0</ele><time>2026-04-04T10:30:22Z</time></trkpt><trkpt lat="43.310148105412765" lon="11.317022679738427"><ele>239.0</ele><time>2026-04-04T10:30:23Z</time></trkpt><trkpt lat="43.310253838371494" lon="11.317049928304353"><ele>239.0</ele><time>2026-04-04T10:30:24Z</time></trkpt><trkpt lat="43.31036294094904" lon="11.317075393963338"><ele>238.99999999999997</ele><time>2026-04-04T10:30:25Z</time></trkpt><trkpt lat="43.31046815239019" lon="11.317097097975456"><ele>238.99999999999997</ele><time>2026-04-04T10:30:26Z</time></trkpt><trkpt lat="43.310577728990154" lon="11.317122503501203"><ele>239.0</ele><time>2026-04-04T10:30:27Z</time></trkpt><trkpt lat="43.31067798305851" lon="11.317142349030307"><ele>239.0</ele><time>2026-04-04T10:30:28Z</time></trkpt><trkpt lat="43.31077316620012" lon="11.317159974703577"><ele>239.50000000000003</ele><time>2026-04-04T10:30:29Z</time></trkpt><trkpt lat="43.3108560914017" lon="11.317170403207033"><ele>240.0</ele><time>2026-04-04T10:30:30Z</time></trkpt><trkpt lat="43.310929539559886" lon="11.317167291064669"><ele>240.5</ele><time>2026-04-04T10:30:31Z</time></trkpt><trkpt lat="43.3110030586405" lon="11.317172355193085"><ele>241.0</ele><time>2026-04-04T10:30:33Z</time></trkpt><trkpt lat="43.31099100925055" lon="11.316973290226278"><ele>241.50000000000003</ele><time>2026-04-04T10:30:34Z</time></trkpt><trkpt lat="43.31094820908647" lon="11.31689794214702"><ele>242.0</ele><time>2026-04-04T10:30:35Z</time></trkpt><trkpt lat="43.31088696891608" lon="11.316830090048017"><ele>242.0</ele><time>2026-04-04T10:30:36Z</time></trkpt><trkpt lat="43.310810667541226" lon="11.316774600076197"><ele>242.0</ele><time>2026-04-04T10:30:37Z</time></trkpt><trkpt lat="43.3107288699768" lon="11.316751061584737"><ele>242.0</ele><time>2026-04-04T10:30:38Z</time></trkpt><trkpt lat="43.31065629869424" lon="11.316751022644297"><ele>242.0</ele><time>2026-04-04T10:30:39Z</time></trkpt><trkpt lat="43.31053365943096" lon="11.31674202412772"><ele>242.0</ele><time>2026-04-04T10:30:41Z</time></trkpt><trkpt lat="43.31043850334374" lon="11.316733433836733"><ele>242.0</ele><time>2026-04-04T10:30:43Z</time></trkpt><trkpt lat="43.3104600421762" lon="11.316507487447131"><ele>242.0</ele><time>2026-04-04T10:30:44Z</time></trkpt><trkpt lat="43.310448903593176" lon="11.316397260745317"><ele>242.0</ele><time>2026-04-04T10:30:45Z</time></trkpt><trkpt lat="43.31044930138193" lon="11.316273937638748"><ele>242.0</ele><time>2026-04-04T10:30:46Z</time></trkpt><trkpt lat="43.31046569754123" lon="11.316139570651732"><ele>242.0</ele><time>2026-04-04T10:30:47Z</time></trkpt><trkpt lat="43.31045130802123" lon="11.316009308446231"><ele>242.00000000000003</ele><time>2026-04-04T10:30:48Z</time></trkpt><trkpt lat="43.310470261262225" lon="11.3159012671226"><ele>242.0</ele><time>2026-04-04T10:30:49Z</time></trkpt><trkpt lat="43.31046249514655" lon="11.315809100102227"><ele>242.0</ele><time>2026-04-04T10:30:50Z</time></trkpt><trkpt lat="43.31048276913644" lon="11.315699123940734"><ele>242.0</ele><time>2026-04-04T10:30:52Z</time></trkpt><trkpt lat="43.31051321274904" lon="11.315572634801612"><ele>242.00000000000003</ele><time>2026-04-04T10:31:17Z</time></trkpt><trkpt lat="43.31054334035926" lon="11.315481791134701"><ele>242.0</ele><time>2026-04-04T10:31:18Z</time></trkpt><trkpt lat="43.310574721123444" lon="11.31538392792021"><ele>244.75</ele><time>2026-04-04T10:31:19Z</time></trkpt><trkpt lat="43.31062295394264" lon="11.315244599612862"><ele>247.5</ele><time>2026-04-04T10:31:20Z</time></trkpt><trkpt lat="43.3106791494078" lon="11.315079701318114"><ele>250.25</ele><time>2026-04-04T10:31:21Z</time></trkpt><trkpt lat="43.31073753723072" lon="11.31490606915197"><ele>253.0</ele><time>2026-04-04T10:31:22Z</time></trkpt><trkpt lat="43.31080111406639" lon="11.314731266383566"><ele>253.0</ele><time>2026-04-04T10:31:23Z</time></trkpt><trkpt lat="43.31087161594716" lon="11.31454909076222"><ele>253.0</ele><time>2026-04-04T10:31:24Z</time></trkpt><trkpt lat="43.31095021438135" lon="11.314378809917653"><ele>253.0</ele><time>2026-04-04T10:31:25Z</time></trkpt><trkpt lat="43.311036313412835" lon="11.31420651596478"><ele>253.0</ele><time>2026-04-04T10:31:26Z</time></trkpt><trkpt lat="43.31111729756441" lon="11.314056926201104"><ele>253.0</ele><time>2026-04-04T10:31:27Z</time></trkpt><trkpt lat="43.311181580405965" lon="11.313907614226999"><ele>253.0</ele><time>2026-04-04T10:31:28Z</time></trkpt><trkpt lat="43.31125623919682" lon="11.313753198657043"><ele>253.0</ele><time>2026-04-04T10:31:29Z</time></trkpt><trkpt lat="43.31131641684603" lon="11.313573692342061"><ele>253.0</ele><time>2026-04-04T10:31:30Z</time></trkpt><trkpt lat="43.31134249800278" lon="11.31339518525178"><ele>251.75</ele><time>2026-04-04T10:31:31Z</time></trkpt><trkpt lat="43.311329555996736" lon="11.313214835709593"><ele>250.5</ele><time>2026-04-04T10:31:32Z</time></trkpt><trkpt lat="43.31130008509513" lon="11.313025482659677"><ele>249.25</ele><time>2026-04-04T10:31:33Z</time></trkpt><trkpt lat="43.31130398629518" lon="11.312835981159617"><ele>248.0</ele><time>2026-04-04T10:31:34Z</time></trkpt><trkpt lat="43.311308135946724" lon="11.31264719568049"><ele>247.0</ele><time>2026-04-04T10:31:35Z</time></trkpt><trkpt lat="43.311299407533504" lon="11.312472636579512"><ele>246.0</ele><time>2026-04-04T10:31:36Z</time></trkpt><trkpt lat="43.31130199196751" lon="11.312304394793475"><ele>245.0</ele><time>2026-04-04T10:31:37Z</time></trkpt><trkpt lat="43.3112931854665" lon="11.312137008411067"><ele>244.0</ele><time>2026-04-04T10:31:38Z</time></trkpt><trkpt lat="43.31126343399812" lon="11.311967651588933"><ele>243.0</ele><time>2026-04-04T10:31:39Z</time></trkpt><trkpt lat="43.31120093539393" lon="11.311784704737732"><ele>242.0</ele><time>2026-04-04T10:31:40Z</time></trkpt><trkpt lat="43.31111993954633" lon="11.311629197245933"><ele>241.0</ele><time>2026-04-04T10:31:41Z</time></trkpt><trkpt lat="43.31104536718298" lon="11.311462675217516"><ele>240.0</ele><time>2026-04-04T10:31:42Z</time></trkpt><trkpt lat="43.310985332097644" lon="11.311306866708998"><ele>240.0</ele><time>2026-04-04T10:31:43Z</time></trkpt><trkpt lat="43.310947841566126" lon="11.31113244886142"><ele>240.0</ele><time>2026-04-04T10:31:44Z</time></trkpt><trkpt lat="43.310922903635145" lon="11.310936781491764"><ele>240.0</ele><time>2026-04-04T10:31:45Z</time></trkpt><trkpt lat="43.31095330745605" lon="11.310734841094014"><ele>240.0</ele><time>2026-04-04T10:31:46Z</time></trkpt><trkpt lat="43.31102408127627" lon="11.310544626754046"><ele>239.0</ele><time>2026-04-04T10:31:47Z</time></trkpt><trkpt lat="43.31114940955632" lon="11.310394202241122"><ele>238.0</ele><time>2026-04-04T10:31:48Z</time></trkpt><trkpt lat="43.31127359990009" lon="11.310240281924505"><ele>237.0</ele><time>2026-04-04T10:31:49Z</time></trkpt><trkpt lat="43.31141612486535" lon="11.310096022571567"><ele>237.0</ele><time>2026-04-04T10:31:50Z</time></trkpt><trkpt lat="43.31156143813002" lon="11.309928388067991"><ele>237.0</ele><time>2026-04-04T10:31:51Z</time></trkpt><trkpt lat="43.311708204892916" lon="11.30975232063899"><ele>237.0</ele><time>2026-04-04T10:31:52Z</time></trkpt><trkpt lat="43.31185563987866" lon="11.309585032201884"><ele>237.66666666666669</ele><time>2026-04-04T10:31:53Z</time></trkpt><trkpt lat="43.31200373498365" lon="11.309417291531751"><ele>238.33333333333334</ele><time>2026-04-04T10:31:54Z</time></trkpt><trkpt lat="43.312143077363004" lon="11.30925448140164"><ele>239.0</ele><time>2026-04-04T10:31:55Z</time></trkpt><trkpt lat="43.31226868917753" lon="11.309104681530748"><ele>239.0</ele><time>2026-04-04T10:31:56Z</time></trkpt><trkpt lat="43.312392313857195" lon="11.308960086482822"><ele>239.0</ele><time>2026-04-04T10:31:57Z</time></trkpt><trkpt lat="43.31252227528356" lon="11.308808260885666"><ele>239.0</ele><time>2026-04-04T10:31:58Z</time></trkpt><trkpt lat="43.31265480917982" lon="11.308655289808916"><ele>241.33333333333334</ele><time>2026-04-04T10:31:59Z</time></trkpt><trkpt lat="43.31278394824838" lon="11.308506230311592"><ele>243.66666666666669</ele><time>2026-04-04T10:32:00Z</time></trkpt><trkpt lat="43.31290866809714" lon="11.30835799785123"><ele>246.0</ele><time>2026-04-04T10:32:01Z</time></trkpt><trkpt lat="43.313027340928336" lon="11.30821836012191"><ele>245.8</ele><time>2026-04-04T10:32:02Z</time></trkpt><trkpt lat="43.313129683440174" lon="11.30809606781512"><ele>245.60000000000002</ele><time>2026-04-04T10:32:03Z</time></trkpt><trkpt lat="43.31321380229361" lon="11.307986655135327"><ele>245.4</ele><time>2026-04-04T10:32:04Z</time></trkpt><trkpt lat="43.31328853878398" lon="11.307909272154374"><ele>245.2</ele><time>2026-04-04T10:32:05Z</time></trkpt><trkpt lat="43.31335792081772" lon="11.307834485136585"><ele>245.0</ele><time>2026-04-04T10:32:06Z</time></trkpt><trkpt lat="43.3134162945843" lon="11.30776579994069"><ele>245.00000000000003</ele><time>2026-04-04T10:32:07Z</time></trkpt><trkpt lat="43.313470234632874" lon="11.307691087721576"><ele>245.0</ele><time>2026-04-04T10:32:08Z</time></trkpt><trkpt lat="43.31352182005179" lon="11.30762208973145"><ele>245.0</ele><time>2026-04-04T10:32:09Z</time></trkpt><trkpt lat="43.31356995460819" lon="11.307560004342113"><ele>245.0</ele><time>2026-04-04T10:32:10Z</time></trkpt><trkpt lat="43.3136690631715" lon="11.307449359832667"><ele>245.00000000000003</ele><time>2026-04-04T10:32:12Z</time></trkpt><trkpt lat="43.313736065040516" lon="11.30736485946199"><ele>245.0</ele><time>2026-04-04T10:32:13Z</time></trkpt><trkpt lat="43.313819969927444" lon="11.307273544562062"><ele>249.0</ele><time>2026-04-04T10:32:14Z</time></trkpt><trkpt lat="43.313923801146835" lon="11.30715799147982"><ele>253.0</ele><time>2026-04-04T10:32:15Z</time></trkpt><trkpt lat="43.31404695378617" lon="11.307039457519284"><ele>257.0</ele><time>2026-04-04T10:32:16Z</time></trkpt><trkpt lat="43.314184794338644" lon="11.306905241099809"><ele>257.0</ele><time>2026-04-04T10:32:17Z</time></trkpt><trkpt lat="43.31430598592091" lon="11.30679012237082"><ele>257.0</ele><time>2026-04-04T10:32:18Z</time></trkpt><trkpt lat="43.31441236490731" lon="11.306703103411788"><ele>257.0</ele><time>2026-04-04T10:32:19Z</time></trkpt><trkpt lat="43.31449121817038" lon="11.306625094558546"><ele>257.0</ele><time>2026-04-04T10:32:20Z</time></trkpt><trkpt lat="43.314539000999254" lon="11.30652102423227"><ele>259.6</ele><time>2026-04-04T10:32:21Z</time></trkpt><trkpt lat="43.31454039214377" lon="11.306395995303475"><ele>262.2</ele><time>2026-04-04T10:32:22Z</time></trkpt><trkpt lat="43.314496201123575" lon="11.306276298419185"><ele>264.8</ele><time>2026-04-04T10:32:23Z</time></trkpt><trkpt lat="43.31441924313366" lon="11.306200084456432"><ele>267.4</ele><time>2026-04-04T10:32:24Z</time></trkpt><trkpt lat="43.314307260770796" lon="11.306191767816593"><ele>270.0</ele><time>2026-04-04T10:32:25Z</time></trkpt><trkpt lat="43.31419623903927" lon="11.30622947691136"><ele>270.0</ele><time>2026-04-04T10:32:26Z</time></trkpt><trkpt lat="43.31407591714574" lon="11.306329915477951"><ele>270.0</ele><time>2026-04-04T10:32:27Z</time></trkpt><trkpt lat="43.31394688137181" lon="11.306401645284378"><ele>270.0</ele><time>2026-04-04T10:32:28Z</time></trkpt><trkpt lat="43.313820266315425" lon="11.306482899238992"><ele>270.0</ele><time>2026-04-04T10:32:29Z</time></trkpt><trkpt lat="43.31371232708557" lon="11.306550574383508"><ele>267.25</ele><time>2026-04-04T10:32:30Z</time></trkpt><trkpt lat="43.31361815069478" lon="11.306621531868867"><ele>264.5</ele><time>2026-04-04T10:32:31Z</time></trkpt><trkpt lat="43.31351495323376" lon="11.306629042557127"><ele>261.75</ele><time>2026-04-04T10:32:32Z</time></trkpt><trkpt lat="43.31335018872768" lon="11.306596306053025"><ele>259.0</ele><time>2026-04-04T10:32:34Z</time></trkpt><trkpt lat="43.31327715159832" lon="11.306534195922838"><ele>259.0</ele><time>2026-04-04T10:32:35Z</time></trkpt><trkpt lat="43.31320311790259" lon="11.306460729117854"><ele>259.0</ele><time>2026-04-04T10:32:36Z</time></trkpt><trkpt lat="43.3131985122939" lon="11.306308998794066"><ele>259.0</ele><time>2026-04-04T10:32:37Z</time></trkpt><trkpt lat="43.31316870953579" lon="11.30616294939749"><ele>259.0</ele><time>2026-04-04T10:32:38Z</time></trkpt><trkpt lat="43.313151327321656" lon="11.306013916215464"><ele>259.0</ele><time>2026-04-04T10:32:39Z</time></trkpt><trkpt lat="43.313127616570306" lon="11.30585301011357"><ele>261.75</ele><time>2026-04-04T10:32:40Z</time></trkpt><trkpt lat="43.31312435528828" lon="11.30568399763158"><ele>264.5</ele><time>2026-04-04T10:32:41Z</time></trkpt><trkpt lat="43.313166452171444" lon="11.305507909401921"><ele>267.25</ele><time>2026-04-04T10:32:42Z</time></trkpt><trkpt lat="43.31318233435338" lon="11.305303108935304"><ele>270.0</ele><time>2026-04-04T10:32:43Z</time></trkpt><trkpt lat="43.31320089657572" lon="11.305109691263779"><ele>271.25</ele><time>2026-04-04T10:32:44Z</time></trkpt><trkpt lat="43.313221328915866" lon="11.304920206567663"><ele>272.5</ele><time>2026-04-04T10:32:45Z</time></trkpt><trkpt lat="43.31324472309333" lon="11.304727579136479"><ele>273.75</ele><time>2026-04-04T10:32:46Z</time></trkpt><trkpt lat="43.31328275932551" lon="11.30452322668373"><ele>275.0</ele><time>2026-04-04T10:32:47Z</time></trkpt><trkpt lat="43.31328502525559" lon="11.304316155808012"><ele>275.0</ele><time>2026-04-04T10:32:48Z</time></trkpt><trkpt lat="43.31327434772372" lon="11.30413508250186"><ele>275.0</ele><time>2026-04-04T10:32:49Z</time></trkpt><trkpt lat="43.313297430254536" lon="11.30396227916822"><ele>275.0</ele><time>2026-04-04T10:32:50Z</time></trkpt><trkpt lat="43.31339135914948" lon="11.303816815054205"><ele>275.0</ele><time>2026-04-04T10:32:51Z</time></trkpt><trkpt lat="43.313484846898646" lon="11.303664699416169"><ele>274.5</ele><time>2026-04-04T10:32:52Z</time></trkpt><trkpt lat="43.31359748184969" lon="11.30354576495441"><ele>274.0</ele><time>2026-04-04T10:32:53Z</time></trkpt><trkpt lat="43.31368664411034" lon="11.303415642431597"><ele>273.5</ele><time>2026-04-04T10:32:54Z</time></trkpt><trkpt lat="43.313736231468205" lon="11.303244818058719"><ele>273.0</ele><time>2026-04-04T10:32:55Z</time></trkpt><trkpt lat="43.31373545570103" lon="11.303075944629947"><ele>274.25</ele><time>2026-04-04T10:32:56Z</time></trkpt><trkpt lat="43.31369080413058" lon="11.302908066658576"><ele>275.5</ele><time>2026-04-04T10:32:57Z</time></trkpt><trkpt lat="43.31362038644411" lon="11.302737443754655"><ele>276.75</ele><time>2026-04-04T10:32:58Z</time></trkpt><trkpt lat="43.31356366724145" lon="11.302555186334779"><ele>278.0</ele><time>2026-04-04T10:32:59Z</time></trkpt><trkpt lat="43.313530894594976" lon="11.302361198133491"><ele>279.0</ele><time>2026-04-04T10:33:00Z</time></trkpt><trkpt lat="43.31348687298207" lon="11.302155204894966"><ele>280.0</ele><time>2026-04-04T10:33:01Z</time></trkpt><trkpt lat="43.31343066761477" lon="11.301988836686066"><ele>281.0</ele><time>2026-04-04T10:33:02Z</time></trkpt><trkpt lat="43.31343773756052" lon="11.301831692815485"><ele>282.0</ele><time>2026-04-04T10:33:03Z</time></trkpt><trkpt lat="43.31347934268347" lon="11.301685475156821"><ele>282.0</ele><time>2026-04-04T10:33:04Z</time></trkpt><trkpt lat="43.31352871425309" lon="11.30149844906916"><ele>282.0</ele><time>2026-04-04T10:33:05Z</time></trkpt><trkpt lat="43.313594185408654" lon="11.301318283697181"><ele>282.0</ele><time>2026-04-04T10:33:06Z</time></trkpt><trkpt lat="43.313658258621324" lon="11.301139916720283"><ele>282.0</ele><time>2026-04-04T10:33:07Z</time></trkpt><trkpt lat="43.313723107161856" lon="11.30096269222817"><ele>281.5</ele><time>2026-04-04T10:33:08Z</time></trkpt><trkpt lat="43.313815149876426" lon="11.300823906219314"><ele>281.0</ele><time>2026-04-04T10:33:09Z</time></trkpt><trkpt lat="43.31391570638183" lon="11.300693006342772"><ele>280.5</ele><time>2026-04-04T10:33:10Z</time></trkpt><trkpt lat="43.314038982154926" lon="11.300549623993534"><ele>280.0</ele><time>2026-04-04T10:33:11Z</time></trkpt><trkpt lat="43.31417758328418" lon="11.30044011249651"><ele>283.0</ele><time>2026-04-04T10:33:12Z</time></trkpt><trkpt lat="43.31431453924223" lon="11.300325064298724"><ele>286.0</ele><time>2026-04-04T10:33:13Z</time></trkpt><trkpt lat="43.31444963734829" lon="11.300208515978186"><ele>289.0</ele><time>2026-04-04T10:33:14Z</time></trkpt><trkpt lat="43.31457543802264" lon="11.300118365175894"><ele>289.0</ele><time>2026-04-04T10:33:15Z</time></trkpt><trkpt lat="43.31470455247458" lon="11.300039733519112"><ele>289.0</ele><time>2026-04-04T10:33:16Z</time></trkpt><trkpt lat="43.31482600827721" lon="11.299957455580016"><ele>289.0</ele><time>2026-04-04T10:33:17Z</time></trkpt><trkpt lat="43.314940484035716" lon="11.299843455145373"><ele>289.0</ele><time>2026-04-04T10:33:18Z</time></trkpt><trkpt lat="43.31503005000842" lon="11.299689032846308"><ele>292.66666666666663</ele><time>2026-04-04T10:33:19Z</time></trkpt><trkpt lat="43.31508658487104" lon="11.299501810413444"><ele>296.3333333333333</ele><time>2026-04-04T10:33:20Z</time></trkpt><trkpt lat="43.31513170982405" lon="11.299300821424579"><ele>300.0</ele><time>2026-04-04T10:33:21Z</time></trkpt><trkpt lat="43.31522270779094" lon="11.29912908741086"><ele>300.0</ele><time>2026-04-04T10:33:22Z</time></trkpt><trkpt lat="43.31530815231913" lon="11.298932724928218"><ele>300.0</ele><time>2026-04-04T10:33:23Z</time></trkpt><trkpt lat="43.31538153649037" lon="11.298723204634937"><ele>300.0</ele><time>2026-04-04T10:33:24Z</time></trkpt><trkpt lat="43.31544820315651" lon="11.298516877874812"><ele>301.0</ele><time>2026-04-04T10:33:25Z</time></trkpt><trkpt lat="43.31550249919895" lon="11.298327118352352"><ele>302.0</ele><time>2026-04-04T10:33:26Z</time></trkpt><trkpt lat="43.31554076712582" lon="11.298138481031879"><ele>303.0</ele><time>2026-04-04T10:33:27Z</time></trkpt><trkpt lat="43.31555439868564" lon="11.297928848747334"><ele>304.0</ele><time>2026-04-04T10:33:28Z</time></trkpt><trkpt lat="43.31555258945969" lon="11.297738201145478"><ele>307.0</ele><time>2026-04-04T10:33:29Z</time></trkpt><trkpt lat="43.31558454806099" lon="11.297583517075118"><ele>310.0</ele><time>2026-04-04T10:33:30Z</time></trkpt><trkpt lat="43.31563273033284" lon="11.297431862495383"><ele>313.0</ele><time>2026-04-04T10:33:31Z</time></trkpt><trkpt lat="43.31569950296288" lon="11.297269958847535"><ele>316.0</ele><time>2026-04-04T10:33:32Z</time></trkpt><trkpt lat="43.31576249381379" lon="11.297090028898054"><ele>317.25</ele><time>2026-04-04T10:33:33Z</time></trkpt><trkpt lat="43.3157915771261" lon="11.296888487542041"><ele>318.5</ele><time>2026-04-04T10:33:34Z</time></trkpt><trkpt lat="43.315821496265336" lon="11.296687520708524"><ele>319.75</ele><time>2026-04-04T10:33:35Z</time></trkpt><trkpt lat="43.31585639805227" lon="11.296502372308426"><ele>321.0</ele><time>2026-04-04T10:33:36Z</time></trkpt><trkpt lat="43.31588763373678" lon="11.296335560935342"><ele>321.25</ele><time>2026-04-04T10:33:37Z</time></trkpt><trkpt lat="43.31591258886412" lon="11.296156174159222"><ele>321.5</ele><time>2026-04-04T10:33:38Z</time></trkpt><trkpt lat="43.315923558875" lon="11.295949816942048"><ele>321.75</ele><time>2026-04-04T10:33:39Z</time></trkpt><trkpt lat="43.315901505106254" lon="11.295736604939217"><ele>322.0</ele><time>2026-04-04T10:33:40Z</time></trkpt><trkpt lat="43.3158852094727" lon="11.295520084920497"><ele>322.5</ele><time>2026-04-04T10:33:41Z</time></trkpt><trkpt lat="43.315903159668125" lon="11.295325360000307"><ele>323.0</ele><time>2026-04-04T10:33:42Z</time></trkpt><trkpt lat="43.31595485790005" lon="11.29513561001446"><ele>323.5</ele><time>2026-04-04T10:33:43Z</time></trkpt><trkpt lat="43.31602592672712" lon="11.294973515790511"><ele>324.0</ele><time>2026-04-04T10:33:44Z</time></trkpt><trkpt lat="43.31609959701376" lon="11.294856510803092"><ele>324.0</ele><time>2026-04-04T10:33:45Z</time></trkpt><trkpt lat="43.31615316290224" lon="11.294761964913281"><ele>324.0</ele><time>2026-04-04T10:33:46Z</time></trkpt><trkpt lat="43.31622703830952" lon="11.294706624391248"><ele>324.0</ele><time>2026-04-04T10:33:47Z</time></trkpt><trkpt lat="43.31634713197662" lon="11.29469073927363"><ele>324.0</ele><time>2026-04-04T10:33:48Z</time></trkpt><trkpt lat="43.31648156379616" lon="11.294613973169021"><ele>324.0</ele><time>2026-04-04T10:33:49Z</time></trkpt><trkpt lat="43.316637966727384" lon="11.29456294331855"><ele>327.0</ele><time>2026-04-04T10:33:50Z</time></trkpt><trkpt lat="43.31678426982526" lon="11.29446819001398"><ele>330.0</ele><time>2026-04-04T10:33:51Z</time></trkpt><trkpt lat="43.31690029325786" lon="11.294420093994464"><ele>333.0</ele><time>2026-04-04T10:33:52Z</time></trkpt><trkpt lat="43.31698816642439" lon="11.294343276878891"><ele>336.0</ele><time>2026-04-04T10:33:53Z</time></trkpt><trkpt lat="43.31705502719796" lon="11.294220481429706"><ele>336.0</ele><time>2026-04-04T10:33:54Z</time></trkpt><trkpt lat="43.317096911727035" lon="11.294059498682941"><ele>336.0</ele><time>2026-04-04T10:33:55Z</time></trkpt><trkpt lat="43.31710221943181" lon="11.293884893558474"><ele>336.0</ele><time>2026-04-04T10:33:56Z</time></trkpt><trkpt lat="43.31707424413306" lon="11.293734131114153"><ele>336.0</ele><time>2026-04-04T10:33:57Z</time></trkpt><trkpt lat="43.31701575296819" lon="11.293623832434031"><ele>337.25</ele><time>2026-04-04T10:33:58Z</time></trkpt><trkpt lat="43.31691854276556" lon="11.29352968388812"><ele>338.5</ele><time>2026-04-04T10:33:59Z</time></trkpt><trkpt lat="43.31680381960486" lon="11.293458748778214"><ele>339.75</ele><time>2026-04-04T10:34:00Z</time></trkpt><trkpt lat="43.316654946355534" lon="11.293435009845394"><ele>341.0</ele><time>2026-04-04T10:34:01Z</time></trkpt><trkpt lat="43.316504693420875" lon="11.293384581888354"><ele>341.0</ele><time>2026-04-04T10:34:02Z</time></trkpt><trkpt lat="43.31637937470308" lon="11.29333922420643"><ele>341.0</ele><time>2026-04-04T10:34:03Z</time></trkpt><trkpt lat="43.316279494656804" lon="11.293289411597252"><ele>341.0</ele><time>2026-04-04T10:34:04Z</time></trkpt><trkpt lat="43.316190362817274" lon="11.29322266925514"><ele>341.0</ele><time>2026-04-04T10:34:05Z</time></trkpt><trkpt lat="43.316108846635046" lon="11.29313227539807"><ele>341.0</ele><time>2026-04-04T10:34:06Z</time></trkpt><trkpt lat="43.316017749013255" lon="11.293034893090033"><ele>343.25</ele><time>2026-04-04T10:34:07Z</time></trkpt><trkpt lat="43.31592721074028" lon="11.292932634493656"><ele>345.5</ele><time>2026-04-04T10:34:08Z</time></trkpt><trkpt lat="43.31584669957208" lon="11.292812888172847"><ele>347.75</ele><time>2026-04-04T10:34:09Z</time></trkpt><trkpt lat="43.315802351004834" lon="11.292677003966189"><ele>350.0</ele><time>2026-04-04T10:34:10Z</time></trkpt><trkpt lat="43.31579272771049" lon="11.292522098402994"><ele>350.0</ele><time>2026-04-04T10:34:11Z</time></trkpt><trkpt lat="43.315787275574486" lon="11.29232617230792"><ele>350.0</ele><time>2026-04-04T10:34:12Z</time></trkpt><trkpt lat="43.31577641438279" lon="11.292115851665228"><ele>350.0</ele><time>2026-04-04T10:34:13Z</time></trkpt><trkpt lat="43.31577298346454" lon="11.291899649773658"><ele>351.33333333333337</ele><time>2026-04-04T10:34:14Z</time></trkpt><trkpt lat="43.3157625685567" lon="11.291689998179207"><ele>352.6666666666667</ele><time>2026-04-04T10:34:15Z</time></trkpt><trkpt lat="43.315727005837225" lon="11.291480075616809"><ele>354.0</ele><time>2026-04-04T10:34:16Z</time></trkpt><trkpt lat="43.31566586976128" lon="11.29127825563749"><ele>354.0</ele><time>2026-04-04T10:34:17Z</time></trkpt><trkpt lat="43.31560999234999" lon="11.29110592858633"><ele>354.0</ele><time>2026-04-04T10:34:18Z</time></trkpt><trkpt lat="43.315552568121404" lon="11.29096358293605"><ele>354.0</ele><time>2026-04-04T10:34:19Z</time></trkpt><trkpt lat="43.31549988465537" lon="11.290824321406319"><ele>354.0</ele><time>2026-04-04T10:34:20Z</time></trkpt><trkpt lat="43.31545291872311" lon="11.29069055588582"><ele>354.6</ele><time>2026-04-04T10:34:21Z</time></trkpt><trkpt lat="43.31540842792284" lon="11.290557886687692"><ele>355.2</ele><time>2026-04-04T10:34:22Z</time></trkpt><trkpt lat="43.315366721134474" lon="11.290424614346103"><ele>355.8</ele><time>2026-04-04T10:34:23Z</time></trkpt><trkpt lat="43.315312120655015" lon="11.290279446105076"><ele>356.40000000000003</ele><time>2026-04-04T10:34:24Z</time></trkpt><trkpt lat="43.315286053751564" lon="11.290122989770223"><ele>357.0</ele><time>2026-04-04T10:34:25Z</time></trkpt><trkpt lat="43.315243671322435" lon="11.289968137213528"><ele>357.0</ele><time>2026-04-04T10:34:26Z</time></trkpt><trkpt lat="43.315186906955255" lon="11.289811923473174"><ele>357.0</ele><time>2026-04-04T10:34:27Z</time></trkpt><trkpt lat="43.31515384382023" lon="11.289644528439581"><ele>357.0</ele><time>2026-04-04T10:34:28Z</time></trkpt><trkpt lat="43.31512095496594" lon="11.28948208101407"><ele>357.0</ele><time>2026-04-04T10:34:29Z</time></trkpt><trkpt lat="43.315071777574325" lon="11.28932199331076"><ele>356.5</ele><time>2026-04-04T10:34:30Z</time></trkpt><trkpt lat="43.315002521145324" lon="11.289168758933128"><ele>356.0</ele><time>2026-04-04T10:34:31Z</time></trkpt><trkpt lat="43.31490178105671" lon="11.289020094199783"><ele>355.5</ele><time>2026-04-04T10:34:32Z</time></trkpt><trkpt lat="43.3148151084788" lon="11.288872097391412"><ele>355.0</ele><time>2026-04-04T10:34:33Z</time></trkpt><trkpt lat="43.31472699477987" lon="11.288722558181009"><ele>355.0</ele><time>2026-04-04T10:34:34Z</time></trkpt><trkpt lat="43.314646654176855" lon="11.288574837165136"><ele>355.0</ele><time>2026-04-04T10:34:35Z</time></trkpt><trkpt lat="43.31455767601668" lon="11.288411660457127"><ele>355.0</ele><time>2026-04-04T10:34:36Z</time></trkpt><trkpt lat="43.31446826473154" lon="11.288258633744073"><ele>355.0</ele><time>2026-04-04T10:34:37Z</time></trkpt><trkpt lat="43.314376275272046" lon="11.288125715009606"><ele>354.8</ele><time>2026-04-04T10:34:38Z</time></trkpt><trkpt lat="43.31430874393523" lon="11.287977821147768"><ele>354.6</ele><time>2026-04-04T10:34:39Z</time></trkpt><trkpt lat="43.31424043214974" lon="11.287850825780756"><ele>354.4</ele><time>2026-04-04T10:34:40Z</time></trkpt><trkpt lat="43.314176166761165" lon="11.287731351515294"><ele>354.2</ele><time>2026-04-04T10:34:41Z</time></trkpt><trkpt lat="43.3141159858198" lon="11.287632415399873"><ele>354.0</ele><time>2026-04-04T10:34:42Z</time></trkpt><trkpt lat="43.31409729769856" lon="11.287531061877699"><ele>354.0</ele><time>2026-04-04T10:34:43Z</time></trkpt><trkpt lat="43.31411389561004" lon="11.287431837893484"><ele>354.0</ele><time>2026-04-04T10:34:44Z</time></trkpt><trkpt lat="43.31418835891345" lon="11.287363411104437"><ele>354.0</ele><time>2026-04-04T10:34:45Z</time></trkpt><trkpt lat="43.31426776889689" lon="11.28725008145899"><ele>354.0</ele><time>2026-04-04T10:34:46Z</time></trkpt><trkpt lat="43.3143723295379" lon="11.287142687600783"><ele>354.0</ele><time>2026-04-04T10:34:47Z</time></trkpt><trkpt lat="43.3144619040493" lon="11.287042373407042"><ele>354.1666666666667</ele><time>2026-04-04T10:34:48Z</time></trkpt><trkpt lat="43.31454184926032" lon="11.286954788055043"><ele>354.3333333333333</ele><time>2026-04-04T10:34:49Z</time></trkpt><trkpt lat="43.314620094769026" lon="11.286869047393152"><ele>354.5</ele><time>2026-04-04T10:34:50Z</time></trkpt><trkpt lat="43.314687124272055" lon="11.286793450120898"><ele>354.66666666666663</ele><time>2026-04-04T10:34:51Z</time></trkpt><trkpt lat="43.31473522321843" lon="11.28672480078457"><ele>354.8333333333333</ele><time>2026-04-04T10:34:52Z</time></trkpt><trkpt lat="43.314761353882275" lon="11.286639076789665"><ele>355.0</ele><time>2026-04-04T10:34:53Z</time></trkpt><trkpt lat="43.31475836607593" lon="11.286534185060402"><ele>354.0</ele><time>2026-04-04T10:34:54Z</time></trkpt><trkpt lat="43.314745995177226" lon="11.286390287356774"><ele>353.0</ele><time>2026-04-04T10:34:55Z</time></trkpt><trkpt lat="43.31474108345454" lon="11.28620583345331"><ele>352.0</ele><time>2026-04-04T10:34:56Z</time></trkpt><trkpt lat="43.31471407186169" lon="11.286015705401972"><ele>351.0</ele><time>2026-04-04T10:34:57Z</time></trkpt><trkpt lat="43.31467654199894" lon="11.285845940606487"><ele>351.0</ele><time>2026-04-04T10:34:58Z</time></trkpt><trkpt lat="43.314644445680095" lon="11.285639938636624"><ele>351.0</ele><time>2026-04-04T10:34:59Z</time></trkpt><trkpt lat="43.314640334646164" lon="11.285423103332683"><ele>351.0</ele><time>2026-04-04T10:35:00Z</time></trkpt><trkpt lat="43.314661725290236" lon="11.285203318665541"><ele>348.6666666666667</ele><time>2026-04-04T10:35:01Z</time></trkpt><trkpt lat="43.3147054901874" lon="11.284992739497149"><ele>346.33333333333337</ele><time>2026-04-04T10:35:02Z</time></trkpt><trkpt lat="43.31473896403077" lon="11.284801356505707"><ele>344.0</ele><time>2026-04-04T10:35:03Z</time></trkpt><trkpt lat="43.31473834578878" lon="11.284585119354766"><ele>341.6666666666667</ele><time>2026-04-04T10:35:04Z</time></trkpt><trkpt lat="43.31469970501729" lon="11.284364067680652"><ele>339.3333333333333</ele><time>2026-04-04T10:35:05Z</time></trkpt><trkpt lat="43.31463019383348" lon="11.284144424993805"><ele>337.0</ele><time>2026-04-04T10:35:06Z</time></trkpt><trkpt lat="43.31454087428567" lon="11.28391729345749"><ele>333.66666666666663</ele><time>2026-04-04T10:35:07Z</time></trkpt><trkpt lat="43.3144322143902" lon="11.283686092934742"><ele>330.3333333333333</ele><time>2026-04-04T10:35:08Z</time></trkpt><trkpt lat="43.31431906799314" lon="11.28349257370389"><ele>327.0</ele><time>2026-04-04T10:35:09Z</time></trkpt><trkpt lat="43.314234468478276" lon="11.28329745899443"><ele>327.0</ele><time>2026-04-04T10:35:10Z</time></trkpt><trkpt lat="43.31414653722123" lon="11.283113329946307"><ele>327.0</ele><time>2026-04-04T10:35:11Z</time></trkpt><trkpt lat="43.314067370599645" lon="11.282930045901415"><ele>327.0</ele><time>2026-04-04T10:35:12Z</time></trkpt><trkpt lat="43.314002197959795" lon="11.282740251742691"><ele>325.3333333333333</ele><time>2026-04-04T10:35:13Z</time></trkpt><trkpt lat="43.31399518390196" lon="11.28251368320693"><ele>323.66666666666663</ele><time>2026-04-04T10:35:14Z</time></trkpt><trkpt lat="43.31398002294543" lon="11.282247881143501"><ele>322.0</ele><time>2026-04-04T10:35:15Z</time></trkpt><trkpt lat="43.31398022052002" lon="11.281958844850156"><ele>320.3333333333333</ele><time>2026-04-04T10:35:16Z</time></trkpt><trkpt lat="43.31397349581936" lon="11.281695879114263"><ele>318.6666666666667</ele><time>2026-04-04T10:35:17Z</time></trkpt><trkpt lat="43.313960783863216" lon="11.281461880400544"><ele>317.0</ele><time>2026-04-04T10:35:18Z</time></trkpt><trkpt lat="43.31394600669177" lon="11.281228115774967"><ele>316.0</ele><time>2026-04-04T10:35:19Z</time></trkpt><trkpt lat="43.31397313697145" lon="11.281022208966657"><ele>315.0</ele><time>2026-04-04T10:35:20Z</time></trkpt><trkpt lat="43.31402608372859" lon="11.280833330085686"><ele>314.0</ele><time>2026-04-04T10:35:21Z</time></trkpt><trkpt lat="43.31409535000127" lon="11.280655921971766"><ele>313.0</ele><time>2026-04-04T10:35:22Z</time></trkpt><trkpt lat="43.314225417204" lon="11.28051835301062"><ele>311.3333333333333</ele><time>2026-04-04T10:35:23Z</time></trkpt><trkpt lat="43.31435942546954" lon="11.280385545231502"><ele>309.6666666666667</ele><time>2026-04-04T10:35:24Z</time></trkpt><trkpt lat="43.31451002589909" lon="11.280299626617854"><ele>308.0</ele><time>2026-04-04T10:35:25Z</time></trkpt><trkpt lat="43.31464477765974" lon="11.280218335075014"><ele>307.0</ele><time>2026-04-04T10:35:26Z</time></trkpt><trkpt lat="43.31477254760812" lon="11.280101520545513"><ele>306.0</ele><time>2026-04-04T10:35:27Z</time></trkpt><trkpt lat="43.3148894540997" lon="11.279967899100063"><ele>305.0</ele><time>2026-04-04T10:35:28Z</time></trkpt><trkpt lat="43.314997632657715" lon="11.279817433073482"><ele>303.6666666666667</ele><time>2026-04-04T10:35:29Z</time></trkpt><trkpt lat="43.315094603213176" lon="11.279638607078663"><ele>302.3333333333333</ele><time>2026-04-04T10:35:30Z</time></trkpt><trkpt lat="43.31518202081821" lon="11.279464530982535"><ele>301.0</ele><time>2026-04-04T10:35:31Z</time></trkpt><trkpt lat="43.315270157874515" lon="11.279298920198611"><ele>301.0</ele><time>2026-04-04T10:35:32Z</time></trkpt><trkpt lat="43.31535970085991" lon="11.279134834329973"><ele>301.0</ele><time>2026-04-04T10:35:33Z</time></trkpt><trkpt lat="43.31544658706992" lon="11.278959828195658"><ele>301.0</ele><time>2026-04-04T10:35:34Z</time></trkpt><trkpt lat="43.31553298054941" lon="11.27878003711078"><ele>299.3333333333333</ele><time>2026-04-04T10:35:35Z</time></trkpt><trkpt lat="43.3156050821588" lon="11.278589733267564"><ele>297.6666666666667</ele><time>2026-04-04T10:35:36Z</time></trkpt><trkpt lat="43.31566018216598" lon="11.278397868109229"><ele>296.0</ele><time>2026-04-04T10:35:37Z</time></trkpt><trkpt lat="43.315702891339726" lon="11.278202039856943"><ele>293.0</ele><time>2026-04-04T10:35:38Z</time></trkpt><trkpt lat="43.315736069553154" lon="11.278001404938404"><ele>290.0</ele><time>2026-04-04T10:35:39Z</time></trkpt><trkpt lat="43.315763243683584" lon="11.27778638137244"><ele>287.0</ele><time>2026-04-04T10:35:40Z</time></trkpt><trkpt lat="43.31577822438022" lon="11.277564579809885"><ele>287.0</ele><time>2026-04-04T10:35:41Z</time></trkpt><trkpt lat="43.31578698477021" lon="11.277361384596725"><ele>287.0</ele><time>2026-04-04T10:35:42Z</time></trkpt><trkpt lat="43.31576627942177" lon="11.277176382154513"><ele>287.0</ele><time>2026-04-04T10:35:43Z</time></trkpt><trkpt lat="43.315729176787286" lon="11.27699754626433"><ele>287.0</ele><time>2026-04-04T10:35:44Z</time></trkpt><trkpt lat="43.31568706158574" lon="11.276830140325607"><ele>286.25</ele><time>2026-04-04T10:35:45Z</time></trkpt><trkpt lat="43.315660573577084" lon="11.276658339764188"><ele>285.5</ele><time>2026-04-04T10:35:46Z</time></trkpt><trkpt lat="43.315648381537486" lon="11.276489025898528"><ele>284.75</ele><time>2026-04-04T10:35:47Z</time></trkpt><trkpt lat="43.31565132150599" lon="11.276312683651149"><ele>284.0</ele><time>2026-04-04T10:35:48Z</time></trkpt><trkpt lat="43.315678602654906" lon="11.27613032812414"><ele>282.0</ele><time>2026-04-04T10:35:49Z</time></trkpt><trkpt lat="43.315728662289146" lon="11.275965328197787"><ele>280.0</ele><time>2026-04-04T10:35:50Z</time></trkpt><trkpt lat="43.31582249255984" lon="11.275837795838354"><ele>278.0</ele><time>2026-04-04T10:35:51Z</time></trkpt><trkpt lat="43.31593692803065" lon="11.275732550838004"><ele>276.0</ele><time>2026-04-04T10:35:52Z</time></trkpt><trkpt lat="43.316082770130464" lon="11.275611441376043"><ele>273.3333333333333</ele><time>2026-04-04T10:35:53Z</time></trkpt><trkpt lat="43.31623770250493" lon="11.275539406969292"><ele>270.66666666666663</ele><time>2026-04-04T10:35:54Z</time></trkpt><trkpt lat="43.31638635703823" lon="11.275462088966947"><ele>268.0</ele><time>2026-04-04T10:35:55Z</time></trkpt><trkpt lat="43.316525180194496" lon="11.275381722933469"><ele>267.75</ele><time>2026-04-04T10:35:56Z</time></trkpt><trkpt lat="43.31665097126038" lon="11.275285882041707"><ele>267.5</ele><time>2026-04-04T10:35:57Z</time></trkpt><trkpt lat="43.316757379824175" lon="11.275160787912569"><ele>267.25</ele><time>2026-04-04T10:35:58Z</time></trkpt><trkpt lat="43.31683946709895" lon="11.275009281497303"><ele>267.0</ele><time>2026-04-04T10:35:59Z</time></trkpt><trkpt lat="43.3168902300145" lon="11.27482969913932"><ele>267.0</ele><time>2026-04-04T10:36:00Z</time></trkpt><trkpt lat="43.31692566516262" lon="11.274661038588729"><ele>267.0</ele><time>2026-04-04T10:36:01Z</time></trkpt><trkpt lat="43.31695895403556" lon="11.27449083238684"><ele>267.0</ele><time>2026-04-04T10:36:02Z</time></trkpt><trkpt lat="43.31699306405472" lon="11.274316012476346"><ele>267.0</ele><time>2026-04-04T10:36:03Z</time></trkpt><trkpt lat="43.31703509051605" lon="11.274122342327901"><ele>267.0</ele><time>2026-04-04T10:36:04Z</time></trkpt><trkpt lat="43.31705805681895" lon="11.273943626916017"><ele>267.0</ele><time>2026-04-04T10:36:05Z</time></trkpt><trkpt lat="43.31708188863018" lon="11.273756812711019"><ele>267.0</ele><time>2026-04-04T10:36:06Z</time></trkpt><trkpt lat="43.31710692877007" lon="11.27356373277086"><ele>267.0</ele><time>2026-04-04T10:36:07Z</time></trkpt><trkpt lat="43.31713320503411" lon="11.273370258248667"><ele>267.75</ele><time>2026-04-04T10:36:08Z</time></trkpt><trkpt lat="43.317164388402674" lon="11.273172440068029"><ele>268.5</ele><time>2026-04-04T10:36:09Z</time></trkpt><trkpt lat="43.317194963109614" lon="11.272975953961437"><ele>269.25</ele><time>2026-04-04T10:36:10Z</time></trkpt><trkpt lat="43.31722573216061" lon="11.272780425069763"><ele>270.0</ele><time>2026-04-04T10:36:11Z</time></trkpt><trkpt lat="43.317264778853854" lon="11.27258955897996"><ele>270.6666666666667</ele><time>2026-04-04T10:36:12Z</time></trkpt><trkpt lat="43.317318775823466" lon="11.272400158879305"><ele>271.33333333333337</ele><time>2026-04-04T10:36:13Z</time></trkpt><trkpt lat="43.3173873176423" lon="11.27221743438618"><ele>272.0</ele><time>2026-04-04T10:36:14Z</time></trkpt><trkpt lat="43.31747163041496" lon="11.272040278038627"><ele>272.0</ele><time>2026-04-04T10:36:15Z</time></trkpt><trkpt lat="43.317577712377684" lon="11.27188288379819"><ele>272.0</ele><time>2026-04-04T10:36:16Z</time></trkpt><trkpt lat="43.317669489661995" lon="11.27174986325889"><ele>272.0</ele><time>2026-04-04T10:36:17Z</time></trkpt><trkpt lat="43.31776450840056" lon="11.271631363106435"><ele>272.0</ele><time>2026-04-04T10:36:18Z</time></trkpt><trkpt lat="43.31785991669773" lon="11.271521811954402"><ele>272.25</ele><time>2026-04-04T10:36:19Z</time></trkpt><trkpt lat="43.317964931834524" lon="11.271411343787838"><ele>272.5</ele><time>2026-04-04T10:36:20Z</time></trkpt><trkpt lat="43.318070510207555" lon="11.27128879471677"><ele>272.75</ele><time>2026-04-04T10:36:21Z</time></trkpt><trkpt lat="43.31818009337671" lon="11.271150826145533"><ele>273.0</ele><time>2026-04-04T10:36:22Z</time></trkpt><trkpt lat="43.31829483451877" lon="11.271003580844486"><ele>272.3333333333333</ele><time>2026-04-04T10:36:23Z</time></trkpt><trkpt lat="43.318410619357" lon="11.270853696191857"><ele>271.66666666666663</ele><time>2026-04-04T10:36:24Z</time></trkpt><trkpt lat="43.3185472975889" lon="11.270685634176962"><ele>271.0</ele><time>2026-04-04T10:36:25Z</time></trkpt><trkpt lat="43.31867361316967" lon="11.270518223166293"><ele>272.3333333333333</ele><time>2026-04-04T10:36:26Z</time></trkpt><trkpt lat="43.3188015643175" lon="11.270348102284418"><ele>273.6666666666667</ele><time>2026-04-04T10:36:27Z</time></trkpt><trkpt lat="43.318920044013915" lon="11.270181247894671"><ele>275.0</ele><time>2026-04-04T10:36:28Z</time></trkpt><trkpt lat="43.319026483477096" lon="11.270025779306925"><ele>275.0</ele><time>2026-04-04T10:36:29Z</time></trkpt><trkpt lat="43.319136425299" lon="11.269872276768892"><ele>275.0</ele><time>2026-04-04T10:36:30Z</time></trkpt><trkpt lat="43.319250828763444" lon="11.269717875988585"><ele>275.0</ele><time>2026-04-04T10:36:31Z</time></trkpt><trkpt lat="43.31936368824105" lon="11.269558449836904"><ele>275.33333333333337</ele><time>2026-04-04T10:36:32Z</time></trkpt><trkpt lat="43.319482109474144" lon="11.269409616403983"><ele>275.6666666666667</ele><time>2026-04-04T10:36:33Z</time></trkpt><trkpt lat="43.31961060969398" lon="11.269291726788037"><ele>276.0</ele><time>2026-04-04T10:36:34Z</time></trkpt><trkpt lat="43.3197326495086" lon="11.269178296374726"><ele>276.3333333333333</ele><time>2026-04-04T10:36:35Z</time></trkpt><trkpt lat="43.31985809656974" lon="11.26907621553525"><ele>276.66666666666663</ele><time>2026-04-04T10:36:36Z</time></trkpt><trkpt lat="43.31999026852627" lon="11.268950406279256"><ele>277.0</ele><time>2026-04-04T10:36:37Z</time></trkpt><trkpt lat="43.32013126185476" lon="11.268856142633297"><ele>279.3333333333333</ele><time>2026-04-04T10:36:38Z</time></trkpt><trkpt lat="43.320264768509745" lon="11.26874824350981"><ele>281.6666666666667</ele><time>2026-04-04T10:36:39Z</time></trkpt><trkpt lat="43.320402718639315" lon="11.268634940129093"><ele>284.0</ele><time>2026-04-04T10:36:40Z</time></trkpt><trkpt lat="43.32053449677209" lon="11.268520685926356"><ele>283.5</ele><time>2026-04-04T10:36:41Z</time></trkpt><trkpt lat="43.320655024585726" lon="11.268390522837674"><ele>283.0</ele><time>2026-04-04T10:36:42Z</time></trkpt><trkpt lat="43.320751827358286" lon="11.268237608549676"><ele>282.5</ele><time>2026-04-04T10:36:43Z</time></trkpt><trkpt lat="43.32081560120247" lon="11.26805577506249"><ele>282.0</ele><time>2026-04-04T10:36:44Z</time></trkpt><trkpt lat="43.32084489844963" lon="11.26787784546124"><ele>282.0</ele><time>2026-04-04T10:36:45Z</time></trkpt><trkpt lat="43.32087014837418" lon="11.267702710219064"><ele>282.0</ele><time>2026-04-04T10:36:46Z</time></trkpt><trkpt lat="43.32088323425597" lon="11.267518586977049"><ele>282.0</ele><time>2026-04-04T10:36:47Z</time></trkpt><trkpt lat="43.320914965578176" lon="11.267345491455751"><ele>282.0</ele><time>2026-04-04T10:36:48Z</time></trkpt><trkpt lat="43.32096397909358" lon="11.267190948057369"><ele>282.6666666666667</ele><time>2026-04-04T10:36:49Z</time></trkpt><trkpt lat="43.32102367928302" lon="11.26706967681086"><ele>283.3333333333333</ele><time>2026-04-04T10:36:50Z</time></trkpt><trkpt lat="43.321080083756904" lon="11.26697104613432"><ele>284.0</ele><time>2026-04-04T10:36:51Z</time></trkpt><trkpt lat="43.32113908916379" lon="11.266895165858369"><ele>284.66666666666663</ele><time>2026-04-04T10:36:52Z</time></trkpt><trkpt lat="43.32121705352285" lon="11.26686177901526"><ele>285.3333333333333</ele><time>2026-04-04T10:36:53Z</time></trkpt><trkpt lat="43.32128644893745" lon="11.266813395442034"><ele>286.0</ele><time>2026-04-04T10:36:54Z</time></trkpt><trkpt lat="43.321319141506585" lon="11.266665484087177"><ele>286.0</ele><time>2026-04-04T10:36:55Z</time></trkpt><trkpt lat="43.321359864103854" lon="11.266553843150625"><ele>286.0</ele><time>2026-04-04T10:36:56Z</time></trkpt><trkpt lat="43.32139572989557" lon="11.266429512187456"><ele>286.0</ele><time>2026-04-04T10:36:57Z</time></trkpt><trkpt lat="43.32143308712178" lon="11.266292591727117"><ele>286.0</ele><time>2026-04-04T10:36:58Z</time></trkpt><trkpt lat="43.321461250029614" lon="11.266135171410845"><ele>286.0</ele><time>2026-04-04T10:36:59Z</time></trkpt><trkpt lat="43.32146428238395" lon="11.265972802920116"><ele>285.75</ele><time>2026-04-04T10:37:00Z</time></trkpt><trkpt lat="43.321449500934385" lon="11.265798413222747"><ele>285.5</ele><time>2026-04-04T10:37:01Z</time></trkpt><trkpt lat="43.321433492715315" lon="11.265630075643184"><ele>285.25</ele><time>2026-04-04T10:37:02Z</time></trkpt><trkpt lat="43.32141987252577" lon="11.265477926861546"><ele>285.0</ele><time>2026-04-04T10:37:03Z</time></trkpt><trkpt lat="43.321388735739475" lon="11.265327505167416"><ele>287.75</ele><time>2026-04-04T10:37:04Z</time></trkpt><trkpt lat="43.321350645803825" lon="11.265143540770685"><ele>290.5</ele><time>2026-04-04T10:37:05Z</time></trkpt><trkpt lat="43.32129581577474" lon="11.264959137880295"><ele>293.25</ele><time>2026-04-04T10:37:06Z</time></trkpt><trkpt lat="43.3212422789461" lon="11.264785197286747"><ele>296.0</ele><time>2026-04-04T10:37:07Z</time></trkpt><trkpt lat="43.321188700119805" lon="11.264611120314871"><ele>296.0</ele><time>2026-04-04T10:37:08Z</time></trkpt><trkpt lat="43.32113807587786" lon="11.264446642713857"><ele>296.0</ele><time>2026-04-04T10:37:09Z</time></trkpt><trkpt lat="43.32109311602992" lon="11.26430056873239"><ele>296.0</ele><time>2026-04-04T10:37:10Z</time></trkpt><trkpt lat="43.321057545233074" lon="11.264166945932141"><ele>296.0</ele><time>2026-04-04T10:37:11Z</time></trkpt><trkpt lat="43.32103685148039" lon="11.264034939433808"><ele>296.0</ele><time>2026-04-04T10:37:12Z</time></trkpt><trkpt lat="43.32105183279108" lon="11.263917328679446"><ele>297.0</ele><time>2026-04-04T10:37:13Z</time></trkpt><trkpt lat="43.321106449051456" lon="11.263809656225778"><ele>298.0</ele><time>2026-04-04T10:37:14Z</time></trkpt><trkpt lat="43.32121493863606" lon="11.263764069312229"><ele>299.0</ele><time>2026-04-04T10:37:15Z</time></trkpt><trkpt lat="43.32127851479853" lon="11.263685237026513"><ele>300.0</ele><time>2026-04-04T10:37:16Z</time></trkpt><trkpt lat="43.321333867342446" lon="11.263578945140761"><ele>301.0</ele><time>2026-04-04T10:37:17Z</time></trkpt><trkpt lat="43.32129941737417" lon="11.263378507758835"><ele>301.0</ele><time>2026-04-04T10:37:18Z</time></trkpt><trkpt lat="43.321276104182544" lon="11.263250917348012"><ele>301.0</ele><time>2026-04-04T10:37:19Z</time></trkpt><trkpt lat="43.32122490699294" lon="11.263095820204468"><ele>301.0</ele><time>2026-04-04T10:37:20Z</time></trkpt><trkpt lat="43.321184694792954" lon="11.26289699712853"><ele>301.0</ele><time>2026-04-04T10:37:21Z</time></trkpt><trkpt lat="43.32114988669549" lon="11.262718768023575"><ele>301.25</ele><time>2026-04-04T10:37:22Z</time></trkpt><trkpt lat="43.32112508657767" lon="11.262535852046911"><ele>301.5</ele><time>2026-04-04T10:37:23Z</time></trkpt><trkpt lat="43.32109035906583" lon="11.262360743008829"><ele>301.75</ele><time>2026-04-04T10:37:24Z</time></trkpt><trkpt lat="43.321043049004615" lon="11.262196487062965"><ele>302.0</ele><time>2026-04-04T10:37:25Z</time></trkpt><trkpt lat="43.321021746266695" lon="11.262031144674923"><ele>302.0</ele><time>2026-04-04T10:37:26Z</time></trkpt><trkpt lat="43.32099430169103" lon="11.261861340003172"><ele>302.0</ele><time>2026-04-04T10:37:27Z</time></trkpt><trkpt lat="43.320956423358254" lon="11.26169387472032"><ele>302.0</ele><time>2026-04-04T10:37:28Z</time></trkpt><trkpt lat="43.3209181084816" lon="11.261529928562192"><ele>302.0</ele><time>2026-04-04T10:37:29Z</time></trkpt><trkpt lat="43.32086782049309" lon="11.261373798675097"><ele>301.5</ele><time>2026-04-04T10:37:30Z</time></trkpt><trkpt lat="43.320816279525125" lon="11.261220309246543"><ele>301.0</ele><time>2026-04-04T10:37:31Z</time></trkpt><trkpt lat="43.32078106857479" lon="11.261065263683463"><ele>300.5</ele><time>2026-04-04T10:37:32Z</time></trkpt><trkpt lat="43.32074681369755" lon="11.260914120901537"><ele>300.0</ele><time>2026-04-04T10:37:33Z</time></trkpt><trkpt lat="43.320729690745026" lon="11.260760028726054"><ele>300.8</ele><time>2026-04-04T10:37:34Z</time></trkpt><trkpt lat="43.320736146151134" lon="11.2606095848766"><ele>301.6</ele><time>2026-04-04T10:37:35Z</time></trkpt><trkpt lat="43.320752406535355" lon="11.26048095095157"><ele>302.4</ele><time>2026-04-04T10:37:36Z</time></trkpt><trkpt lat="43.320784747462426" lon="11.260350263964076"><ele>303.2</ele><time>2026-04-04T10:37:37Z</time></trkpt><trkpt lat="43.32084291601074" lon="11.26023296836407"><ele>304.0</ele><time>2026-04-04T10:37:38Z</time></trkpt><trkpt lat="43.32095021367033" lon="11.260166290716167"><ele>304.0</ele><time>2026-04-04T10:37:39Z</time></trkpt><trkpt lat="43.32104352068045" lon="11.260125547891185"><ele>304.0</ele><time>2026-04-04T10:37:40Z</time></trkpt><trkpt lat="43.32113743708097" lon="11.260095792322538"><ele>304.0</ele><time>2026-04-04T10:37:41Z</time></trkpt><trkpt lat="43.32123382720156" lon="11.260057446696262"><ele>304.0</ele><time>2026-04-04T10:37:42Z</time></trkpt><trkpt lat="43.32131253287054" lon="11.26000742684492"><ele>304.0</ele><time>2026-04-04T10:37:43Z</time></trkpt><trkpt lat="43.3213757358673" lon="11.259914650722973"><ele>302.25</ele><time>2026-04-04T10:37:44Z</time></trkpt><trkpt lat="43.32143221312842" lon="11.259802786187159"><ele>300.5</ele><time>2026-04-04T10:37:45Z</time></trkpt><trkpt lat="43.32149000087421" lon="11.259653013941083"><ele>298.75</ele><time>2026-04-04T10:37:46Z</time></trkpt><trkpt lat="43.321544171428016" lon="11.259507440274687"><ele>297.0</ele><time>2026-04-04T10:37:47Z</time></trkpt><trkpt lat="43.32160312620802" lon="11.259370360184407"><ele>297.0</ele><time>2026-04-04T10:37:48Z</time></trkpt><trkpt lat="43.321672931732444" lon="11.259254246004806"><ele>297.0</ele><time>2026-04-04T10:37:49Z</time></trkpt><trkpt lat="43.32175200641826" lon="11.259134606986127"><ele>297.0</ele><time>2026-04-04T10:37:50Z</time></trkpt><trkpt lat="43.32183547581988" lon="11.258999449235665"><ele>297.0</ele><time>2026-04-04T10:37:51Z</time></trkpt><trkpt lat="43.32191258844118" lon="11.25886781087029"><ele>297.5</ele><time>2026-04-04T10:37:52Z</time></trkpt><trkpt lat="43.32198717206505" lon="11.25873945114209"><ele>298.0</ele><time>2026-04-04T10:37:53Z</time></trkpt><trkpt lat="43.32206338741734" lon="11.258617543467116"><ele>298.5</ele><time>2026-04-04T10:37:54Z</time></trkpt><trkpt lat="43.32214682932212" lon="11.258491682412783"><ele>299.0</ele><time>2026-04-04T10:37:55Z</time></trkpt><trkpt lat="43.32221513601652" lon="11.258377779027985"><ele>296.25</ele><time>2026-04-04T10:37:56Z</time></trkpt><trkpt lat="43.322263669155205" lon="11.25824372876108"><ele>293.5</ele><time>2026-04-04T10:37:57Z</time></trkpt><trkpt lat="43.322288229576635" lon="11.258089619561716"><ele>290.75</ele><time>2026-04-04T10:37:58Z</time></trkpt><trkpt lat="43.32228975948544" lon="11.257926789978193"><ele>288.0</ele><time>2026-04-04T10:37:59Z</time></trkpt><trkpt lat="43.322312855552845" lon="11.25775488701938"><ele>286.5</ele><time>2026-04-04T10:38:00Z</time></trkpt><trkpt lat="43.32231612049741" lon="11.257577799767162"><ele>285.0</ele><time>2026-04-04T10:38:01Z</time></trkpt><trkpt lat="43.32230914308174" lon="11.257396334223703"><ele>283.5</ele><time>2026-04-04T10:38:02Z</time></trkpt><trkpt lat="43.32228732178251" lon="11.25721573937134"><ele>282.0</ele><time>2026-04-04T10:38:03Z</time></trkpt><trkpt lat="43.32226433243017" lon="11.257024206234549"><ele>282.75</ele><time>2026-04-04T10:38:04Z</time></trkpt><trkpt lat="43.32224713077308" lon="11.256825450833626"><ele>283.5</ele><time>2026-04-04T10:38:05Z</time></trkpt><trkpt lat="43.32224125391496" lon="11.25664502071464"><ele>284.25</ele><time>2026-04-04T10:38:06Z</time></trkpt><trkpt lat="43.32222286209604" lon="11.256455148813481"><ele>285.0</ele><time>2026-04-04T10:38:07Z</time></trkpt><trkpt lat="43.322202646825595" lon="11.256258954142249"><ele>285.0</ele><time>2026-04-04T10:38:08Z</time></trkpt><trkpt lat="43.3221836112422" lon="11.256076909087586"><ele>285.0</ele><time>2026-04-04T10:38:09Z</time></trkpt><trkpt lat="43.32216468350377" lon="11.255905193224272"><ele>285.0</ele><time>2026-04-04T10:38:10Z</time></trkpt><trkpt lat="43.32213054438956" lon="11.255737818210397"><ele>285.0</ele><time>2026-04-04T10:38:11Z</time></trkpt><trkpt lat="43.32211576834852" lon="11.255560650670345"><ele>282.75</ele><time>2026-04-04T10:38:12Z</time></trkpt><trkpt lat="43.32210055945677" lon="11.25540578631087"><ele>280.5</ele><time>2026-04-04T10:38:13Z</time></trkpt><trkpt lat="43.32208253700068" lon="11.255263265610893"><ele>278.25</ele><time>2026-04-04T10:38:14Z</time></trkpt><trkpt lat="43.32208965455665" lon="11.255105614247846"><ele>276.0</ele><time>2026-04-04T10:38:15Z</time></trkpt><trkpt lat="43.32206553824008" lon="11.254931645922156"><ele>274.5</ele><time>2026-04-04T10:38:16Z</time></trkpt><trkpt lat="43.32200607484143" lon="11.254751226659048"><ele>273.0</ele><time>2026-04-04T10:38:17Z</time></trkpt><trkpt lat="43.32196180317433" lon="11.254568831544432"><ele>271.5</ele><time>2026-04-04T10:38:18Z</time></trkpt><trkpt lat="43.32192472898849" lon="11.254410030568316"><ele>270.0</ele><time>2026-04-04T10:38:19Z</time></trkpt><trkpt lat="43.321915992893814" lon="11.254277804091696"><ele>270.0</ele><time>2026-04-04T10:38:20Z</time></trkpt><trkpt lat="43.32190249723765" lon="11.254182742832494"><ele>270.0</ele><time>2026-04-04T10:38:21Z</time></trkpt><trkpt lat="43.321909171518435" lon="11.254096222917257"><ele>270.0</ele><time>2026-04-04T10:38:22Z</time></trkpt><trkpt lat="43.32193456229646" lon="11.254009832076866"><ele>270.0</ele><time>2026-04-04T10:38:23Z</time></trkpt><trkpt lat="43.32196873562866" lon="11.253888579554415"><ele>270.0</ele><time>2026-04-04T10:38:24Z</time></trkpt><trkpt lat="43.322014048671974" lon="11.253790506034603"><ele>270.0</ele><time>2026-04-04T10:38:25Z</time></trkpt><trkpt lat="43.32206401092782" lon="11.253684788430105"><ele>269.0</ele><time>2026-04-04T10:38:26Z</time></trkpt><trkpt lat="43.32212015768549" lon="11.253562959603206"><ele>268.0</ele><time>2026-04-04T10:38:27Z</time></trkpt><trkpt lat="43.32218304743658" lon="11.253426529496885"><ele>267.0</ele><time>2026-04-04T10:38:28Z</time></trkpt><trkpt lat="43.32225488398341" lon="11.253289995326634"><ele>266.0</ele><time>2026-04-04T10:38:29Z</time></trkpt><trkpt lat="43.32233289753064" lon="11.25315429022476"><ele>264.75</ele><time>2026-04-04T10:38:30Z</time></trkpt><trkpt lat="43.32241601010506" lon="11.253013173530483"><ele>263.5</ele><time>2026-04-04T10:38:31Z</time></trkpt><trkpt lat="43.322504781267234" lon="11.252868891346044"><ele>262.25</ele><time>2026-04-04T10:38:32Z</time></trkpt><trkpt lat="43.322586886858616" lon="11.252721447246048"><ele>261.0</ele><time>2026-04-04T10:38:33Z</time></trkpt><trkpt lat="43.32268551234147" lon="11.25258643547543"><ele>261.0</ele><time>2026-04-04T10:38:34Z</time></trkpt><trkpt lat="43.32276667562391" lon="11.252417693801855"><ele>261.0</ele><time>2026-04-04T10:38:35Z</time></trkpt><trkpt lat="43.32285806944546" lon="11.252268431151318"><ele>261.0</ele><time>2026-04-04T10:38:36Z</time></trkpt><trkpt lat="43.322956732253175" lon="11.25211645410529"><ele>261.0</ele><time>2026-04-04T10:38:37Z</time></trkpt><trkpt lat="43.32306785130093" lon="11.251979933819767"><ele>260.25</ele><time>2026-04-04T10:38:38Z</time></trkpt><trkpt lat="43.32318884513879" lon="11.251855748389255"><ele>259.5</ele><time>2026-04-04T10:38:39Z</time></trkpt><trkpt lat="43.32331204389177" lon="11.251735251010928"><ele>258.75</ele><time>2026-04-04T10:38:40Z</time></trkpt><trkpt lat="43.32342110308105" lon="11.251620912458833"><ele>258.0</ele><time>2026-04-04T10:38:41Z</time></trkpt><trkpt lat="43.323534145900325" lon="11.251510240933234"><ele>258.0</ele><time>2026-04-04T10:38:42Z</time></trkpt><trkpt lat="43.32365315208571" lon="11.251398254297152"><ele>258.0</ele><time>2026-04-04T10:38:43Z</time></trkpt><trkpt lat="43.323765087892816" lon="11.251285447002717"><ele>258.0</ele><time>2026-04-04T10:38:44Z</time></trkpt><trkpt lat="43.323862944789234" lon="11.251169309451122"><ele>258.0</ele><time>2026-04-04T10:38:45Z</time></trkpt><trkpt lat="43.323943970038904" lon="11.251046002352995"><ele>257.25</ele><time>2026-04-04T10:38:46Z</time></trkpt><trkpt lat="43.32399412413842" lon="11.250900646444624"><ele>256.5</ele><time>2026-04-04T10:38:47Z</time></trkpt><trkpt lat="43.324026505111476" lon="11.250745983501721"><ele>255.75</ele><time>2026-04-04T10:38:48Z</time></trkpt><trkpt lat="43.3240673719118" lon="11.250607269613987"><ele>255.0</ele><time>2026-04-04T10:38:49Z</time></trkpt><trkpt lat="43.32409952768157" lon="11.250466213184742"><ele>255.0</ele><time>2026-04-04T10:38:50Z</time></trkpt><trkpt lat="43.32413437624959" lon="11.25031967868792"><ele>255.0</ele><time>2026-04-04T10:38:51Z</time></trkpt><trkpt lat="43.324172504279346" lon="11.250168802503852"><ele>255.0</ele><time>2026-04-04T10:38:52Z</time></trkpt><trkpt lat="43.32421690640407" lon="11.25001665810937"><ele>255.0</ele><time>2026-04-04T10:38:53Z</time></trkpt><trkpt lat="43.32426768434999" lon="11.249850454131316"><ele>256.0</ele><time>2026-04-04T10:38:54Z</time></trkpt><trkpt lat="43.32434265370346" lon="11.24968457284465"><ele>257.0</ele><time>2026-04-04T10:38:55Z</time></trkpt><trkpt lat="43.324419050694125" lon="11.24951263492061"><ele>258.0</ele><time>2026-04-04T10:38:56Z</time></trkpt><trkpt lat="43.3244908890744" lon="11.24935165231781"><ele>259.0</ele><time>2026-04-04T10:38:57Z</time></trkpt><trkpt lat="43.32457794766608" lon="11.249193629037302"><ele>259.0</ele><time>2026-04-04T10:38:58Z</time></trkpt><trkpt lat="43.324666933268944" lon="11.248995987324003"><ele>259.0</ele><time>2026-04-04T10:38:59Z</time></trkpt><trkpt lat="43.32476077529137" lon="11.248806528282541"><ele>259.0</ele><time>2026-04-04T10:39:00Z</time></trkpt><trkpt lat="43.32485347074861" lon="11.248616130796856"><ele>258.3333333333333</ele><time>2026-04-04T10:39:01Z</time></trkpt><trkpt lat="43.324945943730896" lon="11.248434803192652"><ele>257.6666666666667</ele><time>2026-04-04T10:39:02Z</time></trkpt><trkpt lat="43.32503873988157" lon="11.248263877377829"><ele>257.0</ele><time>2026-04-04T10:39:03Z</time></trkpt><trkpt lat="43.32512058428032" lon="11.248110582174691"><ele>258.5</ele><time>2026-04-04T10:39:04Z</time></trkpt><trkpt lat="43.32521946240845" lon="11.247991221819403"><ele>260.0</ele><time>2026-04-04T10:39:05Z</time></trkpt><trkpt lat="43.32531700374538" lon="11.247855951064597"><ele>261.5</ele><time>2026-04-04T10:39:06Z</time></trkpt><trkpt lat="43.325417427935726" lon="11.24772274340263"><ele>263.0</ele><time>2026-04-04T10:39:07Z</time></trkpt><trkpt lat="43.32551490220993" lon="11.24759344869489"><ele>263.75</ele><time>2026-04-04T10:39:08Z</time></trkpt><trkpt lat="43.32560239592292" lon="11.247453383832129"><ele>264.5</ele><time>2026-04-04T10:39:09Z</time></trkpt><trkpt lat="43.32570847388503" lon="11.247329520656793"><ele>265.25</ele><time>2026-04-04T10:39:10Z</time></trkpt><trkpt lat="43.32580754874599" lon="11.24719114677633"><ele>266.0</ele><time>2026-04-04T10:39:11Z</time></trkpt><trkpt lat="43.32590481015447" lon="11.247039261822374"><ele>266.0</ele><time>2026-04-04T10:39:12Z</time></trkpt><trkpt lat="43.32601246537305" lon="11.24688197436538"><ele>266.0</ele><time>2026-04-04T10:39:13Z</time></trkpt><trkpt lat="43.32611148862669" lon="11.246725855789414"><ele>266.0</ele><time>2026-04-04T10:39:14Z</time></trkpt><trkpt lat="43.32619522140648" lon="11.246556876089834"><ele>268.25</ele><time>2026-04-04T10:39:15Z</time></trkpt><trkpt lat="43.326253603901826" lon="11.24637842962264"><ele>270.5</ele><time>2026-04-04T10:39:16Z</time></trkpt><trkpt lat="43.32627853422537" lon="11.246189683503394"><ele>272.75</ele><time>2026-04-04T10:39:17Z</time></trkpt><trkpt lat="43.326283164952756" lon="11.246024340513735"><ele>275.0</ele><time>2026-04-04T10:39:18Z</time></trkpt><trkpt lat="43.32628066186515" lon="11.24589020761089"><ele>275.0</ele><time>2026-04-04T10:39:19Z</time></trkpt><trkpt lat="43.326300256688405" lon="11.245770573999907"><ele>275.0</ele><time>2026-04-04T10:39:20Z</time></trkpt><trkpt lat="43.32630638820323" lon="11.245648269345434"><ele>275.0</ele><time>2026-04-04T10:39:21Z</time></trkpt><trkpt lat="43.326313842081085" lon="11.245499587613113"><ele>275.0</ele><time>2026-04-04T10:39:22Z</time></trkpt><trkpt lat="43.326309413638185" lon="11.245308794393809"><ele>275.0</ele><time>2026-04-04T10:39:23Z</time></trkpt><trkpt lat="43.32632169681377" lon="11.245094709569871"><ele>278.33333333333337</ele><time>2026-04-04T10:39:24Z</time></trkpt><trkpt lat="43.326332102952044" lon="11.244866371043152"><ele>281.6666666666667</ele><time>2026-04-04T10:39:25Z</time></trkpt><trkpt lat="43.32634594561297" lon="11.24463331116571"><ele>285.0</ele><time>2026-04-04T10:39:26Z</time></trkpt><trkpt lat="43.32635732559994" lon="11.244403781813187"><ele>287.0</ele><time>2026-04-04T10:39:27Z</time></trkpt><trkpt lat="43.326363838907575" lon="11.244185195163722"><ele>289.0</ele><time>2026-04-04T10:39:28Z</time></trkpt><trkpt lat="43.32636316823084" lon="11.243960873105571"><ele>291.0</ele><time>2026-04-04T10:39:29Z</time></trkpt><trkpt lat="43.326368067842346" lon="11.243759097515609"><ele>291.75</ele><time>2026-04-04T10:39:30Z</time></trkpt><trkpt lat="43.32637874805363" lon="11.243553624864381"><ele>292.5</ele><time>2026-04-04T10:39:31Z</time></trkpt><trkpt lat="43.326388203561855" lon="11.243342014081145"><ele>293.25</ele><time>2026-04-04T10:39:32Z</time></trkpt><trkpt lat="43.32641223470288" lon="11.243145362956737"><ele>294.0</ele><time>2026-04-04T10:39:33Z</time></trkpt><trkpt lat="43.32642261750275" lon="11.242957441255724"><ele>292.25</ele><time>2026-04-04T10:39:34Z</time></trkpt><trkpt lat="43.32642011602992" lon="11.242753653838625"><ele>290.5</ele><time>2026-04-04T10:39:35Z</time></trkpt><trkpt lat="43.3264388154641" lon="11.242578870117928"><ele>288.75</ele><time>2026-04-04T10:39:36Z</time></trkpt><trkpt lat="43.3264514493261" lon="11.242425939187205"><ele>287.0</ele><time>2026-04-04T10:39:37Z</time></trkpt><trkpt lat="43.32646011229154" lon="11.24229108084216"><ele>286.83333333333337</ele><time>2026-04-04T10:39:38Z</time></trkpt><trkpt lat="43.32646673968159" lon="11.242178712679502"><ele>286.6666666666667</ele><time>2026-04-04T10:39:39Z</time></trkpt><trkpt lat="43.32647169639941" lon="11.242073841806745"><ele>286.5</ele><time>2026-04-04T10:39:40Z</time></trkpt><trkpt lat="43.326459254736854" lon="11.241974351613916"><ele>286.3333333333333</ele><time>2026-04-04T10:39:41Z</time></trkpt><trkpt lat="43.3264302213194" lon="11.241873291912098"><ele>286.16666666666663</ele><time>2026-04-04T10:39:42Z</time></trkpt><trkpt lat="43.32642330016582" lon="11.24176357495952"><ele>286.0</ele><time>2026-04-04T10:39:43Z</time></trkpt><trkpt lat="43.326410071832385" lon="11.241646543399632"><ele>287.75</ele><time>2026-04-04T10:39:44Z</time></trkpt><trkpt lat="43.32638138562973" lon="11.241491860833687"><ele>289.5</ele><time>2026-04-04T10:39:45Z</time></trkpt><trkpt lat="43.32633154030122" lon="11.241340664922234"><ele>291.25</ele><time>2026-04-04T10:39:46Z</time></trkpt><trkpt lat="43.32629895085962" lon="11.241150781046887"><ele>293.0</ele><time>2026-04-04T10:39:47Z</time></trkpt><trkpt lat="43.32627913767285" lon="11.240945549829725"><ele>293.0</ele><time>2026-04-04T10:39:48Z</time></trkpt><trkpt lat="43.32623214460229" lon="11.240738270326153"><ele>293.0</ele><time>2026-04-04T10:39:49Z</time></trkpt><trkpt lat="43.32617119973239" lon="11.240576204873456"><ele>293.0</ele><time>2026-04-04T10:39:50Z</time></trkpt><trkpt lat="43.32612276233183" lon="11.240437054763989"><ele>293.0</ele><time>2026-04-04T10:39:51Z</time></trkpt><trkpt lat="43.32609746773604" lon="11.240300274314686"><ele>293.0</ele><time>2026-04-04T10:39:52Z</time></trkpt><trkpt lat="43.32612583510894" lon="11.240144094141101"><ele>293.0</ele><time>2026-04-04T10:39:53Z</time></trkpt><trkpt lat="43.326171898462064" lon="11.239972023673175"><ele>293.0</ele><time>2026-04-04T10:39:54Z</time></trkpt><trkpt lat="43.32617007416116" lon="11.239789841547214"><ele>293.0</ele><time>2026-04-04T10:39:55Z</time></trkpt><trkpt lat="43.3261153784212" lon="11.239615621838325"><ele>294.33333333333337</ele><time>2026-04-04T10:39:56Z</time></trkpt><trkpt lat="43.326035423347335" lon="11.239429366210874"><ele>295.6666666666667</ele><time>2026-04-04T10:39:57Z</time></trkpt><trkpt lat="43.32597893558455" lon="11.23920923745526"><ele>297.0</ele><time>2026-04-04T10:39:58Z</time></trkpt><trkpt lat="43.32590367048824" lon="11.23899721876759"><ele>297.0</ele><time>2026-04-04T10:39:59Z</time></trkpt><trkpt lat="43.32584072577225" lon="11.238774656309113"><ele>297.0</ele><time>2026-04-04T10:40:00Z</time></trkpt><trkpt lat="43.32579362327833" lon="11.238561271371552"><ele>297.0</ele><time>2026-04-04T10:40:01Z</time></trkpt><trkpt lat="43.32572402470402" lon="11.238368351519412"><ele>297.0</ele><time>2026-04-04T10:40:02Z</time></trkpt><trkpt lat="43.32564354790618" lon="11.238175023428107"><ele>297.0</ele><time>2026-04-04T10:40:03Z</time></trkpt><trkpt lat="43.32557027112109" lon="11.237994695070348"><ele>297.0</ele><time>2026-04-04T10:40:04Z</time></trkpt><trkpt lat="43.325482913080705" lon="11.237823322383377"><ele>299.0</ele><time>2026-04-04T10:40:05Z</time></trkpt><trkpt lat="43.32536983911502" lon="11.23768562011246"><ele>301.0</ele><time>2026-04-04T10:40:06Z</time></trkpt><trkpt lat="43.32522929007337" lon="11.237565577342616"><ele>303.0</ele><time>2026-04-04T10:40:07Z</time></trkpt><trkpt lat="43.3250809388886" lon="11.237455648050949"><ele>303.0</ele><time>2026-04-04T10:40:08Z</time></trkpt><trkpt lat="43.32496074827768" lon="11.23736843333369"><ele>303.0</ele><time>2026-04-04T10:40:09Z</time></trkpt><trkpt lat="43.32485831060313" lon="11.237320547372768"><ele>303.0</ele><time>2026-04-04T10:40:10Z</time></trkpt><trkpt lat="43.324777190777496" lon="11.237288654997052"><ele>303.0</ele><time>2026-04-04T10:40:11Z</time></trkpt><trkpt lat="43.32471407090747" lon="11.23724287816694"><ele>303.0</ele><time>2026-04-04T10:40:12Z</time></trkpt><trkpt lat="43.32465300485341" lon="11.237211617917511"><ele>302.6666666666667</ele><time>2026-04-04T10:40:13Z</time></trkpt><trkpt lat="43.32457486193082" lon="11.237134902246982"><ele>302.3333333333333</ele><time>2026-04-04T10:40:15Z</time></trkpt><trkpt lat="43.32448637150159" lon="11.237210616462857"><ele>302.0</ele><time>2026-04-04T10:40:16Z</time></trkpt><trkpt lat="43.32442307126998" lon="11.23726646732845"><ele>301.66666666666663</ele><time>2026-04-04T10:40:17Z</time></trkpt><trkpt lat="43.32436992758091" lon="11.237362487608438"><ele>301.3333333333333</ele><time>2026-04-04T10:40:18Z</time></trkpt><trkpt lat="43.324318949803335" lon="11.237453141482302"><ele>301.0</ele><time>2026-04-04T10:40:19Z</time></trkpt><trkpt lat="43.324284542162154" lon="11.23755993718796"><ele>302.6</ele><time>2026-04-04T10:40:20Z</time></trkpt><trkpt lat="43.324255930217966" lon="11.237683235049598"><ele>304.20000000000005</ele><time>2026-04-04T10:40:21Z</time></trkpt><trkpt lat="43.324241039030845" lon="11.237826738789787"><ele>305.79999999999995</ele><time>2026-04-04T10:40:22Z</time></trkpt><trkpt lat="43.32422978876963" lon="11.23798229499481"><ele>307.4</ele><time>2026-04-04T10:40:23Z</time></trkpt><trkpt lat="43.324211476188" lon="11.23813369875991"><ele>309.0</ele><time>2026-04-04T10:40:24Z</time></trkpt><trkpt lat="43.324199436647504" lon="11.238286523507687"><ele>310.0</ele><time>2026-04-04T10:40:25Z</time></trkpt><trkpt lat="43.32420787526338" lon="11.238437006974761"><ele>311.0</ele><time>2026-04-04T10:40:26Z</time></trkpt><trkpt lat="43.32421708204978" lon="11.238587781066554"><ele>312.0</ele><time>2026-04-04T10:40:27Z</time></trkpt><trkpt lat="43.32422260516702" lon="11.238712523760075"><ele>313.0</ele><time>2026-04-04T10:40:28Z</time></trkpt><trkpt lat="43.32421745401611" lon="11.23882605655041"><ele>314.0</ele><time>2026-04-04T10:40:29Z</time></trkpt><trkpt lat="43.32418858490752" lon="11.238913488682494"><ele>314.0</ele><time>2026-04-04T10:40:30Z</time></trkpt><trkpt lat="43.32412897972021" lon="11.2390012529047"><ele>314.0</ele><time>2026-04-04T10:40:31Z</time></trkpt><trkpt lat="43.324033666875124" lon="11.239008197749138"><ele>314.0</ele><time>2026-04-04T10:40:32Z</time></trkpt><trkpt lat="43.32395894883094" lon="11.239038228205638"><ele>314.0</ele><time>2026-04-04T10:40:33Z</time></trkpt><trkpt lat="43.32386945882873" lon="11.239075311150293"><ele>314.0</ele><time>2026-04-04T10:40:34Z</time></trkpt><trkpt lat="43.323769686908264" lon="11.23911442953139"><ele>315.79999999999995</ele><time>2026-04-04T10:40:35Z</time></trkpt><trkpt lat="43.32367253185821" lon="11.239152544201811"><ele>317.59999999999997</ele><time>2026-04-04T10:40:36Z</time></trkpt><trkpt lat="43.32356817483783" lon="11.239193484274313"><ele>319.4</ele><time>2026-04-04T10:40:37Z</time></trkpt><trkpt lat="43.32346131449246" lon="11.239237923351933"><ele>321.2</ele><time>2026-04-04T10:40:38Z</time></trkpt><trkpt lat="43.323348216419156" lon="11.23928567981618"><ele>323.0</ele><time>2026-04-04T10:40:39Z</time></trkpt><trkpt lat="43.32323036636172" lon="11.239335442811084"><ele>323.0</ele><time>2026-04-04T10:40:40Z</time></trkpt><trkpt lat="43.32312468456175" lon="11.239380067703499"><ele>323.0</ele><time>2026-04-04T10:40:41Z</time></trkpt><trkpt lat="43.32303376417333" lon="11.239418407189907"><ele>323.0</ele><time>2026-04-04T10:40:42Z</time></trkpt><trkpt lat="43.32293064679599" lon="11.239444414461317"><ele>323.0</ele><time>2026-04-04T10:40:43Z</time></trkpt><trkpt lat="43.32282259652412" lon="11.239442143340876"><ele>323.0</ele><time>2026-04-04T10:40:44Z</time></trkpt><trkpt lat="43.322716281098835" lon="11.239406156060832"><ele>326.25</ele><time>2026-04-04T10:40:45Z</time></trkpt><trkpt lat="43.32261657225584" lon="11.239339082234391"><ele>329.5</ele><time>2026-04-04T10:40:46Z</time></trkpt><trkpt lat="43.32251972566794" lon="11.239260409135833"><ele>332.75</ele><time>2026-04-04T10:40:47Z</time></trkpt><trkpt lat="43.322413825120016" lon="11.239164380588972"><ele>336.0</ele><time>2026-04-04T10:40:48Z</time></trkpt><trkpt lat="43.32230774902688" lon="11.23906980921289"><ele>336.25</ele><time>2026-04-04T10:40:49Z</time></trkpt><trkpt lat="43.32219299342437" lon="11.238973402910608"><ele>336.5</ele><time>2026-04-04T10:40:50Z</time></trkpt><trkpt lat="43.32208089792754" lon="11.238883822582324"><ele>336.75</ele><time>2026-04-04T10:40:51Z</time></trkpt><trkpt lat="43.32198064540158" lon="11.238814295029735"><ele>337.0</ele><time>2026-04-04T10:40:52Z</time></trkpt><trkpt lat="43.32188247809198" lon="11.238769114988106"><ele>337.0</ele><time>2026-04-04T10:40:53Z</time></trkpt><trkpt lat="43.32177910512796" lon="11.238757399848316"><ele>337.0</ele><time>2026-04-04T10:40:54Z</time></trkpt><trkpt lat="43.321670444126156" lon="11.238733114610879"><ele>337.0</ele><time>2026-04-04T10:40:55Z</time></trkpt><trkpt lat="43.32155939271474" lon="11.238728371858985"><ele>337.0</ele><time>2026-04-04T10:40:56Z</time></trkpt><trkpt lat="43.32144779784493" lon="11.23873745179144"><ele>337.0</ele><time>2026-04-04T10:40:57Z</time></trkpt><trkpt lat="43.32134912592097" lon="11.23876683923524"><ele>336.6</ele><time>2026-04-04T10:40:58Z</time></trkpt><trkpt lat="43.321253775007435" lon="11.238829472555294"><ele>336.20000000000005</ele><time>2026-04-04T10:40:59Z</time></trkpt><trkpt lat="43.321158848860456" lon="11.238914051587308"><ele>335.8</ele><time>2026-04-04T10:41:00Z</time></trkpt><trkpt lat="43.32107537189307" lon="11.23902337221046"><ele>335.4</ele><time>2026-04-04T10:41:01Z</time></trkpt><trkpt lat="43.321003992907734" lon="11.239132171314798"><ele>335.0</ele><time>2026-04-04T10:41:02Z</time></trkpt><trkpt lat="43.32095684015615" lon="11.23924415189343"><ele>338.0</ele><time>2026-04-04T10:41:03Z</time></trkpt><trkpt lat="43.32093357681634" lon="11.239374851060099"><ele>341.0</ele><time>2026-04-04T10:41:04Z</time></trkpt><trkpt lat="43.32091657586697" lon="11.239525075222023"><ele>344.0</ele><time>2026-04-04T10:41:05Z</time></trkpt><trkpt lat="43.32089453795364" lon="11.239672087277189"><ele>347.0</ele><time>2026-04-04T10:41:06Z</time></trkpt><trkpt lat="43.32086293055454" lon="11.239786530418563"><ele>350.0</ele><time>2026-04-04T10:41:07Z</time></trkpt><trkpt lat="43.32082648083784" lon="11.239882878579058"><ele>350.4</ele><time>2026-04-04T10:41:08Z</time></trkpt><trkpt lat="43.32077525935127" lon="11.239958287933195"><ele>350.8</ele><time>2026-04-04T10:41:09Z</time></trkpt><trkpt lat="43.320679803113734" lon="11.240007849004469"><ele>351.20000000000005</ele><time>2026-04-04T10:41:10Z</time></trkpt><trkpt lat="43.320584504020054" lon="11.24009786057484"><ele>351.6</ele><time>2026-04-04T10:41:11Z</time></trkpt><trkpt lat="43.32050298098587" lon="11.240175565780461"><ele>352.0</ele><time>2026-04-04T10:41:12Z</time></trkpt><trkpt lat="43.320424057684974" lon="11.24024630247519"><ele>352.0</ele><time>2026-04-04T10:41:13Z</time></trkpt><trkpt lat="43.320345878544515" lon="11.240296762986445"><ele>352.0</ele><time>2026-04-04T10:41:14Z</time></trkpt><trkpt lat="43.320267170513354" lon="11.240330583716355"><ele>352.0</ele><time>2026-04-04T10:41:15Z</time></trkpt><trkpt lat="43.32017965691106" lon="11.240335256559668"><ele>352.0</ele><time>2026-04-04T10:41:16Z</time></trkpt><trkpt lat="43.32008509539469" lon="11.240314215130855"><ele>352.0</ele><time>2026-04-04T10:41:17Z</time></trkpt><trkpt lat="43.319989174941895" lon="11.240298386751228"><ele>352.0</ele><time>2026-04-04T10:41:18Z</time></trkpt><trkpt lat="43.31990821724509" lon="11.240281476983979"><ele>352.0</ele><time>2026-04-04T10:41:19Z</time></trkpt><trkpt lat="43.319840829214264" lon="11.240263228424801"><ele>352.0</ele><time>2026-04-04T10:41:20Z</time></trkpt><trkpt lat="43.31976078448267" lon="11.240232112304373"><ele>352.0</ele><time>2026-04-04T10:41:21Z</time></trkpt><trkpt lat="43.31965658090421" lon="11.240179580739172"><ele>352.0</ele><time>2026-04-04T10:41:22Z</time></trkpt><trkpt lat="43.3195333459488" lon="11.240116993975764"><ele>352.0</ele><time>2026-04-04T10:41:23Z</time></trkpt><trkpt lat="43.31939752474588" lon="11.240070265033427"><ele>351.25</ele><time>2026-04-04T10:41:24Z</time></trkpt><trkpt lat="43.31927636516789" lon="11.240050266237745"><ele>350.5</ele><time>2026-04-04T10:41:25Z</time></trkpt><trkpt lat="43.31914107415923" lon="11.24004564619326"><ele>349.75</ele><time>2026-04-04T10:41:26Z</time></trkpt><trkpt lat="43.31900281493289" lon="11.240054536933046"><ele>349.0</ele><time>2026-04-04T10:41:27Z</time></trkpt><trkpt lat="43.318859980971524" lon="11.24007341916825"><ele>347.0</ele><time>2026-04-04T10:41:28Z</time></trkpt><trkpt lat="43.31870715731958" lon="11.240104976733216"><ele>345.0</ele><time>2026-04-04T10:41:29Z</time></trkpt><trkpt lat="43.31854393153095" lon="11.240145902950193"><ele>343.0</ele><time>2026-04-04T10:41:30Z</time></trkpt><trkpt lat="43.31837820579306" lon="11.240189378201793"><ele>343.0</ele><time>2026-04-04T10:41:31Z</time></trkpt><trkpt lat="43.3182276934933" lon="11.240230186518518"><ele>343.0</ele><time>2026-04-04T10:41:32Z</time></trkpt><trkpt lat="43.31808510320514" lon="11.240268087242244"><ele>343.0</ele><time>2026-04-04T10:41:33Z</time></trkpt><trkpt lat="43.317938948705454" lon="11.240303281170066"><ele>343.0</ele><time>2026-04-04T10:41:34Z</time></trkpt><trkpt lat="43.31779132571886" lon="11.240334397018998"><ele>341.3333333333333</ele><time>2026-04-04T10:41:35Z</time></trkpt><trkpt lat="43.3176357583109" lon="11.240366766355478"><ele>339.6666666666667</ele><time>2026-04-04T10:41:36Z</time></trkpt><trkpt lat="43.31748385543647" lon="11.240403719399996"><ele>338.0</ele><time>2026-04-04T10:41:37Z</time></trkpt><trkpt lat="43.31734163066376" lon="11.240442834383606"><ele>338.5</ele><time>2026-04-04T10:41:38Z</time></trkpt><trkpt lat="43.31720541443164" lon="11.24048029689243"><ele>339.0</ele><time>2026-04-04T10:41:39Z</time></trkpt><trkpt lat="43.31707167422702" lon="11.240536083789804"><ele>339.5</ele><time>2026-04-04T10:41:40Z</time></trkpt><trkpt lat="43.316943917603744" lon="11.240599255029672"><ele>340.0</ele><time>2026-04-04T10:41:41Z</time></trkpt><trkpt lat="43.316819421834346" lon="11.240663191680323"><ele>340.4</ele><time>2026-04-04T10:41:42Z</time></trkpt><trkpt lat="43.3167110949111" lon="11.24072705201184"><ele>340.8</ele><time>2026-04-04T10:41:43Z</time></trkpt><trkpt lat="43.31661296899794" lon="11.24078608129199"><ele>341.20000000000005</ele><time>2026-04-04T10:41:44Z</time></trkpt><trkpt lat="43.316520531415094" lon="11.24082918212779"><ele>341.6</ele><time>2026-04-04T10:41:45Z</time></trkpt><trkpt lat="43.3164242837611" lon="11.240872964347396"><ele>342.0</ele><time>2026-04-04T10:41:46Z</time></trkpt><trkpt lat="43.31633579631819" lon="11.240930186291267"><ele>342.0</ele><time>2026-04-04T10:41:47Z</time></trkpt><trkpt lat="43.31623036286739" lon="11.241005640323316"><ele>342.0</ele><time>2026-04-04T10:41:48Z</time></trkpt><trkpt lat="43.316116472381054" lon="11.24108672315619"><ele>342.0</ele><time>2026-04-04T10:41:49Z</time></trkpt><trkpt lat="43.3159941201327" lon="11.241166968230173"><ele>342.0</ele><time>2026-04-04T10:41:50Z</time></trkpt><trkpt lat="43.315878811900134" lon="11.241245755681854"><ele>342.0</ele><time>2026-04-04T10:41:51Z</time></trkpt><trkpt lat="43.31578271420067" lon="11.241325190740312"><ele>342.0</ele><time>2026-04-04T10:41:52Z</time></trkpt><trkpt lat="43.315710480042476" lon="11.241426971474036"><ele>342.0</ele><time>2026-04-04T10:41:53Z</time></trkpt><trkpt lat="43.31562017730369" lon="11.241494894885742"><ele>342.0</ele><time>2026-04-04T10:41:54Z</time></trkpt><trkpt lat="43.315533463291466" lon="11.241579359809982"><ele>342.0</ele><time>2026-04-04T10:41:55Z</time></trkpt><trkpt lat="43.31544267854576" lon="11.2416639176738"><ele>342.75</ele><time>2026-04-04T10:41:56Z</time></trkpt><trkpt lat="43.31535102378287" lon="11.241730429638963"><ele>343.5</ele><time>2026-04-04T10:41:57Z</time></trkpt><trkpt lat="43.3152424779029" lon="11.241789883132688"><ele>344.25</ele><time>2026-04-04T10:41:58Z</time></trkpt><trkpt lat="43.315122996694534" lon="11.241839885367163"><ele>345.0</ele><time>2026-04-04T10:41:59Z</time></trkpt><trkpt lat="43.31500019955497" lon="11.241889500912794"><ele>345.0</ele><time>2026-04-04T10:42:00Z</time></trkpt><trkpt lat="43.314883423721994" lon="11.241946400426464"><ele>345.0</ele><time>2026-04-04T10:42:01Z</time></trkpt><trkpt lat="43.31478268415419" lon="11.242013051723129"><ele>345.0</ele><time>2026-04-04T10:42:02Z</time></trkpt><trkpt lat="43.314675571968195" lon="11.241987715276062"><ele>345.0</ele><time>2026-04-04T10:42:03Z</time></trkpt><trkpt lat="43.31458376338299" lon="11.241948123387317"><ele>345.0</ele><time>2026-04-04T10:42:04Z</time></trkpt><trkpt lat="43.31446841906602" lon="11.241891666680917"><ele>343.3333333333333</ele><time>2026-04-04T10:42:05Z</time></trkpt><trkpt lat="43.31432239413495" lon="11.241816344538996"><ele>341.66666666666663</ele><time>2026-04-04T10:42:06Z</time></trkpt><trkpt lat="43.31417263895473" lon="11.241732845958063"><ele>340.0</ele><time>2026-04-04T10:42:07Z</time></trkpt><trkpt lat="43.31403193116373" lon="11.241654297613083"><ele>338.25</ele><time>2026-04-04T10:42:08Z</time></trkpt><trkpt lat="43.313889958076636" lon="11.241578175832343"><ele>336.5</ele><time>2026-04-04T10:42:09Z</time></trkpt><trkpt lat="43.313751460114254" lon="11.24150411329488"><ele>334.75</ele><time>2026-04-04T10:42:10Z</time></trkpt><trkpt lat="43.31361725739886" lon="11.241432828313178"><ele>333.0</ele><time>2026-04-04T10:42:11Z</time></trkpt><trkpt lat="43.31349005481577" lon="11.241366169285397"><ele>332.5</ele><time>2026-04-04T10:42:12Z</time></trkpt><trkpt lat="43.31336530108071" lon="11.241300793571673"><ele>332.0</ele><time>2026-04-04T10:42:13Z</time></trkpt><trkpt lat="43.313241720608524" lon="11.241233073538387"><ele>331.5</ele><time>2026-04-04T10:42:14Z</time></trkpt><trkpt lat="43.31312693879441" lon="11.241167224947505"><ele>331.0</ele><time>2026-04-04T10:42:15Z</time></trkpt><trkpt lat="43.313007497849945" lon="11.241097614887705"><ele>330.75</ele><time>2026-04-04T10:42:16Z</time></trkpt><trkpt lat="43.31289109393531" lon="11.241029072298321"><ele>330.5</ele><time>2026-04-04T10:42:17Z</time></trkpt><trkpt lat="43.3127727018307" lon="11.240959153166452"><ele>330.25</ele><time>2026-04-04T10:42:18Z</time></trkpt><trkpt lat="43.31265379320865" lon="11.24089076628906"><ele>330.0</ele><time>2026-04-04T10:42:19Z</time></trkpt><trkpt lat="43.312544121082844" lon="11.240830288169569"><ele>330.0</ele><time>2026-04-04T10:42:20Z</time></trkpt><trkpt lat="43.31243561886463" lon="11.240772329222256"><ele>330.0</ele><time>2026-04-04T10:42:21Z</time></trkpt><trkpt lat="43.31234032317955" lon="11.240727597725549"><ele>330.0</ele><time>2026-04-04T10:42:22Z</time></trkpt><trkpt lat="43.31224500446646" lon="11.240688971374773"><ele>330.0</ele><time>2026-04-04T10:42:23Z</time></trkpt><trkpt lat="43.31215216308232" lon="11.240675857128357"><ele>330.0</ele><time>2026-04-04T10:42:24Z</time></trkpt><trkpt lat="43.31208129392666" lon="11.240657366706895"><ele>328.8333333333333</ele><time>2026-04-04T10:42:25Z</time></trkpt><trkpt lat="43.31200473219719" lon="11.240659165291186"><ele>327.6666666666667</ele><time>2026-04-04T10:42:26Z</time></trkpt><trkpt lat="43.31192939789866" lon="11.24064296451671"><ele>326.5</ele><time>2026-04-04T10:42:27Z</time></trkpt><trkpt lat="43.311870396901675" lon="11.240755339092699"><ele>325.33333333333337</ele><time>2026-04-04T10:42:28Z</time></trkpt><trkpt lat="43.311819134936236" lon="11.240813639415052"><ele>324.1666666666667</ele><time>2026-04-04T10:42:29Z</time></trkpt><trkpt lat="43.31175491320538" lon="11.240819229331267"><ele>323.0</ele><time>2026-04-04T10:42:30Z</time></trkpt><trkpt lat="43.311655163406364" lon="11.240818440855925"><ele>323.0</ele><time>2026-04-04T10:42:31Z</time></trkpt><trkpt lat="43.31151121270536" lon="11.240773403140842"><ele>323.0</ele><time>2026-04-04T10:42:32Z</time></trkpt><trkpt lat="43.311369143183875" lon="11.240769166125817"><ele>323.0</ele><time>2026-04-04T10:42:33Z</time></trkpt><trkpt lat="43.31122900599538" lon="11.240764473763578"><ele>323.0</ele><time>2026-04-04T10:42:34Z</time></trkpt><trkpt lat="43.31110556015829" lon="11.240754174587073"><ele>322.4</ele><time>2026-04-04T10:42:35Z</time></trkpt><trkpt lat="43.310987049188704" lon="11.24073940647409"><ele>321.79999999999995</ele><time>2026-04-04T10:42:36Z</time></trkpt><trkpt lat="43.310882464784406" lon="11.24071910308385"><ele>321.2</ele><time>2026-04-04T10:42:37Z</time></trkpt><trkpt lat="43.31080389852058" lon="11.240664584334256"><ele>320.6</ele><time>2026-04-04T10:42:38Z</time></trkpt><trkpt lat="43.31073249534889" lon="11.240590006286652"><ele>320.0</ele><time>2026-04-04T10:42:39Z</time></trkpt><trkpt lat="43.310677874256605" lon="11.240495675696886"><ele>320.0</ele><time>2026-04-04T10:42:40Z</time></trkpt><trkpt lat="43.310663709729795" lon="11.2403880412583"><ele>320.0</ele><time>2026-04-04T10:42:41Z</time></trkpt><trkpt lat="43.31064350944798" lon="11.240264428713807"><ele>320.0</ele><time>2026-04-04T10:42:42Z</time></trkpt><trkpt lat="43.31061721143891" lon="11.240162351723258"><ele>320.0</ele><time>2026-04-04T10:42:43Z</time></trkpt><trkpt lat="43.310605815077665" lon="11.240064910419164"><ele>320.0</ele><time>2026-04-04T10:42:44Z</time></trkpt><trkpt lat="43.31056828642064" lon="11.239991311366614"><ele>320.0</ele><time>2026-04-04T10:42:45Z</time></trkpt><trkpt lat="43.310462386352555" lon="11.239970141159368"><ele>319.75</ele><time>2026-04-04T10:42:46Z</time></trkpt><trkpt lat="43.310341901369384" lon="11.239972741475661"><ele>319.5</ele><time>2026-04-04T10:42:47Z</time></trkpt><trkpt lat="43.310202997171" lon="11.239952936478101"><ele>319.25</ele><time>2026-04-04T10:42:48Z</time></trkpt><trkpt lat="43.31005063557575" lon="11.239936023472152"><ele>319.0</ele><time>2026-04-04T10:42:49Z</time></trkpt><trkpt lat="43.30991673332181" lon="11.23992458410418"><ele>319.0</ele><time>2026-04-04T10:42:50Z</time></trkpt><trkpt lat="43.309808425208374" lon="11.239915331265902"><ele>319.0</ele><time>2026-04-04T10:42:51Z</time></trkpt><trkpt lat="43.3097208261294" lon="11.239905959412225"><ele>319.0</ele><time>2026-04-04T10:42:52Z</time></trkpt><trkpt lat="43.30965113333496" lon="11.239884854762815"><ele>319.0</ele><time>2026-04-04T10:42:53Z</time></trkpt><trkpt lat="43.30958133609288" lon="11.23978607891862"><ele>319.0</ele><time>2026-04-04T10:42:55Z</time></trkpt><trkpt lat="43.30959840589099" lon="11.23969625189385"><ele>319.0</ele><time>2026-04-04T10:42:56Z</time></trkpt><trkpt lat="43.30961360186866" lon="11.239539650587245"><ele>317.75</ele><time>2026-04-04T10:42:57Z</time></trkpt><trkpt lat="43.309621101937985" lon="11.239365622042985"><ele>316.5</ele><time>2026-04-04T10:42:58Z</time></trkpt><trkpt lat="43.309611443000136" lon="11.239211949723284"><ele>315.25</ele><time>2026-04-04T10:42:59Z</time></trkpt><trkpt lat="43.30962071194701" lon="11.239054743196608"><ele>314.0</ele><time>2026-04-04T10:43:00Z</time></trkpt><trkpt lat="43.30963012762786" lon="11.238854579799971"><ele>313.0</ele><time>2026-04-04T10:43:01Z</time></trkpt><trkpt lat="43.3096288654433" lon="11.238636904819705"><ele>312.0</ele><time>2026-04-04T10:43:02Z</time></trkpt><trkpt lat="43.30962629423982" lon="11.238461322192475"><ele>311.0</ele><time>2026-04-04T10:43:03Z</time></trkpt><trkpt lat="43.30962632519094" lon="11.238297753004973"><ele>310.0</ele><time>2026-04-04T10:43:04Z</time></trkpt><trkpt lat="43.30961988952825" lon="11.238148575451643"><ele>309.2</ele><time>2026-04-04T10:43:05Z</time></trkpt><trkpt lat="43.30961851986647" lon="11.237996437496346"><ele>308.4</ele><time>2026-04-04T10:43:06Z</time></trkpt><trkpt lat="43.309633348884816" lon="11.237851143357572"><ele>307.6</ele><time>2026-04-04T10:43:07Z</time></trkpt><trkpt lat="43.30963699583993" lon="11.237723218370819"><ele>306.8</ele><time>2026-04-04T10:43:08Z</time></trkpt><trkpt lat="43.30964761808368" lon="11.237615000105741"><ele>306.0</ele><time>2026-04-04T10:43:09Z</time></trkpt><trkpt lat="43.30964806024515" lon="11.237511591398455"><ele>306.0</ele><time>2026-04-04T10:43:10Z</time></trkpt><trkpt lat="43.30959416178699" lon="11.237371146546264"><ele>306.0</ele><time>2026-04-04T10:43:12Z</time></trkpt><trkpt lat="43.309496781896165" lon="11.23732991051346"><ele>306.0</ele><time>2026-04-04T10:43:13Z</time></trkpt><trkpt lat="43.30940980382777" lon="11.237337044594831"><ele>306.0</ele><time>2026-04-04T10:43:14Z</time></trkpt><trkpt lat="43.30931546879617" lon="11.237385622467189"><ele>306.0</ele><time>2026-04-04T10:43:15Z</time></trkpt><trkpt lat="43.30923711935787" lon="11.237468474775872"><ele>306.0</ele><time>2026-04-04T10:43:16Z</time></trkpt><trkpt lat="43.309162137027116" lon="11.237522602708053"><ele>306.0</ele><time>2026-04-04T10:43:17Z</time></trkpt><trkpt lat="43.309098538459786" lon="11.237549506816075"><ele>306.0</ele><time>2026-04-04T10:43:18Z</time></trkpt><trkpt lat="43.30903364492574" lon="11.237526406074842"><ele>306.0</ele><time>2026-04-04T10:43:19Z</time></trkpt><trkpt lat="43.30895840168223" lon="11.237477453532446"><ele>306.0</ele><time>2026-04-04T10:43:20Z</time></trkpt><trkpt lat="43.308894961107725" lon="11.237414026242188"><ele>306.0</ele><time>2026-04-04T10:43:21Z</time></trkpt><trkpt lat="43.30884513408808" lon="11.23732532043351"><ele>305.5</ele><time>2026-04-04T10:43:22Z</time></trkpt><trkpt lat="43.30881843061093" lon="11.237208774855677"><ele>305.0</ele><time>2026-04-04T10:43:24Z</time></trkpt><trkpt lat="43.3088935830047" lon="11.237185627939027"><ele>304.5</ele><time>2026-04-04T10:43:26Z</time></trkpt><trkpt lat="43.308948696403796" lon="11.237130778109966"><ele>304.0</ele><time>2026-04-04T10:43:27Z</time></trkpt><trkpt lat="43.30900027816515" lon="11.237050066005882"><ele>303.5</ele><time>2026-04-04T10:43:28Z</time></trkpt><trkpt lat="43.30902639236089" lon="11.236920908159414"><ele>303.0</ele><time>2026-04-04T10:43:29Z</time></trkpt><trkpt lat="43.30905610104511" lon="11.236762992554842"><ele>302.2</ele><time>2026-04-04T10:43:30Z</time></trkpt><trkpt lat="43.309077738296125" lon="11.23663270238209"><ele>301.4</ele><time>2026-04-04T10:43:31Z</time></trkpt><trkpt lat="43.30909926699483" lon="11.236515390070053"><ele>300.59999999999997</ele><time>2026-04-04T10:43:32Z</time></trkpt><trkpt lat="43.30910575784993" lon="11.236396834732249"><ele>299.8</ele><time>2026-04-04T10:43:33Z</time></trkpt><trkpt lat="43.30913564403749" lon="11.236280799552908"><ele>299.0</ele><time>2026-04-04T10:43:34Z</time></trkpt><trkpt lat="43.30914859502363" lon="11.236154818653995"><ele>296.5</ele><time>2026-04-04T10:43:35Z</time></trkpt><trkpt lat="43.309140117375534" lon="11.2360452998632"><ele>294.0</ele><time>2026-04-04T10:43:36Z</time></trkpt><trkpt lat="43.3090841344879" lon="11.235779363725747"><ele>291.5</ele><time>2026-04-04T10:43:39Z</time></trkpt><trkpt lat="43.30908831985688" lon="11.235653428085486"><ele>289.0</ele><time>2026-04-04T10:43:40Z</time></trkpt><trkpt lat="43.309094551125646" lon="11.235522756835843"><ele>287.4</ele><time>2026-04-04T10:43:41Z</time></trkpt><trkpt lat="43.309089183468046" lon="11.235404785529203"><ele>285.79999999999995</ele><time>2026-04-04T10:43:42Z</time></trkpt><trkpt lat="43.30905206804988" lon="11.235285680732543"><ele>284.20000000000005</ele><time>2026-04-04T10:43:43Z</time></trkpt><trkpt lat="43.30898539178452" lon="11.235183207291474"><ele>282.6</ele><time>2026-04-04T10:43:44Z</time></trkpt><trkpt lat="43.308911130912286" lon="11.235043660221987"><ele>281.0</ele><time>2026-04-04T10:43:45Z</time></trkpt><trkpt lat="43.30884036757294" lon="11.234898267582912"><ele>278.6</ele><time>2026-04-04T10:43:46Z</time></trkpt><trkpt lat="43.308775329232894" lon="11.23477217649248"><ele>276.20000000000005</ele><time>2026-04-04T10:43:47Z</time></trkpt><trkpt lat="43.30870139824253" lon="11.234665706092546"><ele>273.79999999999995</ele><time>2026-04-04T10:43:48Z</time></trkpt><trkpt lat="43.30862190436286" lon="11.234591145374884"><ele>271.4</ele><time>2026-04-04T10:43:49Z</time></trkpt><trkpt lat="43.30853098084045" lon="11.234527949613684"><ele>269.0</ele><time>2026-04-04T10:43:50Z</time></trkpt><trkpt lat="43.30842757588844" lon="11.234477386916321"><ele>269.0</ele><time>2026-04-04T10:43:51Z</time></trkpt><trkpt lat="43.30831175127502" lon="11.234397517900469"><ele>269.0</ele><time>2026-04-04T10:43:52Z</time></trkpt><trkpt lat="43.308200260300495" lon="11.234294703367226"><ele>269.0</ele><time>2026-04-04T10:43:53Z</time></trkpt><trkpt lat="43.308088028813856" lon="11.234215161840805"><ele>269.0</ele><time>2026-04-04T10:43:54Z</time></trkpt><trkpt lat="43.307983345087784" lon="11.234141200390129"><ele>269.0</ele><time>2026-04-04T10:43:55Z</time></trkpt><trkpt lat="43.30787452605218" lon="11.234066103915183"><ele>269.0</ele><time>2026-04-04T10:43:56Z</time></trkpt><trkpt lat="43.307753908595195" lon="11.233984762955693"><ele>269.0</ele><time>2026-04-04T10:43:57Z</time></trkpt><trkpt lat="43.30764410149433" lon="11.233915203510266"><ele>269.0</ele><time>2026-04-04T10:43:58Z</time></trkpt><trkpt lat="43.307533369152736" lon="11.233862683414701"><ele>266.2</ele><time>2026-04-04T10:43:59Z</time></trkpt><trkpt lat="43.30743190948855" lon="11.233783137784572"><ele>263.4</ele><time>2026-04-04T10:44:00Z</time></trkpt><trkpt lat="43.307330324742736" lon="11.23372889446894"><ele>260.6</ele><time>2026-04-04T10:44:01Z</time></trkpt><trkpt lat="43.307228398041154" lon="11.23368755291336"><ele>257.8</ele><time>2026-04-04T10:44:02Z</time></trkpt><trkpt lat="43.30712165571055" lon="11.23363383273905"><ele>255.0</ele><time>2026-04-04T10:44:03Z</time></trkpt><trkpt lat="43.30700708132182" lon="11.233575721620749"><ele>253.6</ele><time>2026-04-04T10:44:04Z</time></trkpt><trkpt lat="43.30691073909812" lon="11.233495529317176"><ele>252.2</ele><time>2026-04-04T10:44:05Z</time></trkpt><trkpt lat="43.30682460912362" lon="11.233441009469715"><ele>250.8</ele><time>2026-04-04T10:44:06Z</time></trkpt><trkpt lat="43.30676626721814" lon="11.233396560924325"><ele>249.4</ele><time>2026-04-04T10:44:07Z</time></trkpt><trkpt lat="43.306771125191304" lon="11.233306958984727"><ele>248.0</ele><time>2026-04-04T10:44:09Z</time></trkpt><trkpt lat="43.30684844601132" lon="11.233165920648899"><ele>247.66666666666669</ele><time>2026-04-04T10:44:11Z</time></trkpt><trkpt lat="43.306903877793935" lon="11.233064171341825"><ele>247.33333333333334</ele><time>2026-04-04T10:44:12Z</time></trkpt><trkpt lat="43.306926545174115" lon="11.23297155173829"><ele>247.0</ele><time>2026-04-04T10:44:13Z</time></trkpt><trkpt lat="43.306915043943945" lon="11.232843956696797"><ele>246.66666666666669</ele><time>2026-04-04T10:44:15Z</time></trkpt><trkpt lat="43.306814368634996" lon="11.232854816553761"><ele>246.33333333333334</ele><time>2026-04-04T10:44:16Z</time></trkpt><trkpt lat="43.306776563877925" lon="11.23292650022773"><ele>246.0</ele><time>2026-04-04T10:44:18Z</time></trkpt><trkpt lat="43.30667918079143" lon="11.232981926235752"><ele>246.0</ele><time>2026-04-04T10:44:21Z</time></trkpt><trkpt lat="43.306631053366736" lon="11.233047033803182"><ele>246.0</ele><time>2026-04-04T10:44:23Z</time></trkpt><trkpt lat="43.306575713644705" lon="11.233091726931667"><ele>246.0</ele><time>2026-04-04T10:44:45Z</time></trkpt><trkpt lat="43.30651479124638" lon="11.233134541542483"><ele>246.0</ele><time>2026-04-04T10:44:48Z</time></trkpt><trkpt lat="43.30644224236231" lon="11.2332092954309"><ele>246.0</ele><time>2026-04-04T10:45:44Z</time></trkpt><trkpt lat="43.3063437683375" lon="11.233293858221339"><ele>246.0</ele><time>2026-04-04T10:45:46Z</time></trkpt><trkpt lat="43.30626595105993" lon="11.233370324783616"><ele>245.33333333333334</ele><time>2026-04-04T10:45:48Z</time></trkpt><trkpt lat="43.30618076664365" lon="11.233450897707478"><ele>244.66666666666669</ele><time>2026-04-04T10:45:50Z</time></trkpt><trkpt lat="43.30612698355695" lon="11.233500399266887"><ele>244.0</ele><time>2026-04-04T10:45:51Z</time></trkpt><trkpt lat="43.306061413551795" lon="11.233551768666413"><ele>243.33333333333334</ele><time>2026-04-04T10:45:52Z</time></trkpt><trkpt lat="43.306000276943024" lon="11.233593908168428"><ele>242.66666666666669</ele><time>2026-04-04T10:45:53Z</time></trkpt><trkpt lat="43.3059386476528" lon="11.233627760797159"><ele>242.0</ele><time>2026-04-04T10:45:54Z</time></trkpt><trkpt lat="43.30586273798686" lon="11.2336548873229"><ele>242.0</ele><time>2026-04-04T10:45:55Z</time></trkpt><trkpt lat="43.305778227784025" lon="11.233676871591967"><ele>242.0</ele><time>2026-04-04T10:45:56Z</time></trkpt><trkpt lat="43.30569018689127" lon="11.233640599198555"><ele>242.0</ele><time>2026-04-04T10:45:57Z</time></trkpt><trkpt lat="43.30556391328905" lon="11.233659243086898"><ele>242.0</ele><time>2026-04-04T10:45:58Z</time></trkpt><trkpt lat="43.30546799293135" lon="11.233686064882576"><ele>242.0</ele><time>2026-04-04T10:45:59Z</time></trkpt><trkpt lat="43.305363356384404" lon="11.233723831690236"><ele>241.25</ele><time>2026-04-04T10:46:00Z</time></trkpt><trkpt lat="43.30525258789254" lon="11.233772966968377"><ele>240.5</ele><time>2026-04-04T10:46:01Z</time></trkpt><trkpt lat="43.305133202506596" lon="11.233798836867422"><ele>239.75</ele><time>2026-04-04T10:46:02Z</time></trkpt><trkpt lat="43.30502747683974" lon="11.233834394951298"><ele>239.0</ele><time>2026-04-04T10:46:03Z</time></trkpt><trkpt lat="43.30492381770767" lon="11.233870636249708"><ele>239.0</ele><time>2026-04-04T10:46:04Z</time></trkpt><trkpt lat="43.304823733676976" lon="11.233905683852187"><ele>238.99999999999997</ele><time>2026-04-04T10:46:05Z</time></trkpt><trkpt lat="43.304729561628655" lon="11.233939844288194"><ele>238.99999999999997</ele><time>2026-04-04T10:46:06Z</time></trkpt><trkpt lat="43.30462967064368" lon="11.23397607919648"><ele>239.0</ele><time>2026-04-04T10:46:07Z</time></trkpt><trkpt lat="43.304520302094694" lon="11.234016046559951"><ele>239.0</ele><time>2026-04-04T10:46:08Z</time></trkpt><trkpt lat="43.30441215282224" lon="11.234058079565353"><ele>241.0</ele><time>2026-04-04T10:46:09Z</time></trkpt><trkpt lat="43.30430038884103" lon="11.234103086069137"><ele>243.0</ele><time>2026-04-04T10:46:10Z</time></trkpt><trkpt lat="43.30418703908567" lon="11.23414978906648"><ele>245.0</ele><time>2026-04-04T10:46:11Z</time></trkpt><trkpt lat="43.30407699593793" lon="11.234197239820732"><ele>247.0</ele><time>2026-04-04T10:46:12Z</time></trkpt><trkpt lat="43.30397146556246" lon="11.234264648173703"><ele>245.8</ele><time>2026-04-04T10:46:13Z</time></trkpt><trkpt lat="43.30385975803721" lon="11.23430631348135"><ele>244.6</ele><time>2026-04-04T10:46:14Z</time></trkpt><trkpt lat="43.30374611508965" lon="11.23436021819013"><ele>243.40000000000003</ele><time>2026-04-04T10:46:15Z</time></trkpt><trkpt lat="43.30363651842395" lon="11.234412272800855"><ele>242.20000000000002</ele><time>2026-04-04T10:46:16Z</time></trkpt><trkpt lat="43.3035434857288" lon="11.23444714713347"><ele>241.0</ele><time>2026-04-04T10:46:17Z</time></trkpt><trkpt lat="43.30346298759518" lon="11.234497914177707"><ele>240.99999999999997</ele><time>2026-04-04T10:46:18Z</time></trkpt><trkpt lat="43.30338541766614" lon="11.234564528008955"><ele>241.0</ele><time>2026-04-04T10:46:19Z</time></trkpt><trkpt lat="43.30331132686435" lon="11.234620165013371"><ele>241.0</ele><time>2026-04-04T10:46:20Z</time></trkpt><trkpt lat="43.30325171663904" lon="11.234700153329422"><ele>241.0</ele><time>2026-04-04T10:46:21Z</time></trkpt><trkpt lat="43.30323800190911" lon="11.234808706015379"><ele>240.99999999999997</ele><time>2026-04-04T10:46:22Z</time></trkpt><trkpt lat="43.30319072374278" lon="11.23489443721749"><ele>241.0</ele><time>2026-04-04T10:46:23Z</time></trkpt><trkpt lat="43.30315067830295" lon="11.234969093503796"><ele>240.5</ele><time>2026-04-04T10:46:24Z</time></trkpt><trkpt lat="43.303072461471075" lon="11.234986413976117"><ele>240.0</ele><time>2026-04-04T10:46:25Z</time></trkpt><trkpt lat="43.30296106202705" lon="11.234937324763694"><ele>239.5</ele><time>2026-04-04T10:46:26Z</time></trkpt><trkpt lat="43.30282417793612" lon="11.234965964269307"><ele>239.0</ele><time>2026-04-04T10:46:27Z</time></trkpt><trkpt lat="43.302674491068466" lon="11.234999971110634"><ele>239.0</ele><time>2026-04-04T10:46:28Z</time></trkpt><trkpt lat="43.30252391985352" lon="11.23504650945162"><ele>239.0</ele><time>2026-04-04T10:46:29Z</time></trkpt><trkpt lat="43.3024162652015" lon="11.235104142566016"><ele>239.0</ele><time>2026-04-04T10:46:30Z</time></trkpt><trkpt lat="43.302326462160465" lon="11.235155631764732"><ele>239.0</ele><time>2026-04-04T10:46:31.001Z</time></trkpt><trkpt lat="43.302245789615135" lon="11.235189582471781"><ele>237.39999999999998</ele><time>2026-04-04T10:46:32.001Z</time></trkpt><trkpt lat="43.30216797655775" lon="11.235161599185174"><ele>235.79999999999998</ele><time>2026-04-04T10:46:33.001Z</time></trkpt><trkpt lat="43.302079906385735" lon="11.235174055565105"><ele>234.20000000000002</ele><time>2026-04-04T10:46:34.001Z</time></trkpt><trkpt lat="43.30196704867709" lon="11.23517495910179"><ele>232.60000000000002</ele><time>2026-04-04T10:46:35.001Z</time></trkpt><trkpt lat="43.30184816380324" lon="11.235276900801086"><ele>231.0</ele><time>2026-04-04T10:46:36.001Z</time></trkpt><trkpt lat="43.30171026256423" lon="11.235347405110328"><ele>231.0</ele><time>2026-04-04T10:46:37.001Z</time></trkpt><trkpt lat="43.30159952513558" lon="11.235421726198593"><ele>231.00000000000003</ele><time>2026-04-04T10:46:38.001Z</time></trkpt><trkpt lat="43.30149435221377" lon="11.235500672977482"><ele>231.00000000000003</ele><time>2026-04-04T10:46:39.001Z</time></trkpt><trkpt lat="43.30139396977878" lon="11.235563707685738"><ele>231.0</ele><time>2026-04-04T10:46:40.001Z</time></trkpt><trkpt lat="43.30130822539759" lon="11.23561734746317"><ele>231.0</ele><time>2026-04-04T10:46:41.001Z</time></trkpt><trkpt lat="43.30121631068159" lon="11.23569575118852"><ele>231.20000000000002</ele><time>2026-04-04T10:46:42.001Z</time></trkpt><trkpt lat="43.30114203820319" lon="11.235803859375286"><ele>231.40000000000003</ele><time>2026-04-04T10:46:43.001Z</time></trkpt><trkpt lat="43.3010852704351" lon="11.235910346713881"><ele>231.6</ele><time>2026-04-04T10:46:44.001Z</time></trkpt><trkpt lat="43.301026259208065" lon="11.235976554045404"><ele>231.8</ele><time>2026-04-04T10:46:45.001Z</time></trkpt><trkpt lat="43.30097402268628" lon="11.236068031736341"><ele>232.0</ele><time>2026-04-04T10:46:46.001Z</time></trkpt><trkpt lat="43.30090044880528" lon="11.236145926798612"><ele>232.0</ele><time>2026-04-04T10:46:47.001Z</time></trkpt><trkpt lat="43.30083815145144" lon="11.236231710594234"><ele>232.0</ele><time>2026-04-04T10:46:48.001Z</time></trkpt><trkpt lat="43.30077575959316" lon="11.23631025644995"><ele>232.0</ele><time>2026-04-04T10:46:49.001Z</time></trkpt><trkpt lat="43.30071577615407" lon="11.236435335236155"><ele>232.0</ele><time>2026-04-04T10:46:51.001Z</time></trkpt><trkpt lat="43.30063900819969" lon="11.236575340705548"><ele>232.0</ele><time>2026-04-04T10:46:53.001Z</time></trkpt><trkpt lat="43.30059481787707" lon="11.236683927556031"><ele>231.0</ele><time>2026-04-04T10:46:54.001Z</time></trkpt><trkpt lat="43.300585251204076" lon="11.23681055041806"><ele>230.0</ele><time>2026-04-04T10:46:55.001Z</time></trkpt><trkpt lat="43.30053621809721" lon="11.236948874099188"><ele>229.0</ele><time>2026-04-04T10:46:57.001Z</time></trkpt><trkpt lat="43.30046474531198" lon="11.236958598125696"><ele>228.0</ele><time>2026-04-04T10:46:58.001Z</time></trkpt><trkpt lat="43.30033891546961" lon="11.237093883188038"><ele>227.0</ele><time>2026-04-04T10:47:00Z</time></trkpt><trkpt lat="43.30026980824283" lon="11.237142508434559"><ele>227.00000000000003</ele><time>2026-04-04T10:47:01Z</time></trkpt><trkpt lat="43.30021031377341" lon="11.23721160501561"><ele>227.0</ele><time>2026-04-04T10:47:02Z</time></trkpt><trkpt lat="43.30014079663477" lon="11.237258001841965"><ele>227.0</ele><time>2026-04-04T10:47:03Z</time></trkpt><trkpt lat="43.30005824325075" lon="11.23728029919484"><ele>227.0</ele><time>2026-04-04T10:47:04Z</time></trkpt><trkpt lat="43.29997964844195" lon="11.237252138472329"><ele>227.00000000000003</ele><time>2026-04-04T10:47:05Z</time></trkpt><trkpt lat="43.29986407478905" lon="11.2372162791123"><ele>227.0</ele><time>2026-04-04T10:47:06Z</time></trkpt><trkpt lat="43.29976984961883" lon="11.237061777390362"><ele>226.75</ele><time>2026-04-04T10:47:07Z</time></trkpt><trkpt lat="43.29965328772638" lon="11.236955343673168"><ele>226.5</ele><time>2026-04-04T10:47:08Z</time></trkpt><trkpt lat="43.29955248937782" lon="11.236863304167173"><ele>226.25</ele><time>2026-04-04T10:47:09Z</time></trkpt><trkpt lat="43.29946324061845" lon="11.236780467457693"><ele>226.0</ele><time>2026-04-04T10:47:10Z</time></trkpt><trkpt lat="43.29939152605824" lon="11.236704344245318"><ele>226.0</ele><time>2026-04-04T10:47:11Z</time></trkpt><trkpt lat="43.29933932425063" lon="11.23660861527863"><ele>226.0</ele><time>2026-04-04T10:47:12Z</time></trkpt><trkpt lat="43.29931520761372" lon="11.236455684961008"><ele>226.0</ele><time>2026-04-04T10:47:13Z</time></trkpt><trkpt lat="43.299250909796065" lon="11.236277111395989"><ele>226.0</ele><time>2026-04-04T10:47:14Z</time></trkpt><trkpt lat="43.299202264017545" lon="11.236088087384783"><ele>225.5</ele><time>2026-04-04T10:47:15Z</time></trkpt><trkpt lat="43.29914953668955" lon="11.23592197466002"><ele>225.0</ele><time>2026-04-04T10:47:16Z</time></trkpt><trkpt lat="43.29908722445868" lon="11.235764170951503"><ele>224.5</ele><time>2026-04-04T10:47:17Z</time></trkpt><trkpt lat="43.29901283299115" lon="11.235609394562433"><ele>224.0</ele><time>2026-04-04T10:47:18Z</time></trkpt><trkpt lat="43.2989677456589" lon="11.235464543517933"><ele>224.00000000000003</ele><time>2026-04-04T10:47:19Z</time></trkpt><trkpt lat="43.29893139084066" lon="11.235346210209547"><ele>224.0</ele><time>2026-04-04T10:47:20Z</time></trkpt><trkpt lat="43.29890147734006" lon="11.235239275016434"><ele>224.0</ele><time>2026-04-04T10:47:21Z</time></trkpt><trkpt lat="43.29886774964999" lon="11.235157090524922"><ele>224.0</ele><time>2026-04-04T10:47:22Z</time></trkpt><trkpt lat="43.29884770241932" lon="11.235046479935558"><ele>224.00000000000003</ele><time>2026-04-04T10:47:24Z</time></trkpt><trkpt lat="43.29881459319404" lon="11.234959749681034"><ele>224.0</ele><time>2026-04-04T10:47:27Z</time></trkpt><trkpt lat="43.29887113211412" lon="11.235125344513923"><ele>224.00000000000003</ele><time>2026-04-04T10:47:32Z</time></trkpt><trkpt lat="43.298882191060834" lon="11.23521402371059"><ele>224.0</ele><time>2026-04-04T10:47:33Z</time></trkpt><trkpt lat="43.2989043022091" lon="11.235347725933957"><ele>224.0</ele><time>2026-04-04T10:47:35Z</time></trkpt><trkpt lat="43.29893051214877" lon="11.235453854427186"><ele>224.0</ele><time>2026-04-04T10:47:36Z</time></trkpt><trkpt lat="43.29897443075402" lon="11.235569792871857"><ele>224.00000000000003</ele><time>2026-04-04T10:47:37Z</time></trkpt><trkpt lat="43.29902515330384" lon="11.235665898538395"><ele>224.0</ele><time>2026-04-04T10:47:38Z</time></trkpt><trkpt lat="43.29908572048125" lon="11.235771675930303"><ele>224.00000000000003</ele><time>2026-04-04T10:47:39Z</time></trkpt><trkpt lat="43.299117319834224" lon="11.235892100839344"><ele>224.0</ele><time>2026-04-04T10:47:40Z</time></trkpt><trkpt lat="43.29914871693887" lon="11.235992963430853"><ele>224.0</ele><time>2026-04-04T10:47:41Z</time></trkpt><trkpt lat="43.299177207497586" lon="11.236087140450364"><ele>224.0</ele><time>2026-04-04T10:47:42Z</time></trkpt><trkpt lat="43.2992053428191" lon="11.236182591114183"><ele>224.00000000000003</ele><time>2026-04-04T10:47:43Z</time></trkpt><trkpt lat="43.29923368851044" lon="11.236282597802468"><ele>224.0</ele><time>2026-04-04T10:47:44Z</time></trkpt><trkpt lat="43.299261396879004" lon="11.23638536208602"><ele>224.39999999999998</ele><time>2026-04-04T10:47:45Z</time></trkpt><trkpt lat="43.299284985460595" lon="11.23647537249376"><ele>224.79999999999998</ele><time>2026-04-04T10:47:46Z</time></trkpt><trkpt lat="43.299318418933225" lon="11.2366208696572"><ele>225.20000000000002</ele><time>2026-04-04T10:47:48Z</time></trkpt><trkpt lat="43.29931284320296" lon="11.236720955640822"><ele>225.60000000000002</ele><time>2026-04-04T10:47:51Z</time></trkpt><trkpt lat="43.29920984107801" lon="11.236634247238294"><ele>226.0</ele><time>2026-04-04T10:47:53Z</time></trkpt><trkpt lat="43.29912376307308" lon="11.236604231538095"><ele>225.99999999999997</ele><time>2026-04-04T10:47:54Z</time></trkpt><trkpt lat="43.299045749643746" lon="11.236577326401697"><ele>226.0</ele><time>2026-04-04T10:47:55Z</time></trkpt><trkpt lat="43.29898021949431" lon="11.236570131932085"><ele>226.0</ele><time>2026-04-04T10:47:56Z</time></trkpt><trkpt lat="43.298916465498706" lon="11.236534489665306"><ele>226.0</ele><time>2026-04-04T10:47:57Z</time></trkpt><trkpt lat="43.2988427837412" lon="11.236534049353049"><ele>225.99999999999997</ele><time>2026-04-04T10:47:58Z</time></trkpt><trkpt lat="43.298753192457276" lon="11.236484242698726"><ele>226.0</ele><time>2026-04-04T10:47:59Z</time></trkpt><trkpt lat="43.29866060494415" lon="11.236465867955998"><ele>225.20000000000002</ele><time>2026-04-04T10:48:00Z</time></trkpt><trkpt lat="43.2985777393075" lon="11.236471879450852"><ele>224.40000000000003</ele><time>2026-04-04T10:48:01Z</time></trkpt><trkpt lat="43.2984926152469" lon="11.23646260095148"><ele>223.6</ele><time>2026-04-04T10:48:02Z</time></trkpt><trkpt lat="43.298401859286734" lon="11.236471818416813"><ele>222.8</ele><time>2026-04-04T10:48:03Z</time></trkpt><trkpt lat="43.2982940049495" lon="11.236466299922718"><ele>222.0</ele><time>2026-04-04T10:48:04Z</time></trkpt><trkpt lat="43.29818040026802" lon="11.236462600946746"><ele>221.5</ele><time>2026-04-04T10:48:05Z</time></trkpt><trkpt lat="43.29806276838983" lon="11.236364891761808"><ele>221.0</ele><time>2026-04-04T10:48:06Z</time></trkpt><trkpt lat="43.297955609219386" lon="11.236312553498456"><ele>220.5</ele><time>2026-04-04T10:48:07Z</time></trkpt><trkpt lat="43.29782418573734" lon="11.236255849858395"><ele>220.0</ele><time>2026-04-04T10:48:08Z</time></trkpt><trkpt lat="43.29770178327806" lon="11.236217950916009"><ele>220.0</ele><time>2026-04-04T10:48:09Z</time></trkpt><trkpt lat="43.29759322223044" lon="11.236172506403083"><ele>220.0</ele><time>2026-04-04T10:48:10Z</time></trkpt><trkpt lat="43.297484685348444" lon="11.236128443231308"><ele>220.0</ele><time>2026-04-04T10:48:11Z</time></trkpt><trkpt lat="43.29739550095012" lon="11.236105915219294"><ele>220.0</ele><time>2026-04-04T10:48:12Z</time></trkpt><trkpt lat="43.29732651021934" lon="11.23613144467695"><ele>220.0</ele><time>2026-04-04T10:48:13Z</time></trkpt><trkpt lat="43.297282634313575" lon="11.236208878405227"><ele>219.6</ele><time>2026-04-04T10:48:14Z</time></trkpt><trkpt lat="43.29724736533179" lon="11.23631984097813"><ele>219.2</ele><time>2026-04-04T10:48:15Z</time></trkpt><trkpt lat="43.29719753537909" lon="11.236483213211946"><ele>218.8</ele><time>2026-04-04T10:48:16Z</time></trkpt><trkpt lat="43.297127822978545" lon="11.236627882665308"><ele>218.4</ele><time>2026-04-04T10:48:17Z</time></trkpt><trkpt lat="43.297074877825295" lon="11.236719975879216"><ele>218.0</ele><time>2026-04-04T10:48:18Z</time></trkpt><trkpt lat="43.29700901466033" lon="11.23676339227321"><ele>217.75</ele><time>2026-04-04T10:48:19Z</time></trkpt><trkpt lat="43.29690689449799" lon="11.236776008534207"><ele>217.5</ele><time>2026-04-04T10:48:20Z</time></trkpt><trkpt lat="43.29677429437139" lon="11.236758312926115"><ele>217.25</ele><time>2026-04-04T10:48:21Z</time></trkpt><trkpt lat="43.29662966874639" lon="11.236723130282252"><ele>217.0</ele><time>2026-04-04T10:48:22Z</time></trkpt><trkpt lat="43.29648380384226" lon="11.236709503088223"><ele>216.75</ele><time>2026-04-04T10:48:23Z</time></trkpt><trkpt lat="43.2963571847705" lon="11.236725155698498"><ele>216.5</ele><time>2026-04-04T10:48:24Z</time></trkpt><trkpt lat="43.2962377723424" lon="11.236730527469062"><ele>216.25</ele><time>2026-04-04T10:48:25Z</time></trkpt><trkpt lat="43.29610137823984" lon="11.236761865835403"><ele>216.0</ele><time>2026-04-04T10:48:26Z</time></trkpt><trkpt lat="43.29598586636945" lon="11.236812762394262"><ele>216.0</ele><time>2026-04-04T10:48:27Z</time></trkpt><trkpt lat="43.295898845329816" lon="11.236849312303267"><ele>216.0</ele><time>2026-04-04T10:48:28Z</time></trkpt><trkpt lat="43.29581811656526" lon="11.236865458445894"><ele>216.0</ele><time>2026-04-04T10:48:29Z</time></trkpt><trkpt lat="43.29574602171689" lon="11.236879298959746"><ele>216.0</ele><time>2026-04-04T10:48:30Z</time></trkpt><trkpt lat="43.29567643136885" lon="11.236901172729485"><ele>216.0</ele><time>2026-04-04T10:48:31Z</time></trkpt><trkpt lat="43.295604034522164" lon="11.23694338114848"><ele>216.0</ele><time>2026-04-04T10:48:32Z</time></trkpt><trkpt lat="43.29551258133958" lon="11.236991302894292"><ele>216.16666666666666</ele><time>2026-04-04T10:48:33Z</time></trkpt><trkpt lat="43.29541502424777" lon="11.23704499383962"><ele>216.33333333333331</ele><time>2026-04-04T10:48:34Z</time></trkpt><trkpt lat="43.29534253173184" lon="11.237079492188107"><ele>216.5</ele><time>2026-04-04T10:48:35Z</time></trkpt><trkpt lat="43.29524688468779" lon="11.237100539630699"><ele>216.66666666666666</ele><time>2026-04-04T10:48:37.001Z</time></trkpt><trkpt lat="43.29520093618141" lon="11.237012315732363"><ele>216.83333333333331</ele><time>2026-04-04T10:48:39.001Z</time></trkpt><trkpt lat="43.29520427948374" lon="11.23692032531658"><ele>217.0</ele><time>2026-04-04T10:48:40.001Z</time></trkpt><trkpt lat="43.29521281788422" lon="11.23677829601952"><ele>217.0</ele><time>2026-04-04T10:48:41.001Z</time></trkpt><trkpt lat="43.295202112847356" lon="11.236597389135703"><ele>217.0</ele><time>2026-04-04T10:48:42.001Z</time></trkpt><trkpt lat="43.295192480154114" lon="11.236415688880147"><ele>217.0</ele><time>2026-04-04T10:48:43.001Z</time></trkpt><trkpt lat="43.295185236430655" lon="11.236262529132079"><ele>217.0</ele><time>2026-04-04T10:48:44.001Z</time></trkpt><trkpt lat="43.295133590295116" lon="11.236114877294414"><ele>217.25</ele><time>2026-04-04T10:48:45.001Z</time></trkpt><trkpt lat="43.295124240929155" lon="11.23596053759735"><ele>217.5</ele><time>2026-04-04T10:48:46.001Z</time></trkpt><trkpt lat="43.2951620261926" lon="11.235811605209758"><ele>217.75</ele><time>2026-04-04T10:48:47.001Z</time></trkpt><trkpt lat="43.29513835351552" lon="11.235654203484462"><ele>218.0</ele><time>2026-04-04T10:48:48Z</time></trkpt><trkpt lat="43.295134015360084" lon="11.235480580924802"><ele>218.25</ele><time>2026-04-04T10:48:49Z</time></trkpt><trkpt lat="43.29511134929394" lon="11.23530073051465"><ele>218.5</ele><time>2026-04-04T10:48:50Z</time></trkpt><trkpt lat="43.295106673495155" lon="11.23511056001304"><ele>218.75</ele><time>2026-04-04T10:48:51Z</time></trkpt><trkpt lat="43.29508890929426" lon="11.234918845220228"><ele>219.0</ele><time>2026-04-04T10:48:52Z</time></trkpt><trkpt lat="43.295074320898685" lon="11.2347437714907"><ele>219.2</ele><time>2026-04-04T10:48:53Z</time></trkpt><trkpt lat="43.295056609919214" lon="11.234603643588622"><ele>219.39999999999998</ele><time>2026-04-04T10:48:54Z</time></trkpt><trkpt lat="43.29505513621195" lon="11.234475468535614"><ele>219.6</ele><time>2026-04-04T10:48:55Z</time></trkpt><trkpt lat="43.295046803093946" lon="11.234351290095312"><ele>219.8</ele><time>2026-04-04T10:48:56Z</time></trkpt><trkpt lat="43.29502578151945" lon="11.234231171599554"><ele>220.0</ele><time>2026-04-04T10:48:57Z</time></trkpt><trkpt lat="43.29501221054781" lon="11.234106291640527"><ele>219.99999999999997</ele><time>2026-04-04T10:48:58Z</time></trkpt><trkpt lat="43.295012037339546" lon="11.233989649799918"><ele>220.0</ele><time>2026-04-04T10:48:59Z</time></trkpt><trkpt lat="43.29500013980763" lon="11.233895337817806"><ele>220.0</ele><time>2026-04-04T10:49:00Z</time></trkpt><trkpt lat="43.29497282078081" lon="11.233797693527245"><ele>220.0</ele><time>2026-04-04T10:49:01Z</time></trkpt><trkpt lat="43.29495869860141" lon="11.23363092265613"><ele>219.99999999999997</ele><time>2026-04-04T10:49:03Z</time></trkpt><trkpt lat="43.294957383670955" lon="11.233504252472454"><ele>220.0</ele><time>2026-04-04T10:49:05Z</time></trkpt><trkpt lat="43.294784895908" lon="11.233486359400704"><ele>219.66666666666666</ele><time>2026-04-04T10:49:08Z</time></trkpt><trkpt lat="43.29470436137156" lon="11.233487495955872"><ele>219.33333333333331</ele><time>2026-04-04T10:49:09Z</time></trkpt><trkpt lat="43.29463914380337" lon="11.233501642641135"><ele>219.0</ele><time>2026-04-04T10:49:10Z</time></trkpt><trkpt lat="43.294574843179234" lon="11.23350093315904"><ele>218.66666666666669</ele><time>2026-04-04T10:49:11Z</time></trkpt><trkpt lat="43.294515984146784" lon="11.233452071924239"><ele>218.33333333333334</ele><time>2026-04-04T10:49:12Z</time></trkpt><trkpt lat="43.294422897343615" lon="11.233394812672062"><ele>218.0</ele><time>2026-04-04T10:49:13Z</time></trkpt><trkpt lat="43.2943113221315" lon="11.233324285905427"><ele>218.0</ele><time>2026-04-04T10:49:14Z</time></trkpt><trkpt lat="43.29417925198931" lon="11.233255973009179"><ele>218.0</ele><time>2026-04-04T10:49:15Z</time></trkpt><trkpt lat="43.294039498052605" lon="11.233205107907763"><ele>218.0</ele><time>2026-04-04T10:49:16Z</time></trkpt><trkpt lat="43.293890408084394" lon="11.233173515795134"><ele>218.0</ele><time>2026-04-04T10:49:17Z</time></trkpt><trkpt lat="43.293729460855175" lon="11.233145110444523"><ele>217.75</ele><time>2026-04-04T10:49:18Z</time></trkpt><trkpt lat="43.29358925239994" lon="11.233089174656952"><ele>217.5</ele><time>2026-04-04T10:49:19Z</time></trkpt><trkpt lat="43.29346061388115" lon="11.233050237115796"><ele>217.25</ele><time>2026-04-04T10:49:20Z</time></trkpt><trkpt lat="43.293345461401074" lon="11.233014848216003"><ele>217.0</ele><time>2026-04-04T10:49:21Z</time></trkpt><trkpt lat="43.293240419463395" lon="11.23301449312658"><ele>216.99999999999997</ele><time>2026-04-04T10:49:22Z</time></trkpt><trkpt lat="43.293156064375744" lon="11.233020195454428"><ele>217.0</ele><time>2026-04-04T10:49:23Z</time></trkpt><trkpt lat="43.29308453071342" lon="11.23306009804188"><ele>217.0</ele><time>2026-04-04T10:49:24Z</time></trkpt><trkpt lat="43.29301907287684" lon="11.23310634527755"><ele>217.0</ele><time>2026-04-04T10:49:25Z</time></trkpt><trkpt lat="43.292966048639" lon="11.233161320138477"><ele>216.99999999999997</ele><time>2026-04-04T10:49:26Z</time></trkpt><trkpt lat="43.2928859965766" lon="11.233268637748036"><ele>217.0</ele><time>2026-04-04T10:49:28Z</time></trkpt><trkpt lat="43.29281626449817" lon="11.233341889454511"><ele>217.16666666666666</ele><time>2026-04-04T10:49:30Z</time></trkpt><trkpt lat="43.292745171095724" lon="11.233385638900515"><ele>217.33333333333331</ele><time>2026-04-04T10:49:32Z</time></trkpt><trkpt lat="43.292667922474024" lon="11.233405713034319"><ele>217.5</ele><time>2026-04-04T10:49:34Z</time></trkpt><trkpt lat="43.29254882432171" lon="11.233423898169693"><ele>217.66666666666669</ele><time>2026-04-04T10:49:36Z</time></trkpt><trkpt lat="43.29246718472951" lon="11.233456367531081"><ele>217.83333333333334</ele><time>2026-04-04T10:49:37Z</time></trkpt><trkpt lat="43.29237969833618" lon="11.233446218507218"><ele>218.0</ele><time>2026-04-04T10:49:38Z</time></trkpt><trkpt lat="43.29227146413684" lon="11.233488055321272"><ele>218.4</ele><time>2026-04-04T10:49:39Z</time></trkpt><trkpt lat="43.29215821077086" lon="11.233493465872344"><ele>218.8</ele><time>2026-04-04T10:49:40Z</time></trkpt><trkpt lat="43.29206620862202" lon="11.233499043546686"><ele>219.2</ele><time>2026-04-04T10:49:41Z</time></trkpt><trkpt lat="43.291990126449896" lon="11.233501812094035"><ele>219.6</ele><time>2026-04-04T10:49:42Z</time></trkpt><trkpt lat="43.291909709768845" lon="11.23343701202081"><ele>220.0</ele><time>2026-04-04T10:49:44Z</time></trkpt><trkpt lat="43.29187023397627" lon="11.233281659065888"><ele>220.0</ele><time>2026-04-04T10:49:46Z</time></trkpt><trkpt lat="43.2918230486295" lon="11.233191081528227"><ele>220.0</ele><time>2026-04-04T10:49:47Z</time></trkpt><trkpt lat="43.29177029729141" lon="11.233095052933207"><ele>220.0</ele><time>2026-04-04T10:49:48Z</time></trkpt><trkpt lat="43.29170658559576" lon="11.23299725028951"><ele>220.0</ele><time>2026-04-04T10:49:49Z</time></trkpt><trkpt lat="43.291607961578826" lon="11.23293456767954"><ele>220.0</ele><time>2026-04-04T10:49:50Z</time></trkpt><trkpt lat="43.291541324211686" lon="11.232861271499416"><ele>219.99999999999997</ele><time>2026-04-04T10:49:51Z</time></trkpt><trkpt lat="43.29146711314395" lon="11.232842746153754"><ele>220.0</ele><time>2026-04-04T10:49:52Z</time></trkpt><trkpt lat="43.291398272113426" lon="11.2327457149523"><ele>220.0</ele><time>2026-04-04T10:49:54Z</time></trkpt><trkpt lat="43.29137279805844" lon="11.232660011121943"><ele>220.0</ele><time>2026-04-04T10:49:55Z</time></trkpt><trkpt lat="43.291344383254504" lon="11.232573062172806"><ele>219.99999999999997</ele><time>2026-04-04T10:49:56Z</time></trkpt><trkpt lat="43.291273844595665" lon="11.232413542410416"><ele>220.0</ele><time>2026-04-04T10:49:58Z</time></trkpt><trkpt lat="43.29123859930733" lon="11.232301104993107"><ele>220.33333333333331</ele><time>2026-04-04T10:49:59Z</time></trkpt><trkpt lat="43.29118602010962" lon="11.232188238674402"><ele>220.66666666666666</ele><time>2026-04-04T10:50:00Z</time></trkpt><trkpt lat="43.291133089010884" lon="11.232074616835478"><ele>221.0</ele><time>2026-04-04T10:50:01Z</time></trkpt><trkpt lat="43.29109132914902" lon="11.231973239815982"><ele>221.33333333333331</ele><time>2026-04-04T10:50:02Z</time></trkpt><trkpt lat="43.291057159189016" lon="11.231884196637228"><ele>221.66666666666666</ele><time>2026-04-04T10:50:03Z</time></trkpt><trkpt lat="43.29101603132853" lon="11.231810035109119"><ele>222.0</ele><time>2026-04-04T10:50:04Z</time></trkpt><trkpt lat="43.29099847187571" lon="11.231711563818152"><ele>222.0</ele><time>2026-04-04T10:50:06Z</time></trkpt><trkpt lat="43.2908952949662" lon="11.231783156061002"><ele>222.0</ele><time>2026-04-04T10:50:07Z</time></trkpt><trkpt lat="43.29083830039359" lon="11.23183487198757"><ele>222.0</ele><time>2026-04-04T10:50:08Z</time></trkpt><trkpt lat="43.29076467382076" lon="11.231929766984253"><ele>222.0</ele><time>2026-04-04T10:50:09Z</time></trkpt><trkpt lat="43.29067508975163" lon="11.23205216473515"><ele>222.0</ele><time>2026-04-04T10:50:10Z</time></trkpt><trkpt lat="43.29059125297191" lon="11.232175279542995"><ele>223.39999999999998</ele><time>2026-04-04T10:50:11Z</time></trkpt><trkpt lat="43.290540206112375" lon="11.23228546593276"><ele>224.79999999999998</ele><time>2026-04-04T10:50:12Z</time></trkpt><trkpt lat="43.290468763431264" lon="11.232385581389703"><ele>226.2</ele><time>2026-04-04T10:50:13Z</time></trkpt><trkpt lat="43.29039734355772" lon="11.232431624774788"><ele>227.6</ele><time>2026-04-04T10:50:14Z</time></trkpt><trkpt lat="43.29024493403356" lon="11.23240930515243"><ele>229.0</ele><time>2026-04-04T10:50:16Z</time></trkpt><trkpt lat="43.29011374189655" lon="11.232398153096716"><ele>230.5</ele><time>2026-04-04T10:50:17Z</time></trkpt><trkpt lat="43.289983144090264" lon="11.232408311224566"><ele>232.0</ele><time>2026-04-04T10:50:18Z</time></trkpt><trkpt lat="43.28985450358545" lon="11.232470484735439"><ele>233.5</ele><time>2026-04-04T10:50:19Z</time></trkpt><trkpt lat="43.28972608768931" lon="11.232546416596417"><ele>235.0</ele><time>2026-04-04T10:50:20Z</time></trkpt><trkpt lat="43.28960740219027" lon="11.232603917989572"><ele>236.4</ele><time>2026-04-04T10:50:21Z</time></trkpt><trkpt lat="43.28948585463619" lon="11.232662585604192"><ele>237.8</ele><time>2026-04-04T10:50:22Z</time></trkpt><trkpt lat="43.28937900260582" lon="11.232720942575645"><ele>239.2</ele><time>2026-04-04T10:50:23Z</time></trkpt><trkpt lat="43.28928200162506" lon="11.23274692127414"><ele>240.6</ele><time>2026-04-04T10:50:24Z</time></trkpt><trkpt lat="43.289191729443885" lon="11.232759416566395"><ele>242.0</ele><time>2026-04-04T10:50:25Z</time></trkpt><trkpt lat="43.28911786533464" lon="11.232750780260579"><ele>242.0</ele><time>2026-04-04T10:50:26Z</time></trkpt><trkpt lat="43.289044445462295" lon="11.232711660770933"><ele>242.0</ele><time>2026-04-04T10:50:27Z</time></trkpt><trkpt lat="43.28895409087557" lon="11.232626859828141"><ele>242.0</ele><time>2026-04-04T10:50:28Z</time></trkpt><trkpt lat="43.28883700065168" lon="11.232535671020953"><ele>242.0</ele><time>2026-04-04T10:50:29Z</time></trkpt><trkpt lat="43.28872101025746" lon="11.232461249064452"><ele>242.39999999999998</ele><time>2026-04-04T10:50:30Z</time></trkpt><trkpt lat="43.28860919913295" lon="11.232452185426483"><ele>242.79999999999998</ele><time>2026-04-04T10:50:31Z</time></trkpt><trkpt lat="43.28853934741586" lon="11.232376418396163"><ele>243.2</ele><time>2026-04-04T10:50:32Z</time></trkpt><trkpt lat="43.28846529917134" lon="11.232290476609748"><ele>243.6</ele><time>2026-04-04T10:50:33Z</time></trkpt><trkpt lat="43.28841070257808" lon="11.232168641974074"><ele>244.0</ele><time>2026-04-04T10:50:34Z</time></trkpt><trkpt lat="43.28834232950991" lon="11.232056264569792"><ele>243.99999999999997</ele><time>2026-04-04T10:50:35Z</time></trkpt><trkpt lat="43.28828222233684" lon="11.23195747354809"><ele>244.0</ele><time>2026-04-04T10:50:36Z</time></trkpt><trkpt lat="43.288226597570855" lon="11.231875301125367"><ele>244.0</ele><time>2026-04-04T10:50:37Z</time></trkpt><trkpt lat="43.28816022330857" lon="11.231813448781455"><ele>244.0</ele><time>2026-04-04T10:50:38Z</time></trkpt><trkpt lat="43.28807309311066" lon="11.231800039723769"><ele>243.99999999999997</ele><time>2026-04-04T10:50:39Z</time></trkpt><trkpt lat="43.28798711955099" lon="11.231833222066546"><ele>244.0</ele><time>2026-04-04T10:50:40Z</time></trkpt><trkpt lat="43.287899786206495" lon="11.231859828583088"><ele>243.6</ele><time>2026-04-04T10:50:41Z</time></trkpt><trkpt lat="43.287806815745405" lon="11.231887209819385"><ele>243.2</ele><time>2026-04-04T10:50:42Z</time></trkpt><trkpt lat="43.28771890926828" lon="11.231948123311598"><ele>242.79999999999998</ele><time>2026-04-04T10:50:43Z</time></trkpt><trkpt lat="43.28765432505277" lon="11.23202633596471"><ele>242.39999999999998</ele><time>2026-04-04T10:50:44Z</time></trkpt><trkpt lat="43.28760566433198" lon="11.232171602553136"><ele>242.0</ele><time>2026-04-04T10:50:45Z</time></trkpt><trkpt lat="43.28754825518057" lon="11.232313987597179"><ele>242.0</ele><time>2026-04-04T10:50:46Z</time></trkpt><trkpt lat="43.28748955923306" lon="11.23246202021866"><ele>242.0</ele><time>2026-04-04T10:50:47Z</time></trkpt><trkpt lat="43.287436976056604" lon="11.232595587183262"><ele>242.0</ele><time>2026-04-04T10:50:48Z</time></trkpt><trkpt lat="43.287373581862504" lon="11.232717394577728"><ele>242.0</ele><time>2026-04-04T10:50:49Z</time></trkpt><trkpt lat="43.28730059537362" lon="11.232828678834913"><ele>242.0</ele><time>2026-04-04T10:50:50Z</time></trkpt><trkpt lat="43.28721596386988" lon="11.232948704150216"><ele>242.0</ele><time>2026-04-04T10:50:51Z</time></trkpt><trkpt lat="43.287129173798675" lon="11.23308555482024"><ele>242.0</ele><time>2026-04-04T10:50:52Z</time></trkpt><trkpt lat="43.2870750033572" lon="11.233241269114384"><ele>242.0</ele><time>2026-04-04T10:50:53Z</time></trkpt><trkpt lat="43.28703036434357" lon="11.233374962350583"><ele>242.00000000000003</ele><time>2026-04-04T10:50:54Z</time></trkpt><trkpt lat="43.28697978306875" lon="11.233478386831129"><ele>242.0</ele><time>2026-04-04T10:50:55Z</time></trkpt><trkpt lat="43.28694434892372" lon="11.233570105177755"><ele>242.0</ele><time>2026-04-04T10:50:56Z</time></trkpt><trkpt lat="43.2868919413059" lon="11.233668154056833"><ele>242.0</ele><time>2026-04-04T10:50:57Z</time></trkpt><trkpt lat="43.28683941885771" lon="11.233761130784309"><ele>242.00000000000003</ele><time>2026-04-04T10:50:58Z</time></trkpt><trkpt lat="43.28680732586098" lon="11.233850265107515"><ele>242.0</ele><time>2026-04-04T10:50:59Z</time></trkpt><trkpt lat="43.28673527904905" lon="11.233921130414366"><ele>242.0</ele><time>2026-04-04T10:51:01Z</time></trkpt><trkpt lat="43.286653325315" lon="11.233787913454266"><ele>242.0</ele><time>2026-04-04T10:51:02Z</time></trkpt><trkpt lat="43.28656834492896" lon="11.233750024251487"><ele>242.0</ele><time>2026-04-04T10:51:03Z</time></trkpt><trkpt lat="43.28648852830445" lon="11.233726580993036"><ele>242.0</ele><time>2026-04-04T10:51:04Z</time></trkpt><trkpt lat="43.286421831092134" lon="11.23371970515573"><ele>242.0</ele><time>2026-04-04T10:51:09Z</time></trkpt><trkpt lat="43.28631156546652" lon="11.233733058919132"><ele>241.50000000000003</ele><time>2026-04-04T10:51:11Z</time></trkpt><trkpt lat="43.28624379863543" lon="11.233690757604766"><ele>241.0</ele><time>2026-04-04T10:51:12Z</time></trkpt><trkpt lat="43.286159680019495" lon="11.233651039674466"><ele>240.5</ele><time>2026-04-04T10:51:13Z</time></trkpt><trkpt lat="43.286067811938416" lon="11.233633279296107"><ele>240.0</ele><time>2026-04-04T10:51:14Z</time></trkpt><trkpt lat="43.28599050990696" lon="11.23364432602078"><ele>239.50000000000003</ele><time>2026-04-04T10:51:15Z</time></trkpt><trkpt lat="43.285919823377085" lon="11.233639501051789"><ele>239.0</ele><time>2026-04-04T10:51:16Z</time></trkpt><trkpt lat="43.2857832736239" lon="11.233612581211199"><ele>239.0</ele><time>2026-04-04T10:51:18Z</time></trkpt><trkpt lat="43.285667792019325" lon="11.233583592536206"><ele>238.99999999999997</ele><time>2026-04-04T10:51:19Z</time></trkpt><trkpt lat="43.285560916876854" lon="11.233560987797592"><ele>238.99999999999997</ele><time>2026-04-04T10:51:20Z</time></trkpt><trkpt lat="43.28546821299666" lon="11.23357429119622"><ele>239.0</ele><time>2026-04-04T10:51:21Z</time></trkpt><trkpt lat="43.28539105625866" lon="11.233566592284683"><ele>239.0</ele><time>2026-04-04T10:51:22Z</time></trkpt><trkpt lat="43.28531990120368" lon="11.233676269572348"><ele>239.33333333333334</ele><time>2026-04-04T10:51:23Z</time></trkpt><trkpt lat="43.28524022771368" lon="11.233792440240146"><ele>239.66666666666669</ele><time>2026-04-04T10:51:24Z</time></trkpt><trkpt lat="43.285088910130526" lon="11.234062820186766"><ele>240.0</ele><time>2026-04-04T10:51:26Z</time></trkpt><trkpt lat="43.28501983347747" lon="11.234177896458526"><ele>237.83333333333334</ele><time>2026-04-04T10:51:27Z</time></trkpt><trkpt lat="43.28495141010142" lon="11.234280800514279"><ele>235.66666666666669</ele><time>2026-04-04T10:51:28Z</time></trkpt><trkpt lat="43.28489182742668" lon="11.234362610540265"><ele>233.5</ele><time>2026-04-04T10:51:29Z</time></trkpt><trkpt lat="43.28482389152798" lon="11.234450299395279"><ele>231.33333333333334</ele><time>2026-04-04T10:51:30Z</time></trkpt><trkpt lat="43.28475580693625" lon="11.234528846102933"><ele>229.16666666666669</ele><time>2026-04-04T10:51:31Z</time></trkpt><trkpt lat="43.2846927046639" lon="11.234571367946904"><ele>227.0</ele><time>2026-04-04T10:51:32Z</time></trkpt><trkpt lat="43.28460468506604" lon="11.234607679988972"><ele>226.8</ele><time>2026-04-04T10:51:33Z</time></trkpt><trkpt lat="43.28453092931217" lon="11.234614528325404"><ele>226.6</ele><time>2026-04-04T10:51:34Z</time></trkpt><trkpt lat="43.284449520136405" lon="11.234584813163895"><ele>226.40000000000003</ele><time>2026-04-04T10:51:35Z</time></trkpt><trkpt lat="43.284330468771614" lon="11.234533091933228"><ele>226.20000000000002</ele><time>2026-04-04T10:51:36Z</time></trkpt><trkpt lat="43.284228557360954" lon="11.234520844035368"><ele>226.0</ele><time>2026-04-04T10:51:37Z</time></trkpt><trkpt lat="43.284152311397015" lon="11.234500693908076"><ele>226.0</ele><time>2026-04-04T10:51:38Z</time></trkpt><trkpt lat="43.28404401384685" lon="11.234537965912953"><ele>226.00000000000003</ele><time>2026-04-04T10:51:40Z</time></trkpt><trkpt lat="43.28398257531857" lon="11.23456546872203"><ele>226.00000000000003</ele><time>2026-04-04T10:51:42Z</time></trkpt><trkpt lat="43.28390550028515" lon="11.234740909201259"><ele>226.0</ele><time>2026-04-04T10:51:44Z</time></trkpt><trkpt lat="43.28387327382408" lon="11.234835600479073"><ele>226.0</ele><time>2026-04-04T10:51:45Z</time></trkpt><trkpt lat="43.283798242711484" lon="11.234886042307028"><ele>223.0</ele><time>2026-04-04T10:51:47Z</time></trkpt><trkpt lat="43.28365803456132" lon="11.234874308447568"><ele>220.0</ele><time>2026-04-04T10:51:49Z</time></trkpt><trkpt lat="43.28353622068623" lon="11.234876035856798"><ele>217.0</ele><time>2026-04-04T10:51:50Z</time></trkpt><trkpt lat="43.283408330074316" lon="11.234905707720124"><ele>214.0</ele><time>2026-04-04T10:51:51Z</time></trkpt><trkpt lat="43.28330428836224" lon="11.234964286937974"><ele>214.0</ele><time>2026-04-04T10:51:52Z</time></trkpt><trkpt lat="43.28318992958084" lon="11.235039490739462"><ele>214.0</ele><time>2026-04-04T10:51:53Z</time></trkpt><trkpt lat="43.28306907810883" lon="11.235127415406074"><ele>214.0</ele><time>2026-04-04T10:51:54Z</time></trkpt><trkpt lat="43.28295666935757" lon="11.235217699316443"><ele>214.0</ele><time>2026-04-04T10:51:55Z</time></trkpt><trkpt lat="43.282849004337855" lon="11.235317998351537"><ele>213.6</ele><time>2026-04-04T10:51:56Z</time></trkpt><trkpt lat="43.28275815018153" lon="11.235401332069998"><ele>213.2</ele><time>2026-04-04T10:51:57Z</time></trkpt><trkpt lat="43.28266982194018" lon="11.235477954916531"><ele>212.79999999999998</ele><time>2026-04-04T10:51:58Z</time></trkpt><trkpt lat="43.2825887691889" lon="11.235549507471143"><ele>212.39999999999998</ele><time>2026-04-04T10:51:59Z</time></trkpt><trkpt lat="43.28251563430759" lon="11.235618767754898"><ele>212.0</ele><time>2026-04-04T10:52:00Z</time></trkpt><trkpt lat="43.282463807131016" lon="11.23567096553661"><ele>212.0</ele><time>2026-04-04T10:52:01Z</time></trkpt><trkpt lat="43.28240448859488" lon="11.235736211878137"><ele>212.0</ele><time>2026-04-04T10:52:14Z</time></trkpt><trkpt lat="43.28233424085244" lon="11.23555819253377"><ele>212.0</ele><time>2026-04-04T10:52:18Z</time></trkpt><trkpt lat="43.2822889859209" lon="11.235445368378711"><ele>212.0</ele><time>2026-04-04T10:52:19Z</time></trkpt><trkpt lat="43.282250260311486" lon="11.235308790765156"><ele>212.0</ele><time>2026-04-04T10:52:20Z</time></trkpt><trkpt lat="43.28220657080436" lon="11.235150595131078"><ele>212.75</ele><time>2026-04-04T10:52:21Z</time></trkpt><trkpt lat="43.282164900525096" lon="11.235002746761277"><ele>213.5</ele><time>2026-04-04T10:52:22Z</time></trkpt><trkpt lat="43.28211685376016" lon="11.234850160954394"><ele>214.25</ele><time>2026-04-04T10:52:23Z</time></trkpt><trkpt lat="43.28207764163368" lon="11.234660835871635"><ele>215.0</ele><time>2026-04-04T10:52:24Z</time></trkpt><trkpt lat="43.2820210540356" lon="11.234464639670255"><ele>215.5</ele><time>2026-04-04T10:52:25Z</time></trkpt><trkpt lat="43.28196511819687" lon="11.234305920373641"><ele>216.0</ele><time>2026-04-04T10:52:26Z</time></trkpt><trkpt lat="43.28190041507131" lon="11.234159975947232"><ele>216.5</ele><time>2026-04-04T10:52:27Z</time></trkpt><trkpt lat="43.2818095451666" lon="11.234026421291729"><ele>217.0</ele><time>2026-04-04T10:52:28Z</time></trkpt><trkpt lat="43.281694203814155" lon="11.233918744604011"><ele>217.25</ele><time>2026-04-04T10:52:29Z</time></trkpt><trkpt lat="43.28157064661166" lon="11.233842100794478"><ele>217.5</ele><time>2026-04-04T10:52:30Z</time></trkpt><trkpt lat="43.28143982958192" lon="11.233778864531242"><ele>217.75</ele><time>2026-04-04T10:52:31Z</time></trkpt><trkpt lat="43.28130050096714" lon="11.233725435344471"><ele>218.0</ele><time>2026-04-04T10:52:32Z</time></trkpt><trkpt lat="43.281156370993166" lon="11.233681529807862"><ele>217.0</ele><time>2026-04-04T10:52:33Z</time></trkpt><trkpt lat="43.28100133172613" lon="11.233649518566454"><ele>216.0</ele><time>2026-04-04T10:52:34Z</time></trkpt><trkpt lat="43.280840966796724" lon="11.233642893747424"><ele>215.0</ele><time>2026-04-04T10:52:35Z</time></trkpt><trkpt lat="43.28066270144834" lon="11.23364380230113"><ele>216.0</ele><time>2026-04-04T10:52:36Z</time></trkpt><trkpt lat="43.28046783611727" lon="11.233630766423701"><ele>217.0</ele><time>2026-04-04T10:52:37Z</time></trkpt><trkpt lat="43.280280782465375" lon="11.233596133608138"><ele>218.0</ele><time>2026-04-04T10:52:38Z</time></trkpt><trkpt lat="43.280102880572805" lon="11.233583955391241"><ele>218.0</ele><time>2026-04-04T10:52:39Z</time></trkpt><trkpt lat="43.27993403589608" lon="11.233572397365803"><ele>218.0</ele><time>2026-04-04T10:52:40Z</time></trkpt><trkpt lat="43.27976925281817" lon="11.233560788547285"><ele>218.0</ele><time>2026-04-04T10:52:41Z</time></trkpt><trkpt lat="43.2796052004525" lon="11.23354931444821"><ele>220.0</ele><time>2026-04-04T10:52:42Z</time></trkpt><trkpt lat="43.27944467420147" lon="11.233537836119158"><ele>222.0</ele><time>2026-04-04T10:52:43Z</time></trkpt><trkpt lat="43.27928371372021" lon="11.233525803740088"><ele>224.0</ele><time>2026-04-04T10:52:44Z</time></trkpt><trkpt lat="43.27912141026611" lon="11.233512896368554"><ele>224.0</ele><time>2026-04-04T10:52:45Z</time></trkpt><trkpt lat="43.27896481534928" lon="11.233502523888387"><ele>224.0</ele><time>2026-04-04T10:52:46Z</time></trkpt><trkpt lat="43.27880932659418" lon="11.233493117858224"><ele>224.0</ele><time>2026-04-04T10:52:47Z</time></trkpt><trkpt lat="43.278664097452804" lon="11.233483915404397"><ele>224.5</ele><time>2026-04-04T10:52:48Z</time></trkpt><trkpt lat="43.278535346528166" lon="11.233474456545855"><ele>225.0</ele><time>2026-04-04T10:52:49Z</time></trkpt><trkpt lat="43.27840274679543" lon="11.233460487999894"><ele>225.5</ele><time>2026-04-04T10:52:50Z</time></trkpt><trkpt lat="43.27827701986406" lon="11.23343245674043"><ele>226.0</ele><time>2026-04-04T10:52:51Z</time></trkpt><trkpt lat="43.27816460929862" lon="11.233382211313874"><ele>227.75</ele><time>2026-04-04T10:52:52Z</time></trkpt><trkpt lat="43.27805635437097" lon="11.233311626721784"><ele>229.5</ele><time>2026-04-04T10:52:53Z</time></trkpt><trkpt lat="43.27797569879234" lon="11.233207985223757"><ele>231.25</ele><time>2026-04-04T10:52:54Z</time></trkpt><trkpt lat="43.277888231570564" lon="11.23310788776486"><ele>233.0</ele><time>2026-04-04T10:52:55Z</time></trkpt><trkpt lat="43.27785063797992" lon="11.232962718794035"><ele>234.5</ele><time>2026-04-04T10:52:56Z</time></trkpt><trkpt lat="43.27779368224415" lon="11.232808989531785"><ele>236.0</ele><time>2026-04-04T10:52:57Z</time></trkpt><trkpt lat="43.277773788522936" lon="11.232622505692863"><ele>237.5</ele><time>2026-04-04T10:52:58Z</time></trkpt><trkpt lat="43.2777605033222" lon="11.232434131997282"><ele>239.0</ele><time>2026-04-04T10:52:59Z</time></trkpt><trkpt lat="43.27774937172439" lon="11.232259172781072"><ele>240.0</ele><time>2026-04-04T10:53:00Z</time></trkpt><trkpt lat="43.27773323261074" lon="11.23208851008254"><ele>241.0</ele><time>2026-04-04T10:53:01Z</time></trkpt><trkpt lat="43.27771452948651" lon="11.231922321508058"><ele>242.0</ele><time>2026-04-04T10:53:02Z</time></trkpt><trkpt lat="43.27769336528461" lon="11.231750409497915"><ele>243.0</ele><time>2026-04-04T10:53:03Z</time></trkpt><trkpt lat="43.27767788112854" lon="11.231576978713314"><ele>243.0</ele><time>2026-04-04T10:53:04Z</time></trkpt><trkpt lat="43.27765558958822" lon="11.231393705235377"><ele>243.0</ele><time>2026-04-04T10:53:05Z</time></trkpt><trkpt lat="43.27763648536076" lon="11.231205552074924"><ele>243.0</ele><time>2026-04-04T10:53:06Z</time></trkpt><trkpt lat="43.277618986172236" lon="11.231013580481278"><ele>243.0</ele><time>2026-04-04T10:53:07Z</time></trkpt><trkpt lat="43.27760428316602" lon="11.23082299328669"><ele>243.0</ele><time>2026-04-04T10:53:08Z</time></trkpt><trkpt lat="43.27758891193816" lon="11.23064471737672"><ele>243.0</ele><time>2026-04-04T10:53:09Z</time></trkpt><trkpt lat="43.27758490840487" lon="11.230461458339434"><ele>243.0</ele><time>2026-04-04T10:53:10Z</time></trkpt><trkpt lat="43.27759451150069" lon="11.230278787680756"><ele>243.0</ele><time>2026-04-04T10:53:11Z</time></trkpt><trkpt lat="43.27761256622579" lon="11.230096499780142"><ele>243.5</ele><time>2026-04-04T10:53:12Z</time></trkpt><trkpt lat="43.277635123478696" lon="11.22991888862864"><ele>244.0</ele><time>2026-04-04T10:53:13Z</time></trkpt><trkpt lat="43.27766148622864" lon="11.22974363509887"><ele>244.5</ele><time>2026-04-04T10:53:14Z</time></trkpt><trkpt lat="43.277681814774226" lon="11.229581555097292"><ele>245.0</ele><time>2026-04-04T10:53:15Z</time></trkpt><trkpt lat="43.27769563862984" lon="11.229441911420162"><ele>246.00000000000003</ele><time>2026-04-04T10:53:16Z</time></trkpt><trkpt lat="43.27771083499919" lon="11.229308225359652"><ele>247.0</ele><time>2026-04-04T10:53:17Z</time></trkpt><trkpt lat="43.27772282955516" lon="11.229190405793188"><ele>248.0</ele><time>2026-04-04T10:53:18Z</time></trkpt><trkpt lat="43.27772847542602" lon="11.229075149833513"><ele>249.0</ele><time>2026-04-04T10:53:19Z</time></trkpt><trkpt lat="43.27773500809655" lon="11.228963742018239"><ele>250.00000000000003</ele><time>2026-04-04T10:53:20Z</time></trkpt><trkpt lat="43.27773978424723" lon="11.228853363084339"><ele>251.0</ele><time>2026-04-04T10:53:21Z</time></trkpt><trkpt lat="43.27774079499002" lon="11.228759618650804"><ele>251.33333333333334</ele><time>2026-04-04T10:53:22Z</time></trkpt><trkpt lat="43.27773705757743" lon="11.228592551786988"><ele>251.66666666666669</ele><time>2026-04-04T10:53:24Z</time></trkpt><trkpt lat="43.27774191485969" lon="11.228504662994041"><ele>252.0</ele><time>2026-04-04T10:53:25Z</time></trkpt><trkpt lat="43.27771315295813" lon="11.228423904795772"><ele>252.33333333333331</ele><time>2026-04-04T10:53:26Z</time></trkpt><trkpt lat="43.27766697095444" lon="11.228298810876854"><ele>252.66666666666666</ele><time>2026-04-04T10:53:28Z</time></trkpt><trkpt lat="43.277580298314284" lon="11.228320710552977"><ele>253.0</ele><time>2026-04-04T10:53:29Z</time></trkpt><trkpt lat="43.27749480760837" lon="11.228314280129396"><ele>253.0</ele><time>2026-04-04T10:53:30Z</time></trkpt><trkpt lat="43.27741299679533" lon="11.228320344126493"><ele>253.0</ele><time>2026-04-04T10:53:31Z</time></trkpt><trkpt lat="43.27732474605697" lon="11.22833069647983"><ele>253.0</ele><time>2026-04-04T10:53:32Z</time></trkpt><trkpt lat="43.27725872597024" lon="11.22830954016929"><ele>253.0</ele><time>2026-04-04T10:53:33Z</time></trkpt><trkpt lat="43.277216969669894" lon="11.228175304912714"><ele>253.0</ele><time>2026-04-04T10:53:34Z</time></trkpt><trkpt lat="43.27720225273745" lon="11.228027319547737"><ele>254.0</ele><time>2026-04-04T10:53:35Z</time></trkpt><trkpt lat="43.27714230422372" lon="11.227894851358034"><ele>255.0</ele><time>2026-04-04T10:53:36Z</time></trkpt><trkpt lat="43.27709788600917" lon="11.22774971566282"><ele>256.0</ele><time>2026-04-04T10:53:37Z</time></trkpt><trkpt lat="43.27704486297715" lon="11.227597928801277"><ele>257.0</ele><time>2026-04-04T10:53:38Z</time></trkpt><trkpt lat="43.276992117834816" lon="11.227453167465502"><ele>257.0</ele><time>2026-04-04T10:53:39Z</time></trkpt><trkpt lat="43.276945893946696" lon="11.227314602625755"><ele>257.0</ele><time>2026-04-04T10:53:40Z</time></trkpt><trkpt lat="43.27690220782965" lon="11.227174640703138"><ele>257.0</ele><time>2026-04-04T10:53:41Z</time></trkpt><trkpt lat="43.276853859231956" lon="11.227016708709574"><ele>257.0</ele><time>2026-04-04T10:53:42Z</time></trkpt><trkpt lat="43.27679581265187" lon="11.226844612849437"><ele>258.33333333333337</ele><time>2026-04-04T10:53:43Z</time></trkpt><trkpt lat="43.276728112891746" lon="11.226647811331366"><ele>259.6666666666667</ele><time>2026-04-04T10:53:44Z</time></trkpt><trkpt lat="43.276658992617904" lon="11.226442525026913"><ele>261.0</ele><time>2026-04-04T10:53:45Z</time></trkpt><trkpt lat="43.276594221387064" lon="11.226250392240765"><ele>262.6666666666667</ele><time>2026-04-04T10:53:46Z</time></trkpt><trkpt lat="43.276529028632964" lon="11.226053036182796"><ele>264.33333333333337</ele><time>2026-04-04T10:53:47Z</time></trkpt><trkpt lat="43.276466371859186" lon="11.225844491627203"><ele>266.0</ele><time>2026-04-04T10:53:48Z</time></trkpt><trkpt lat="43.276434657717004" lon="11.225599484719316"><ele>266.33333333333337</ele><time>2026-04-04T10:53:49Z</time></trkpt><trkpt lat="43.27638452730163" lon="11.225353277156112"><ele>266.6666666666667</ele><time>2026-04-04T10:53:50Z</time></trkpt><trkpt lat="43.27635356821972" lon="11.22509506688291"><ele>267.0</ele><time>2026-04-04T10:53:51Z</time></trkpt><trkpt lat="43.27632277673745" lon="11.224845645999888"><ele>267.6666666666667</ele><time>2026-04-04T10:53:52Z</time></trkpt><trkpt lat="43.27629201010334" lon="11.224610762142314"><ele>268.33333333333337</ele><time>2026-04-04T10:53:53Z</time></trkpt><trkpt lat="43.27626088121699" lon="11.224387605854867"><ele>269.0</ele><time>2026-04-04T10:53:54Z</time></trkpt><trkpt lat="43.2762299448842" lon="11.224159321556462"><ele>270.0</ele><time>2026-04-04T10:53:55Z</time></trkpt><trkpt lat="43.27619807492482" lon="11.22392916395638"><ele>271.0</ele><time>2026-04-04T10:53:56Z</time></trkpt><trkpt lat="43.27616907033994" lon="11.223711996318308"><ele>272.0</ele><time>2026-04-04T10:53:57Z</time></trkpt><trkpt lat="43.27615447285317" lon="11.223480151197979"><ele>272.0</ele><time>2026-04-04T10:53:58Z</time></trkpt><trkpt lat="43.27612993229288" lon="11.22327749828895"><ele>272.0</ele><time>2026-04-04T10:53:59Z</time></trkpt><trkpt lat="43.276098247361254" lon="11.223083728015908"><ele>272.0</ele><time>2026-04-04T10:54:00Z</time></trkpt><trkpt lat="43.27608348056692" lon="11.22288353283155"><ele>272.0</ele><time>2026-04-04T10:54:01Z</time></trkpt><trkpt lat="43.276076706811885" lon="11.222686586845597"><ele>271.6666666666667</ele><time>2026-04-04T10:54:02Z</time></trkpt><trkpt lat="43.27608340762034" lon="11.222484667424643"><ele>271.3333333333333</ele><time>2026-04-04T10:54:03Z</time></trkpt><trkpt lat="43.276094080369894" lon="11.222269325704824"><ele>271.0</ele><time>2026-04-04T10:54:04Z</time></trkpt><trkpt lat="43.276112078956615" lon="11.222050081641962"><ele>270.0</ele><time>2026-04-04T10:54:05Z</time></trkpt><trkpt lat="43.27612931816603" lon="11.221835341416437"><ele>269.0</ele><time>2026-04-04T10:54:06Z</time></trkpt><trkpt lat="43.27614977298634" lon="11.221633418740684"><ele>268.0</ele><time>2026-04-04T10:54:07Z</time></trkpt><trkpt lat="43.27620600456172" lon="11.221449773203283"><ele>267.75</ele><time>2026-04-04T10:54:08Z</time></trkpt><trkpt lat="43.27624837022116" lon="11.221266643981368"><ele>267.5</ele><time>2026-04-04T10:54:09Z</time></trkpt><trkpt lat="43.27631416142494" lon="11.221095967715849"><ele>267.25</ele><time>2026-04-04T10:54:10Z</time></trkpt><trkpt lat="43.27636682113502" lon="11.220937458712491"><ele>267.0</ele><time>2026-04-04T10:54:11Z</time></trkpt><trkpt lat="43.27639644200194" lon="11.2207852924794"><ele>267.4</ele><time>2026-04-04T10:54:12Z</time></trkpt><trkpt lat="43.27640451946415" lon="11.22064350702185"><ele>267.79999999999995</ele><time>2026-04-04T10:54:13Z</time></trkpt><trkpt lat="43.27642565827435" lon="11.22052311865739"><ele>268.2</ele><time>2026-04-04T10:54:14Z</time></trkpt><trkpt lat="43.276428051260645" lon="11.220407511277847"><ele>268.59999999999997</ele><time>2026-04-04T10:54:15Z</time></trkpt><trkpt lat="43.276427667609745" lon="11.220288025722773"><ele>269.0</ele><time>2026-04-04T10:54:16Z</time></trkpt><trkpt lat="43.27642004529353" lon="11.22015623976643"><ele>269.0</ele><time>2026-04-04T10:54:17Z</time></trkpt><trkpt lat="43.276296734929666" lon="11.220025961559655"><ele>269.0</ele><time>2026-04-04T10:54:18Z</time></trkpt><trkpt lat="43.27625798293868" lon="11.21986887839879"><ele>269.0</ele><time>2026-04-04T10:54:19Z</time></trkpt><trkpt lat="43.276228423102125" lon="11.219702418717503"><ele>269.0</ele><time>2026-04-04T10:54:20Z</time></trkpt><trkpt lat="43.27621458258045" lon="11.219532612138694"><ele>270.0</ele><time>2026-04-04T10:54:21Z</time></trkpt><trkpt lat="43.27620764174958" lon="11.219353324350587"><ele>271.0</ele><time>2026-04-04T10:54:22Z</time></trkpt><trkpt lat="43.27624057139477" lon="11.219184335570535"><ele>272.0</ele><time>2026-04-04T10:54:23Z</time></trkpt><trkpt lat="43.276255282753866" lon="11.21905491279059"><ele>273.0</ele><time>2026-04-04T10:54:24Z</time></trkpt><trkpt lat="43.276283838190224" lon="11.218960057117297"><ele>274.0</ele><time>2026-04-04T10:54:25Z</time></trkpt><trkpt lat="43.27634672730358" lon="11.21885165455485"><ele>273.8333333333333</ele><time>2026-04-04T10:54:27Z</time></trkpt><trkpt lat="43.276343585625305" lon="11.218701437933662"><ele>273.66666666666663</ele><time>2026-04-04T10:58:07Z</time></trkpt><trkpt lat="43.27635843656915" lon="11.218615416981164"><ele>273.5</ele><time>2026-04-04T10:58:08Z</time></trkpt><trkpt lat="43.27638275860267" lon="11.218533110247206"><ele>273.3333333333333</ele><time>2026-04-04T10:58:09Z</time></trkpt><trkpt lat="43.27642468394499" lon="11.218430101594409"><ele>273.1666666666667</ele><time>2026-04-04T10:58:10Z</time></trkpt><trkpt lat="43.27645658791161" lon="11.21830753971155"><ele>273.0</ele><time>2026-04-04T10:58:11Z</time></trkpt><trkpt lat="43.27648667232218" lon="11.218191786033401"><ele>275.0</ele><time>2026-04-04T10:58:12Z</time></trkpt><trkpt lat="43.27652287352888" lon="11.218056868911907"><ele>277.0</ele><time>2026-04-04T10:58:13Z</time></trkpt><trkpt lat="43.27656397644141" lon="11.217915520897371"><ele>279.0</ele><time>2026-04-04T10:58:14Z</time></trkpt><trkpt lat="43.27659502316953" lon="11.217779912398886"><ele>281.0</ele><time>2026-04-04T10:58:15Z</time></trkpt><trkpt lat="43.2766556605108" lon="11.217644270476164"><ele>283.0</ele><time>2026-04-04T10:58:16Z</time></trkpt><trkpt lat="43.27670984495703" lon="11.217504706135054"><ele>283.0</ele><time>2026-04-04T10:58:17Z</time></trkpt><trkpt lat="43.27676818634563" lon="11.217337680721661"><ele>283.0</ele><time>2026-04-04T10:58:18Z</time></trkpt><trkpt lat="43.276835198215394" lon="11.217200100880738"><ele>283.0</ele><time>2026-04-04T10:58:19Z</time></trkpt><trkpt lat="43.27690579337389" lon="11.217054304748899"><ele>283.0</ele><time>2026-04-04T10:58:20Z</time></trkpt><trkpt lat="43.27697736743764" lon="11.216891830892378"><ele>287.25</ele><time>2026-04-04T10:58:21Z</time></trkpt><trkpt lat="43.27705256642239" lon="11.216731501783329"><ele>291.5</ele><time>2026-04-04T10:58:22Z</time></trkpt><trkpt lat="43.27712243364291" lon="11.216564835614326"><ele>295.75</ele><time>2026-04-04T10:58:23Z</time></trkpt><trkpt lat="43.27716844112345" lon="11.216403941329485"><ele>300.0</ele><time>2026-04-04T10:58:24Z</time></trkpt><trkpt lat="43.27718795258742" lon="11.216258180008593"><ele>299.0</ele><time>2026-04-04T10:58:25Z</time></trkpt><trkpt lat="43.27720211538134" lon="11.21613011538339"><ele>298.0</ele><time>2026-04-04T10:58:26Z</time></trkpt><trkpt lat="43.277233453891974" lon="11.21601567106597"><ele>297.0</ele><time>2026-04-04T10:58:27Z</time></trkpt><trkpt lat="43.27729143662541" lon="11.215912759473204"><ele>296.0</ele><time>2026-04-04T10:58:27.999Z</time></trkpt><trkpt lat="43.2773861239901" lon="11.215832155856866"><ele>295.0</ele><time>2026-04-04T10:58:28.999Z</time></trkpt><trkpt lat="43.27748427608331" lon="11.215789788705337"><ele>295.0</ele><time>2026-04-04T10:58:29.999Z</time></trkpt><trkpt lat="43.27759125872752" lon="11.215769036787757"><ele>295.0</ele><time>2026-04-04T10:58:30.999Z</time></trkpt><trkpt lat="43.27771018097798" lon="11.215748028991005"><ele>295.0</ele><time>2026-04-04T10:58:31.999Z</time></trkpt><trkpt lat="43.277835633207886" lon="11.215709633520506"><ele>295.0</ele><time>2026-04-04T10:58:32.999Z</time></trkpt><trkpt lat="43.2779534809143" lon="11.215640405949433"><ele>297.0</ele><time>2026-04-04T10:58:33.999Z</time></trkpt><trkpt lat="43.27806140872873" lon="11.215537565637419"><ele>299.0</ele><time>2026-04-04T10:58:34.999Z</time></trkpt><trkpt lat="43.27816927161221" lon="11.215427789549192"><ele>301.0</ele><time>2026-04-04T10:58:35.999Z</time></trkpt><trkpt lat="43.278274765981095" lon="11.215299653124855"><ele>303.0</ele><time>2026-04-04T10:58:36.999Z</time></trkpt><trkpt lat="43.27838146148667" lon="11.215163780017324"><ele>303.0</ele><time>2026-04-04T10:58:37.999Z</time></trkpt><trkpt lat="43.27848459423141" lon="11.215024090504736"><ele>303.0</ele><time>2026-04-04T10:58:38.999Z</time></trkpt><trkpt lat="43.278574194781676" lon="11.214881004240194"><ele>303.0</ele><time>2026-04-04T10:58:39.999Z</time></trkpt><trkpt lat="43.2786352775884" lon="11.21476109835764"><ele>303.0</ele><time>2026-04-04T10:58:40.999Z</time></trkpt><trkpt lat="43.27866265496376" lon="11.21463932166633"><ele>305.2</ele><time>2026-04-04T10:58:41.999Z</time></trkpt><trkpt lat="43.278645531717004" lon="11.21453241958162"><ele>307.4</ele><time>2026-04-04T10:58:42.999Z</time></trkpt><trkpt lat="43.27860177747659" lon="11.214437845803566"><ele>309.59999999999997</ele><time>2026-04-04T10:58:43.999Z</time></trkpt><trkpt lat="43.2785056896327" lon="11.214400166185467"><ele>311.8</ele><time>2026-04-04T10:58:44.999Z</time></trkpt><trkpt lat="43.27839949664313" lon="11.2144518386149"><ele>314.0</ele><time>2026-04-04T10:58:45.999Z</time></trkpt><trkpt lat="43.27827807283883" lon="11.214485594151178"><ele>314.0</ele><time>2026-04-04T10:58:46.999Z</time></trkpt><trkpt lat="43.27813431160252" lon="11.214550256598848"><ele>314.0</ele><time>2026-04-04T10:58:47.999Z</time></trkpt><trkpt lat="43.27797126743741" lon="11.214623484398748"><ele>314.0</ele><time>2026-04-04T10:58:48.999Z</time></trkpt><trkpt lat="43.27780942556339" lon="11.21469879947014"><ele>314.0</ele><time>2026-04-04T10:58:49.999Z</time></trkpt><trkpt lat="43.277655417385766" lon="11.214775586867324"><ele>314.0</ele><time>2026-04-04T10:58:50.999Z</time></trkpt><trkpt lat="43.27748626948587" lon="11.214864192087093"><ele>314.0</ele><time>2026-04-04T10:58:51.999Z</time></trkpt><trkpt lat="43.27730318032122" lon="11.214960331741644"><ele>320.6666666666667</ele><time>2026-04-04T10:58:52.999Z</time></trkpt><trkpt lat="43.277106944259195" lon="11.215065149102815"><ele>327.3333333333333</ele><time>2026-04-04T10:58:53.999Z</time></trkpt><trkpt lat="43.27692537237438" lon="11.215158627876871"><ele>334.0</ele><time>2026-04-04T10:58:54.999Z</time></trkpt><trkpt lat="43.276771301875236" lon="11.215254079814665"><ele>334.0</ele><time>2026-04-04T10:58:55.999Z</time></trkpt><trkpt lat="43.27666045542863" lon="11.215399144311382"><ele>334.0</ele><time>2026-04-04T10:58:56.999Z</time></trkpt><trkpt lat="43.27656214989647" lon="11.215517158292181"><ele>334.0</ele><time>2026-04-04T10:58:57.999Z</time></trkpt><trkpt lat="43.27644703732602" lon="11.215656727710678"><ele>334.0</ele><time>2026-04-04T10:58:58.999Z</time></trkpt><trkpt lat="43.27635154710761" lon="11.215778574313413"><ele>333.0</ele><time>2026-04-04T10:58:59.999Z</time></trkpt><trkpt lat="43.2762682058958" lon="11.215878078899845"><ele>332.0</ele><time>2026-04-04T10:59:00.999Z</time></trkpt><trkpt lat="43.27619250213918" lon="11.215963059161654"><ele>331.0</ele><time>2026-04-04T10:59:01.999Z</time></trkpt><trkpt lat="43.27612494500404" lon="11.216031785093428"><ele>330.0</ele><time>2026-04-04T10:59:02.999Z</time></trkpt><trkpt lat="43.27605844783082" lon="11.216074832952888"><ele>329.0</ele><time>2026-04-04T10:59:04Z</time></trkpt><trkpt lat="43.27597076156867" lon="11.216025212616511"><ele>329.0</ele><time>2026-04-04T10:59:06Z</time></trkpt><trkpt lat="43.27599175642232" lon="11.215862951421007"><ele>329.0</ele><time>2026-04-04T10:59:08Z</time></trkpt><trkpt lat="43.27607740154894" lon="11.215769117731663"><ele>329.0</ele><time>2026-04-04T10:59:09Z</time></trkpt><trkpt lat="43.27615989174444" lon="11.21563635428749"><ele>329.0</ele><time>2026-04-04T10:59:10Z</time></trkpt><trkpt lat="43.27626053714827" lon="11.215477572079688"><ele>330.6666666666667</ele><time>2026-04-04T10:59:11Z</time></trkpt><trkpt lat="43.27636609550166" lon="11.215293928755989"><ele>332.3333333333333</ele><time>2026-04-04T10:59:12Z</time></trkpt><trkpt lat="43.27649130542778" lon="11.215112066637614"><ele>334.0</ele><time>2026-04-04T10:59:13Z</time></trkpt><trkpt lat="43.276624074539974" lon="11.214926563326244"><ele>339.0</ele><time>2026-04-04T10:59:14Z</time></trkpt><trkpt lat="43.276717599264906" lon="11.214767977580337"><ele>344.0</ele><time>2026-04-04T10:59:15Z</time></trkpt><trkpt lat="43.276806659660046" lon="11.214571932328349"><ele>349.0</ele><time>2026-04-04T10:59:16Z</time></trkpt><trkpt lat="43.276891963936414" lon="11.214389879404099"><ele>349.0</ele><time>2026-04-04T10:59:17Z</time></trkpt><trkpt lat="43.276979791111934" lon="11.214195204511885"><ele>349.0</ele><time>2026-04-04T10:59:18Z</time></trkpt><trkpt lat="43.27706462725747" lon="11.213994025151711"><ele>349.0</ele><time>2026-04-04T10:59:19Z</time></trkpt><trkpt lat="43.27714754199206" lon="11.213837534897092"><ele>349.5</ele><time>2026-04-04T10:59:20Z</time></trkpt><trkpt lat="43.277222385010745" lon="11.213666841802102"><ele>350.0</ele><time>2026-04-04T10:59:21Z</time></trkpt><trkpt lat="43.27729330712549" lon="11.213481717224225"><ele>350.5</ele><time>2026-04-04T10:59:22Z</time></trkpt><trkpt lat="43.277345311975765" lon="11.213293841613945"><ele>351.0</ele><time>2026-04-04T10:59:23Z</time></trkpt><trkpt lat="43.277391576210036" lon="11.213106475957073"><ele>351.0</ele><time>2026-04-04T10:59:24Z</time></trkpt><trkpt lat="43.27743380601703" lon="11.212903563294017"><ele>351.0</ele><time>2026-04-04T10:59:25Z</time></trkpt><trkpt lat="43.27747405140374" lon="11.212700269521667"><ele>351.0</ele><time>2026-04-04T10:59:26Z</time></trkpt><trkpt lat="43.2775131654648" lon="11.212498115086285"><ele>353.0</ele><time>2026-04-04T10:59:27Z</time></trkpt><trkpt lat="43.27755308081858" lon="11.212297066728526"><ele>355.0</ele><time>2026-04-04T10:59:28Z</time></trkpt><trkpt lat="43.27759172053937" lon="11.212098029290564"><ele>357.0</ele><time>2026-04-04T10:59:29Z</time></trkpt><trkpt lat="43.2776250762678" lon="11.211902635798605"><ele>359.0</ele><time>2026-04-04T10:59:30Z</time></trkpt><trkpt lat="43.27764363717727" lon="11.211711890351545"><ele>359.0</ele><time>2026-04-04T10:59:31Z</time></trkpt><trkpt lat="43.277638677220814" lon="11.211520094570169"><ele>359.0</ele><time>2026-04-04T10:59:32Z</time></trkpt><trkpt lat="43.2776198219975" lon="11.211333023415586"><ele>359.0</ele><time>2026-04-04T10:59:33Z</time></trkpt><trkpt lat="43.27758153357438" lon="11.21115745251166"><ele>359.0</ele><time>2026-04-04T10:59:34Z</time></trkpt><trkpt lat="43.277535681765315" lon="11.210996757237037"><ele>360.0</ele><time>2026-04-04T10:59:35Z</time></trkpt><trkpt lat="43.27748237022036" lon="11.210865352533128"><ele>361.0</ele><time>2026-04-04T10:59:36Z</time></trkpt><trkpt lat="43.277433162949045" lon="11.21074832468698"><ele>362.0</ele><time>2026-04-04T10:59:37Z</time></trkpt><trkpt lat="43.27740510905824" lon="11.210644978272263"><ele>363.0</ele><time>2026-04-04T10:59:38Z</time></trkpt><trkpt lat="43.27741205375003" lon="11.210538898765282"><ele>364.0</ele><time>2026-04-04T10:59:39Z</time></trkpt><trkpt lat="43.27748408017089" lon="11.210478777217471"><ele>365.6</ele><time>2026-04-04T10:59:40Z</time></trkpt><trkpt lat="43.277574790257546" lon="11.210456798772087"><ele>367.2</ele><time>2026-04-04T10:59:41Z</time></trkpt><trkpt lat="43.2776869978794" lon="11.210440370943301"><ele>368.8</ele><time>2026-04-04T10:59:42Z</time></trkpt><trkpt lat="43.27779229486617" lon="11.210357981057827"><ele>370.40000000000003</ele><time>2026-04-04T10:59:43Z</time></trkpt><trkpt lat="43.27783733503076" lon="11.210237840418916"><ele>372.0</ele><time>2026-04-04T10:59:44Z</time></trkpt><trkpt lat="43.277838434236216" lon="11.210075699261422"><ele>372.0</ele><time>2026-04-04T10:59:45Z</time></trkpt><trkpt lat="43.2778376554547" lon="11.209917413026902"><ele>372.0</ele><time>2026-04-04T10:59:46Z</time></trkpt><trkpt lat="43.27784578219574" lon="11.209785343557904"><ele>372.0</ele><time>2026-04-04T10:59:47Z</time></trkpt><trkpt lat="43.27786049170302" lon="11.209622143926884"><ele>372.0</ele><time>2026-04-04T10:59:48Z</time></trkpt><trkpt lat="43.27785189276175" lon="11.20944625005276"><ele>371.25</ele><time>2026-04-04T10:59:49Z</time></trkpt><trkpt lat="43.27782596806581" lon="11.209284561374922"><ele>370.5</ele><time>2026-04-04T10:59:50Z</time></trkpt><trkpt lat="43.277784854859384" lon="11.209126652963095"><ele>369.75</ele><time>2026-04-04T10:59:51Z</time></trkpt><trkpt lat="43.27775399111825" lon="11.208969902808828"><ele>369.0</ele><time>2026-04-04T10:59:52Z</time></trkpt><trkpt lat="43.27772781676772" lon="11.208817705154365"><ele>369.0</ele><time>2026-04-04T10:59:53Z</time></trkpt><trkpt lat="43.277701332250054" lon="11.208674388808152"><ele>369.0</ele><time>2026-04-04T10:59:54Z</time></trkpt><trkpt lat="43.27766821717375" lon="11.20853811945351"><ele>369.0</ele><time>2026-04-04T10:59:55Z</time></trkpt><trkpt lat="43.27760474247271" lon="11.208419230741265"><ele>369.0</ele><time>2026-04-04T10:59:56Z</time></trkpt><trkpt lat="43.277528659106395" lon="11.208297915075796"><ele>369.0</ele><time>2026-04-04T10:59:57Z</time></trkpt><trkpt lat="43.27743741060384" lon="11.208197741272174"><ele>366.0</ele><time>2026-04-04T10:59:58Z</time></trkpt><trkpt lat="43.27732779834634" lon="11.208102477997395"><ele>363.0</ele><time>2026-04-04T10:59:59Z</time></trkpt><trkpt lat="43.27722852111382" lon="11.207992136656662"><ele>360.0</ele><time>2026-04-04T11:00:00Z</time></trkpt><trkpt lat="43.2771262678405" lon="11.207873638259956"><ele>357.0</ele><time>2026-04-04T11:00:01Z</time></trkpt><trkpt lat="43.27701859636953" lon="11.20774517077964"><ele>361.25</ele><time>2026-04-04T11:00:02Z</time></trkpt><trkpt lat="43.27691132699464" lon="11.207610050285648"><ele>365.5</ele><time>2026-04-04T11:00:03Z</time></trkpt><trkpt lat="43.2768150244564" lon="11.207465914403523"><ele>369.75</ele><time>2026-04-04T11:00:04Z</time></trkpt><trkpt lat="43.276738495515346" lon="11.207314806366039"><ele>374.0</ele><time>2026-04-04T11:00:05Z</time></trkpt><trkpt lat="43.27665584740924" lon="11.207170613091542"><ele>374.0</ele><time>2026-04-04T11:00:06Z</time></trkpt><trkpt lat="43.276537159922405" lon="11.207052227566544"><ele>374.0</ele><time>2026-04-04T11:00:07Z</time></trkpt><trkpt lat="43.2764174835059" lon="11.206910200530434"><ele>374.0</ele><time>2026-04-04T11:00:08Z</time></trkpt><trkpt lat="43.27628363183912" lon="11.206796619274224"><ele>381.6666666666667</ele><time>2026-04-04T11:00:09Z</time></trkpt><trkpt lat="43.276143984608716" lon="11.206700666843478"><ele>389.33333333333337</ele><time>2026-04-04T11:00:10Z</time></trkpt><trkpt lat="43.27600034525371" lon="11.206619979770124"><ele>397.0</ele><time>2026-04-04T11:00:11Z</time></trkpt><trkpt lat="43.27585192297738" lon="11.206559816803162"><ele>397.0</ele><time>2026-04-04T11:00:12Z</time></trkpt><trkpt lat="43.27570954744304" lon="11.206501327855385"><ele>397.0</ele><time>2026-04-04T11:00:13Z</time></trkpt><trkpt lat="43.27558947965864" lon="11.206431307984381"><ele>397.0</ele><time>2026-04-04T11:00:13.999Z</time></trkpt><trkpt lat="43.27546578585204" lon="11.206328060733398"><ele>397.0</ele><time>2026-04-04T11:00:14.999Z</time></trkpt><trkpt lat="43.275345145496786" lon="11.206217718560996"><ele>398.33333333333337</ele><time>2026-04-04T11:00:15.999Z</time></trkpt><trkpt lat="43.275209527893075" lon="11.206119625708645"><ele>399.66666666666663</ele><time>2026-04-04T11:00:16.999Z</time></trkpt><trkpt lat="43.27507374981192" lon="11.206031523685606"><ele>401.0</ele><time>2026-04-04T11:00:17.999Z</time></trkpt><trkpt lat="43.27493893947716" lon="11.205942118074988"><ele>401.0</ele><time>2026-04-04T11:00:18.999Z</time></trkpt><trkpt lat="43.27480837547028" lon="11.205840997071618"><ele>401.0</ele><time>2026-04-04T11:00:19.999Z</time></trkpt><trkpt lat="43.27467771938537" lon="11.205734221407589"><ele>401.0</ele><time>2026-04-04T11:00:20.999Z</time></trkpt><trkpt lat="43.27455146671813" lon="11.205622820844948"><ele>402.75</ele><time>2026-04-04T11:00:21.999Z</time></trkpt><trkpt lat="43.27443222055542" lon="11.205498979301117"><ele>404.5</ele><time>2026-04-04T11:00:22.999Z</time></trkpt><trkpt lat="43.27432035094626" lon="11.20536602406979"><ele>406.25</ele><time>2026-04-04T11:00:23.999Z</time></trkpt><trkpt lat="43.2742136888994" lon="11.205220783932912"><ele>408.0</ele><time>2026-04-04T11:00:24.999Z</time></trkpt><trkpt lat="43.274123087592535" lon="11.205079325289233"><ele>408.0</ele><time>2026-04-04T11:00:25.999Z</time></trkpt><trkpt lat="43.27403225643097" lon="11.204943833232521"><ele>408.0</ele><time>2026-04-04T11:00:26.999Z</time></trkpt><trkpt lat="43.27392274089784" lon="11.204836935007624"><ele>408.0</ele><time>2026-04-04T11:00:27.999Z</time></trkpt><trkpt lat="43.27378778741548" lon="11.204773628917565"><ele>408.0</ele><time>2026-04-04T11:00:28.999Z</time></trkpt><trkpt lat="43.27366262885824" lon="11.204698068532165"><ele>407.5</ele><time>2026-04-04T11:00:29.999Z</time></trkpt><trkpt lat="43.273561589624514" lon="11.204589370524268"><ele>407.0</ele><time>2026-04-04T11:00:30.999Z</time></trkpt><trkpt lat="43.2734590512459" lon="11.204460349665203"><ele>406.5</ele><time>2026-04-04T11:00:31.999Z</time></trkpt><trkpt lat="43.27335186641486" lon="11.204343157655348"><ele>406.0</ele><time>2026-04-04T11:00:32.999Z</time></trkpt><trkpt lat="43.27324239519854" lon="11.20424254760846"><ele>406.0</ele><time>2026-04-04T11:00:33.999Z</time></trkpt><trkpt lat="43.27313208709762" lon="11.204142905760055"><ele>406.0</ele><time>2026-04-04T11:00:34.999Z</time></trkpt><trkpt lat="43.27302832211103" lon="11.204048201259388"><ele>406.0</ele><time>2026-04-04T11:00:35.999Z</time></trkpt><trkpt lat="43.272925974836085" lon="11.203970290357482"><ele>406.0</ele><time>2026-04-04T11:00:36.999Z</time></trkpt><trkpt lat="43.27281074628572" lon="11.203914649924396"><ele>407.25</ele><time>2026-04-04T11:00:37.999Z</time></trkpt><trkpt lat="43.27268432718918" lon="11.20390840529235"><ele>408.5</ele><time>2026-04-04T11:00:38.999Z</time></trkpt><trkpt lat="43.272544713786225" lon="11.203892012614075"><ele>409.75</ele><time>2026-04-04T11:00:39.999Z</time></trkpt><trkpt lat="43.272421220516065" lon="11.20383270457316"><ele>411.0</ele><time>2026-04-04T11:00:40.999Z</time></trkpt><trkpt lat="43.272283198328076" lon="11.203755526919654"><ele>412.0</ele><time>2026-04-04T11:00:41.999Z</time></trkpt><trkpt lat="43.27213701532585" lon="11.203672373655175"><ele>413.0</ele><time>2026-04-04T11:00:42.999Z</time></trkpt><trkpt lat="43.271993032855356" lon="11.203589951000787"><ele>414.0</ele><time>2026-04-04T11:00:43.999Z</time></trkpt><trkpt lat="43.271848023181505" lon="11.203506940586697"><ele>414.0</ele><time>2026-04-04T11:00:44.999Z</time></trkpt><trkpt lat="43.2717061876613" lon="11.203425746966598"><ele>414.0</ele><time>2026-04-04T11:00:45.999Z</time></trkpt><trkpt lat="43.2715733658095" lon="11.203357456406145"><ele>414.0</ele><time>2026-04-04T11:00:46.999Z</time></trkpt><trkpt lat="43.27144699361278" lon="11.203319049105666"><ele>414.0</ele><time>2026-04-04T11:00:47.999Z</time></trkpt><trkpt lat="43.271317368372806" lon="11.203279580923654"><ele>415.75</ele><time>2026-04-04T11:00:48.999Z</time></trkpt><trkpt lat="43.27117538940561" lon="11.203287151861133"><ele>417.5</ele><time>2026-04-04T11:00:49.999Z</time></trkpt><trkpt lat="43.27103138840079" lon="11.203296955266245"><ele>419.25</ele><time>2026-04-04T11:00:50.999Z</time></trkpt><trkpt lat="43.27090160702867" lon="11.203320618746112"><ele>421.0</ele><time>2026-04-04T11:00:51.999Z</time></trkpt><trkpt lat="43.27078083239456" lon="11.203322513051198"><ele>421.0</ele><time>2026-04-04T11:00:52.999Z</time></trkpt><trkpt lat="43.27067216766281" lon="11.203266749640715"><ele>421.0</ele><time>2026-04-04T11:00:53.999Z</time></trkpt><trkpt lat="43.270551739686695" lon="11.203184659688848"><ele>421.0</ele><time>2026-04-04T11:00:54.999Z</time></trkpt><trkpt lat="43.2703027994338" lon="11.203122373391775"><ele>422.0</ele><time>2026-04-04T11:00:56.999Z</time></trkpt><trkpt lat="43.27020074872583" lon="11.203076242304393"><ele>423.0</ele><time>2026-04-04T11:00:57.999Z</time></trkpt><trkpt lat="43.27009502976567" lon="11.203050480861823"><ele>424.0</ele><time>2026-04-04T11:00:58.999Z</time></trkpt><trkpt lat="43.27000539349136" lon="11.203015350483348"><ele>425.0</ele><time>2026-04-04T11:00:59.999Z</time></trkpt><trkpt lat="43.26993754623238" lon="11.20294479666246"><ele>426.0</ele><time>2026-04-04T11:01:00.999Z</time></trkpt><trkpt lat="43.2699460250849" lon="11.202791579116889"><ele>426.0</ele><time>2026-04-04T11:01:01.999Z</time></trkpt><trkpt lat="43.26994252196846" lon="11.20263924645299"><ele>426.0</ele><time>2026-04-04T11:01:02.999Z</time></trkpt><trkpt lat="43.26995655142906" lon="11.202513464997333"><ele>426.0</ele><time>2026-04-04T11:01:03.999Z</time></trkpt><trkpt lat="43.27000393236956" lon="11.202413684659195"><ele>426.0</ele><time>2026-04-04T11:01:04.999Z</time></trkpt><trkpt lat="43.27010502906965" lon="11.202364542589144"><ele>426.0</ele><time>2026-04-04T11:01:05.999Z</time></trkpt><trkpt lat="43.27023224115449" lon="11.202344398569364"><ele>428.66666666666663</ele><time>2026-04-04T11:01:06.999Z</time></trkpt><trkpt lat="43.27037490129476" lon="11.202321434398693"><ele>431.3333333333333</ele><time>2026-04-04T11:01:07.999Z</time></trkpt><trkpt lat="43.27054556616844" lon="11.202273214609908"><ele>434.0</ele><time>2026-04-04T11:01:08.999Z</time></trkpt><trkpt lat="43.27071394650211" lon="11.202235146308135"><ele>434.0</ele><time>2026-04-04T11:01:10Z</time></trkpt><trkpt lat="43.270829774835086" lon="11.202191771013297"><ele>434.0</ele><time>2026-04-04T11:01:11Z</time></trkpt><trkpt lat="43.27090994852773" lon="11.202127874205058"><ele>434.0</ele><time>2026-04-04T11:01:12Z</time></trkpt><trkpt lat="43.270961207738175" lon="11.202011849990557"><ele>434.0</ele><time>2026-04-04T11:01:13Z</time></trkpt><trkpt lat="43.270975171467256" lon="11.201881721657092"><ele>434.0</ele><time>2026-04-04T11:01:14Z</time></trkpt><trkpt lat="43.2709332081068" lon="11.201765064654738"><ele>434.0</ele><time>2026-04-04T11:01:15Z</time></trkpt><trkpt lat="43.27085728273583" lon="11.201698298852213"><ele>434.0</ele><time>2026-04-04T11:01:16Z</time></trkpt><trkpt lat="43.270766008721786" lon="11.201665187877143"><ele>434.0</ele><time>2026-04-04T11:01:17Z</time></trkpt><trkpt lat="43.27064243926227" lon="11.201747646418303"><ele>434.0</ele><time>2026-04-04T11:01:18Z</time></trkpt><trkpt lat="43.27049180531229" lon="11.201790750131833"><ele>434.6</ele><time>2026-04-04T11:01:19Z</time></trkpt><trkpt lat="43.27036889038454" lon="11.201824894934104"><ele>435.2</ele><time>2026-04-04T11:01:20Z</time></trkpt><trkpt lat="43.27026747747808" lon="11.201831906721681"><ele>435.80000000000007</ele><time>2026-04-04T11:01:21Z</time></trkpt><trkpt lat="43.27016823331184" lon="11.201807648160301"><ele>436.40000000000003</ele><time>2026-04-04T11:01:22Z</time></trkpt><trkpt lat="43.2700694793724" lon="11.201781282283614"><ele>437.0</ele><time>2026-04-04T11:01:23Z</time></trkpt><trkpt lat="43.26999045460154" lon="11.20174377929335"><ele>437.0</ele><time>2026-04-04T11:01:24Z</time></trkpt><trkpt lat="43.26991167566779" lon="11.201648276324988"><ele>437.00000000000006</ele><time>2026-04-04T11:01:26Z</time></trkpt><trkpt lat="43.26990838432363" lon="11.201543701559578"><ele>437.00000000000006</ele><time>2026-04-04T11:01:27Z</time></trkpt><trkpt lat="43.269932310918016" lon="11.201427018607282"><ele>437.0</ele><time>2026-04-04T11:01:28Z</time></trkpt><trkpt lat="43.26999592964274" lon="11.20131881419561"><ele>437.0</ele><time>2026-04-04T11:01:29Z</time></trkpt><trkpt lat="43.27009702215129" lon="11.201220191887446"><ele>439.75</ele><time>2026-04-04T11:01:30Z</time></trkpt><trkpt lat="43.270212649529974" lon="11.201122102298369"><ele>442.5</ele><time>2026-04-04T11:01:31Z</time></trkpt><trkpt lat="43.270340030272145" lon="11.201033268052864"><ele>445.25</ele><time>2026-04-04T11:01:32Z</time></trkpt><trkpt lat="43.27047017140073" lon="11.200942087483243"><ele>448.0</ele><time>2026-04-04T11:01:33Z</time></trkpt><trkpt lat="43.27058334782549" lon="11.200884485551084"><ele>447.75</ele><time>2026-04-04T11:01:34Z</time></trkpt><trkpt lat="43.27069965426177" lon="11.200868729637447"><ele>447.5</ele><time>2026-04-04T11:01:35Z</time></trkpt><trkpt lat="43.27082602426044" lon="11.200898117365615"><ele>447.25</ele><time>2026-04-04T11:01:36Z</time></trkpt><trkpt lat="43.27094571013293" lon="11.200970310600715"><ele>447.0</ele><time>2026-04-04T11:01:37Z</time></trkpt><trkpt lat="43.271067881831435" lon="11.201033357438083"><ele>447.0</ele><time>2026-04-04T11:01:38Z</time></trkpt><trkpt lat="43.27117770134004" lon="11.201065653173417"><ele>447.0</ele><time>2026-04-04T11:01:39Z</time></trkpt><trkpt lat="43.27128521139292" lon="11.201058304811951"><ele>447.0</ele><time>2026-04-04T11:01:40Z</time></trkpt><trkpt lat="43.27139338904254" lon="11.201015146836808"><ele>447.0</ele><time>2026-04-04T11:01:41Z</time></trkpt><trkpt lat="43.27149915863765" lon="11.200944447083044"><ele>447.0</ele><time>2026-04-04T11:01:42Z</time></trkpt><trkpt lat="43.271610465217925" lon="11.200856923784144"><ele>447.0</ele><time>2026-04-04T11:01:43Z</time></trkpt><trkpt lat="43.27172746572324" lon="11.200764785604951"><ele>447.0</ele><time>2026-04-04T11:01:44Z</time></trkpt><trkpt lat="43.27185272604284" lon="11.200660646014795"><ele>447.0</ele><time>2026-04-04T11:01:45Z</time></trkpt><trkpt lat="43.27196945817506" lon="11.20053497802296"><ele>448.0</ele><time>2026-04-04T11:01:46Z</time></trkpt><trkpt lat="43.27208171749059" lon="11.20040769654245"><ele>449.0</ele><time>2026-04-04T11:01:47Z</time></trkpt><trkpt lat="43.272194985948815" lon="11.200254102303987"><ele>450.0</ele><time>2026-04-04T11:01:48Z</time></trkpt><trkpt lat="43.27231435020813" lon="11.20008911232042"><ele>450.0</ele><time>2026-04-04T11:01:49Z</time></trkpt><trkpt lat="43.27240636681818" lon="11.199970660951037"><ele>450.0</ele><time>2026-04-04T11:01:50Z</time></trkpt><trkpt lat="43.272513753262054" lon="11.199832123152518"><ele>450.0</ele><time>2026-04-04T11:01:51Z</time></trkpt><trkpt lat="43.27262591337111" lon="11.19969308712171"><ele>450.0</ele><time>2026-04-04T11:01:52Z</time></trkpt><trkpt lat="43.27275224547908" lon="11.199574437306927"><ele>451.75</ele><time>2026-04-04T11:01:53Z</time></trkpt><trkpt lat="43.2728683773227" lon="11.199445192977965"><ele>453.5</ele><time>2026-04-04T11:01:54Z</time></trkpt><trkpt lat="43.272965919172634" lon="11.199338120274444"><ele>455.25</ele><time>2026-04-04T11:01:55Z</time></trkpt><trkpt lat="43.27304908213552" lon="11.19924237216995"><ele>457.0</ele><time>2026-04-04T11:01:56Z</time></trkpt><trkpt lat="43.27307649135456" lon="11.19911973240102"><ele>457.0</ele><time>2026-04-04T11:01:57Z</time></trkpt><trkpt lat="43.2730561015423" lon="11.199002132009355"><ele>457.0</ele><time>2026-04-04T11:01:58Z</time></trkpt><trkpt lat="43.2730191025678" lon="11.198874074483122"><ele>457.0</ele><time>2026-04-04T11:01:58.999Z</time></trkpt><trkpt lat="43.2729356481773" lon="11.198734912468385"><ele>457.0</ele><time>2026-04-04T11:01:59.999Z</time></trkpt><trkpt lat="43.27284540005965" lon="11.19858623258049"><ele>458.8</ele><time>2026-04-04T11:02:00.999Z</time></trkpt><trkpt lat="43.27277941059121" lon="11.198436050265226"><ele>460.6</ele><time>2026-04-04T11:02:01.999Z</time></trkpt><trkpt lat="43.272723091807904" lon="11.198316099843487"><ele>462.40000000000003</ele><time>2026-04-04T11:02:02.999Z</time></trkpt><trkpt lat="43.272678757505176" lon="11.198196980854684"><ele>464.20000000000005</ele><time>2026-04-04T11:02:03.999Z</time></trkpt><trkpt lat="43.272656134418646" lon="11.198076707182247"><ele>466.0</ele><time>2026-04-04T11:02:04.999Z</time></trkpt><trkpt lat="43.272693899265086" lon="11.197934550071343"><ele>467.25</ele><time>2026-04-04T11:02:05.999Z</time></trkpt><trkpt lat="43.27280432895929" lon="11.197798134972633"><ele>468.5</ele><time>2026-04-04T11:02:06.999Z</time></trkpt><trkpt lat="43.27285172306676" lon="11.197621425911732"><ele>469.75</ele><time>2026-04-04T11:02:07.999Z</time></trkpt><trkpt lat="43.27288010516033" lon="11.197477947622541"><ele>471.0</ele><time>2026-04-04T11:02:08.999Z</time></trkpt><trkpt lat="43.272878163930024" lon="11.19732760622064"><ele>472.25</ele><time>2026-04-04T11:02:09.999Z</time></trkpt><trkpt lat="43.27286613571102" lon="11.197164137919783"><ele>473.5</ele><time>2026-04-04T11:02:10.999Z</time></trkpt><trkpt lat="43.27284280047332" lon="11.197004697010563"><ele>474.75</ele><time>2026-04-04T11:02:11.999Z</time></trkpt><trkpt lat="43.272804076877755" lon="11.196848919528158"><ele>476.0</ele><time>2026-04-04T11:02:12.999Z</time></trkpt><trkpt lat="43.272762182316505" lon="11.196716585854462"><ele>476.0</ele><time>2026-04-04T11:02:13.999Z</time></trkpt><trkpt lat="43.272737766082464" lon="11.196588932959969"><ele>476.0</ele><time>2026-04-04T11:02:14.999Z</time></trkpt><trkpt lat="43.272722040961604" lon="11.196466666698765"><ele>476.0</ele><time>2026-04-04T11:02:15.999Z</time></trkpt><trkpt lat="43.272711919642916" lon="11.196336260239075"><ele>476.0</ele><time>2026-04-04T11:02:16.999Z</time></trkpt><trkpt lat="43.27274131074651" lon="11.196206372236475"><ele>476.0</ele><time>2026-04-04T11:02:17.999Z</time></trkpt><trkpt lat="43.272781589137495" lon="11.196098251385873"><ele>476.16666666666663</ele><time>2026-04-04T11:02:18.999Z</time></trkpt><trkpt lat="43.272849874469514" lon="11.196034760040899"><ele>476.3333333333333</ele><time>2026-04-04T11:02:19.999Z</time></trkpt><trkpt lat="43.272941522625466" lon="11.196035183645431"><ele>476.5</ele><time>2026-04-04T11:02:20.999Z</time></trkpt><trkpt lat="43.27302888459062" lon="11.196046659386848"><ele>476.66666666666663</ele><time>2026-04-04T11:02:21.999Z</time></trkpt><trkpt lat="43.2730929539286" lon="11.19605059378012"><ele>476.8333333333333</ele><time>2026-04-04T11:02:22.999Z</time></trkpt><trkpt lat="43.273189565696924" lon="11.196035486493644"><ele>477.0</ele><time>2026-04-04T11:02:24.999Z</time></trkpt><trkpt lat="43.27318636094685" lon="11.195865377767236"><ele>477.0</ele><time>2026-04-04T11:02:26.999Z</time></trkpt><trkpt lat="43.273114913838" lon="11.195718671346743"><ele>477.00000000000006</ele><time>2026-04-04T11:02:28.999Z</time></trkpt><trkpt lat="43.273047171706466" lon="11.195646642269251"><ele>477.00000000000006</ele><time>2026-04-04T11:02:29.999Z</time></trkpt><trkpt lat="43.27296258024289" lon="11.195569042227156"><ele>477.0</ele><time>2026-04-04T11:02:30.999Z</time></trkpt><trkpt lat="43.272875938081256" lon="11.19548490483497"><ele>477.0</ele><time>2026-04-04T11:02:31.999Z</time></trkpt><trkpt lat="43.272782985188144" lon="11.195391757812843"><ele>478.75</ele><time>2026-04-04T11:02:32.999Z</time></trkpt><trkpt lat="43.27268771884705" lon="11.195297698297866"><ele>480.5</ele><time>2026-04-04T11:02:33.999Z</time></trkpt><trkpt lat="43.27258559664168" lon="11.195204218195085"><ele>482.25</ele><time>2026-04-04T11:02:34.999Z</time></trkpt><trkpt lat="43.27247611248228" lon="11.195115810340054"><ele>484.0</ele><time>2026-04-04T11:02:35.999Z</time></trkpt><trkpt lat="43.27235926394584" lon="11.195032093048692"><ele>484.75</ele><time>2026-04-04T11:02:36.999Z</time></trkpt><trkpt lat="43.27224563499942" lon="11.194955030991729"><ele>485.5</ele><time>2026-04-04T11:02:37.999Z</time></trkpt><trkpt lat="43.27212800388746" lon="11.194883768149229"><ele>486.25</ele><time>2026-04-04T11:02:38.999Z</time></trkpt><trkpt lat="43.27201771146428" lon="11.194821288932564"><ele>487.0</ele><time>2026-04-04T11:02:39.999Z</time></trkpt><trkpt lat="43.271913247597205" lon="11.194758192573778"><ele>487.0</ele><time>2026-04-04T11:02:40.999Z</time></trkpt><trkpt lat="43.27182068309742" lon="11.19468195892894"><ele>487.00000000000006</ele><time>2026-04-04T11:02:41.999Z</time></trkpt><trkpt lat="43.27173903919329" lon="11.194592054166577"><ele>487.00000000000006</ele><time>2026-04-04T11:02:42.999Z</time></trkpt><trkpt lat="43.27165777141455" lon="11.194475774489419"><ele>487.0</ele><time>2026-04-04T11:02:43.999Z</time></trkpt><trkpt lat="43.271580558273044" lon="11.194351677040812"><ele>487.0</ele><time>2026-04-04T11:02:44.999Z</time></trkpt><trkpt lat="43.27150918330718" lon="11.19422101662118"><ele>487.0</ele><time>2026-04-04T11:02:45.999Z</time></trkpt><trkpt lat="43.27145097324228" lon="11.194088815961413"><ele>487.00000000000006</ele><time>2026-04-04T11:02:46.999Z</time></trkpt><trkpt lat="43.271403177451866" lon="11.19396109158611"><ele>487.00000000000006</ele><time>2026-04-04T11:02:47.999Z</time></trkpt><trkpt lat="43.27136565944658" lon="11.193836612597341"><ele>487.0</ele><time>2026-04-04T11:02:48.999Z</time></trkpt><trkpt lat="43.27132793343431" lon="11.19369858098584"><ele>487.0</ele><time>2026-04-04T11:02:49.999Z</time></trkpt><trkpt lat="43.27129248396184" lon="11.193554841776654"><ele>487.0</ele><time>2026-04-04T11:02:50.999Z</time></trkpt><trkpt lat="43.271267818864594" lon="11.193412652494235"><ele>487.0</ele><time>2026-04-04T11:02:51.999Z</time></trkpt><trkpt lat="43.27124770943064" lon="11.193258976705865"><ele>487.0</ele><time>2026-04-04T11:02:52.999Z</time></trkpt><trkpt lat="43.27122609393529" lon="11.193107984809366"><ele>487.0</ele><time>2026-04-04T11:02:53.999Z</time></trkpt><trkpt lat="43.2711849452762" lon="11.192946869884661"><ele>486.5</ele><time>2026-04-04T11:02:54.999Z</time></trkpt><trkpt lat="43.27112482548819" lon="11.19279528224996"><ele>486.0</ele><time>2026-04-04T11:02:55.999Z</time></trkpt><trkpt lat="43.27105040364633" lon="11.192647965171545"><ele>485.5</ele><time>2026-04-04T11:02:56.999Z</time></trkpt><trkpt lat="43.27097846065652" lon="11.19251636032401"><ele>485.0</ele><time>2026-04-04T11:02:57.999Z</time></trkpt><trkpt lat="43.270902277243636" lon="11.192387945650902"><ele>484.75</ele><time>2026-04-04T11:02:58.999Z</time></trkpt><trkpt lat="43.27082703387642" lon="11.192267288261737"><ele>484.5</ele><time>2026-04-04T11:02:59.999Z</time></trkpt><trkpt lat="43.27074992887169" lon="11.192151709858898"><ele>484.25</ele><time>2026-04-04T11:03:00.999Z</time></trkpt><trkpt lat="43.27065957436444" lon="11.192031015863485"><ele>484.0</ele><time>2026-04-04T11:03:01.999Z</time></trkpt><trkpt lat="43.27056890344955" lon="11.19191832761219"><ele>481.75</ele><time>2026-04-04T11:03:02.999Z</time></trkpt><trkpt lat="43.27048448918592" lon="11.191811532777592"><ele>479.5</ele><time>2026-04-04T11:03:03.999Z</time></trkpt><trkpt lat="43.27040589148591" lon="11.19169764981453"><ele>477.25</ele><time>2026-04-04T11:03:04.999Z</time></trkpt><trkpt lat="43.2703269171253" lon="11.191562196966556"><ele>475.0</ele><time>2026-04-04T11:03:05.999Z</time></trkpt><trkpt lat="43.27024412561485" lon="11.191414466385323"><ele>473.6666666666667</ele><time>2026-04-04T11:03:06.999Z</time></trkpt><trkpt lat="43.270148485929134" lon="11.19124334767101"><ele>472.33333333333337</ele><time>2026-04-04T11:03:07.999Z</time></trkpt><trkpt lat="43.27005387087869" lon="11.191074062239464"><ele>471.0</ele><time>2026-04-04T11:03:08.999Z</time></trkpt><trkpt lat="43.26996111594358" lon="11.190904901872498"><ele>471.0</ele><time>2026-04-04T11:03:09.999Z</time></trkpt><trkpt lat="43.269869551150705" lon="11.190736149597338"><ele>471.0</ele><time>2026-04-04T11:03:10.999Z</time></trkpt><trkpt lat="43.269778625357674" lon="11.190564098872642"><ele>471.0</ele><time>2026-04-04T11:03:11.999Z</time></trkpt><trkpt lat="43.2696872866149" lon="11.19038807564134"><ele>468.33333333333337</ele><time>2026-04-04T11:03:12.999Z</time></trkpt><trkpt lat="43.26959235287856" lon="11.190208974606671"><ele>465.6666666666667</ele><time>2026-04-04T11:03:13.999Z</time></trkpt><trkpt lat="43.26949692135356" lon="11.190034660864677"><ele>463.0</ele><time>2026-04-04T11:03:14.999Z</time></trkpt><trkpt lat="43.26940034575162" lon="11.18986409942124"><ele>462.5</ele><time>2026-04-04T11:03:16Z</time></trkpt><trkpt lat="43.269299900336115" lon="11.189691917070917"><ele>462.0</ele><time>2026-04-04T11:03:17Z</time></trkpt><trkpt lat="43.269208307906545" lon="11.189537020954715"><ele>461.5</ele><time>2026-04-04T11:03:18Z</time></trkpt><trkpt lat="43.26911472810852" lon="11.189388562496337"><ele>461.0</ele><time>2026-04-04T11:03:19Z</time></trkpt><trkpt lat="43.26902287988654" lon="11.18924766476971"><ele>459.75</ele><time>2026-04-04T11:03:20Z</time></trkpt><trkpt lat="43.26893159687086" lon="11.189106572339716"><ele>458.5</ele><time>2026-04-04T11:03:21Z</time></trkpt><trkpt lat="43.26885413243847" lon="11.188979402642754"><ele>457.25</ele><time>2026-04-04T11:03:22Z</time></trkpt><trkpt lat="43.26878008585529" lon="11.188848739941692"><ele>456.0</ele><time>2026-04-04T11:03:23Z</time></trkpt><trkpt lat="43.268711461295794" lon="11.188719673895871"><ele>455.75</ele><time>2026-04-04T11:03:24Z</time></trkpt><trkpt lat="43.2686441744196" lon="11.188575191011621"><ele>455.5</ele><time>2026-04-04T11:03:25Z</time></trkpt><trkpt lat="43.26859229564599" lon="11.188431349555081"><ele>455.25</ele><time>2026-04-04T11:03:26Z</time></trkpt><trkpt lat="43.26855411912538" lon="11.188281059772505"><ele>455.0</ele><time>2026-04-04T11:03:27Z</time></trkpt><trkpt lat="43.26852359480816" lon="11.18812281106831"><ele>454.8</ele><time>2026-04-04T11:03:28Z</time></trkpt><trkpt lat="43.268506494947616" lon="11.187967052022264"><ele>454.6</ele><time>2026-04-04T11:03:29Z</time></trkpt><trkpt lat="43.26851453524189" lon="11.187836328178467"><ele>454.4</ele><time>2026-04-04T11:03:30Z</time></trkpt><trkpt lat="43.26854820396398" lon="11.187712024512798"><ele>454.2</ele><time>2026-04-04T11:03:31Z</time></trkpt><trkpt lat="43.268598204911385" lon="11.187584389647807"><ele>454.0</ele><time>2026-04-04T11:03:32Z</time></trkpt><trkpt lat="43.26865433129354" lon="11.187445961195218"><ele>453.6666666666667</ele><time>2026-04-04T11:03:33Z</time></trkpt><trkpt lat="43.268707442125745" lon="11.18732337294969"><ele>453.33333333333337</ele><time>2026-04-04T11:03:34Z</time></trkpt><trkpt lat="43.268758535125386" lon="11.187208154534845"><ele>453.0</ele><time>2026-04-04T11:03:35Z</time></trkpt><trkpt lat="43.268805992946476" lon="11.18710366303434"><ele>452.66666666666663</ele><time>2026-04-04T11:03:36Z</time></trkpt><trkpt lat="43.268853983888555" lon="11.187015076945766"><ele>452.3333333333333</ele><time>2026-04-04T11:03:37Z</time></trkpt><trkpt lat="43.26891162531814" lon="11.186946396680527"><ele>452.0</ele><time>2026-04-04T11:03:38Z</time></trkpt><trkpt lat="43.268975514330734" lon="11.186904654015962"><ele>452.0</ele><time>2026-04-04T11:03:39Z</time></trkpt><trkpt lat="43.26903697758294" lon="11.186868029956662"><ele>452.00000000000006</ele><time>2026-04-04T11:03:40Z</time></trkpt><trkpt lat="43.26912192025202" lon="11.186817768958447"><ele>452.00000000000006</ele><time>2026-04-04T11:03:41Z</time></trkpt><trkpt lat="43.26919231463365" lon="11.186736092142443"><ele>452.0</ele><time>2026-04-04T11:03:42Z</time></trkpt><trkpt lat="43.26926073343797" lon="11.186584443465703"><ele>452.0</ele><time>2026-04-04T11:03:43Z</time></trkpt><trkpt lat="43.269324300363465" lon="11.18642293503838"><ele>452.0</ele><time>2026-04-04T11:03:44Z</time></trkpt><trkpt lat="43.26939127506628" lon="11.186248703790717"><ele>452.0</ele><time>2026-04-04T11:03:45Z</time></trkpt><trkpt lat="43.26945173151978" lon="11.186092695327083"><ele>452.0</ele><time>2026-04-04T11:03:46Z</time></trkpt><trkpt lat="43.2695192184622" lon="11.185923141615783"><ele>452.0</ele><time>2026-04-04T11:03:47Z</time></trkpt><trkpt lat="43.269586461878724" lon="11.185754199662984"><ele>453.25</ele><time>2026-04-04T11:03:48Z</time></trkpt><trkpt lat="43.26965332258849" lon="11.185586219270764"><ele>454.5</ele><time>2026-04-04T11:03:49Z</time></trkpt><trkpt lat="43.269718018731396" lon="11.18542023842884"><ele>455.75</ele><time>2026-04-04T11:03:50Z</time></trkpt><trkpt lat="43.26978837211017" lon="11.185237584981373"><ele>457.0</ele><time>2026-04-04T11:03:51Z</time></trkpt><trkpt lat="43.26986006114769" lon="11.185046164973324"><ele>459.33333333333337</ele><time>2026-04-04T11:03:52Z</time></trkpt><trkpt lat="43.26992884784358" lon="11.184852908631305"><ele>461.66666666666663</ele><time>2026-04-04T11:03:53Z</time></trkpt><trkpt lat="43.2699951237783" lon="11.184656812247887"><ele>464.0</ele><time>2026-04-04T11:03:54Z</time></trkpt><trkpt lat="43.27005035953126" lon="11.184474880879678"><ele>464.25</ele><time>2026-04-04T11:03:55Z</time></trkpt><trkpt lat="43.27009121145338" lon="11.184306543442883"><ele>464.5</ele><time>2026-04-04T11:03:56Z</time></trkpt><trkpt lat="43.27011948540625" lon="11.184144821527665"><ele>464.75</ele><time>2026-04-04T11:03:57Z</time></trkpt><trkpt lat="43.2701337161716" lon="11.183997923275578"><ele>465.0</ele><time>2026-04-04T11:03:58Z</time></trkpt><trkpt lat="43.270130398770846" lon="11.183846456652239"><ele>466.5</ele><time>2026-04-04T11:03:59Z</time></trkpt><trkpt lat="43.270083256956646" lon="11.183687996163998"><ele>468.0</ele><time>2026-04-04T11:04:00Z</time></trkpt><trkpt lat="43.27000521626187" lon="11.183571149411478"><ele>469.5</ele><time>2026-04-04T11:04:01Z</time></trkpt><trkpt lat="43.26990463049663" lon="11.183482163166344"><ele>471.0</ele><time>2026-04-04T11:04:02Z</time></trkpt><trkpt lat="43.26980490457859" lon="11.183392964543915"><ele>469.4</ele><time>2026-04-04T11:04:03Z</time></trkpt><trkpt lat="43.269687360299756" lon="11.183294184846629"><ele>467.8</ele><time>2026-04-04T11:04:04Z</time></trkpt><trkpt lat="43.26958688969324" lon="11.183197737963079"><ele>466.19999999999993</ele><time>2026-04-04T11:04:05Z</time></trkpt><trkpt lat="43.26950389881933" lon="11.18310840132838"><ele>464.59999999999997</ele><time>2026-04-04T11:04:06Z</time></trkpt><trkpt lat="43.269451716316404" lon="11.183030353028823"><ele>463.0</ele><time>2026-04-04T11:04:06.999Z</time></trkpt><trkpt lat="43.269420191319774" lon="11.182943095026378"><ele>463.0</ele><time>2026-04-04T11:04:07.999Z</time></trkpt><trkpt lat="43.26943787737821" lon="11.182844467651801"><ele>462.99999999999994</ele><time>2026-04-04T11:04:08.999Z</time></trkpt><trkpt lat="43.26942704003651" lon="11.182669053018968"><ele>462.99999999999994</ele><time>2026-04-04T11:04:09.999Z</time></trkpt><trkpt lat="43.26940910266506" lon="11.182507217157225"><ele>463.0</ele><time>2026-04-04T11:04:10.999Z</time></trkpt><trkpt lat="43.26936737677823" lon="11.182360047338816"><ele>463.0</ele><time>2026-04-04T11:04:11.999Z</time></trkpt><trkpt lat="43.26928586945567" lon="11.182211826303718"><ele>463.0</ele><time>2026-04-04T11:04:12.999Z</time></trkpt><trkpt lat="43.269175350435674" lon="11.182073881861458"><ele>463.0</ele><time>2026-04-04T11:04:13.999Z</time></trkpt><trkpt lat="43.26905833653895" lon="11.181933484713007"><ele>463.0</ele><time>2026-04-04T11:04:14.999Z</time></trkpt><trkpt lat="43.26893817312259" lon="11.181790176065332"><ele>462.6666666666667</ele><time>2026-04-04T11:04:15.999Z</time></trkpt><trkpt lat="43.268807745304485" lon="11.181636530725202"><ele>462.33333333333337</ele><time>2026-04-04T11:04:16.999Z</time></trkpt><trkpt lat="43.26868339977636" lon="11.181479942232151"><ele>462.0</ele><time>2026-04-04T11:04:17.999Z</time></trkpt><trkpt lat="43.26858132339103" lon="11.18133447532285"><ele>462.0</ele><time>2026-04-04T11:04:18.999Z</time></trkpt><trkpt lat="43.26848912180271" lon="11.181196749772962"><ele>462.0</ele><time>2026-04-04T11:04:19.999Z</time></trkpt><trkpt lat="43.26840522465628" lon="11.181074623273743"><ele>462.0</ele><time>2026-04-04T11:04:20.999Z</time></trkpt><trkpt lat="43.26832268650483" lon="11.180962189910753"><ele>462.0</ele><time>2026-04-04T11:04:21.999Z</time></trkpt><trkpt lat="43.26824009935053" lon="11.180858176183051"><ele>462.0</ele><time>2026-04-04T11:04:22.999Z</time></trkpt><trkpt lat="43.268144448238566" lon="11.180766099649379"><ele>462.0</ele><time>2026-04-04T11:04:23.999Z</time></trkpt><trkpt lat="43.26803790169286" lon="11.18069099369186"><ele>462.0</ele><time>2026-04-04T11:04:24.999Z</time></trkpt><trkpt lat="43.2679180346888" lon="11.180646893614032"><ele>462.0</ele><time>2026-04-04T11:04:25.999Z</time></trkpt><trkpt lat="43.26777756287841" lon="11.180672912887509"><ele>460.5</ele><time>2026-04-04T11:04:26.999Z</time></trkpt><trkpt lat="43.26766032577065" lon="11.180746947040197"><ele>459.0</ele><time>2026-04-04T11:04:27.999Z</time></trkpt><trkpt lat="43.26753606207345" lon="11.180807696030039"><ele>457.5</ele><time>2026-04-04T11:04:28.999Z</time></trkpt><trkpt lat="43.26742333841758" lon="11.180881651363636"><ele>456.0</ele><time>2026-04-04T11:04:29.999Z</time></trkpt><trkpt lat="43.26732171978913" lon="11.180944245757688"><ele>456.6</ele><time>2026-04-04T11:04:30.999Z</time></trkpt><trkpt lat="43.26722732424239" lon="11.18097011290238"><ele>457.20000000000005</ele><time>2026-04-04T11:04:31.999Z</time></trkpt><trkpt lat="43.26713845261403" lon="11.180963614087888"><ele>457.79999999999995</ele><time>2026-04-04T11:04:32.999Z</time></trkpt><trkpt lat="43.26705233143276" lon="11.180922399397502"><ele>458.4</ele><time>2026-04-04T11:04:33.999Z</time></trkpt><trkpt lat="43.26696982692064" lon="11.18086091887852"><ele>459.0</ele><time>2026-04-04T11:04:34.999Z</time></trkpt><trkpt lat="43.26687405815439" lon="11.180795382946204"><ele>459.0</ele><time>2026-04-04T11:04:35.999Z</time></trkpt><trkpt lat="43.266786027554616" lon="11.1807224828155"><ele>459.0</ele><time>2026-04-04T11:04:36.999Z</time></trkpt><trkpt lat="43.26670105260113" lon="11.180653037720816"><ele>459.0</ele><time>2026-04-04T11:04:37.999Z</time></trkpt><trkpt lat="43.266616699969866" lon="11.180599303831725"><ele>459.0</ele><time>2026-04-04T11:04:38.999Z</time></trkpt><trkpt lat="43.26653072800432" lon="11.180581504671656"><ele>459.0</ele><time>2026-04-04T11:04:39.999Z</time></trkpt><trkpt lat="43.26642263735833" lon="11.18065426127679"><ele>460.0</ele><time>2026-04-04T11:04:40.999Z</time></trkpt><trkpt lat="43.266305970822295" lon="11.180713857637842"><ele>461.0</ele><time>2026-04-04T11:04:41.999Z</time></trkpt><trkpt lat="43.26618753989922" lon="11.180771061764787"><ele>462.0</ele><time>2026-04-04T11:04:42.999Z</time></trkpt><trkpt lat="43.26607981397798" lon="11.180809736038656"><ele>463.0</ele><time>2026-04-04T11:04:43.999Z</time></trkpt><trkpt lat="43.26597724692189" lon="11.180830929421411"><ele>463.0</ele><time>2026-04-04T11:04:44.999Z</time></trkpt><trkpt lat="43.265873323224724" lon="11.180853310626961"><ele>463.0</ele><time>2026-04-04T11:04:45.999Z</time></trkpt><trkpt lat="43.265760196277576" lon="11.18087890300213"><ele>463.0</ele><time>2026-04-04T11:04:46.999Z</time></trkpt><trkpt lat="43.26565198998953" lon="11.180903394066998"><ele>463.0</ele><time>2026-04-04T11:04:47.999Z</time></trkpt><trkpt lat="43.26553216379595" lon="11.180927344444061"><ele>463.5</ele><time>2026-04-04T11:04:48.999Z</time></trkpt><trkpt lat="43.26540473813243" lon="11.180951003545225"><ele>464.0</ele><time>2026-04-04T11:04:49.999Z</time></trkpt><trkpt lat="43.26527857012637" lon="11.180970686961084"><ele>464.5</ele><time>2026-04-04T11:04:50.999Z</time></trkpt><trkpt lat="43.26516448753857" lon="11.180982506977834"><ele>465.0</ele><time>2026-04-04T11:04:51.999Z</time></trkpt><trkpt lat="43.26505927616839" lon="11.180980734377533"><ele>465.0</ele><time>2026-04-04T11:04:52.999Z</time></trkpt><trkpt lat="43.26495599269365" lon="11.180968143415269"><ele>465.0</ele><time>2026-04-04T11:04:53.999Z</time></trkpt><trkpt lat="43.26486763549008" lon="11.180954033651684"><ele>465.0</ele><time>2026-04-04T11:04:54.999Z</time></trkpt><trkpt lat="43.2647688163129" lon="11.18093311522505"><ele>465.0</ele><time>2026-04-04T11:04:55.999Z</time></trkpt><trkpt lat="43.26466506439927" lon="11.1809274141112"><ele>465.0</ele><time>2026-04-04T11:04:56.999Z</time></trkpt><trkpt lat="43.26454580006518" lon="11.180997396737244"><ele>464.75</ele><time>2026-04-04T11:04:57.999Z</time></trkpt><trkpt lat="43.26441120290744" lon="11.181011942096585"><ele>464.5</ele><time>2026-04-04T11:04:58.999Z</time></trkpt><trkpt lat="43.26428926519466" lon="11.181015697090666"><ele>464.25</ele><time>2026-04-04T11:04:59.999Z</time></trkpt><trkpt lat="43.26416801665335" lon="11.181019818460523"><ele>464.0</ele><time>2026-04-04T11:05:00.999Z</time></trkpt><trkpt lat="43.26402437448739" lon="11.181034580299048"><ele>464.5</ele><time>2026-04-04T11:05:01.999Z</time></trkpt><trkpt lat="43.26388060154188" lon="11.181064425093137"><ele>465.0</ele><time>2026-04-04T11:05:02.999Z</time></trkpt><trkpt lat="43.263726300636534" lon="11.18112063119835"><ele>465.5</ele><time>2026-04-04T11:05:03.999Z</time></trkpt><trkpt lat="43.26359764898556" lon="11.18119544734193"><ele>466.0</ele><time>2026-04-04T11:05:04.999Z</time></trkpt><trkpt lat="43.263480854681006" lon="11.181267182174437"><ele>466.0</ele><time>2026-04-04T11:05:05.999Z</time></trkpt><trkpt lat="43.26337464896347" lon="11.181323247332761"><ele>466.0</ele><time>2026-04-04T11:05:06.999Z</time></trkpt><trkpt lat="43.263262330173305" lon="11.181369612968178"><ele>466.0</ele><time>2026-04-04T11:05:07.999Z</time></trkpt><trkpt lat="43.2631553750916" lon="11.18136622778644"><ele>466.0</ele><time>2026-04-04T11:05:08.999Z</time></trkpt><trkpt lat="43.263035596036545" lon="11.181332439215291"><ele>465.75</ele><time>2026-04-04T11:05:09.999Z</time></trkpt><trkpt lat="43.26290130077261" lon="11.181315797655065"><ele>465.5</ele><time>2026-04-04T11:05:10.999Z</time></trkpt><trkpt lat="43.2627833553782" lon="11.181312024531367"><ele>465.25</ele><time>2026-04-04T11:05:11.999Z</time></trkpt><trkpt lat="43.26267387801634" lon="11.181311574192422"><ele>465.0</ele><time>2026-04-04T11:05:12.999Z</time></trkpt><trkpt lat="43.26256691217492" lon="11.181312649953826"><ele>465.0</ele><time>2026-04-04T11:05:13.999Z</time></trkpt><trkpt lat="43.262468520424456" lon="11.181316543388403"><ele>465.0</ele><time>2026-04-04T11:05:14.999Z</time></trkpt><trkpt lat="43.262375288291544" lon="11.181322331902424"><ele>465.0</ele><time>2026-04-04T11:05:15.999Z</time></trkpt><trkpt lat="43.26228520199811" lon="11.181331070444804"><ele>465.0</ele><time>2026-04-04T11:05:16.999Z</time></trkpt><trkpt lat="43.26221233764789" lon="11.181339701438818"><ele>465.0</ele><time>2026-04-04T11:05:17.999Z</time></trkpt><trkpt lat="43.262144141991804" lon="11.181352438899571"><ele>465.0</ele><time>2026-04-04T11:05:18.999Z</time></trkpt><trkpt lat="43.262059245189704" lon="11.181344999521292"><ele>465.6</ele><time>2026-04-04T11:05:21Z</time></trkpt><trkpt lat="43.262110856073456" lon="11.181205235426868"><ele>466.2</ele><time>2026-04-04T11:05:22Z</time></trkpt><trkpt lat="43.26210163390885" lon="11.181085183944502"><ele>466.79999999999995</ele><time>2026-04-04T11:05:23Z</time></trkpt><trkpt lat="43.262089939033615" lon="11.18093294317173"><ele>467.4</ele><time>2026-04-04T11:05:24Z</time></trkpt><trkpt lat="43.262076569982945" lon="11.180758908809615"><ele>468.0</ele><time>2026-04-04T11:05:25Z</time></trkpt><trkpt lat="43.26206108860225" lon="11.18057227535826"><ele>468.66666666666663</ele><time>2026-04-04T11:05:26Z</time></trkpt><trkpt lat="43.26204001499883" lon="11.180355992830737"><ele>469.3333333333333</ele><time>2026-04-04T11:05:27Z</time></trkpt><trkpt lat="43.262010378621824" lon="11.180120727828644"><ele>470.0</ele><time>2026-04-04T11:05:28Z</time></trkpt><trkpt lat="43.26198231463264" lon="11.179942919375321"><ele>470.6</ele><time>2026-04-04T11:05:29Z</time></trkpt><trkpt lat="43.2619540770681" lon="11.179789589764326"><ele>471.2</ele><time>2026-04-04T11:05:30Z</time></trkpt><trkpt lat="43.26191391646116" lon="11.179657679430669"><ele>471.79999999999995</ele><time>2026-04-04T11:05:31Z</time></trkpt><trkpt lat="43.26189779629915" lon="11.179518390720567"><ele>472.4</ele><time>2026-04-04T11:05:32Z</time></trkpt><trkpt lat="43.26186472452341" lon="11.179380057071125"><ele>473.0</ele><time>2026-04-04T11:05:33Z</time></trkpt><trkpt lat="43.261829190579746" lon="11.179227986230933"><ele>473.0</ele><time>2026-04-04T11:05:34Z</time></trkpt><trkpt lat="43.261789954553734" lon="11.179076224953022"><ele>472.99999999999994</ele><time>2026-04-04T11:05:35Z</time></trkpt><trkpt lat="43.261738999729815" lon="11.178945904409648"><ele>472.99999999999994</ele><time>2026-04-04T11:05:36Z</time></trkpt><trkpt lat="43.261728660232684" lon="11.17882200481088"><ele>473.0</ele><time>2026-04-04T11:05:37Z</time></trkpt><trkpt lat="43.26171320674081" lon="11.178704898778921"><ele>473.0</ele><time>2026-04-04T11:05:38Z</time></trkpt><trkpt lat="43.261683939305044" lon="11.17857423618197"><ele>473.0</ele><time>2026-04-04T11:05:39Z</time></trkpt><trkpt lat="43.26162113728486" lon="11.17842341826029"><ele>473.0</ele><time>2026-04-04T11:05:40Z</time></trkpt><trkpt lat="43.26153836493188" lon="11.17825957370834"><ele>473.0</ele><time>2026-04-04T11:05:41Z</time></trkpt><trkpt lat="43.26146227306937" lon="11.178098204580179"><ele>473.0</ele><time>2026-04-04T11:05:42Z</time></trkpt><trkpt lat="43.261402713700576" lon="11.177954296385073"><ele>473.5</ele><time>2026-04-04T11:05:43Z</time></trkpt><trkpt lat="43.26135950013644" lon="11.17780529723054"><ele>474.0</ele><time>2026-04-04T11:05:44Z</time></trkpt><trkpt lat="43.261304470495546" lon="11.17767560164474"><ele>474.5</ele><time>2026-04-04T11:05:45Z</time></trkpt><trkpt lat="43.26124333678714" lon="11.177532876158612"><ele>475.0</ele><time>2026-04-04T11:05:46Z</time></trkpt><trkpt lat="43.26118940360436" lon="11.177406960023879"><ele>472.8</ele><time>2026-04-04T11:05:47Z</time></trkpt><trkpt lat="43.261135476817365" lon="11.177281057955135"><ele>470.6</ele><time>2026-04-04T11:05:48Z</time></trkpt><trkpt lat="43.26108193789426" lon="11.177156061422101"><ele>468.4</ele><time>2026-04-04T11:05:49Z</time></trkpt><trkpt lat="43.26099528887374" lon="11.177049523758246"><ele>466.2</ele><time>2026-04-04T11:05:50Z</time></trkpt><trkpt lat="43.2609295777178" lon="11.176927810497277"><ele>464.0</ele><time>2026-04-04T11:05:51Z</time></trkpt><trkpt lat="43.26086510740361" lon="11.176815742110113"><ele>464.0</ele><time>2026-04-04T11:05:52Z</time></trkpt><trkpt lat="43.260810293770845" lon="11.17668598020227"><ele>464.0</ele><time>2026-04-04T11:05:53Z</time></trkpt><trkpt lat="43.26076400349528" lon="11.176542179572913"><ele>464.0</ele><time>2026-04-04T11:05:54Z</time></trkpt><trkpt lat="43.260705283040814" lon="11.176396324724507"><ele>464.0</ele><time>2026-04-04T11:05:55Z</time></trkpt><trkpt lat="43.26065124114669" lon="11.176266313922872"><ele>462.4</ele><time>2026-04-04T11:05:56Z</time></trkpt><trkpt lat="43.2605853856112" lon="11.17613871147048"><ele>460.79999999999995</ele><time>2026-04-04T11:05:57Z</time></trkpt><trkpt lat="43.260523468897304" lon="11.176013470121026"><ele>459.20000000000005</ele><time>2026-04-04T11:05:58Z</time></trkpt><trkpt lat="43.26045318445951" lon="11.17588697656717"><ele>457.6</ele><time>2026-04-04T11:05:59Z</time></trkpt><trkpt lat="43.26038608758714" lon="11.175770918931853"><ele>456.0</ele><time>2026-04-04T11:06:00Z</time></trkpt><trkpt lat="43.26032213967889" lon="11.175669543006133"><ele>452.4</ele><time>2026-04-04T11:06:01Z</time></trkpt><trkpt lat="43.2602503937563" lon="11.175581995141334"><ele>448.8</ele><time>2026-04-04T11:06:02Z</time></trkpt><trkpt lat="43.26016770189448" lon="11.175496533848124"><ele>445.19999999999993</ele><time>2026-04-04T11:06:03Z</time></trkpt><trkpt lat="43.26010836278556" lon="11.175411930524731"><ele>441.59999999999997</ele><time>2026-04-04T11:06:04Z</time></trkpt><trkpt lat="43.26003241881375" lon="11.175306299201361"><ele>438.0</ele><time>2026-04-04T11:06:05Z</time></trkpt><trkpt lat="43.25996495555992" lon="11.175196396642502"><ele>438.0</ele><time>2026-04-04T11:06:06Z</time></trkpt><trkpt lat="43.259902507621184" lon="11.175122684759641"><ele>437.99999999999994</ele><time>2026-04-04T11:06:07Z</time></trkpt><trkpt lat="43.25983000630128" lon="11.175047492567984"><ele>437.99999999999994</ele><time>2026-04-04T11:06:08Z</time></trkpt><trkpt lat="43.2597498528708" lon="11.174966213356628"><ele>438.0</ele><time>2026-04-04T11:06:09Z</time></trkpt><trkpt lat="43.259688833597366" lon="11.174867831304427"><ele>438.0</ele><time>2026-04-04T11:06:10Z</time></trkpt><trkpt lat="43.259639512546464" lon="11.174754986540782"><ele>436.6666666666667</ele><time>2026-04-04T11:06:11Z</time></trkpt><trkpt lat="43.25958530826894" lon="11.174630471271925"><ele>435.33333333333337</ele><time>2026-04-04T11:06:12Z</time></trkpt><trkpt lat="43.259542809699134" lon="11.17451696882255"><ele>434.0</ele><time>2026-04-04T11:06:13Z</time></trkpt><trkpt lat="43.25950023926585" lon="11.174428931594946"><ele>432.6666666666667</ele><time>2026-04-04T11:06:14Z</time></trkpt><trkpt lat="43.2594722613231" lon="11.174346368093214"><ele>431.33333333333337</ele><time>2026-04-04T11:06:15Z</time></trkpt><trkpt lat="43.25942386748801" lon="11.174248441632663"><ele>430.0</ele><time>2026-04-04T11:06:16Z</time></trkpt><trkpt lat="43.25938137098857" lon="11.174150633833705"><ele>430.0</ele><time>2026-04-04T11:06:17Z</time></trkpt><trkpt lat="43.25934402303702" lon="11.174045789060358"><ele>430.0</ele><time>2026-04-04T11:06:18Z</time></trkpt><trkpt lat="43.25928944806596" lon="11.173921603206374"><ele>430.0</ele><time>2026-04-04T11:06:19Z</time></trkpt><trkpt lat="43.25922988699706" lon="11.173799513755315"><ele>430.0</ele><time>2026-04-04T11:06:20Z</time></trkpt><trkpt lat="43.25918003741149" lon="11.173695235654828"><ele>430.0</ele><time>2026-04-04T11:06:21Z</time></trkpt><trkpt lat="43.25912979280916" lon="11.17358127180662"><ele>426.4</ele><time>2026-04-04T11:06:22Z</time></trkpt><trkpt lat="43.25908240957985" lon="11.173472148702878"><ele>422.8</ele><time>2026-04-04T11:06:23Z</time></trkpt><trkpt lat="43.25904888650426" lon="11.17334969051585"><ele>419.20000000000005</ele><time>2026-04-04T11:06:24Z</time></trkpt><trkpt lat="43.2590225777815" lon="11.173225991978292"><ele>415.6</ele><time>2026-04-04T11:06:25Z</time></trkpt><trkpt lat="43.25903057295191" lon="11.173085777680518"><ele>412.0</ele><time>2026-04-04T11:06:26Z</time></trkpt><trkpt lat="43.25903096497406" lon="11.172928113395514"><ele>411.0</ele><time>2026-04-04T11:06:27Z</time></trkpt><trkpt lat="43.25900438773013" lon="11.172785038666651"><ele>410.0</ele><time>2026-04-04T11:06:28Z</time></trkpt><trkpt lat="43.258966901924644" lon="11.172651290759068"><ele>409.0</ele><time>2026-04-04T11:06:28.999Z</time></trkpt><trkpt lat="43.258930105261115" lon="11.172536905207657"><ele>408.0</ele><time>2026-04-04T11:06:29.999Z</time></trkpt><trkpt lat="43.25888126904261" lon="11.172419031006374"><ele>407.0</ele><time>2026-04-04T11:06:30.999Z</time></trkpt><trkpt lat="43.25881661197829" lon="11.1723119543144"><ele>404.20000000000005</ele><time>2026-04-04T11:06:31.999Z</time></trkpt><trkpt lat="43.258767769408614" lon="11.172219008370835"><ele>401.4</ele><time>2026-04-04T11:06:32.999Z</time></trkpt><trkpt lat="43.25871993439853" lon="11.17210611980023"><ele>398.6</ele><time>2026-04-04T11:06:33.999Z</time></trkpt><trkpt lat="43.258659578622655" lon="11.172005076066855"><ele>395.79999999999995</ele><time>2026-04-04T11:06:34.999Z</time></trkpt><trkpt lat="43.2585923348491" lon="11.171879636191626"><ele>393.0</ele><time>2026-04-04T11:06:35.999Z</time></trkpt><trkpt lat="43.25854362118991" lon="11.17172240894881"><ele>393.0</ele><time>2026-04-04T11:06:36.999Z</time></trkpt><trkpt lat="43.258501759992626" lon="11.171575806538376"><ele>393.0</ele><time>2026-04-04T11:06:37.999Z</time></trkpt><trkpt lat="43.25841927960545" lon="11.171412348083516"><ele>393.0</ele><time>2026-04-04T11:06:38.999Z</time></trkpt><trkpt lat="43.25833954684598" lon="11.171267751423686"><ele>393.0</ele><time>2026-04-04T11:06:39.999Z</time></trkpt><trkpt lat="43.25827038443463" lon="11.17112802243195"><ele>392.75</ele><time>2026-04-04T11:06:40.999Z</time></trkpt><trkpt lat="43.258211340764255" lon="11.170977632023833"><ele>392.5</ele><time>2026-04-04T11:06:41.999Z</time></trkpt><trkpt lat="43.25815027018624" lon="11.170833432084166"><ele>392.25</ele><time>2026-04-04T11:06:42.999Z</time></trkpt><trkpt lat="43.25809221995094" lon="11.170692084399896"><ele>392.0</ele><time>2026-04-04T11:06:43.999Z</time></trkpt><trkpt lat="43.25802865936859" lon="11.170556176061542"><ele>389.25</ele><time>2026-04-04T11:06:44.999Z</time></trkpt><trkpt lat="43.257950070371045" lon="11.170433043729457"><ele>386.5</ele><time>2026-04-04T11:06:45.999Z</time></trkpt><trkpt lat="43.25785971114335" lon="11.170312731301"><ele>383.75</ele><time>2026-04-04T11:06:46.999Z</time></trkpt><trkpt lat="43.257772447486815" lon="11.170204835095081"><ele>381.0</ele><time>2026-04-04T11:06:47.999Z</time></trkpt><trkpt lat="43.25769063837078" lon="11.170080437187528"><ele>381.0</ele><time>2026-04-04T11:06:48.999Z</time></trkpt><trkpt lat="43.257617137686374" lon="11.169923422332053"><ele>381.0</ele><time>2026-04-04T11:06:49.999Z</time></trkpt><trkpt lat="43.25756199453437" lon="11.169761826917933"><ele>381.0</ele><time>2026-04-04T11:06:50.999Z</time></trkpt><trkpt lat="43.25751117479342" lon="11.169572322612984"><ele>381.0</ele><time>2026-04-04T11:06:51.999Z</time></trkpt><trkpt lat="43.25745263693783" lon="11.169389017438949"><ele>380.25</ele><time>2026-04-04T11:06:52.999Z</time></trkpt><trkpt lat="43.257389049521045" lon="11.169208623606208"><ele>379.5</ele><time>2026-04-04T11:06:53.999Z</time></trkpt><trkpt lat="43.25732112501465" lon="11.169029980821357"><ele>378.75</ele><time>2026-04-04T11:06:54.999Z</time></trkpt><trkpt lat="43.25725474528412" lon="11.168851350491584"><ele>378.0</ele><time>2026-04-04T11:06:55.999Z</time></trkpt><trkpt lat="43.257196129856055" lon="11.16865567294402"><ele>375.25</ele><time>2026-04-04T11:06:56.999Z</time></trkpt><trkpt lat="43.257128811931544" lon="11.168476547351963"><ele>372.5</ele><time>2026-04-04T11:06:57.999Z</time></trkpt><trkpt lat="43.25705971716121" lon="11.16828783266661"><ele>369.75</ele><time>2026-04-04T11:06:58.999Z</time></trkpt><trkpt lat="43.257008865535646" lon="11.168106879444997"><ele>367.0</ele><time>2026-04-04T11:06:59.999Z</time></trkpt><trkpt lat="43.256938194125226" lon="11.167900794862776"><ele>362.0</ele><time>2026-04-04T11:07:00.999Z</time></trkpt><trkpt lat="43.25686560785081" lon="11.16768688622861"><ele>357.0</ele><time>2026-04-04T11:07:01.999Z</time></trkpt><trkpt lat="43.256786097875676" lon="11.167473561493207"><ele>352.0</ele><time>2026-04-04T11:07:02.999Z</time></trkpt><trkpt lat="43.25671359444013" lon="11.167271129229999"><ele>350.66666666666663</ele><time>2026-04-04T11:07:03.999Z</time></trkpt><trkpt lat="43.25664651436366" lon="11.167076693361146"><ele>349.3333333333333</ele><time>2026-04-04T11:07:04.999Z</time></trkpt><trkpt lat="43.256577954477336" lon="11.166886347995389"><ele>348.0</ele><time>2026-04-04T11:07:05.999Z</time></trkpt><trkpt lat="43.25651139815775" lon="11.166688496361546"><ele>346.3333333333333</ele><time>2026-04-04T11:07:06.999Z</time></trkpt><trkpt lat="43.25645446420769" lon="11.166498689268693"><ele>344.66666666666663</ele><time>2026-04-04T11:07:07.999Z</time></trkpt><trkpt lat="43.25638452930425" lon="11.166307184646428"><ele>343.0</ele><time>2026-04-04T11:07:08.999Z</time></trkpt><trkpt lat="43.25629960688895" lon="11.166135642869392"><ele>341.25</ele><time>2026-04-04T11:07:09.999Z</time></trkpt><trkpt lat="43.256207588269525" lon="11.165981166320519"><ele>339.5</ele><time>2026-04-04T11:07:10.999Z</time></trkpt><trkpt lat="43.25612166462185" lon="11.165839701140314"><ele>337.75</ele><time>2026-04-04T11:07:11.999Z</time></trkpt><trkpt lat="43.25601709343688" lon="11.165708783790665"><ele>336.0</ele><time>2026-04-04T11:07:12.999Z</time></trkpt><trkpt lat="43.255896008432934" lon="11.165607158888756"><ele>335.25</ele><time>2026-04-04T11:07:13.999Z</time></trkpt><trkpt lat="43.25576079672989" lon="11.16554267995518"><ele>334.5</ele><time>2026-04-04T11:07:14.999Z</time></trkpt><trkpt lat="43.2556396816534" lon="11.165457052802521"><ele>333.75</ele><time>2026-04-04T11:07:15.999Z</time></trkpt><trkpt lat="43.25552509152658" lon="11.16537146608968"><ele>333.0</ele><time>2026-04-04T11:07:16.999Z</time></trkpt><trkpt lat="43.255421353300086" lon="11.165290964878455"><ele>331.75</ele><time>2026-04-04T11:07:17.999Z</time></trkpt><trkpt lat="43.25532556727082" lon="11.16520785840962"><ele>330.5</ele><time>2026-04-04T11:07:18.999Z</time></trkpt><trkpt lat="43.25523246557621" lon="11.1651074373748"><ele>329.25</ele><time>2026-04-04T11:07:19.999Z</time></trkpt><trkpt lat="43.25515398397003" lon="11.164976688157028"><ele>328.0</ele><time>2026-04-04T11:07:20.999Z</time></trkpt><trkpt lat="43.25504603487841" lon="11.164916835542211"><ele>328.0</ele><time>2026-04-04T11:07:21.999Z</time></trkpt><trkpt lat="43.254950372095834" lon="11.164866376052304"><ele>328.0</ele><time>2026-04-04T11:07:22.999Z</time></trkpt><trkpt lat="43.25486992233558" lon="11.164820035823455"><ele>328.0</ele><time>2026-04-04T11:07:23.999Z</time></trkpt><trkpt lat="43.25480365945794" lon="11.164769495063604"><ele>328.0</ele><time>2026-04-04T11:07:24.999Z</time></trkpt><trkpt lat="43.25473697705334" lon="11.16470149424979"><ele>328.0</ele><time>2026-04-04T11:07:25.999Z</time></trkpt><trkpt lat="43.254667781326226" lon="11.164617491607764"><ele>328.0</ele><time>2026-04-04T11:07:27Z</time></trkpt><trkpt lat="43.25460544362637" lon="11.164519235202626"><ele>327.0</ele><time>2026-04-04T11:07:28Z</time></trkpt><trkpt lat="43.25449996754897" lon="11.164479757016851"><ele>326.0</ele><time>2026-04-04T11:07:29Z</time></trkpt><trkpt lat="43.25443840399642" lon="11.164417883510817"><ele>325.0</ele><time>2026-04-04T11:07:30Z</time></trkpt><trkpt lat="43.254389763387984" lon="11.164359058381637"><ele>324.0</ele><time>2026-04-04T11:07:31Z</time></trkpt><trkpt lat="43.2543513784188" lon="11.164269486254648"><ele>323.0</ele><time>2026-04-04T11:07:33Z</time></trkpt><trkpt lat="43.2543759992406" lon="11.164189513037641"><ele>322.0</ele><time>2026-04-04T11:07:35Z</time></trkpt><trkpt lat="43.254476225606076" lon="11.16403482903828"><ele>321.5</ele><time>2026-04-04T11:07:37Z</time></trkpt><trkpt lat="43.25446825418653" lon="11.163905056476413"><ele>321.0</ele><time>2026-04-04T11:07:38Z</time></trkpt><trkpt lat="43.25450628115676" lon="11.163807138519774"><ele>320.5</ele><time>2026-04-04T11:07:39Z</time></trkpt><trkpt lat="43.25453300151403" lon="11.1637185497644"><ele>320.0</ele><time>2026-04-04T11:07:40Z</time></trkpt><trkpt lat="43.25456665956633" lon="11.163604080261749"><ele>319.5</ele><time>2026-04-04T11:07:41Z</time></trkpt><trkpt lat="43.25460253322129" lon="11.16346372791081"><ele>319.0</ele><time>2026-04-04T11:07:42Z</time></trkpt><trkpt lat="43.254632836503966" lon="11.163337154132087"><ele>319.0</ele><time>2026-04-04T11:07:43Z</time></trkpt><trkpt lat="43.25466004751166" lon="11.163223496456759"><ele>319.0</ele><time>2026-04-04T11:07:44Z</time></trkpt><trkpt lat="43.25467032243763" lon="11.163108501051429"><ele>319.0</ele><time>2026-04-04T11:07:45Z</time></trkpt><trkpt lat="43.25470336433042" lon="11.162988393957056"><ele>319.0</ele><time>2026-04-04T11:07:47Z</time></trkpt><trkpt lat="43.2547374186965" lon="11.162876166394716"><ele>319.0</ele><time>2026-04-04T11:08:39Z</time></trkpt><trkpt lat="43.254780523367394" lon="11.162747535109807"><ele>318.8</ele><time>2026-04-04T11:08:41Z</time></trkpt><trkpt lat="43.254821797203164" lon="11.162642668845884"><ele>318.59999999999997</ele><time>2026-04-04T11:08:42Z</time></trkpt><trkpt lat="43.254868459757574" lon="11.162535596106789"><ele>318.4</ele><time>2026-04-04T11:08:43Z</time></trkpt><trkpt lat="43.25491947766345" lon="11.162429185271163"><ele>318.2</ele><time>2026-04-04T11:08:44Z</time></trkpt><trkpt lat="43.25496537653096" lon="11.162342833918306"><ele>318.0</ele><time>2026-04-04T11:08:45Z</time></trkpt><trkpt lat="43.25503617563247" lon="11.162205644759293"><ele>317.0</ele><time>2026-04-04T11:08:46Z</time></trkpt><trkpt lat="43.25506893144201" lon="11.16208367674348"><ele>316.0</ele><time>2026-04-04T11:08:47Z</time></trkpt><trkpt lat="43.25511441336185" lon="11.161975791709574"><ele>315.0</ele><time>2026-04-04T11:08:48Z</time></trkpt><trkpt lat="43.255176513052106" lon="11.161890953538544"><ele>314.0</ele><time>2026-04-04T11:08:49Z</time></trkpt><trkpt lat="43.25522103190203" lon="11.161803849963972"><ele>313.0</ele><time>2026-04-04T11:08:50Z</time></trkpt><trkpt lat="43.255261741291555" lon="11.161712373037448"><ele>312.0</ele><time>2026-04-04T11:08:51Z</time></trkpt><trkpt lat="43.25530785513464" lon="11.161638499345733"><ele>312.0</ele><time>2026-04-04T11:08:52Z</time></trkpt><trkpt lat="43.25534832964582" lon="11.161535752573783"><ele>312.0</ele><time>2026-04-04T11:08:54Z</time></trkpt><trkpt lat="43.25520047947914" lon="11.16147844786447"><ele>312.0</ele><time>2026-04-04T11:08:57.999Z</time></trkpt><trkpt lat="43.25509979909127" lon="11.161570431539033"><ele>312.0</ele><time>2026-04-04T11:08:59.999Z</time></trkpt><trkpt lat="43.25500666544414" lon="11.161619136819201"><ele>312.0</ele><time>2026-04-04T11:09:00.999Z</time></trkpt><trkpt lat="43.254907708755866" lon="11.16169640404302"><ele>312.0</ele><time>2026-04-04T11:09:01.999Z</time></trkpt><trkpt lat="43.25479512818541" lon="11.16178379272503"><ele>312.0</ele><time>2026-04-04T11:09:02.999Z</time></trkpt><trkpt lat="43.2546793720426" lon="11.16187364636164"><ele>312.0</ele><time>2026-04-04T11:09:03.999Z</time></trkpt><trkpt lat="43.254547881376105" lon="11.16197571364807"><ele>311.6666666666667</ele><time>2026-04-04T11:09:04.999Z</time></trkpt><trkpt lat="43.254392198315834" lon="11.162096618120355"><ele>311.33333333333337</ele><time>2026-04-04T11:09:05.999Z</time></trkpt><trkpt lat="43.254242465423346" lon="11.162213819374369"><ele>311.0</ele><time>2026-04-04T11:09:06.999Z</time></trkpt><trkpt lat="43.254074897771716" lon="11.162344980525024"><ele>311.0</ele><time>2026-04-04T11:09:07.999Z</time></trkpt><trkpt lat="43.253919978416654" lon="11.162466241420246"><ele>311.0</ele><time>2026-04-04T11:09:08.999Z</time></trkpt><trkpt lat="43.25377188515665" lon="11.162582159279268"><ele>311.0</ele><time>2026-04-04T11:09:09.999Z</time></trkpt><trkpt lat="43.25363041182337" lon="11.162692895488375"><ele>311.0</ele><time>2026-04-04T11:09:10.999Z</time></trkpt><trkpt lat="43.25348917286354" lon="11.162805152436531"><ele>311.0</ele><time>2026-04-04T11:09:11.999Z</time></trkpt><trkpt lat="43.25335421562007" lon="11.162932833811343"><ele>311.0</ele><time>2026-04-04T11:09:12.999Z</time></trkpt><trkpt lat="43.25321622561542" lon="11.163045071579488"><ele>313.33333333333337</ele><time>2026-04-04T11:09:13.999Z</time></trkpt><trkpt lat="43.25307342614592" lon="11.16319769074046"><ele>315.6666666666667</ele><time>2026-04-04T11:09:14.999Z</time></trkpt><trkpt lat="43.25295252967039" lon="11.163344863115235"><ele>318.0</ele><time>2026-04-04T11:09:15.999Z</time></trkpt><trkpt lat="43.25286460369555" lon="11.163523823317579"><ele>318.0</ele><time>2026-04-04T11:09:16.999Z</time></trkpt><trkpt lat="43.252821740668466" lon="11.16373199622466"><ele>318.0</ele><time>2026-04-04T11:09:17.999Z</time></trkpt><trkpt lat="43.252769839743465" lon="11.163921917784279"><ele>318.0</ele><time>2026-04-04T11:09:18.999Z</time></trkpt><trkpt lat="43.25274171323634" lon="11.1641373404232"><ele>316.0</ele><time>2026-04-04T11:09:19.999Z</time></trkpt><trkpt lat="43.25271371760661" lon="11.164365388998258"><ele>314.0</ele><time>2026-04-04T11:09:20.999Z</time></trkpt><trkpt lat="43.25268781445801" lon="11.164579274937342"><ele>312.0</ele><time>2026-04-04T11:09:21.999Z</time></trkpt><trkpt lat="43.252664591776636" lon="11.164783493998845"><ele>311.0</ele><time>2026-04-04T11:09:22.999Z</time></trkpt><trkpt lat="43.252641973298076" lon="11.164982399746485"><ele>310.0</ele><time>2026-04-04T11:09:23.999Z</time></trkpt><trkpt lat="43.25262016983533" lon="11.165172123974985"><ele>309.0</ele><time>2026-04-04T11:09:24.999Z</time></trkpt><trkpt lat="43.25261196317377" lon="11.16535992252646"><ele>308.0</ele><time>2026-04-04T11:09:25.999Z</time></trkpt><trkpt lat="43.25257874505875" lon="11.165547994406095"><ele>308.0</ele><time>2026-04-04T11:09:26.999Z</time></trkpt><trkpt lat="43.25253732795272" lon="11.1657391780267"><ele>308.0</ele><time>2026-04-04T11:09:27.999Z</time></trkpt><trkpt lat="43.25244662207581" lon="11.165912294483771"><ele>308.0</ele><time>2026-04-04T11:09:28.999Z</time></trkpt><trkpt lat="43.25234700195129" lon="11.166078570303158"><ele>308.6666666666667</ele><time>2026-04-04T11:09:29.999Z</time></trkpt><trkpt lat="43.252237377610115" lon="11.166252037834932"><ele>309.3333333333333</ele><time>2026-04-04T11:09:30.999Z</time></trkpt><trkpt lat="43.252118361623396" lon="11.166429243350033"><ele>310.0</ele><time>2026-04-04T11:09:31.999Z</time></trkpt><trkpt lat="43.251996468858785" lon="11.166608773792348"><ele>310.0</ele><time>2026-04-04T11:09:33Z</time></trkpt><trkpt lat="43.25188088130277" lon="11.166772967108788"><ele>310.0</ele><time>2026-04-04T11:09:34Z</time></trkpt><trkpt lat="43.25176285612871" lon="11.16692351966347"><ele>310.0</ele><time>2026-04-04T11:09:35Z</time></trkpt><trkpt lat="43.25162268373463" lon="11.167069158219027"><ele>310.0</ele><time>2026-04-04T11:09:36Z</time></trkpt><trkpt lat="43.251467125492134" lon="11.16718727901448"><ele>310.0</ele><time>2026-04-04T11:09:37Z</time></trkpt><trkpt lat="43.25129281348254" lon="11.167299186212306"><ele>310.0</ele><time>2026-04-04T11:09:38Z</time></trkpt><trkpt lat="43.251119293737126" lon="11.167414305503895"><ele>310.0</ele><time>2026-04-04T11:09:39Z</time></trkpt><trkpt lat="43.25094190861645" lon="11.167531990852146"><ele>310.0</ele><time>2026-04-04T11:09:40Z</time></trkpt><trkpt lat="43.25077277557246" lon="11.16764413510596"><ele>310.0</ele><time>2026-04-04T11:09:41Z</time></trkpt><trkpt lat="43.25060767879931" lon="11.167753425126602"><ele>309.0</ele><time>2026-04-04T11:09:42Z</time></trkpt><trkpt lat="43.25044674693952" lon="11.167859957860871"><ele>308.0</ele><time>2026-04-04T11:09:43Z</time></trkpt><trkpt lat="43.25027721159244" lon="11.167972185855389"><ele>307.0</ele><time>2026-04-04T11:09:44Z</time></trkpt><trkpt lat="43.250106933308885" lon="11.168083934566079"><ele>307.0</ele><time>2026-04-04T11:09:45Z</time></trkpt><trkpt lat="43.24993138760523" lon="11.168189439547973"><ele>307.0</ele><time>2026-04-04T11:09:46Z</time></trkpt><trkpt lat="43.249748449908665" lon="11.168274953005099"><ele>307.0</ele><time>2026-04-04T11:09:47Z</time></trkpt><trkpt lat="43.24955965619696" lon="11.16834722279149"><ele>306.66666666666663</ele><time>2026-04-04T11:09:48Z</time></trkpt><trkpt lat="43.24937046837039" lon="11.16841453379639"><ele>306.3333333333333</ele><time>2026-04-04T11:09:49Z</time></trkpt><trkpt lat="43.24919345235367" lon="11.168477140448934"><ele>306.0</ele><time>2026-04-04T11:09:50Z</time></trkpt><trkpt lat="43.24903861720983" lon="11.168559255839318"><ele>304.6666666666667</ele><time>2026-04-04T11:09:51Z</time></trkpt><trkpt lat="43.24888787836854" lon="11.16862886429136"><ele>303.33333333333337</ele><time>2026-04-04T11:09:52Z</time></trkpt><trkpt lat="43.24874955834859" lon="11.16871228978328"><ele>302.0</ele><time>2026-04-04T11:09:53Z</time></trkpt><trkpt lat="43.248601158511605" lon="11.168785758665747"><ele>302.0</ele><time>2026-04-04T11:09:54Z</time></trkpt><trkpt lat="43.24845917934187" lon="11.168885076059238"><ele>302.0</ele><time>2026-04-04T11:09:55Z</time></trkpt><trkpt lat="43.24831783763175" lon="11.168994682699802"><ele>302.0</ele><time>2026-04-04T11:09:56Z</time></trkpt><trkpt lat="43.248186470456815" lon="11.169133812252275"><ele>302.6666666666667</ele><time>2026-04-04T11:09:57Z</time></trkpt><trkpt lat="43.24805393376615" lon="11.169266707387338"><ele>303.3333333333333</ele><time>2026-04-04T11:09:58Z</time></trkpt><trkpt lat="43.24792611686694" lon="11.169389894649827"><ele>304.0</ele><time>2026-04-04T11:09:59Z</time></trkpt><trkpt lat="43.24780196619883" lon="11.169539029380879"><ele>304.0</ele><time>2026-04-04T11:10:00Z</time></trkpt><trkpt lat="43.24768684784808" lon="11.169680924161957"><ele>304.0</ele><time>2026-04-04T11:10:01Z</time></trkpt><trkpt lat="43.24758287822599" lon="11.169809076932582"><ele>304.0</ele><time>2026-04-04T11:10:02Z</time></trkpt><trkpt lat="43.24748251240214" lon="11.169932787724022"><ele>304.0</ele><time>2026-04-04T11:10:03Z</time></trkpt><trkpt lat="43.24738736486648" lon="11.170050066429525"><ele>304.4</ele><time>2026-04-04T11:10:04Z</time></trkpt><trkpt lat="43.24729575649658" lon="11.170162982765538"><ele>304.79999999999995</ele><time>2026-04-04T11:10:05Z</time></trkpt><trkpt lat="43.247223414574535" lon="11.17028222946475"><ele>305.20000000000005</ele><time>2026-04-04T11:10:06Z</time></trkpt><trkpt lat="43.24715250830753" lon="11.170368811201818"><ele>305.6</ele><time>2026-04-04T11:10:07Z</time></trkpt><trkpt lat="43.24709290213211" lon="11.170427546353773"><ele>306.0</ele><time>2026-04-04T11:10:08Z</time></trkpt><trkpt lat="43.246986035655254" lon="11.17041718365426"><ele>305.0</ele><time>2026-04-04T11:10:10Z</time></trkpt><trkpt lat="43.246998046668246" lon="11.170250035395503"><ele>304.0</ele><time>2026-04-04T11:10:11Z</time></trkpt><trkpt lat="43.246906193348764" lon="11.1701002767214"><ele>303.0</ele><time>2026-04-04T11:10:13Z</time></trkpt><trkpt lat="43.24683727536008" lon="11.170008754460456"><ele>302.0</ele><time>2026-04-04T11:10:14Z</time></trkpt><trkpt lat="43.24674921328925" lon="11.169936140032593"><ele>302.0</ele><time>2026-04-04T11:10:15Z</time></trkpt><trkpt lat="43.24664500131751" lon="11.169888470416346"><ele>302.0</ele><time>2026-04-04T11:10:16Z</time></trkpt><trkpt lat="43.246540281589326" lon="11.169845427733494"><ele>302.0</ele><time>2026-04-04T11:10:17Z</time></trkpt><trkpt lat="43.24643267812961" lon="11.16980106736179"><ele>302.0</ele><time>2026-04-04T11:10:18Z</time></trkpt><trkpt lat="43.24632503245138" lon="11.169747422773055"><ele>302.0</ele><time>2026-04-04T11:10:19Z</time></trkpt><trkpt lat="43.24621552760408" lon="11.169686709400686"><ele>303.2</ele><time>2026-04-04T11:10:20Z</time></trkpt><trkpt lat="43.24610800445713" lon="11.169619321959535"><ele>304.4</ele><time>2026-04-04T11:10:21Z</time></trkpt><trkpt lat="43.246014688246916" lon="11.169540073095654"><ele>305.6</ele><time>2026-04-04T11:10:22Z</time></trkpt><trkpt lat="43.24593747523933" lon="11.169454455329916"><ele>306.8</ele><time>2026-04-04T11:10:23Z</time></trkpt><trkpt lat="43.2458770915268" lon="11.169365981316442"><ele>308.0</ele><time>2026-04-04T11:10:24Z</time></trkpt><trkpt lat="43.24582942092644" lon="11.16926517884661"><ele>308.0</ele><time>2026-04-04T11:10:25Z</time></trkpt><trkpt lat="43.24579511346821" lon="11.1691468798195"><ele>308.0</ele><time>2026-04-04T11:10:26Z</time></trkpt><trkpt lat="43.24579201348959" lon="11.169030563881318"><ele>308.0</ele><time>2026-04-04T11:10:27Z</time></trkpt><trkpt lat="43.24580085016035" lon="11.168919393280234"><ele>308.0</ele><time>2026-04-04T11:10:28Z</time></trkpt><trkpt lat="43.24580088863788" lon="11.168759325573637"><ele>308.0</ele><time>2026-04-04T11:10:29Z</time></trkpt><trkpt lat="43.24583981476456" lon="11.168608489099562"><ele>308.8</ele><time>2026-04-04T11:10:30Z</time></trkpt><trkpt lat="43.24586538916321" lon="11.168448435172373"><ele>309.6</ele><time>2026-04-04T11:10:31Z</time></trkpt><trkpt lat="43.245889248690695" lon="11.168298795078607"><ele>310.4</ele><time>2026-04-04T11:10:32Z</time></trkpt><trkpt lat="43.24590240463463" lon="11.168173851335995"><ele>311.2</ele><time>2026-04-04T11:10:33Z</time></trkpt><trkpt lat="43.24591668498085" lon="11.168037102474935"><ele>312.0</ele><time>2026-04-04T11:10:34Z</time></trkpt><trkpt lat="43.24592655597542" lon="11.167887467881807"><ele>312.5</ele><time>2026-04-04T11:10:35Z</time></trkpt><trkpt lat="43.245913805638196" lon="11.167725608214125"><ele>313.0</ele><time>2026-04-04T11:10:36Z</time></trkpt><trkpt lat="43.24587306174987" lon="11.167575146669783"><ele>313.5</ele><time>2026-04-04T11:10:37Z</time></trkpt><trkpt lat="43.245827600148246" lon="11.167422865535968"><ele>314.0</ele><time>2026-04-04T11:10:38Z</time></trkpt><trkpt lat="43.245779992328146" lon="11.167262983309929"><ele>315.25</ele><time>2026-04-04T11:10:39Z</time></trkpt><trkpt lat="43.245730457519045" lon="11.167101882010348"><ele>316.5</ele><time>2026-04-04T11:10:40Z</time></trkpt><trkpt lat="43.245680401173956" lon="11.166939085283675"><ele>317.75</ele><time>2026-04-04T11:10:41Z</time></trkpt><trkpt lat="43.24562934094286" lon="11.16677032569584"><ele>319.0</ele><time>2026-04-04T11:10:42Z</time></trkpt><trkpt lat="43.24558146880064" lon="11.16660013461461"><ele>317.8</ele><time>2026-04-04T11:10:43Z</time></trkpt><trkpt lat="43.245540670671296" lon="11.166451699716895"><ele>316.59999999999997</ele><time>2026-04-04T11:10:44Z</time></trkpt><trkpt lat="43.24551230527205" lon="11.166328231761053"><ele>315.4</ele><time>2026-04-04T11:10:45Z</time></trkpt><trkpt lat="43.245497279826985" lon="11.166207785589883"><ele>314.2</ele><time>2026-04-04T11:10:46Z</time></trkpt><trkpt lat="43.24548991036261" lon="11.16607672369121"><ele>313.0</ele><time>2026-04-04T11:10:47Z</time></trkpt><trkpt lat="43.245497470192646" lon="11.165940368456365"><ele>313.0</ele><time>2026-04-04T11:10:48Z</time></trkpt><trkpt lat="43.24551501716645" lon="11.165798094409455"><ele>313.0</ele><time>2026-04-04T11:10:49Z</time></trkpt><trkpt lat="43.245544931885384" lon="11.165662362216018"><ele>313.0</ele><time>2026-04-04T11:10:50Z</time></trkpt><trkpt lat="43.24559252272858" lon="11.16553264235684"><ele>313.0</ele><time>2026-04-04T11:10:51Z</time></trkpt><trkpt lat="43.245653230282436" lon="11.165404695519213"><ele>313.0</ele><time>2026-04-04T11:10:52Z</time></trkpt><trkpt lat="43.24571967527598" lon="11.165294764300329"><ele>315.5</ele><time>2026-04-04T11:10:53Z</time></trkpt><trkpt lat="43.24580054886815" lon="11.16519811686434"><ele>318.0</ele><time>2026-04-04T11:10:54Z</time></trkpt><trkpt lat="43.24589272203548" lon="11.165109674861375"><ele>320.5</ele><time>2026-04-04T11:10:55Z</time></trkpt><trkpt lat="43.245989574299564" lon="11.1650197065519"><ele>323.0</ele><time>2026-04-04T11:10:55.999Z</time></trkpt><trkpt lat="43.246103250530595" lon="11.164942012311888"><ele>323.75</ele><time>2026-04-04T11:10:56.999Z</time></trkpt><trkpt lat="43.24621927237918" lon="11.164861409533057"><ele>324.5</ele><time>2026-04-04T11:10:57.999Z</time></trkpt><trkpt lat="43.246330927846266" lon="11.164784820485952"><ele>325.25</ele><time>2026-04-04T11:10:58.999Z</time></trkpt><trkpt lat="43.24644436667118" lon="11.164708928379511"><ele>326.0</ele><time>2026-04-04T11:10:59.999Z</time></trkpt><trkpt lat="43.246564268953726" lon="11.164622278067652"><ele>327.25</ele><time>2026-04-04T11:11:00.999Z</time></trkpt><trkpt lat="43.2466955361863" lon="11.164535512075851"><ele>328.5</ele><time>2026-04-04T11:11:01.999Z</time></trkpt><trkpt lat="43.24682367713947" lon="11.164447292796055"><ele>329.75</ele><time>2026-04-04T11:11:02.999Z</time></trkpt><trkpt lat="43.24695487681938" lon="11.164356365421897"><ele>331.0</ele><time>2026-04-04T11:11:03.999Z</time></trkpt><trkpt lat="43.2470885844435" lon="11.164270227870091"><ele>331.0</ele><time>2026-04-04T11:11:04.999Z</time></trkpt><trkpt lat="43.247214073303724" lon="11.164182539084123"><ele>331.0</ele><time>2026-04-04T11:11:05.999Z</time></trkpt><trkpt lat="43.24735079999791" lon="11.164118472895527"><ele>331.0</ele><time>2026-04-04T11:11:06.999Z</time></trkpt><trkpt lat="43.24746647002704" lon="11.164022781719192"><ele>331.0</ele><time>2026-04-04T11:11:07.999Z</time></trkpt><trkpt lat="43.247567651169916" lon="11.163960674375277"><ele>333.4</ele><time>2026-04-04T11:11:08.999Z</time></trkpt><trkpt lat="43.2476484130962" lon="11.163904135757184"><ele>335.8</ele><time>2026-04-04T11:11:09.999Z</time></trkpt><trkpt lat="43.24769835650822" lon="11.163824715787856"><ele>338.2</ele><time>2026-04-04T11:11:10.999Z</time></trkpt><trkpt lat="43.24772382109363" lon="11.163697077230688"><ele>340.59999999999997</ele><time>2026-04-04T11:11:11.999Z</time></trkpt><trkpt lat="43.24770878212313" lon="11.16356983154114"><ele>343.0</ele><time>2026-04-04T11:11:12.999Z</time></trkpt><trkpt lat="43.24765856955978" lon="11.163455770506395"><ele>343.0</ele><time>2026-04-04T11:11:13.999Z</time></trkpt><trkpt lat="43.24758338665833" lon="11.163364396308648"><ele>343.0</ele><time>2026-04-04T11:11:14.999Z</time></trkpt><trkpt lat="43.24751257587759" lon="11.163242015105693"><ele>343.0</ele><time>2026-04-04T11:11:15.999Z</time></trkpt><trkpt lat="43.24742055336549" lon="11.163131983493336"><ele>343.0</ele><time>2026-04-04T11:11:16.999Z</time></trkpt><trkpt lat="43.24733067426539" lon="11.163024749761249"><ele>343.0</ele><time>2026-04-04T11:11:17.999Z</time></trkpt><trkpt lat="43.24724909979543" lon="11.162913261800238"><ele>343.0</ele><time>2026-04-04T11:11:18.999Z</time></trkpt><trkpt lat="43.24717612298603" lon="11.162795424175469"><ele>343.0</ele><time>2026-04-04T11:11:19.999Z</time></trkpt><trkpt lat="43.247113372184174" lon="11.162670611362467"><ele>343.0</ele><time>2026-04-04T11:11:20.999Z</time></trkpt><trkpt lat="43.24706013260883" lon="11.162537741838275"><ele>343.0</ele><time>2026-04-04T11:11:21.999Z</time></trkpt><trkpt lat="43.2470218763159" lon="11.162385349568394"><ele>344.75</ele><time>2026-04-04T11:11:22.999Z</time></trkpt><trkpt lat="43.2469951579781" lon="11.16223311353502"><ele>346.5</ele><time>2026-04-04T11:11:23.999Z</time></trkpt><trkpt lat="43.24697150165597" lon="11.162084499293801"><ele>348.25</ele><time>2026-04-04T11:11:24.999Z</time></trkpt><trkpt lat="43.24694691635288" lon="11.16192887780242"><ele>350.0</ele><time>2026-04-04T11:11:25.999Z</time></trkpt><trkpt lat="43.24692239572883" lon="11.161769443864907"><ele>350.0</ele><time>2026-04-04T11:11:26.999Z</time></trkpt><trkpt lat="43.2469021740182" lon="11.161604194709739"><ele>350.0</ele><time>2026-04-04T11:11:27.999Z</time></trkpt><trkpt lat="43.24688882611315" lon="11.161444105315036"><ele>350.0</ele><time>2026-04-04T11:11:28.999Z</time></trkpt><trkpt lat="43.246878782153956" lon="11.161305671415683"><ele>350.0</ele><time>2026-04-04T11:11:29.999Z</time></trkpt><trkpt lat="43.24687471412343" lon="11.161189044865406"><ele>350.0</ele><time>2026-04-04T11:11:30.999Z</time></trkpt><trkpt lat="43.246883742986256" lon="11.16107168720799"><ele>350.33333333333337</ele><time>2026-04-04T11:11:31.999Z</time></trkpt><trkpt lat="43.24690341859442" lon="11.1609701705948"><ele>350.6666666666667</ele><time>2026-04-04T11:11:32.999Z</time></trkpt><trkpt lat="43.24692525818588" lon="11.1608312165533"><ele>351.0</ele><time>2026-04-04T11:11:33.999Z</time></trkpt><trkpt lat="43.24696239880995" lon="11.16071479246218"><ele>351.3333333333333</ele><time>2026-04-04T11:11:34.999Z</time></trkpt><trkpt lat="43.24701611280998" lon="11.160625737886845"><ele>351.66666666666663</ele><time>2026-04-04T11:11:35.999Z</time></trkpt><trkpt lat="43.247048704727455" lon="11.160542514134299"><ele>352.0</ele><time>2026-04-04T11:11:36.999Z</time></trkpt><trkpt lat="43.24710779759575" lon="11.16050628010545"><ele>352.0</ele><time>2026-04-04T11:11:38Z</time></trkpt><trkpt lat="43.24720853510175" lon="11.160567652809062"><ele>352.0</ele><time>2026-04-04T11:11:40Z</time></trkpt><trkpt lat="43.247238710708395" lon="11.160654276382461"><ele>352.0</ele><time>2026-04-04T11:11:41Z</time></trkpt><trkpt lat="43.24726493489415" lon="11.16076220838545"><ele>352.0</ele><time>2026-04-04T11:11:42Z</time></trkpt><trkpt lat="43.24731531829632" lon="11.160883323527901"><ele>352.0</ele><time>2026-04-04T11:11:43Z</time></trkpt><trkpt lat="43.247353933938456" lon="11.160996757442206"><ele>355.0</ele><time>2026-04-04T11:11:44Z</time></trkpt><trkpt lat="43.247399201551126" lon="11.161074197354356"><ele>358.0</ele><time>2026-04-04T11:11:45Z</time></trkpt><trkpt lat="43.24747102558424" lon="11.161117681467559"><ele>361.0</ele><time>2026-04-04T11:11:46Z</time></trkpt><trkpt lat="43.24754819594029" lon="11.16109625915075"><ele>364.0</ele><time>2026-04-04T11:11:47Z</time></trkpt><trkpt lat="43.24761203436178" lon="11.161037478560749"><ele>367.0</ele><time>2026-04-04T11:11:48Z</time></trkpt><trkpt lat="43.247651638363386" lon="11.160937933948405"><ele>370.0</ele><time>2026-04-04T11:11:49Z</time></trkpt><trkpt lat="43.2476809563339" lon="11.16080920773243"><ele>370.8</ele><time>2026-04-04T11:11:50Z</time></trkpt><trkpt lat="43.24768802870959" lon="11.16066716835209"><ele>371.6</ele><time>2026-04-04T11:11:51Z</time></trkpt><trkpt lat="43.247689012229436" lon="11.160496153259082"><ele>372.4</ele><time>2026-04-04T11:11:52Z</time></trkpt><trkpt lat="43.24768305831537" lon="11.160335932546692"><ele>373.2</ele><time>2026-04-04T11:11:53Z</time></trkpt><trkpt lat="43.24767532559232" lon="11.16019399000305"><ele>374.0</ele><time>2026-04-04T11:11:54Z</time></trkpt><trkpt lat="43.24766666427298" lon="11.16003785402168"><ele>374.0</ele><time>2026-04-04T11:11:55Z</time></trkpt><trkpt lat="43.24765789610566" lon="11.159879791908025"><ele>374.0</ele><time>2026-04-04T11:11:56Z</time></trkpt><trkpt lat="43.24764835624086" lon="11.15970781807293"><ele>374.0</ele><time>2026-04-04T11:11:57Z</time></trkpt><trkpt lat="43.24763863390738" lon="11.159529155297731"><ele>374.0</ele><time>2026-04-04T11:11:58Z</time></trkpt><trkpt lat="43.2476298985299" lon="11.15935414506893"><ele>375.0</ele><time>2026-04-04T11:11:59Z</time></trkpt><trkpt lat="43.24762573966373" lon="11.15919504215746"><ele>376.0</ele><time>2026-04-04T11:12:00Z</time></trkpt><trkpt lat="43.24762902784006" lon="11.159050042801253"><ele>377.0</ele><time>2026-04-04T11:12:01Z</time></trkpt><trkpt lat="43.24763917757783" lon="11.158915084251703"><ele>378.0</ele><time>2026-04-04T11:12:02Z</time></trkpt><trkpt lat="43.247662473153326" lon="11.158782531297547"><ele>379.0</ele><time>2026-04-04T11:12:03Z</time></trkpt><trkpt lat="43.24769792675537" lon="11.158656670869949"><ele>379.0</ele><time>2026-04-04T11:12:04Z</time></trkpt><trkpt lat="43.2477513659254" lon="11.158528607613492"><ele>379.0</ele><time>2026-04-04T11:12:05Z</time></trkpt><trkpt lat="43.247815093391075" lon="11.1583815027742"><ele>379.0</ele><time>2026-04-04T11:12:06Z</time></trkpt><trkpt lat="43.24788153581427" lon="11.158235119331088"><ele>379.0</ele><time>2026-04-04T11:12:07Z</time></trkpt><trkpt lat="43.24794897215067" lon="11.158075497008793"><ele>379.0</ele><time>2026-04-04T11:12:08Z</time></trkpt><trkpt lat="43.24800280416585" lon="11.157924457384341"><ele>379.0</ele><time>2026-04-04T11:12:09Z</time></trkpt><trkpt lat="43.24805585523088" lon="11.157753562599112"><ele>379.0</ele><time>2026-04-04T11:12:10Z</time></trkpt><trkpt lat="43.24809538133751" lon="11.157572532752171"><ele>379.0</ele><time>2026-04-04T11:12:11Z</time></trkpt><trkpt lat="43.24811379713375" lon="11.157388744424845"><ele>380.5</ele><time>2026-04-04T11:12:12Z</time></trkpt><trkpt lat="43.24811484576675" lon="11.157198264321556"><ele>382.0</ele><time>2026-04-04T11:12:13Z</time></trkpt><trkpt lat="43.248102828759976" lon="11.157017288090987"><ele>383.5</ele><time>2026-04-04T11:12:14Z</time></trkpt><trkpt lat="43.248079376983156" lon="11.156832020796225"><ele>385.0</ele><time>2026-04-04T11:12:15Z</time></trkpt><trkpt lat="43.24804690434076" lon="11.156653735037867"><ele>387.75</ele><time>2026-04-04T11:12:16Z</time></trkpt><trkpt lat="43.248005082035164" lon="11.156470985806838"><ele>390.5</ele><time>2026-04-04T11:12:17Z</time></trkpt><trkpt lat="43.24796817697879" lon="11.156300551182738"><ele>393.25</ele><time>2026-04-04T11:12:18Z</time></trkpt><trkpt lat="43.247942235847326" lon="11.156153125878387"><ele>396.0</ele><time>2026-04-04T11:12:19Z</time></trkpt><trkpt lat="43.247929579002125" lon="11.156020938026831"><ele>396.0</ele><time>2026-04-04T11:12:20Z</time></trkpt><trkpt lat="43.24791574883789" lon="11.155869515547025"><ele>396.0</ele><time>2026-04-04T11:12:21Z</time></trkpt><trkpt lat="43.247894179315125" lon="11.155705749324593"><ele>396.0</ele><time>2026-04-04T11:12:22Z</time></trkpt><trkpt lat="43.24785096211241" lon="11.155548359398418"><ele>396.0</ele><time>2026-04-04T11:12:23Z</time></trkpt><trkpt lat="43.2478021284747" lon="11.155402579541352"><ele>397.4</ele><time>2026-04-04T11:12:24Z</time></trkpt><trkpt lat="43.24776269784378" lon="11.155257169752684"><ele>398.8</ele><time>2026-04-04T11:12:25Z</time></trkpt><trkpt lat="43.247737489026825" lon="11.155145557468103"><ele>400.2</ele><time>2026-04-04T11:12:26Z</time></trkpt><trkpt lat="43.247726838081064" lon="11.155033329279085"><ele>401.59999999999997</ele><time>2026-04-04T11:12:27Z</time></trkpt><trkpt lat="43.247742661965844" lon="11.154912515389226"><ele>403.0</ele><time>2026-04-04T11:12:28Z</time></trkpt><trkpt lat="43.24776909834351" lon="11.154752732258817"><ele>403.5</ele><time>2026-04-04T11:12:29Z</time></trkpt><trkpt lat="43.24780469549866" lon="11.15457339967784"><ele>404.0</ele><time>2026-04-04T11:12:30Z</time></trkpt><trkpt lat="43.24784086370018" lon="11.154402297377379"><ele>404.5</ele><time>2026-04-04T11:12:31Z</time></trkpt><trkpt lat="43.247875862395084" lon="11.154251024094094"><ele>405.0</ele><time>2026-04-04T11:12:32Z</time></trkpt><trkpt lat="43.247909465825764" lon="11.154130158687547"><ele>405.0</ele><time>2026-04-04T11:12:33Z</time></trkpt><trkpt lat="43.24794491902809" lon="11.154016449016677"><ele>405.0</ele><time>2026-04-04T11:12:34Z</time></trkpt><trkpt lat="43.24798231000396" lon="11.15393611605233"><ele>405.0</ele><time>2026-04-04T11:12:35Z</time></trkpt><trkpt lat="43.24806214830819" lon="11.153884053276926"><ele>405.0</ele><time>2026-04-04T11:12:37Z</time></trkpt><trkpt lat="43.24810897781805" lon="11.15402664311246"><ele>405.0</ele><time>2026-04-04T11:12:39Z</time></trkpt><trkpt lat="43.248093943547424" lon="11.15413627402073"><ele>405.0</ele><time>2026-04-04T11:12:40Z</time></trkpt><trkpt lat="43.24805565641201" lon="11.154276832579898"><ele>405.0</ele><time>2026-04-04T11:12:41Z</time></trkpt><trkpt lat="43.2480742627961" lon="11.15439644375592"><ele>405.0</ele><time>2026-04-04T11:12:42Z</time></trkpt><trkpt lat="43.248105008247315" lon="11.15448598202169"><ele>405.0</ele><time>2026-04-04T11:12:43Z</time></trkpt><trkpt lat="43.24817070878012" lon="11.154545439523876"><ele>405.0</ele><time>2026-04-04T11:12:44Z</time></trkpt><trkpt lat="43.248248723787896" lon="11.154592393565284"><ele>405.0</ele><time>2026-04-04T11:12:45Z</time></trkpt><trkpt lat="43.24833508403806" lon="11.15457198051117"><ele>405.0</ele><time>2026-04-04T11:12:46Z</time></trkpt><trkpt lat="43.248403016778575" lon="11.154516964499901"><ele>408.0</ele><time>2026-04-04T11:12:47Z</time></trkpt><trkpt lat="43.24846246357712" lon="11.154426936216632"><ele>411.0</ele><time>2026-04-04T11:12:48Z</time></trkpt><trkpt lat="43.248518416164536" lon="11.154327566014686"><ele>414.0</ele><time>2026-04-04T11:12:49Z</time></trkpt><trkpt lat="43.24858948169768" lon="11.154225173550472"><ele>417.0</ele><time>2026-04-04T11:12:50Z</time></trkpt><trkpt lat="43.24867694778834" lon="11.154141034142443"><ele>420.0</ele><time>2026-04-04T11:12:51Z</time></trkpt><trkpt lat="43.248777415182836" lon="11.154079554199235"><ele>421.5</ele><time>2026-04-04T11:12:52Z</time></trkpt><trkpt lat="43.248886038069685" lon="11.154016985563397"><ele>423.0</ele><time>2026-04-04T11:12:53Z</time></trkpt><trkpt lat="43.248998779675716" lon="11.153934096995789"><ele>424.5</ele><time>2026-04-04T11:12:54Z</time></trkpt><trkpt lat="43.249102425510465" lon="11.153840681497803"><ele>426.0</ele><time>2026-04-04T11:12:55Z</time></trkpt><trkpt lat="43.24918500059686" lon="11.153729644590783"><ele>427.5</ele><time>2026-04-04T11:12:56Z</time></trkpt><trkpt lat="43.249248888035154" lon="11.153596747193417"><ele>429.0</ele><time>2026-04-04T11:12:57Z</time></trkpt><trkpt lat="43.24930061677875" lon="11.153442676764932"><ele>430.5</ele><time>2026-04-04T11:12:58Z</time></trkpt><trkpt lat="43.249334677419824" lon="11.15327530501734"><ele>432.0</ele><time>2026-04-04T11:12:59Z</time></trkpt><trkpt lat="43.24938032969947" lon="11.153091725358884"><ele>433.25</ele><time>2026-04-04T11:12:59.999Z</time></trkpt><trkpt lat="43.249398390635925" lon="11.152901194973822"><ele>434.5</ele><time>2026-04-04T11:13:00.999Z</time></trkpt><trkpt lat="43.24938012339232" lon="11.152742803476785"><ele>435.75</ele><time>2026-04-04T11:13:01.999Z</time></trkpt><trkpt lat="43.24935800924447" lon="11.152584112847618"><ele>437.0</ele><time>2026-04-04T11:13:02.999Z</time></trkpt><trkpt lat="43.24930859241615" lon="11.152412506617685"><ele>437.5</ele><time>2026-04-04T11:13:03.999Z</time></trkpt><trkpt lat="43.24926896826707" lon="11.152221482944771"><ele>438.0</ele><time>2026-04-04T11:13:04.999Z</time></trkpt><trkpt lat="43.24922879688406" lon="11.152044246484023"><ele>438.5</ele><time>2026-04-04T11:13:05.999Z</time></trkpt><trkpt lat="43.2491979333763" lon="11.15186391136513"><ele>439.0</ele><time>2026-04-04T11:13:06.999Z</time></trkpt><trkpt lat="43.249169896507695" lon="11.151675413909048"><ele>439.5</ele><time>2026-04-04T11:13:07.999Z</time></trkpt><trkpt lat="43.2491439127017" lon="11.151488285880212"><ele>440.0</ele><time>2026-04-04T11:13:08.999Z</time></trkpt><trkpt lat="43.24912010111002" lon="11.151306379530958"><ele>440.5</ele><time>2026-04-04T11:13:09.999Z</time></trkpt><trkpt lat="43.24909682523138" lon="11.151126963227759"><ele>441.0</ele><time>2026-04-04T11:13:10.999Z</time></trkpt><trkpt lat="43.24907628265063" lon="11.150953483034504"><ele>441.0</ele><time>2026-04-04T11:13:11.999Z</time></trkpt><trkpt lat="43.249058935901125" lon="11.150777870314574"><ele>441.0</ele><time>2026-04-04T11:13:12.999Z</time></trkpt><trkpt lat="43.249047615224825" lon="11.150598131277631"><ele>441.0</ele><time>2026-04-04T11:13:13.999Z</time></trkpt><trkpt lat="43.24904413557207" lon="11.15042732062947"><ele>441.0</ele><time>2026-04-04T11:13:14.999Z</time></trkpt><trkpt lat="43.249048257029465" lon="11.150274647023245"><ele>441.8</ele><time>2026-04-04T11:13:15.999Z</time></trkpt><trkpt lat="43.249053401422515" lon="11.1501280822644"><ele>442.6</ele><time>2026-04-04T11:13:16.999Z</time></trkpt><trkpt lat="43.249059248678286" lon="11.149976324128868"><ele>443.4</ele><time>2026-04-04T11:13:17.999Z</time></trkpt><trkpt lat="43.2490679344776" lon="11.149827153845202"><ele>444.2</ele><time>2026-04-04T11:13:18.999Z</time></trkpt><trkpt lat="43.24907719678562" lon="11.149685937178996"><ele>445.0</ele><time>2026-04-04T11:13:19.999Z</time></trkpt><trkpt lat="43.24908634208942" lon="11.149546660905333"><ele>446.0</ele><time>2026-04-04T11:13:20.999Z</time></trkpt><trkpt lat="43.24910126863477" lon="11.149413622746232"><ele>447.0</ele><time>2026-04-04T11:13:21.999Z</time></trkpt><trkpt lat="43.24910941218233" lon="11.14927138487993"><ele>448.0</ele><time>2026-04-04T11:13:22.999Z</time></trkpt><trkpt lat="43.24912863308311" lon="11.149104597448883"><ele>449.0</ele><time>2026-04-04T11:13:23.999Z</time></trkpt><trkpt lat="43.249173249722745" lon="11.14893667905788"><ele>449.0</ele><time>2026-04-04T11:13:24.999Z</time></trkpt><trkpt lat="43.24920426898534" lon="11.14876708443668"><ele>449.0</ele><time>2026-04-04T11:13:25.999Z</time></trkpt><trkpt lat="43.24923593172567" lon="11.148592949949778"><ele>449.0</ele><time>2026-04-04T11:13:26.999Z</time></trkpt><trkpt lat="43.2492664232359" lon="11.148411067177763"><ele>449.0</ele><time>2026-04-04T11:13:27.999Z</time></trkpt><trkpt lat="43.249293116226895" lon="11.14824178401201"><ele>449.75</ele><time>2026-04-04T11:13:28.999Z</time></trkpt><trkpt lat="43.24931820405362" lon="11.148063314404155"><ele>450.5</ele><time>2026-04-04T11:13:29.999Z</time></trkpt><trkpt lat="43.249344664301546" lon="11.147871314787139"><ele>451.25</ele><time>2026-04-04T11:13:30.999Z</time></trkpt><trkpt lat="43.24937170056656" lon="11.14767852502907"><ele>452.0</ele><time>2026-04-04T11:13:31.999Z</time></trkpt><trkpt lat="43.24938211694351" lon="11.14748504266425"><ele>453.25</ele><time>2026-04-04T11:13:32.999Z</time></trkpt><trkpt lat="43.2494285796248" lon="11.147290947309004"><ele>454.5</ele><time>2026-04-04T11:13:33.999Z</time></trkpt><trkpt lat="43.249459527943536" lon="11.147092196086097"><ele>455.75</ele><time>2026-04-04T11:13:34.999Z</time></trkpt><trkpt lat="43.24949013787436" lon="11.146904980146338"><ele>457.0</ele><time>2026-04-04T11:13:35.999Z</time></trkpt><trkpt lat="43.2495230991007" lon="11.14672622995277"><ele>457.0</ele><time>2026-04-04T11:13:36.999Z</time></trkpt><trkpt lat="43.24955583076738" lon="11.146553975317946"><ele>457.0</ele><time>2026-04-04T11:13:37.999Z</time></trkpt><trkpt lat="43.24956824217764" lon="11.146387549916733"><ele>457.0</ele><time>2026-04-04T11:13:38.999Z</time></trkpt><trkpt lat="43.24954663479796" lon="11.146209831537403"><ele>457.0</ele><time>2026-04-04T11:13:39.999Z</time></trkpt><trkpt lat="43.24951706685029" lon="11.146043191703638"><ele>457.75</ele><time>2026-04-04T11:13:40.999Z</time></trkpt><trkpt lat="43.24946077153669" lon="11.145880233091688"><ele>458.5</ele><time>2026-04-04T11:13:41.999Z</time></trkpt><trkpt lat="43.24940015922135" lon="11.14572089215962"><ele>459.25</ele><time>2026-04-04T11:13:42.999Z</time></trkpt><trkpt lat="43.2493304200981" lon="11.14556531831454"><ele>460.0</ele><time>2026-04-04T11:13:44Z</time></trkpt><trkpt lat="43.249259061092566" lon="11.145415399419727"><ele>460.75</ele><time>2026-04-04T11:13:45Z</time></trkpt><trkpt lat="43.249183900320745" lon="11.145264797581193"><ele>461.5</ele><time>2026-04-04T11:13:46Z</time></trkpt><trkpt lat="43.249112345309726" lon="11.145126692710187"><ele>462.25</ele><time>2026-04-04T11:13:47Z</time></trkpt><trkpt lat="43.249038367232764" lon="11.144990959294717"><ele>463.0</ele><time>2026-04-04T11:13:48Z</time></trkpt><trkpt lat="43.24896241658345" lon="11.144854599614085"><ele>467.0</ele><time>2026-04-04T11:13:49Z</time></trkpt><trkpt lat="43.248883988943234" lon="11.14471280637406"><ele>471.0</ele><time>2026-04-04T11:13:50Z</time></trkpt><trkpt lat="43.24880675366725" lon="11.144568860631962"><ele>475.0</ele><time>2026-04-04T11:13:51Z</time></trkpt><trkpt lat="43.24872970380885" lon="11.144422649647248"><ele>479.0</ele><time>2026-04-04T11:13:52Z</time></trkpt><trkpt lat="43.24864894289546" lon="11.144269395995977"><ele>479.0</ele><time>2026-04-04T11:13:53Z</time></trkpt><trkpt lat="43.248571026348806" lon="11.144122495506148"><ele>479.0</ele><time>2026-04-04T11:13:54Z</time></trkpt><trkpt lat="43.24848948654668" lon="11.143970324174584"><ele>479.0</ele><time>2026-04-04T11:13:55Z</time></trkpt><trkpt lat="43.24841774797612" lon="11.14383089568931"><ele>479.0</ele><time>2026-04-04T11:13:56Z</time></trkpt><trkpt lat="43.248359917535666" lon="11.143703883030867"><ele>479.6</ele><time>2026-04-04T11:13:57Z</time></trkpt><trkpt lat="43.24832462021596" lon="11.143584968357569"><ele>480.2</ele><time>2026-04-04T11:13:58Z</time></trkpt><trkpt lat="43.24828859875022" lon="11.14345639109825"><ele>480.80000000000007</ele><time>2026-04-04T11:13:59Z</time></trkpt><trkpt lat="43.248239706536275" lon="11.14333961920556"><ele>481.40000000000003</ele><time>2026-04-04T11:14:00Z</time></trkpt><trkpt lat="43.24819813067292" lon="11.143238890064595"><ele>482.0</ele><time>2026-04-04T11:14:01Z</time></trkpt><trkpt lat="43.248141399413974" lon="11.143165106419533"><ele>484.49999999999994</ele><time>2026-04-04T11:14:02Z</time></trkpt><trkpt lat="43.24807323809638" lon="11.143124067413993"><ele>487.0</ele><time>2026-04-04T11:14:03Z</time></trkpt><trkpt lat="43.24799398743292" lon="11.14311646234646"><ele>489.5</ele><time>2026-04-04T11:14:04Z</time></trkpt><trkpt lat="43.24792109249495" lon="11.14314857094958"><ele>492.0</ele><time>2026-04-04T11:14:05Z</time></trkpt><trkpt lat="43.24786048165783" lon="11.143218595033117"><ele>494.49999999999994</ele><time>2026-04-04T11:14:06Z</time></trkpt><trkpt lat="43.24782362100773" lon="11.143315568111541"><ele>497.0</ele><time>2026-04-04T11:14:07Z</time></trkpt><trkpt lat="43.24780907357578" lon="11.143426333792979"><ele>497.0</ele><time>2026-04-04T11:14:08Z</time></trkpt><trkpt lat="43.24780240183752" lon="11.143565341357895"><ele>497.00000000000006</ele><time>2026-04-04T11:14:09Z</time></trkpt><trkpt lat="43.247769587649685" lon="11.143705226911031"><ele>497.00000000000006</ele><time>2026-04-04T11:14:10Z</time></trkpt><trkpt lat="43.247739196063826" lon="11.143806578833033"><ele>497.0</ele><time>2026-04-04T11:14:11Z</time></trkpt><trkpt lat="43.24770778108584" lon="11.143899944519184"><ele>497.0</ele><time>2026-04-04T11:14:12Z</time></trkpt><trkpt lat="43.247624153984496" lon="11.143934632408737"><ele>497.0</ele><time>2026-04-04T11:14:13Z</time></trkpt><trkpt lat="43.247542296904946" lon="11.143963580046407"><ele>497.00000000000006</ele><time>2026-04-04T11:14:14Z</time></trkpt><trkpt lat="43.24745597181571" lon="11.144020742071714"><ele>497.00000000000006</ele><time>2026-04-04T11:14:15Z</time></trkpt><trkpt lat="43.24735819427594" lon="11.144085439578946"><ele>497.0</ele><time>2026-04-04T11:14:16Z</time></trkpt><trkpt lat="43.247259870529675" lon="11.14416479397739"><ele>497.0</ele><time>2026-04-04T11:14:17Z</time></trkpt><trkpt lat="43.247162023884464" lon="11.144230661403263"><ele>499.40000000000003</ele><time>2026-04-04T11:14:18Z</time></trkpt><trkpt lat="43.24706038441682" lon="11.14427039727749"><ele>501.80000000000007</ele><time>2026-04-04T11:14:19Z</time></trkpt><trkpt lat="43.2469369261854" lon="11.144304406223501"><ele>504.2</ele><time>2026-04-04T11:14:20Z</time></trkpt><trkpt lat="43.24682748317717" lon="11.14431210567871"><ele>506.6</ele><time>2026-04-04T11:14:21Z</time></trkpt><trkpt lat="43.24673711057251" lon="11.144302815473369"><ele>509.0</ele><time>2026-04-04T11:14:22Z</time></trkpt><trkpt lat="43.246657723676456" lon="11.144299391495267"><ele>509.0</ele><time>2026-04-04T11:14:23Z</time></trkpt><trkpt lat="43.24657318394255" lon="11.144319582857982"><ele>509.0</ele><time>2026-04-04T11:14:24Z</time></trkpt><trkpt lat="43.246503462631125" lon="11.144446179214334"><ele>509.0</ele><time>2026-04-04T11:14:25Z</time></trkpt><trkpt lat="43.24642500138204" lon="11.14453681337097"><ele>509.0</ele><time>2026-04-04T11:14:26Z</time></trkpt><trkpt lat="43.246342939626366" lon="11.144637462864127"><ele>509.0</ele><time>2026-04-04T11:14:27Z</time></trkpt><trkpt lat="43.24625298548505" lon="11.144745189824686"><ele>509.2</ele><time>2026-04-04T11:14:28Z</time></trkpt><trkpt lat="43.246162716035165" lon="11.144844671071343"><ele>509.4</ele><time>2026-04-04T11:14:29Z</time></trkpt><trkpt lat="43.246074036405176" lon="11.144932227669676"><ele>509.6</ele><time>2026-04-04T11:14:30Z</time></trkpt><trkpt lat="43.24599887376734" lon="11.144998469718212"><ele>509.8</ele><time>2026-04-04T11:14:31Z</time></trkpt><trkpt lat="43.24593075279329" lon="11.145026453778817"><ele>510.0</ele><time>2026-04-04T11:14:32Z</time></trkpt><trkpt lat="43.24581981934135" lon="11.145010894375352"><ele>510.0</ele><time>2026-04-04T11:14:34Z</time></trkpt><trkpt lat="43.245770542155846" lon="11.144903300573173"><ele>510.0</ele><time>2026-04-04T11:14:36Z</time></trkpt><trkpt lat="43.24578553232972" lon="11.144761582247302"><ele>510.0</ele><time>2026-04-04T11:14:38Z</time></trkpt><trkpt lat="43.24578878037461" lon="11.144636714467122"><ele>510.0</ele><time>2026-04-04T11:14:40Z</time></trkpt><trkpt lat="43.24580836055905" lon="11.144464704123003"><ele>510.0</ele><time>2026-04-04T11:14:42Z</time></trkpt><trkpt lat="43.24582192443761" lon="11.144345961641843"><ele>511.6</ele><time>2026-04-04T11:14:43Z</time></trkpt><trkpt lat="43.245834508697655" lon="11.144215210632096"><ele>513.2</ele><time>2026-04-04T11:14:44Z</time></trkpt><trkpt lat="43.24584745655045" lon="11.14408328367758"><ele>514.8</ele><time>2026-04-04T11:14:45Z</time></trkpt><trkpt lat="43.24586630778939" lon="11.143944085186142"><ele>516.4</ele><time>2026-04-04T11:14:46Z</time></trkpt><trkpt lat="43.245884095036715" lon="11.143799541249061"><ele>518.0</ele><time>2026-04-04T11:14:47Z</time></trkpt><trkpt lat="43.24590677628951" lon="11.143646376236841"><ele>518.5</ele><time>2026-04-04T11:14:48Z</time></trkpt><trkpt lat="43.245922179442914" lon="11.14347165469269"><ele>519.0</ele><time>2026-04-04T11:14:49Z</time></trkpt><trkpt lat="43.24594142548256" lon="11.143293778301572"><ele>519.5</ele><time>2026-04-04T11:14:50Z</time></trkpt><trkpt lat="43.24596493294547" lon="11.143127039410773"><ele>520.0</ele><time>2026-04-04T11:14:51Z</time></trkpt><trkpt lat="43.24597445459583" lon="11.14297990920734"><ele>520.0</ele><time>2026-04-04T11:14:52Z</time></trkpt><trkpt lat="43.24598127498002" lon="11.14283698876934"><ele>520.0</ele><time>2026-04-04T11:14:53Z</time></trkpt><trkpt lat="43.24598779332982" lon="11.142694508868482"><ele>520.0</ele><time>2026-04-04T11:14:54Z</time></trkpt><trkpt lat="43.245993032680644" lon="11.142564229074344"><ele>520.0</ele><time>2026-04-04T11:14:55Z</time></trkpt><trkpt lat="43.24599802967295" lon="11.142438635488583"><ele>520.0</ele><time>2026-04-04T11:14:56Z</time></trkpt><trkpt lat="43.24600288563639" lon="11.142325275142776"><ele>520.0</ele><time>2026-04-04T11:14:57Z</time></trkpt><trkpt lat="43.24600853187928" lon="11.14220833235901"><ele>520.0</ele><time>2026-04-04T11:14:58Z</time></trkpt><trkpt lat="43.24601437291624" lon="11.142087354884698"><ele>520.0</ele><time>2026-04-04T11:14:59Z</time></trkpt><trkpt lat="43.246019528842474" lon="11.141980567175892"><ele>520.0</ele><time>2026-04-04T11:15:00Z</time></trkpt><trkpt lat="43.24602477087568" lon="11.141884583925597"><ele>520.0</ele><time>2026-04-04T11:15:01Z</time></trkpt><trkpt lat="43.24603070613599" lon="11.141793194398996"><ele>520.0</ele><time>2026-04-04T11:15:02Z</time></trkpt><trkpt lat="43.24604182622075" lon="11.141691269394178"><ele>520.0</ele><time>2026-04-04T11:15:03Z</time></trkpt><trkpt lat="43.24605262447889" lon="11.141571209455098"><ele>520.0</ele><time>2026-04-04T11:15:04Z</time></trkpt><trkpt lat="43.24609243720548" lon="11.141472220509577"><ele>520.0</ele><time>2026-04-04T11:15:05Z</time></trkpt><trkpt lat="43.24614698048882" lon="11.141381952131203"><ele>520.0</ele><time>2026-04-04T11:15:06Z</time></trkpt><trkpt lat="43.246196215459214" lon="11.141264568566397"><ele>520.0</ele><time>2026-04-04T11:15:07Z</time></trkpt><trkpt lat="43.246243103157845" lon="11.14113778359438"><ele>520.4</ele><time>2026-04-04T11:15:08Z</time></trkpt><trkpt lat="43.2462845080581" lon="11.141008075506"><ele>520.8</ele><time>2026-04-04T11:15:09Z</time></trkpt><trkpt lat="43.24632398326533" lon="11.140871736429942"><ele>521.2</ele><time>2026-04-04T11:15:10Z</time></trkpt><trkpt lat="43.24634985710751" lon="11.1407345185644"><ele>521.6</ele><time>2026-04-04T11:15:11Z</time></trkpt><trkpt lat="43.246377932145144" lon="11.14059358078353"><ele>522.0</ele><time>2026-04-04T11:15:12Z</time></trkpt><trkpt lat="43.24639801438615" lon="11.140446323512213"><ele>523.75</ele><time>2026-04-04T11:15:13Z</time></trkpt><trkpt lat="43.24641257745182" lon="11.140288446193441"><ele>525.5</ele><time>2026-04-04T11:15:14Z</time></trkpt><trkpt lat="43.24642347314651" lon="11.140098478720708"><ele>527.25</ele><time>2026-04-04T11:15:15Z</time></trkpt><trkpt lat="43.246433575056386" lon="11.139924997395356"><ele>529.0</ele><time>2026-04-04T11:15:16Z</time></trkpt><trkpt lat="43.24643767506489" lon="11.139759439807328"><ele>530.8</ele><time>2026-04-04T11:15:17Z</time></trkpt><trkpt lat="43.246467847182224" lon="11.139610826236678"><ele>532.5999999999999</ele><time>2026-04-04T11:15:18Z</time></trkpt><trkpt lat="43.246483904044915" lon="11.139474691462798"><ele>534.4</ele><time>2026-04-04T11:15:19Z</time></trkpt><trkpt lat="43.246494283726896" lon="11.139350484011025"><ele>536.1999999999999</ele><time>2026-04-04T11:15:20Z</time></trkpt><trkpt lat="43.2465304677205" lon="11.139242438641357"><ele>538.0</ele><time>2026-04-04T11:15:21Z</time></trkpt><trkpt lat="43.2465696515484" lon="11.139144020652832"><ele>539.1999999999999</ele><time>2026-04-04T11:15:22Z</time></trkpt><trkpt lat="43.24662559514314" lon="11.139050138680068"><ele>540.4</ele><time>2026-04-04T11:15:23Z</time></trkpt><trkpt lat="43.24670009557716" lon="11.13897415191002"><ele>541.5999999999999</ele><time>2026-04-04T11:15:24Z</time></trkpt><trkpt lat="43.246779597912585" lon="11.138896270867649"><ele>542.8</ele><time>2026-04-04T11:15:25Z</time></trkpt><trkpt lat="43.24685085203784" lon="11.138804039902027"><ele>544.0</ele><time>2026-04-04T11:15:26Z</time></trkpt><trkpt lat="43.24689820225884" lon="11.138686725911217"><ele>544.0</ele><time>2026-04-04T11:15:27Z</time></trkpt><trkpt lat="43.24692901567243" lon="11.13853469850998"><ele>544.0</ele><time>2026-04-04T11:15:27.999Z</time></trkpt><trkpt lat="43.24696526015218" lon="11.138359810844063"><ele>544.0</ele><time>2026-04-04T11:15:28.999Z</time></trkpt><trkpt lat="43.247017911697924" lon="11.138191025033622"><ele>544.0</ele><time>2026-04-04T11:15:29.999Z</time></trkpt><trkpt lat="43.247054649258565" lon="11.138018019643614"><ele>543.25</ele><time>2026-04-04T11:15:30.999Z</time></trkpt><trkpt lat="43.247110808272865" lon="11.13785052002458"><ele>542.5</ele><time>2026-04-04T11:15:31.999Z</time></trkpt><trkpt lat="43.2471737257102" lon="11.137676396011141"><ele>541.75</ele><time>2026-04-04T11:15:32.999Z</time></trkpt><trkpt lat="43.24726670729131" lon="11.137523123403142"><ele>541.0</ele><time>2026-04-04T11:15:33.999Z</time></trkpt><trkpt lat="43.247367319801775" lon="11.137377692518944"><ele>540.75</ele><time>2026-04-04T11:15:34.999Z</time></trkpt><trkpt lat="43.247447142113536" lon="11.137225874186994"><ele>540.5</ele><time>2026-04-04T11:15:35.999Z</time></trkpt><trkpt lat="43.24752491059258" lon="11.13707074375383"><ele>540.25</ele><time>2026-04-04T11:15:36.999Z</time></trkpt><trkpt lat="43.24758481229615" lon="11.136918334081193"><ele>540.0</ele><time>2026-04-04T11:15:37.999Z</time></trkpt><trkpt lat="43.247652067610176" lon="11.136786456364288"><ele>540.0</ele><time>2026-04-04T11:15:38.999Z</time></trkpt><trkpt lat="43.24771237700092" lon="11.136651196762704"><ele>540.0</ele><time>2026-04-04T11:15:39.999Z</time></trkpt><trkpt lat="43.24777342422097" lon="11.136523261317297"><ele>540.0</ele><time>2026-04-04T11:15:40.999Z</time></trkpt><trkpt lat="43.2478287745991" lon="11.136394179937668"><ele>540.0</ele><time>2026-04-04T11:15:41.999Z</time></trkpt><trkpt lat="43.24788094809359" lon="11.136273028931662"><ele>540.0</ele><time>2026-04-04T11:15:42.999Z</time></trkpt><trkpt lat="43.247935860867045" lon="11.136175846768227"><ele>539.25</ele><time>2026-04-04T11:15:43.999Z</time></trkpt><trkpt lat="43.247997839919016" lon="11.13607560228326"><ele>538.5</ele><time>2026-04-04T11:15:44.999Z</time></trkpt><trkpt lat="43.24811505307524" lon="11.13600202153465"><ele>537.75</ele><time>2026-04-04T11:15:45.999Z</time></trkpt><trkpt lat="43.248249992418266" lon="11.135939664864246"><ele>537.0</ele><time>2026-04-04T11:15:46.999Z</time></trkpt><trkpt lat="43.248367344068804" lon="11.135863174511734"><ele>536.5</ele><time>2026-04-04T11:15:47.999Z</time></trkpt><trkpt lat="43.24848329408105" lon="11.135794868862023"><ele>536.0</ele><time>2026-04-04T11:15:48.999Z</time></trkpt><trkpt lat="43.24861047165436" lon="11.135738621508999"><ele>535.5</ele><time>2026-04-04T11:15:50Z</time></trkpt><trkpt lat="43.248741763418984" lon="11.135706995761906"><ele>535.0</ele><time>2026-04-04T11:15:51Z</time></trkpt><trkpt lat="43.24887212750864" lon="11.135693023521362"><ele>534.5</ele><time>2026-04-04T11:15:52Z</time></trkpt><trkpt lat="43.24899640762485" lon="11.135692445695799"><ele>534.0</ele><time>2026-04-04T11:15:53Z</time></trkpt><trkpt lat="43.2491153572657" lon="11.135679479804544"><ele>533.5</ele><time>2026-04-04T11:15:54Z</time></trkpt><trkpt lat="43.249226647019434" lon="11.13565688587868"><ele>533.0</ele><time>2026-04-04T11:15:55Z</time></trkpt><trkpt lat="43.249342419178966" lon="11.135605644477463"><ele>533.0</ele><time>2026-04-04T11:15:56Z</time></trkpt><trkpt lat="43.249437137746135" lon="11.135578635786468"><ele>533.0</ele><time>2026-04-04T11:15:57Z</time></trkpt><trkpt lat="43.24953505482921" lon="11.135511557563687"><ele>533.0</ele><time>2026-04-04T11:15:58Z</time></trkpt><trkpt lat="43.249623265206864" lon="11.13541748376256"><ele>533.0</ele><time>2026-04-04T11:15:59Z</time></trkpt><trkpt lat="43.24969708653591" lon="11.135295101362773"><ele>533.0</ele><time>2026-04-04T11:16:00Z</time></trkpt><trkpt lat="43.24975788977256" lon="11.13519493599686"><ele>532.5</ele><time>2026-04-04T11:16:01Z</time></trkpt><trkpt lat="43.249813369279096" lon="11.135107731146286"><ele>532.0</ele><time>2026-04-04T11:16:02Z</time></trkpt><trkpt lat="43.24985427083665" lon="11.13502123640647"><ele>531.5</ele><time>2026-04-04T11:16:03Z</time></trkpt><trkpt lat="43.24988951492126" lon="11.134940625091058"><ele>531.0</ele><time>2026-04-04T11:16:04Z</time></trkpt><trkpt lat="43.249956161424215" lon="11.134799563709894"><ele>530.5</ele><time>2026-04-04T11:16:06Z</time></trkpt><trkpt lat="43.2500073897202" lon="11.134695397267713"><ele>530.0</ele><time>2026-04-04T11:16:08Z</time></trkpt><trkpt lat="43.25007120384192" lon="11.134566738112202"><ele>529.6</ele><time>2026-04-04T11:16:10Z</time></trkpt><trkpt lat="43.25013506387404" lon="11.134500886378323"><ele>529.2</ele><time>2026-04-04T11:16:11Z</time></trkpt><trkpt lat="43.25022140105877" lon="11.134423384662753"><ele>528.8</ele><time>2026-04-04T11:16:12Z</time></trkpt><trkpt lat="43.25031237757492" lon="11.134349202045813"><ele>528.4</ele><time>2026-04-04T11:16:13Z</time></trkpt><trkpt lat="43.25040897396176" lon="11.134265668477251"><ele>528.0</ele><time>2026-04-04T11:16:14Z</time></trkpt><trkpt lat="43.250502763562245" lon="11.13418222333713"><ele>528.0</ele><time>2026-04-04T11:16:15Z</time></trkpt><trkpt lat="43.250593216621226" lon="11.134099085485532"><ele>528.0</ele><time>2026-04-04T11:16:16Z</time></trkpt><trkpt lat="43.250679488217294" lon="11.134024053738777"><ele>528.0</ele><time>2026-04-04T11:16:17Z</time></trkpt><trkpt lat="43.250768082833666" lon="11.133956412377541"><ele>528.0</ele><time>2026-04-04T11:16:18Z</time></trkpt><trkpt lat="43.25086314502823" lon="11.13387218188323"><ele>528.0</ele><time>2026-04-04T11:16:19Z</time></trkpt><trkpt lat="43.25096373159439" lon="11.133809599016109"><ele>529.0</ele><time>2026-04-04T11:16:20Z</time></trkpt><trkpt lat="43.251075142673" lon="11.133733735838497"><ele>530.0</ele><time>2026-04-04T11:16:21Z</time></trkpt><trkpt lat="43.25119226147951" lon="11.133677591947313"><ele>531.0</ele><time>2026-04-04T11:16:22Z</time></trkpt><trkpt lat="43.25130219005493" lon="11.133589756646986"><ele>532.0</ele><time>2026-04-04T11:16:23Z</time></trkpt><trkpt lat="43.25139774028954" lon="11.133486620833228"><ele>532.25</ele><time>2026-04-04T11:16:24Z</time></trkpt><trkpt lat="43.25149199718168" lon="11.133354763503156"><ele>532.5</ele><time>2026-04-04T11:16:25Z</time></trkpt><trkpt lat="43.251589040790904" lon="11.13321747692268"><ele>532.75</ele><time>2026-04-04T11:16:26Z</time></trkpt><trkpt lat="43.251702418874416" lon="11.13309879740157"><ele>533.0</ele><time>2026-04-04T11:16:27Z</time></trkpt><trkpt lat="43.25181041082748" lon="11.132975807306945"><ele>533.0</ele><time>2026-04-04T11:16:28Z</time></trkpt><trkpt lat="43.25192651880901" lon="11.132875510794578"><ele>533.0</ele><time>2026-04-04T11:16:29Z</time></trkpt><trkpt lat="43.252031059709246" lon="11.132766180855901"><ele>533.0</ele><time>2026-04-04T11:16:30Z</time></trkpt><trkpt lat="43.25212320158075" lon="11.132612692515336"><ele>533.0</ele><time>2026-04-04T11:16:31Z</time></trkpt><trkpt lat="43.252244736112104" lon="11.132487908187876"><ele>535.75</ele><time>2026-04-04T11:16:32Z</time></trkpt><trkpt lat="43.252346249369516" lon="11.132354690173727"><ele>538.5</ele><time>2026-04-04T11:16:33Z</time></trkpt><trkpt lat="43.25243942518003" lon="11.132232413584179"><ele>541.25</ele><time>2026-04-04T11:16:34Z</time></trkpt><trkpt lat="43.25253288726217" lon="11.132109761302498"><ele>544.0</ele><time>2026-04-04T11:16:35Z</time></trkpt><trkpt lat="43.25263034448027" lon="11.131981866141622"><ele>544.0</ele><time>2026-04-04T11:16:36Z</time></trkpt><trkpt lat="43.25272989163404" lon="11.131851228252826"><ele>544.0</ele><time>2026-04-04T11:16:37Z</time></trkpt><trkpt lat="43.25281243992427" lon="11.131720047037064"><ele>544.0</ele><time>2026-04-04T11:16:38Z</time></trkpt><trkpt lat="43.25291676787494" lon="11.131608948692659"><ele>544.0</ele><time>2026-04-04T11:16:39Z</time></trkpt><trkpt lat="43.25301477424022" lon="11.131500880717534"><ele>545.75</ele><time>2026-04-04T11:16:40Z</time></trkpt><trkpt lat="43.25310614834693" lon="11.131377242911991"><ele>547.5</ele><time>2026-04-04T11:16:41Z</time></trkpt><trkpt lat="43.253192926767" lon="11.131228761225136"><ele>549.25</ele><time>2026-04-04T11:16:42Z</time></trkpt><trkpt lat="43.253277483690965" lon="11.13108997168705"><ele>551.0</ele><time>2026-04-04T11:16:43Z</time></trkpt><trkpt lat="43.25335954064014" lon="11.13096366804962"><ele>551.75</ele><time>2026-04-04T11:16:44Z</time></trkpt><trkpt lat="43.253432521827406" lon="11.130828907379282"><ele>552.5</ele><time>2026-04-04T11:16:45Z</time></trkpt><trkpt lat="43.253486965054734" lon="11.130682989992996"><ele>553.25</ele><time>2026-04-04T11:16:46Z</time></trkpt><trkpt lat="43.253510060501306" lon="11.130517278511588"><ele>554.0</ele><time>2026-04-04T11:16:47Z</time></trkpt><trkpt lat="43.253529045312746" lon="11.130360487444433"><ele>555.0</ele><time>2026-04-04T11:16:48Z</time></trkpt><trkpt lat="43.2535770597804" lon="11.130223830906276"><ele>556.0</ele><time>2026-04-04T11:16:49Z</time></trkpt><trkpt lat="43.25362010290569" lon="11.130103752223828"><ele>557.0</ele><time>2026-04-04T11:16:50Z</time></trkpt><trkpt lat="43.25367857832917" lon="11.130002388978577"><ele>558.0</ele><time>2026-04-04T11:16:51Z</time></trkpt><trkpt lat="43.25377793135793" lon="11.129932984718613"><ele>559.0</ele><time>2026-04-04T11:16:52Z</time></trkpt><trkpt lat="43.253889001733974" lon="11.129895723872707"><ele>562.75</ele><time>2026-04-04T11:16:53Z</time></trkpt><trkpt lat="43.25399922328243" lon="11.129874911821187"><ele>566.5</ele><time>2026-04-04T11:16:54Z</time></trkpt><trkpt lat="43.25409986376925" lon="11.129819278645689"><ele>570.25</ele><time>2026-04-04T11:16:55Z</time></trkpt><trkpt lat="43.254206299305345" lon="11.129755262845626"><ele>574.0</ele><time>2026-04-04T11:16:56Z</time></trkpt><trkpt lat="43.25431968718515" lon="11.12968251908295"><ele>574.0</ele><time>2026-04-04T11:16:57Z</time></trkpt><trkpt lat="43.25443221036399" lon="11.129602407021178"><ele>574.0</ele><time>2026-04-04T11:16:58Z</time></trkpt><trkpt lat="43.2545437439057" lon="11.129533374438992"><ele>574.0</ele><time>2026-04-04T11:16:59Z</time></trkpt><trkpt lat="43.25464400946525" lon="11.129435704351994"><ele>574.0</ele><time>2026-04-04T11:17:00Z</time></trkpt><trkpt lat="43.25474519643169" lon="11.129329857795648"><ele>573.8</ele><time>2026-04-04T11:17:01Z</time></trkpt><trkpt lat="43.25481372786877" lon="11.129229542469012"><ele>573.5999999999999</ele><time>2026-04-04T11:17:02Z</time></trkpt><trkpt lat="43.254883875635926" lon="11.129109144869188"><ele>573.4</ele><time>2026-04-04T11:17:03Z</time></trkpt><trkpt lat="43.254947697885115" lon="11.128976750136134"><ele>573.1999999999999</ele><time>2026-04-04T11:17:04Z</time></trkpt><trkpt lat="43.254997267689454" lon="11.128847062046713"><ele>573.0</ele><time>2026-04-04T11:17:05Z</time></trkpt><trkpt lat="43.25505076547543" lon="11.128718560665288"><ele>573.0</ele><time>2026-04-04T11:17:06Z</time></trkpt><trkpt lat="43.25510591476486" lon="11.128592343517553"><ele>573.0</ele><time>2026-04-04T11:17:07Z</time></trkpt><trkpt lat="43.25514405659949" lon="11.128482642339494"><ele>573.0</ele><time>2026-04-04T11:17:08Z</time></trkpt><trkpt lat="43.25517488866729" lon="11.12837946038665"><ele>573.0</ele><time>2026-04-04T11:17:09Z</time></trkpt><trkpt lat="43.255210118195855" lon="11.12829448576363"><ele>573.0</ele><time>2026-04-04T11:17:10Z</time></trkpt><trkpt lat="43.25524543771595" lon="11.128210008392465"><ele>573.0</ele><time>2026-04-04T11:17:11Z</time></trkpt><trkpt lat="43.2553037399709" lon="11.128077078859597"><ele>572.6666666666666</ele><time>2026-04-04T11:17:13Z</time></trkpt><trkpt lat="43.255353892748744" lon="11.127974566816622"><ele>572.3333333333334</ele><time>2026-04-04T11:17:15Z</time></trkpt><trkpt lat="43.255373704986106" lon="11.12786826638057"><ele>572.0</ele><time>2026-04-04T11:17:18Z</time></trkpt><trkpt lat="43.255396752921" lon="11.127771314048676"><ele>571.6666666666667</ele><time>2026-04-04T11:17:21Z</time></trkpt><trkpt lat="43.25545614225099" lon="11.12768893230472"><ele>571.3333333333334</ele><time>2026-04-04T11:17:23Z</time></trkpt><trkpt lat="43.25548981783594" lon="11.127542138196276"><ele>571.0</ele><time>2026-04-04T11:17:25Z</time></trkpt><trkpt lat="43.25550407230642" lon="11.127445167805169"><ele>570.6666666666667</ele><time>2026-04-04T11:17:26Z</time></trkpt><trkpt lat="43.25550841873769" lon="11.127349036119194"><ele>570.3333333333334</ele><time>2026-04-04T11:17:27Z</time></trkpt><trkpt lat="43.25550779001457" lon="11.127234795101803"><ele>570.0</ele><time>2026-04-04T11:17:28Z</time></trkpt><trkpt lat="43.25550547074445" lon="11.127124344010717"><ele>569.6666666666666</ele><time>2026-04-04T11:17:29Z</time></trkpt><trkpt lat="43.25550308675322" lon="11.12701081084356"><ele>569.3333333333333</ele><time>2026-04-04T11:17:30Z</time></trkpt><trkpt lat="43.255499015019566" lon="11.126884112016223"><ele>569.0</ele><time>2026-04-04T11:17:31Z</time></trkpt><trkpt lat="43.25549475050095" lon="11.126744075546936"><ele>569.0</ele><time>2026-04-04T11:17:32Z</time></trkpt><trkpt lat="43.255502187108206" lon="11.126592224009485"><ele>569.0</ele><time>2026-04-04T11:17:33Z</time></trkpt><trkpt lat="43.25552375478293" lon="11.12644383314345"><ele>569.0</ele><time>2026-04-04T11:17:34Z</time></trkpt><trkpt lat="43.25555206540756" lon="11.12631221968127"><ele>569.0</ele><time>2026-04-04T11:17:35Z</time></trkpt><trkpt lat="43.25558503221708" lon="11.126185227888584"><ele>569.0</ele><time>2026-04-04T11:17:36Z</time></trkpt><trkpt lat="43.25561701218568" lon="11.126052692678533"><ele>569.2</ele><time>2026-04-04T11:17:37Z</time></trkpt><trkpt lat="43.25561522276408" lon="11.125916572105009"><ele>569.4</ele><time>2026-04-04T11:17:38Z</time></trkpt><trkpt lat="43.25560886047295" lon="11.125779273849828"><ele>569.6</ele><time>2026-04-04T11:17:39Z</time></trkpt><trkpt lat="43.2555843221953" lon="11.125631731640846"><ele>569.8</ele><time>2026-04-04T11:17:40Z</time></trkpt><trkpt lat="43.255557554889414" lon="11.125474408793341"><ele>570.0</ele><time>2026-04-04T11:17:41Z</time></trkpt><trkpt lat="43.25555585766164" lon="11.125300797008052"><ele>572.0</ele><time>2026-04-04T11:17:42Z</time></trkpt><trkpt lat="43.25550962654622" lon="11.125143970013955"><ele>574.0</ele><time>2026-04-04T11:17:43Z</time></trkpt><trkpt lat="43.25544755369337" lon="11.124990956501621"><ele>576.0</ele><time>2026-04-04T11:17:43.999Z</time></trkpt><trkpt lat="43.255369982494884" lon="11.124849012270783"><ele>578.0</ele><time>2026-04-04T11:17:44.999Z</time></trkpt><trkpt lat="43.25528476062216" lon="11.124717290542371"><ele>580.0</ele><time>2026-04-04T11:17:45.999Z</time></trkpt><trkpt lat="43.25519303348905" lon="11.124586575703743"><ele>582.0</ele><time>2026-04-04T11:17:46.999Z</time></trkpt><trkpt lat="43.25511827350392" lon="11.12446679044422"><ele>584.0</ele><time>2026-04-04T11:17:47.999Z</time></trkpt><trkpt lat="43.255071015133794" lon="11.12432486164471"><ele>586.0</ele><time>2026-04-04T11:17:48.999Z</time></trkpt><trkpt lat="43.25500635395485" lon="11.124183456541811"><ele>586.25</ele><time>2026-04-04T11:17:49.999Z</time></trkpt><trkpt lat="43.25493910887553" lon="11.12404288678629"><ele>586.5</ele><time>2026-04-04T11:17:50.999Z</time></trkpt><trkpt lat="43.25487059126815" lon="11.12389965693799"><ele>586.75</ele><time>2026-04-04T11:17:51.999Z</time></trkpt><trkpt lat="43.254803818614754" lon="11.123761975819326"><ele>587.0</ele><time>2026-04-04T11:17:52.999Z</time></trkpt><trkpt lat="43.25474291892126" lon="11.1236329471491"><ele>583.0</ele><time>2026-04-04T11:17:53.999Z</time></trkpt><trkpt lat="43.25469932517618" lon="11.123496298796981"><ele>579.0</ele><time>2026-04-04T11:17:54.999Z</time></trkpt><trkpt lat="43.254673930845634" lon="11.12334890807125"><ele>575.0</ele><time>2026-04-04T11:17:56Z</time></trkpt><trkpt lat="43.254651161636" lon="11.123179374498562"><ele>571.0</ele><time>2026-04-04T11:17:57Z</time></trkpt><trkpt lat="43.25462945549092" lon="11.123001188378266"><ele>571.0</ele><time>2026-04-04T11:17:58Z</time></trkpt><trkpt lat="43.25460710839205" lon="11.122817740641107"><ele>571.0</ele><time>2026-04-04T11:17:59Z</time></trkpt><trkpt lat="43.25458581044104" lon="11.122642905398306"><ele>571.0</ele><time>2026-04-04T11:18:00Z</time></trkpt><trkpt lat="43.25456802438561" lon="11.12247162087197"><ele>571.0</ele><time>2026-04-04T11:18:01Z</time></trkpt><trkpt lat="43.25455469440575" lon="11.122312791795316"><ele>571.0</ele><time>2026-04-04T11:18:02Z</time></trkpt><trkpt lat="43.254538099023115" lon="11.12214222933951"><ele>571.0</ele><time>2026-04-04T11:18:03Z</time></trkpt><trkpt lat="43.25451131107605" lon="11.121980136135262"><ele>571.0</ele><time>2026-04-04T11:18:04Z</time></trkpt><trkpt lat="43.25448332782663" lon="11.121827433877018"><ele>571.0</ele><time>2026-04-04T11:18:05Z</time></trkpt><trkpt lat="43.25445053223027" lon="11.121673737007754"><ele>570.75</ele><time>2026-04-04T11:18:06Z</time></trkpt><trkpt lat="43.25437603774463" lon="11.121527710414934"><ele>570.5</ele><time>2026-04-04T11:18:07Z</time></trkpt><trkpt lat="43.25429774625526" lon="11.12140058618665"><ele>570.25</ele><time>2026-04-04T11:18:08Z</time></trkpt><trkpt lat="43.25420204463402" lon="11.1212750537777"><ele>570.0</ele><time>2026-04-04T11:18:09Z</time></trkpt><trkpt lat="43.25412527818779" lon="11.12115314439493"><ele>570.0</ele><time>2026-04-04T11:18:10Z</time></trkpt><trkpt lat="43.254046880188945" lon="11.121027813221048"><ele>570.0</ele><time>2026-04-04T11:18:11Z</time></trkpt><trkpt lat="43.25395774870718" lon="11.120896880481766"><ele>570.0</ele><time>2026-04-04T11:18:12Z</time></trkpt><trkpt lat="43.25383436942052" lon="11.120772355099295"><ele>570.0</ele><time>2026-04-04T11:18:13Z</time></trkpt><trkpt lat="43.25371095864882" lon="11.120664479035405"><ele>569.5</ele><time>2026-04-04T11:18:14Z</time></trkpt><trkpt lat="43.25361860700567" lon="11.120557786776164"><ele>569.0</ele><time>2026-04-04T11:18:15Z</time></trkpt><trkpt lat="43.25353047509815" lon="11.120437692394637"><ele>568.5</ele><time>2026-04-04T11:18:16Z</time></trkpt><trkpt lat="43.253454798053056" lon="11.120310326614687"><ele>568.0</ele><time>2026-04-04T11:18:17Z</time></trkpt><trkpt lat="43.25337154435757" lon="11.120183544508835"><ele>568.0</ele><time>2026-04-04T11:18:18Z</time></trkpt><trkpt lat="43.25328087326349" lon="11.120062957335135"><ele>568.0</ele><time>2026-04-04T11:18:19Z</time></trkpt><trkpt lat="43.25316995119025" lon="11.11996633309229"><ele>568.0</ele><time>2026-04-04T11:18:20Z</time></trkpt><trkpt lat="43.25305055714889" lon="11.119877341180397"><ele>568.0</ele><time>2026-04-04T11:18:21Z</time></trkpt><trkpt lat="43.25291959286694" lon="11.119805503188147"><ele>566.75</ele><time>2026-04-04T11:18:22Z</time></trkpt><trkpt lat="43.25278897682107" lon="11.119732983761727"><ele>565.5</ele><time>2026-04-04T11:18:23Z</time></trkpt><trkpt lat="43.252666701628286" lon="11.119660228174968"><ele>564.25</ele><time>2026-04-04T11:18:24Z</time></trkpt><trkpt lat="43.252560661545125" lon="11.119583947515071"><ele>563.0</ele><time>2026-04-04T11:18:25Z</time></trkpt><trkpt lat="43.252454033317505" lon="11.1194896524948"><ele>563.0</ele><time>2026-04-04T11:18:26Z</time></trkpt><trkpt lat="43.25234489882248" lon="11.119398544696125"><ele>563.0</ele><time>2026-04-04T11:18:27Z</time></trkpt><trkpt lat="43.252243670212856" lon="11.119329105419236"><ele>563.0</ele><time>2026-04-04T11:18:28Z</time></trkpt><trkpt lat="43.252136442114114" lon="11.119284139108903"><ele>563.0</ele><time>2026-04-04T11:18:29Z</time></trkpt><trkpt lat="43.252024942722514" lon="11.119277319453904"><ele>561.8</ele><time>2026-04-04T11:18:30Z</time></trkpt><trkpt lat="43.25191567832371" lon="11.11928917292854"><ele>560.5999999999999</ele><time>2026-04-04T11:18:31Z</time></trkpt><trkpt lat="43.25180352470932" lon="11.119307535883332"><ele>559.4000000000001</ele><time>2026-04-04T11:18:32Z</time></trkpt><trkpt lat="43.25170490722139" lon="11.119326134414386"><ele>558.2</ele><time>2026-04-04T11:18:33Z</time></trkpt><trkpt lat="43.25160308932294" lon="11.119311902124107"><ele>557.0</ele><time>2026-04-04T11:18:34Z</time></trkpt><trkpt lat="43.25147496704592" lon="11.11926935962222"><ele>555.75</ele><time>2026-04-04T11:18:35Z</time></trkpt><trkpt lat="43.25135297170862" lon="11.119237972026442"><ele>554.5</ele><time>2026-04-04T11:18:36Z</time></trkpt><trkpt lat="43.25123572848891" lon="11.11921759065474"><ele>553.25</ele><time>2026-04-04T11:18:37Z</time></trkpt><trkpt lat="43.25112991466037" lon="11.119225669280823"><ele>552.0</ele><time>2026-04-04T11:18:38Z</time></trkpt><trkpt lat="43.251032701824144" lon="11.1192862352009"><ele>552.0</ele><time>2026-04-04T11:18:39Z</time></trkpt><trkpt lat="43.25095442770348" lon="11.119374296262425"><ele>552.0</ele><time>2026-04-04T11:18:40Z</time></trkpt><trkpt lat="43.25086710796181" lon="11.11944639148345"><ele>552.0</ele><time>2026-04-04T11:18:41Z</time></trkpt><trkpt lat="43.250771282968664" lon="11.1194885963694"><ele>552.0</ele><time>2026-04-04T11:18:42Z</time></trkpt><trkpt lat="43.250655633914675" lon="11.119524730542269"><ele>552.0</ele><time>2026-04-04T11:18:43Z</time></trkpt><trkpt lat="43.250519621255066" lon="11.119559290716387"><ele>550.3333333333334</ele><time>2026-04-04T11:18:44Z</time></trkpt><trkpt lat="43.2503771581682" lon="11.119591054337642"><ele>548.6666666666667</ele><time>2026-04-04T11:18:45Z</time></trkpt><trkpt lat="43.250212882828194" lon="11.119621623200759"><ele>547.0</ele><time>2026-04-04T11:18:46Z</time></trkpt><trkpt lat="43.2500641118117" lon="11.11964347007015"><ele>547.0</ele><time>2026-04-04T11:18:47Z</time></trkpt><trkpt lat="43.249917621201035" lon="11.11966390265039"><ele>547.0</ele><time>2026-04-04T11:18:48Z</time></trkpt><trkpt lat="43.24977296281295" lon="11.119684609947432"><ele>547.0</ele><time>2026-04-04T11:18:49Z</time></trkpt><trkpt lat="43.249643483718856" lon="11.119709054514974"><ele>547.0</ele><time>2026-04-04T11:18:50Z</time></trkpt><trkpt lat="43.249520855220815" lon="11.119732205730543"><ele>545.4</ele><time>2026-04-04T11:18:51Z</time></trkpt><trkpt lat="43.2494221563146" lon="11.119748420792147"><ele>543.8000000000001</ele><time>2026-04-04T11:18:52Z</time></trkpt><trkpt lat="43.2493369368008" lon="11.119755720567163"><ele>542.2</ele><time>2026-04-04T11:18:53Z</time></trkpt><trkpt lat="43.249242791403724" lon="11.11973730885746"><ele>540.6</ele><time>2026-04-04T11:18:55Z</time></trkpt><trkpt lat="43.249193676154945" lon="11.119820836818173"><ele>539.0</ele><time>2026-04-04T11:18:57Z</time></trkpt><trkpt lat="43.2491920570887" lon="11.119684663663811"><ele>539.0</ele><time>2026-04-04T11:19:13Z</time></trkpt><trkpt lat="43.24909274260441" lon="11.11961313650548"><ele>539.0</ele><time>2026-04-04T11:19:15Z</time></trkpt><trkpt lat="43.249007503946686" lon="11.11951404822241"><ele>539.0</ele><time>2026-04-04T11:19:17Z</time></trkpt><trkpt lat="43.24898006253417" lon="11.119382577626476"><ele>539.0</ele><time>2026-04-04T11:19:19Z</time></trkpt><trkpt lat="43.24896444714417" lon="11.119275633690979"><ele>539.0</ele><time>2026-04-04T11:19:20Z</time></trkpt><trkpt lat="43.24894445336611" lon="11.119183527199485"><ele>535.6</ele><time>2026-04-04T11:19:21Z</time></trkpt><trkpt lat="43.24891230579131" lon="11.119102744828036"><ele>532.2</ele><time>2026-04-04T11:19:22Z</time></trkpt><trkpt lat="43.248833076084296" lon="11.119054108928388"><ele>528.8000000000001</ele><time>2026-04-04T11:19:23Z</time></trkpt><trkpt lat="43.24874111135764" lon="11.119045140519992"><ele>525.4</ele><time>2026-04-04T11:19:24Z</time></trkpt><trkpt lat="43.24866308128997" lon="11.119157448859537"><ele>522.0</ele><time>2026-04-04T11:19:25Z</time></trkpt><trkpt lat="43.248655387955786" lon="11.119285357956649"><ele>522.0</ele><time>2026-04-04T11:19:26Z</time></trkpt><trkpt lat="43.2486557925767" lon="11.119379971127016"><ele>522.0</ele><time>2026-04-04T11:19:27Z</time></trkpt><trkpt lat="43.24865876620328" lon="11.119478260377123"><ele>522.0</ele><time>2026-04-04T11:19:28Z</time></trkpt><trkpt lat="43.2486572328402" lon="11.119596928087741"><ele>522.0</ele><time>2026-04-04T11:19:29Z</time></trkpt><trkpt lat="43.24864894382385" lon="11.119728041965972"><ele>522.0</ele><time>2026-04-04T11:19:30Z</time></trkpt><trkpt lat="43.24862458166587" lon="11.119829869208392"><ele>522.0</ele><time>2026-04-04T11:19:31Z</time></trkpt><trkpt lat="43.2486053849666" lon="11.119926827175936"><ele>522.8333333333334</ele><time>2026-04-04T11:19:32Z</time></trkpt><trkpt lat="43.248570158849724" lon="11.120022382277998"><ele>523.6666666666666</ele><time>2026-04-04T11:19:33Z</time></trkpt><trkpt lat="43.24852189848339" lon="11.120085600063064"><ele>524.5</ele><time>2026-04-04T11:19:34Z</time></trkpt><trkpt lat="43.24846021301304" lon="11.120142125509895"><ele>525.3333333333333</ele><time>2026-04-04T11:19:35Z</time></trkpt><trkpt lat="43.24838137107698" lon="11.120209248713278"><ele>526.1666666666666</ele><time>2026-04-04T11:19:36Z</time></trkpt><trkpt lat="43.24829992426765" lon="11.120258713692596"><ele>527.0</ele><time>2026-04-04T11:19:37Z</time></trkpt><trkpt lat="43.24820703961559" lon="11.120311347382923"><ele>524.0</ele><time>2026-04-04T11:19:38Z</time></trkpt><trkpt lat="43.24812345354912" lon="11.120438339355731"><ele>521.0</ele><time>2026-04-04T11:19:39Z</time></trkpt><trkpt lat="43.24801859125581" lon="11.120459725891857"><ele>518.0</ele><time>2026-04-04T11:19:40Z</time></trkpt><trkpt lat="43.24793093995944" lon="11.120505761876638"><ele>515.0</ele><time>2026-04-04T11:19:41Z</time></trkpt><trkpt lat="43.24785465449546" lon="11.120555175264741"><ele>512.0</ele><time>2026-04-04T11:19:42Z</time></trkpt><trkpt lat="43.24777578913509" lon="11.12049908100691"><ele>512.0</ele><time>2026-04-04T11:19:42.999Z</time></trkpt><trkpt lat="43.247708462127626" lon="11.120524487652986"><ele>512.0</ele><time>2026-04-04T11:19:44.999Z</time></trkpt><trkpt lat="43.247633382348354" lon="11.120549640870298"><ele>512.0</ele><time>2026-04-04T11:19:46.999Z</time></trkpt><trkpt lat="43.24755495463736" lon="11.12057234014409"><ele>512.0</ele><time>2026-04-04T11:19:47.999Z</time></trkpt><trkpt lat="43.24745080799557" lon="11.120595220258366"><ele>512.0</ele><time>2026-04-04T11:19:48.999Z</time></trkpt><trkpt lat="43.247329091600385" lon="11.120605665345582"><ele>510.40000000000003</ele><time>2026-04-04T11:19:49.999Z</time></trkpt><trkpt lat="43.24721517554805" lon="11.120610706543584"><ele>508.80000000000007</ele><time>2026-04-04T11:19:50.999Z</time></trkpt><trkpt lat="43.24709680125537" lon="11.120621465523271"><ele>507.2</ele><time>2026-04-04T11:19:51.999Z</time></trkpt><trkpt lat="43.246988823690515" lon="11.120636698292367"><ele>505.6</ele><time>2026-04-04T11:19:52.999Z</time></trkpt><trkpt lat="43.246894897438594" lon="11.120657477182316"><ele>504.0</ele><time>2026-04-04T11:19:53.999Z</time></trkpt><trkpt lat="43.24679672785543" lon="11.120703620371014"><ele>504.5</ele><time>2026-04-04T11:19:54.999Z</time></trkpt><trkpt lat="43.246722794042505" lon="11.120786859996938"><ele>505.0</ele><time>2026-04-04T11:19:55.999Z</time></trkpt><trkpt lat="43.246663965025505" lon="11.120891973330172"><ele>505.5</ele><time>2026-04-04T11:19:56.999Z</time></trkpt><trkpt lat="43.24662968200963" lon="11.121001535900868"><ele>506.0</ele><time>2026-04-04T11:19:57.999Z</time></trkpt><trkpt lat="43.2465568463793" lon="11.121071694498559"><ele>506.5</ele><time>2026-04-04T11:19:58.999Z</time></trkpt><trkpt lat="43.246500902915095" lon="11.12112706926953"><ele>507.0</ele><time>2026-04-04T11:19:59.999Z</time></trkpt><trkpt lat="43.24640738789125" lon="11.121052497453192"><ele>504.75</ele><time>2026-04-04T11:20:02Z</time></trkpt><trkpt lat="43.2463317059803" lon="11.121016105369172"><ele>502.5</ele><time>2026-04-04T11:20:03Z</time></trkpt><trkpt lat="43.246208392203805" lon="11.120982350922391"><ele>500.25</ele><time>2026-04-04T11:20:04Z</time></trkpt><trkpt lat="43.24606311846261" lon="11.120942585333385"><ele>498.0</ele><time>2026-04-04T11:20:05Z</time></trkpt><trkpt lat="43.24591237862173" lon="11.120904928723812"><ele>498.0</ele><time>2026-04-04T11:20:06Z</time></trkpt><trkpt lat="43.24577180508732" lon="11.120872359871301"><ele>498.0</ele><time>2026-04-04T11:20:07Z</time></trkpt><trkpt lat="43.24564630367708" lon="11.120843439477337"><ele>498.0</ele><time>2026-04-04T11:20:08Z</time></trkpt><trkpt lat="43.245531085989036" lon="11.120814667125721"><ele>498.0</ele><time>2026-04-04T11:20:09Z</time></trkpt><trkpt lat="43.245419271696214" lon="11.12077546021564"><ele>496.75</ele><time>2026-04-04T11:20:10Z</time></trkpt><trkpt lat="43.2452945758811" lon="11.120737370663608"><ele>495.5</ele><time>2026-04-04T11:20:11Z</time></trkpt><trkpt lat="43.24516425019488" lon="11.12071975722075"><ele>494.25</ele><time>2026-04-04T11:20:12Z</time></trkpt><trkpt lat="43.24502498980013" lon="11.120727818874688"><ele>493.0</ele><time>2026-04-04T11:20:13Z</time></trkpt><trkpt lat="43.244895044725446" lon="11.120741939638854"><ele>491.0</ele><time>2026-04-04T11:20:14Z</time></trkpt><trkpt lat="43.24477315311927" lon="11.120757311556616"><ele>488.99999999999994</ele><time>2026-04-04T11:20:15Z</time></trkpt><trkpt lat="43.24466408614293" lon="11.120773966226974"><ele>486.99999999999994</ele><time>2026-04-04T11:20:16Z</time></trkpt><trkpt lat="43.24456617129639" lon="11.12079946301041"><ele>485.0</ele><time>2026-04-04T11:20:17Z</time></trkpt><trkpt lat="43.24448848848804" lon="11.120837014805137"><ele>483.0</ele><time>2026-04-04T11:20:18Z</time></trkpt><trkpt lat="43.244425461570216" lon="11.120923387197367"><ele>483.0</ele><time>2026-04-04T11:20:19Z</time></trkpt><trkpt lat="43.244398124363634" lon="11.1210599787725"><ele>482.99999999999994</ele><time>2026-04-04T11:20:20Z</time></trkpt><trkpt lat="43.244372192560476" lon="11.121203719494943"><ele>482.99999999999994</ele><time>2026-04-04T11:20:21Z</time></trkpt><trkpt lat="43.24435226352642" lon="11.121365277270167"><ele>483.0</ele><time>2026-04-04T11:20:22Z</time></trkpt><trkpt lat="43.24429213128288" lon="11.121486912950365"><ele>483.0</ele><time>2026-04-04T11:20:23Z</time></trkpt><trkpt lat="43.24424219238176" lon="11.121597943582717"><ele>483.0</ele><time>2026-04-04T11:20:24Z</time></trkpt><trkpt lat="43.24417299120773" lon="11.121718148986226"><ele>482.99999999999994</ele><time>2026-04-04T11:20:25Z</time></trkpt><trkpt lat="43.24409962004244" lon="11.121819833289795"><ele>482.99999999999994</ele><time>2026-04-04T11:20:26Z</time></trkpt><trkpt lat="43.2440276438469" lon="11.1218976868725"><ele>483.0</ele><time>2026-04-04T11:20:27Z</time></trkpt><trkpt lat="43.243946930462506" lon="11.121946749515146"><ele>483.0</ele><time>2026-04-04T11:20:28Z</time></trkpt><trkpt lat="43.24387771589176" lon="11.121959414281342"><ele>481.4</ele><time>2026-04-04T11:20:29Z</time></trkpt><trkpt lat="43.2437943177932" lon="11.121975269056014"><ele>479.79999999999995</ele><time>2026-04-04T11:20:30Z</time></trkpt><trkpt lat="43.24368597536149" lon="11.122002438224238"><ele>478.2</ele><time>2026-04-04T11:20:31Z</time></trkpt><trkpt lat="43.243554638502516" lon="11.122063735043094"><ele>476.6</ele><time>2026-04-04T11:20:32Z</time></trkpt><trkpt lat="43.24344611119481" lon="11.122112477796097"><ele>475.0</ele><time>2026-04-04T11:20:33Z</time></trkpt><trkpt lat="43.24334431966117" lon="11.122135711009163"><ele>475.0</ele><time>2026-04-04T11:20:34Z</time></trkpt><trkpt lat="43.24323278504759" lon="11.122135622728928"><ele>475.0</ele><time>2026-04-04T11:20:35Z</time></trkpt><trkpt lat="43.24309294429209" lon="11.122110090181897"><ele>475.0</ele><time>2026-04-04T11:20:36Z</time></trkpt><trkpt lat="43.24294415529455" lon="11.122076542304805"><ele>475.0</ele><time>2026-04-04T11:20:37Z</time></trkpt><trkpt lat="43.24278977088102" lon="11.122037973789618"><ele>475.25</ele><time>2026-04-04T11:20:38Z</time></trkpt><trkpt lat="43.24263998636226" lon="11.122002206792166"><ele>475.5</ele><time>2026-04-04T11:20:39Z</time></trkpt><trkpt lat="43.242496425975055" lon="11.121969766935779"><ele>475.75</ele><time>2026-04-04T11:20:40Z</time></trkpt><trkpt lat="43.242346476788896" lon="11.121935883416981"><ele>476.0</ele><time>2026-04-04T11:20:41Z</time></trkpt><trkpt lat="43.24220091334848" lon="11.121902990935912"><ele>476.0</ele><time>2026-04-04T11:20:42Z</time></trkpt><trkpt lat="43.24205118047054" lon="11.121867525081464"><ele>476.0</ele><time>2026-04-04T11:20:43Z</time></trkpt><trkpt lat="43.24189478113519" lon="11.121829476723665"><ele>476.0</ele><time>2026-04-04T11:20:44Z</time></trkpt><trkpt lat="43.24173442958405" lon="11.12179046681162"><ele>476.0</ele><time>2026-04-04T11:20:45Z</time></trkpt><trkpt lat="43.24157314350655" lon="11.121751163453247"><ele>476.0</ele><time>2026-04-04T11:20:46Z</time></trkpt><trkpt lat="43.24142064830309" lon="11.121713955958507"><ele>476.0</ele><time>2026-04-04T11:20:47Z</time></trkpt><trkpt lat="43.24128830531902" lon="11.121684355626309"><ele>476.0</ele><time>2026-04-04T11:20:48Z</time></trkpt><trkpt lat="43.24118284206255" lon="11.121672300874053"><ele>476.0</ele><time>2026-04-04T11:20:49Z</time></trkpt><trkpt lat="43.24108710168794" lon="11.121673765684303"><ele>476.0</ele><time>2026-04-04T11:20:50Z</time></trkpt><trkpt lat="43.24099100538707" lon="11.121759851305232"><ele>476.0</ele><time>2026-04-04T11:20:51Z</time></trkpt><trkpt lat="43.24092470472559" lon="11.12186140445988"><ele>476.0</ele><time>2026-04-04T11:20:52Z</time></trkpt><trkpt lat="43.240843295056585" lon="11.121967755132953"><ele>476.0</ele><time>2026-04-04T11:20:53Z</time></trkpt><trkpt lat="43.24074146551155" lon="11.122097789573983"><ele>476.0</ele><time>2026-04-04T11:20:54Z</time></trkpt><trkpt lat="43.24063238671423" lon="11.122236198162968"><ele>476.0</ele><time>2026-04-04T11:20:55Z</time></trkpt><trkpt lat="43.240525004684955" lon="11.12236146481903"><ele>476.0</ele><time>2026-04-04T11:20:56Z</time></trkpt><trkpt lat="43.24040352808594" lon="11.122488576034753"><ele>474.75</ele><time>2026-04-04T11:20:57Z</time></trkpt><trkpt lat="43.240284560637136" lon="11.12260600044477"><ele>473.5</ele><time>2026-04-04T11:20:58Z</time></trkpt><trkpt lat="43.240163272248736" lon="11.122715295681381"><ele>472.25</ele><time>2026-04-04T11:20:59Z</time></trkpt><trkpt lat="43.240059551487406" lon="11.122819535875681"><ele>471.0</ele><time>2026-04-04T11:21:00Z</time></trkpt><trkpt lat="43.23996940314043" lon="11.122936900374661"><ele>471.0</ele><time>2026-04-04T11:21:01Z</time></trkpt><trkpt lat="43.23987146650522" lon="11.12306566827977"><ele>471.0</ele><time>2026-04-04T11:21:02Z</time></trkpt><trkpt lat="43.23977596710492" lon="11.123189393247621"><ele>471.0</ele><time>2026-04-04T11:21:03Z</time></trkpt><trkpt lat="43.23969608855837" lon="11.12329136695122"><ele>471.0</ele><time>2026-04-04T11:21:04Z</time></trkpt><trkpt lat="43.23963857653568" lon="11.12336464436209"><ele>470.5</ele><time>2026-04-04T11:21:05Z</time></trkpt><trkpt lat="43.2395896348708" lon="11.12342343199531"><ele>470.0</ele><time>2026-04-04T11:21:06Z</time></trkpt><trkpt lat="43.23952519396679" lon="11.12349825092262"><ele>469.5</ele><time>2026-04-04T11:21:08Z</time></trkpt><trkpt lat="43.23946725772671" lon="11.12356193274558"><ele>469.0</ele><time>2026-04-04T11:21:10Z</time></trkpt><trkpt lat="43.239412699085555" lon="11.123620325434086"><ele>468.5</ele><time>2026-04-04T11:21:13Z</time></trkpt><trkpt lat="43.239356649505595" lon="11.123677673791752"><ele>468.0</ele><time>2026-04-04T11:21:17Z</time></trkpt><trkpt lat="43.239258280355266" lon="11.123776120228843"><ele>468.0</ele><time>2026-04-04T11:21:19Z</time></trkpt><trkpt lat="43.23920274297225" lon="11.123830159332508"><ele>468.0</ele><time>2026-04-04T11:21:20Z</time></trkpt><trkpt lat="43.239141802362695" lon="11.123888245704833"><ele>468.0</ele><time>2026-04-04T11:21:21Z</time></trkpt><trkpt lat="43.23907638833995" lon="11.123950003027113"><ele>468.0</ele><time>2026-04-04T11:21:22Z</time></trkpt><trkpt lat="43.23900789166962" lon="11.124013155659997"><ele>468.0</ele><time>2026-04-04T11:21:23Z</time></trkpt><trkpt lat="43.238933356828554" lon="11.124079832123487"><ele>468.0</ele><time>2026-04-04T11:21:24Z</time></trkpt><trkpt lat="43.23884411621944" lon="11.124156693893228"><ele>467.59999999999997</ele><time>2026-04-04T11:21:25Z</time></trkpt><trkpt lat="43.2387542252668" lon="11.124229367273148"><ele>467.19999999999993</ele><time>2026-04-04T11:21:26Z</time></trkpt><trkpt lat="43.238665488672915" lon="11.124294281117116"><ele>466.8</ele><time>2026-04-04T11:21:27Z</time></trkpt><trkpt lat="43.238566192092776" lon="11.124357657107085"><ele>466.4</ele><time>2026-04-04T11:21:28Z</time></trkpt><trkpt lat="43.2384686984454" lon="11.124407212281346"><ele>466.0</ele><time>2026-04-04T11:21:29Z</time></trkpt><trkpt lat="43.23837142664955" lon="11.124447939329707"><ele>466.0</ele><time>2026-04-04T11:21:30Z</time></trkpt><trkpt lat="43.238275048213225" lon="11.124481373346473"><ele>466.0</ele><time>2026-04-04T11:21:31Z</time></trkpt><trkpt lat="43.2381838188029" lon="11.124513732119109"><ele>466.0</ele><time>2026-04-04T11:21:32Z</time></trkpt><trkpt lat="43.2381003855945" lon="11.124534124843025"><ele>466.0</ele><time>2026-04-04T11:21:33Z</time></trkpt><trkpt lat="43.238012517647626" lon="11.124553688538263"><ele>466.0</ele><time>2026-04-04T11:21:34Z</time></trkpt><trkpt lat="43.23792013026552" lon="11.124581695387702"><ele>465.8</ele><time>2026-04-04T11:21:35Z</time></trkpt><trkpt lat="43.23784267438682" lon="11.124653303308818"><ele>465.6</ele><time>2026-04-04T11:21:36Z</time></trkpt><trkpt lat="43.23776548405508" lon="11.124695312861702"><ele>465.4</ele><time>2026-04-04T11:21:37Z</time></trkpt><trkpt lat="43.23767759941262" lon="11.12462528995228"><ele>465.2</ele><time>2026-04-04T11:21:38.999Z</time></trkpt><trkpt lat="43.237576240587806" lon="11.124568853524497"><ele>465.0</ele><time>2026-04-04T11:21:40.999Z</time></trkpt><trkpt lat="43.23748324308312" lon="11.124582318643341"><ele>465.0</ele><time>2026-04-04T11:21:41.999Z</time></trkpt><trkpt lat="43.23738850040981" lon="11.124586498395734"><ele>465.0</ele><time>2026-04-04T11:21:42.999Z</time></trkpt><trkpt lat="43.23729861781437" lon="11.124601602594733"><ele>465.0</ele><time>2026-04-04T11:21:43.999Z</time></trkpt><trkpt lat="43.23722583516176" lon="11.124621391446688"><ele>465.0</ele><time>2026-04-04T11:21:44.999Z</time></trkpt><trkpt lat="43.23715822978713" lon="11.124636101037833"><ele>465.0</ele><time>2026-04-04T11:21:45.999Z</time></trkpt><trkpt lat="43.23707499943896" lon="11.124649059433219"><ele>465.0</ele><time>2026-04-04T11:21:46.999Z</time></trkpt><trkpt lat="43.23698478511915" lon="11.124647634128792"><ele>465.6</ele><time>2026-04-04T11:21:47.999Z</time></trkpt><trkpt lat="43.23688630752152" lon="11.124606307732423"><ele>466.2</ele><time>2026-04-04T11:21:48.999Z</time></trkpt><trkpt lat="43.23677150187733" lon="11.124593314133838"><ele>466.79999999999995</ele><time>2026-04-04T11:21:49.999Z</time></trkpt><trkpt lat="43.2366584770402" lon="11.124615050200061"><ele>467.4</ele><time>2026-04-04T11:21:50.999Z</time></trkpt><trkpt lat="43.236571223084" lon="11.124600478073024"><ele>468.0</ele><time>2026-04-04T11:21:51.999Z</time></trkpt><trkpt lat="43.2364726777913" lon="11.12457302201568"><ele>467.5</ele><time>2026-04-04T11:21:52.999Z</time></trkpt><trkpt lat="43.236380221549275" lon="11.124551314057806"><ele>467.0</ele><time>2026-04-04T11:21:53.999Z</time></trkpt><trkpt lat="43.23629715596603" lon="11.124541785760687"><ele>466.5</ele><time>2026-04-04T11:21:54.999Z</time></trkpt><trkpt lat="43.23622723101126" lon="11.12453325963343"><ele>466.0</ele><time>2026-04-04T11:21:55.999Z</time></trkpt><trkpt lat="43.2361552342955" lon="11.124509001000947"><ele>465.5</ele><time>2026-04-04T11:21:57.999Z</time></trkpt><trkpt lat="43.236090199558234" lon="11.124421854041984"><ele>465.0</ele><time>2026-04-04T11:22:00.999Z</time></trkpt><trkpt lat="43.23603563196038" lon="11.124347283987966"><ele>465.0</ele><time>2026-04-04T11:22:02.999Z</time></trkpt><trkpt lat="43.23596472339282" lon="11.124251286253172"><ele>465.0</ele><time>2026-04-04T11:24:14Z</time></trkpt><trkpt lat="43.23589987750415" lon="11.124198525219482"><ele>465.0</ele><time>2026-04-04T11:24:15Z</time></trkpt><trkpt lat="43.23581066095774" lon="11.124169628395887"><ele>465.0</ele><time>2026-04-04T11:24:16Z</time></trkpt><trkpt lat="43.23571443670239" lon="11.124148053262022"><ele>465.0</ele><time>2026-04-04T11:24:17Z</time></trkpt><trkpt lat="43.235629974282396" lon="11.12412826845979"><ele>462.8</ele><time>2026-04-04T11:24:18Z</time></trkpt><trkpt lat="43.23554064331573" lon="11.12410734319175"><ele>460.6</ele><time>2026-04-04T11:24:19Z</time></trkpt><trkpt lat="43.2354498947284" lon="11.124086855263043"><ele>458.4</ele><time>2026-04-04T11:24:20Z</time></trkpt><trkpt lat="43.2353449129676" lon="11.124064267889553"><ele>456.2</ele><time>2026-04-04T11:24:21Z</time></trkpt><trkpt lat="43.23525255388076" lon="11.124044396392803"><ele>454.0</ele><time>2026-04-04T11:24:22Z</time></trkpt><trkpt lat="43.23513756448073" lon="11.124019655833642"><ele>453.6</ele><time>2026-04-04T11:24:23Z</time></trkpt><trkpt lat="43.23501922231724" lon="11.1239971799556"><ele>453.2</ele><time>2026-04-04T11:24:24Z</time></trkpt><trkpt lat="43.23490791132116" lon="11.123976277256435"><ele>452.80000000000007</ele><time>2026-04-04T11:24:25Z</time></trkpt><trkpt lat="43.234805411799556" lon="11.123957029178937"><ele>452.40000000000003</ele><time>2026-04-04T11:24:26Z</time></trkpt><trkpt lat="43.23470937998185" lon="11.123938995749446"><ele>452.0</ele><time>2026-04-04T11:24:27Z</time></trkpt><trkpt lat="43.23461318210433" lon="11.123913860440167"><ele>450.49999999999994</ele><time>2026-04-04T11:24:28Z</time></trkpt><trkpt lat="43.23451944248396" lon="11.123889701112173"><ele>449.0</ele><time>2026-04-04T11:24:29Z</time></trkpt><trkpt lat="43.2344328606848" lon="11.12386922804754"><ele>447.5</ele><time>2026-04-04T11:24:30Z</time></trkpt><trkpt lat="43.23435084060246" lon="11.123867126226864"><ele>446.0</ele><time>2026-04-04T11:24:31Z</time></trkpt><trkpt lat="43.234273568207705" lon="11.123893795274947"><ele>444.49999999999994</ele><time>2026-04-04T11:24:32Z</time></trkpt><trkpt lat="43.23420186898066" lon="11.123947153877124"><ele>443.0</ele><time>2026-04-04T11:24:33Z</time></trkpt><trkpt lat="43.23412429212754" lon="11.124032433497817"><ele>443.4</ele><time>2026-04-04T11:24:34Z</time></trkpt><trkpt lat="43.23406728175299" lon="11.124136386398249"><ele>443.79999999999995</ele><time>2026-04-04T11:24:35Z</time></trkpt><trkpt lat="43.23407150985513" lon="11.124295492399687"><ele>444.2</ele><time>2026-04-04T11:24:36Z</time></trkpt><trkpt lat="43.234053445322004" lon="11.124426815638452"><ele>444.6</ele><time>2026-04-04T11:24:37Z</time></trkpt><trkpt lat="43.23401777081961" lon="11.124584194459299"><ele>445.0</ele><time>2026-04-04T11:24:38Z</time></trkpt><trkpt lat="43.23397007771613" lon="11.124683312178412"><ele>443.00000000000006</ele><time>2026-04-04T11:24:39Z</time></trkpt><trkpt lat="43.2339240613058" lon="11.12478482771983"><ele>441.0</ele><time>2026-04-04T11:24:40Z</time></trkpt><trkpt lat="43.23386747310432" lon="11.124850220636777"><ele>439.0</ele><time>2026-04-04T11:24:41Z</time></trkpt><trkpt lat="43.23379103891235" lon="11.124857516050557"><ele>437.0</ele><time>2026-04-04T11:24:42Z</time></trkpt><trkpt lat="43.23370008460903" lon="11.124848025538157"><ele>435.00000000000006</ele><time>2026-04-04T11:24:43Z</time></trkpt><trkpt lat="43.233584005506096" lon="11.124846642166366"><ele>433.0</ele><time>2026-04-04T11:24:44Z</time></trkpt><trkpt lat="43.233479587981414" lon="11.124847097437844"><ele>433.0</ele><time>2026-04-04T11:24:45Z</time></trkpt><trkpt lat="43.23336693645038" lon="11.124894967488542"><ele>432.99999999999994</ele><time>2026-04-04T11:24:46Z</time></trkpt><trkpt lat="43.233271450750735" lon="11.124963278068929"><ele>432.99999999999994</ele><time>2026-04-04T11:24:47Z</time></trkpt><trkpt lat="43.23317425129989" lon="11.124988673183536"><ele>433.0</ele><time>2026-04-04T11:24:48Z</time></trkpt><trkpt lat="43.23308039407535" lon="11.124995158760372"><ele>433.0</ele><time>2026-04-04T11:24:49Z</time></trkpt><trkpt lat="43.23299667462084" lon="11.124996512262056"><ele>431.83333333333337</ele><time>2026-04-04T11:24:50Z</time></trkpt><trkpt lat="43.23291982356858" lon="11.124999220538992"><ele>430.6666666666667</ele><time>2026-04-04T11:24:51Z</time></trkpt><trkpt lat="43.232842297245874" lon="11.125001952617213"><ele>429.5</ele><time>2026-04-04T11:24:52Z</time></trkpt><trkpt lat="43.23273968476288" lon="11.125011956831486"><ele>428.33333333333337</ele><time>2026-04-04T11:24:54Z</time></trkpt><trkpt lat="43.23266021628961" lon="11.125019563793124"><ele>427.1666666666667</ele><time>2026-04-04T11:24:56Z</time></trkpt><trkpt lat="43.23257129726814" lon="11.125026085916735"><ele>426.0</ele><time>2026-04-04T11:24:58Z</time></trkpt><trkpt lat="43.232494386893" lon="11.125028358302705"><ele>426.0</ele><time>2026-04-04T11:25:00Z</time></trkpt><trkpt lat="43.23240845090071" lon="11.125021641128821"><ele>426.0</ele><time>2026-04-04T11:25:01Z</time></trkpt><trkpt lat="43.23230263661864" lon="11.124989305489581"><ele>426.0</ele><time>2026-04-04T11:25:02Z</time></trkpt><trkpt lat="43.232190221626304" lon="11.12495393695549"><ele>426.0</ele><time>2026-04-04T11:25:03Z</time></trkpt><trkpt lat="43.23208947271743" lon="11.124940343938942"><ele>426.0</ele><time>2026-04-04T11:25:04Z</time></trkpt><trkpt lat="43.23197655780304" lon="11.12493169873643"><ele>424.25</ele><time>2026-04-04T11:25:05Z</time></trkpt><trkpt lat="43.23184283652822" lon="11.124925167398718"><ele>422.5</ele><time>2026-04-04T11:25:06Z</time></trkpt><trkpt lat="43.23170228006111" lon="11.12491915636645"><ele>420.75</ele><time>2026-04-04T11:25:07Z</time></trkpt><trkpt lat="43.231576982773" lon="11.124932919851867"><ele>419.0</ele><time>2026-04-04T11:25:08Z</time></trkpt><trkpt lat="43.23146098392333" lon="11.124981746362089"><ele>418.79999999999995</ele><time>2026-04-04T11:25:09Z</time></trkpt><trkpt lat="43.231342625682686" lon="11.12502746858945"><ele>418.59999999999997</ele><time>2026-04-04T11:25:10Z</time></trkpt><trkpt lat="43.2312352230038" lon="11.12503142786976"><ele>418.4</ele><time>2026-04-04T11:25:11Z</time></trkpt><trkpt lat="43.23114168117103" lon="11.125017595918152"><ele>418.2</ele><time>2026-04-04T11:25:12Z</time></trkpt><trkpt lat="43.231043545556155" lon="11.125033524992347"><ele>418.0</ele><time>2026-04-04T11:25:13Z</time></trkpt><trkpt lat="43.23093413192443" lon="11.125088176377261"><ele>418.0</ele><time>2026-04-04T11:25:14Z</time></trkpt><trkpt lat="43.23079103689655" lon="11.125137259606893"><ele>418.0</ele><time>2026-04-04T11:25:15Z</time></trkpt><trkpt lat="43.23060826665277" lon="11.125191451516953"><ele>418.0</ele><time>2026-04-04T11:25:16Z</time></trkpt><trkpt lat="43.230427664289984" lon="11.125239965378475"><ele>417.25</ele><time>2026-04-04T11:25:17Z</time></trkpt><trkpt lat="43.23027721139783" lon="11.12528453642679"><ele>416.5</ele><time>2026-04-04T11:25:18Z</time></trkpt><trkpt lat="43.23014320493086" lon="11.125333495333393"><ele>415.75</ele><time>2026-04-04T11:25:19Z</time></trkpt><trkpt lat="43.23002344120689" lon="11.125390301012201"><ele>415.0</ele><time>2026-04-04T11:25:20Z</time></trkpt><trkpt lat="43.22992306688319" lon="11.125475958504307"><ele>415.0</ele><time>2026-04-04T11:25:21Z</time></trkpt><trkpt lat="43.22981436160606" lon="11.125559821105611"><ele>415.0</ele><time>2026-04-04T11:25:22Z</time></trkpt><trkpt lat="43.22969720104453" lon="11.125659458317386"><ele>415.0</ele><time>2026-04-04T11:25:23Z</time></trkpt><trkpt lat="43.2295580378087" lon="11.125790107806168"><ele>415.0</ele><time>2026-04-04T11:25:24Z</time></trkpt><trkpt lat="43.22944463823123" lon="11.125909132950499"><ele>417.0</ele><time>2026-04-04T11:25:25Z</time></trkpt><trkpt lat="43.22937315887055" lon="11.12604612149287"><ele>419.0</ele><time>2026-04-04T11:25:26Z</time></trkpt><trkpt lat="43.229291347435336" lon="11.126095929244896"><ele>421.0</ele><time>2026-04-04T11:25:27Z</time></trkpt><trkpt lat="43.22921473660405" lon="11.126117954886503"><ele>423.0</ele><time>2026-04-04T11:25:29Z</time></trkpt><trkpt lat="43.22916802940114" lon="11.126025009376951"><ele>425.0</ele><time>2026-04-04T11:25:31Z</time></trkpt><trkpt lat="43.22910168630056" lon="11.125932172333641"><ele>425.0</ele><time>2026-04-04T11:25:32Z</time></trkpt><trkpt lat="43.22902035821055" lon="11.12581181698547"><ele>425.0</ele><time>2026-04-04T11:25:33Z</time></trkpt><trkpt lat="43.22891701275681" lon="11.125684862841211"><ele>425.0</ele><time>2026-04-04T11:25:34Z</time></trkpt><trkpt lat="43.228821573960886" lon="11.125572088334092"><ele>425.0</ele><time>2026-04-04T11:25:35Z</time></trkpt><trkpt lat="43.22876387723518" lon="11.125478592132012"><ele>424.4</ele><time>2026-04-04T11:25:36Z</time></trkpt><trkpt lat="43.22871803026194" lon="11.125402409134391"><ele>423.8</ele><time>2026-04-04T11:25:37Z</time></trkpt><trkpt lat="43.2286439910511" lon="11.125295931939526"><ele>423.20000000000005</ele><time>2026-04-04T11:25:38Z</time></trkpt><trkpt lat="43.22855607179157" lon="11.12511449670048"><ele>422.6</ele><time>2026-04-04T11:25:39Z</time></trkpt><trkpt lat="43.2284874355936" lon="11.124997870767437"><ele>422.0</ele><time>2026-04-04T11:25:40Z</time></trkpt><trkpt lat="43.22842082639328" lon="11.124888139574809"><ele>420.6</ele><time>2026-04-04T11:25:41Z</time></trkpt><trkpt lat="43.22835184365537" lon="11.124801518966894"><ele>419.20000000000005</ele><time>2026-04-04T11:25:42Z</time></trkpt><trkpt lat="43.22828369220669" lon="11.124732443175963"><ele>417.8</ele><time>2026-04-04T11:25:43Z</time></trkpt><trkpt lat="43.22816936579848" lon="11.124745864596107"><ele>416.4</ele><time>2026-04-04T11:25:44Z</time></trkpt><trkpt lat="43.22804916465859" lon="11.124780405776834"><ele>415.0</ele><time>2026-04-04T11:25:45Z</time></trkpt><trkpt lat="43.22790528436221" lon="11.124791242572789"><ele>414.75</ele><time>2026-04-04T11:25:46Z</time></trkpt><trkpt lat="43.22778206745728" lon="11.124788834791167"><ele>414.5</ele><time>2026-04-04T11:25:47Z</time></trkpt><trkpt lat="43.227682008833476" lon="11.124766522272084"><ele>414.25</ele><time>2026-04-04T11:25:48Z</time></trkpt><trkpt lat="43.22758329158377" lon="11.124682556394124"><ele>414.0</ele><time>2026-04-04T11:25:49Z</time></trkpt><trkpt lat="43.22746110356236" lon="11.124629286176"><ele>414.0</ele><time>2026-04-04T11:25:50Z</time></trkpt><trkpt lat="43.22734647463926" lon="11.124616174481242"><ele>414.0</ele><time>2026-04-04T11:25:51Z</time></trkpt><trkpt lat="43.22723996569741" lon="11.124691506211517"><ele>414.0</ele><time>2026-04-04T11:25:52Z</time></trkpt><trkpt lat="43.22712116077145" lon="11.124734038264014"><ele>414.0</ele><time>2026-04-04T11:25:53Z</time></trkpt><trkpt lat="43.22698936190251" lon="11.124770643734019"><ele>414.25</ele><time>2026-04-04T11:25:54Z</time></trkpt><trkpt lat="43.2268779273124" lon="11.12479208237406"><ele>414.5</ele><time>2026-04-04T11:25:55Z</time></trkpt><trkpt lat="43.226762450314425" lon="11.124803298807652"><ele>414.75</ele><time>2026-04-04T11:25:56Z</time></trkpt><trkpt lat="43.22661943986237" lon="11.12480602974962"><ele>415.0</ele><time>2026-04-04T11:25:57Z</time></trkpt><trkpt lat="43.22649173686859" lon="11.124804563864883"><ele>416.8</ele><time>2026-04-04T11:25:58Z</time></trkpt><trkpt lat="43.226396121913815" lon="11.124818465288163"><ele>418.6</ele><time>2026-04-04T11:25:59Z</time></trkpt><trkpt lat="43.22628326183946" lon="11.124784130852687"><ele>420.4</ele><time>2026-04-04T11:26:00Z</time></trkpt><trkpt lat="43.22618356318548" lon="11.124732731284963"><ele>422.2</ele><time>2026-04-04T11:26:01Z</time></trkpt><trkpt lat="43.226129051039706" lon="11.124685865201647"><ele>424.0</ele><time>2026-04-04T11:26:02Z</time></trkpt><trkpt lat="43.226023389282034" lon="11.124601560687593"><ele>424.0</ele><time>2026-04-04T11:26:03Z</time></trkpt><trkpt lat="43.225901352772446" lon="11.124512604995067"><ele>424.0</ele><time>2026-04-04T11:26:03.999Z</time></trkpt><trkpt lat="43.22578444356612" lon="11.124446306195278"><ele>424.0</ele><time>2026-04-04T11:26:04.999Z</time></trkpt><trkpt lat="43.225688251921724" lon="11.124407258208015"><ele>424.0</ele><time>2026-04-04T11:26:05.999Z</time></trkpt><trkpt lat="43.225547166605665" lon="11.124384760850559"><ele>424.2</ele><time>2026-04-04T11:26:06.999Z</time></trkpt><trkpt lat="43.22542892917857" lon="11.124373778263859"><ele>424.4</ele><time>2026-04-04T11:26:07.999Z</time></trkpt><trkpt lat="43.225340071138724" lon="11.12429528174184"><ele>424.6</ele><time>2026-04-04T11:26:08.999Z</time></trkpt><trkpt lat="43.225244334737454" lon="11.124233211436954"><ele>424.8</ele><time>2026-04-04T11:26:09.999Z</time></trkpt><trkpt lat="43.22514325618362" lon="11.12418559491349"><ele>425.0</ele><time>2026-04-04T11:26:10.999Z</time></trkpt><trkpt lat="43.225034540980865" lon="11.12412340526946"><ele>425.0</ele><time>2026-04-04T11:26:11.999Z</time></trkpt><trkpt lat="43.22489049973248" lon="11.1241069846086"><ele>425.0</ele><time>2026-04-04T11:26:12.999Z</time></trkpt><trkpt lat="43.22474190320059" lon="11.124107747487578"><ele>425.0</ele><time>2026-04-04T11:26:13.999Z</time></trkpt><trkpt lat="43.22461012339519" lon="11.124111040424943"><ele>425.0</ele><time>2026-04-04T11:26:14.999Z</time></trkpt><trkpt lat="43.22449669993063" lon="11.124107476344841"><ele>423.6</ele><time>2026-04-04T11:26:15.999Z</time></trkpt><trkpt lat="43.22438505090232" lon="11.124105503980319"><ele>422.2</ele><time>2026-04-04T11:26:16.999Z</time></trkpt><trkpt lat="43.22427608034781" lon="11.124126190534614"><ele>420.79999999999995</ele><time>2026-04-04T11:26:17.999Z</time></trkpt><trkpt lat="43.22419163901325" lon="11.124229768057017"><ele>419.4</ele><time>2026-04-04T11:26:18.999Z</time></trkpt><trkpt lat="43.22410801447648" lon="11.12426327654461"><ele>418.0</ele><time>2026-04-04T11:26:20Z</time></trkpt><trkpt lat="43.224039697822356" lon="11.124284355343594"><ele>417.50000000000006</ele><time>2026-04-04T11:26:21Z</time></trkpt><trkpt lat="43.22395440577283" lon="11.124229393884487"><ele>417.0</ele><time>2026-04-04T11:26:23Z</time></trkpt><trkpt lat="43.22394160542658" lon="11.124141578134497"><ele>416.5</ele><time>2026-04-04T11:26:24Z</time></trkpt><trkpt lat="43.223967376829044" lon="11.124050353831109"><ele>416.0</ele><time>2026-04-04T11:26:25Z</time></trkpt><trkpt lat="43.223999275072295" lon="11.123970114141155"><ele>415.50000000000006</ele><time>2026-04-04T11:26:26Z</time></trkpt><trkpt lat="43.22402429702824" lon="11.123829150996142"><ele>415.0</ele><time>2026-04-04T11:26:27Z</time></trkpt><trkpt lat="43.22406785503964" lon="11.123715725242104"><ele>415.00000000000006</ele><time>2026-04-04T11:26:28Z</time></trkpt><trkpt lat="43.224089814022086" lon="11.12360657438092"><ele>415.0</ele><time>2026-04-04T11:26:29Z</time></trkpt><trkpt lat="43.22408344167078" lon="11.123502802326799"><ele>415.0</ele><time>2026-04-04T11:26:30Z</time></trkpt><trkpt lat="43.22405915510282" lon="11.123407630852927"><ele>415.0</ele><time>2026-04-04T11:26:31Z</time></trkpt><trkpt lat="43.22395277437281" lon="11.123397744578526"><ele>415.00000000000006</ele><time>2026-04-04T11:26:32Z</time></trkpt><trkpt lat="43.22386583583668" lon="11.123396586654433"><ele>415.0</ele><time>2026-04-04T11:26:33Z</time></trkpt><trkpt lat="43.223767539830604" lon="11.123378475630268"><ele>413.5</ele><time>2026-04-04T11:26:34Z</time></trkpt><trkpt lat="43.223666429600236" lon="11.123336637664073"><ele>412.0</ele><time>2026-04-04T11:26:35Z</time></trkpt><trkpt lat="43.223541973685286" lon="11.123278438347667"><ele>410.5</ele><time>2026-04-04T11:26:36Z</time></trkpt><trkpt lat="43.223400324110735" lon="11.123217189053136"><ele>409.0</ele><time>2026-04-04T11:26:37Z</time></trkpt><trkpt lat="43.22327918666137" lon="11.123166828299917"><ele>407.6</ele><time>2026-04-04T11:26:38Z</time></trkpt><trkpt lat="43.223166331161096" lon="11.12314213743079"><ele>406.2</ele><time>2026-04-04T11:26:39Z</time></trkpt><trkpt lat="43.22306814251429" lon="11.123121427731341"><ele>404.8</ele><time>2026-04-04T11:26:40Z</time></trkpt><trkpt lat="43.222964731336376" lon="11.123131736102831"><ele>403.40000000000003</ele><time>2026-04-04T11:26:41Z</time></trkpt><trkpt lat="43.22283683954829" lon="11.12313207632205"><ele>402.0</ele><time>2026-04-04T11:26:42Z</time></trkpt><trkpt lat="43.22269461361712" lon="11.123160182634658"><ele>400.75</ele><time>2026-04-04T11:26:43Z</time></trkpt><trkpt lat="43.22256212122148" lon="11.12318791353842"><ele>399.5</ele><time>2026-04-04T11:26:44Z</time></trkpt><trkpt lat="43.222429927018986" lon="11.123216393580712"><ele>398.25</ele><time>2026-04-04T11:26:45Z</time></trkpt><trkpt lat="43.2223019008011" lon="11.123246066492115"><ele>397.0</ele><time>2026-04-04T11:26:46Z</time></trkpt><trkpt lat="43.22217862650251" lon="11.123275960004882"><ele>395.75</ele><time>2026-04-04T11:26:47Z</time></trkpt><trkpt lat="43.22205415961254" lon="11.12330614278515"><ele>394.5</ele><time>2026-04-04T11:26:48Z</time></trkpt><trkpt lat="43.22193061858946" lon="11.12333443541835"><ele>393.25</ele><time>2026-04-04T11:26:49Z</time></trkpt><trkpt lat="43.221814137146346" lon="11.123358883059137"><ele>392.0</ele><time>2026-04-04T11:26:50Z</time></trkpt><trkpt lat="43.22169558941493" lon="11.123374541090747"><ele>392.0</ele><time>2026-04-04T11:26:51Z</time></trkpt><trkpt lat="43.22157372486973" lon="11.123372351221263"><ele>392.0</ele><time>2026-04-04T11:26:52Z</time></trkpt><trkpt lat="43.221463425518714" lon="11.123342421337474"><ele>392.0</ele><time>2026-04-04T11:26:53Z</time></trkpt><trkpt lat="43.22135081280229" lon="11.123299336480603"><ele>392.0</ele><time>2026-04-04T11:26:54Z</time></trkpt><trkpt lat="43.22126249114956" lon="11.123229169126347"><ele>390.5</ele><time>2026-04-04T11:26:55Z</time></trkpt><trkpt lat="43.22116362079504" lon="11.123137254339404"><ele>389.0</ele><time>2026-04-04T11:26:56Z</time></trkpt><trkpt lat="43.221053268233106" lon="11.123050187331375"><ele>387.5</ele><time>2026-04-04T11:26:57Z</time></trkpt><trkpt lat="43.220946951266754" lon="11.1229479620759"><ele>386.0</ele><time>2026-04-04T11:26:58Z</time></trkpt><trkpt lat="43.22082424377797" lon="11.122877499246421"><ele>386.0</ele><time>2026-04-04T11:26:59Z</time></trkpt><trkpt lat="43.220692919950416" lon="11.122852643765807"><ele>386.0</ele><time>2026-04-04T11:27:00Z</time></trkpt><trkpt lat="43.22056431518977" lon="11.122856808412127"><ele>386.0</ele><time>2026-04-04T11:27:01Z</time></trkpt><trkpt lat="43.220437784758104" lon="11.122833279489234"><ele>386.0</ele><time>2026-04-04T11:27:02Z</time></trkpt><trkpt lat="43.22032621373336" lon="11.122820725142413"><ele>388.4</ele><time>2026-04-04T11:27:03Z</time></trkpt><trkpt lat="43.22023437709305" lon="11.122780160106162"><ele>390.8</ele><time>2026-04-04T11:27:04Z</time></trkpt><trkpt lat="43.22014415612589" lon="11.122718691510743"><ele>393.2</ele><time>2026-04-04T11:27:05Z</time></trkpt><trkpt lat="43.22007256987208" lon="11.122591595079035"><ele>395.59999999999997</ele><time>2026-04-04T11:27:06Z</time></trkpt><trkpt lat="43.22006427919824" lon="11.12242608591204"><ele>398.0</ele><time>2026-04-04T11:27:07Z</time></trkpt><trkpt lat="43.220050201789896" lon="11.122280549745994"><ele>398.0</ele><time>2026-04-04T11:27:08Z</time></trkpt><trkpt lat="43.22004290018021" lon="11.122123128477767"><ele>398.0</ele><time>2026-04-04T11:27:09Z</time></trkpt><trkpt lat="43.22002816760096" lon="11.121954505626261"><ele>398.0</ele><time>2026-04-04T11:27:10Z</time></trkpt><trkpt lat="43.2200158222847" lon="11.121803496294998"><ele>398.0</ele><time>2026-04-04T11:27:11Z</time></trkpt><trkpt lat="43.21999131529209" lon="11.121661104956749"><ele>395.25</ele><time>2026-04-04T11:27:12Z</time></trkpt><trkpt lat="43.21992205693106" lon="11.121537766654203"><ele>392.5</ele><time>2026-04-04T11:27:13Z</time></trkpt><trkpt lat="43.219813506182206" lon="11.121483741227664"><ele>389.75</ele><time>2026-04-04T11:27:14Z</time></trkpt><trkpt lat="43.2197058086017" lon="11.121438115381375"><ele>387.0</ele><time>2026-04-04T11:27:15Z</time></trkpt><trkpt lat="43.21957722882916" lon="11.121422071421968"><ele>387.0</ele><time>2026-04-04T11:27:16Z</time></trkpt><trkpt lat="43.2194278689507" lon="11.12139031284817"><ele>387.0</ele><time>2026-04-04T11:27:17Z</time></trkpt><trkpt lat="43.21926848131908" lon="11.121373980516271"><ele>387.0</ele><time>2026-04-04T11:27:18Z</time></trkpt><trkpt lat="43.21912270101043" lon="11.121363447079172"><ele>387.0</ele><time>2026-04-04T11:27:19Z</time></trkpt><trkpt lat="43.21898584475192" lon="11.1213539319087"><ele>387.0</ele><time>2026-04-04T11:27:20Z</time></trkpt><trkpt lat="43.21885523117894" lon="11.121344850792921"><ele>387.0</ele><time>2026-04-04T11:27:21Z</time></trkpt><trkpt lat="43.21872562109072" lon="11.12133205741743"><ele>387.0</ele><time>2026-04-04T11:27:22Z</time></trkpt><trkpt lat="43.21858509923656" lon="11.121315933754518"><ele>386.5</ele><time>2026-04-04T11:27:23Z</time></trkpt><trkpt lat="43.2184343202864" lon="11.12130046726805"><ele>386.0</ele><time>2026-04-04T11:27:24Z</time></trkpt><trkpt lat="43.2182942651178" lon="11.12129160995023"><ele>385.5</ele><time>2026-04-04T11:27:25Z</time></trkpt><trkpt lat="43.21814323038424" lon="11.121290838096597"><ele>385.0</ele><time>2026-04-04T11:27:26Z</time></trkpt><trkpt lat="43.217999312534964" lon="11.121326031723825"><ele>382.33333333333337</ele><time>2026-04-04T11:27:27Z</time></trkpt><trkpt lat="43.21784124739921" lon="11.12132515686764"><ele>379.6666666666667</ele><time>2026-04-04T11:27:28Z</time></trkpt><trkpt lat="43.21769032659142" lon="11.121346661492169"><ele>377.0</ele><time>2026-04-04T11:27:29Z</time></trkpt><trkpt lat="43.217537151262135" lon="11.121384680495812"><ele>377.0</ele><time>2026-04-04T11:27:30Z</time></trkpt><trkpt lat="43.21738309055924" lon="11.12139897903629"><ele>377.0</ele><time>2026-04-04T11:27:31Z</time></trkpt><trkpt lat="43.21722843988098" lon="11.121422205373285"><ele>377.0</ele><time>2026-04-04T11:27:32Z</time></trkpt><trkpt lat="43.21707422780485" lon="11.12141766467508"><ele>375.0</ele><time>2026-04-04T11:27:33Z</time></trkpt><trkpt lat="43.21691214433767" lon="11.121436033189777"><ele>373.0</ele><time>2026-04-04T11:27:34Z</time></trkpt><trkpt lat="43.216756734763294" lon="11.121453645391153"><ele>371.0</ele><time>2026-04-04T11:27:35Z</time></trkpt><trkpt lat="43.216609613010746" lon="11.121470318375572"><ele>370.5</ele><time>2026-04-04T11:27:36Z</time></trkpt><trkpt lat="43.21646694509776" lon="11.121488338889952"><ele>370.0</ele><time>2026-04-04T11:27:37Z</time></trkpt><trkpt lat="43.21632445877693" lon="11.121506512155982"><ele>369.5</ele><time>2026-04-04T11:27:38Z</time></trkpt><trkpt lat="43.21617200975462" lon="11.121526375986003"><ele>369.0</ele><time>2026-04-04T11:27:39Z</time></trkpt><trkpt lat="43.21601365664071" lon="11.12154774759361"><ele>369.5</ele><time>2026-04-04T11:27:40Z</time></trkpt><trkpt lat="43.21585994149876" lon="11.121568434975353"><ele>370.0</ele><time>2026-04-04T11:27:41Z</time></trkpt><trkpt lat="43.2157266278558" lon="11.121609016127486"><ele>370.5</ele><time>2026-04-04T11:27:42Z</time></trkpt><trkpt lat="43.21558965696342" lon="11.121619896940453"><ele>371.0</ele><time>2026-04-04T11:27:43Z</time></trkpt><trkpt lat="43.21544158399295" lon="11.121617332541046"><ele>372.25</ele><time>2026-04-04T11:27:44Z</time></trkpt><trkpt lat="43.21531214517455" lon="11.121687436942985"><ele>373.5</ele><time>2026-04-04T11:27:45Z</time></trkpt><trkpt lat="43.21520898177526" lon="11.121774122528793"><ele>374.75</ele><time>2026-04-04T11:27:46Z</time></trkpt><trkpt lat="43.21514138938751" lon="11.121897606864087"><ele>376.0</ele><time>2026-04-04T11:27:47Z</time></trkpt><trkpt lat="43.21507953339472" lon="11.122054247398928"><ele>376.0</ele><time>2026-04-04T11:27:48Z</time></trkpt><trkpt lat="43.21501584787492" lon="11.12222836963413"><ele>376.0</ele><time>2026-04-04T11:27:49Z</time></trkpt><trkpt lat="43.21492734254332" lon="11.122369472183706"><ele>376.0</ele><time>2026-04-04T11:27:50Z</time></trkpt><trkpt lat="43.21483980966693" lon="11.122479978279303"><ele>376.0</ele><time>2026-04-04T11:27:51Z</time></trkpt><trkpt lat="43.21473136737595" lon="11.122593834595987"><ele>377.5</ele><time>2026-04-04T11:27:52Z</time></trkpt><trkpt lat="43.214612044653244" lon="11.12271411079409"><ele>379.0</ele><time>2026-04-04T11:27:53Z</time></trkpt><trkpt lat="43.2144872738583" lon="11.122830771952009"><ele>380.5</ele><time>2026-04-04T11:27:54Z</time></trkpt><trkpt lat="43.21436645487694" lon="11.122951124850843"><ele>382.0</ele><time>2026-04-04T11:27:55Z</time></trkpt><trkpt lat="43.21425684053536" lon="11.123114099045777"><ele>382.5</ele><time>2026-04-04T11:27:56Z</time></trkpt><trkpt lat="43.214159476338246" lon="11.123287863804572"><ele>383.0</ele><time>2026-04-04T11:27:57Z</time></trkpt><trkpt lat="43.21406439730034" lon="11.123433169844443"><ele>383.5</ele><time>2026-04-04T11:27:58Z</time></trkpt><trkpt lat="43.213981874798876" lon="11.123570618005859"><ele>384.0</ele><time>2026-04-04T11:27:59Z</time></trkpt><trkpt lat="43.21390249767119" lon="11.123708851070077"><ele>384.0</ele><time>2026-04-04T11:28:00Z</time></trkpt><trkpt lat="43.2138245101009" lon="11.12383100412631"><ele>384.0</ele><time>2026-04-04T11:28:01Z</time></trkpt><trkpt lat="43.213734388336555" lon="11.12393338157983"><ele>384.0</ele><time>2026-04-04T11:28:01.999Z</time></trkpt><trkpt lat="43.21362372168775" lon="11.123986999928405"><ele>384.0</ele><time>2026-04-04T11:28:02.999Z</time></trkpt><trkpt lat="43.21348883255114" lon="11.124033092253654"><ele>381.6666666666667</ele><time>2026-04-04T11:28:03.999Z</time></trkpt><trkpt lat="43.21334853531253" lon="11.124097036074955"><ele>379.33333333333337</ele><time>2026-04-04T11:28:04.999Z</time></trkpt><trkpt lat="43.21321464852658" lon="11.124180231901601"><ele>377.0</ele><time>2026-04-04T11:28:05.999Z</time></trkpt><trkpt lat="43.2130505196199" lon="11.124241747381555"><ele>377.0</ele><time>2026-04-04T11:28:06.999Z</time></trkpt><trkpt lat="43.21290624020584" lon="11.124319953214183"><ele>377.0</ele><time>2026-04-04T11:28:07.999Z</time></trkpt><trkpt lat="43.2127676821578" lon="11.124408086555452"><ele>377.0</ele><time>2026-04-04T11:28:08.999Z</time></trkpt><trkpt lat="43.21262978453912" lon="11.124516584415124"><ele>377.0</ele><time>2026-04-04T11:28:09.999Z</time></trkpt><trkpt lat="43.212506201348525" lon="11.124621313146557"><ele>377.0</ele><time>2026-04-04T11:28:10.999Z</time></trkpt><trkpt lat="43.21238605853466" lon="11.12472297544016"><ele>377.0</ele><time>2026-04-04T11:28:11.999Z</time></trkpt><trkpt lat="43.21226019243441" lon="11.124817290880786"><ele>377.0</ele><time>2026-04-04T11:28:12.999Z</time></trkpt><trkpt lat="43.21214678222745" lon="11.124890281155759"><ele>375.0</ele><time>2026-04-04T11:28:13.999Z</time></trkpt><trkpt lat="43.21202523646949" lon="11.124964095042788"><ele>373.0</ele><time>2026-04-04T11:28:14.999Z</time></trkpt><trkpt lat="43.21189866038748" lon="11.125040881183047"><ele>371.0</ele><time>2026-04-04T11:28:15.999Z</time></trkpt><trkpt lat="43.21176664496121" lon="11.12514322846431"><ele>369.0</ele><time>2026-04-04T11:28:16.999Z</time></trkpt><trkpt lat="43.21162783360324" lon="11.125207484393316"><ele>369.0</ele><time>2026-04-04T11:28:17.999Z</time></trkpt><trkpt lat="43.21149094416192" lon="11.125289159136145"><ele>369.0</ele><time>2026-04-04T11:28:18.999Z</time></trkpt><trkpt lat="43.21135922907157" lon="11.125391942359116"><ele>369.0</ele><time>2026-04-04T11:28:19.999Z</time></trkpt><trkpt lat="43.21122424965192" lon="11.12549028685019"><ele>365.0</ele><time>2026-04-04T11:28:20.999Z</time></trkpt><trkpt lat="43.21110218467729" lon="11.125601061643499"><ele>361.0</ele><time>2026-04-04T11:28:21.999Z</time></trkpt><trkpt lat="43.21098098983054" lon="11.1257248625316"><ele>357.0</ele><time>2026-04-04T11:28:22.999Z</time></trkpt><trkpt lat="43.210865171337964" lon="11.12587255503282"><ele>357.0</ele><time>2026-04-04T11:28:23.999Z</time></trkpt><trkpt lat="43.210758599263855" lon="11.126026037431162"><ele>357.0</ele><time>2026-04-04T11:28:24.999Z</time></trkpt><trkpt lat="43.21066549061012" lon="11.126194527332176"><ele>357.0</ele><time>2026-04-04T11:28:26Z</time></trkpt><trkpt lat="43.210567333983285" lon="11.126336917345911"><ele>355.75</ele><time>2026-04-04T11:28:27Z</time></trkpt><trkpt lat="43.21048776248734" lon="11.12647964587421"><ele>354.5</ele><time>2026-04-04T11:28:28Z</time></trkpt><trkpt lat="43.210410321611626" lon="11.126606457550086"><ele>353.25</ele><time>2026-04-04T11:28:29Z</time></trkpt><trkpt lat="43.21032665275785" lon="11.126704243639718"><ele>352.0</ele><time>2026-04-04T11:28:30Z</time></trkpt><trkpt lat="43.21023866777505" lon="11.126772394997344"><ele>352.0</ele><time>2026-04-04T11:28:31Z</time></trkpt><trkpt lat="43.21014110102367" lon="11.126790847165623"><ele>352.0</ele><time>2026-04-04T11:28:32Z</time></trkpt><trkpt lat="43.21002851456435" lon="11.126748292241198"><ele>352.0</ele><time>2026-04-04T11:28:33Z</time></trkpt><trkpt lat="43.209878352388266" lon="11.126726465286305"><ele>352.0</ele><time>2026-04-04T11:28:34Z</time></trkpt><trkpt lat="43.209732495559024" lon="11.126760847294719"><ele>350.66666666666663</ele><time>2026-04-04T11:28:35Z</time></trkpt><trkpt lat="43.20956579756557" lon="11.126780777654389"><ele>349.3333333333333</ele><time>2026-04-04T11:28:36Z</time></trkpt><trkpt lat="43.20940494490473" lon="11.126822675237452"><ele>348.0</ele><time>2026-04-04T11:28:37Z</time></trkpt><trkpt lat="43.20925798995535" lon="11.126862053398748"><ele>348.0</ele><time>2026-04-04T11:28:38Z</time></trkpt><trkpt lat="43.2091002397357" lon="11.126892053746658"><ele>348.0</ele><time>2026-04-04T11:28:39Z</time></trkpt><trkpt lat="43.208941246142054" lon="11.126918399444335"><ele>348.0</ele><time>2026-04-04T11:28:40Z</time></trkpt><trkpt lat="43.20880632392142" lon="11.126936888218685"><ele>346.4</ele><time>2026-04-04T11:28:41Z</time></trkpt><trkpt lat="43.20868320877676" lon="11.126946032265218"><ele>344.79999999999995</ele><time>2026-04-04T11:28:42Z</time></trkpt><trkpt lat="43.208569496614814" lon="11.126947126377885"><ele>343.2</ele><time>2026-04-04T11:28:43Z</time></trkpt><trkpt lat="43.20846500874202" lon="11.126930968022828"><ele>341.6</ele><time>2026-04-04T11:28:44Z</time></trkpt><trkpt lat="43.20836833899383" lon="11.126886856805303"><ele>340.0</ele><time>2026-04-04T11:28:45Z</time></trkpt><trkpt lat="43.208286103594595" lon="11.126795095702319"><ele>340.0</ele><time>2026-04-04T11:28:46Z</time></trkpt><trkpt lat="43.20817680964348" lon="11.126676438535531"><ele>340.0</ele><time>2026-04-04T11:28:47Z</time></trkpt><trkpt lat="43.20804839550351" lon="11.126592684408367"><ele>340.0</ele><time>2026-04-04T11:28:48Z</time></trkpt><trkpt lat="43.20790773661766" lon="11.126549867353928"><ele>340.0</ele><time>2026-04-04T11:28:49Z</time></trkpt><trkpt lat="43.20776404473336" lon="11.126528102553099"><ele>335.3333333333333</ele><time>2026-04-04T11:28:50Z</time></trkpt><trkpt lat="43.20760416293738" lon="11.126464552445118"><ele>330.6666666666667</ele><time>2026-04-04T11:28:51Z</time></trkpt><trkpt lat="43.20744246425077" lon="11.126425659457258"><ele>326.0</ele><time>2026-04-04T11:28:52Z</time></trkpt><trkpt lat="43.2072854156741" lon="11.126388663213245"><ele>323.6666666666667</ele><time>2026-04-04T11:28:53Z</time></trkpt><trkpt lat="43.20712784274914" lon="11.12635154346232"><ele>321.3333333333333</ele><time>2026-04-04T11:28:54Z</time></trkpt><trkpt lat="43.20697552468479" lon="11.12631566160779"><ele>319.0</ele><time>2026-04-04T11:28:55Z</time></trkpt><trkpt lat="43.20683156534326" lon="11.126282486834262"><ele>319.0</ele><time>2026-04-04T11:28:56Z</time></trkpt><trkpt lat="43.206697514786896" lon="11.126254439879892"><ele>319.0</ele><time>2026-04-04T11:28:57Z</time></trkpt><trkpt lat="43.20658245041024" lon="11.126232274038234"><ele>319.0</ele><time>2026-04-04T11:28:58Z</time></trkpt><trkpt lat="43.206483171400926" lon="11.126232203737626"><ele>319.0</ele><time>2026-04-04T11:28:59Z</time></trkpt><trkpt lat="43.20639740915426" lon="11.126229075744728"><ele>319.0</ele><time>2026-04-04T11:29:00Z</time></trkpt><trkpt lat="43.20630249787241" lon="11.126259441685932"><ele>319.5</ele><time>2026-04-04T11:29:01Z</time></trkpt><trkpt lat="43.20622932606167" lon="11.12639087437794"><ele>320.0</ele><time>2026-04-04T11:29:02Z</time></trkpt><trkpt lat="43.206173158924344" lon="11.126521663898512"><ele>320.5</ele><time>2026-04-04T11:29:03Z</time></trkpt><trkpt lat="43.20611118675995" lon="11.126654672671728"><ele>321.0</ele><time>2026-04-04T11:29:04Z</time></trkpt><trkpt lat="43.20605295286806" lon="11.126790454700641"><ele>321.0</ele><time>2026-04-04T11:29:05Z</time></trkpt><trkpt lat="43.20598069480615" lon="11.126904020651232"><ele>321.0</ele><time>2026-04-04T11:29:06Z</time></trkpt><trkpt lat="43.20587493155284" lon="11.126978536617447"><ele>321.0</ele><time>2026-04-04T11:29:07Z</time></trkpt><trkpt lat="43.205760058248806" lon="11.12703229421511"><ele>321.0</ele><time>2026-04-04T11:29:08Z</time></trkpt><trkpt lat="43.20565144059812" lon="11.127099793896955"><ele>320.8</ele><time>2026-04-04T11:29:09Z</time></trkpt><trkpt lat="43.20557337726804" lon="11.127221604871703"><ele>320.6</ele><time>2026-04-04T11:29:10Z</time></trkpt><trkpt lat="43.20549153539683" lon="11.12731617859525"><ele>320.4</ele><time>2026-04-04T11:29:11Z</time></trkpt><trkpt lat="43.20542151404851" lon="11.127409158842166"><ele>320.2</ele><time>2026-04-04T11:29:12Z</time></trkpt><trkpt lat="43.20535348699655" lon="11.127493843640185"><ele>320.0</ele><time>2026-04-04T11:29:13Z</time></trkpt><trkpt lat="43.20526612529332" lon="11.12751948617093"><ele>319.5</ele><time>2026-04-04T11:29:14Z</time></trkpt><trkpt lat="43.205157141640534" lon="11.1275255914505"><ele>319.0</ele><time>2026-04-04T11:29:15Z</time></trkpt><trkpt lat="43.20502667593409" lon="11.127519377087182"><ele>318.5</ele><time>2026-04-04T11:29:16Z</time></trkpt><trkpt lat="43.20489342882143" lon="11.127515334261604"><ele>318.0</ele><time>2026-04-04T11:29:17Z</time></trkpt><trkpt lat="43.20478693409739" lon="11.127511209901874"><ele>317.3333333333333</ele><time>2026-04-04T11:29:18Z</time></trkpt><trkpt lat="43.204698189702775" lon="11.127505555550973"><ele>316.6666666666667</ele><time>2026-04-04T11:29:19Z</time></trkpt><trkpt lat="43.20463214732604" lon="11.127501138925217"><ele>316.0</ele><time>2026-04-04T11:29:20Z</time></trkpt><trkpt lat="43.204564688527256" lon="11.127531261534477"><ele>315.33333333333337</ele><time>2026-04-04T11:29:21Z</time></trkpt><trkpt lat="43.20451227038899" lon="11.127602532148824"><ele>314.6666666666667</ele><time>2026-04-04T11:29:22Z</time></trkpt><trkpt lat="43.20452950834503" lon="11.127727700317886"><ele>314.0</ele><time>2026-04-04T11:29:23Z</time></trkpt><trkpt lat="43.20457706150502" lon="11.12781022512625"><ele>314.0</ele><time>2026-04-04T11:29:24Z</time></trkpt><trkpt lat="43.2046550902057" lon="11.127858232177429"><ele>314.0</ele><time>2026-04-04T11:29:25Z</time></trkpt><trkpt lat="43.20476250512822" lon="11.127870179131412"><ele>314.0</ele><time>2026-04-04T11:29:26Z</time></trkpt><trkpt lat="43.20487939062382" lon="11.127892961515723"><ele>314.0</ele><time>2026-04-04T11:29:27Z</time></trkpt><trkpt lat="43.20497578924638" lon="11.127963372269877"><ele>314.0</ele><time>2026-04-04T11:29:28Z</time></trkpt><trkpt lat="43.20506905408501" lon="11.128057657195436"><ele>314.8</ele><time>2026-04-04T11:29:29Z</time></trkpt><trkpt lat="43.205138787537905" lon="11.128163117384451"><ele>315.59999999999997</ele><time>2026-04-04T11:29:30Z</time></trkpt><trkpt lat="43.205187725805324" lon="11.128266950290204"><ele>316.4</ele><time>2026-04-04T11:29:31Z</time></trkpt><trkpt lat="43.205235726772635" lon="11.128395332352433"><ele>317.2</ele><time>2026-04-04T11:29:32Z</time></trkpt><trkpt lat="43.205213948657416" lon="11.128519070919285"><ele>318.0</ele><time>2026-04-04T11:29:33Z</time></trkpt><trkpt lat="43.20520054436746" lon="11.128639435109674"><ele>316.2</ele><time>2026-04-04T11:29:34Z</time></trkpt><trkpt lat="43.20517040523749" lon="11.128764443815376"><ele>314.4</ele><time>2026-04-04T11:29:35Z</time></trkpt><trkpt lat="43.20510637382652" lon="11.128871118340976"><ele>312.59999999999997</ele><time>2026-04-04T11:29:36Z</time></trkpt><trkpt lat="43.20501404010155" lon="11.128923778082271"><ele>310.8</ele><time>2026-04-04T11:29:37Z</time></trkpt><trkpt lat="43.20491257939048" lon="11.128950754482817"><ele>309.0</ele><time>2026-04-04T11:29:38Z</time></trkpt><trkpt lat="43.204792692088986" lon="11.12894286949309"><ele>308.5</ele><time>2026-04-04T11:29:39Z</time></trkpt><trkpt lat="43.20467369446272" lon="11.128959449627592"><ele>308.0</ele><time>2026-04-04T11:29:40Z</time></trkpt><trkpt lat="43.20458084429719" lon="11.129009500464656"><ele>307.5</ele><time>2026-04-04T11:29:41Z</time></trkpt><trkpt lat="43.20450863726148" lon="11.129134294950733"><ele>307.0</ele><time>2026-04-04T11:29:42Z</time></trkpt><trkpt lat="43.20446761765575" lon="11.129287427694585"><ele>305.4</ele><time>2026-04-04T11:29:43Z</time></trkpt><trkpt lat="43.20442059080335" lon="11.12944025377691"><ele>303.79999999999995</ele><time>2026-04-04T11:29:44Z</time></trkpt><trkpt lat="43.20439369322492" lon="11.129591835030478"><ele>302.2</ele><time>2026-04-04T11:29:45Z</time></trkpt><trkpt lat="43.20439666371607" lon="11.129728797960889"><ele>300.59999999999997</ele><time>2026-04-04T11:29:46Z</time></trkpt><trkpt lat="43.20442806762153" lon="11.129856025967298"><ele>299.0</ele><time>2026-04-04T11:29:47Z</time></trkpt><trkpt lat="43.20448718917397" lon="11.129975979546115"><ele>296.75</ele><time>2026-04-04T11:29:48Z</time></trkpt><trkpt lat="43.204568767558456" lon="11.130079110757197"><ele>294.5</ele><time>2026-04-04T11:29:49Z</time></trkpt><trkpt lat="43.20464804573377" lon="11.130199005187698"><ele>292.25</ele><time>2026-04-04T11:29:50Z</time></trkpt><trkpt lat="43.204701989708596" lon="11.130340197723005"><ele>290.0</ele><time>2026-04-04T11:29:51Z</time></trkpt><trkpt lat="43.204741650789494" lon="11.130484451979651"><ele>290.0</ele><time>2026-04-04T11:29:52Z</time></trkpt><trkpt lat="43.20477484648977" lon="11.130607091168724"><ele>290.0</ele><time>2026-04-04T11:29:53Z</time></trkpt><trkpt lat="43.20478480636944" lon="11.130700144717748"><ele>290.0</ele><time>2026-04-04T11:29:54Z</time></trkpt><trkpt lat="43.20473650277733" lon="11.130790221979591"><ele>290.0</ele><time>2026-04-04T11:29:55Z</time></trkpt><trkpt lat="43.20469542360977" lon="11.130872994145086"><ele>290.0</ele><time>2026-04-04T11:29:56Z</time></trkpt><trkpt lat="43.20466443057137" lon="11.130979978609012"><ele>290.0</ele><time>2026-04-04T11:29:57Z</time></trkpt><trkpt lat="43.20459842195275" lon="11.131120890991044"><ele>289.75</ele><time>2026-04-04T11:29:58Z</time></trkpt><trkpt lat="43.20454898711488" lon="11.131300351431156"><ele>289.5</ele><time>2026-04-04T11:29:59Z</time></trkpt><trkpt lat="43.20450621792527" lon="11.131508590661936"><ele>289.25</ele><time>2026-04-04T11:30:00Z</time></trkpt><trkpt lat="43.20447188258636" lon="11.131708954032568"><ele>289.0</ele><time>2026-04-04T11:30:01Z</time></trkpt><trkpt lat="43.20443804736958" lon="11.131888599685496"><ele>290.0</ele><time>2026-04-04T11:30:02Z</time></trkpt><trkpt lat="43.20440912592914" lon="11.132055242002133"><ele>291.0</ele><time>2026-04-04T11:30:03Z</time></trkpt><trkpt lat="43.20437387918248" lon="11.132204908623319"><ele>292.0</ele><time>2026-04-04T11:30:04Z</time></trkpt><trkpt lat="43.20430525051959" lon="11.132303599685915"><ele>293.0</ele><time>2026-04-04T11:30:05Z</time></trkpt><trkpt lat="43.20421989288518" lon="11.132378202838952"><ele>294.0</ele><time>2026-04-04T11:30:06Z</time></trkpt><trkpt lat="43.20410558859539" lon="11.132456983478688"><ele>295.0</ele><time>2026-04-04T11:30:07Z</time></trkpt><trkpt lat="43.203973158344596" lon="11.132564522680552"><ele>296.0</ele><time>2026-04-04T11:30:08Z</time></trkpt><trkpt lat="43.203831292502336" lon="11.132666267217736"><ele>297.0</ele><time>2026-04-04T11:30:09Z</time></trkpt><trkpt lat="43.203712050189466" lon="11.13277108349659"><ele>297.0</ele><time>2026-04-04T11:30:10Z</time></trkpt><trkpt lat="43.2036216415284" lon="11.13287130703363"><ele>297.0</ele><time>2026-04-04T11:30:10.999Z</time></trkpt><trkpt lat="43.20353698606159" lon="11.133001943443862"><ele>297.0</ele><time>2026-04-04T11:30:11.999Z</time></trkpt><trkpt lat="43.20345008407036" lon="11.133157781505853"><ele>297.0</ele><time>2026-04-04T11:30:12.999Z</time></trkpt><trkpt lat="43.203342315281205" lon="11.13327204040779"><ele>298.0</ele><time>2026-04-04T11:30:13.999Z</time></trkpt><trkpt lat="43.203230534653436" lon="11.133350159031442"><ele>299.0</ele><time>2026-04-04T11:30:14.999Z</time></trkpt><trkpt lat="43.20312250394198" lon="11.133426323427278"><ele>300.0</ele><time>2026-04-04T11:30:15.999Z</time></trkpt><trkpt lat="43.20303608134392" lon="11.133512249001836"><ele>301.0</ele><time>2026-04-04T11:30:16.999Z</time></trkpt><trkpt lat="43.202956463961485" lon="11.133597927632065"><ele>301.0</ele><time>2026-04-04T11:30:17.999Z</time></trkpt><trkpt lat="43.20290542167974" lon="11.13371598343987"><ele>301.0</ele><time>2026-04-04T11:30:18.999Z</time></trkpt><trkpt lat="43.20288221754389" lon="11.133859147860646"><ele>301.0</ele><time>2026-04-04T11:30:19.999Z</time></trkpt><trkpt lat="43.20288325742123" lon="11.133984640750208"><ele>301.0</ele><time>2026-04-04T11:30:20.999Z</time></trkpt><trkpt lat="43.20289807565036" lon="11.134126164794868"><ele>301.0</ele><time>2026-04-04T11:30:22.999Z</time></trkpt><trkpt lat="43.20292304743074" lon="11.134224154618408"><ele>302.6</ele><time>2026-04-04T11:30:39Z</time></trkpt><trkpt lat="43.20290060831849" lon="11.134463652894302"><ele>304.20000000000005</ele><time>2026-04-04T11:31:17Z</time></trkpt><trkpt lat="43.202863588833694" lon="11.13458772906679"><ele>305.79999999999995</ele><time>2026-04-04T11:31:19Z</time></trkpt><trkpt lat="43.20281497112613" lon="11.134646781984781"><ele>307.4</ele><time>2026-04-04T11:31:20Z</time></trkpt><trkpt lat="43.20273639991963" lon="11.13469889184035"><ele>309.0</ele><time>2026-04-04T11:31:22Z</time></trkpt><trkpt lat="43.202666468973455" lon="11.134735879832157"><ele>309.0</ele><time>2026-04-04T11:31:25Z</time></trkpt><trkpt lat="43.202617792652525" lon="11.134847692905138"><ele>309.0</ele><time>2026-04-04T11:31:50Z</time></trkpt><trkpt lat="43.2025671186015" lon="11.134925910414067"><ele>309.0</ele><time>2026-04-04T11:31:51Z</time></trkpt><trkpt lat="43.20250753343942" lon="11.135047966629443"><ele>309.0</ele><time>2026-04-04T11:31:52Z</time></trkpt><trkpt lat="43.202441137710935" lon="11.135197349604985"><ele>309.0</ele><time>2026-04-04T11:31:53Z</time></trkpt><trkpt lat="43.202368347322874" lon="11.135359211927167"><ele>308.0</ele><time>2026-04-04T11:31:54Z</time></trkpt><trkpt lat="43.202268049045315" lon="11.135490986033993"><ele>307.0</ele><time>2026-04-04T11:31:55Z</time></trkpt><trkpt lat="43.20218682490902" lon="11.135639109283682"><ele>306.0</ele><time>2026-04-04T11:31:56Z</time></trkpt><trkpt lat="43.20209970883414" lon="11.135757436355556"><ele>305.0</ele><time>2026-04-04T11:31:57Z</time></trkpt><trkpt lat="43.2020125513428" lon="11.1359018455349"><ele>307.0</ele><time>2026-04-04T11:31:58Z</time></trkpt><trkpt lat="43.20193260219618" lon="11.13605066673894"><ele>309.0</ele><time>2026-04-04T11:31:59Z</time></trkpt><trkpt lat="43.20185631325083" lon="11.136180121833279"><ele>311.0</ele><time>2026-04-04T11:32:00Z</time></trkpt><trkpt lat="43.20178245761837" lon="11.136300564597644"><ele>313.0</ele><time>2026-04-04T11:32:01Z</time></trkpt><trkpt lat="43.20171582360544" lon="11.136443655136075"><ele>315.25</ele><time>2026-04-04T11:32:02Z</time></trkpt><trkpt lat="43.2016535026358" lon="11.136596422187354"><ele>317.5</ele><time>2026-04-04T11:32:03Z</time></trkpt><trkpt lat="43.20161020844077" lon="11.136743939196657"><ele>319.75</ele><time>2026-04-04T11:32:04Z</time></trkpt><trkpt lat="43.2015846122886" lon="11.13690813456598"><ele>322.0</ele><time>2026-04-04T11:32:05Z</time></trkpt><trkpt lat="43.20157997966689" lon="11.137082985375887"><ele>322.0</ele><time>2026-04-04T11:32:06Z</time></trkpt><trkpt lat="43.201600394997264" lon="11.137259446977017"><ele>322.0</ele><time>2026-04-04T11:32:07Z</time></trkpt><trkpt lat="43.20163586349888" lon="11.137431119006008"><ele>322.0</ele><time>2026-04-04T11:32:08Z</time></trkpt><trkpt lat="43.20166769742727" lon="11.137606297354234"><ele>322.0</ele><time>2026-04-04T11:32:09Z</time></trkpt><trkpt lat="43.2016459962224" lon="11.137776463379076"><ele>321.5</ele><time>2026-04-04T11:32:10Z</time></trkpt><trkpt lat="43.20161811284521" lon="11.137926505617168"><ele>321.0</ele><time>2026-04-04T11:32:11Z</time></trkpt><trkpt lat="43.20157982264962" lon="11.138087716089645"><ele>320.5</ele><time>2026-04-04T11:32:12Z</time></trkpt><trkpt lat="43.20150993163868" lon="11.138236549447043"><ele>320.0</ele><time>2026-04-04T11:32:13Z</time></trkpt><trkpt lat="43.20144604425291" lon="11.13838728163865"><ele>320.0</ele><time>2026-04-04T11:32:14Z</time></trkpt><trkpt lat="43.20140373008966" lon="11.138545028152508"><ele>320.0</ele><time>2026-04-04T11:32:15Z</time></trkpt><trkpt lat="43.201391559376546" lon="11.138713617878432"><ele>320.0</ele><time>2026-04-04T11:32:16Z</time></trkpt><trkpt lat="43.201397283742835" lon="11.138912882629867"><ele>320.0</ele><time>2026-04-04T11:32:17Z</time></trkpt><trkpt lat="43.201409592536315" lon="11.139121719948552"><ele>320.25</ele><time>2026-04-04T11:32:18Z</time></trkpt><trkpt lat="43.201421719990584" lon="11.13929181492714"><ele>320.5</ele><time>2026-04-04T11:32:19Z</time></trkpt><trkpt lat="43.20142341393209" lon="11.139449763230834"><ele>320.75</ele><time>2026-04-04T11:32:20Z</time></trkpt><trkpt lat="43.201402686838165" lon="11.139601924460734"><ele>321.0</ele><time>2026-04-04T11:32:20.999Z</time></trkpt><trkpt lat="43.20134880393649" lon="11.139748768928543"><ele>322.5</ele><time>2026-04-04T11:32:21.999Z</time></trkpt><trkpt lat="43.20128131717303" lon="11.139884892573615"><ele>324.0</ele><time>2026-04-04T11:32:22.999Z</time></trkpt><trkpt lat="43.20121903787082" lon="11.14003813429037"><ele>325.5</ele><time>2026-04-04T11:32:23.999Z</time></trkpt><trkpt lat="43.20113136003228" lon="11.140197726098217"><ele>327.0</ele><time>2026-04-04T11:32:24.999Z</time></trkpt><trkpt lat="43.20104900877747" lon="11.140363554691742"><ele>327.0</ele><time>2026-04-04T11:32:25.999Z</time></trkpt><trkpt lat="43.20096576946172" lon="11.140539902946319"><ele>327.0</ele><time>2026-04-04T11:32:26.999Z</time></trkpt><trkpt lat="43.20088452641656" lon="11.14070403379468"><ele>327.0</ele><time>2026-04-04T11:32:27.999Z</time></trkpt><trkpt lat="43.20081106673418" lon="11.140841180650504"><ele>327.0</ele><time>2026-04-04T11:32:28.999Z</time></trkpt><trkpt lat="43.20074693650271" lon="11.140970896916402"><ele>328.5</ele><time>2026-04-04T11:32:29.999Z</time></trkpt><trkpt lat="43.200690682213285" lon="11.141127357581162"><ele>330.0</ele><time>2026-04-04T11:32:30.999Z</time></trkpt><trkpt lat="43.200651862267215" lon="11.141307456794642"><ele>331.5</ele><time>2026-04-04T11:32:31.999Z</time></trkpt><trkpt lat="43.20063716131619" lon="11.14149757709102"><ele>333.0</ele><time>2026-04-04T11:32:32.999Z</time></trkpt><trkpt lat="43.20063489089511" lon="11.141676196705246"><ele>330.59999999999997</ele><time>2026-04-04T11:32:33.999Z</time></trkpt><trkpt lat="43.20060726950135" lon="11.141839864301167"><ele>328.2</ele><time>2026-04-04T11:32:34.999Z</time></trkpt><trkpt lat="43.20056354393851" lon="11.141987883895393"><ele>325.8</ele><time>2026-04-04T11:32:35.999Z</time></trkpt><trkpt lat="43.200535762417104" lon="11.142131591987964"><ele>323.4</ele><time>2026-04-04T11:32:36.999Z</time></trkpt><trkpt lat="43.200496921877026" lon="11.142254308522636"><ele>321.0</ele><time>2026-04-04T11:32:38Z</time></trkpt><trkpt lat="43.2004833110702" lon="11.142374382182341"><ele>321.75</ele><time>2026-04-04T11:32:39Z</time></trkpt><trkpt lat="43.2004858582972" lon="11.14251462574331"><ele>322.5</ele><time>2026-04-04T11:32:40Z</time></trkpt><trkpt lat="43.20051693250803" lon="11.142670303238077"><ele>323.25</ele><time>2026-04-04T11:32:41Z</time></trkpt><trkpt lat="43.200565422103494" lon="11.142817184905745"><ele>324.0</ele><time>2026-04-04T11:32:42Z</time></trkpt><trkpt lat="43.200622869192365" lon="11.14295852857455"><ele>323.79999999999995</ele><time>2026-04-04T11:32:43Z</time></trkpt><trkpt lat="43.2006860442203" lon="11.14308824302445"><ele>323.59999999999997</ele><time>2026-04-04T11:32:44Z</time></trkpt><trkpt lat="43.2007469602165" lon="11.143210120197256"><ele>323.4</ele><time>2026-04-04T11:32:45Z</time></trkpt><trkpt lat="43.20082145720315" lon="11.143307291204904"><ele>323.2</ele><time>2026-04-04T11:32:46Z</time></trkpt><trkpt lat="43.20091105636721" lon="11.143374968436689"><ele>323.0</ele><time>2026-04-04T11:32:47Z</time></trkpt><trkpt lat="43.20100867430975" lon="11.143407218074676"><ele>323.0</ele><time>2026-04-04T11:32:48Z</time></trkpt><trkpt lat="43.20112694060212" lon="11.14341179328102"><ele>323.0</ele><time>2026-04-04T11:32:49Z</time></trkpt><trkpt lat="43.20125468662781" lon="11.143404315988253"><ele>323.0</ele><time>2026-04-04T11:32:50Z</time></trkpt><trkpt lat="43.201372772145014" lon="11.14344748021024"><ele>323.0</ele><time>2026-04-04T11:32:51Z</time></trkpt><trkpt lat="43.20147630477953" lon="11.143547271386469"><ele>324.4</ele><time>2026-04-04T11:32:52Z</time></trkpt><trkpt lat="43.201599698697166" lon="11.143629094229022"><ele>325.79999999999995</ele><time>2026-04-04T11:32:53Z</time></trkpt><trkpt lat="43.20168954640164" lon="11.143703565096988"><ele>327.2</ele><time>2026-04-04T11:32:54Z</time></trkpt><trkpt lat="43.201744903669926" lon="11.143780472801879"><ele>328.6</ele><time>2026-04-04T11:32:55Z</time></trkpt><trkpt lat="43.20178885974319" lon="11.14386428770611"><ele>330.0</ele><time>2026-04-04T11:32:56Z</time></trkpt><trkpt lat="43.2018028978872" lon="11.143963348738664"><ele>328.0</ele><time>2026-04-04T11:32:57Z</time></trkpt><trkpt lat="43.20179685188162" lon="11.144085111237558"><ele>326.0</ele><time>2026-04-04T11:32:58Z</time></trkpt><trkpt lat="43.20173455060945" lon="11.144216757211023"><ele>324.0</ele><time>2026-04-04T11:32:59Z</time></trkpt><trkpt lat="43.20170057347009" lon="11.144397895430206"><ele>322.0</ele><time>2026-04-04T11:33:00Z</time></trkpt><trkpt lat="43.20165708996885" lon="11.14457996134036"><ele>322.0</ele><time>2026-04-04T11:33:01Z</time></trkpt><trkpt lat="43.20162180407071" lon="11.144747109262502"><ele>322.0</ele><time>2026-04-04T11:33:02Z</time></trkpt><trkpt lat="43.20160824853544" lon="11.144909713712046"><ele>322.0</ele><time>2026-04-04T11:33:03Z</time></trkpt><trkpt lat="43.201620094843136" lon="11.14506629936955"><ele>322.0</ele><time>2026-04-04T11:33:04Z</time></trkpt><trkpt lat="43.201643848004245" lon="11.145217415389482"><ele>320.8333333333333</ele><time>2026-04-04T11:33:05Z</time></trkpt><trkpt lat="43.20166815528254" lon="11.1453418628434"><ele>319.66666666666663</ele><time>2026-04-04T11:33:06Z</time></trkpt><trkpt lat="43.20165126204866" lon="11.145433143197948"><ele>318.5</ele><time>2026-04-04T11:33:07Z</time></trkpt><trkpt lat="43.20156396625245" lon="11.145519462902774"><ele>317.3333333333333</ele><time>2026-04-04T11:33:09Z</time></trkpt><trkpt lat="43.20149381799403" lon="11.145461631378039"><ele>316.1666666666667</ele><time>2026-04-04T11:33:10Z</time></trkpt><trkpt lat="43.20144480407908" lon="11.145389696345699"><ele>315.0</ele><time>2026-04-04T11:33:11Z</time></trkpt><trkpt lat="43.20142183655674" lon="11.145271048110725"><ele>313.1666666666667</ele><time>2026-04-04T11:33:12Z</time></trkpt><trkpt lat="43.20139869957877" lon="11.145175261823786"><ele>311.3333333333333</ele><time>2026-04-04T11:33:13Z</time></trkpt><trkpt lat="43.201347472372525" lon="11.145111025817268"><ele>309.5</ele><time>2026-04-04T11:33:14Z</time></trkpt><trkpt lat="43.201272983413055" lon="11.145114033852586"><ele>307.66666666666663</ele><time>2026-04-04T11:33:15Z</time></trkpt><trkpt lat="43.20121984951279" lon="11.145185227877757"><ele>305.8333333333333</ele><time>2026-04-04T11:33:16Z</time></trkpt><trkpt lat="43.20117307293023" lon="11.145272898015246"><ele>304.0</ele><time>2026-04-04T11:33:17Z</time></trkpt><trkpt lat="43.201213631348786" lon="11.145379269204465"><ele>304.0</ele><time>2026-04-04T11:33:18Z</time></trkpt><trkpt lat="43.201237147128" lon="11.14547012782383"><ele>304.0</ele><time>2026-04-04T11:33:19Z</time></trkpt><trkpt lat="43.20130086835139" lon="11.145581047257767"><ele>304.0</ele><time>2026-04-04T11:33:20Z</time></trkpt><trkpt lat="43.201366515544045" lon="11.145736174851482"><ele>304.0</ele><time>2026-04-04T11:33:21Z</time></trkpt><trkpt lat="43.201463745975886" lon="11.145891513519826"><ele>305.25</ele><time>2026-04-04T11:33:22Z</time></trkpt><trkpt lat="43.20153818347066" lon="11.146028103359724"><ele>306.5</ele><time>2026-04-04T11:33:23Z</time></trkpt><trkpt lat="43.201611243527786" lon="11.146158415595066"><ele>307.75</ele><time>2026-04-04T11:33:24Z</time></trkpt><trkpt lat="43.20168007265044" lon="11.146270225032435"><ele>309.0</ele><time>2026-04-04T11:33:25Z</time></trkpt><trkpt lat="43.201746759978896" lon="11.146387596543672"><ele>309.0</ele><time>2026-04-04T11:33:26Z</time></trkpt><trkpt lat="43.201821659976574" lon="11.146491448185248"><ele>309.0</ele><time>2026-04-04T11:33:27Z</time></trkpt><trkpt lat="43.20187829448201" lon="11.146587114542372"><ele>309.0</ele><time>2026-04-04T11:33:28Z</time></trkpt><trkpt lat="43.20192894362865" lon="11.146674703001818"><ele>309.0</ele><time>2026-04-04T11:33:29Z</time></trkpt><trkpt lat="43.201970528758295" lon="11.146743494400866"><ele>309.0</ele><time>2026-04-04T11:33:30Z</time></trkpt><trkpt lat="43.20202834622526" lon="11.146844461591112"><ele>309.0</ele><time>2026-04-04T11:33:32Z</time></trkpt><trkpt lat="43.201884786596054" lon="11.146922879890905"><ele>307.0</ele><time>2026-04-04T11:33:39Z</time></trkpt><trkpt lat="43.201768286058815" lon="11.146876872929449"><ele>305.0</ele><time>2026-04-04T11:33:40Z</time></trkpt><trkpt lat="43.201663510102485" lon="11.14683410932853"><ele>303.0</ele><time>2026-04-04T11:33:41Z</time></trkpt><trkpt lat="43.201562675677756" lon="11.146774461005126"><ele>301.0</ele><time>2026-04-04T11:33:42Z</time></trkpt><trkpt lat="43.20146333736554" lon="11.146701478141933"><ele>299.3333333333333</ele><time>2026-04-04T11:33:43Z</time></trkpt><trkpt lat="43.2013542174269" lon="11.146626185057157"><ele>297.6666666666667</ele><time>2026-04-04T11:33:44Z</time></trkpt><trkpt lat="43.20121859590831" lon="11.146541370737225"><ele>296.0</ele><time>2026-04-04T11:33:45Z</time></trkpt><trkpt lat="43.20105757966362" lon="11.146436176628644"><ele>296.0</ele><time>2026-04-04T11:33:46Z</time></trkpt><trkpt lat="43.200924331997754" lon="11.146340530809178"><ele>296.0</ele><time>2026-04-04T11:33:47Z</time></trkpt><trkpt lat="43.200803842290725" lon="11.146243835832921"><ele>296.0</ele><time>2026-04-04T11:33:48Z</time></trkpt><trkpt lat="43.20068882060177" lon="11.146126866482339"><ele>296.0</ele><time>2026-04-04T11:33:49Z</time></trkpt><trkpt lat="43.20057529677345" lon="11.146010805069706"><ele>296.0</ele><time>2026-04-04T11:33:50Z</time></trkpt><trkpt lat="43.20044659576323" lon="11.145882960282758"><ele>296.0</ele><time>2026-04-04T11:33:51Z</time></trkpt><trkpt lat="43.20030496676785" lon="11.145766130874915"><ele>296.0</ele><time>2026-04-04T11:33:52Z</time></trkpt><trkpt lat="43.200157425050016" lon="11.14566495451786"><ele>296.0</ele><time>2026-04-04T11:33:53Z</time></trkpt><trkpt lat="43.200003020834444" lon="11.14559190154843"><ele>296.0</ele><time>2026-04-04T11:33:54Z</time></trkpt><trkpt lat="43.19984236425722" lon="11.145531334102332"><ele>296.0</ele><time>2026-04-04T11:33:55Z</time></trkpt><trkpt lat="43.19967520374538" lon="11.145478416945242"><ele>295.0</ele><time>2026-04-04T11:33:56Z</time></trkpt><trkpt lat="43.199507248611894" lon="11.145436370151474"><ele>294.0</ele><time>2026-04-04T11:33:57Z</time></trkpt><trkpt lat="43.19934173178718" lon="11.145399101474544"><ele>293.0</ele><time>2026-04-04T11:33:58Z</time></trkpt><trkpt lat="43.199172652523494" lon="11.145363476344976"><ele>293.0</ele><time>2026-04-04T11:33:59Z</time></trkpt><trkpt lat="43.199001053865054" lon="11.14532897310713"><ele>293.0</ele><time>2026-04-04T11:34:00Z</time></trkpt><trkpt lat="43.19882729970192" lon="11.145299189383154"><ele>293.0</ele><time>2026-04-04T11:34:01Z</time></trkpt><trkpt lat="43.198651316184566" lon="11.14527650193316"><ele>292.0</ele><time>2026-04-04T11:34:02Z</time></trkpt><trkpt lat="43.198469022377175" lon="11.145274327426009"><ele>291.0</ele><time>2026-04-04T11:34:03Z</time></trkpt><trkpt lat="43.19827914989441" lon="11.145307691885998"><ele>290.0</ele><time>2026-04-04T11:34:04Z</time></trkpt><trkpt lat="43.19807894078827" lon="11.145370157966255"><ele>288.6666666666667</ele><time>2026-04-04T11:34:05Z</time></trkpt><trkpt lat="43.197898623674874" lon="11.145436684288523"><ele>287.3333333333333</ele><time>2026-04-04T11:34:06Z</time></trkpt><trkpt lat="43.19772965234717" lon="11.145496978850847"><ele>286.0</ele><time>2026-04-04T11:34:07Z</time></trkpt><trkpt lat="43.19756698513101" lon="11.145506477741476"><ele>286.0</ele><time>2026-04-04T11:34:08Z</time></trkpt><trkpt lat="43.19740248718255" lon="11.145509840050282"><ele>286.0</ele><time>2026-04-04T11:34:09Z</time></trkpt><trkpt lat="43.19724088534439" lon="11.145512371464768"><ele>286.0</ele><time>2026-04-04T11:34:10Z</time></trkpt><trkpt lat="43.1970639421315" lon="11.145467981862238"><ele>284.0</ele><time>2026-04-04T11:34:11Z</time></trkpt><trkpt lat="43.19687759292715" lon="11.14541050577458"><ele>282.0</ele><time>2026-04-04T11:34:12Z</time></trkpt><trkpt lat="43.19669752381547" lon="11.145347333312287"><ele>280.0</ele><time>2026-04-04T11:34:13Z</time></trkpt><trkpt lat="43.19652631930855" lon="11.145284009055528"><ele>279.0</ele><time>2026-04-04T11:34:14Z</time></trkpt><trkpt lat="43.19635597980562" lon="11.145218137990474"><ele>278.0</ele><time>2026-04-04T11:34:15Z</time></trkpt><trkpt lat="43.196190263059485" lon="11.145157575040885"><ele>277.0</ele><time>2026-04-04T11:34:16Z</time></trkpt><trkpt lat="43.19601903288544" lon="11.14508952268178"><ele>277.0</ele><time>2026-04-04T11:34:17Z</time></trkpt><trkpt lat="43.19585576509824" lon="11.144990670444505"><ele>277.0</ele><time>2026-04-04T11:34:18Z</time></trkpt><trkpt lat="43.19568568543794" lon="11.144901047581715"><ele>277.0</ele><time>2026-04-04T11:34:19Z</time></trkpt><trkpt lat="43.19551478145046" lon="11.144822074099357"><ele>275.66666666666663</ele><time>2026-04-04T11:34:20Z</time></trkpt><trkpt lat="43.19535458418707" lon="11.14471856821933"><ele>274.3333333333333</ele><time>2026-04-04T11:34:21Z</time></trkpt><trkpt lat="43.19517987092857" lon="11.144608174897028"><ele>273.0</ele><time>2026-04-04T11:34:22Z</time></trkpt><trkpt lat="43.195005786924916" lon="11.144503598156883"><ele>273.0</ele><time>2026-04-04T11:34:23Z</time></trkpt><trkpt lat="43.19483197387436" lon="11.1443999518732"><ele>273.0</ele><time>2026-04-04T11:34:24Z</time></trkpt><trkpt lat="43.19465879167674" lon="11.144295204601603"><ele>273.0</ele><time>2026-04-04T11:34:25Z</time></trkpt><trkpt lat="43.19448839886306" lon="11.144193363079806"><ele>273.0</ele><time>2026-04-04T11:34:26Z</time></trkpt><trkpt lat="43.19431807220932" lon="11.14409557710185"><ele>273.0</ele><time>2026-04-04T11:34:27Z</time></trkpt><trkpt lat="43.19415133769661" lon="11.143990751913503"><ele>273.0</ele><time>2026-04-04T11:34:28Z</time></trkpt><trkpt lat="43.193981656427646" lon="11.143879652221198"><ele>274.0</ele><time>2026-04-04T11:34:29Z</time></trkpt><trkpt lat="43.1938075619515" lon="11.143771602411222"><ele>275.0</ele><time>2026-04-04T11:34:29.999Z</time></trkpt><trkpt lat="43.193632659314744" lon="11.143666433538062"><ele>276.0</ele><time>2026-04-04T11:34:30.999Z</time></trkpt><trkpt lat="43.193456272345735" lon="11.143559188263103"><ele>276.0</ele><time>2026-04-04T11:34:31.999Z</time></trkpt><trkpt lat="43.193278364289625" lon="11.143452357791935"><ele>276.0</ele><time>2026-04-04T11:34:32.999Z</time></trkpt><trkpt lat="43.19309872728329" lon="11.143341274146826"><ele>276.0</ele><time>2026-04-04T11:34:33.999Z</time></trkpt><trkpt lat="43.192918041512264" lon="11.143230971534804"><ele>275.3333333333333</ele><time>2026-04-04T11:34:34.999Z</time></trkpt><trkpt lat="43.1927348561591" lon="11.143118882392725"><ele>274.66666666666663</ele><time>2026-04-04T11:34:35.999Z</time></trkpt><trkpt lat="43.192539061246165" lon="11.143000557614142"><ele>274.0</ele><time>2026-04-04T11:34:36.999Z</time></trkpt><trkpt lat="43.192351137738086" lon="11.142889531244187"><ele>274.66666666666663</ele><time>2026-04-04T11:34:37.999Z</time></trkpt><trkpt lat="43.19217732791797" lon="11.142787200095745"><ele>275.3333333333333</ele><time>2026-04-04T11:34:38.999Z</time></trkpt><trkpt lat="43.19200214205077" lon="11.142673743036749"><ele>276.0</ele><time>2026-04-04T11:34:39.999Z</time></trkpt><trkpt lat="43.191809997843286" lon="11.142555965584668"><ele>276.0</ele><time>2026-04-04T11:34:40.999Z</time></trkpt><trkpt lat="43.19160698742711" lon="11.142431951697835"><ele>276.0</ele><time>2026-04-04T11:34:41.999Z</time></trkpt><trkpt lat="43.191420960823486" lon="11.142318792152718"><ele>276.0</ele><time>2026-04-04T11:34:42.999Z</time></trkpt><trkpt lat="43.19125406394833" lon="11.142218258194514"><ele>276.3333333333333</ele><time>2026-04-04T11:34:44Z</time></trkpt><trkpt lat="43.191102213483234" lon="11.142127710961937"><ele>276.66666666666663</ele><time>2026-04-04T11:34:45Z</time></trkpt><trkpt lat="43.19095544475387" lon="11.14203752017965"><ele>277.0</ele><time>2026-04-04T11:34:46Z</time></trkpt><trkpt lat="43.1908153733723" lon="11.141953197878886"><ele>277.0</ele><time>2026-04-04T11:34:47Z</time></trkpt><trkpt lat="43.190686655777206" lon="11.141879264744523"><ele>277.0</ele><time>2026-04-04T11:34:48Z</time></trkpt><trkpt lat="43.19057302604773" lon="11.141810722725264"><ele>277.0</ele><time>2026-04-04T11:34:49Z</time></trkpt><trkpt lat="43.19047143497574" lon="11.141748916007309"><ele>277.0</ele><time>2026-04-04T11:34:50Z</time></trkpt><trkpt lat="43.19037521141405" lon="11.14168655217884"><ele>277.3333333333333</ele><time>2026-04-04T11:34:51Z</time></trkpt><trkpt lat="43.19028602791223" lon="11.141632704929163"><ele>277.66666666666663</ele><time>2026-04-04T11:34:52Z</time></trkpt><trkpt lat="43.19021440388489" lon="11.14159657679874"><ele>278.0</ele><time>2026-04-04T11:34:53Z</time></trkpt><trkpt lat="43.19012682410397" lon="11.141538179336935"><ele>278.3333333333333</ele><time>2026-04-04T11:34:55Z</time></trkpt><trkpt lat="43.19005567756394" lon="11.141496184479339"><ele>278.6666666666667</ele><time>2026-04-04T11:36:36Z</time></trkpt><trkpt lat="43.189991101886626" lon="11.141437210201367"><ele>279.0</ele><time>2026-04-04T11:36:39Z</time></trkpt><trkpt lat="43.18993166895189" lon="11.141402845969107"><ele>279.0</ele><time>2026-04-04T11:36:40Z</time></trkpt><trkpt lat="43.189869907561445" lon="11.14136988112511"><ele>279.0</ele><time>2026-04-04T11:36:40.999Z</time></trkpt><trkpt lat="43.1897699244611" lon="11.14132410171196"><ele>279.0</ele><time>2026-04-04T11:36:41.999Z</time></trkpt><trkpt lat="43.18966260467908" lon="11.141268258783601"><ele>279.0</ele><time>2026-04-04T11:36:42.999Z</time></trkpt><trkpt lat="43.18956037572553" lon="11.141212982724651"><ele>279.0</ele><time>2026-04-04T11:36:43.999Z</time></trkpt><trkpt lat="43.1894455256316" lon="11.14114486741703"><ele>279.25</ele><time>2026-04-04T11:36:44.999Z</time></trkpt><trkpt lat="43.18932288474364" lon="11.141068290206109"><ele>279.5</ele><time>2026-04-04T11:36:45.999Z</time></trkpt><trkpt lat="43.189189046892594" lon="11.140983033811672"><ele>279.75</ele><time>2026-04-04T11:36:46.999Z</time></trkpt><trkpt lat="43.18904669563398" lon="11.140901102484882"><ele>280.0</ele><time>2026-04-04T11:36:47.999Z</time></trkpt><trkpt lat="43.18889860480898" lon="11.140816426542813"><ele>280.3333333333333</ele><time>2026-04-04T11:36:48.999Z</time></trkpt><trkpt lat="43.18875519365484" lon="11.140729893308633"><ele>280.6666666666667</ele><time>2026-04-04T11:36:50Z</time></trkpt><trkpt lat="43.18861506780507" lon="11.140639381870983"><ele>281.0</ele><time>2026-04-04T11:36:51Z</time></trkpt><trkpt lat="43.188490090691936" lon="11.14051813288993"><ele>281.0</ele><time>2026-04-04T11:36:52Z</time></trkpt><trkpt lat="43.18837140868268" lon="11.140396843753317"><ele>281.0</ele><time>2026-04-04T11:36:53Z</time></trkpt><trkpt lat="43.18826841341684" lon="11.140266289478893"><ele>281.0</ele><time>2026-04-04T11:36:54Z</time></trkpt><trkpt lat="43.18817112453838" lon="11.140115516911303"><ele>281.0</ele><time>2026-04-04T11:36:55Z</time></trkpt><trkpt lat="43.18808875267989" lon="11.139945270490557"><ele>281.75</ele><time>2026-04-04T11:36:56Z</time></trkpt><trkpt lat="43.18801641297139" lon="11.139769710695997"><ele>282.5</ele><time>2026-04-04T11:36:57Z</time></trkpt><trkpt lat="43.18795806198303" lon="11.139589324522005"><ele>283.25</ele><time>2026-04-04T11:36:58Z</time></trkpt><trkpt lat="43.18790869941144" lon="11.139423649817207"><ele>284.0</ele><time>2026-04-04T11:36:59Z</time></trkpt><trkpt lat="43.187866286822846" lon="11.13927929898883"><ele>284.0</ele><time>2026-04-04T11:37:00Z</time></trkpt><trkpt lat="43.18781615058239" lon="11.139146440482326"><ele>284.0</ele><time>2026-04-04T11:37:01Z</time></trkpt><trkpt lat="43.187765363850545" lon="11.138988610004931"><ele>284.0</ele><time>2026-04-04T11:37:02Z</time></trkpt><trkpt lat="43.18771071518366" lon="11.138808088815724"><ele>284.0</ele><time>2026-04-04T11:37:03Z</time></trkpt><trkpt lat="43.18765781925932" lon="11.138616038998556"><ele>284.6666666666667</ele><time>2026-04-04T11:37:04Z</time></trkpt><trkpt lat="43.18759789451143" lon="11.138417942961878"><ele>285.3333333333333</ele><time>2026-04-04T11:37:05Z</time></trkpt><trkpt lat="43.18753584182867" lon="11.138213022641867"><ele>286.0</ele><time>2026-04-04T11:37:06Z</time></trkpt><trkpt lat="43.18747482782781" lon="11.138001370063995"><ele>286.3333333333333</ele><time>2026-04-04T11:37:07Z</time></trkpt><trkpt lat="43.187410722835025" lon="11.137792103904216"><ele>286.6666666666667</ele><time>2026-04-04T11:37:08Z</time></trkpt><trkpt lat="43.18734402764139" lon="11.137579921163521"><ele>287.0</ele><time>2026-04-04T11:37:09Z</time></trkpt><trkpt lat="43.18727653628806" lon="11.137362488584218"><ele>287.0</ele><time>2026-04-04T11:37:10Z</time></trkpt><trkpt lat="43.1872143964184" lon="11.13713703902383"><ele>287.0</ele><time>2026-04-04T11:37:11Z</time></trkpt><trkpt lat="43.18714739459005" lon="11.136907014513936"><ele>287.0</ele><time>2026-04-04T11:37:12Z</time></trkpt><trkpt lat="43.18707591793877" lon="11.136678359492715"><ele>287.33333333333337</ele><time>2026-04-04T11:37:13Z</time></trkpt><trkpt lat="43.18700656894148" lon="11.136459791225251"><ele>287.6666666666667</ele><time>2026-04-04T11:37:14Z</time></trkpt><trkpt lat="43.186941174911546" lon="11.13624474544634"><ele>288.0</ele><time>2026-04-04T11:37:15Z</time></trkpt><trkpt lat="43.186873997260584" lon="11.136023913081502"><ele>288.0</ele><time>2026-04-04T11:37:16Z</time></trkpt><trkpt lat="43.18680700662973" lon="11.135798944285513"><ele>288.0</ele><time>2026-04-04T11:37:17Z</time></trkpt><trkpt lat="43.1867427638748" lon="11.135583989528522"><ele>288.0</ele><time>2026-04-04T11:37:18Z</time></trkpt><trkpt lat="43.1866792795642" lon="11.135373740803326"><ele>287.75</ele><time>2026-04-04T11:37:19Z</time></trkpt><trkpt lat="43.18662065471434" lon="11.135175707997641"><ele>287.5</ele><time>2026-04-04T11:37:20Z</time></trkpt><trkpt lat="43.18656587851481" lon="11.134975476550023"><ele>287.25</ele><time>2026-04-04T11:37:21Z</time></trkpt><trkpt lat="43.18651342234462" lon="11.134806230662509"><ele>287.0</ele><time>2026-04-04T11:37:22Z</time></trkpt><trkpt lat="43.18645504983935" lon="11.134645426780237"><ele>287.0</ele><time>2026-04-04T11:37:23Z</time></trkpt><trkpt lat="43.186405533697496" lon="11.134487006294126"><ele>287.0</ele><time>2026-04-04T11:37:24Z</time></trkpt><trkpt lat="43.18637404933033" lon="11.134323044132401"><ele>287.0</ele><time>2026-04-04T11:37:25Z</time></trkpt><trkpt lat="43.18631844187315" lon="11.134184044927128"><ele>287.0</ele><time>2026-04-04T11:37:26Z</time></trkpt><trkpt lat="43.186247072348515" lon="11.133908801274082"><ele>288.0</ele><time>2026-04-04T11:37:28Z</time></trkpt><trkpt lat="43.18620602830141" lon="11.133779335633939"><ele>289.0</ele><time>2026-04-04T11:37:29Z</time></trkpt><trkpt lat="43.186163859587765" lon="11.133634772142166"><ele>290.0</ele><time>2026-04-04T11:37:30Z</time></trkpt><trkpt lat="43.18612760745293" lon="11.133487083002596"><ele>291.0</ele><time>2026-04-04T11:37:31Z</time></trkpt><trkpt lat="43.18612292315423" lon="11.133341968188944"><ele>292.0</ele><time>2026-04-04T11:37:32Z</time></trkpt><trkpt lat="43.186159589687286" lon="11.133187582446217"><ele>293.25</ele><time>2026-04-04T11:37:33Z</time></trkpt><trkpt lat="43.186241221260666" lon="11.133039537443914"><ele>294.5</ele><time>2026-04-04T11:37:34Z</time></trkpt><trkpt lat="43.186347725138674" lon="11.13289121160659"><ele>295.75</ele><time>2026-04-04T11:37:35Z</time></trkpt><trkpt lat="43.18646064402539" lon="11.1327358795426"><ele>297.0</ele><time>2026-04-04T11:37:36Z</time></trkpt><trkpt lat="43.18655966927378" lon="11.132571409590522"><ele>299.0</ele><time>2026-04-04T11:37:37Z</time></trkpt><trkpt lat="43.18665140367613" lon="11.132375658222625"><ele>301.0</ele><time>2026-04-04T11:37:38Z</time></trkpt><trkpt lat="43.18672858476634" lon="11.132164125551888"><ele>303.0</ele><time>2026-04-04T11:37:39Z</time></trkpt><trkpt lat="43.18679256911522" lon="11.13196781943309"><ele>303.0</ele><time>2026-04-04T11:37:40Z</time></trkpt><trkpt lat="43.18685441096555" lon="11.131779407043"><ele>303.0</ele><time>2026-04-04T11:37:41Z</time></trkpt><trkpt lat="43.186967093501025" lon="11.131400131437605"><ele>303.0</ele><time>2026-04-04T11:37:43Z</time></trkpt><trkpt lat="43.18700988208028" lon="11.131206575835005"><ele>304.0</ele><time>2026-04-04T11:37:44Z</time></trkpt><trkpt lat="43.187040783335384" lon="11.131007145596845"><ele>305.0</ele><time>2026-04-04T11:37:45Z</time></trkpt><trkpt lat="43.187065789582675" lon="11.13080302310178"><ele>306.0</ele><time>2026-04-04T11:37:46Z</time></trkpt><trkpt lat="43.18709509836314" lon="11.130597448736108"><ele>306.25</ele><time>2026-04-04T11:37:47Z</time></trkpt><trkpt lat="43.18715748924124" lon="11.130401347325922"><ele>306.5</ele><time>2026-04-04T11:37:48Z</time></trkpt><trkpt lat="43.18721976392929" lon="11.130210041530884"><ele>306.75</ele><time>2026-04-04T11:37:49Z</time></trkpt><trkpt lat="43.18726861172501" lon="11.13002942461077"><ele>307.0</ele><time>2026-04-04T11:37:50Z</time></trkpt><trkpt lat="43.187324691636526" lon="11.129871715166693"><ele>307.0</ele><time>2026-04-04T11:37:51Z</time></trkpt><trkpt lat="43.18736075762586" lon="11.12971498465111"><ele>307.0</ele><time>2026-04-04T11:37:52Z</time></trkpt><trkpt lat="43.18737906302675" lon="11.129559537464303"><ele>307.0</ele><time>2026-04-04T11:37:53Z</time></trkpt><trkpt lat="43.18736655240768" lon="11.129407008175244"><ele>307.0</ele><time>2026-04-04T11:37:54Z</time></trkpt><trkpt lat="43.1873288628626" lon="11.12926933695511"><ele>307.0</ele><time>2026-04-04T11:37:55Z</time></trkpt><trkpt lat="43.18727546356989" lon="11.129137543619763"><ele>307.0</ele><time>2026-04-04T11:37:56Z</time></trkpt><trkpt lat="43.187226330869116" lon="11.129004630063617"><ele>307.0</ele><time>2026-04-04T11:37:57Z</time></trkpt><trkpt lat="43.187190080177366" lon="11.128854718926583"><ele>307.0</ele><time>2026-04-04T11:37:58Z</time></trkpt><trkpt lat="43.187126915031435" lon="11.128712377985876"><ele>306.75</ele><time>2026-04-04T11:37:59Z</time></trkpt><trkpt lat="43.18708040316325" lon="11.12854295658578"><ele>306.5</ele><time>2026-04-04T11:38:00Z</time></trkpt><trkpt lat="43.187019919707346" lon="11.128380766361348"><ele>306.25</ele><time>2026-04-04T11:38:01Z</time></trkpt><trkpt lat="43.186970225980566" lon="11.12823754681405"><ele>306.0</ele><time>2026-04-04T11:38:02Z</time></trkpt><trkpt lat="43.18692797800426" lon="11.128111542913643"><ele>306.0</ele><time>2026-04-04T11:38:03Z</time></trkpt><trkpt lat="43.18688834148782" lon="11.127996463432424"><ele>306.0</ele><time>2026-04-04T11:38:04Z</time></trkpt><trkpt lat="43.186868266861396" lon="11.127888846107243"><ele>306.0</ele><time>2026-04-04T11:38:05Z</time></trkpt><trkpt lat="43.18670150877542" lon="11.127840356614804"><ele>306.0</ele><time>2026-04-04T11:38:07Z</time></trkpt><trkpt lat="43.18660242002393" lon="11.127868100882452"><ele>306.0</ele><time>2026-04-04T11:38:08Z</time></trkpt><trkpt lat="43.18649491627571" lon="11.127922032818406"><ele>305.25</ele><time>2026-04-04T11:38:09Z</time></trkpt><trkpt lat="43.18637605144535" lon="11.127984495449082"><ele>304.5</ele><time>2026-04-04T11:38:10Z</time></trkpt><trkpt lat="43.186234291895865" lon="11.12801713897917"><ele>303.75</ele><time>2026-04-04T11:38:11Z</time></trkpt><trkpt lat="43.1860772001134" lon="11.12805175495467"><ele>303.0</ele><time>2026-04-04T11:38:12Z</time></trkpt><trkpt lat="43.18589863096514" lon="11.128062643706809"><ele>303.0</ele><time>2026-04-04T11:38:13Z</time></trkpt><trkpt lat="43.18571580006751" lon="11.12803022372216"><ele>303.0</ele><time>2026-04-04T11:38:14Z</time></trkpt><trkpt lat="43.18553893562071" lon="11.127974109225462"><ele>303.0</ele><time>2026-04-04T11:38:15Z</time></trkpt><trkpt lat="43.18534824494483" lon="11.127897397858758"><ele>300.6666666666667</ele><time>2026-04-04T11:38:16Z</time></trkpt><trkpt lat="43.18514417744852" lon="11.1278153051508"><ele>298.33333333333337</ele><time>2026-04-04T11:38:17Z</time></trkpt><trkpt lat="43.1849519378795" lon="11.127737970381197"><ele>296.0</ele><time>2026-04-04T11:38:18Z</time></trkpt><trkpt lat="43.184772653664815" lon="11.127687585273334"><ele>294.6666666666667</ele><time>2026-04-04T11:38:19Z</time></trkpt><trkpt lat="43.184607749458344" lon="11.127598791841967"><ele>293.3333333333333</ele><time>2026-04-04T11:38:20Z</time></trkpt><trkpt lat="43.18444712733578" lon="11.127533764729941"><ele>292.0</ele><time>2026-04-04T11:38:21Z</time></trkpt><trkpt lat="43.18429000130059" lon="11.127468955933926"><ele>292.0</ele><time>2026-04-04T11:38:22Z</time></trkpt><trkpt lat="43.18413662862395" lon="11.127405206263077"><ele>292.0</ele><time>2026-04-04T11:38:23Z</time></trkpt><trkpt lat="43.18398081676108" lon="11.127342944390657"><ele>292.0</ele><time>2026-04-04T11:38:24Z</time></trkpt><trkpt lat="43.18383047027522" lon="11.127267051152344"><ele>293.66666666666663</ele><time>2026-04-04T11:38:25Z</time></trkpt><trkpt lat="43.18367605411277" lon="11.127156774910876"><ele>295.3333333333333</ele><time>2026-04-04T11:38:26Z</time></trkpt><trkpt lat="43.18353421943176" lon="11.127005742952926"><ele>297.0</ele><time>2026-04-04T11:38:27Z</time></trkpt><trkpt lat="43.18339781513933" lon="11.126827956782726"><ele>297.0</ele><time>2026-04-04T11:38:28Z</time></trkpt><trkpt lat="43.18327010356067" lon="11.126641244403608"><ele>297.0</ele><time>2026-04-04T11:38:29Z</time></trkpt><trkpt lat="43.183135722076806" lon="11.126459769118629"><ele>297.0</ele><time>2026-04-04T11:38:30Z</time></trkpt><trkpt lat="43.18301516929763" lon="11.126271100020343"><ele>297.3333333333333</ele><time>2026-04-04T11:38:31Z</time></trkpt><trkpt lat="43.182893948748294" lon="11.126080771193704"><ele>297.66666666666663</ele><time>2026-04-04T11:38:32Z</time></trkpt><trkpt lat="43.18277008561146" lon="11.125895191836479"><ele>298.0</ele><time>2026-04-04T11:38:33Z</time></trkpt><trkpt lat="43.182653674256585" lon="11.12572004872934"><ele>298.0</ele><time>2026-04-04T11:38:34Z</time></trkpt><trkpt lat="43.182540482097394" lon="11.125545534433888"><ele>298.0</ele><time>2026-04-04T11:38:35Z</time></trkpt><trkpt lat="43.182421970297966" lon="11.125374350095935"><ele>298.0</ele><time>2026-04-04T11:38:36Z</time></trkpt><trkpt lat="43.1822804313964" lon="11.125211313198122"><ele>298.66666666666663</ele><time>2026-04-04T11:38:37Z</time></trkpt><trkpt lat="43.182116203105444" lon="11.125077108405149"><ele>299.3333333333333</ele><time>2026-04-04T11:38:38Z</time></trkpt><trkpt lat="43.18194734111563" lon="11.124991882653594"><ele>300.0</ele><time>2026-04-04T11:38:39Z</time></trkpt><trkpt lat="43.181792491661135" lon="11.124930725472806"><ele>299.5</ele><time>2026-04-04T11:38:40Z</time></trkpt><trkpt lat="43.18166314128815" lon="11.124841858537765"><ele>299.0</ele><time>2026-04-04T11:38:41Z</time></trkpt><trkpt lat="43.18153169026096" lon="11.124764458052315"><ele>298.5</ele><time>2026-04-04T11:38:42Z</time></trkpt><trkpt lat="43.18141120863796" lon="11.124665601796574"><ele>298.0</ele><time>2026-04-04T11:38:43Z</time></trkpt><trkpt lat="43.181288821061564" lon="11.124556899052873"><ele>300.0</ele><time>2026-04-04T11:38:44Z</time></trkpt><trkpt lat="43.18118572767129" lon="11.124395385070558"><ele>302.0</ele><time>2026-04-04T11:38:45Z</time></trkpt><trkpt lat="43.181085265390024" lon="11.124209852497291"><ele>304.0</ele><time>2026-04-04T11:38:46Z</time></trkpt><trkpt lat="43.18094681760274" lon="11.124009796666074"><ele>304.3333333333333</ele><time>2026-04-04T11:38:47Z</time></trkpt><trkpt lat="43.18078995991521" lon="11.123814654000375"><ele>304.6666666666667</ele><time>2026-04-04T11:38:48Z</time></trkpt><trkpt lat="43.180661640551506" lon="11.123656467039543"><ele>305.0</ele><time>2026-04-04T11:38:49Z</time></trkpt><trkpt lat="43.18055609182043" lon="11.123509289320015"><ele>306.0</ele><time>2026-04-04T11:38:50Z</time></trkpt><trkpt lat="43.1804780131561" lon="11.123341043883492"><ele>307.0</ele><time>2026-04-04T11:38:51Z</time></trkpt><trkpt lat="43.180406954671206" lon="11.123159818042199"><ele>308.0</ele><time>2026-04-04T11:38:52Z</time></trkpt><trkpt lat="43.18032343309573" lon="11.122963944013884"><ele>309.6666666666667</ele><time>2026-04-04T11:38:53Z</time></trkpt><trkpt lat="43.18024852437326" lon="11.122767512109226"><ele>311.3333333333333</ele><time>2026-04-04T11:38:54Z</time></trkpt><trkpt lat="43.180175612254985" lon="11.122574044760276"><ele>313.0</ele><time>2026-04-04T11:38:55Z</time></trkpt><trkpt lat="43.180100503967594" lon="11.12237534045717"><ele>313.0</ele><time>2026-04-04T11:38:56Z</time></trkpt><trkpt lat="43.18002098912084" lon="11.1221694506085"><ele>313.0</ele><time>2026-04-04T11:38:57Z</time></trkpt><trkpt lat="43.17994132445808" lon="11.121972913118588"><ele>313.0</ele><time>2026-04-04T11:38:58Z</time></trkpt><trkpt lat="43.17985096018549" lon="11.121745827033045"><ele>317.0</ele><time>2026-04-04T11:38:59Z</time></trkpt><trkpt lat="43.17975505527259" lon="11.121506426180831"><ele>321.0</ele><time>2026-04-04T11:39:00Z</time></trkpt><trkpt lat="43.179654520001804" lon="11.121301472323651"><ele>325.0</ele><time>2026-04-04T11:39:01Z</time></trkpt><trkpt lat="43.17958093074991" lon="11.121107113583934"><ele>325.0</ele><time>2026-04-04T11:39:02Z</time></trkpt><trkpt lat="43.17951117289578" lon="11.1209347042468"><ele>325.0</ele><time>2026-04-04T11:39:03Z</time></trkpt><trkpt lat="43.179424267798225" lon="11.120793741251257"><ele>325.0</ele><time>2026-04-04T11:39:04Z</time></trkpt><trkpt lat="43.17930744911801" lon="11.120669736272031"><ele>325.0</ele><time>2026-04-04T11:39:05Z</time></trkpt><trkpt lat="43.179166768505354" lon="11.120581748979106"><ele>326.25</ele><time>2026-04-04T11:39:06Z</time></trkpt><trkpt lat="43.17902744810308" lon="11.120539649936068"><ele>327.5</ele><time>2026-04-04T11:39:07Z</time></trkpt><trkpt lat="43.178887622295676" lon="11.120526529441634"><ele>328.75</ele><time>2026-04-04T11:39:08Z</time></trkpt><trkpt lat="43.17874205341625" lon="11.120521898736154"><ele>330.0</ele><time>2026-04-04T11:39:09Z</time></trkpt><trkpt lat="43.17859959499477" lon="11.120470575662885"><ele>330.0</ele><time>2026-04-04T11:39:10Z</time></trkpt><trkpt lat="43.17845795266724" lon="11.120402189966901"><ele>330.0</ele><time>2026-04-04T11:39:11Z</time></trkpt><trkpt lat="43.17832414188353" lon="11.120294873526776"><ele>330.0</ele><time>2026-04-04T11:39:12Z</time></trkpt><trkpt lat="43.17818074091741" lon="11.120160346031602"><ele>331.0</ele><time>2026-04-04T11:39:13Z</time></trkpt><trkpt lat="43.178056803320054" lon="11.120025448853143"><ele>332.0</ele><time>2026-04-04T11:39:14Z</time></trkpt><trkpt lat="43.17795172943328" lon="11.119892118078084"><ele>333.0</ele><time>2026-04-04T11:39:15Z</time></trkpt><trkpt lat="43.17786037280447" lon="11.119763422116812"><ele>334.0</ele><time>2026-04-04T11:39:16Z</time></trkpt><trkpt lat="43.17777742976633" lon="11.119640708757505"><ele>334.75</ele><time>2026-04-04T11:39:17Z</time></trkpt><trkpt lat="43.17770190008659" lon="11.119526204567869"><ele>335.5</ele><time>2026-04-04T11:39:18Z</time></trkpt><trkpt lat="43.177625407921624" lon="11.11940443516331"><ele>336.25</ele><time>2026-04-04T11:39:19Z</time></trkpt><trkpt lat="43.17754116650252" lon="11.119270328501049"><ele>337.0</ele><time>2026-04-04T11:39:20Z</time></trkpt><trkpt lat="43.17746160620965" lon="11.119121214854225"><ele>337.0</ele><time>2026-04-04T11:39:21Z</time></trkpt><trkpt lat="43.17737326633187" lon="11.1189629989996"><ele>337.0</ele><time>2026-04-04T11:39:22Z</time></trkpt><trkpt lat="43.17727994179893" lon="11.118795855664757"><ele>337.0</ele><time>2026-04-04T11:39:23Z</time></trkpt><trkpt lat="43.17717561814757" lon="11.118616509023692"><ele>336.3333333333333</ele><time>2026-04-04T11:39:24Z</time></trkpt><trkpt lat="43.177047870836574" lon="11.118442734547681"><ele>335.6666666666667</ele><time>2026-04-04T11:39:25Z</time></trkpt><trkpt lat="43.17694627526316" lon="11.118272686456756"><ele>335.0</ele><time>2026-04-04T11:39:26Z</time></trkpt><trkpt lat="43.17684930027076" lon="11.118106727718056"><ele>337.0</ele><time>2026-04-04T11:39:27Z</time></trkpt><trkpt lat="43.176744658403265" lon="11.11795076182001"><ele>339.0</ele><time>2026-04-04T11:39:28Z</time></trkpt><trkpt lat="43.17665126805022" lon="11.117784228531594"><ele>341.0</ele><time>2026-04-04T11:39:29Z</time></trkpt><trkpt lat="43.17655545904515" lon="11.117638488490874"><ele>340.25</ele><time>2026-04-04T11:39:30Z</time></trkpt><trkpt lat="43.17646802614996" lon="11.117508066326787"><ele>339.5</ele><time>2026-04-04T11:39:31Z</time></trkpt><trkpt lat="43.17638562429257" lon="11.117394726541145"><ele>338.75</ele><time>2026-04-04T11:39:32Z</time></trkpt><trkpt lat="43.17630213091384" lon="11.117285055298527"><ele>338.0</ele><time>2026-04-04T11:39:33Z</time></trkpt><trkpt lat="43.17622323626863" lon="11.117194296845362"><ele>339.33333333333337</ele><time>2026-04-04T11:39:34Z</time></trkpt><trkpt lat="43.17614050978758" lon="11.117128861783062"><ele>340.6666666666667</ele><time>2026-04-04T11:39:35Z</time></trkpt><trkpt lat="43.17608199007528" lon="11.11704255398719"><ele>342.0</ele><time>2026-04-04T11:39:36Z</time></trkpt><trkpt lat="43.17601020327465" lon="11.116995930629773"><ele>343.3333333333333</ele><time>2026-04-04T11:39:37Z</time></trkpt><trkpt lat="43.17594743899173" lon="11.116932115392085"><ele>344.66666666666663</ele><time>2026-04-04T11:39:38Z</time></trkpt><trkpt lat="43.17585450392292" lon="11.116855713863647"><ele>346.0</ele><time>2026-04-04T11:39:40Z</time></trkpt><trkpt lat="43.1758098435977" lon="11.116789115324014"><ele>346.0</ele><time>2026-04-04T11:39:44Z</time></trkpt><trkpt lat="43.175713648146555" lon="11.116704655438019"><ele>346.0</ele><time>2026-04-04T11:39:50Z</time></trkpt><trkpt lat="43.17562879886975" lon="11.116630157550702"><ele>346.0</ele><time>2026-04-04T11:39:52Z</time></trkpt><trkpt lat="43.17548932442139" lon="11.116749993968682"><ele>346.0</ele><time>2026-04-04T11:39:58Z</time></trkpt><trkpt lat="43.17539606726985" lon="11.116795101385087"><ele>345.6</ele><time>2026-04-04T11:40:00Z</time></trkpt><trkpt lat="43.17529196402962" lon="11.11683469820684"><ele>345.20000000000005</ele><time>2026-04-04T11:40:02Z</time></trkpt><trkpt lat="43.175203887451914" lon="11.11683981922153"><ele>344.79999999999995</ele><time>2026-04-04T11:40:04Z</time></trkpt><trkpt lat="43.17512846167766" lon="11.116867968505133"><ele>344.4</ele><time>2026-04-04T11:40:06Z</time></trkpt><trkpt lat="43.175043563654725" lon="11.116940612956746"><ele>344.0</ele><time>2026-04-04T11:40:08Z</time></trkpt><trkpt lat="43.174975639777635" lon="11.117002970312452"><ele>344.0</ele><time>2026-04-04T11:40:09Z</time></trkpt><trkpt lat="43.17489797390973" lon="11.117083735844046"><ele>344.0</ele><time>2026-04-04T11:40:10Z</time></trkpt><trkpt lat="43.17483434380734" lon="11.117173532549995"><ele>344.0</ele><time>2026-04-04T11:40:11Z</time></trkpt><trkpt lat="43.17471250623824" lon="11.11718862810434"><ele>344.0</ele><time>2026-04-04T11:40:12Z</time></trkpt><trkpt lat="43.17465671335824" lon="11.117284510147227"><ele>344.0</ele><time>2026-04-04T11:40:13Z</time></trkpt><trkpt lat="43.17459813820382" lon="11.117384717047024"><ele>342.0</ele><time>2026-04-04T11:40:14Z</time></trkpt><trkpt lat="43.174541323043236" lon="11.117479786448648"><ele>340.0</ele><time>2026-04-04T11:40:15Z</time></trkpt><trkpt lat="43.1744890973362" lon="11.117567176320664"><ele>338.0</ele><time>2026-04-04T11:40:16Z</time></trkpt><trkpt lat="43.17444412845912" lon="11.117637917146736"><ele>336.0</ele><time>2026-04-04T11:40:17Z</time></trkpt><trkpt lat="43.17438842710729" lon="11.117725992374329"><ele>334.0</ele><time>2026-04-04T11:40:19Z</time></trkpt><trkpt lat="43.17433053492149" lon="11.117815722571951"><ele>332.0</ele><time>2026-04-04T11:40:21Z</time></trkpt><trkpt lat="43.17427547112205" lon="11.117900385892453"><ele>332.0</ele><time>2026-04-04T11:40:23Z</time></trkpt><trkpt lat="43.17423280281833" lon="11.117965990537234"><ele>332.0</ele><time>2026-04-04T11:40:25Z</time></trkpt><trkpt lat="43.174401927741904" lon="11.118108849991932"><ele>332.0</ele><time>2026-04-04T11:40:29Z</time></trkpt><trkpt lat="43.1744455140714" lon="11.11791453465778"><ele>332.0</ele><time>2026-04-04T11:40:31Z</time></trkpt><trkpt lat="43.174490968278604" lon="11.117794056994741"><ele>332.0</ele><time>2026-04-04T11:40:32Z</time></trkpt><trkpt lat="43.17454541155565" lon="11.117701110748527"><ele>332.0</ele><time>2026-04-04T11:40:33Z</time></trkpt><trkpt lat="43.17457827822227" lon="11.117614635676542"><ele>332.0</ele><time>2026-04-04T11:40:34Z</time></trkpt><trkpt lat="43.17464739260708" lon="11.117525892773259"><ele>332.0</ele><time>2026-04-04T11:40:36Z</time></trkpt><trkpt lat="43.17453309213499" lon="11.117549254048193"><ele>332.0</ele><time>2026-04-04T11:40:40Z</time></trkpt><trkpt lat="43.17448030905884" lon="11.117662267894232"><ele>332.0</ele><time>2026-04-04T11:40:42Z</time></trkpt><trkpt lat="43.17439948963954" lon="11.117792436941825"><ele>332.0</ele><time>2026-04-04T11:40:44Z</time></trkpt><trkpt lat="43.174318593944896" lon="11.117921615740524"><ele>332.0</ele><time>2026-04-04T11:40:46Z</time></trkpt><trkpt lat="43.17427109855896" lon="11.117994928499114"><ele>332.0</ele><time>2026-04-04T11:40:47Z</time></trkpt><trkpt lat="43.17422191995062" lon="11.118069873794786"><ele>332.0</ele><time>2026-04-04T11:40:48Z</time></trkpt><trkpt lat="43.174140985471944" lon="11.11819314785153"><ele>332.0</ele><time>2026-04-04T11:40:50Z</time></trkpt><trkpt lat="43.17409090222433" lon="11.118119566698116"><ele>332.0</ele><time>2026-04-04T11:40:52Z</time></trkpt><trkpt lat="43.1740307211574" lon="11.118154329793748"><ele>332.0</ele><time>2026-04-04T11:40:57Z</time></trkpt><trkpt lat="43.173913520705106" lon="11.118246020807295"><ele>332.0</ele><time>2026-04-04T11:40:59Z</time></trkpt><trkpt lat="43.17384482441082" lon="11.118320051149707"><ele>332.0</ele><time>2026-04-04T11:41:00Z</time></trkpt><trkpt lat="43.17378350788413" lon="11.11840874105091"><ele>328.8</ele><time>2026-04-04T11:41:01Z</time></trkpt><trkpt lat="43.17372163711334" lon="11.118490805692145"><ele>325.6</ele><time>2026-04-04T11:41:02Z</time></trkpt><trkpt lat="43.17363367853182" lon="11.118579319900784"><ele>322.40000000000003</ele><time>2026-04-04T11:41:03Z</time></trkpt><trkpt lat="43.17354622805136" lon="11.118672085092188"><ele>319.20000000000005</ele><time>2026-04-04T11:41:04Z</time></trkpt><trkpt lat="43.17346724369846" lon="11.118754569502128"><ele>316.0</ele><time>2026-04-04T11:41:05Z</time></trkpt><trkpt lat="43.1733912170328" lon="11.118834165759822"><ele>316.0</ele><time>2026-04-04T11:41:06Z</time></trkpt><trkpt lat="43.17331117824212" lon="11.118920737835444"><ele>316.0</ele><time>2026-04-04T11:41:07Z</time></trkpt><trkpt lat="43.17324947220293" lon="11.119018871497696"><ele>316.0</ele><time>2026-04-04T11:41:08Z</time></trkpt><trkpt lat="43.17317089102092" lon="11.11908026289287"><ele>316.0</ele><time>2026-04-04T11:41:09Z</time></trkpt><trkpt lat="43.173103211433876" lon="11.119186956863784"><ele>316.0</ele><time>2026-04-04T11:41:10Z</time></trkpt><trkpt lat="43.17302816112675" lon="11.119259758044533"><ele>312.0</ele><time>2026-04-04T11:41:11Z</time></trkpt><trkpt lat="43.17296799706402" lon="11.11931404244841"><ele>308.0</ele><time>2026-04-04T11:41:12Z</time></trkpt><trkpt lat="43.17288540056967" lon="11.119411675447358"><ele>304.0</ele><time>2026-04-04T11:41:14Z</time></trkpt><trkpt lat="43.17259048913273" lon="11.119153223262963"><ele>304.0</ele><time>2026-04-04T11:41:16Z</time></trkpt><trkpt lat="43.17250545489206" lon="11.119096307499792"><ele>304.0</ele><time>2026-04-04T11:41:17Z</time></trkpt><trkpt lat="43.17241947986577" lon="11.119082227515262"><ele>304.0</ele><time>2026-04-04T11:41:18Z</time></trkpt><trkpt lat="43.17233849797359" lon="11.119114086550292"><ele>304.0</ele><time>2026-04-04T11:41:19Z</time></trkpt><trkpt lat="43.1722613503334" lon="11.119173245057189"><ele>304.0</ele><time>2026-04-04T11:41:20Z</time></trkpt><trkpt lat="43.17218902690085" lon="11.119192446720607"><ele>304.0</ele><time>2026-04-04T11:41:21Z</time></trkpt><trkpt lat="43.172118400569566" lon="11.119168078033455"><ele>304.3333333333333</ele><time>2026-04-04T11:41:22Z</time></trkpt><trkpt lat="43.17203344573623" lon="11.119094625062779"><ele>304.66666666666663</ele><time>2026-04-04T11:41:23Z</time></trkpt><trkpt lat="43.171962028803996" lon="11.119019540282537"><ele>305.0</ele><time>2026-04-04T11:41:24Z</time></trkpt><trkpt lat="43.17191834747577" lon="11.118932889510669"><ele>305.3333333333333</ele><time>2026-04-04T11:41:25Z</time></trkpt><trkpt lat="43.171936880353414" lon="11.118834914484841"><ele>305.6666666666667</ele><time>2026-04-04T11:41:27Z</time></trkpt><trkpt lat="43.17195767114958" lon="11.118952145319033"><ele>306.0</ele><time>2026-04-04T11:41:45Z</time></trkpt><trkpt lat="43.172029500525696" lon="11.119057186333116"><ele>306.0</ele><time>2026-04-04T11:41:47Z</time></trkpt><trkpt lat="43.17212495547225" lon="11.119133830534096"><ele>306.0</ele><time>2026-04-04T11:41:49Z</time></trkpt><trkpt lat="43.172208925437275" lon="11.119168037514187"><ele>306.0</ele><time>2026-04-04T11:41:51Z</time></trkpt><trkpt lat="43.172311192792094" lon="11.119163957125501"><ele>306.0</ele><time>2026-04-04T11:41:53Z</time></trkpt><trkpt lat="43.172410763149884" lon="11.119098513764932"><ele>306.0</ele><time>2026-04-04T11:41:55Z</time></trkpt><trkpt lat="43.17248701977064" lon="11.119091782480456"><ele>305.6666666666667</ele><time>2026-04-04T11:41:56Z</time></trkpt><trkpt lat="43.17257144104637" lon="11.119107584997872"><ele>305.3333333333333</ele><time>2026-04-04T11:41:57Z</time></trkpt><trkpt lat="43.17265382251777" lon="11.119143127410021"><ele>305.0</ele><time>2026-04-04T11:41:58Z</time></trkpt><trkpt lat="43.17271288451816" lon="11.11918936990596"><ele>304.66666666666663</ele><time>2026-04-04T11:41:59Z</time></trkpt><trkpt lat="43.1727897282835" lon="11.119231908402076"><ele>304.3333333333333</ele><time>2026-04-04T11:42:00Z</time></trkpt><trkpt lat="43.17285767706491" lon="11.119256871149913"><ele>304.0</ele><time>2026-04-04T11:42:01Z</time></trkpt><trkpt lat="43.172859070138124" lon="11.11936125671219"><ele>304.0</ele><time>2026-04-04T11:42:09Z</time></trkpt><trkpt lat="43.172810305315835" lon="11.11943300813791"><ele>304.0</ele><time>2026-04-04T11:42:10Z</time></trkpt><trkpt lat="43.172773799543585" lon="11.119556782677064"><ele>304.0</ele><time>2026-04-04T11:42:11Z</time></trkpt><trkpt lat="43.172718045375575" lon="11.119627328560489"><ele>304.0</ele><time>2026-04-04T11:42:12Z</time></trkpt><trkpt lat="43.17264437651898" lon="11.11972266477113"><ele>304.0</ele><time>2026-04-04T11:42:13Z</time></trkpt><trkpt lat="43.1725674828339" lon="11.11982640287838"><ele>303.5</ele><time>2026-04-04T11:42:14Z</time></trkpt><trkpt lat="43.1724950288304" lon="11.119925412970328"><ele>303.0</ele><time>2026-04-04T11:42:15Z</time></trkpt><trkpt lat="43.1724344765942" lon="11.120008159003028"><ele>302.5</ele><time>2026-04-04T11:42:16Z</time></trkpt><trkpt lat="43.17237661376652" lon="11.120087229870427"><ele>302.0</ele><time>2026-04-04T11:42:17Z</time></trkpt><trkpt lat="43.172321037279666" lon="11.120163035523456"><ele>301.5</ele><time>2026-04-04T11:42:18Z</time></trkpt><trkpt lat="43.1722745389952" lon="11.120223967234718"><ele>301.0</ele><time>2026-04-04T11:42:19Z</time></trkpt><trkpt lat="43.1721957238454" lon="11.120326311444275"><ele>301.0</ele><time>2026-04-04T11:42:21Z</time></trkpt><trkpt lat="43.172140352410985" lon="11.120424473681279"><ele>301.0</ele><time>2026-04-04T11:42:23Z</time></trkpt><trkpt lat="43.17205961733937" lon="11.120496339492929"><ele>301.0</ele><time>2026-04-04T11:42:25Z</time></trkpt><trkpt lat="43.172010088556526" lon="11.120556449127339"><ele>301.0</ele><time>2026-04-04T11:42:26Z</time></trkpt><trkpt lat="43.17195348720348" lon="11.120621235694959"><ele>301.0</ele><time>2026-04-04T11:42:27Z</time></trkpt><trkpt lat="43.17185918796925" lon="11.12071786067947"><ele>301.0</ele><time>2026-04-04T11:42:29Z</time></trkpt><trkpt lat="43.171800951836076" lon="11.120767484811582"><ele>301.3333333333333</ele><time>2026-04-04T11:42:30Z</time></trkpt><trkpt lat="43.17173130312026" lon="11.120812500041612"><ele>301.66666666666663</ele><time>2026-04-04T11:42:31Z</time></trkpt><trkpt lat="43.171651930508276" lon="11.120863948550966"><ele>302.0</ele><time>2026-04-04T11:42:32Z</time></trkpt><trkpt lat="43.171582001435844" lon="11.120944664083842"><ele>302.3333333333333</ele><time>2026-04-04T11:42:33Z</time></trkpt><trkpt lat="43.171512027585" lon="11.120980773503563"><ele>302.6666666666667</ele><time>2026-04-04T11:42:34Z</time></trkpt><trkpt lat="43.17144710608364" lon="11.121038377499131"><ele>303.0</ele><time>2026-04-04T11:42:35Z</time></trkpt><trkpt lat="43.171386786116685" lon="11.121091898678248"><ele>304.5</ele><time>2026-04-04T11:42:36Z</time></trkpt><trkpt lat="43.17132878160142" lon="11.121139739366251"><ele>306.0</ele><time>2026-04-04T11:42:37Z</time></trkpt><trkpt lat="43.17127480293236" lon="11.12118444964539"><ele>307.5</ele><time>2026-04-04T11:42:38Z</time></trkpt><trkpt lat="43.171170776378204" lon="11.121269390220878"><ele>309.0</ele><time>2026-04-04T11:42:40Z</time></trkpt><trkpt lat="43.17110797513053" lon="11.121320211846509"><ele>310.5</ele><time>2026-04-04T11:42:41Z</time></trkpt><trkpt lat="43.17104182597675" lon="11.12137374279247"><ele>312.0</ele><time>2026-04-04T11:42:42Z</time></trkpt><trkpt lat="43.17096263660042" lon="11.12143829048307"><ele>312.0</ele><time>2026-04-04T11:42:43Z</time></trkpt><trkpt lat="43.17088407512703" lon="11.121502410523567"><ele>312.0</ele><time>2026-04-04T11:42:44Z</time></trkpt><trkpt lat="43.17080042333246" lon="11.121573746089622"><ele>312.0</ele><time>2026-04-04T11:42:45Z</time></trkpt><trkpt lat="43.17071623730926" lon="11.121648229459737"><ele>312.0</ele><time>2026-04-04T11:42:46Z</time></trkpt><trkpt lat="43.170635780676704" lon="11.12172290511569"><ele>312.0</ele><time>2026-04-04T11:42:47Z</time></trkpt><trkpt lat="43.17055940090544" lon="11.121795731848612"><ele>313.8</ele><time>2026-04-04T11:42:48Z</time></trkpt><trkpt lat="43.17047818678439" lon="11.121875271490321"><ele>315.6</ele><time>2026-04-04T11:42:49Z</time></trkpt><trkpt lat="43.17039483502534" lon="11.12196328029942"><ele>317.40000000000003</ele><time>2026-04-04T11:42:50Z</time></trkpt><trkpt lat="43.170311536255035" lon="11.122065338792357"><ele>319.2</ele><time>2026-04-04T11:42:51Z</time></trkpt><trkpt lat="43.17020931836597" lon="11.12216998341159"><ele>321.0</ele><time>2026-04-04T11:42:52Z</time></trkpt><trkpt lat="43.170125747433666" lon="11.122273486258456"><ele>321.0</ele><time>2026-04-04T11:42:53Z</time></trkpt><trkpt lat="43.17006074253201" lon="11.122364452273512"><ele>321.0</ele><time>2026-04-04T11:42:54Z</time></trkpt><trkpt lat="43.170003667132775" lon="11.12245412196397"><ele>321.0</ele><time>2026-04-04T11:42:55Z</time></trkpt><trkpt lat="43.169946742054584" lon="11.122564854311143"><ele>321.0</ele><time>2026-04-04T11:42:56Z</time></trkpt><trkpt lat="43.169886761712405" lon="11.122701783157224"><ele>321.0</ele><time>2026-04-04T11:42:57Z</time></trkpt><trkpt lat="43.16984935661989" lon="11.122818403374886"><ele>321.3333333333333</ele><time>2026-04-04T11:42:58Z</time></trkpt><trkpt lat="43.16980428349601" lon="11.12290882493021"><ele>321.6666666666667</ele><time>2026-04-04T11:42:59Z</time></trkpt><trkpt lat="43.16978051205182" lon="11.12300148775935"><ele>322.0</ele><time>2026-04-04T11:43:00Z</time></trkpt><trkpt lat="43.1697493936501" lon="11.123082495456382"><ele>322.33333333333337</ele><time>2026-04-04T11:43:01Z</time></trkpt><trkpt lat="43.16971530665159" lon="11.123199293422635"><ele>322.6666666666667</ele><time>2026-04-04T11:43:02Z</time></trkpt><trkpt lat="43.16966572080583" lon="11.123357655177179"><ele>323.0</ele><time>2026-04-04T11:43:03Z</time></trkpt><trkpt lat="43.169610157691324" lon="11.123531404489846"><ele>324.79999999999995</ele><time>2026-04-04T11:43:04Z</time></trkpt><trkpt lat="43.16957068673936" lon="11.123668223942605"><ele>326.6</ele><time>2026-04-04T11:43:05Z</time></trkpt><trkpt lat="43.169519577277875" lon="11.12376659312673"><ele>328.4</ele><time>2026-04-04T11:43:06Z</time></trkpt><trkpt lat="43.16947181007781" lon="11.12385337594768"><ele>330.20000000000005</ele><time>2026-04-04T11:43:07Z</time></trkpt><trkpt lat="43.16942777269306" lon="11.123933219860428"><ele>332.0</ele><time>2026-04-04T11:43:08Z</time></trkpt><trkpt lat="43.16935483910562" lon="11.124051353959716"><ele>332.0</ele><time>2026-04-04T11:43:10Z</time></trkpt><trkpt lat="43.16930785897871" lon="11.124148675159574"><ele>332.0</ele><time>2026-04-04T11:43:12Z</time></trkpt><trkpt lat="43.16923983188037" lon="11.124209433120406"><ele>332.0</ele><time>2026-04-04T11:43:14Z</time></trkpt><trkpt lat="43.169000715377756" lon="11.12403142367522"><ele>332.0</ele><time>2026-04-04T11:43:16Z</time></trkpt><trkpt lat="43.168926219675974" lon="11.124034229358275"><ele>332.6</ele><time>2026-04-04T11:43:17Z</time></trkpt><trkpt lat="43.16883001954064" lon="11.124066688800301"><ele>333.20000000000005</ele><time>2026-04-04T11:43:18Z</time></trkpt><trkpt lat="43.16872482063325" lon="11.124083529692673"><ele>333.8</ele><time>2026-04-04T11:43:19Z</time></trkpt><trkpt lat="43.168624634654506" lon="11.124066178976733"><ele>334.4</ele><time>2026-04-04T11:43:20Z</time></trkpt><trkpt lat="43.16853744484209" lon="11.124018252759853"><ele>335.0</ele><time>2026-04-04T11:43:21Z</time></trkpt><trkpt lat="43.1684458089546" lon="11.12396688602519"><ele>335.0</ele><time>2026-04-04T11:43:22Z</time></trkpt><trkpt lat="43.168352978980565" lon="11.12392737640902"><ele>335.0</ele><time>2026-04-04T11:43:23Z</time></trkpt><trkpt lat="43.16826905389982" lon="11.123883221714905"><ele>335.0</ele><time>2026-04-04T11:43:24Z</time></trkpt><trkpt lat="43.16816780567336" lon="11.123827209661512"><ele>335.0</ele><time>2026-04-04T11:43:25Z</time></trkpt><trkpt lat="43.16806633038339" lon="11.123765801375644"><ele>335.0</ele><time>2026-04-04T11:43:26Z</time></trkpt><trkpt lat="43.167964414815984" lon="11.123716571606401"><ele>336.0</ele><time>2026-04-04T11:43:26.999Z</time></trkpt><trkpt lat="43.167861860110406" lon="11.123676183255604"><ele>337.0</ele><time>2026-04-04T11:43:27.999Z</time></trkpt><trkpt lat="43.16776154541482" lon="11.12364113719574"><ele>338.0</ele><time>2026-04-04T11:43:28.999Z</time></trkpt><trkpt lat="43.16769788320814" lon="11.123605277311636"><ele>339.0</ele><time>2026-04-04T11:43:29.999Z</time></trkpt><trkpt lat="43.16766646504368" lon="11.12350313910327"><ele>340.0</ele><time>2026-04-04T11:43:31.999Z</time></trkpt><trkpt lat="43.167681738152524" lon="11.123324111674714"><ele>339.6</ele><time>2026-04-04T11:43:33.999Z</time></trkpt><trkpt lat="43.167683614130134" lon="11.123227234536506"><ele>339.2</ele><time>2026-04-04T11:43:34.999Z</time></trkpt><trkpt lat="43.16767532268712" lon="11.123106888226587"><ele>338.79999999999995</ele><time>2026-04-04T11:43:35.999Z</time></trkpt><trkpt lat="43.16764264203426" lon="11.122972240690906"><ele>338.4</ele><time>2026-04-04T11:43:36.999Z</time></trkpt><trkpt lat="43.16758979770284" lon="11.12285075955077"><ele>338.0</ele><time>2026-04-04T11:43:37.999Z</time></trkpt><trkpt lat="43.16752257382146" lon="11.122728411841535"><ele>338.0</ele><time>2026-04-04T11:43:38.999Z</time></trkpt><trkpt lat="43.167477871438756" lon="11.122637376993133"><ele>338.0</ele><time>2026-04-04T11:43:40.999Z</time></trkpt><trkpt lat="43.16742906938296" lon="11.122520674010337"><ele>338.0</ele><time>2026-04-04T11:43:42.999Z</time></trkpt><trkpt lat="43.16737886067734" lon="11.122423534872736"><ele>338.0</ele><time>2026-04-04T11:43:43.999Z</time></trkpt><trkpt lat="43.16733225518791" lon="11.122349793651674"><ele>338.0</ele><time>2026-04-04T11:43:44.999Z</time></trkpt><trkpt lat="43.16728218220234" lon="11.122261643361561"><ele>338.0</ele><time>2026-04-04T11:43:45.999Z</time></trkpt><trkpt lat="43.167218175893986" lon="11.122136986249506"><ele>338.0</ele><time>2026-04-04T11:43:46.999Z</time></trkpt><trkpt lat="43.167175003577725" lon="11.122034204783985"><ele>338.0</ele><time>2026-04-04T11:43:47.999Z</time></trkpt><trkpt lat="43.16713349860882" lon="11.121940790411823"><ele>338.0</ele><time>2026-04-04T11:43:48.999Z</time></trkpt><trkpt lat="43.16709059257636" lon="11.121818364362403"><ele>338.0</ele><time>2026-04-04T11:43:50.998Z</time></trkpt><trkpt lat="43.16714157813601" lon="11.121711511141584"><ele>338.0</ele><time>2026-04-04T11:43:52.998Z</time></trkpt><trkpt lat="43.16717305795667" lon="11.121626387820456"><ele>338.0</ele><time>2026-04-04T11:43:53.998Z</time></trkpt><trkpt lat="43.167196038864255" lon="11.121513066678634"><ele>338.83333333333337</ele><time>2026-04-04T11:43:54.998Z</time></trkpt><trkpt lat="43.16718456519389" lon="11.121425373227927"><ele>339.6666666666667</ele><time>2026-04-04T11:43:55.998Z</time></trkpt><trkpt lat="43.16710751466491" lon="11.12135993965307"><ele>340.5</ele><time>2026-04-04T11:43:57.998Z</time></trkpt><trkpt lat="43.16706870311623" lon="11.121274780629467"><ele>341.3333333333333</ele><time>2026-04-04T11:44:00.998Z</time></trkpt><trkpt lat="43.16704306049901" lon="11.12115024537298"><ele>342.16666666666663</ele><time>2026-04-04T11:44:03.998Z</time></trkpt><trkpt lat="43.16701371119287" lon="11.121045571612239"><ele>343.0</ele><time>2026-04-04T11:44:05.998Z</time></trkpt><trkpt lat="43.16698096207825" lon="11.120850628468071"><ele>343.5</ele><time>2026-04-04T11:44:07.998Z</time></trkpt><trkpt lat="43.1669641436479" lon="11.120731730372592"><ele>344.0</ele><time>2026-04-04T11:44:08.998Z</time></trkpt><trkpt lat="43.16695319622024" lon="11.120641930481405"><ele>344.5</ele><time>2026-04-04T11:44:09.998Z</time></trkpt><trkpt lat="43.16688705535452" lon="11.120503997189521"><ele>345.0</ele><time>2026-04-04T11:44:11.998Z</time></trkpt><trkpt lat="43.166851830812796" lon="11.120429852436022"><ele>345.5</ele><time>2026-04-04T11:44:12.998Z</time></trkpt><trkpt lat="43.16682041464247" lon="11.12030478779076"><ele>346.0</ele><time>2026-04-04T11:44:14.998Z</time></trkpt><trkpt lat="43.16682861670394" lon="11.120202661261738"><ele>346.0</ele><time>2026-04-04T11:44:16.998Z</time></trkpt><trkpt lat="43.166778376878746" lon="11.120033851219693"><ele>346.0</ele><time>2026-04-04T11:44:18.998Z</time></trkpt><trkpt lat="43.166732659569504" lon="11.119906435923301"><ele>346.0</ele><time>2026-04-04T11:44:19.998Z</time></trkpt><trkpt lat="43.166694453664554" lon="11.119778775408417"><ele>346.0</ele><time>2026-04-04T11:44:20.998Z</time></trkpt><trkpt lat="43.16665000551224" lon="11.119662697053181"><ele>346.0</ele><time>2026-04-04T11:44:21.998Z</time></trkpt><trkpt lat="43.16659987610583" lon="11.11955097612772"><ele>345.8333333333333</ele><time>2026-04-04T11:44:22.998Z</time></trkpt><trkpt lat="43.16655368694448" lon="11.119445477422703"><ele>345.66666666666663</ele><time>2026-04-04T11:44:23.998Z</time></trkpt><trkpt lat="43.16650950856553" lon="11.119341844074595"><ele>345.5</ele><time>2026-04-04T11:44:24.998Z</time></trkpt><trkpt lat="43.1664673048507" lon="11.119260151818889"><ele>345.3333333333333</ele><time>2026-04-04T11:44:25.998Z</time></trkpt><trkpt lat="43.166449253745924" lon="11.119174860477807"><ele>345.1666666666667</ele><time>2026-04-04T11:44:27.998Z</time></trkpt><trkpt lat="43.16645838661145" lon="11.119064445503566"><ele>345.0</ele><time>2026-04-04T11:45:03.998Z</time></trkpt><trkpt lat="43.166515938745775" lon="11.118903274313176"><ele>346.1666666666667</ele><time>2026-04-04T11:45:05.998Z</time></trkpt><trkpt lat="43.16657140949871" lon="11.118796230811759"><ele>347.3333333333333</ele><time>2026-04-04T11:45:06.998Z</time></trkpt><trkpt lat="43.16662697652073" lon="11.118696000209525"><ele>348.5</ele><time>2026-04-04T11:45:07.998Z</time></trkpt><trkpt lat="43.16667037691797" lon="11.118600010720975"><ele>349.66666666666663</ele><time>2026-04-04T11:45:08.998Z</time></trkpt><trkpt lat="43.16669981645321" lon="11.118507480834769"><ele>350.8333333333333</ele><time>2026-04-04T11:45:09.998Z</time></trkpt><trkpt lat="43.166724996154116" lon="11.11842766188456"><ele>352.0</ele><time>2026-04-04T11:45:10.998Z</time></trkpt><trkpt lat="43.166662173621184" lon="11.118440948136818"><ele>352.0</ele><time>2026-04-04T11:45:14.998Z</time></trkpt><trkpt lat="43.16660413856279" lon="11.118517434902659"><ele>352.0</ele><time>2026-04-04T11:45:15.998Z</time></trkpt><trkpt lat="43.1665132055405" lon="11.118604736134104"><ele>352.0</ele><time>2026-04-04T11:45:16.999Z</time></trkpt><trkpt lat="43.166407865558206" lon="11.118681142515223"><ele>352.0</ele><time>2026-04-04T11:45:17.999Z</time></trkpt><trkpt lat="43.166310376032605" lon="11.118727800206608"><ele>352.0</ele><time>2026-04-04T11:45:18.999Z</time></trkpt><trkpt lat="43.16622242832764" lon="11.118774590490801"><ele>349.5</ele><time>2026-04-04T11:45:19.999Z</time></trkpt><trkpt lat="43.166135450218206" lon="11.118829277549011"><ele>347.0</ele><time>2026-04-04T11:45:20.999Z</time></trkpt><trkpt lat="43.16602239663974" lon="11.118863166313414"><ele>344.5</ele><time>2026-04-04T11:45:21.999Z</time></trkpt><trkpt lat="43.16590458729343" lon="11.118930984403951"><ele>342.0</ele><time>2026-04-04T11:45:22.999Z</time></trkpt><trkpt lat="43.165776274046024" lon="11.11902157274344"><ele>341.25</ele><time>2026-04-04T11:45:23.999Z</time></trkpt><trkpt lat="43.16564728338111" lon="11.119130514713884"><ele>340.5</ele><time>2026-04-04T11:45:24.999Z</time></trkpt><trkpt lat="43.16552396686339" lon="11.11924015810331"><ele>339.75</ele><time>2026-04-04T11:45:25.999Z</time></trkpt><trkpt lat="43.16540707608701" lon="11.119348679893648"><ele>339.0</ele><time>2026-04-04T11:45:26.999Z</time></trkpt><trkpt lat="43.16529984276429" lon="11.119456466809064"><ele>339.0</ele><time>2026-04-04T11:45:27.999Z</time></trkpt><trkpt lat="43.165197684070314" lon="11.11956332507663"><ele>339.0</ele><time>2026-04-04T11:45:28.999Z</time></trkpt><trkpt lat="43.16510204006634" lon="11.119662188598065"><ele>339.0</ele><time>2026-04-04T11:45:29.999Z</time></trkpt><trkpt lat="43.16500765511386" lon="11.119757189308121"><ele>339.0</ele><time>2026-04-04T11:45:31Z</time></trkpt><trkpt lat="43.16491541919335" lon="11.119853849547745"><ele>339.75</ele><time>2026-04-04T11:45:32Z</time></trkpt><trkpt lat="43.16482026398463" lon="11.11996681538713"><ele>340.5</ele><time>2026-04-04T11:45:33Z</time></trkpt><trkpt lat="43.16472601163725" lon="11.120083984385735"><ele>341.25</ele><time>2026-04-04T11:45:34Z</time></trkpt><trkpt lat="43.16463307580716" lon="11.120184610963264"><ele>342.0</ele><time>2026-04-04T11:45:35Z</time></trkpt><trkpt lat="43.16454496729848" lon="11.120289890049628"><ele>342.0</ele><time>2026-04-04T11:45:36Z</time></trkpt><trkpt lat="43.164455759048295" lon="11.120404395553363"><ele>342.0</ele><time>2026-04-04T11:45:37Z</time></trkpt><trkpt lat="43.164402470412526" lon="11.120605897897349"><ele>342.0</ele><time>2026-04-04T11:45:38Z</time></trkpt><trkpt lat="43.164321962657894" lon="11.120759133738572"><ele>342.0</ele><time>2026-04-04T11:45:39Z</time></trkpt><trkpt lat="43.16425081945022" lon="11.120918738149754"><ele>340.5</ele><time>2026-04-04T11:45:40Z</time></trkpt><trkpt lat="43.164167210863795" lon="11.121065176635474"><ele>339.0</ele><time>2026-04-04T11:45:41Z</time></trkpt><trkpt lat="43.16410207859479" lon="11.121215538258188"><ele>337.5</ele><time>2026-04-04T11:45:42Z</time></trkpt><trkpt lat="43.16404167783893" lon="11.121357206156842"><ele>336.0</ele><time>2026-04-04T11:45:43Z</time></trkpt><trkpt lat="43.16398546664334" lon="11.12148952204172"><ele>335.1666666666667</ele><time>2026-04-04T11:45:44Z</time></trkpt><trkpt lat="43.16393284108528" lon="11.12161339736949"><ele>334.3333333333333</ele><time>2026-04-04T11:45:45Z</time></trkpt><trkpt lat="43.16390057411815" lon="11.121726411634263"><ele>333.5</ele><time>2026-04-04T11:45:46Z</time></trkpt><trkpt lat="43.16384636405373" lon="11.121813400977233"><ele>332.66666666666663</ele><time>2026-04-04T11:45:47Z</time></trkpt><trkpt lat="43.16381167817068" lon="11.121891725306373"><ele>331.8333333333333</ele><time>2026-04-04T11:45:48Z</time></trkpt><trkpt lat="43.163778501831615" lon="11.121965414646594"><ele>331.0</ele><time>2026-04-04T11:45:49Z</time></trkpt><trkpt lat="43.16374475631585" lon="11.122039953133992"><ele>331.0</ele><time>2026-04-04T11:45:52Z</time></trkpt><trkpt lat="43.16368108808413" lon="11.12217646261166"><ele>331.0</ele><time>2026-04-04T11:46:14Z</time></trkpt><trkpt lat="43.16361381428507" lon="11.122318671336101"><ele>331.0</ele><time>2026-04-04T11:46:15Z</time></trkpt><trkpt lat="43.163525307740834" lon="11.12249663750283"><ele>331.0</ele><time>2026-04-04T11:46:16Z</time></trkpt><trkpt lat="43.16345452997424" lon="11.122630499179282"><ele>330.66666666666663</ele><time>2026-04-04T11:46:17Z</time></trkpt><trkpt lat="43.16340290013907" lon="11.122730382136178"><ele>330.3333333333333</ele><time>2026-04-04T11:46:18Z</time></trkpt><trkpt lat="43.163351857210856" lon="11.12283015959651"><ele>330.0</ele><time>2026-04-04T11:46:19Z</time></trkpt><trkpt lat="43.163298063066385" lon="11.122935314891897"><ele>329.6666666666667</ele><time>2026-04-04T11:46:21Z</time></trkpt><trkpt lat="43.1633243898345" lon="11.123065936621416"><ele>329.33333333333337</ele><time>2026-04-04T11:48:24.999Z</time></trkpt><trkpt lat="43.163303025351084" lon="11.12296244985592"><ele>329.0</ele><time>2026-04-04T11:48:27.999Z</time></trkpt><trkpt lat="43.16334246107346" lon="11.122888217247814"><ele>329.0</ele><time>2026-04-04T11:48:28.999Z</time></trkpt><trkpt lat="43.163391634092065" lon="11.122811941206196"><ele>329.0</ele><time>2026-04-04T11:48:29.999Z</time></trkpt><trkpt lat="43.16343244318185" lon="11.122733619707239"><ele>329.0</ele><time>2026-04-04T11:48:30.999Z</time></trkpt><trkpt lat="43.163489264191696" lon="11.122619799977802"><ele>329.0</ele><time>2026-04-04T11:48:31.999Z</time></trkpt><trkpt lat="43.16355395299775" lon="11.122501058435537"><ele>329.0</ele><time>2026-04-04T11:48:32.999Z</time></trkpt><trkpt lat="43.163628888256014" lon="11.122363199799242"><ele>329.4</ele><time>2026-04-04T11:48:33.999Z</time></trkpt><trkpt lat="43.16370091131831" lon="11.122219455984268"><ele>329.79999999999995</ele><time>2026-04-04T11:48:34.999Z</time></trkpt><trkpt lat="43.16375317562062" lon="11.122106902972678"><ele>330.20000000000005</ele><time>2026-04-04T11:48:35.999Z</time></trkpt><trkpt lat="43.163794138697746" lon="11.122009786145908"><ele>330.6</ele><time>2026-04-04T11:48:36.999Z</time></trkpt><trkpt lat="43.16382883711287" lon="11.121932859435546"><ele>331.0</ele><time>2026-04-04T11:48:37.999Z</time></trkpt><trkpt lat="43.16387303258574" lon="11.121825244581144"><ele>331.0</ele><time>2026-04-04T11:48:39.999Z</time></trkpt><trkpt lat="43.163917265336295" lon="11.121740698618309"><ele>331.0</ele><time>2026-04-04T11:48:42.999Z</time></trkpt><trkpt lat="43.16395010605329" lon="11.121663394784434"><ele>331.0</ele><time>2026-04-04T11:48:45.999Z</time></trkpt><trkpt lat="43.16401620670637" lon="11.121507799863528"><ele>331.0</ele><time>2026-04-04T11:48:47.999Z</time></trkpt><trkpt lat="43.16405776152032" lon="11.12140998396514"><ele>331.0</ele><time>2026-04-04T11:48:48.999Z</time></trkpt><trkpt lat="43.16409890436056" lon="11.121313137552661"><ele>331.0</ele><time>2026-04-04T11:48:49.999Z</time></trkpt><trkpt lat="43.164153644689506" lon="11.121185829443213"><ele>332.0</ele><time>2026-04-04T11:48:51.999Z</time></trkpt><trkpt lat="43.16419262816255" lon="11.121095833897334"><ele>333.0</ele><time>2026-04-04T11:48:54.999Z</time></trkpt><trkpt lat="43.16393965471969" lon="11.120673251438458"><ele>334.79999999999995</ele><time>2026-04-04T11:49:02.999Z</time></trkpt><trkpt lat="43.16388595282415" lon="11.120580273137504"><ele>336.6</ele><time>2026-04-04T11:49:03.999Z</time></trkpt><trkpt lat="43.16383524025477" lon="11.120468976258705"><ele>338.4</ele><time>2026-04-04T11:49:04.999Z</time></trkpt><trkpt lat="43.163776401784745" lon="11.12035212535021"><ele>340.20000000000005</ele><time>2026-04-04T11:49:05.999Z</time></trkpt><trkpt lat="43.16370245871632" lon="11.120236785954221"><ele>342.0</ele><time>2026-04-04T11:49:06.999Z</time></trkpt><trkpt lat="43.163634416555624" lon="11.120116295123152"><ele>342.0</ele><time>2026-04-04T11:49:07.999Z</time></trkpt><trkpt lat="43.16358013432471" lon="11.120013300497703"><ele>342.0</ele><time>2026-04-04T11:49:08.999Z</time></trkpt><trkpt lat="43.16353377050732" lon="11.119925464818731"><ele>342.0</ele><time>2026-04-04T11:49:09.999Z</time></trkpt><trkpt lat="43.16348609931822" lon="11.119808198562847"><ele>342.0</ele><time>2026-04-04T11:49:11.999Z</time></trkpt><trkpt lat="43.16345699231492" lon="11.11968988982264"><ele>342.0</ele><time>2026-04-04T11:49:13.999Z</time></trkpt><trkpt lat="43.16344134747025" lon="11.11959372675664"><ele>342.0</ele><time>2026-04-04T11:49:15.999Z</time></trkpt><trkpt lat="43.16342143117801" lon="11.119489464670503"><ele>341.0</ele><time>2026-04-04T11:50:13.999Z</time></trkpt><trkpt lat="43.16344373576377" lon="11.119330376096663"><ele>340.0</ele><time>2026-04-04T11:50:15.999Z</time></trkpt><trkpt lat="43.16346775236175" lon="11.11919792784503"><ele>339.0</ele><time>2026-04-04T11:50:17.999Z</time></trkpt><trkpt lat="43.163469638254114" lon="11.119042127693367"><ele>338.0</ele><time>2026-04-04T11:50:19.999Z</time></trkpt><trkpt lat="43.163475085264594" lon="11.118883831757765"><ele>337.0</ele><time>2026-04-04T11:50:21.999Z</time></trkpt><trkpt lat="43.16348232326941" lon="11.118714594984215"><ele>335.3333333333333</ele><time>2026-04-04T11:50:23.999Z</time></trkpt><trkpt lat="43.1634885185594" lon="11.118574898736558"><ele>333.66666666666663</ele><time>2026-04-04T11:50:25.999Z</time></trkpt><trkpt lat="43.16349014233135" lon="11.118396105109284"><ele>332.0</ele><time>2026-04-04T11:50:27.999Z</time></trkpt><trkpt lat="43.16350240690496" lon="11.118281462266868"><ele>330.3333333333333</ele><time>2026-04-04T11:50:28.999Z</time></trkpt><trkpt lat="43.163506223480496" lon="11.118192412678164"><ele>328.6666666666667</ele><time>2026-04-04T11:50:29.999Z</time></trkpt><trkpt lat="43.1635102574421" lon="11.118104745008058"><ele>327.0</ele><time>2026-04-04T11:50:30.999Z</time></trkpt><trkpt lat="43.1635215142127" lon="11.118009536164198"><ele>325.6</ele><time>2026-04-04T11:50:31.999Z</time></trkpt><trkpt lat="43.16352517387256" lon="11.117915031966172"><ele>324.20000000000005</ele><time>2026-04-04T11:50:32.999Z</time></trkpt><trkpt lat="43.163529711592815" lon="11.117804600620008"><ele>322.8</ele><time>2026-04-04T11:50:33.999Z</time></trkpt><trkpt lat="43.16353385533739" lon="11.117700328490583"><ele>321.4</ele><time>2026-04-04T11:50:34.999Z</time></trkpt><trkpt lat="43.16354479969323" lon="11.117538400171844"><ele>320.0</ele><time>2026-04-04T11:50:36.999Z</time></trkpt><trkpt lat="43.16356061003942" lon="11.117376337979293"><ele>319.5</ele><time>2026-04-04T11:50:38.999Z</time></trkpt><trkpt lat="43.16357049896117" lon="11.117275098664642"><ele>319.0</ele><time>2026-04-04T11:50:39.999Z</time></trkpt><trkpt lat="43.163582236847006" lon="11.117166762790102"><ele>318.5</ele><time>2026-04-04T11:50:40.999Z</time></trkpt><trkpt lat="43.163603014039566" lon="11.117001271807922"><ele>318.0</ele><time>2026-04-04T11:50:42.999Z</time></trkpt><trkpt lat="43.16361159835765" lon="11.11686407249467"><ele>317.5</ele><time>2026-04-04T11:50:44.999Z</time></trkpt><trkpt lat="43.16361112411216" lon="11.116776239224178"><ele>317.0</ele><time>2026-04-04T11:50:47.999Z</time></trkpt><trkpt lat="43.163611428267025" lon="11.116679200695923"><ele>317.0</ele><time>2026-04-04T11:51:14.999Z</time></trkpt><trkpt lat="43.16367592064679" lon="11.116662212060694"><ele>317.0</ele><time>2026-04-04T11:51:18.999Z</time></trkpt><trkpt lat="43.16373239626291" lon="11.11672148567728"><ele>317.0</ele><time>2026-04-04T11:51:21.999Z</time></trkpt><trkpt lat="43.16366130693551" lon="11.11667112301434"><ele>317.0</ele><time>2026-04-04T11:51:28.999Z</time></trkpt><trkpt lat="43.16361505385954" lon="11.1167315080836"><ele>317.0</ele><time>2026-04-04T11:51:39.999Z</time></trkpt><trkpt lat="43.163620866989156" lon="11.116863933084518"><ele>317.0</ele><time>2026-04-04T11:51:41.999Z</time></trkpt><trkpt lat="43.16361686700086" lon="11.116962083066925"><ele>317.0</ele><time>2026-04-04T11:51:42.999Z</time></trkpt><trkpt lat="43.16361646151924" lon="11.117056062725803"><ele>317.0</ele><time>2026-04-04T11:51:43.999Z</time></trkpt><trkpt lat="43.16361045286417" lon="11.11717318558814"><ele>317.0</ele><time>2026-04-04T11:51:44.999Z</time></trkpt><trkpt lat="43.16360135904162" lon="11.117275570933959"><ele>317.0</ele><time>2026-04-04T11:51:45.999Z</time></trkpt><trkpt lat="43.16358958241226" lon="11.117365951481785"><ele>317.0</ele><time>2026-04-04T11:51:46.999Z</time></trkpt><trkpt lat="43.163567786720584" lon="11.117450801986323"><ele>317.0</ele><time>2026-04-04T11:51:47.999Z</time></trkpt><trkpt lat="43.16354711526132" lon="11.117631409121133"><ele>317.0</ele><time>2026-04-04T11:51:49.999Z</time></trkpt><trkpt lat="43.16353742682025" lon="11.117745239062279"><ele>317.5</ele><time>2026-04-04T11:51:50.999Z</time></trkpt><trkpt lat="43.16352920142516" lon="11.117844699428566"><ele>318.0</ele><time>2026-04-04T11:51:51.999Z</time></trkpt><trkpt lat="43.16352961184875" lon="11.117941870850355"><ele>318.5</ele><time>2026-04-04T11:51:52.999Z</time></trkpt><trkpt lat="43.16353165528469" lon="11.118091011456942"><ele>319.0</ele><time>2026-04-04T11:51:54.999Z</time></trkpt><trkpt lat="43.16352579203088" lon="11.118177077568584"><ele>319.5</ele><time>2026-04-04T11:51:55.999Z</time></trkpt><trkpt lat="43.16351956282021" lon="11.118278053076097"><ele>320.0</ele><time>2026-04-04T11:51:56.999Z</time></trkpt><trkpt lat="43.16350826181916" lon="11.118397434545326"><ele>321.4</ele><time>2026-04-04T11:51:57.999Z</time></trkpt><trkpt lat="43.16349864544129" lon="11.118514249281127"><ele>322.8</ele><time>2026-04-04T11:51:58.999Z</time></trkpt><trkpt lat="43.16349643810558" lon="11.118643178396116"><ele>324.20000000000005</ele><time>2026-04-04T11:51:59.999Z</time></trkpt><trkpt lat="43.16349714846678" lon="11.118753550302237"><ele>325.6</ele><time>2026-04-04T11:52:00.999Z</time></trkpt><trkpt lat="43.16349672245015" lon="11.118843962737147"><ele>327.0</ele><time>2026-04-04T11:52:01.999Z</time></trkpt><trkpt lat="43.16348024032104" lon="11.119016785209972"><ele>328.6666666666667</ele><time>2026-04-04T11:52:03.999Z</time></trkpt><trkpt lat="43.163474676286924" lon="11.11911619151243"><ele>330.3333333333333</ele><time>2026-04-04T11:52:04.999Z</time></trkpt><trkpt lat="43.16346823249447" lon="11.119218281806914"><ele>332.0</ele><time>2026-04-04T11:52:05.999Z</time></trkpt><trkpt lat="43.16346304517191" lon="11.119335341795342"><ele>333.66666666666663</ele><time>2026-04-04T11:52:06.999Z</time></trkpt><trkpt lat="43.16346047633645" lon="11.119459405071465"><ele>335.3333333333333</ele><time>2026-04-04T11:52:07.999Z</time></trkpt><trkpt lat="43.163467296642665" lon="11.119577815448647"><ele>337.0</ele><time>2026-04-04T11:52:08.999Z</time></trkpt><trkpt lat="43.16347629652478" lon="11.119692495664733"><ele>337.0</ele><time>2026-04-04T11:52:09.999Z</time></trkpt><trkpt lat="43.16351102485249" lon="11.119840662124767"><ele>337.0</ele><time>2026-04-04T11:52:11.999Z</time></trkpt><trkpt lat="43.16356005709282" lon="11.11993186344802"><ele>337.0</ele><time>2026-04-04T11:52:13.999Z</time></trkpt><trkpt lat="43.163626987839365" lon="11.120040076218874"><ele>337.0</ele><time>2026-04-04T11:52:16.999Z</time></trkpt><trkpt lat="43.16366382463645" lon="11.120114465732092"><ele>337.0</ele><time>2026-04-04T11:52:17.999Z</time></trkpt><trkpt lat="43.163704148361596" lon="11.12018539028671"><ele>337.0</ele><time>2026-04-04T11:52:18.999Z</time></trkpt><trkpt lat="43.16377465522084" lon="11.120309550126613"><ele>336.8</ele><time>2026-04-04T11:52:20.999Z</time></trkpt><trkpt lat="43.16385104119089" lon="11.120447885537816"><ele>336.6</ele><time>2026-04-04T11:52:22.999Z</time></trkpt><trkpt lat="43.16388834116328" lon="11.120524138147198"><ele>336.40000000000003</ele><time>2026-04-04T11:52:23.999Z</time></trkpt><trkpt lat="43.16395356865764" lon="11.120667636554606"><ele>336.20000000000005</ele><time>2026-04-04T11:52:25.999Z</time></trkpt><trkpt lat="43.16402631683004" lon="11.120801660446386"><ele>336.0</ele><time>2026-04-04T11:52:27.999Z</time></trkpt><trkpt lat="43.16410032560698" lon="11.120924045027605"><ele>336.0</ele><time>2026-04-04T11:52:29.999Z</time></trkpt><trkpt lat="43.164124346037156" lon="11.121062201755395"><ele>336.0</ele><time>2026-04-04T11:52:31.999Z</time></trkpt><trkpt lat="43.16409329620322" lon="11.121191147776521"><ele>336.0</ele><time>2026-04-04T11:52:33.999Z</time></trkpt><trkpt lat="43.16405755925576" lon="11.121274505203791"><ele>336.0</ele><time>2026-04-04T11:52:34.999Z</time></trkpt><trkpt lat="43.1640168220435" lon="11.12137039682435"><ele>336.0</ele><time>2026-04-04T11:52:35.999Z</time></trkpt><trkpt lat="43.163975529840066" lon="11.12146759467481"><ele>336.0</ele><time>2026-04-04T11:52:36.999Z</time></trkpt><trkpt lat="43.16392801846655" lon="11.121579431902067"><ele>336.0</ele><time>2026-04-04T11:52:37.999Z</time></trkpt><trkpt lat="43.163893439192115" lon="11.121660828302424"><ele>336.0</ele><time>2026-04-04T11:52:38.999Z</time></trkpt><trkpt lat="43.16388958173803" lon="11.121752201198934"><ele>336.0</ele><time>2026-04-04T11:52:41.999Z</time></trkpt><trkpt lat="43.16392463463262" lon="11.121632716080299"><ele>336.0</ele><time>2026-04-04T11:52:44.999Z</time></trkpt><trkpt lat="43.1639953114923" lon="11.121466353503488"><ele>336.0</ele><time>2026-04-04T11:52:46.999Z</time></trkpt><trkpt lat="43.16403924860639" lon="11.1213629296244"><ele>335.5</ele><time>2026-04-04T11:52:47.999Z</time></trkpt><trkpt lat="43.16410590351229" lon="11.121274729861437"><ele>335.0</ele><time>2026-04-04T11:52:48.999Z</time></trkpt><trkpt lat="43.16414909147321" lon="11.121177440387408"><ele>334.5</ele><time>2026-04-04T11:52:49.999Z</time></trkpt><trkpt lat="43.16418725903256" lon="11.121085105376778"><ele>334.0</ele><time>2026-04-04T11:52:50.999Z</time></trkpt><trkpt lat="43.164227019332415" lon="11.120984927793327"><ele>333.5</ele><time>2026-04-04T11:52:51.999Z</time></trkpt><trkpt lat="43.16427282809403" lon="11.120881714320939"><ele>333.0</ele><time>2026-04-04T11:52:52.999Z</time></trkpt><trkpt lat="43.16431772697937" lon="11.120787871885195"><ele>334.5</ele><time>2026-04-04T11:52:53.999Z</time></trkpt><trkpt lat="43.16436155043883" lon="11.120701421470084"><ele>336.0</ele><time>2026-04-04T11:52:54.999Z</time></trkpt><trkpt lat="43.164407218934755" lon="11.120615132376646"><ele>337.5</ele><time>2026-04-04T11:52:55.999Z</time></trkpt><trkpt lat="43.16445025852112" lon="11.120537350204708"><ele>339.0</ele><time>2026-04-04T11:52:56.999Z</time></trkpt><trkpt lat="43.16449347350319" lon="11.12046032774973"><ele>340.5</ele><time>2026-04-04T11:52:57.999Z</time></trkpt><trkpt lat="43.16453972198758" lon="11.120375865624116"><ele>342.0</ele><time>2026-04-04T11:52:58.999Z</time></trkpt><trkpt lat="43.16460116274872" lon="11.120308940340864"><ele>342.0</ele><time>2026-04-04T11:52:59.999Z</time></trkpt><trkpt lat="43.16466688993811" lon="11.120211736973996"><ele>342.0</ele><time>2026-04-04T11:53:00.999Z</time></trkpt><trkpt lat="43.16472373268782" lon="11.120103885855517"><ele>342.0</ele><time>2026-04-04T11:53:01.999Z</time></trkpt><trkpt lat="43.164806629441195" lon="11.120002244192"><ele>342.0</ele><time>2026-04-04T11:53:02.999Z</time></trkpt><trkpt lat="43.16489547990106" lon="11.119912832740813"><ele>342.0</ele><time>2026-04-04T11:53:03.999Z</time></trkpt><trkpt lat="43.16498443128329" lon="11.119810298613036"><ele>341.40000000000003</ele><time>2026-04-04T11:53:04.999Z</time></trkpt><trkpt lat="43.16507716258632" lon="11.119709924301917"><ele>340.8</ele><time>2026-04-04T11:53:05.999Z</time></trkpt><trkpt lat="43.16517049165103" lon="11.119614903913414"><ele>340.2</ele><time>2026-04-04T11:53:06.999Z</time></trkpt><trkpt lat="43.16525313531099" lon="11.119533355998765"><ele>339.6</ele><time>2026-04-04T11:53:07.999Z</time></trkpt><trkpt lat="43.165329463320134" lon="11.119458040216706"><ele>339.0</ele><time>2026-04-04T11:53:08.999Z</time></trkpt><trkpt lat="43.16539870937322" lon="11.119368966217111"><ele>339.0</ele><time>2026-04-04T11:53:09.999Z</time></trkpt><trkpt lat="43.165478104390075" lon="11.119291501266812"><ele>339.0</ele><time>2026-04-04T11:53:10.999Z</time></trkpt><trkpt lat="43.16557884293731" lon="11.119209403840244"><ele>339.0</ele><time>2026-04-04T11:53:11.999Z</time></trkpt><trkpt lat="43.165688336957274" lon="11.119111910715384"><ele>339.0</ele><time>2026-04-04T11:53:12.999Z</time></trkpt><trkpt lat="43.165801969128424" lon="11.119017542580238"><ele>339.75</ele><time>2026-04-04T11:53:13.999Z</time></trkpt><trkpt lat="43.16592282608554" lon="11.118926714709135"><ele>340.5</ele><time>2026-04-04T11:53:14.999Z</time></trkpt><trkpt lat="43.16605223416306" lon="11.118845847450775"><ele>341.25</ele><time>2026-04-04T11:53:15.999Z</time></trkpt><trkpt lat="43.16619013227358" lon="11.118770492842486"><ele>342.0</ele><time>2026-04-04T11:53:16.999Z</time></trkpt><trkpt lat="43.1663264558675" lon="11.118693387308994"><ele>342.0</ele><time>2026-04-04T11:53:17.999Z</time></trkpt><trkpt lat="43.166463569553855" lon="11.118617063612637"><ele>342.0</ele><time>2026-04-04T11:53:18.999Z</time></trkpt><trkpt lat="43.16658598216711" lon="11.118538395607855"><ele>342.0</ele><time>2026-04-04T11:53:19.999Z</time></trkpt><trkpt lat="43.16669526074534" lon="11.11843094708341"><ele>342.0</ele><time>2026-04-04T11:53:20.999Z</time></trkpt><trkpt lat="43.16679041341251" lon="11.118300674016144"><ele>345.25</ele><time>2026-04-04T11:53:21.999Z</time></trkpt><trkpt lat="43.16686120201633" lon="11.118129439714355"><ele>348.5</ele><time>2026-04-04T11:53:22.999Z</time></trkpt><trkpt lat="43.16693371738718" lon="11.117969534439718"><ele>351.75</ele><time>2026-04-04T11:53:23.999Z</time></trkpt><trkpt lat="43.16700481741245" lon="11.117804179986887"><ele>355.0</ele><time>2026-04-04T11:53:24.999Z</time></trkpt><trkpt lat="43.167071089167905" lon="11.117633029930088"><ele>355.0</ele><time>2026-04-04T11:53:25.999Z</time></trkpt><trkpt lat="43.167132498660195" lon="11.117466308508142"><ele>355.0</ele><time>2026-04-04T11:53:26.999Z</time></trkpt><trkpt lat="43.16718918444878" lon="11.1172966284453"><ele>355.0</ele><time>2026-04-04T11:53:27.999Z</time></trkpt><trkpt lat="43.16722637691203" lon="11.117116303466679"><ele>355.0</ele><time>2026-04-04T11:53:28.999Z</time></trkpt><trkpt lat="43.167245491700136" lon="11.116934989662347"><ele>355.4</ele><time>2026-04-04T11:53:29.999Z</time></trkpt><trkpt lat="43.16723457669345" lon="11.116774732557541"><ele>355.8</ele><time>2026-04-04T11:53:30.999Z</time></trkpt><trkpt lat="43.167206937017056" lon="11.116630106472593"><ele>356.20000000000005</ele><time>2026-04-04T11:53:31.999Z</time></trkpt><trkpt lat="43.16718498291622" lon="11.116490659185484"><ele>356.6</ele><time>2026-04-04T11:53:32.999Z</time></trkpt><trkpt lat="43.16720917438075" lon="11.116340906452088"><ele>357.0</ele><time>2026-04-04T11:53:33.999Z</time></trkpt><trkpt lat="43.16725371818117" lon="11.116196721406697"><ele>357.5</ele><time>2026-04-04T11:53:34.999Z</time></trkpt><trkpt lat="43.167313803747525" lon="11.116037381561561"><ele>358.0</ele><time>2026-04-04T11:53:35.999Z</time></trkpt><trkpt lat="43.16743046873227" lon="11.115919303486868"><ele>358.5</ele><time>2026-04-04T11:53:36.999Z</time></trkpt><trkpt lat="43.16753127692724" lon="11.115766640854373"><ele>359.0</ele><time>2026-04-04T11:53:37.999Z</time></trkpt><trkpt lat="43.167638075001456" lon="11.115617735956375"><ele>359.0</ele><time>2026-04-04T11:53:38.999Z</time></trkpt><trkpt lat="43.16773225845205" lon="11.115449483462585"><ele>359.0</ele><time>2026-04-04T11:53:39.999Z</time></trkpt><trkpt lat="43.16781826946034" lon="11.115277360574296"><ele>359.0</ele><time>2026-04-04T11:53:40.999Z</time></trkpt><trkpt lat="43.16790114114477" lon="11.115095476565688"><ele>359.0</ele><time>2026-04-04T11:53:41.999Z</time></trkpt><trkpt lat="43.167978024505445" lon="11.114918985339175"><ele>359.0</ele><time>2026-04-04T11:53:42.999Z</time></trkpt><trkpt lat="43.16806535997899" lon="11.114778616592025"><ele>359.0</ele><time>2026-04-04T11:53:43.999Z</time></trkpt><trkpt lat="43.16813984029958" lon="11.114638701600407"><ele>359.0</ele><time>2026-04-04T11:53:44.999Z</time></trkpt><trkpt lat="43.16820979800717" lon="11.114472542704336"><ele>359.25</ele><time>2026-04-04T11:53:45.999Z</time></trkpt><trkpt lat="43.168298553548674" lon="11.114316717145751"><ele>359.5</ele><time>2026-04-04T11:53:46.999Z</time></trkpt><trkpt lat="43.16838508505057" lon="11.114147571392719"><ele>359.75</ele><time>2026-04-04T11:53:47.999Z</time></trkpt><trkpt lat="43.16846045280121" lon="11.113971829021946"><ele>360.0</ele><time>2026-04-04T11:53:48.999Z</time></trkpt><trkpt lat="43.168520320169605" lon="11.113796871117982"><ele>360.0</ele><time>2026-04-04T11:53:49.999Z</time></trkpt><trkpt lat="43.16856677982869" lon="11.113613873181487"><ele>360.0</ele><time>2026-04-04T11:53:50.999Z</time></trkpt><trkpt lat="43.16859572079541" lon="11.113423865149736"><ele>360.0</ele><time>2026-04-04T11:53:51.999Z</time></trkpt><trkpt lat="43.16860996622561" lon="11.113252448315256"><ele>360.0</ele><time>2026-04-04T11:53:52.999Z</time></trkpt><trkpt lat="43.16865287709612" lon="11.11309149058284"><ele>358.5</ele><time>2026-04-04T11:53:53.999Z</time></trkpt><trkpt lat="43.168703266087526" lon="11.112946069135386"><ele>357.0</ele><time>2026-04-04T11:53:54.999Z</time></trkpt><trkpt lat="43.168769721571955" lon="11.112820139894392"><ele>355.5</ele><time>2026-04-04T11:53:55.999Z</time></trkpt><trkpt lat="43.16884713499021" lon="11.112714720532834"><ele>354.0</ele><time>2026-04-04T11:53:56.999Z</time></trkpt><trkpt lat="43.16893839022525" lon="11.112627536409088"><ele>354.0</ele><time>2026-04-04T11:53:57.999Z</time></trkpt><trkpt lat="43.16903805848244" lon="11.112531794584187"><ele>354.0</ele><time>2026-04-04T11:53:58.999Z</time></trkpt><trkpt lat="43.169163149914915" lon="11.112470544145216"><ele>354.0</ele><time>2026-04-04T11:53:59.999Z</time></trkpt><trkpt lat="43.169302394782704" lon="11.112421041241587"><ele>354.0</ele><time>2026-04-04T11:54:00.999Z</time></trkpt><trkpt lat="43.16944398837507" lon="11.112390444624152"><ele>354.0</ele><time>2026-04-04T11:54:01.999Z</time></trkpt><trkpt lat="43.169585582517485" lon="11.112390154857229"><ele>354.0</ele><time>2026-04-04T11:54:02.999Z</time></trkpt><trkpt lat="43.1697196916733" lon="11.11244363964288"><ele>354.0</ele><time>2026-04-04T11:54:03.999Z</time></trkpt><trkpt lat="43.16984784159229" lon="11.112467945740415"><ele>354.0</ele><time>2026-04-04T11:54:04.999Z</time></trkpt><trkpt lat="43.16996282092604" lon="11.112502914143667"><ele>353.5</ele><time>2026-04-04T11:54:05.999Z</time></trkpt><trkpt lat="43.17008421386088" lon="11.112484096913953"><ele>353.0</ele><time>2026-04-04T11:54:06.999Z</time></trkpt><trkpt lat="43.170219773655326" lon="11.112423107916928"><ele>352.5</ele><time>2026-04-04T11:54:07.999Z</time></trkpt><trkpt lat="43.17036148485926" lon="11.112361292086279"><ele>352.0</ele><time>2026-04-04T11:54:08.999Z</time></trkpt><trkpt lat="43.170513294338676" lon="11.112304615294237"><ele>353.25</ele><time>2026-04-04T11:54:09.999Z</time></trkpt><trkpt lat="43.17066394825371" lon="11.112257656739166"><ele>354.5</ele><time>2026-04-04T11:54:10.999Z</time></trkpt><trkpt lat="43.1707909711904" lon="11.112218646956912"><ele>355.75</ele><time>2026-04-04T11:54:11.999Z</time></trkpt><trkpt lat="43.170915133276864" lon="11.112185149318545"><ele>357.0</ele><time>2026-04-04T11:54:12.999Z</time></trkpt><trkpt lat="43.171041642520606" lon="11.112156890248524"><ele>357.0</ele><time>2026-04-04T11:54:13.999Z</time></trkpt><trkpt lat="43.17115679238543" lon="11.112136004197328"><ele>357.0</ele><time>2026-04-04T11:54:14.999Z</time></trkpt><trkpt lat="43.17125383518216" lon="11.112135931513242"><ele>357.0</ele><time>2026-04-04T11:54:15.999Z</time></trkpt><trkpt lat="43.17131932415681" lon="11.112139717812674"><ele>357.0</ele><time>2026-04-04T11:54:16.999Z</time></trkpt><trkpt lat="43.17138287035636" lon="11.112110972236938"><ele>357.0</ele><time>2026-04-04T11:54:18.999Z</time></trkpt><trkpt lat="43.171278312145155" lon="11.111982233866305"><ele>357.0</ele><time>2026-04-04T11:54:41.999Z</time></trkpt><trkpt lat="43.1711867745157" lon="11.111949645458177"><ele>357.0</ele><time>2026-04-04T11:54:42.999Z</time></trkpt><trkpt lat="43.17108658205928" lon="11.111935627315898"><ele>357.0</ele><time>2026-04-04T11:54:43.999Z</time></trkpt><trkpt lat="43.17098657035536" lon="11.11189391865367"><ele>357.0</ele><time>2026-04-04T11:54:44.999Z</time></trkpt><trkpt lat="43.17086962837844" lon="11.111874389460622"><ele>357.0</ele><time>2026-04-04T11:54:45.999Z</time></trkpt><trkpt lat="43.17074933183556" lon="11.111856303373543"><ele>358.6</ele><time>2026-04-04T11:54:46.999Z</time></trkpt><trkpt lat="43.1706374387409" lon="11.11183052069102"><ele>360.20000000000005</ele><time>2026-04-04T11:54:47.999Z</time></trkpt><trkpt lat="43.17053540561047" lon="11.111790502842355"><ele>361.8</ele><time>2026-04-04T11:54:48.999Z</time></trkpt><trkpt lat="43.1704347519237" lon="11.111735598760283"><ele>363.4</ele><time>2026-04-04T11:54:49.999Z</time></trkpt><trkpt lat="43.17032958421423" lon="11.111664501509207"><ele>365.0</ele><time>2026-04-04T11:54:50.999Z</time></trkpt><trkpt lat="43.17021982306849" lon="11.111570846093452"><ele>365.5</ele><time>2026-04-04T11:54:51.999Z</time></trkpt><trkpt lat="43.17012036725023" lon="11.111474554458018"><ele>366.0</ele><time>2026-04-04T11:54:52.999Z</time></trkpt><trkpt lat="43.1700270080126" lon="11.111366867591256"><ele>366.5</ele><time>2026-04-04T11:54:53.999Z</time></trkpt><trkpt lat="43.169958050745585" lon="11.111238119515077"><ele>367.0</ele><time>2026-04-04T11:54:54.999Z</time></trkpt><trkpt lat="43.169890275016" lon="11.11109199432726"><ele>366.75</ele><time>2026-04-04T11:54:55.999Z</time></trkpt><trkpt lat="43.16982081780963" lon="11.110934886260246"><ele>366.5</ele><time>2026-04-04T11:54:56.999Z</time></trkpt><trkpt lat="43.169745984466715" lon="11.110773598977413"><ele>366.25</ele><time>2026-04-04T11:54:57.999Z</time></trkpt><trkpt lat="43.16966693348285" lon="11.110618373573173"><ele>366.0</ele><time>2026-04-04T11:54:58.999Z</time></trkpt><trkpt lat="43.16957894264923" lon="11.110487268765898"><ele>367.4</ele><time>2026-04-04T11:54:59.999Z</time></trkpt><trkpt lat="43.16951134916041" lon="11.110363819060018"><ele>368.8</ele><time>2026-04-04T11:55:00.999Z</time></trkpt><trkpt lat="43.16946201618916" lon="11.110251133289212"><ele>370.2</ele><time>2026-04-04T11:55:01.999Z</time></trkpt><trkpt lat="43.16940554729895" lon="11.11015515347699"><ele>371.59999999999997</ele><time>2026-04-04T11:55:02.999Z</time></trkpt><trkpt lat="43.16934735650055" lon="11.110049524002477"><ele>373.0</ele><time>2026-04-04T11:55:03.999Z</time></trkpt><trkpt lat="43.169275775872244" lon="11.109920264360218"><ele>373.5</ele><time>2026-04-04T11:55:04.999Z</time></trkpt><trkpt lat="43.1691838056166" lon="11.10980006154215"><ele>374.0</ele><time>2026-04-04T11:55:05.999Z</time></trkpt><trkpt lat="43.169097201665636" lon="11.109640558730536"><ele>374.5</ele><time>2026-04-04T11:55:06.999Z</time></trkpt><trkpt lat="43.16899461561225" lon="11.109496990211493"><ele>375.0</ele><time>2026-04-04T11:55:07.999Z</time></trkpt><trkpt lat="43.16887087067763" lon="11.109357883375928"><ele>376.0</ele><time>2026-04-04T11:55:08.999Z</time></trkpt><trkpt lat="43.1687302475258" lon="11.109199544950124"><ele>377.0</ele><time>2026-04-04T11:55:09.999Z</time></trkpt><trkpt lat="43.16859195491947" lon="11.10903899814509"><ele>378.0</ele><time>2026-04-04T11:55:10.999Z</time></trkpt><trkpt lat="43.16846241431372" lon="11.108861825446388"><ele>378.6666666666667</ele><time>2026-04-04T11:55:11.999Z</time></trkpt><trkpt lat="43.16831535966992" lon="11.10868785116372"><ele>379.33333333333337</ele><time>2026-04-04T11:55:12.999Z</time></trkpt><trkpt lat="43.16817175439181" lon="11.108544025873268"><ele>380.0</ele><time>2026-04-04T11:55:13.999Z</time></trkpt><trkpt lat="43.16805668146167" lon="11.108403452222108"><ele>381.5</ele><time>2026-04-04T11:55:14.999Z</time></trkpt><trkpt lat="43.1679453868532" lon="11.108281598915868"><ele>383.0</ele><time>2026-04-04T11:55:15.999Z</time></trkpt><trkpt lat="43.16785097726623" lon="11.108152227012447"><ele>384.5</ele><time>2026-04-04T11:55:16.999Z</time></trkpt><trkpt lat="43.16775382799221" lon="11.10803158591903"><ele>386.0</ele><time>2026-04-04T11:55:17.999Z</time></trkpt><trkpt lat="43.167664773004184" lon="11.107884539250568"><ele>386.0</ele><time>2026-04-04T11:55:18.999Z</time></trkpt><trkpt lat="43.16758970332877" lon="11.10769873651125"><ele>386.0</ele><time>2026-04-04T11:55:19.999Z</time></trkpt><trkpt lat="43.16750784593474" lon="11.107511759273759"><ele>386.0</ele><time>2026-04-04T11:55:20.999Z</time></trkpt><trkpt lat="43.16744793991918" lon="11.10733435512919"><ele>384.3333333333333</ele><time>2026-04-04T11:55:21.999Z</time></trkpt><trkpt lat="43.16737878270476" lon="11.107153406809601"><ele>382.66666666666663</ele><time>2026-04-04T11:55:22.999Z</time></trkpt><trkpt lat="43.16731084148072" lon="11.106950110547649"><ele>381.0</ele><time>2026-04-04T11:55:23.999Z</time></trkpt><trkpt lat="43.16728303555133" lon="11.106722488543454"><ele>379.3333333333333</ele><time>2026-04-04T11:55:24.999Z</time></trkpt><trkpt lat="43.16726592003963" lon="11.106488576810479"><ele>377.66666666666663</ele><time>2026-04-04T11:55:25.999Z</time></trkpt><trkpt lat="43.16724516998973" lon="11.10625974495734"><ele>376.0</ele><time>2026-04-04T11:55:26.999Z</time></trkpt><trkpt lat="43.16722675146359" lon="11.106026423268236"><ele>376.0</ele><time>2026-04-04T11:55:27.999Z</time></trkpt><trkpt lat="43.16718685728718" lon="11.105800563776949"><ele>376.0</ele><time>2026-04-04T11:55:28.999Z</time></trkpt><trkpt lat="43.16713411111561" lon="11.105612737916417"><ele>376.0</ele><time>2026-04-04T11:55:29.999Z</time></trkpt><trkpt lat="43.16708793875443" lon="11.105441481521392"><ele>376.0</ele><time>2026-04-04T11:55:30.999Z</time></trkpt><trkpt lat="43.167069419709485" lon="11.105270260851421"><ele>375.25</ele><time>2026-04-04T11:55:31.999Z</time></trkpt><trkpt lat="43.16702739052816" lon="11.105115469752345"><ele>374.5</ele><time>2026-04-04T11:55:32.999Z</time></trkpt><trkpt lat="43.16700704607982" lon="11.104961813936304"><ele>373.75</ele><time>2026-04-04T11:55:33.999Z</time></trkpt><trkpt lat="43.16698597240491" lon="11.104801746933719"><ele>373.0</ele><time>2026-04-04T11:55:34.999Z</time></trkpt><trkpt lat="43.166975621477164" lon="11.104623764890997"><ele>374.5</ele><time>2026-04-04T11:55:35.999Z</time></trkpt><trkpt lat="43.16699980367376" lon="11.104430433418358"><ele>376.0</ele><time>2026-04-04T11:55:36.999Z</time></trkpt><trkpt lat="43.16701646412503" lon="11.104239268334409"><ele>377.5</ele><time>2026-04-04T11:55:37.999Z</time></trkpt><trkpt lat="43.167033484023285" lon="11.10407131695811"><ele>379.0</ele><time>2026-04-04T11:55:38.999Z</time></trkpt><trkpt lat="43.16706135126376" lon="11.103913366833282"><ele>381.75</ele><time>2026-04-04T11:55:39.999Z</time></trkpt><trkpt lat="43.16712965809272" lon="11.103768722365185"><ele>384.5</ele><time>2026-04-04T11:55:40.999Z</time></trkpt><trkpt lat="43.167228370050815" lon="11.103636476635604"><ele>387.25</ele><time>2026-04-04T11:55:41.999Z</time></trkpt><trkpt lat="43.16732295287717" lon="11.103491454995758"><ele>390.0</ele><time>2026-04-04T11:55:42.999Z</time></trkpt><trkpt lat="43.167435321817806" lon="11.10335615224959"><ele>391.8</ele><time>2026-04-04T11:55:43.999Z</time></trkpt><trkpt lat="43.16752033657722" lon="11.10322101570181"><ele>393.6</ele><time>2026-04-04T11:55:44.999Z</time></trkpt><trkpt lat="43.16757411630029" lon="11.10310893474594"><ele>395.4</ele><time>2026-04-04T11:55:45.999Z</time></trkpt><trkpt lat="43.16759030293242" lon="11.103002582090063"><ele>397.2</ele><time>2026-04-04T11:55:46.999Z</time></trkpt><trkpt lat="43.167571831405624" lon="11.102912145915889"><ele>399.0</ele><time>2026-04-04T11:55:47.999Z</time></trkpt><trkpt lat="43.16748519614437" lon="11.10278742357492"><ele>399.0</ele><time>2026-04-04T11:55:49.999Z</time></trkpt><trkpt lat="43.167406823915314" lon="11.102756664365847"><ele>399.0</ele><time>2026-04-04T11:55:51.999Z</time></trkpt><trkpt lat="43.16732742076438" lon="11.102717638663458"><ele>399.0</ele><time>2026-04-04T11:56:05Z</time></trkpt><trkpt lat="43.167262146782875" lon="11.102682128489883"><ele>399.0</ele><time>2026-04-04T11:56:06Z</time></trkpt><trkpt lat="43.1671686534463" lon="11.102611486944635"><ele>399.0</ele><time>2026-04-04T11:56:08Z</time></trkpt><trkpt lat="43.1671032536324" lon="11.102570581683718"><ele>399.0</ele><time>2026-04-04T11:56:09Z</time></trkpt><trkpt lat="43.167018886915706" lon="11.102521979352012"><ele>401.0</ele><time>2026-04-04T11:56:10Z</time></trkpt><trkpt lat="43.16692205652748" lon="11.102468889583216"><ele>403.0</ele><time>2026-04-04T11:56:11Z</time></trkpt><trkpt lat="43.166818950074145" lon="11.102424394588708"><ele>405.0</ele><time>2026-04-04T11:56:12Z</time></trkpt><trkpt lat="43.166712309149105" lon="11.102373180775258"><ele>407.0</ele><time>2026-04-04T11:56:12.999Z</time></trkpt><trkpt lat="43.16660315846415" lon="11.102280690717153"><ele>409.75</ele><time>2026-04-04T11:56:13.999Z</time></trkpt><trkpt lat="43.16648429874027" lon="11.102201426278318"><ele>412.5</ele><time>2026-04-04T11:56:14.999Z</time></trkpt><trkpt lat="43.166349173408676" lon="11.10211131473692"><ele>415.25</ele><time>2026-04-04T11:56:15.999Z</time></trkpt><trkpt lat="43.1662141339575" lon="11.102026891584728"><ele>418.0</ele><time>2026-04-04T11:56:16.999Z</time></trkpt><trkpt lat="43.16610403793971" lon="11.10196403344534"><ele>418.0</ele><time>2026-04-04T11:56:17.999Z</time></trkpt><trkpt lat="43.16601540843338" lon="11.101910809963327"><ele>418.0</ele><time>2026-04-04T11:56:18.999Z</time></trkpt><trkpt lat="43.16592641312209" lon="11.101841795226369"><ele>418.0</ele><time>2026-04-04T11:56:19.999Z</time></trkpt><trkpt lat="43.16582646885053" lon="11.101761368416435"><ele>418.0</ele><time>2026-04-04T11:56:20.999Z</time></trkpt><trkpt lat="43.1657222816848" lon="11.101677527279014"><ele>418.0</ele><time>2026-04-04T11:56:21.999Z</time></trkpt><trkpt lat="43.16563443884435" lon="11.101606599746464"><ele>419.5</ele><time>2026-04-04T11:56:22.999Z</time></trkpt><trkpt lat="43.16555661532514" lon="11.10154377047091"><ele>421.0</ele><time>2026-04-04T11:56:23.999Z</time></trkpt><trkpt lat="43.16546233927603" lon="11.101467658573652"><ele>422.5</ele><time>2026-04-04T11:56:25Z</time></trkpt><trkpt lat="43.165345926447635" lon="11.101373674981595"><ele>424.0</ele><time>2026-04-04T11:56:26Z</time></trkpt><trkpt lat="43.1652151430875" lon="11.101268089627903"><ele>424.0</ele><time>2026-04-04T11:56:27Z</time></trkpt><trkpt lat="43.165087699801504" lon="11.101160249690333"><ele>424.0</ele><time>2026-04-04T11:56:28Z</time></trkpt><trkpt lat="43.164947055128515" lon="11.101079408250733"><ele>424.0</ele><time>2026-04-04T11:56:29Z</time></trkpt><trkpt lat="43.16482118066212" lon="11.10101085150723"><ele>424.0</ele><time>2026-04-04T11:56:30Z</time></trkpt><trkpt lat="43.16471194411294" lon="11.100955840798973"><ele>425.5</ele><time>2026-04-04T11:56:31Z</time></trkpt><trkpt lat="43.164607761687584" lon="11.100899627574872"><ele>427.0</ele><time>2026-04-04T11:56:32Z</time></trkpt><trkpt lat="43.164523960098656" lon="11.10079614745498"><ele>428.5</ele><time>2026-04-04T11:56:33Z</time></trkpt><trkpt lat="43.164435004031496" lon="11.100680587845028"><ele>430.0</ele><time>2026-04-04T11:56:34Z</time></trkpt><trkpt lat="43.164359323704296" lon="11.100538931900932"><ele>430.5</ele><time>2026-04-04T11:56:35Z</time></trkpt><trkpt lat="43.16427316736183" lon="11.100386700906487"><ele>431.0</ele><time>2026-04-04T11:56:36Z</time></trkpt><trkpt lat="43.16417901979905" lon="11.100231945750393"><ele>431.5</ele><time>2026-04-04T11:56:37Z</time></trkpt><trkpt lat="43.164097145725016" lon="11.100075003746792"><ele>432.0</ele><time>2026-04-04T11:56:38Z</time></trkpt><trkpt lat="43.164007655225774" lon="11.09994467432832"><ele>434.0</ele><time>2026-04-04T11:56:39Z</time></trkpt><trkpt lat="43.16391643528481" lon="11.099802182979552"><ele>436.0</ele><time>2026-04-04T11:56:40Z</time></trkpt><trkpt lat="43.16379755429379" lon="11.099658755003592"><ele>438.0</ele><time>2026-04-04T11:56:41Z</time></trkpt><trkpt lat="43.16365911712167" lon="11.099503215117068"><ele>438.0</ele><time>2026-04-04T11:56:42Z</time></trkpt><trkpt lat="43.16349739156202" lon="11.09935170785771"><ele>438.0</ele><time>2026-04-04T11:56:43Z</time></trkpt><trkpt lat="43.16337883604197" lon="11.099213754237612"><ele>438.0</ele><time>2026-04-04T11:56:44Z</time></trkpt><trkpt lat="43.16324705112098" lon="11.099103118017348"><ele>438.75</ele><time>2026-04-04T11:56:45Z</time></trkpt><trkpt lat="43.163121817382816" lon="11.099004649227636"><ele>439.5</ele><time>2026-04-04T11:56:46Z</time></trkpt><trkpt lat="43.163015611897244" lon="11.098909622395787"><ele>440.25</ele><time>2026-04-04T11:56:47Z</time></trkpt><trkpt lat="43.16293117204957" lon="11.0987943753464"><ele>441.0</ele><time>2026-04-04T11:56:48Z</time></trkpt><trkpt lat="43.16288188515171" lon="11.098667492786827"><ele>441.0</ele><time>2026-04-04T11:56:49Z</time></trkpt><trkpt lat="43.162873100098835" lon="11.09852483194866"><ele>441.0</ele><time>2026-04-04T11:56:50Z</time></trkpt><trkpt lat="43.16285987296955" lon="11.098377696225398"><ele>441.0</ele><time>2026-04-04T11:56:51Z</time></trkpt><trkpt lat="43.162896043360234" lon="11.098219989158268"><ele>441.0</ele><time>2026-04-04T11:56:52Z</time></trkpt><trkpt lat="43.16290873803583" lon="11.098058139764333"><ele>443.6</ele><time>2026-04-04T11:56:53Z</time></trkpt><trkpt lat="43.16289036906706" lon="11.097919268161872"><ele>446.20000000000005</ele><time>2026-04-04T11:56:54Z</time></trkpt><trkpt lat="43.162857792125955" lon="11.097779079311191"><ele>448.79999999999995</ele><time>2026-04-04T11:56:55Z</time></trkpt><trkpt lat="43.16277440816058" lon="11.097658317083113"><ele>451.4</ele><time>2026-04-04T11:56:56Z</time></trkpt><trkpt lat="43.16271709459629" lon="11.097564186654392"><ele>454.0</ele><time>2026-04-04T11:56:57Z</time></trkpt><trkpt lat="43.16265866884354" lon="11.097525847242634"><ele>454.00000000000006</ele><time>2026-04-04T11:56:58Z</time></trkpt><trkpt lat="43.16258502054523" lon="11.097555164843435"><ele>454.0</ele><time>2026-04-04T11:56:59Z</time></trkpt><trkpt lat="43.162506936216104" lon="11.097608378938366"><ele>454.0</ele><time>2026-04-04T11:57:00Z</time></trkpt><trkpt lat="43.16240692808488" lon="11.097628203800289"><ele>454.0</ele><time>2026-04-04T11:57:01Z</time></trkpt><trkpt lat="43.162318131383714" lon="11.09764508050949"><ele>454.00000000000006</ele><time>2026-04-04T11:57:02Z</time></trkpt><trkpt lat="43.16225310372488" lon="11.097572108174012"><ele>454.0</ele><time>2026-04-04T11:57:03Z</time></trkpt><trkpt lat="43.16221986889412" lon="11.097460865308836"><ele>451.5</ele><time>2026-04-04T11:57:04Z</time></trkpt><trkpt lat="43.16221239363082" lon="11.097315996134412"><ele>449.0</ele><time>2026-04-04T11:57:05Z</time></trkpt><trkpt lat="43.16221505939755" lon="11.097146431909735"><ele>446.5</ele><time>2026-04-04T11:57:06Z</time></trkpt><trkpt lat="43.16220985790903" lon="11.096944890458676"><ele>444.0</ele><time>2026-04-04T11:57:07Z</time></trkpt><trkpt lat="43.16220171081665" lon="11.096728634086508"><ele>446.25</ele><time>2026-04-04T11:57:08Z</time></trkpt><trkpt lat="43.162198703814944" lon="11.09654009160887"><ele>448.5</ele><time>2026-04-04T11:57:09Z</time></trkpt><trkpt lat="43.16219250028912" lon="11.09638229170975"><ele>450.75</ele><time>2026-04-04T11:57:10Z</time></trkpt><trkpt lat="43.16216790167475" lon="11.09624281028217"><ele>453.0</ele><time>2026-04-04T11:57:11Z</time></trkpt><trkpt lat="43.162115108534984" lon="11.096125029374269"><ele>453.0</ele><time>2026-04-04T11:57:12Z</time></trkpt><trkpt lat="43.16203438133558" lon="11.0960103119638"><ele>453.0</ele><time>2026-04-04T11:57:13Z</time></trkpt><trkpt lat="43.16192364311585" lon="11.095886044815849"><ele>453.0</ele><time>2026-04-04T11:57:14Z</time></trkpt><trkpt lat="43.16178841783843" lon="11.095753090694602"><ele>453.0</ele><time>2026-04-04T11:57:15Z</time></trkpt><trkpt lat="43.161666514442366" lon="11.095590527346197"><ele>452.66666666666663</ele><time>2026-04-04T11:57:16Z</time></trkpt><trkpt lat="43.16153471418003" lon="11.09545051555664"><ele>452.3333333333333</ele><time>2026-04-04T11:57:17Z</time></trkpt><trkpt lat="43.16140435569759" lon="11.09532929692442"><ele>452.0</ele><time>2026-04-04T11:57:18Z</time></trkpt><trkpt lat="43.16127546193146" lon="11.095213627867588"><ele>452.0</ele><time>2026-04-04T11:57:19Z</time></trkpt><trkpt lat="43.16114885224958" lon="11.09510744164646"><ele>452.0</ele><time>2026-04-04T11:57:20Z</time></trkpt><trkpt lat="43.161066624317" lon="11.094958795577531"><ele>452.0</ele><time>2026-04-04T11:57:21Z</time></trkpt><trkpt lat="43.1609808415576" lon="11.094798520816486"><ele>452.0</ele><time>2026-04-04T11:57:22Z</time></trkpt><trkpt lat="43.16090117758882" lon="11.094615470875913"><ele>455.3333333333333</ele><time>2026-04-04T11:57:23Z</time></trkpt><trkpt lat="43.16081487724281" lon="11.094430448868932"><ele>458.66666666666663</ele><time>2026-04-04T11:57:24Z</time></trkpt><trkpt lat="43.16071933866215" lon="11.094254191378173"><ele>462.0</ele><time>2026-04-04T11:57:25Z</time></trkpt><trkpt lat="43.160672340718996" lon="11.094070810954154"><ele>469.25</ele><time>2026-04-04T11:57:26Z</time></trkpt><trkpt lat="43.16064704620914" lon="11.093887842323971"><ele>476.5</ele><time>2026-04-04T11:57:27Z</time></trkpt><trkpt lat="43.160619001292" lon="11.093693089040515"><ele>483.75</ele><time>2026-04-04T11:57:28Z</time></trkpt><trkpt lat="43.1606276684135" lon="11.093496340705482"><ele>491.0</ele><time>2026-04-04T11:57:29Z</time></trkpt><trkpt lat="43.16060834407545" lon="11.093338026849672"><ele>489.25</ele><time>2026-04-04T11:57:30Z</time></trkpt><trkpt lat="43.16054467997313" lon="11.093190337023438"><ele>487.5</ele><time>2026-04-04T11:57:31Z</time></trkpt><trkpt lat="43.160461598424206" lon="11.093043318807013"><ele>485.75</ele><time>2026-04-04T11:57:32Z</time></trkpt><trkpt lat="43.16038231305261" lon="11.092930155298873"><ele>484.0</ele><time>2026-04-04T11:57:33Z</time></trkpt><trkpt lat="43.16027893541942" lon="11.092859670171132"><ele>484.0</ele><time>2026-04-04T11:57:34Z</time></trkpt><trkpt lat="43.160146473472906" lon="11.092826181898287"><ele>484.0</ele><time>2026-04-04T11:57:35Z</time></trkpt><trkpt lat="43.16000045891989" lon="11.092798255529376"><ele>484.0</ele><time>2026-04-04T11:57:36Z</time></trkpt><trkpt lat="43.15987267978752" lon="11.092680148547938"><ele>484.0</ele><time>2026-04-04T11:57:37Z</time></trkpt><trkpt lat="43.15973906167932" lon="11.092548172422637"><ele>484.25</ele><time>2026-04-04T11:57:38Z</time></trkpt><trkpt lat="43.15960707783178" lon="11.092424779066508"><ele>484.5</ele><time>2026-04-04T11:57:39Z</time></trkpt><trkpt lat="43.159488287884244" lon="11.092352703937607"><ele>484.75</ele><time>2026-04-04T11:57:40Z</time></trkpt><trkpt lat="43.15935326106901" lon="11.092265199041186"><ele>485.0</ele><time>2026-04-04T11:57:41Z</time></trkpt><trkpt lat="43.15921461058767" lon="11.092174670960336"><ele>485.0</ele><time>2026-04-04T11:57:42Z</time></trkpt><trkpt lat="43.159098533342174" lon="11.09209789250268"><ele>485.0</ele><time>2026-04-04T11:57:43Z</time></trkpt><trkpt lat="43.159011439657" lon="11.092016708388417"><ele>485.0</ele><time>2026-04-04T11:57:44Z</time></trkpt><trkpt lat="43.1589280671832" lon="11.091947697406384"><ele>485.0</ele><time>2026-04-04T11:57:45Z</time></trkpt><trkpt lat="43.158841368092396" lon="11.091851355510862"><ele>485.0</ele><time>2026-04-04T11:57:46Z</time></trkpt><trkpt lat="43.158754494628354" lon="11.091725756947813"><ele>485.25</ele><time>2026-04-04T11:57:47Z</time></trkpt><trkpt lat="43.158660228167115" lon="11.091581139963141"><ele>485.5</ele><time>2026-04-04T11:57:48Z</time></trkpt><trkpt lat="43.15855713383435" lon="11.091439453948043"><ele>485.75</ele><time>2026-04-04T11:57:49Z</time></trkpt><trkpt lat="43.15847079719181" lon="11.091288657339698"><ele>486.0</ele><time>2026-04-04T11:57:50Z</time></trkpt><trkpt lat="43.15839534341133" lon="11.091151671647642"><ele>486.0</ele><time>2026-04-04T11:57:51Z</time></trkpt><trkpt lat="43.15832416240943" lon="11.09102283365631"><ele>486.0</ele><time>2026-04-04T11:57:52Z</time></trkpt><trkpt lat="43.15822939819271" lon="11.090914020223586"><ele>486.0</ele><time>2026-04-04T11:57:53Z</time></trkpt><trkpt lat="43.15809371878677" lon="11.090819043108361"><ele>486.0</ele><time>2026-04-04T11:57:54Z</time></trkpt><trkpt lat="43.15793630776237" lon="11.090738456956554"><ele>487.25</ele><time>2026-04-04T11:57:55Z</time></trkpt><trkpt lat="43.157792364522656" lon="11.090675547401446"><ele>488.5</ele><time>2026-04-04T11:57:56Z</time></trkpt><trkpt lat="43.15765645106906" lon="11.090648122859983"><ele>489.75</ele><time>2026-04-04T11:57:57Z</time></trkpt><trkpt lat="43.15750164621051" lon="11.090604094656598"><ele>491.0</ele><time>2026-04-04T11:57:58Z</time></trkpt><trkpt lat="43.15733728758807" lon="11.09057579290806"><ele>494.5</ele><time>2026-04-04T11:57:59Z</time></trkpt><trkpt lat="43.15719732458685" lon="11.090547185562363"><ele>498.0</ele><time>2026-04-04T11:58:00Z</time></trkpt><trkpt lat="43.15706871308312" lon="11.090538225001852"><ele>501.5</ele><time>2026-04-04T11:58:01Z</time></trkpt><trkpt lat="43.15694241435699" lon="11.090532154201831"><ele>505.0</ele><time>2026-04-04T11:58:02Z</time></trkpt><trkpt lat="43.15681681157989" lon="11.090528933120606"><ele>505.0</ele><time>2026-04-04T11:58:03Z</time></trkpt><trkpt lat="43.156692121679654" lon="11.090526745584462"><ele>505.0</ele><time>2026-04-04T11:58:04Z</time></trkpt><trkpt lat="43.15659194609689" lon="11.090525955858803"><ele>505.0</ele><time>2026-04-04T11:58:05Z</time></trkpt><trkpt lat="43.15649999023084" lon="11.090525955863324"><ele>505.0</ele><time>2026-04-04T11:58:06Z</time></trkpt><trkpt lat="43.15640645705347" lon="11.090525315257374"><ele>505.0</ele><time>2026-04-04T11:58:07Z</time></trkpt><trkpt lat="43.156326521818315" lon="11.09052268624712"><ele>506.0</ele><time>2026-04-04T11:58:08Z</time></trkpt><trkpt lat="43.156240992642246" lon="11.09051645749566"><ele>507.0</ele><time>2026-04-04T11:58:09Z</time></trkpt><trkpt lat="43.15611156009118" lon="11.090399248494487"><ele>508.0</ele><time>2026-04-04T11:58:11Z</time></trkpt><trkpt lat="43.15607696016166" lon="11.09030124501609"><ele>509.0</ele><time>2026-04-04T11:58:12Z</time></trkpt><trkpt lat="43.156028775277505" lon="11.090214824002736"><ele>510.0</ele><time>2026-04-04T11:58:13Z</time></trkpt><trkpt lat="43.15600969512264" lon="11.0901275628172"><ele>510.0</ele><time>2026-04-04T11:58:14Z</time></trkpt><trkpt lat="43.15597954311758" lon="11.09003584812069"><ele>510.00000000000006</ele><time>2026-04-04T11:58:15Z</time></trkpt><trkpt lat="43.15594824661748" lon="11.08994130828415"><ele>510.0</ele><time>2026-04-04T11:58:16Z</time></trkpt><trkpt lat="43.155923835876855" lon="11.08985082550639"><ele>510.0</ele><time>2026-04-04T11:58:17Z</time></trkpt><trkpt lat="43.155897312833126" lon="11.089754769845344"><ele>510.00000000000006</ele><time>2026-04-04T11:58:18Z</time></trkpt><trkpt lat="43.15587068960953" lon="11.089661098735837"><ele>510.0</ele><time>2026-04-04T11:58:19Z</time></trkpt><trkpt lat="43.15584156940666" lon="11.089579032252258"><ele>510.0</ele><time>2026-04-04T11:58:20Z</time></trkpt><trkpt lat="43.155809961898704" lon="11.0894910222131"><ele>510.6666666666667</ele><time>2026-04-04T11:58:21Z</time></trkpt><trkpt lat="43.15578292023188" lon="11.089408377311786"><ele>511.33333333333337</ele><time>2026-04-04T11:58:22Z</time></trkpt><trkpt lat="43.15575537905887" lon="11.089318613508107"><ele>512.0</ele><time>2026-04-04T11:58:23Z</time></trkpt><trkpt lat="43.15572619673188" lon="11.089241019109549"><ele>512.6666666666667</ele><time>2026-04-04T11:58:24Z</time></trkpt><trkpt lat="43.15568948000821" lon="11.089162056535336"><ele>513.3333333333334</ele><time>2026-04-04T11:58:25Z</time></trkpt><trkpt lat="43.155627481841314" lon="11.089011424621496"><ele>514.0</ele><time>2026-04-04T11:58:27Z</time></trkpt><trkpt lat="43.15557571857124" lon="11.088857069885565"><ele>520.0</ele><time>2026-04-04T11:58:29Z</time></trkpt><trkpt lat="43.15552767294242" lon="11.08872594528121"><ele>526.0</ele><time>2026-04-04T11:58:31Z</time></trkpt><trkpt lat="43.15551873479772" lon="11.088605907353712"><ele>532.0</ele><time>2026-04-04T11:58:33Z</time></trkpt><trkpt lat="43.1554959654597" lon="11.088439730830356"><ele>538.0</ele><time>2026-04-04T11:58:35Z</time></trkpt><trkpt lat="43.155501972782965" lon="11.0882973656092"><ele>544.0</ele><time>2026-04-04T11:58:37Z</time></trkpt><trkpt lat="43.155490355916186" lon="11.088137225815688"><ele>546.1666666666667</ele><time>2026-04-04T11:58:39Z</time></trkpt><trkpt lat="43.15547309210267" lon="11.088049015543927"><ele>548.3333333333334</ele><time>2026-04-04T11:58:40Z</time></trkpt><trkpt lat="43.15546889102528" lon="11.087940681824113"><ele>550.5</ele><time>2026-04-04T11:58:41Z</time></trkpt><trkpt lat="43.15547599343249" lon="11.08785233359711"><ele>552.6666666666666</ele><time>2026-04-04T11:58:42Z</time></trkpt><trkpt lat="43.15547296317868" lon="11.087762252407597"><ele>554.8333333333333</ele><time>2026-04-04T11:58:43Z</time></trkpt><trkpt lat="43.155467328737025" lon="11.08761633058671"><ele>557.0</ele><time>2026-04-04T11:58:45Z</time></trkpt><trkpt lat="43.155457622759585" lon="11.087459506421352"><ele>556.2</ele><time>2026-04-04T11:58:47Z</time></trkpt><trkpt lat="43.15543907766645" lon="11.087315754883296"><ele>555.4000000000001</ele><time>2026-04-04T11:58:49Z</time></trkpt><trkpt lat="43.15538112307839" lon="11.087139142100375"><ele>554.5999999999999</ele><time>2026-04-04T11:58:51Z</time></trkpt><trkpt lat="43.155324027205744" lon="11.087023072646975"><ele>553.8</ele><time>2026-04-04T11:58:52Z</time></trkpt><trkpt lat="43.15526909142824" lon="11.08690949312502"><ele>553.0</ele><time>2026-04-04T11:58:53Z</time></trkpt><trkpt lat="43.15523222705637" lon="11.086835731639333"><ele>553.0</ele><time>2026-04-04T11:58:54Z</time></trkpt><trkpt lat="43.15517854784028" lon="11.086736281001695"><ele>553.0</ele><time>2026-04-04T11:58:56Z</time></trkpt><trkpt lat="43.155129185856005" lon="11.086658147603156"><ele>553.0</ele><time>2026-04-04T11:58:58Z</time></trkpt><trkpt lat="43.15507632833044" lon="11.086590854050694"><ele>553.0</ele><time>2026-04-04T11:59:00Z</time></trkpt><trkpt lat="43.15499692634462" lon="11.086518256985329"><ele>553.0</ele><time>2026-04-04T11:59:03Z</time></trkpt><trkpt lat="43.154931063319" lon="11.086472421955785"><ele>553.0</ele><time>2026-04-04T11:59:04Z</time></trkpt><trkpt lat="43.154860970653736" lon="11.086427704916815"><ele>536.0</ele><time>2026-04-04T11:59:06Z</time></trkpt><trkpt lat="43.15477947469333" lon="11.086392146449477"><ele>536.0</ele><time>2026-04-04T11:59:09Z</time></trkpt><trkpt lat="43.15472605733741" lon="11.086274558077312"><ele>536.0</ele><time>2026-04-04T11:59:11Z</time></trkpt><trkpt lat="43.15466010171296" lon="11.08616503357147"><ele>536.0</ele><time>2026-04-04T11:59:13Z</time></trkpt><trkpt lat="43.15460384962497" lon="11.08607826154301"><ele>536.0</ele><time>2026-04-04T11:59:15Z</time></trkpt></trkseg></trk></gpx>